<?xml version="1.0" encoding="UTF-8" standalone="no" ?>
<gpx xmlns="http://www.topografix.com/GPX/1/1" xmlns:xsi="http://www.w3.org/2001/XMLSchema-instance" xsi:schemaLocation="http://www.topografix.com/GPX/1/1 http://www.topografix.com/GPX/1/1/gpx.xsd" version="1.1" creator="VisuGPX - https://www.visugpx.com">
  <metadata>
    <name>Chx - Damprichard - Goumois</name>
    <desc><![CDATA[Chx-Biaufond-Damprichard-Goumois-Biaufond-Chx
]]></desc>
  </metadata>
  <trk>
    <name><![CDATA[Chx-Biaufond-Damprichard-Goumois-Biaufond-Chx]]></name>
    <cmt><![CDATA[Chx-Biaufond-Damprichard-Goumois-Biaufond-Chx]]></cmt>
    <desc><![CDATA[Chx-Biaufond-Damprichard-Goumois-Biaufond-Chx]]></desc>
    <trkseg>
      <trkpt lat="47.08925" lon="6.82177">
        <ele>1033.132</ele>
        <time>2018-08-01T08:48:22Z</time>
      </trkpt>
      <trkpt lat="47.0893" lon="6.82183">
        <ele>1033.192</ele>
        <time>2018-08-01T08:48:31Z</time>
      </trkpt>
      <trkpt lat="47.08933" lon="6.82191">
        <ele>1033.111</ele>
        <time>2018-08-01T08:48:34Z</time>
      </trkpt>
      <trkpt lat="47.08935" lon="6.82199">
        <ele>1033.108</ele>
        <time>2018-08-01T08:48:37Z</time>
      </trkpt>
      <trkpt lat="47.08938" lon="6.82207">
        <ele>1033.165</ele>
        <time>2018-08-01T08:48:39Z</time>
      </trkpt>
      <trkpt lat="47.08939" lon="6.82216">
        <ele>1033.18</ele>
        <time>2018-08-01T08:48:41Z</time>
      </trkpt>
      <trkpt lat="47.08941" lon="6.82227">
        <ele>1033.144</ele>
        <time>2018-08-01T08:48:43Z</time>
      </trkpt>
      <trkpt lat="47.08944" lon="6.82238">
        <ele>1033.166</ele>
        <time>2018-08-01T08:48:45Z</time>
      </trkpt>
      <trkpt lat="47.08946" lon="6.82244">
        <ele>1033.162</ele>
        <time>2018-08-01T08:48:46Z</time>
      </trkpt>
      <trkpt lat="47.08948" lon="6.82249">
        <ele>1033.139</ele>
        <time>2018-08-01T08:48:47Z</time>
      </trkpt>
      <trkpt lat="47.08952" lon="6.82259">
        <ele>1033.154</ele>
        <time>2018-08-01T08:48:49Z</time>
      </trkpt>
      <trkpt lat="47.08954" lon="6.82269">
        <ele>1033.313</ele>
        <time>2018-08-01T08:48:51Z</time>
      </trkpt>
      <trkpt lat="47.08957" lon="6.82281">
        <ele>1033.644</ele>
        <time>2018-08-01T08:48:53Z</time>
      </trkpt>
      <trkpt lat="47.08961" lon="6.82292">
        <ele>1033.805</ele>
        <time>2018-08-01T08:48:55Z</time>
      </trkpt>
      <trkpt lat="47.08964" lon="6.82301">
        <ele>1033.915</ele>
        <time>2018-08-01T08:48:57Z</time>
      </trkpt>
      <trkpt lat="47.08965" lon="6.82309">
        <ele>1034.408</ele>
        <time>2018-08-01T08:48:59Z</time>
      </trkpt>
      <trkpt lat="47.08968" lon="6.8232">
        <ele>1034.476</ele>
        <time>2018-08-01T08:49:01Z</time>
      </trkpt>
      <trkpt lat="47.0897" lon="6.82329">
        <ele>1034.671</ele>
        <time>2018-08-01T08:49:03Z</time>
      </trkpt>
      <trkpt lat="47.08972" lon="6.82338">
        <ele>1034.865</ele>
        <time>2018-08-01T08:49:05Z</time>
      </trkpt>
      <trkpt lat="47.08974" lon="6.82348">
        <ele>1035.187</ele>
        <time>2018-08-01T08:49:07Z</time>
      </trkpt>
      <trkpt lat="47.08978" lon="6.82358">
        <ele>1035.663</ele>
        <time>2018-08-01T08:49:09Z</time>
      </trkpt>
      <trkpt lat="47.08981" lon="6.8237">
        <ele>1035.85</ele>
        <time>2018-08-01T08:49:11Z</time>
      </trkpt>
      <trkpt lat="47.08983" lon="6.82382">
        <ele>1036.245</ele>
        <time>2018-08-01T08:49:13Z</time>
      </trkpt>
      <trkpt lat="47.08985" lon="6.82394">
        <ele>1036.614</ele>
        <time>2018-08-01T08:49:15Z</time>
      </trkpt>
      <trkpt lat="47.08987" lon="6.82405">
        <ele>1036.832</ele>
        <time>2018-08-01T08:49:17Z</time>
      </trkpt>
      <trkpt lat="47.0899" lon="6.82416">
        <ele>1036.992</ele>
        <time>2018-08-01T08:49:19Z</time>
      </trkpt>
      <trkpt lat="47.08993" lon="6.82426">
        <ele>1037.111</ele>
        <time>2018-08-01T08:49:21Z</time>
      </trkpt>
      <trkpt lat="47.08997" lon="6.82437">
        <ele>1037.608</ele>
        <time>2018-08-01T08:49:23Z</time>
      </trkpt>
      <trkpt lat="47.09" lon="6.82449">
        <ele>1038.285</ele>
        <time>2018-08-01T08:49:25Z</time>
      </trkpt>
      <trkpt lat="47.09001" lon="6.8246">
        <ele>1038.75</ele>
        <time>2018-08-01T08:49:27Z</time>
      </trkpt>
      <trkpt lat="47.09006" lon="6.82471">
        <ele>1039.164</ele>
        <time>2018-08-01T08:49:29Z</time>
      </trkpt>
      <trkpt lat="47.09007" lon="6.82477">
        <ele>1039.396</ele>
        <time>2018-08-01T08:49:30Z</time>
      </trkpt>
      <trkpt lat="47.09009" lon="6.82484">
        <ele>1039.582</ele>
        <time>2018-08-01T08:49:31Z</time>
      </trkpt>
      <trkpt lat="47.0901" lon="6.82496">
        <ele>1039.999</ele>
        <time>2018-08-01T08:49:33Z</time>
      </trkpt>
      <trkpt lat="47.09012" lon="6.82502">
        <ele>1040.144</ele>
        <time>2018-08-01T08:49:34Z</time>
      </trkpt>
      <trkpt lat="47.09015" lon="6.82514">
        <ele>1040.543</ele>
        <time>2018-08-01T08:49:36Z</time>
      </trkpt>
      <trkpt lat="47.09015" lon="6.82521">
        <ele>1040.739</ele>
        <time>2018-08-01T08:49:37Z</time>
      </trkpt>
      <trkpt lat="47.0902" lon="6.82532">
        <ele>1041.101</ele>
        <time>2018-08-01T08:49:39Z</time>
      </trkpt>
      <trkpt lat="47.09024" lon="6.82536">
        <ele>1041.121</ele>
        <time>2018-08-01T08:49:40Z</time>
      </trkpt>
      <trkpt lat="47.0903" lon="6.82539">
        <ele>1041.508</ele>
        <time>2018-08-01T08:49:42Z</time>
      </trkpt>
      <trkpt lat="47.09034" lon="6.82547">
        <ele>1041.825</ele>
        <time>2018-08-01T08:49:44Z</time>
      </trkpt>
      <trkpt lat="47.09038" lon="6.82558">
        <ele>1042.24</ele>
        <time>2018-08-01T08:49:46Z</time>
      </trkpt>
      <trkpt lat="47.0904" lon="6.82569">
        <ele>1042.744</ele>
        <time>2018-08-01T08:49:48Z</time>
      </trkpt>
      <trkpt lat="47.09042" lon="6.82576">
        <ele>1042.956</ele>
        <time>2018-08-01T08:49:49Z</time>
      </trkpt>
      <trkpt lat="47.09042" lon="6.82583">
        <ele>1043.182</ele>
        <time>2018-08-01T08:49:50Z</time>
      </trkpt>
      <trkpt lat="47.09044" lon="6.8259">
        <ele>1043.499</ele>
        <time>2018-08-01T08:49:51Z</time>
      </trkpt>
      <trkpt lat="47.09047" lon="6.82595">
        <ele>1043.664</ele>
        <time>2018-08-01T08:49:52Z</time>
      </trkpt>
      <trkpt lat="47.0905" lon="6.82606">
        <ele>1044.153</ele>
        <time>2018-08-01T08:49:54Z</time>
      </trkpt>
      <trkpt lat="47.09052" lon="6.82617">
        <ele>1044.645</ele>
        <time>2018-08-01T08:49:56Z</time>
      </trkpt>
      <trkpt lat="47.09053" lon="6.82625">
        <ele>1045.247</ele>
        <time>2018-08-01T08:49:59Z</time>
      </trkpt>
      <trkpt lat="47.09064" lon="6.82629">
        <ele>1045.311</ele>
        <time>2018-08-01T08:50:01Z</time>
      </trkpt>
      <trkpt lat="47.09073" lon="6.82631">
        <ele>1045.308</ele>
        <time>2018-08-01T08:50:03Z</time>
      </trkpt>
      <trkpt lat="47.0908" lon="6.82633">
        <ele>1045.296</ele>
        <time>2018-08-01T08:50:04Z</time>
      </trkpt>
      <trkpt lat="47.09088" lon="6.82634">
        <ele>1045.261</ele>
        <time>2018-08-01T08:50:05Z</time>
      </trkpt>
      <trkpt lat="47.09096" lon="6.82635">
        <ele>1045.195</ele>
        <time>2018-08-01T08:50:06Z</time>
      </trkpt>
      <trkpt lat="47.09102" lon="6.82635">
        <ele>1045.047</ele>
        <time>2018-08-01T08:50:07Z</time>
      </trkpt>
      <trkpt lat="47.09107" lon="6.82637">
        <ele>1045.073</ele>
        <time>2018-08-01T08:50:08Z</time>
      </trkpt>
      <trkpt lat="47.09112" lon="6.82634">
        <ele>1044.97</ele>
        <time>2018-08-01T08:50:09Z</time>
      </trkpt>
      <trkpt lat="47.09119" lon="6.82632">
        <ele>1044.965</ele>
        <time>2018-08-01T08:50:10Z</time>
      </trkpt>
      <trkpt lat="47.09123" lon="6.82635">
        <ele>1044.884</ele>
        <time>2018-08-01T08:50:11Z</time>
      </trkpt>
      <trkpt lat="47.09129" lon="6.82633">
        <ele>1044.666</ele>
        <time>2018-08-01T08:50:12Z</time>
      </trkpt>
      <trkpt lat="47.09137" lon="6.82638">
        <ele>1044.429</ele>
        <time>2018-08-01T08:50:13Z</time>
      </trkpt>
      <trkpt lat="47.09144" lon="6.82633">
        <ele>1044.121</ele>
        <time>2018-08-01T08:50:14Z</time>
      </trkpt>
      <trkpt lat="47.09148" lon="6.82628">
        <ele>1043.708</ele>
        <time>2018-08-01T08:50:15Z</time>
      </trkpt>
      <trkpt lat="47.09154" lon="6.82626">
        <ele>1043.348</ele>
        <time>2018-08-01T08:50:16Z</time>
      </trkpt>
      <trkpt lat="47.09157" lon="6.82649">
        <ele>1042.773</ele>
        <time>2018-08-01T08:50:17Z</time>
      </trkpt>
      <trkpt lat="47.09167" lon="6.82654">
        <ele>1041.957</ele>
        <time>2018-08-01T08:50:18Z</time>
      </trkpt>
      <trkpt lat="47.09176" lon="6.82659">
        <ele>1041.169</ele>
        <time>2018-08-01T08:50:19Z</time>
      </trkpt>
      <trkpt lat="47.09184" lon="6.8267">
        <ele>1040.245</ele>
        <time>2018-08-01T08:50:20Z</time>
      </trkpt>
      <trkpt lat="47.09195" lon="6.82685">
        <ele>1039.152</ele>
        <time>2018-08-01T08:50:21Z</time>
      </trkpt>
      <trkpt lat="47.09205" lon="6.82694">
        <ele>1038.177</ele>
        <time>2018-08-01T08:50:22Z</time>
      </trkpt>
      <trkpt lat="47.09215" lon="6.82703">
        <ele>1037.126</ele>
        <time>2018-08-01T08:50:23Z</time>
      </trkpt>
      <trkpt lat="47.09224" lon="6.82713">
        <ele>1036.182</ele>
        <time>2018-08-01T08:50:24Z</time>
      </trkpt>
      <trkpt lat="47.09235" lon="6.82727">
        <ele>1035.143</ele>
        <time>2018-08-01T08:50:25Z</time>
      </trkpt>
      <trkpt lat="47.09248" lon="6.82738">
        <ele>1034.117</ele>
        <time>2018-08-01T08:50:26Z</time>
      </trkpt>
      <trkpt lat="47.0926" lon="6.82747">
        <ele>1033.008</ele>
        <time>2018-08-01T08:50:27Z</time>
      </trkpt>
      <trkpt lat="47.0927" lon="6.82757">
        <ele>1031.97</ele>
        <time>2018-08-01T08:50:28Z</time>
      </trkpt>
      <trkpt lat="47.0928" lon="6.82765">
        <ele>1030.885</ele>
        <time>2018-08-01T08:50:29Z</time>
      </trkpt>
      <trkpt lat="47.0929" lon="6.82774">
        <ele>1029.759</ele>
        <time>2018-08-01T08:50:30Z</time>
      </trkpt>
      <trkpt lat="47.09299" lon="6.82782">
        <ele>1028.531</ele>
        <time>2018-08-01T08:50:31Z</time>
      </trkpt>
      <trkpt lat="47.09307" lon="6.82789">
        <ele>1027.537</ele>
        <time>2018-08-01T08:50:32Z</time>
      </trkpt>
      <trkpt lat="47.09313" lon="6.82795">
        <ele>1027.584</ele>
        <time>2018-08-01T08:50:33Z</time>
      </trkpt>
      <trkpt lat="47.09319" lon="6.82801">
        <ele>1026.429</ele>
        <time>2018-08-01T08:50:34Z</time>
      </trkpt>
      <trkpt lat="47.09325" lon="6.82805">
        <ele>1025.368</ele>
        <time>2018-08-01T08:50:35Z</time>
      </trkpt>
      <trkpt lat="47.09334" lon="6.82814">
        <ele>1023.245</ele>
        <time>2018-08-01T08:50:37Z</time>
      </trkpt>
      <trkpt lat="47.09339" lon="6.82819">
        <ele>1022.147</ele>
        <time>2018-08-01T08:50:38Z</time>
      </trkpt>
      <trkpt lat="47.09344" lon="6.82826">
        <ele>1020.211</ele>
        <time>2018-08-01T08:50:40Z</time>
      </trkpt>
      <trkpt lat="47.09352" lon="6.8283">
        <ele>1019.208</ele>
        <time>2018-08-01T08:50:42Z</time>
      </trkpt>
      <trkpt lat="47.09361" lon="6.82825">
        <ele>1019.216</ele>
        <time>2018-08-01T08:50:44Z</time>
      </trkpt>
      <trkpt lat="47.09368" lon="6.82828">
        <ele>1019.421</ele>
        <time>2018-08-01T08:50:46Z</time>
      </trkpt>
      <trkpt lat="47.09374" lon="6.8283">
        <ele>1019.375</ele>
        <time>2018-08-01T08:50:47Z</time>
      </trkpt>
      <trkpt lat="47.09381" lon="6.82833">
        <ele>1019.167</ele>
        <time>2018-08-01T08:50:48Z</time>
      </trkpt>
      <trkpt lat="47.09387" lon="6.82837">
        <ele>1018.843</ele>
        <time>2018-08-01T08:50:49Z</time>
      </trkpt>
      <trkpt lat="47.09394" lon="6.82841">
        <ele>1018.59</ele>
        <time>2018-08-01T08:50:50Z</time>
      </trkpt>
      <trkpt lat="47.09401" lon="6.82845">
        <ele>1018.375</ele>
        <time>2018-08-01T08:50:51Z</time>
      </trkpt>
      <trkpt lat="47.09406" lon="6.8285">
        <ele>1018.394</ele>
        <time>2018-08-01T08:50:52Z</time>
      </trkpt>
      <trkpt lat="47.09412" lon="6.82854">
        <ele>1018.498</ele>
        <time>2018-08-01T08:50:53Z</time>
      </trkpt>
      <trkpt lat="47.09419" lon="6.82858">
        <ele>1018.615</ele>
        <time>2018-08-01T08:50:54Z</time>
      </trkpt>
      <trkpt lat="47.09425" lon="6.82862">
        <ele>1018.726</ele>
        <time>2018-08-01T08:50:55Z</time>
      </trkpt>
      <trkpt lat="47.09431" lon="6.82867">
        <ele>1018.708</ele>
        <time>2018-08-01T08:50:56Z</time>
      </trkpt>
      <trkpt lat="47.09436" lon="6.8287">
        <ele>1018.741</ele>
        <time>2018-08-01T08:50:57Z</time>
      </trkpt>
      <trkpt lat="47.09442" lon="6.82874">
        <ele>1018.726</ele>
        <time>2018-08-01T08:50:58Z</time>
      </trkpt>
      <trkpt lat="47.09452" lon="6.82883">
        <ele>1018.47</ele>
        <time>2018-08-01T08:51:00Z</time>
      </trkpt>
      <trkpt lat="47.09459" lon="6.82888">
        <ele>1018.422</ele>
        <time>2018-08-01T08:51:01Z</time>
      </trkpt>
      <trkpt lat="47.09465" lon="6.82893">
        <ele>1018.388</ele>
        <time>2018-08-01T08:51:02Z</time>
      </trkpt>
      <trkpt lat="47.09471" lon="6.82895">
        <ele>1018.265</ele>
        <time>2018-08-01T08:51:03Z</time>
      </trkpt>
      <trkpt lat="47.09477" lon="6.82899">
        <ele>1018.21</ele>
        <time>2018-08-01T08:51:04Z</time>
      </trkpt>
      <trkpt lat="47.09483" lon="6.82904">
        <ele>1018.299</ele>
        <time>2018-08-01T08:51:05Z</time>
      </trkpt>
      <trkpt lat="47.0949" lon="6.82909">
        <ele>1018.268</ele>
        <time>2018-08-01T08:51:06Z</time>
      </trkpt>
      <trkpt lat="47.09496" lon="6.82913">
        <ele>1018.242</ele>
        <time>2018-08-01T08:51:07Z</time>
      </trkpt>
      <trkpt lat="47.09502" lon="6.82918">
        <ele>1018.226</ele>
        <time>2018-08-01T08:51:08Z</time>
      </trkpt>
      <trkpt lat="47.09508" lon="6.82922">
        <ele>1018.208</ele>
        <time>2018-08-01T08:51:09Z</time>
      </trkpt>
      <trkpt lat="47.09514" lon="6.82926">
        <ele>1018.128</ele>
        <time>2018-08-01T08:51:10Z</time>
      </trkpt>
      <trkpt lat="47.0952" lon="6.82931">
        <ele>1018.023</ele>
        <time>2018-08-01T08:51:11Z</time>
      </trkpt>
      <trkpt lat="47.09527" lon="6.82935">
        <ele>1017.937</ele>
        <time>2018-08-01T08:51:12Z</time>
      </trkpt>
      <trkpt lat="47.09533" lon="6.8294">
        <ele>1017.989</ele>
        <time>2018-08-01T08:51:13Z</time>
      </trkpt>
      <trkpt lat="47.09541" lon="6.82945">
        <ele>1017.975</ele>
        <time>2018-08-01T08:51:14Z</time>
      </trkpt>
      <trkpt lat="47.09548" lon="6.8295">
        <ele>1017.982</ele>
        <time>2018-08-01T08:51:15Z</time>
      </trkpt>
      <trkpt lat="47.09554" lon="6.82954">
        <ele>1017.917</ele>
        <time>2018-08-01T08:51:16Z</time>
      </trkpt>
      <trkpt lat="47.09558" lon="6.82958">
        <ele>1017.956</ele>
        <time>2018-08-01T08:51:17Z</time>
      </trkpt>
      <trkpt lat="47.09565" lon="6.82961">
        <ele>1017.836</ele>
        <time>2018-08-01T08:51:18Z</time>
      </trkpt>
      <trkpt lat="47.09572" lon="6.82966">
        <ele>1017.617</ele>
        <time>2018-08-01T08:51:19Z</time>
      </trkpt>
      <trkpt lat="47.09577" lon="6.8297">
        <ele>1017.318</ele>
        <time>2018-08-01T08:51:20Z</time>
      </trkpt>
      <trkpt lat="47.09584" lon="6.82972">
        <ele>1017.108</ele>
        <time>2018-08-01T08:51:21Z</time>
      </trkpt>
      <trkpt lat="47.09591" lon="6.82972">
        <ele>1016.935</ele>
        <time>2018-08-01T08:51:22Z</time>
      </trkpt>
      <trkpt lat="47.09597" lon="6.82972">
        <ele>1016.86</ele>
        <time>2018-08-01T08:51:23Z</time>
      </trkpt>
      <trkpt lat="47.09603" lon="6.82973">
        <ele>1016.864</ele>
        <time>2018-08-01T08:51:24Z</time>
      </trkpt>
      <trkpt lat="47.09609" lon="6.82965">
        <ele>1016.856</ele>
        <time>2018-08-01T08:51:25Z</time>
      </trkpt>
      <trkpt lat="47.09616" lon="6.82961">
        <ele>1016.832</ele>
        <time>2018-08-01T08:51:26Z</time>
      </trkpt>
      <trkpt lat="47.09623" lon="6.82958">
        <ele>1016.769</ele>
        <time>2018-08-01T08:51:27Z</time>
      </trkpt>
      <trkpt lat="47.09629" lon="6.82956">
        <ele>1016.654</ele>
        <time>2018-08-01T08:51:28Z</time>
      </trkpt>
      <trkpt lat="47.09636" lon="6.82956">
        <ele>1016.583</ele>
        <time>2018-08-01T08:51:29Z</time>
      </trkpt>
      <trkpt lat="47.09643" lon="6.82959">
        <ele>1016.568</ele>
        <time>2018-08-01T08:51:30Z</time>
      </trkpt>
      <trkpt lat="47.09649" lon="6.82963">
        <ele>1016.442</ele>
        <time>2018-08-01T08:51:31Z</time>
      </trkpt>
      <trkpt lat="47.09652" lon="6.8297">
        <ele>1016.426</ele>
        <time>2018-08-01T08:51:32Z</time>
      </trkpt>
      <trkpt lat="47.09655" lon="6.82975">
        <ele>1016.408</ele>
        <time>2018-08-01T08:51:33Z</time>
      </trkpt>
      <trkpt lat="47.09662" lon="6.82995">
        <ele>1016.598</ele>
        <time>2018-08-01T08:51:35Z</time>
      </trkpt>
      <trkpt lat="47.09665" lon="6.83003">
        <ele>1016.613</ele>
        <time>2018-08-01T08:51:36Z</time>
      </trkpt>
      <trkpt lat="47.09669" lon="6.83012">
        <ele>1016.767</ele>
        <time>2018-08-01T08:51:37Z</time>
      </trkpt>
      <trkpt lat="47.09672" lon="6.83018">
        <ele>1016.769</ele>
        <time>2018-08-01T08:51:38Z</time>
      </trkpt>
      <trkpt lat="47.09677" lon="6.83023">
        <ele>1016.835</ele>
        <time>2018-08-01T08:51:39Z</time>
      </trkpt>
      <trkpt lat="47.09681" lon="6.83028">
        <ele>1016.982</ele>
        <time>2018-08-01T08:51:40Z</time>
      </trkpt>
      <trkpt lat="47.09685" lon="6.83034">
        <ele>1017.077</ele>
        <time>2018-08-01T08:51:41Z</time>
      </trkpt>
      <trkpt lat="47.09689" lon="6.8304">
        <ele>1017.156</ele>
        <time>2018-08-01T08:51:42Z</time>
      </trkpt>
      <trkpt lat="47.09692" lon="6.83047">
        <ele>1017.237</ele>
        <time>2018-08-01T08:51:43Z</time>
      </trkpt>
      <trkpt lat="47.09697" lon="6.83054">
        <ele>1017.349</ele>
        <time>2018-08-01T08:51:44Z</time>
      </trkpt>
      <trkpt lat="47.09701" lon="6.83061">
        <ele>1017.413</ele>
        <time>2018-08-01T08:51:45Z</time>
      </trkpt>
      <trkpt lat="47.09705" lon="6.83068">
        <ele>1017.508</ele>
        <time>2018-08-01T08:51:46Z</time>
      </trkpt>
      <trkpt lat="47.0971" lon="6.83075">
        <ele>1017.715</ele>
        <time>2018-08-01T08:51:47Z</time>
      </trkpt>
      <trkpt lat="47.09713" lon="6.83082">
        <ele>1017.84</ele>
        <time>2018-08-01T08:51:48Z</time>
      </trkpt>
      <trkpt lat="47.09718" lon="6.8309">
        <ele>1017.924</ele>
        <time>2018-08-01T08:51:49Z</time>
      </trkpt>
      <trkpt lat="47.09723" lon="6.83097">
        <ele>1018.046</ele>
        <time>2018-08-01T08:51:50Z</time>
      </trkpt>
      <trkpt lat="47.09726" lon="6.83103">
        <ele>1018.122</ele>
        <time>2018-08-01T08:51:51Z</time>
      </trkpt>
      <trkpt lat="47.0973" lon="6.83112">
        <ele>1018.269</ele>
        <time>2018-08-01T08:51:52Z</time>
      </trkpt>
      <trkpt lat="47.09734" lon="6.83119">
        <ele>1018.324</ele>
        <time>2018-08-01T08:51:53Z</time>
      </trkpt>
      <trkpt lat="47.09738" lon="6.83126">
        <ele>1018.473</ele>
        <time>2018-08-01T08:51:54Z</time>
      </trkpt>
      <trkpt lat="47.09743" lon="6.83137">
        <ele>1018.561</ele>
        <time>2018-08-01T08:51:56Z</time>
      </trkpt>
      <trkpt lat="47.09748" lon="6.83144">
        <ele>1018.521</ele>
        <time>2018-08-01T08:51:57Z</time>
      </trkpt>
      <trkpt lat="47.09752" lon="6.83151">
        <ele>1018.513</ele>
        <time>2018-08-01T08:51:58Z</time>
      </trkpt>
      <trkpt lat="47.09757" lon="6.83157">
        <ele>1018.508</ele>
        <time>2018-08-01T08:51:59Z</time>
      </trkpt>
      <trkpt lat="47.09762" lon="6.83164">
        <ele>1018.548</ele>
        <time>2018-08-01T08:52:00Z</time>
      </trkpt>
      <trkpt lat="47.09766" lon="6.83171">
        <ele>1018.543</ele>
        <time>2018-08-01T08:52:01Z</time>
      </trkpt>
      <trkpt lat="47.0977" lon="6.83177">
        <ele>1018.597</ele>
        <time>2018-08-01T08:52:02Z</time>
      </trkpt>
      <trkpt lat="47.09774" lon="6.83183">
        <ele>1018.569</ele>
        <time>2018-08-01T08:52:03Z</time>
      </trkpt>
      <trkpt lat="47.09781" lon="6.83191">
        <ele>1018.545</ele>
        <time>2018-08-01T08:52:04Z</time>
      </trkpt>
      <trkpt lat="47.09786" lon="6.83198">
        <ele>1018.522</ele>
        <time>2018-08-01T08:52:05Z</time>
      </trkpt>
      <trkpt lat="47.09788" lon="6.83206">
        <ele>1018.567</ele>
        <time>2018-08-01T08:52:06Z</time>
      </trkpt>
      <trkpt lat="47.09792" lon="6.83213">
        <ele>1018.446</ele>
        <time>2018-08-01T08:52:07Z</time>
      </trkpt>
      <trkpt lat="47.09796" lon="6.83219">
        <ele>1018.373</ele>
        <time>2018-08-01T08:52:08Z</time>
      </trkpt>
      <trkpt lat="47.09798" lon="6.83225">
        <ele>1018.285</ele>
        <time>2018-08-01T08:52:09Z</time>
      </trkpt>
      <trkpt lat="47.09801" lon="6.83231">
        <ele>1018.113</ele>
        <time>2018-08-01T08:52:10Z</time>
      </trkpt>
      <trkpt lat="47.09804" lon="6.83237">
        <ele>1018.108</ele>
        <time>2018-08-01T08:52:11Z</time>
      </trkpt>
      <trkpt lat="47.09808" lon="6.83242">
        <ele>1018.149</ele>
        <time>2018-08-01T08:52:12Z</time>
      </trkpt>
      <trkpt lat="47.09814" lon="6.83251">
        <ele>1018.034</ele>
        <time>2018-08-01T08:52:14Z</time>
      </trkpt>
      <trkpt lat="47.09819" lon="6.83258">
        <ele>1017.958</ele>
        <time>2018-08-01T08:52:16Z</time>
      </trkpt>
      <trkpt lat="47.09823" lon="6.83268">
        <ele>1017.78</ele>
        <time>2018-08-01T08:52:18Z</time>
      </trkpt>
      <trkpt lat="47.09829" lon="6.83277">
        <ele>1017.766</ele>
        <time>2018-08-01T08:52:20Z</time>
      </trkpt>
      <trkpt lat="47.09831" lon="6.83285">
        <ele>1017.753</ele>
        <time>2018-08-01T08:52:22Z</time>
      </trkpt>
      <trkpt lat="47.09836" lon="6.8329">
        <ele>1017.668</ele>
        <time>2018-08-01T08:52:25Z</time>
      </trkpt>
      <trkpt lat="47.09845" lon="6.83286">
        <ele>1017.627</ele>
        <time>2018-08-01T08:52:27Z</time>
      </trkpt>
      <trkpt lat="47.09849" lon="6.83283">
        <ele>1017.536</ele>
        <time>2018-08-01T08:52:28Z</time>
      </trkpt>
      <trkpt lat="47.09858" lon="6.83277">
        <ele>1017.317</ele>
        <time>2018-08-01T08:52:29Z</time>
      </trkpt>
      <trkpt lat="47.09865" lon="6.83271">
        <ele>1017.118</ele>
        <time>2018-08-01T08:52:30Z</time>
      </trkpt>
      <trkpt lat="47.09872" lon="6.83265">
        <ele>1016.808</ele>
        <time>2018-08-01T08:52:31Z</time>
      </trkpt>
      <trkpt lat="47.0988" lon="6.83259">
        <ele>1016.325</ele>
        <time>2018-08-01T08:52:32Z</time>
      </trkpt>
      <trkpt lat="47.09888" lon="6.83253">
        <ele>1015.74</ele>
        <time>2018-08-01T08:52:33Z</time>
      </trkpt>
      <trkpt lat="47.09895" lon="6.83247">
        <ele>1015.164</ele>
        <time>2018-08-01T08:52:34Z</time>
      </trkpt>
      <trkpt lat="47.09903" lon="6.83241">
        <ele>1014.416</ele>
        <time>2018-08-01T08:52:35Z</time>
      </trkpt>
      <trkpt lat="47.09909" lon="6.83235">
        <ele>1013.652</ele>
        <time>2018-08-01T08:52:36Z</time>
      </trkpt>
      <trkpt lat="47.09917" lon="6.8323">
        <ele>1012.679</ele>
        <time>2018-08-01T08:52:37Z</time>
      </trkpt>
      <trkpt lat="47.09924" lon="6.83225">
        <ele>1011.654</ele>
        <time>2018-08-01T08:52:38Z</time>
      </trkpt>
      <trkpt lat="47.09932" lon="6.8322">
        <ele>1010.463</ele>
        <time>2018-08-01T08:52:39Z</time>
      </trkpt>
      <trkpt lat="47.09941" lon="6.83217">
        <ele>1009.264</ele>
        <time>2018-08-01T08:52:40Z</time>
      </trkpt>
      <trkpt lat="47.09949" lon="6.83212">
        <ele>1007.906</ele>
        <time>2018-08-01T08:52:41Z</time>
      </trkpt>
      <trkpt lat="47.09957" lon="6.83209">
        <ele>1006.816</ele>
        <time>2018-08-01T08:52:42Z</time>
      </trkpt>
      <trkpt lat="47.09965" lon="6.83207">
        <ele>1005.708</ele>
        <time>2018-08-01T08:52:43Z</time>
      </trkpt>
      <trkpt lat="47.09972" lon="6.83206">
        <ele>1004.888</ele>
        <time>2018-08-01T08:52:44Z</time>
      </trkpt>
      <trkpt lat="47.09979" lon="6.83206">
        <ele>1004.013</ele>
        <time>2018-08-01T08:52:45Z</time>
      </trkpt>
      <trkpt lat="47.09986" lon="6.83204">
        <ele>1003.337</ele>
        <time>2018-08-01T08:52:46Z</time>
      </trkpt>
      <trkpt lat="47.09992" lon="6.83204">
        <ele>1002.639</ele>
        <time>2018-08-01T08:52:47Z</time>
      </trkpt>
      <trkpt lat="47.10001" lon="6.83203">
        <ele>1002.075</ele>
        <time>2018-08-01T08:52:48Z</time>
      </trkpt>
      <trkpt lat="47.10007" lon="6.83202">
        <ele>1001.442</ele>
        <time>2018-08-01T08:52:49Z</time>
      </trkpt>
      <trkpt lat="47.10012" lon="6.83201">
        <ele>1000.857</ele>
        <time>2018-08-01T08:52:50Z</time>
      </trkpt>
      <trkpt lat="47.10017" lon="6.83201">
        <ele>1000.256</ele>
        <time>2018-08-01T08:52:51Z</time>
      </trkpt>
      <trkpt lat="47.10025" lon="6.83198">
        <ele>999.714</ele>
        <time>2018-08-01T08:52:53Z</time>
      </trkpt>
      <trkpt lat="47.10032" lon="6.83196">
        <ele>998.654</ele>
        <time>2018-08-01T08:52:55Z</time>
      </trkpt>
      <trkpt lat="47.10038" lon="6.83194">
        <ele>997.509</ele>
        <time>2018-08-01T08:52:57Z</time>
      </trkpt>
      <trkpt lat="47.10042" lon="6.83197">
        <ele>997.008</ele>
        <time>2018-08-01T08:52:58Z</time>
      </trkpt>
      <trkpt lat="47.10047" lon="6.832">
        <ele>996.533</ele>
        <time>2018-08-01T08:52:59Z</time>
      </trkpt>
      <trkpt lat="47.10054" lon="6.83199">
        <ele>995.968</ele>
        <time>2018-08-01T08:53:01Z</time>
      </trkpt>
      <trkpt lat="47.10063" lon="6.83197">
        <ele>995.552</ele>
        <time>2018-08-01T08:53:03Z</time>
      </trkpt>
      <trkpt lat="47.1007" lon="6.83193">
        <ele>995.344</ele>
        <time>2018-08-01T08:53:04Z</time>
      </trkpt>
      <trkpt lat="47.1008" lon="6.83192">
        <ele>995.01</ele>
        <time>2018-08-01T08:53:05Z</time>
      </trkpt>
      <trkpt lat="47.10086" lon="6.83189">
        <ele>994.647</ele>
        <time>2018-08-01T08:53:06Z</time>
      </trkpt>
      <trkpt lat="47.10094" lon="6.83188">
        <ele>994.132</ele>
        <time>2018-08-01T08:53:07Z</time>
      </trkpt>
      <trkpt lat="47.10102" lon="6.83186">
        <ele>993.691</ele>
        <time>2018-08-01T08:53:08Z</time>
      </trkpt>
      <trkpt lat="47.10112" lon="6.83184">
        <ele>993.285</ele>
        <time>2018-08-01T08:53:09Z</time>
      </trkpt>
      <trkpt lat="47.10122" lon="6.83185">
        <ele>992.889</ele>
        <time>2018-08-01T08:53:10Z</time>
      </trkpt>
      <trkpt lat="47.10131" lon="6.83183">
        <ele>992.517</ele>
        <time>2018-08-01T08:53:11Z</time>
      </trkpt>
      <trkpt lat="47.1014" lon="6.83182">
        <ele>992.308</ele>
        <time>2018-08-01T08:53:12Z</time>
      </trkpt>
      <trkpt lat="47.10151" lon="6.83177">
        <ele>992.16</ele>
        <time>2018-08-01T08:53:13Z</time>
      </trkpt>
      <trkpt lat="47.1016" lon="6.83173">
        <ele>991.925</ele>
        <time>2018-08-01T08:53:14Z</time>
      </trkpt>
      <trkpt lat="47.10169" lon="6.83168">
        <ele>991.699</ele>
        <time>2018-08-01T08:53:15Z</time>
      </trkpt>
      <trkpt lat="47.10175" lon="6.83164">
        <ele>991.221</ele>
        <time>2018-08-01T08:53:16Z</time>
      </trkpt>
      <trkpt lat="47.10181" lon="6.83163">
        <ele>990.837</ele>
        <time>2018-08-01T08:53:17Z</time>
      </trkpt>
      <trkpt lat="47.10192" lon="6.83163">
        <ele>990.654</ele>
        <time>2018-08-01T08:53:18Z</time>
      </trkpt>
      <trkpt lat="47.10198" lon="6.83165">
        <ele>990.349</ele>
        <time>2018-08-01T08:53:19Z</time>
      </trkpt>
      <trkpt lat="47.10206" lon="6.83168">
        <ele>990.388</ele>
        <time>2018-08-01T08:53:20Z</time>
      </trkpt>
      <trkpt lat="47.10215" lon="6.83168">
        <ele>990.162</ele>
        <time>2018-08-01T08:53:21Z</time>
      </trkpt>
      <trkpt lat="47.10224" lon="6.8317">
        <ele>989.983</ele>
        <time>2018-08-01T08:53:22Z</time>
      </trkpt>
      <trkpt lat="47.10233" lon="6.83172">
        <ele>989.611</ele>
        <time>2018-08-01T08:53:23Z</time>
      </trkpt>
      <trkpt lat="47.10242" lon="6.83171">
        <ele>989.308</ele>
        <time>2018-08-01T08:53:24Z</time>
      </trkpt>
      <trkpt lat="47.10249" lon="6.83173">
        <ele>988.988</ele>
        <time>2018-08-01T08:53:25Z</time>
      </trkpt>
      <trkpt lat="47.10256" lon="6.83174">
        <ele>988.483</ele>
        <time>2018-08-01T08:53:26Z</time>
      </trkpt>
      <trkpt lat="47.10262" lon="6.83176">
        <ele>988.047</ele>
        <time>2018-08-01T08:53:27Z</time>
      </trkpt>
      <trkpt lat="47.10268" lon="6.83179">
        <ele>987.659</ele>
        <time>2018-08-01T08:53:28Z</time>
      </trkpt>
      <trkpt lat="47.10275" lon="6.83182">
        <ele>987.135</ele>
        <time>2018-08-01T08:53:29Z</time>
      </trkpt>
      <trkpt lat="47.10282" lon="6.83183">
        <ele>986.552</ele>
        <time>2018-08-01T08:53:30Z</time>
      </trkpt>
      <trkpt lat="47.10288" lon="6.83185">
        <ele>986.087</ele>
        <time>2018-08-01T08:53:31Z</time>
      </trkpt>
      <trkpt lat="47.10294" lon="6.83186">
        <ele>985.456</ele>
        <time>2018-08-01T08:53:32Z</time>
      </trkpt>
      <trkpt lat="47.103" lon="6.83192">
        <ele>984.884</ele>
        <time>2018-08-01T08:53:33Z</time>
      </trkpt>
      <trkpt lat="47.103" lon="6.83199">
        <ele>984.107</ele>
        <time>2018-08-01T08:53:34Z</time>
      </trkpt>
      <trkpt lat="47.10303" lon="6.83205">
        <ele>983.717</ele>
        <time>2018-08-01T08:53:35Z</time>
      </trkpt>
      <trkpt lat="47.10306" lon="6.83214">
        <ele>983.408</ele>
        <time>2018-08-01T08:53:36Z</time>
      </trkpt>
      <trkpt lat="47.10311" lon="6.83222">
        <ele>983.24</ele>
        <time>2018-08-01T08:53:37Z</time>
      </trkpt>
      <trkpt lat="47.10316" lon="6.83231">
        <ele>983.155</ele>
        <time>2018-08-01T08:53:38Z</time>
      </trkpt>
      <trkpt lat="47.1032" lon="6.83239">
        <ele>983.119</ele>
        <time>2018-08-01T08:53:39Z</time>
      </trkpt>
      <trkpt lat="47.10325" lon="6.83248">
        <ele>982.931</ele>
        <time>2018-08-01T08:53:40Z</time>
      </trkpt>
      <trkpt lat="47.10329" lon="6.83254">
        <ele>982.867</ele>
        <time>2018-08-01T08:53:41Z</time>
      </trkpt>
      <trkpt lat="47.10333" lon="6.83258">
        <ele>982.534</ele>
        <time>2018-08-01T08:53:42Z</time>
      </trkpt>
      <trkpt lat="47.1034" lon="6.8326">
        <ele>982.289</ele>
        <time>2018-08-01T08:53:43Z</time>
      </trkpt>
      <trkpt lat="47.10346" lon="6.83262">
        <ele>981.858</ele>
        <time>2018-08-01T08:53:44Z</time>
      </trkpt>
      <trkpt lat="47.10354" lon="6.83249">
        <ele>981.784</ele>
        <time>2018-08-01T08:53:45Z</time>
      </trkpt>
      <trkpt lat="47.1036" lon="6.83243">
        <ele>981.507</ele>
        <time>2018-08-01T08:53:46Z</time>
      </trkpt>
      <trkpt lat="47.10364" lon="6.83238">
        <ele>981.417</ele>
        <time>2018-08-01T08:53:47Z</time>
      </trkpt>
      <trkpt lat="47.1037" lon="6.83231">
        <ele>981.208</ele>
        <time>2018-08-01T08:53:48Z</time>
      </trkpt>
      <trkpt lat="47.10376" lon="6.83225">
        <ele>981.24</ele>
        <time>2018-08-01T08:53:49Z</time>
      </trkpt>
      <trkpt lat="47.10381" lon="6.83218">
        <ele>981.155</ele>
        <time>2018-08-01T08:53:50Z</time>
      </trkpt>
      <trkpt lat="47.10386" lon="6.83211">
        <ele>980.949</ele>
        <time>2018-08-01T08:53:51Z</time>
      </trkpt>
      <trkpt lat="47.10392" lon="6.83205">
        <ele>980.621</ele>
        <time>2018-08-01T08:53:52Z</time>
      </trkpt>
      <trkpt lat="47.10398" lon="6.83199">
        <ele>980.367</ele>
        <time>2018-08-01T08:53:53Z</time>
      </trkpt>
      <trkpt lat="47.10404" lon="6.83193">
        <ele>980.174</ele>
        <time>2018-08-01T08:53:54Z</time>
      </trkpt>
      <trkpt lat="47.10411" lon="6.83186">
        <ele>980.039</ele>
        <time>2018-08-01T08:53:55Z</time>
      </trkpt>
      <trkpt lat="47.10416" lon="6.83181">
        <ele>979.868</ele>
        <time>2018-08-01T08:53:56Z</time>
      </trkpt>
      <trkpt lat="47.10422" lon="6.83177">
        <ele>979.896</ele>
        <time>2018-08-01T08:53:57Z</time>
      </trkpt>
      <trkpt lat="47.10428" lon="6.8317">
        <ele>979.831</ele>
        <time>2018-08-01T08:53:58Z</time>
      </trkpt>
      <trkpt lat="47.10434" lon="6.83165">
        <ele>979.724</ele>
        <time>2018-08-01T08:53:59Z</time>
      </trkpt>
      <trkpt lat="47.10441" lon="6.83161">
        <ele>979.708</ele>
        <time>2018-08-01T08:54:00Z</time>
      </trkpt>
      <trkpt lat="47.10447" lon="6.83158">
        <ele>979.751</ele>
        <time>2018-08-01T08:54:01Z</time>
      </trkpt>
      <trkpt lat="47.10454" lon="6.83153">
        <ele>979.426</ele>
        <time>2018-08-01T08:54:02Z</time>
      </trkpt>
      <trkpt lat="47.10459" lon="6.83149">
        <ele>979.28</ele>
        <time>2018-08-01T08:54:03Z</time>
      </trkpt>
      <trkpt lat="47.10466" lon="6.83146">
        <ele>979.242</ele>
        <time>2018-08-01T08:54:04Z</time>
      </trkpt>
      <trkpt lat="47.10472" lon="6.83144">
        <ele>979.228</ele>
        <time>2018-08-01T08:54:05Z</time>
      </trkpt>
      <trkpt lat="47.10479" lon="6.83139">
        <ele>979.245</ele>
        <time>2018-08-01T08:54:06Z</time>
      </trkpt>
      <trkpt lat="47.10485" lon="6.83135">
        <ele>979.36</ele>
        <time>2018-08-01T08:54:07Z</time>
      </trkpt>
      <trkpt lat="47.10492" lon="6.8313">
        <ele>979.429</ele>
        <time>2018-08-01T08:54:08Z</time>
      </trkpt>
      <trkpt lat="47.10497" lon="6.83124">
        <ele>979.532</ele>
        <time>2018-08-01T08:54:09Z</time>
      </trkpt>
      <trkpt lat="47.10503" lon="6.83119">
        <ele>979.692</ele>
        <time>2018-08-01T08:54:10Z</time>
      </trkpt>
      <trkpt lat="47.10508" lon="6.83115">
        <ele>979.711</ele>
        <time>2018-08-01T08:54:11Z</time>
      </trkpt>
      <trkpt lat="47.10515" lon="6.83114">
        <ele>979.708</ele>
        <time>2018-08-01T08:54:12Z</time>
      </trkpt>
      <trkpt lat="47.10521" lon="6.83109">
        <ele>979.755</ele>
        <time>2018-08-01T08:54:13Z</time>
      </trkpt>
      <trkpt lat="47.10529" lon="6.83109">
        <ele>979.75</ele>
        <time>2018-08-01T08:54:14Z</time>
      </trkpt>
      <trkpt lat="47.10536" lon="6.83109">
        <ele>979.784</ele>
        <time>2018-08-01T08:54:15Z</time>
      </trkpt>
      <trkpt lat="47.10544" lon="6.83108">
        <ele>979.736</ele>
        <time>2018-08-01T08:54:16Z</time>
      </trkpt>
      <trkpt lat="47.10546" lon="6.83101">
        <ele>979.912</ele>
        <time>2018-08-01T08:54:17Z</time>
      </trkpt>
      <trkpt lat="47.1055" lon="6.83098">
        <ele>980.159</ele>
        <time>2018-08-01T08:54:18Z</time>
      </trkpt>
      <trkpt lat="47.10555" lon="6.83094">
        <ele>980.414</ele>
        <time>2018-08-01T08:54:19Z</time>
      </trkpt>
      <trkpt lat="47.10564" lon="6.831">
        <ele>980.693</ele>
        <time>2018-08-01T08:54:20Z</time>
      </trkpt>
      <trkpt lat="47.10569" lon="6.83099">
        <ele>981.056</ele>
        <time>2018-08-01T08:54:21Z</time>
      </trkpt>
      <trkpt lat="47.10577" lon="6.83089">
        <ele>981.159</ele>
        <time>2018-08-01T08:54:22Z</time>
      </trkpt>
      <trkpt lat="47.10582" lon="6.83084">
        <ele>981.214</ele>
        <time>2018-08-01T08:54:23Z</time>
      </trkpt>
      <trkpt lat="47.10592" lon="6.83079">
        <ele>981.808</ele>
        <time>2018-08-01T08:54:25Z</time>
      </trkpt>
      <trkpt lat="47.10598" lon="6.83078">
        <ele>982.157</ele>
        <time>2018-08-01T08:54:26Z</time>
      </trkpt>
      <trkpt lat="47.10604" lon="6.83074">
        <ele>982.432</ele>
        <time>2018-08-01T08:54:27Z</time>
      </trkpt>
      <trkpt lat="47.10609" lon="6.83072">
        <ele>982.846</ele>
        <time>2018-08-01T08:54:28Z</time>
      </trkpt>
      <trkpt lat="47.10612" lon="6.83064">
        <ele>983.148</ele>
        <time>2018-08-01T08:54:29Z</time>
      </trkpt>
      <trkpt lat="47.10616" lon="6.83061">
        <ele>983.424</ele>
        <time>2018-08-01T08:54:30Z</time>
      </trkpt>
      <trkpt lat="47.10624" lon="6.83056">
        <ele>984.381</ele>
        <time>2018-08-01T08:54:33Z</time>
      </trkpt>
      <trkpt lat="47.1063" lon="6.83051">
        <ele>985.266</ele>
        <time>2018-08-01T08:54:35Z</time>
      </trkpt>
      <trkpt lat="47.10636" lon="6.83052">
        <ele>985.635</ele>
        <time>2018-08-01T08:54:36Z</time>
      </trkpt>
      <trkpt lat="47.10654" lon="6.83061">
        <ele>986.354</ele>
        <time>2018-08-01T08:54:38Z</time>
      </trkpt>
      <trkpt lat="47.10659" lon="6.83065">
        <ele>986.756</ele>
        <time>2018-08-01T08:54:39Z</time>
      </trkpt>
      <trkpt lat="47.10666" lon="6.83067">
        <ele>986.911</ele>
        <time>2018-08-01T08:54:40Z</time>
      </trkpt>
      <trkpt lat="47.10671" lon="6.83073">
        <ele>987.108</ele>
        <time>2018-08-01T08:54:41Z</time>
      </trkpt>
      <trkpt lat="47.10675" lon="6.83077">
        <ele>987.337</ele>
        <time>2018-08-01T08:54:42Z</time>
      </trkpt>
      <trkpt lat="47.10679" lon="6.83081">
        <ele>987.552</ele>
        <time>2018-08-01T08:54:43Z</time>
      </trkpt>
      <trkpt lat="47.10683" lon="6.83086">
        <ele>987.756</ele>
        <time>2018-08-01T08:54:44Z</time>
      </trkpt>
      <trkpt lat="47.10689" lon="6.83092">
        <ele>987.788</ele>
        <time>2018-08-01T08:54:45Z</time>
      </trkpt>
      <trkpt lat="47.10696" lon="6.83098">
        <ele>988.014</ele>
        <time>2018-08-01T08:54:46Z</time>
      </trkpt>
      <trkpt lat="47.10701" lon="6.83103">
        <ele>988.161</ele>
        <time>2018-08-01T08:54:47Z</time>
      </trkpt>
      <trkpt lat="47.10707" lon="6.83108">
        <ele>988.286</ele>
        <time>2018-08-01T08:54:48Z</time>
      </trkpt>
      <trkpt lat="47.10713" lon="6.8311">
        <ele>988.315</ele>
        <time>2018-08-01T08:54:49Z</time>
      </trkpt>
      <trkpt lat="47.10717" lon="6.83112">
        <ele>988.346</ele>
        <time>2018-08-01T08:54:50Z</time>
      </trkpt>
      <trkpt lat="47.10723" lon="6.83113">
        <ele>988.588</ele>
        <time>2018-08-01T08:54:51Z</time>
      </trkpt>
      <trkpt lat="47.10727" lon="6.83114">
        <ele>988.816</ele>
        <time>2018-08-01T08:54:52Z</time>
      </trkpt>
      <trkpt lat="47.10733" lon="6.83114">
        <ele>988.908</ele>
        <time>2018-08-01T08:54:53Z</time>
      </trkpt>
      <trkpt lat="47.10743" lon="6.83114">
        <ele>989.026</ele>
        <time>2018-08-01T08:54:55Z</time>
      </trkpt>
      <trkpt lat="47.10749" lon="6.83113">
        <ele>989.021</ele>
        <time>2018-08-01T08:54:56Z</time>
      </trkpt>
      <trkpt lat="47.10756" lon="6.83114">
        <ele>989.075</ele>
        <time>2018-08-01T08:54:57Z</time>
      </trkpt>
      <trkpt lat="47.10761" lon="6.83114">
        <ele>989.187</ele>
        <time>2018-08-01T08:54:58Z</time>
      </trkpt>
      <trkpt lat="47.10767" lon="6.83114">
        <ele>989.223</ele>
        <time>2018-08-01T08:54:59Z</time>
      </trkpt>
      <trkpt lat="47.10772" lon="6.83113">
        <ele>989.25</ele>
        <time>2018-08-01T08:55:00Z</time>
      </trkpt>
      <trkpt lat="47.10782" lon="6.83114">
        <ele>989.555</ele>
        <time>2018-08-01T08:55:02Z</time>
      </trkpt>
      <trkpt lat="47.10789" lon="6.83117">
        <ele>989.734</ele>
        <time>2018-08-01T08:55:03Z</time>
      </trkpt>
      <trkpt lat="47.10795" lon="6.83118">
        <ele>989.934</ele>
        <time>2018-08-01T08:55:04Z</time>
      </trkpt>
      <trkpt lat="47.108" lon="6.83119">
        <ele>990.355</ele>
        <time>2018-08-01T08:55:05Z</time>
      </trkpt>
      <trkpt lat="47.10806" lon="6.83123">
        <ele>990.51</ele>
        <time>2018-08-01T08:55:06Z</time>
      </trkpt>
      <trkpt lat="47.10812" lon="6.83124">
        <ele>990.508</ele>
        <time>2018-08-01T08:55:07Z</time>
      </trkpt>
      <trkpt lat="47.10817" lon="6.83126">
        <ele>990.325</ele>
        <time>2018-08-01T08:55:08Z</time>
      </trkpt>
      <trkpt lat="47.10822" lon="6.83127">
        <ele>990.11</ele>
        <time>2018-08-01T08:55:09Z</time>
      </trkpt>
      <trkpt lat="47.10829" lon="6.83133">
        <ele>989.724</ele>
        <time>2018-08-01T08:55:10Z</time>
      </trkpt>
      <trkpt lat="47.10836" lon="6.83138">
        <ele>989.516</ele>
        <time>2018-08-01T08:55:11Z</time>
      </trkpt>
      <trkpt lat="47.10843" lon="6.83141">
        <ele>989.482</ele>
        <time>2018-08-01T08:55:12Z</time>
      </trkpt>
      <trkpt lat="47.10849" lon="6.83143">
        <ele>989.459</ele>
        <time>2018-08-01T08:55:13Z</time>
      </trkpt>
      <trkpt lat="47.10855" lon="6.83146">
        <ele>989.444</ele>
        <time>2018-08-01T08:55:14Z</time>
      </trkpt>
      <trkpt lat="47.10861" lon="6.8315">
        <ele>989.583</ele>
        <time>2018-08-01T08:55:15Z</time>
      </trkpt>
      <trkpt lat="47.10866" lon="6.83153">
        <ele>989.719</ele>
        <time>2018-08-01T08:55:16Z</time>
      </trkpt>
      <trkpt lat="47.10873" lon="6.83157">
        <ele>989.909</ele>
        <time>2018-08-01T08:55:17Z</time>
      </trkpt>
      <trkpt lat="47.10878" lon="6.8316">
        <ele>990.119</ele>
        <time>2018-08-01T08:55:18Z</time>
      </trkpt>
      <trkpt lat="47.10883" lon="6.83164">
        <ele>990.208</ele>
        <time>2018-08-01T08:55:19Z</time>
      </trkpt>
      <trkpt lat="47.10888" lon="6.83167">
        <ele>990.343</ele>
        <time>2018-08-01T08:55:20Z</time>
      </trkpt>
      <trkpt lat="47.10893" lon="6.8317">
        <ele>990.378</ele>
        <time>2018-08-01T08:55:21Z</time>
      </trkpt>
      <trkpt lat="47.10897" lon="6.83174">
        <ele>990.282</ele>
        <time>2018-08-01T08:55:22Z</time>
      </trkpt>
      <trkpt lat="47.10907" lon="6.83181">
        <ele>990.044</ele>
        <time>2018-08-01T08:55:24Z</time>
      </trkpt>
      <trkpt lat="47.10912" lon="6.83183">
        <ele>990.07</ele>
        <time>2018-08-01T08:55:25Z</time>
      </trkpt>
      <trkpt lat="47.10917" lon="6.83187">
        <ele>990.087</ele>
        <time>2018-08-01T08:55:26Z</time>
      </trkpt>
      <trkpt lat="47.10923" lon="6.83191">
        <ele>990.072</ele>
        <time>2018-08-01T08:55:27Z</time>
      </trkpt>
      <trkpt lat="47.10928" lon="6.83195">
        <ele>990.131</ele>
        <time>2018-08-01T08:55:28Z</time>
      </trkpt>
      <trkpt lat="47.10939" lon="6.83202">
        <ele>990.297</ele>
        <time>2018-08-01T08:55:30Z</time>
      </trkpt>
      <trkpt lat="47.10945" lon="6.83207">
        <ele>990.223</ele>
        <time>2018-08-01T08:55:31Z</time>
      </trkpt>
      <trkpt lat="47.10949" lon="6.83212">
        <ele>990.225</ele>
        <time>2018-08-01T08:55:32Z</time>
      </trkpt>
      <trkpt lat="47.10954" lon="6.83216">
        <ele>990.208</ele>
        <time>2018-08-01T08:55:33Z</time>
      </trkpt>
      <trkpt lat="47.1096" lon="6.8322">
        <ele>990.261</ele>
        <time>2018-08-01T08:55:34Z</time>
      </trkpt>
      <trkpt lat="47.10966" lon="6.83227">
        <ele>990.286</ele>
        <time>2018-08-01T08:55:35Z</time>
      </trkpt>
      <trkpt lat="47.10972" lon="6.83232">
        <ele>990.14</ele>
        <time>2018-08-01T08:55:36Z</time>
      </trkpt>
      <trkpt lat="47.10976" lon="6.83236">
        <ele>990.182</ele>
        <time>2018-08-01T08:55:37Z</time>
      </trkpt>
      <trkpt lat="47.10981" lon="6.83241">
        <ele>990.038</ele>
        <time>2018-08-01T08:55:38Z</time>
      </trkpt>
      <trkpt lat="47.10987" lon="6.83249">
        <ele>990.075</ele>
        <time>2018-08-01T08:55:39Z</time>
      </trkpt>
      <trkpt lat="47.10992" lon="6.83254">
        <ele>989.92</ele>
        <time>2018-08-01T08:55:40Z</time>
      </trkpt>
      <trkpt lat="47.10997" lon="6.83258">
        <ele>989.929</ele>
        <time>2018-08-01T08:55:41Z</time>
      </trkpt>
      <trkpt lat="47.11002" lon="6.83263">
        <ele>989.935</ele>
        <time>2018-08-01T08:55:42Z</time>
      </trkpt>
      <trkpt lat="47.11006" lon="6.83268">
        <ele>989.986</ele>
        <time>2018-08-01T08:55:43Z</time>
      </trkpt>
      <trkpt lat="47.11011" lon="6.83273">
        <ele>989.914</ele>
        <time>2018-08-01T08:55:44Z</time>
      </trkpt>
      <trkpt lat="47.11015" lon="6.8328">
        <ele>990.008</ele>
        <time>2018-08-01T08:55:45Z</time>
      </trkpt>
      <trkpt lat="47.1102" lon="6.83285">
        <ele>990.165</ele>
        <time>2018-08-01T08:55:46Z</time>
      </trkpt>
      <trkpt lat="47.11025" lon="6.83289">
        <ele>990.11</ele>
        <time>2018-08-01T08:55:47Z</time>
      </trkpt>
      <trkpt lat="47.1103" lon="6.83294">
        <ele>990.174</ele>
        <time>2018-08-01T08:55:48Z</time>
      </trkpt>
      <trkpt lat="47.11033" lon="6.83299">
        <ele>990.176</ele>
        <time>2018-08-01T08:55:49Z</time>
      </trkpt>
      <trkpt lat="47.1104" lon="6.83306">
        <ele>990.072</ele>
        <time>2018-08-01T08:55:50Z</time>
      </trkpt>
      <trkpt lat="47.11045" lon="6.83311">
        <ele>989.919</ele>
        <time>2018-08-01T08:55:51Z</time>
      </trkpt>
      <trkpt lat="47.11051" lon="6.83316">
        <ele>989.854</ele>
        <time>2018-08-01T08:55:52Z</time>
      </trkpt>
      <trkpt lat="47.11056" lon="6.83322">
        <ele>989.773</ele>
        <time>2018-08-01T08:55:53Z</time>
      </trkpt>
      <trkpt lat="47.11061" lon="6.83326">
        <ele>989.634</ele>
        <time>2018-08-01T08:55:54Z</time>
      </trkpt>
      <trkpt lat="47.11065" lon="6.83331">
        <ele>989.655</ele>
        <time>2018-08-01T08:55:55Z</time>
      </trkpt>
      <trkpt lat="47.1107" lon="6.83336">
        <ele>989.61</ele>
        <time>2018-08-01T08:55:56Z</time>
      </trkpt>
      <trkpt lat="47.11077" lon="6.83341">
        <ele>989.708</ele>
        <time>2018-08-01T08:55:58Z</time>
      </trkpt>
      <trkpt lat="47.11085" lon="6.83344">
        <ele>989.835</ele>
        <time>2018-08-01T08:55:59Z</time>
      </trkpt>
      <trkpt lat="47.11089" lon="6.83349">
        <ele>989.97</ele>
        <time>2018-08-01T08:56:00Z</time>
      </trkpt>
      <trkpt lat="47.11095" lon="6.83354">
        <ele>989.974</ele>
        <time>2018-08-01T08:56:01Z</time>
      </trkpt>
      <trkpt lat="47.11101" lon="6.83359">
        <ele>989.926</ele>
        <time>2018-08-01T08:56:02Z</time>
      </trkpt>
      <trkpt lat="47.11109" lon="6.83365">
        <ele>989.962</ele>
        <time>2018-08-01T08:56:03Z</time>
      </trkpt>
      <trkpt lat="47.11113" lon="6.83369">
        <ele>989.969</ele>
        <time>2018-08-01T08:56:04Z</time>
      </trkpt>
      <trkpt lat="47.11118" lon="6.83375">
        <ele>989.884</ele>
        <time>2018-08-01T08:56:05Z</time>
      </trkpt>
      <trkpt lat="47.11123" lon="6.8338">
        <ele>989.643</ele>
        <time>2018-08-01T08:56:06Z</time>
      </trkpt>
      <trkpt lat="47.11128" lon="6.83386">
        <ele>989.557</ele>
        <time>2018-08-01T08:56:07Z</time>
      </trkpt>
      <trkpt lat="47.11133" lon="6.83393">
        <ele>989.5</ele>
        <time>2018-08-01T08:56:08Z</time>
      </trkpt>
      <trkpt lat="47.11138" lon="6.83401">
        <ele>989.52</ele>
        <time>2018-08-01T08:56:09Z</time>
      </trkpt>
      <trkpt lat="47.11143" lon="6.83406">
        <ele>989.308</ele>
        <time>2018-08-01T08:56:10Z</time>
      </trkpt>
      <trkpt lat="47.11147" lon="6.83415">
        <ele>989.327</ele>
        <time>2018-08-01T08:56:11Z</time>
      </trkpt>
      <trkpt lat="47.11152" lon="6.83422">
        <ele>989.432</ele>
        <time>2018-08-01T08:56:12Z</time>
      </trkpt>
      <trkpt lat="47.11157" lon="6.83429">
        <ele>989.636</ele>
        <time>2018-08-01T08:56:13Z</time>
      </trkpt>
      <trkpt lat="47.11159" lon="6.83436">
        <ele>989.738</ele>
        <time>2018-08-01T08:56:14Z</time>
      </trkpt>
      <trkpt lat="47.11162" lon="6.83444">
        <ele>989.874</ele>
        <time>2018-08-01T08:56:15Z</time>
      </trkpt>
      <trkpt lat="47.11166" lon="6.8345">
        <ele>990.051</ele>
        <time>2018-08-01T08:56:16Z</time>
      </trkpt>
      <trkpt lat="47.1117" lon="6.83456">
        <ele>990.176</ele>
        <time>2018-08-01T08:56:17Z</time>
      </trkpt>
      <trkpt lat="47.11175" lon="6.83463">
        <ele>990.135</ele>
        <time>2018-08-01T08:56:18Z</time>
      </trkpt>
      <trkpt lat="47.11179" lon="6.8347">
        <ele>990.124</ele>
        <time>2018-08-01T08:56:19Z</time>
      </trkpt>
      <trkpt lat="47.11184" lon="6.83476">
        <ele>990.304</ele>
        <time>2018-08-01T08:56:20Z</time>
      </trkpt>
      <trkpt lat="47.1119" lon="6.83483">
        <ele>990.414</ele>
        <time>2018-08-01T08:56:21Z</time>
      </trkpt>
      <trkpt lat="47.11194" lon="6.83487">
        <ele>990.508</ele>
        <time>2018-08-01T08:56:22Z</time>
      </trkpt>
      <trkpt lat="47.11197" lon="6.83493">
        <ele>990.734</ele>
        <time>2018-08-01T08:56:23Z</time>
      </trkpt>
      <trkpt lat="47.112" lon="6.83499">
        <ele>990.979</ele>
        <time>2018-08-01T08:56:24Z</time>
      </trkpt>
      <trkpt lat="47.11205" lon="6.83506">
        <ele>991.083</ele>
        <time>2018-08-01T08:56:25Z</time>
      </trkpt>
      <trkpt lat="47.1121" lon="6.83512">
        <ele>991.185</ele>
        <time>2018-08-01T08:56:26Z</time>
      </trkpt>
      <trkpt lat="47.11212" lon="6.83519">
        <ele>991.271</ele>
        <time>2018-08-01T08:56:27Z</time>
      </trkpt>
      <trkpt lat="47.11215" lon="6.83523">
        <ele>991.398</ele>
        <time>2018-08-01T08:56:28Z</time>
      </trkpt>
      <trkpt lat="47.11218" lon="6.83529">
        <ele>991.423</ele>
        <time>2018-08-01T08:56:29Z</time>
      </trkpt>
      <trkpt lat="47.11221" lon="6.83535">
        <ele>991.622</ele>
        <time>2018-08-01T08:56:30Z</time>
      </trkpt>
      <trkpt lat="47.11225" lon="6.8354">
        <ele>991.841</ele>
        <time>2018-08-01T08:56:31Z</time>
      </trkpt>
      <trkpt lat="47.1123" lon="6.83548">
        <ele>992.381</ele>
        <time>2018-08-01T08:56:33Z</time>
      </trkpt>
      <trkpt lat="47.11233" lon="6.83552">
        <ele>992.509</ele>
        <time>2018-08-01T08:56:34Z</time>
      </trkpt>
      <trkpt lat="47.11237" lon="6.83558">
        <ele>992.708</ele>
        <time>2018-08-01T08:56:35Z</time>
      </trkpt>
      <trkpt lat="47.1124" lon="6.83564">
        <ele>993.066</ele>
        <time>2018-08-01T08:56:36Z</time>
      </trkpt>
      <trkpt lat="47.11244" lon="6.83569">
        <ele>993.031</ele>
        <time>2018-08-01T08:56:37Z</time>
      </trkpt>
      <trkpt lat="47.11248" lon="6.83575">
        <ele>993.215</ele>
        <time>2018-08-01T08:56:38Z</time>
      </trkpt>
      <trkpt lat="47.11255" lon="6.83582">
        <ele>993.647</ele>
        <time>2018-08-01T08:56:40Z</time>
      </trkpt>
      <trkpt lat="47.11262" lon="6.83592">
        <ele>993.913</ele>
        <time>2018-08-01T08:56:42Z</time>
      </trkpt>
      <trkpt lat="47.11266" lon="6.83598">
        <ele>994.04</ele>
        <time>2018-08-01T08:56:43Z</time>
      </trkpt>
      <trkpt lat="47.11272" lon="6.83608">
        <ele>994.425</ele>
        <time>2018-08-01T08:56:45Z</time>
      </trkpt>
      <trkpt lat="47.11274" lon="6.83614">
        <ele>994.634</ele>
        <time>2018-08-01T08:56:46Z</time>
      </trkpt>
      <trkpt lat="47.1128" lon="6.83623">
        <ele>994.833</ele>
        <time>2018-08-01T08:56:47Z</time>
      </trkpt>
      <trkpt lat="47.11284" lon="6.83628">
        <ele>995.023</ele>
        <time>2018-08-01T08:56:48Z</time>
      </trkpt>
      <trkpt lat="47.1129" lon="6.83634">
        <ele>995.315</ele>
        <time>2018-08-01T08:56:50Z</time>
      </trkpt>
      <trkpt lat="47.11296" lon="6.83643">
        <ele>995.808</ele>
        <time>2018-08-01T08:56:52Z</time>
      </trkpt>
      <trkpt lat="47.11302" lon="6.83651">
        <ele>996.285</ele>
        <time>2018-08-01T08:56:54Z</time>
      </trkpt>
      <trkpt lat="47.11305" lon="6.83656">
        <ele>996.49</ele>
        <time>2018-08-01T08:56:55Z</time>
      </trkpt>
      <trkpt lat="47.11309" lon="6.83662">
        <ele>996.764</ele>
        <time>2018-08-01T08:56:56Z</time>
      </trkpt>
      <trkpt lat="47.11312" lon="6.83668">
        <ele>996.976</ele>
        <time>2018-08-01T08:56:57Z</time>
      </trkpt>
      <trkpt lat="47.11317" lon="6.83676">
        <ele>997.472</ele>
        <time>2018-08-01T08:56:59Z</time>
      </trkpt>
      <trkpt lat="47.11323" lon="6.83686">
        <ele>997.929</ele>
        <time>2018-08-01T08:57:01Z</time>
      </trkpt>
      <trkpt lat="47.11329" lon="6.83694">
        <ele>998.374</ele>
        <time>2018-08-01T08:57:03Z</time>
      </trkpt>
      <trkpt lat="47.11333" lon="6.83702">
        <ele>998.523</ele>
        <time>2018-08-01T08:57:04Z</time>
      </trkpt>
      <trkpt lat="47.11337" lon="6.83706">
        <ele>998.534</ele>
        <time>2018-08-01T08:57:05Z</time>
      </trkpt>
      <trkpt lat="47.1134" lon="6.83711">
        <ele>998.755</ele>
        <time>2018-08-01T08:57:06Z</time>
      </trkpt>
      <trkpt lat="47.11344" lon="6.83719">
        <ele>999.11</ele>
        <time>2018-08-01T08:57:08Z</time>
      </trkpt>
      <trkpt lat="47.11348" lon="6.83727">
        <ele>999.408</ele>
        <time>2018-08-01T08:57:09Z</time>
      </trkpt>
      <trkpt lat="47.11351" lon="6.83733">
        <ele>999.785</ele>
        <time>2018-08-01T08:57:10Z</time>
      </trkpt>
      <trkpt lat="47.11355" lon="6.83745">
        <ele>1000.14</ele>
        <time>2018-08-01T08:57:12Z</time>
      </trkpt>
      <trkpt lat="47.11358" lon="6.83751">
        <ele>1000.324</ele>
        <time>2018-08-01T08:57:13Z</time>
      </trkpt>
      <trkpt lat="47.1136" lon="6.83757">
        <ele>1000.596</ele>
        <time>2018-08-01T08:57:14Z</time>
      </trkpt>
      <trkpt lat="47.11366" lon="6.83766">
        <ele>1001.032</ele>
        <time>2018-08-01T08:57:16Z</time>
      </trkpt>
      <trkpt lat="47.11369" lon="6.83772">
        <ele>1001.359</ele>
        <time>2018-08-01T08:57:17Z</time>
      </trkpt>
      <trkpt lat="47.11371" lon="6.83778">
        <ele>1001.744</ele>
        <time>2018-08-01T08:57:18Z</time>
      </trkpt>
      <trkpt lat="47.11374" lon="6.83789">
        <ele>1002.353</ele>
        <time>2018-08-01T08:57:20Z</time>
      </trkpt>
      <trkpt lat="47.11378" lon="6.83797">
        <ele>1002.838</ele>
        <time>2018-08-01T08:57:22Z</time>
      </trkpt>
      <trkpt lat="47.11382" lon="6.83808">
        <ele>1003.17</ele>
        <time>2018-08-01T08:57:24Z</time>
      </trkpt>
      <trkpt lat="47.11386" lon="6.83822">
        <ele>1003.417</ele>
        <time>2018-08-01T08:57:26Z</time>
      </trkpt>
      <trkpt lat="47.11388" lon="6.83828">
        <ele>1003.608</ele>
        <time>2018-08-01T08:57:27Z</time>
      </trkpt>
      <trkpt lat="47.11392" lon="6.83834">
        <ele>1003.875</ele>
        <time>2018-08-01T08:57:28Z</time>
      </trkpt>
      <trkpt lat="47.11394" lon="6.8384">
        <ele>1004.05</ele>
        <time>2018-08-01T08:57:29Z</time>
      </trkpt>
      <trkpt lat="47.11398" lon="6.83847">
        <ele>1004.314</ele>
        <time>2018-08-01T08:57:30Z</time>
      </trkpt>
      <trkpt lat="47.11399" lon="6.83855">
        <ele>1004.566</ele>
        <time>2018-08-01T08:57:31Z</time>
      </trkpt>
      <trkpt lat="47.11401" lon="6.83861">
        <ele>1004.562</ele>
        <time>2018-08-01T08:57:32Z</time>
      </trkpt>
      <trkpt lat="47.11407" lon="6.83865">
        <ele>1004.689</ele>
        <time>2018-08-01T08:57:33Z</time>
      </trkpt>
      <trkpt lat="47.11406" lon="6.83876">
        <ele>1005.054</ele>
        <time>2018-08-01T08:57:35Z</time>
      </trkpt>
      <trkpt lat="47.11412" lon="6.83887">
        <ele>1005.483</ele>
        <time>2018-08-01T08:57:37Z</time>
      </trkpt>
      <trkpt lat="47.11414" lon="6.83893">
        <ele>1005.646</ele>
        <time>2018-08-01T08:57:38Z</time>
      </trkpt>
      <trkpt lat="47.11417" lon="6.83903">
        <ele>1006.188</ele>
        <time>2018-08-01T08:57:40Z</time>
      </trkpt>
      <trkpt lat="47.11422" lon="6.83913">
        <ele>1006.416</ele>
        <time>2018-08-01T08:57:42Z</time>
      </trkpt>
      <trkpt lat="47.11426" lon="6.83924">
        <ele>1006.808</ele>
        <time>2018-08-01T08:57:44Z</time>
      </trkpt>
      <trkpt lat="47.11429" lon="6.8393">
        <ele>1007.166</ele>
        <time>2018-08-01T08:57:45Z</time>
      </trkpt>
      <trkpt lat="47.11433" lon="6.8394">
        <ele>1007.731</ele>
        <time>2018-08-01T08:57:47Z</time>
      </trkpt>
      <trkpt lat="47.11438" lon="6.83949">
        <ele>1008.545</ele>
        <time>2018-08-01T08:57:49Z</time>
      </trkpt>
      <trkpt lat="47.11442" lon="6.83957">
        <ele>1009.127</ele>
        <time>2018-08-01T08:57:51Z</time>
      </trkpt>
      <trkpt lat="47.11446" lon="6.83962">
        <ele>1009.443</ele>
        <time>2018-08-01T08:57:52Z</time>
      </trkpt>
      <trkpt lat="47.11449" lon="6.83967">
        <ele>1009.54</ele>
        <time>2018-08-01T08:57:53Z</time>
      </trkpt>
      <trkpt lat="47.11453" lon="6.83973">
        <ele>1009.765</ele>
        <time>2018-08-01T08:57:54Z</time>
      </trkpt>
      <trkpt lat="47.11457" lon="6.83982">
        <ele>1009.954</ele>
        <time>2018-08-01T08:57:56Z</time>
      </trkpt>
      <trkpt lat="47.1146" lon="6.83987">
        <ele>1010.022</ele>
        <time>2018-08-01T08:57:57Z</time>
      </trkpt>
      <trkpt lat="47.11468" lon="6.83995">
        <ele>1010.462</ele>
        <time>2018-08-01T08:57:59Z</time>
      </trkpt>
      <trkpt lat="47.11471" lon="6.83999">
        <ele>1010.408</ele>
        <time>2018-08-01T08:58:00Z</time>
      </trkpt>
      <trkpt lat="47.11478" lon="6.84007">
        <ele>1011.108</ele>
        <time>2018-08-01T08:58:02Z</time>
      </trkpt>
      <trkpt lat="47.11485" lon="6.84014">
        <ele>1011.674</ele>
        <time>2018-08-01T08:58:04Z</time>
      </trkpt>
      <trkpt lat="47.11489" lon="6.84019">
        <ele>1011.859</ele>
        <time>2018-08-01T08:58:05Z</time>
      </trkpt>
      <trkpt lat="47.11493" lon="6.84022">
        <ele>1012.063</ele>
        <time>2018-08-01T08:58:06Z</time>
      </trkpt>
      <trkpt lat="47.11497" lon="6.84025">
        <ele>1012.225</ele>
        <time>2018-08-01T08:58:07Z</time>
      </trkpt>
      <trkpt lat="47.11504" lon="6.84031">
        <ele>1013.041</ele>
        <time>2018-08-01T08:58:09Z</time>
      </trkpt>
      <trkpt lat="47.11511" lon="6.84035">
        <ele>1013.838</ele>
        <time>2018-08-01T08:58:11Z</time>
      </trkpt>
      <trkpt lat="47.11519" lon="6.84041">
        <ele>1014.163</ele>
        <time>2018-08-01T08:58:13Z</time>
      </trkpt>
      <trkpt lat="47.11523" lon="6.84045">
        <ele>1014.142</ele>
        <time>2018-08-01T08:58:14Z</time>
      </trkpt>
      <trkpt lat="47.11532" lon="6.8405">
        <ele>1014.488</ele>
        <time>2018-08-01T08:58:16Z</time>
      </trkpt>
      <trkpt lat="47.1154" lon="6.84052">
        <ele>1014.824</ele>
        <time>2018-08-01T08:58:18Z</time>
      </trkpt>
      <trkpt lat="47.11549" lon="6.84055">
        <ele>1015.226</ele>
        <time>2018-08-01T08:58:20Z</time>
      </trkpt>
      <trkpt lat="47.11558" lon="6.84057">
        <ele>1015.608</ele>
        <time>2018-08-01T08:58:22Z</time>
      </trkpt>
      <trkpt lat="47.11563" lon="6.84058">
        <ele>1016.01</ele>
        <time>2018-08-01T08:58:23Z</time>
      </trkpt>
      <trkpt lat="47.11571" lon="6.8406">
        <ele>1016.655</ele>
        <time>2018-08-01T08:58:25Z</time>
      </trkpt>
      <trkpt lat="47.1158" lon="6.84063">
        <ele>1016.859</ele>
        <time>2018-08-01T08:58:27Z</time>
      </trkpt>
      <trkpt lat="47.11587" lon="6.84063">
        <ele>1016.881</ele>
        <time>2018-08-01T08:58:29Z</time>
      </trkpt>
      <trkpt lat="47.11596" lon="6.84063">
        <ele>1017.017</ele>
        <time>2018-08-01T08:58:31Z</time>
      </trkpt>
      <trkpt lat="47.11604" lon="6.84064">
        <ele>1017.434</ele>
        <time>2018-08-01T08:58:33Z</time>
      </trkpt>
      <trkpt lat="47.11608" lon="6.84065">
        <ele>1017.799</ele>
        <time>2018-08-01T08:58:34Z</time>
      </trkpt>
      <trkpt lat="47.11617" lon="6.84064">
        <ele>1018.358</ele>
        <time>2018-08-01T08:58:36Z</time>
      </trkpt>
      <trkpt lat="47.11624" lon="6.84063">
        <ele>1018.832</ele>
        <time>2018-08-01T08:58:38Z</time>
      </trkpt>
      <trkpt lat="47.11632" lon="6.84063">
        <ele>1019.092</ele>
        <time>2018-08-01T08:58:39Z</time>
      </trkpt>
      <trkpt lat="47.1164" lon="6.84061">
        <ele>1019.411</ele>
        <time>2018-08-01T08:58:41Z</time>
      </trkpt>
      <trkpt lat="47.11648" lon="6.84059">
        <ele>1019.808</ele>
        <time>2018-08-01T08:58:43Z</time>
      </trkpt>
      <trkpt lat="47.11657" lon="6.84057">
        <ele>1020.495</ele>
        <time>2018-08-01T08:58:45Z</time>
      </trkpt>
      <trkpt lat="47.11662" lon="6.84054">
        <ele>1020.75</ele>
        <time>2018-08-01T08:58:46Z</time>
      </trkpt>
      <trkpt lat="47.11667" lon="6.84053">
        <ele>1020.954</ele>
        <time>2018-08-01T08:58:47Z</time>
      </trkpt>
      <trkpt lat="47.11671" lon="6.8405">
        <ele>1021.236</ele>
        <time>2018-08-01T08:58:48Z</time>
      </trkpt>
      <trkpt lat="47.1168" lon="6.84044">
        <ele>1021.642</ele>
        <time>2018-08-01T08:58:50Z</time>
      </trkpt>
      <trkpt lat="47.11683" lon="6.8404">
        <ele>1021.839</ele>
        <time>2018-08-01T08:58:51Z</time>
      </trkpt>
      <trkpt lat="47.11688" lon="6.84036">
        <ele>1022.194</ele>
        <time>2018-08-01T08:58:52Z</time>
      </trkpt>
      <trkpt lat="47.11691" lon="6.84031">
        <ele>1022.293</ele>
        <time>2018-08-01T08:58:53Z</time>
      </trkpt>
      <trkpt lat="47.11695" lon="6.84025">
        <ele>1022.212</ele>
        <time>2018-08-01T08:58:54Z</time>
      </trkpt>
      <trkpt lat="47.11697" lon="6.84019">
        <ele>1022.132</ele>
        <time>2018-08-01T08:58:55Z</time>
      </trkpt>
      <trkpt lat="47.11699" lon="6.84012">
        <ele>1022.105</ele>
        <time>2018-08-01T08:58:56Z</time>
      </trkpt>
      <trkpt lat="47.11701" lon="6.84006">
        <ele>1022.108</ele>
        <time>2018-08-01T08:58:57Z</time>
      </trkpt>
      <trkpt lat="47.11704" lon="6.83999">
        <ele>1022.113</ele>
        <time>2018-08-01T08:58:58Z</time>
      </trkpt>
      <trkpt lat="47.11704" lon="6.83991">
        <ele>1022.188</ele>
        <time>2018-08-01T08:58:59Z</time>
      </trkpt>
      <trkpt lat="47.11706" lon="6.83984">
        <ele>1022.122</ele>
        <time>2018-08-01T08:59:00Z</time>
      </trkpt>
      <trkpt lat="47.11707" lon="6.83976">
        <ele>1022.274</ele>
        <time>2018-08-01T08:59:01Z</time>
      </trkpt>
      <trkpt lat="47.11709" lon="6.83968">
        <ele>1022.39</ele>
        <time>2018-08-01T08:59:02Z</time>
      </trkpt>
      <trkpt lat="47.11709" lon="6.83959">
        <ele>1022.337</ele>
        <time>2018-08-01T08:59:03Z</time>
      </trkpt>
      <trkpt lat="47.11709" lon="6.83951">
        <ele>1022.352</ele>
        <time>2018-08-01T08:59:04Z</time>
      </trkpt>
      <trkpt lat="47.11708" lon="6.83943">
        <ele>1022.331</ele>
        <time>2018-08-01T08:59:05Z</time>
      </trkpt>
      <trkpt lat="47.11707" lon="6.83935">
        <ele>1022.357</ele>
        <time>2018-08-01T08:59:06Z</time>
      </trkpt>
      <trkpt lat="47.11705" lon="6.83926">
        <ele>1022.3</ele>
        <time>2018-08-01T08:59:07Z</time>
      </trkpt>
      <trkpt lat="47.11705" lon="6.83918">
        <ele>1022.32</ele>
        <time>2018-08-01T08:59:08Z</time>
      </trkpt>
      <trkpt lat="47.11703" lon="6.83909">
        <ele>1022.308</ele>
        <time>2018-08-01T08:59:09Z</time>
      </trkpt>
      <trkpt lat="47.11701" lon="6.83901">
        <ele>1022.437</ele>
        <time>2018-08-01T08:59:10Z</time>
      </trkpt>
      <trkpt lat="47.11699" lon="6.83893">
        <ele>1022.532</ele>
        <time>2018-08-01T08:59:11Z</time>
      </trkpt>
      <trkpt lat="47.11697" lon="6.83885">
        <ele>1022.516</ele>
        <time>2018-08-01T08:59:12Z</time>
      </trkpt>
      <trkpt lat="47.11696" lon="6.83877">
        <ele>1022.558</ele>
        <time>2018-08-01T08:59:13Z</time>
      </trkpt>
      <trkpt lat="47.11695" lon="6.8387">
        <ele>1022.584</ele>
        <time>2018-08-01T08:59:14Z</time>
      </trkpt>
      <trkpt lat="47.11693" lon="6.83862">
        <ele>1022.511</ele>
        <time>2018-08-01T08:59:15Z</time>
      </trkpt>
      <trkpt lat="47.11692" lon="6.83854">
        <ele>1022.556</ele>
        <time>2018-08-01T08:59:16Z</time>
      </trkpt>
      <trkpt lat="47.1169" lon="6.83846">
        <ele>1022.485</ele>
        <time>2018-08-01T08:59:17Z</time>
      </trkpt>
      <trkpt lat="47.11689" lon="6.83837">
        <ele>1022.455</ele>
        <time>2018-08-01T08:59:18Z</time>
      </trkpt>
      <trkpt lat="47.11687" lon="6.8383">
        <ele>1022.407</ele>
        <time>2018-08-01T08:59:19Z</time>
      </trkpt>
      <trkpt lat="47.11685" lon="6.83821">
        <ele>1022.417</ele>
        <time>2018-08-01T08:59:20Z</time>
      </trkpt>
      <trkpt lat="47.11683" lon="6.83814">
        <ele>1022.408</ele>
        <time>2018-08-01T08:59:21Z</time>
      </trkpt>
      <trkpt lat="47.11681" lon="6.83806">
        <ele>1022.447</ele>
        <time>2018-08-01T08:59:22Z</time>
      </trkpt>
      <trkpt lat="47.11679" lon="6.83799">
        <ele>1022.442</ele>
        <time>2018-08-01T08:59:23Z</time>
      </trkpt>
      <trkpt lat="47.11678" lon="6.8379">
        <ele>1022.426</ele>
        <time>2018-08-01T08:59:24Z</time>
      </trkpt>
      <trkpt lat="47.11677" lon="6.83783">
        <ele>1022.488</ele>
        <time>2018-08-01T08:59:25Z</time>
      </trkpt>
      <trkpt lat="47.11675" lon="6.83774">
        <ele>1022.464</ele>
        <time>2018-08-01T08:59:26Z</time>
      </trkpt>
      <trkpt lat="47.11674" lon="6.83766">
        <ele>1022.461</ele>
        <time>2018-08-01T08:59:27Z</time>
      </trkpt>
      <trkpt lat="47.11672" lon="6.83758">
        <ele>1022.426</ele>
        <time>2018-08-01T08:59:28Z</time>
      </trkpt>
      <trkpt lat="47.1167" lon="6.83749">
        <ele>1022.445</ele>
        <time>2018-08-01T08:59:29Z</time>
      </trkpt>
      <trkpt lat="47.11669" lon="6.8374">
        <ele>1022.458</ele>
        <time>2018-08-01T08:59:30Z</time>
      </trkpt>
      <trkpt lat="47.11666" lon="6.83731">
        <ele>1022.552</ele>
        <time>2018-08-01T08:59:31Z</time>
      </trkpt>
      <trkpt lat="47.11664" lon="6.83723">
        <ele>1022.617</ele>
        <time>2018-08-01T08:59:32Z</time>
      </trkpt>
      <trkpt lat="47.11662" lon="6.83715">
        <ele>1022.708</ele>
        <time>2018-08-01T08:59:33Z</time>
      </trkpt>
      <trkpt lat="47.11661" lon="6.83707">
        <ele>1022.877</ele>
        <time>2018-08-01T08:59:34Z</time>
      </trkpt>
      <trkpt lat="47.1166" lon="6.83699">
        <ele>1023.052</ele>
        <time>2018-08-01T08:59:35Z</time>
      </trkpt>
      <trkpt lat="47.11658" lon="6.83691">
        <ele>1023.136</ele>
        <time>2018-08-01T08:59:36Z</time>
      </trkpt>
      <trkpt lat="47.11656" lon="6.83683">
        <ele>1023.278</ele>
        <time>2018-08-01T08:59:37Z</time>
      </trkpt>
      <trkpt lat="47.11655" lon="6.83674">
        <ele>1023.314</ele>
        <time>2018-08-01T08:59:38Z</time>
      </trkpt>
      <trkpt lat="47.11654" lon="6.83665">
        <ele>1023.431</ele>
        <time>2018-08-01T08:59:39Z</time>
      </trkpt>
      <trkpt lat="47.11655" lon="6.83657">
        <ele>1023.466</ele>
        <time>2018-08-01T08:59:40Z</time>
      </trkpt>
      <trkpt lat="47.11654" lon="6.83648">
        <ele>1023.535</ele>
        <time>2018-08-01T08:59:41Z</time>
      </trkpt>
      <trkpt lat="47.11654" lon="6.83638">
        <ele>1023.578</ele>
        <time>2018-08-01T08:59:42Z</time>
      </trkpt>
      <trkpt lat="47.11653" lon="6.83628">
        <ele>1023.533</ele>
        <time>2018-08-01T08:59:43Z</time>
      </trkpt>
      <trkpt lat="47.11653" lon="6.83619">
        <ele>1023.426</ele>
        <time>2018-08-01T08:59:44Z</time>
      </trkpt>
      <trkpt lat="47.11653" lon="6.83611">
        <ele>1023.308</ele>
        <time>2018-08-01T08:59:45Z</time>
      </trkpt>
      <trkpt lat="47.11653" lon="6.83601">
        <ele>1023.279</ele>
        <time>2018-08-01T08:59:46Z</time>
      </trkpt>
      <trkpt lat="47.11653" lon="6.83593">
        <ele>1023.134</ele>
        <time>2018-08-01T08:59:47Z</time>
      </trkpt>
      <trkpt lat="47.11654" lon="6.83583">
        <ele>1023.158</ele>
        <time>2018-08-01T08:59:48Z</time>
      </trkpt>
      <trkpt lat="47.11655" lon="6.83574">
        <ele>1023.14</ele>
        <time>2018-08-01T08:59:49Z</time>
      </trkpt>
      <trkpt lat="47.11655" lon="6.83566">
        <ele>1023.126</ele>
        <time>2018-08-01T08:59:50Z</time>
      </trkpt>
      <trkpt lat="47.11658" lon="6.83555">
        <ele>1023.263</ele>
        <time>2018-08-01T08:59:51Z</time>
      </trkpt>
      <trkpt lat="47.11662" lon="6.83545">
        <ele>1023.418</ele>
        <time>2018-08-01T08:59:52Z</time>
      </trkpt>
      <trkpt lat="47.11664" lon="6.83536">
        <ele>1023.437</ele>
        <time>2018-08-01T08:59:53Z</time>
      </trkpt>
      <trkpt lat="47.11669" lon="6.83528">
        <ele>1023.581</ele>
        <time>2018-08-01T08:59:54Z</time>
      </trkpt>
      <trkpt lat="47.11673" lon="6.83518">
        <ele>1023.561</ele>
        <time>2018-08-01T08:59:55Z</time>
      </trkpt>
      <trkpt lat="47.11677" lon="6.83512">
        <ele>1023.517</ele>
        <time>2018-08-01T08:59:56Z</time>
      </trkpt>
      <trkpt lat="47.11682" lon="6.83506">
        <ele>1023.408</ele>
        <time>2018-08-01T08:59:57Z</time>
      </trkpt>
      <trkpt lat="47.11686" lon="6.835">
        <ele>1023.39</ele>
        <time>2018-08-01T08:59:58Z</time>
      </trkpt>
      <trkpt lat="47.11691" lon="6.83495">
        <ele>1023.225</ele>
        <time>2018-08-01T08:59:59Z</time>
      </trkpt>
      <trkpt lat="47.11696" lon="6.8349">
        <ele>1023.249</ele>
        <time>2018-08-01T09:00:00Z</time>
      </trkpt>
      <trkpt lat="47.11701" lon="6.83484">
        <ele>1023.341</ele>
        <time>2018-08-01T09:00:01Z</time>
      </trkpt>
      <trkpt lat="47.11706" lon="6.83481">
        <ele>1023.377</ele>
        <time>2018-08-01T09:00:02Z</time>
      </trkpt>
      <trkpt lat="47.11712" lon="6.83477">
        <ele>1023.344</ele>
        <time>2018-08-01T09:00:03Z</time>
      </trkpt>
      <trkpt lat="47.11719" lon="6.83476">
        <ele>1023.389</ele>
        <time>2018-08-01T09:00:04Z</time>
      </trkpt>
      <trkpt lat="47.11723" lon="6.83473">
        <ele>1023.348</ele>
        <time>2018-08-01T09:00:05Z</time>
      </trkpt>
      <trkpt lat="47.11729" lon="6.83471">
        <ele>1023.263</ele>
        <time>2018-08-01T09:00:06Z</time>
      </trkpt>
      <trkpt lat="47.11735" lon="6.83471">
        <ele>1023.144</ele>
        <time>2018-08-01T09:00:07Z</time>
      </trkpt>
      <trkpt lat="47.11742" lon="6.83471">
        <ele>1023.018</ele>
        <time>2018-08-01T09:00:08Z</time>
      </trkpt>
      <trkpt lat="47.11749" lon="6.83471">
        <ele>1023.008</ele>
        <time>2018-08-01T09:00:09Z</time>
      </trkpt>
      <trkpt lat="47.11755" lon="6.83475">
        <ele>1022.988</ele>
        <time>2018-08-01T09:00:10Z</time>
      </trkpt>
      <trkpt lat="47.11762" lon="6.83477">
        <ele>1022.943</ele>
        <time>2018-08-01T09:00:11Z</time>
      </trkpt>
      <trkpt lat="47.11767" lon="6.83479">
        <ele>1022.947</ele>
        <time>2018-08-01T09:00:12Z</time>
      </trkpt>
      <trkpt lat="47.11773" lon="6.83483">
        <ele>1022.969</ele>
        <time>2018-08-01T09:00:13Z</time>
      </trkpt>
      <trkpt lat="47.11779" lon="6.83486">
        <ele>1023.045</ele>
        <time>2018-08-01T09:00:14Z</time>
      </trkpt>
      <trkpt lat="47.11784" lon="6.83489">
        <ele>1023.212</ele>
        <time>2018-08-01T09:00:15Z</time>
      </trkpt>
      <trkpt lat="47.11788" lon="6.83492">
        <ele>1023.387</ele>
        <time>2018-08-01T09:00:16Z</time>
      </trkpt>
      <trkpt lat="47.11795" lon="6.83496">
        <ele>1023.496</ele>
        <time>2018-08-01T09:00:17Z</time>
      </trkpt>
      <trkpt lat="47.11799" lon="6.835">
        <ele>1023.487</ele>
        <time>2018-08-01T09:00:18Z</time>
      </trkpt>
      <trkpt lat="47.11806" lon="6.83509">
        <ele>1023.542</ele>
        <time>2018-08-01T09:00:20Z</time>
      </trkpt>
      <trkpt lat="47.11813" lon="6.83517">
        <ele>1023.626</ele>
        <time>2018-08-01T09:00:22Z</time>
      </trkpt>
      <trkpt lat="47.11821" lon="6.83524">
        <ele>1024.008</ele>
        <time>2018-08-01T09:00:24Z</time>
      </trkpt>
      <trkpt lat="47.11825" lon="6.83528">
        <ele>1024.36</ele>
        <time>2018-08-01T09:00:25Z</time>
      </trkpt>
      <trkpt lat="47.11828" lon="6.83533">
        <ele>1024.565</ele>
        <time>2018-08-01T09:00:26Z</time>
      </trkpt>
      <trkpt lat="47.11836" lon="6.83542">
        <ele>1025.219</ele>
        <time>2018-08-01T09:00:28Z</time>
      </trkpt>
      <trkpt lat="47.11839" lon="6.83547">
        <ele>1025.581</ele>
        <time>2018-08-01T09:00:29Z</time>
      </trkpt>
      <trkpt lat="47.11843" lon="6.83551">
        <ele>1025.977</ele>
        <time>2018-08-01T09:00:30Z</time>
      </trkpt>
      <trkpt lat="47.11846" lon="6.83556">
        <ele>1026.254</ele>
        <time>2018-08-01T09:00:31Z</time>
      </trkpt>
      <trkpt lat="47.1185" lon="6.83561">
        <ele>1026.559</ele>
        <time>2018-08-01T09:00:32Z</time>
      </trkpt>
      <trkpt lat="47.11854" lon="6.83566">
        <ele>1026.948</ele>
        <time>2018-08-01T09:00:33Z</time>
      </trkpt>
      <trkpt lat="47.11858" lon="6.8357">
        <ele>1027.484</ele>
        <time>2018-08-01T09:00:34Z</time>
      </trkpt>
      <trkpt lat="47.11864" lon="6.83578">
        <ele>1028.207</ele>
        <time>2018-08-01T09:00:36Z</time>
      </trkpt>
      <trkpt lat="47.11868" lon="6.83582">
        <ele>1028.617</ele>
        <time>2018-08-01T09:00:37Z</time>
      </trkpt>
      <trkpt lat="47.11876" lon="6.83588">
        <ele>1029.308</ele>
        <time>2018-08-01T09:00:39Z</time>
      </trkpt>
      <trkpt lat="47.11883" lon="6.83594">
        <ele>1030.09</ele>
        <time>2018-08-01T09:00:41Z</time>
      </trkpt>
      <trkpt lat="47.11887" lon="6.83597">
        <ele>1030.485</ele>
        <time>2018-08-01T09:00:42Z</time>
      </trkpt>
      <trkpt lat="47.11891" lon="6.836">
        <ele>1030.739</ele>
        <time>2018-08-01T09:00:43Z</time>
      </trkpt>
      <trkpt lat="47.11899" lon="6.83606">
        <ele>1031.481</ele>
        <time>2018-08-01T09:00:45Z</time>
      </trkpt>
      <trkpt lat="47.11906" lon="6.83613">
        <ele>1031.867</ele>
        <time>2018-08-01T09:00:47Z</time>
      </trkpt>
      <trkpt lat="47.11914" lon="6.83618">
        <ele>1032.084</ele>
        <time>2018-08-01T09:00:49Z</time>
      </trkpt>
      <trkpt lat="47.11922" lon="6.83623">
        <ele>1032.379</ele>
        <time>2018-08-01T09:00:51Z</time>
      </trkpt>
      <trkpt lat="47.11929" lon="6.83628">
        <ele>1032.998</ele>
        <time>2018-08-01T09:00:53Z</time>
      </trkpt>
      <trkpt lat="47.11936" lon="6.83632">
        <ele>1033.452</ele>
        <time>2018-08-01T09:00:55Z</time>
      </trkpt>
      <trkpt lat="47.11944" lon="6.83637">
        <ele>1034.153</ele>
        <time>2018-08-01T09:00:57Z</time>
      </trkpt>
      <trkpt lat="47.1195" lon="6.8364">
        <ele>1034.408</ele>
        <time>2018-08-01T09:00:58Z</time>
      </trkpt>
      <trkpt lat="47.11956" lon="6.83643">
        <ele>1035.208</ele>
        <time>2018-08-01T09:01:00Z</time>
      </trkpt>
      <trkpt lat="47.11963" lon="6.83646">
        <ele>1035.917</ele>
        <time>2018-08-01T09:01:02Z</time>
      </trkpt>
      <trkpt lat="47.11968" lon="6.83649">
        <ele>1036.142</ele>
        <time>2018-08-01T09:01:03Z</time>
      </trkpt>
      <trkpt lat="47.11972" lon="6.83651">
        <ele>1036.226</ele>
        <time>2018-08-01T09:01:04Z</time>
      </trkpt>
      <trkpt lat="47.1198" lon="6.83656">
        <ele>1036.598</ele>
        <time>2018-08-01T09:01:06Z</time>
      </trkpt>
      <trkpt lat="47.11986" lon="6.83658">
        <ele>1036.734</ele>
        <time>2018-08-01T09:01:08Z</time>
      </trkpt>
      <trkpt lat="47.11994" lon="6.83661">
        <ele>1037.361</ele>
        <time>2018-08-01T09:01:10Z</time>
      </trkpt>
      <trkpt lat="47.12001" lon="6.83663">
        <ele>1037.956</ele>
        <time>2018-08-01T09:01:12Z</time>
      </trkpt>
      <trkpt lat="47.12008" lon="6.83666">
        <ele>1038.475</ele>
        <time>2018-08-01T09:01:14Z</time>
      </trkpt>
      <trkpt lat="47.12015" lon="6.83666">
        <ele>1038.638</ele>
        <time>2018-08-01T09:01:16Z</time>
      </trkpt>
      <trkpt lat="47.12022" lon="6.83666">
        <ele>1039.17</ele>
        <time>2018-08-01T09:01:18Z</time>
      </trkpt>
      <trkpt lat="47.1203" lon="6.83665">
        <ele>1039.717</ele>
        <time>2018-08-01T09:01:20Z</time>
      </trkpt>
      <trkpt lat="47.12037" lon="6.83664">
        <ele>1040.308</ele>
        <time>2018-08-01T09:01:22Z</time>
      </trkpt>
      <trkpt lat="47.12044" lon="6.83662">
        <ele>1040.755</ele>
        <time>2018-08-01T09:01:24Z</time>
      </trkpt>
      <trkpt lat="47.1205" lon="6.8366">
        <ele>1041.16</ele>
        <time>2018-08-01T09:01:26Z</time>
      </trkpt>
      <trkpt lat="47.12056" lon="6.83658">
        <ele>1041.794</ele>
        <time>2018-08-01T09:01:28Z</time>
      </trkpt>
      <trkpt lat="47.12063" lon="6.83657">
        <ele>1042.326</ele>
        <time>2018-08-01T09:01:30Z</time>
      </trkpt>
      <trkpt lat="47.1207" lon="6.83654">
        <ele>1042.822</ele>
        <time>2018-08-01T09:01:32Z</time>
      </trkpt>
      <trkpt lat="47.12077" lon="6.8365">
        <ele>1043.239</ele>
        <time>2018-08-01T09:01:34Z</time>
      </trkpt>
      <trkpt lat="47.12083" lon="6.83644">
        <ele>1043.694</ele>
        <time>2018-08-01T09:01:36Z</time>
      </trkpt>
      <trkpt lat="47.12088" lon="6.83637">
        <ele>1043.953</ele>
        <time>2018-08-01T09:01:38Z</time>
      </trkpt>
      <trkpt lat="47.12094" lon="6.83629">
        <ele>1044.212</ele>
        <time>2018-08-01T09:01:40Z</time>
      </trkpt>
      <trkpt lat="47.12098" lon="6.83619">
        <ele>1044.532</ele>
        <time>2018-08-01T09:01:42Z</time>
      </trkpt>
      <trkpt lat="47.12103" lon="6.83609">
        <ele>1044.905</ele>
        <time>2018-08-01T09:01:44Z</time>
      </trkpt>
      <trkpt lat="47.12106" lon="6.83604">
        <ele>1044.908</ele>
        <time>2018-08-01T09:01:45Z</time>
      </trkpt>
      <trkpt lat="47.12111" lon="6.836">
        <ele>1045.113</ele>
        <time>2018-08-01T09:01:46Z</time>
      </trkpt>
      <trkpt lat="47.12113" lon="6.83593">
        <ele>1045.238</ele>
        <time>2018-08-01T09:01:47Z</time>
      </trkpt>
      <trkpt lat="47.12115" lon="6.83587">
        <ele>1045.262</ele>
        <time>2018-08-01T09:01:48Z</time>
      </trkpt>
      <trkpt lat="47.1212" lon="6.83582">
        <ele>1045.364</ele>
        <time>2018-08-01T09:01:49Z</time>
      </trkpt>
      <trkpt lat="47.12123" lon="6.83575">
        <ele>1045.47</ele>
        <time>2018-08-01T09:01:50Z</time>
      </trkpt>
      <trkpt lat="47.12126" lon="6.83569">
        <ele>1045.587</ele>
        <time>2018-08-01T09:01:51Z</time>
      </trkpt>
      <trkpt lat="47.12129" lon="6.83563">
        <ele>1045.672</ele>
        <time>2018-08-01T09:01:52Z</time>
      </trkpt>
      <trkpt lat="47.12131" lon="6.83556">
        <ele>1045.761</ele>
        <time>2018-08-01T09:01:53Z</time>
      </trkpt>
      <trkpt lat="47.12134" lon="6.8355">
        <ele>1045.857</ele>
        <time>2018-08-01T09:01:54Z</time>
      </trkpt>
      <trkpt lat="47.12138" lon="6.83542">
        <ele>1045.8</ele>
        <time>2018-08-01T09:01:55Z</time>
      </trkpt>
      <trkpt lat="47.12142" lon="6.83537">
        <ele>1045.82</ele>
        <time>2018-08-01T09:01:56Z</time>
      </trkpt>
      <trkpt lat="47.12147" lon="6.83531">
        <ele>1045.808</ele>
        <time>2018-08-01T09:01:57Z</time>
      </trkpt>
      <trkpt lat="47.12151" lon="6.83525">
        <ele>1045.847</ele>
        <time>2018-08-01T09:01:58Z</time>
      </trkpt>
      <trkpt lat="47.12155" lon="6.8352">
        <ele>1045.882</ele>
        <time>2018-08-01T09:01:59Z</time>
      </trkpt>
      <trkpt lat="47.12159" lon="6.83514">
        <ele>1045.846</ele>
        <time>2018-08-01T09:02:00Z</time>
      </trkpt>
      <trkpt lat="47.12165" lon="6.8351">
        <ele>1045.888</ele>
        <time>2018-08-01T09:02:01Z</time>
      </trkpt>
      <trkpt lat="47.12169" lon="6.83506">
        <ele>1045.854</ele>
        <time>2018-08-01T09:02:02Z</time>
      </trkpt>
      <trkpt lat="47.12174" lon="6.83503">
        <ele>1045.831</ele>
        <time>2018-08-01T09:02:03Z</time>
      </trkpt>
      <trkpt lat="47.12181" lon="6.835">
        <ele>1045.836</ele>
        <time>2018-08-01T09:02:04Z</time>
      </trkpt>
      <trkpt lat="47.12186" lon="6.83496">
        <ele>1045.955</ele>
        <time>2018-08-01T09:02:05Z</time>
      </trkpt>
      <trkpt lat="47.1219" lon="6.8349">
        <ele>1046.045</ele>
        <time>2018-08-01T09:02:06Z</time>
      </trkpt>
      <trkpt lat="47.12194" lon="6.83485">
        <ele>1046.147</ele>
        <time>2018-08-01T09:02:07Z</time>
      </trkpt>
      <trkpt lat="47.12198" lon="6.83477">
        <ele>1046.111</ele>
        <time>2018-08-01T09:02:08Z</time>
      </trkpt>
      <trkpt lat="47.12204" lon="6.83473">
        <ele>1046.108</ele>
        <time>2018-08-01T09:02:09Z</time>
      </trkpt>
      <trkpt lat="47.12208" lon="6.83468">
        <ele>1046.116</ele>
        <time>2018-08-01T09:02:10Z</time>
      </trkpt>
      <trkpt lat="47.12213" lon="6.83464">
        <ele>1046.021</ele>
        <time>2018-08-01T09:02:11Z</time>
      </trkpt>
      <trkpt lat="47.12218" lon="6.8346">
        <ele>1045.985</ele>
        <time>2018-08-01T09:02:12Z</time>
      </trkpt>
      <trkpt lat="47.12223" lon="6.83454">
        <ele>1045.957</ele>
        <time>2018-08-01T09:02:13Z</time>
      </trkpt>
      <trkpt lat="47.12227" lon="6.83449">
        <ele>1045.933</ele>
        <time>2018-08-01T09:02:14Z</time>
      </trkpt>
      <trkpt lat="47.12232" lon="6.83445">
        <ele>1046.12</ele>
        <time>2018-08-01T09:02:15Z</time>
      </trkpt>
      <trkpt lat="47.12233" lon="6.83437">
        <ele>1046.355</ele>
        <time>2018-08-01T09:02:16Z</time>
      </trkpt>
      <trkpt lat="47.12237" lon="6.83431">
        <ele>1046.554</ele>
        <time>2018-08-01T09:02:17Z</time>
      </trkpt>
      <trkpt lat="47.12243" lon="6.83424">
        <ele>1046.652</ele>
        <time>2018-08-01T09:02:18Z</time>
      </trkpt>
      <trkpt lat="47.12246" lon="6.83418">
        <ele>1046.753</ele>
        <time>2018-08-01T09:02:19Z</time>
      </trkpt>
      <trkpt lat="47.12251" lon="6.83412">
        <ele>1046.808</ele>
        <time>2018-08-01T09:02:20Z</time>
      </trkpt>
      <trkpt lat="47.12254" lon="6.83406">
        <ele>1046.808</ele>
        <time>2018-08-01T09:02:21Z</time>
      </trkpt>
      <trkpt lat="47.12258" lon="6.834">
        <ele>1046.827</ele>
        <time>2018-08-01T09:02:22Z</time>
      </trkpt>
      <trkpt lat="47.1226" lon="6.83394">
        <ele>1046.842</ele>
        <time>2018-08-01T09:02:23Z</time>
      </trkpt>
      <trkpt lat="47.12265" lon="6.83388">
        <ele>1046.856</ele>
        <time>2018-08-01T09:02:24Z</time>
      </trkpt>
      <trkpt lat="47.12269" lon="6.83381">
        <ele>1046.778</ele>
        <time>2018-08-01T09:02:25Z</time>
      </trkpt>
      <trkpt lat="47.1227" lon="6.83373">
        <ele>1046.714</ele>
        <time>2018-08-01T09:02:26Z</time>
      </trkpt>
      <trkpt lat="47.12274" lon="6.83367">
        <ele>1046.631</ele>
        <time>2018-08-01T09:02:27Z</time>
      </trkpt>
      <trkpt lat="47.12277" lon="6.83359">
        <ele>1046.636</ele>
        <time>2018-08-01T09:02:28Z</time>
      </trkpt>
      <trkpt lat="47.12279" lon="6.83351">
        <ele>1046.635</ele>
        <time>2018-08-01T09:02:29Z</time>
      </trkpt>
      <trkpt lat="47.12282" lon="6.83344">
        <ele>1046.634</ele>
        <time>2018-08-01T09:02:30Z</time>
      </trkpt>
      <trkpt lat="47.12285" lon="6.83335">
        <ele>1046.655</ele>
        <time>2018-08-01T09:02:31Z</time>
      </trkpt>
      <trkpt lat="47.12287" lon="6.83327">
        <ele>1046.71</ele>
        <time>2018-08-01T09:02:32Z</time>
      </trkpt>
      <trkpt lat="47.1229" lon="6.83319">
        <ele>1046.908</ele>
        <time>2018-08-01T09:02:33Z</time>
      </trkpt>
      <trkpt lat="47.12293" lon="6.83313">
        <ele>1047.025</ele>
        <time>2018-08-01T09:02:34Z</time>
      </trkpt>
      <trkpt lat="47.12297" lon="6.83305">
        <ele>1047.05</ele>
        <time>2018-08-01T09:02:35Z</time>
      </trkpt>
      <trkpt lat="47.12301" lon="6.83296">
        <ele>1047.044</ele>
        <time>2018-08-01T09:02:36Z</time>
      </trkpt>
      <trkpt lat="47.12303" lon="6.83288">
        <ele>1046.976</ele>
        <time>2018-08-01T09:02:37Z</time>
      </trkpt>
      <trkpt lat="47.12305" lon="6.83279">
        <ele>1046.652</ele>
        <time>2018-08-01T09:02:38Z</time>
      </trkpt>
      <trkpt lat="47.12308" lon="6.83269">
        <ele>1046.299</ele>
        <time>2018-08-01T09:02:39Z</time>
      </trkpt>
      <trkpt lat="47.12311" lon="6.83262">
        <ele>1046.034</ele>
        <time>2018-08-01T09:02:40Z</time>
      </trkpt>
      <trkpt lat="47.12315" lon="6.83256">
        <ele>1046.043</ele>
        <time>2018-08-01T09:02:41Z</time>
      </trkpt>
      <trkpt lat="47.12318" lon="6.83249">
        <ele>1045.977</ele>
        <time>2018-08-01T09:02:42Z</time>
      </trkpt>
      <trkpt lat="47.12322" lon="6.83242">
        <ele>1045.861</ele>
        <time>2018-08-01T09:02:43Z</time>
      </trkpt>
      <trkpt lat="47.12327" lon="6.83235">
        <ele>1045.827</ele>
        <time>2018-08-01T09:02:44Z</time>
      </trkpt>
      <trkpt lat="47.12333" lon="6.83223">
        <ele>1045.908</ele>
        <time>2018-08-01T09:02:46Z</time>
      </trkpt>
      <trkpt lat="47.12336" lon="6.83217">
        <ele>1045.959</ele>
        <time>2018-08-01T09:02:47Z</time>
      </trkpt>
      <trkpt lat="47.1234" lon="6.8321">
        <ele>1045.984</ele>
        <time>2018-08-01T09:02:48Z</time>
      </trkpt>
      <trkpt lat="47.12345" lon="6.83203">
        <ele>1045.948</ele>
        <time>2018-08-01T09:02:49Z</time>
      </trkpt>
      <trkpt lat="47.12348" lon="6.83198">
        <ele>1046.05</ele>
        <time>2018-08-01T09:02:50Z</time>
      </trkpt>
      <trkpt lat="47.12352" lon="6.83191">
        <ele>1046.196</ele>
        <time>2018-08-01T09:02:51Z</time>
      </trkpt>
      <trkpt lat="47.12356" lon="6.83186">
        <ele>1046.213</ele>
        <time>2018-08-01T09:02:52Z</time>
      </trkpt>
      <trkpt lat="47.1236" lon="6.83179">
        <ele>1046.288</ele>
        <time>2018-08-01T09:02:53Z</time>
      </trkpt>
      <trkpt lat="47.12363" lon="6.83173">
        <ele>1046.277</ele>
        <time>2018-08-01T09:02:54Z</time>
      </trkpt>
      <trkpt lat="47.12366" lon="6.83166">
        <ele>1046.275</ele>
        <time>2018-08-01T09:02:55Z</time>
      </trkpt>
      <trkpt lat="47.12371" lon="6.83161">
        <ele>1046.228</ele>
        <time>2018-08-01T09:02:56Z</time>
      </trkpt>
      <trkpt lat="47.12375" lon="6.83154">
        <ele>1046.32</ele>
        <time>2018-08-01T09:02:57Z</time>
      </trkpt>
      <trkpt lat="47.12376" lon="6.83146">
        <ele>1046.408</ele>
        <time>2018-08-01T09:02:58Z</time>
      </trkpt>
      <trkpt lat="47.1238" lon="6.83139">
        <ele>1046.449</ele>
        <time>2018-08-01T09:02:59Z</time>
      </trkpt>
      <trkpt lat="47.12384" lon="6.83132">
        <ele>1046.434</ele>
        <time>2018-08-01T09:03:00Z</time>
      </trkpt>
      <trkpt lat="47.12385" lon="6.83124">
        <ele>1046.348</ele>
        <time>2018-08-01T09:03:01Z</time>
      </trkpt>
      <trkpt lat="47.1239" lon="6.83117">
        <ele>1046.24</ele>
        <time>2018-08-01T09:03:02Z</time>
      </trkpt>
      <trkpt lat="47.12393" lon="6.83111">
        <ele>1046.226</ele>
        <time>2018-08-01T09:03:03Z</time>
      </trkpt>
      <trkpt lat="47.12398" lon="6.83104">
        <ele>1046.273</ele>
        <time>2018-08-01T09:03:04Z</time>
      </trkpt>
      <trkpt lat="47.12402" lon="6.83097">
        <ele>1046.438</ele>
        <time>2018-08-01T09:03:05Z</time>
      </trkpt>
      <trkpt lat="47.12407" lon="6.83091">
        <ele>1046.637</ele>
        <time>2018-08-01T09:03:06Z</time>
      </trkpt>
      <trkpt lat="47.12411" lon="6.83085">
        <ele>1046.815</ele>
        <time>2018-08-01T09:03:07Z</time>
      </trkpt>
      <trkpt lat="47.12413" lon="6.83077">
        <ele>1046.865</ele>
        <time>2018-08-01T09:03:08Z</time>
      </trkpt>
      <trkpt lat="47.12418" lon="6.83073">
        <ele>1046.811</ele>
        <time>2018-08-01T09:03:09Z</time>
      </trkpt>
      <trkpt lat="47.12422" lon="6.83068">
        <ele>1046.808</ele>
        <time>2018-08-01T09:03:10Z</time>
      </trkpt>
      <trkpt lat="47.12424" lon="6.83059">
        <ele>1046.743</ele>
        <time>2018-08-01T09:03:11Z</time>
      </trkpt>
      <trkpt lat="47.12427" lon="6.83053">
        <ele>1046.668</ele>
        <time>2018-08-01T09:03:12Z</time>
      </trkpt>
      <trkpt lat="47.1243" lon="6.83047">
        <ele>1046.542</ele>
        <time>2018-08-01T09:03:13Z</time>
      </trkpt>
      <trkpt lat="47.12433" lon="6.8304">
        <ele>1046.484</ele>
        <time>2018-08-01T09:03:14Z</time>
      </trkpt>
      <trkpt lat="47.12436" lon="6.83032">
        <ele>1046.48</ele>
        <time>2018-08-01T09:03:15Z</time>
      </trkpt>
      <trkpt lat="47.12437" lon="6.83025">
        <ele>1046.527</ele>
        <time>2018-08-01T09:03:16Z</time>
      </trkpt>
      <trkpt lat="47.12439" lon="6.83018">
        <ele>1046.662</ele>
        <time>2018-08-01T09:03:17Z</time>
      </trkpt>
      <trkpt lat="47.12442" lon="6.83011">
        <ele>1046.771</ele>
        <time>2018-08-01T09:03:18Z</time>
      </trkpt>
      <trkpt lat="47.12444" lon="6.83003">
        <ele>1046.937</ele>
        <time>2018-08-01T09:03:19Z</time>
      </trkpt>
      <trkpt lat="47.12447" lon="6.82995">
        <ele>1047.149</ele>
        <time>2018-08-01T09:03:20Z</time>
      </trkpt>
      <trkpt lat="47.12449" lon="6.82987">
        <ele>1047.113</ele>
        <time>2018-08-01T09:03:21Z</time>
      </trkpt>
      <trkpt lat="47.12451" lon="6.8298">
        <ele>1047.108</ele>
        <time>2018-08-01T09:03:22Z</time>
      </trkpt>
      <trkpt lat="47.12452" lon="6.82972">
        <ele>1047.195</ele>
        <time>2018-08-01T09:03:23Z</time>
      </trkpt>
      <trkpt lat="47.12454" lon="6.82964">
        <ele>1046.97</ele>
        <time>2018-08-01T09:03:24Z</time>
      </trkpt>
      <trkpt lat="47.12457" lon="6.82955">
        <ele>1046.624</ele>
        <time>2018-08-01T09:03:25Z</time>
      </trkpt>
      <trkpt lat="47.12459" lon="6.82947">
        <ele>1046.526</ele>
        <time>2018-08-01T09:03:26Z</time>
      </trkpt>
      <trkpt lat="47.12461" lon="6.82938">
        <ele>1046.462</ele>
        <time>2018-08-01T09:03:27Z</time>
      </trkpt>
      <trkpt lat="47.12462" lon="6.8293">
        <ele>1046.349</ele>
        <time>2018-08-01T09:03:28Z</time>
      </trkpt>
      <trkpt lat="47.12463" lon="6.82923">
        <ele>1046.224</ele>
        <time>2018-08-01T09:03:29Z</time>
      </trkpt>
      <trkpt lat="47.12464" lon="6.82915">
        <ele>1046.243</ele>
        <time>2018-08-01T09:03:30Z</time>
      </trkpt>
      <trkpt lat="47.12467" lon="6.82906">
        <ele>1046.274</ele>
        <time>2018-08-01T09:03:31Z</time>
      </trkpt>
      <trkpt lat="47.12469" lon="6.82898">
        <ele>1046.056</ele>
        <time>2018-08-01T09:03:32Z</time>
      </trkpt>
      <trkpt lat="47.1247" lon="6.8289">
        <ele>1045.821</ele>
        <time>2018-08-01T09:03:33Z</time>
      </trkpt>
      <trkpt lat="47.12473" lon="6.8288">
        <ele>1045.508</ele>
        <time>2018-08-01T09:03:34Z</time>
      </trkpt>
      <trkpt lat="47.12477" lon="6.82872">
        <ele>1045.299</ele>
        <time>2018-08-01T09:03:35Z</time>
      </trkpt>
      <trkpt lat="47.12482" lon="6.82863">
        <ele>1044.974</ele>
        <time>2018-08-01T09:03:36Z</time>
      </trkpt>
      <trkpt lat="47.12485" lon="6.82853">
        <ele>1044.938</ele>
        <time>2018-08-01T09:03:37Z</time>
      </trkpt>
      <trkpt lat="47.12491" lon="6.82845">
        <ele>1044.64</ele>
        <time>2018-08-01T09:03:38Z</time>
      </trkpt>
      <trkpt lat="47.12498" lon="6.82837">
        <ele>1044.386</ele>
        <time>2018-08-01T09:03:39Z</time>
      </trkpt>
      <trkpt lat="47.12502" lon="6.82829">
        <ele>1044.293</ele>
        <time>2018-08-01T09:03:40Z</time>
      </trkpt>
      <trkpt lat="47.12509" lon="6.82821">
        <ele>1043.948</ele>
        <time>2018-08-01T09:03:41Z</time>
      </trkpt>
      <trkpt lat="47.12515" lon="6.82813">
        <ele>1043.557</ele>
        <time>2018-08-01T09:03:42Z</time>
      </trkpt>
      <trkpt lat="47.12521" lon="6.82806">
        <ele>1043.166</ele>
        <time>2018-08-01T09:03:43Z</time>
      </trkpt>
      <trkpt lat="47.12528" lon="6.82798">
        <ele>1042.729</ele>
        <time>2018-08-01T09:03:44Z</time>
      </trkpt>
      <trkpt lat="47.12535" lon="6.8279">
        <ele>1042.321</ele>
        <time>2018-08-01T09:03:45Z</time>
      </trkpt>
      <trkpt lat="47.1254" lon="6.82781">
        <ele>1041.808</ele>
        <time>2018-08-01T09:03:46Z</time>
      </trkpt>
      <trkpt lat="47.12547" lon="6.82771">
        <ele>1041.438</ele>
        <time>2018-08-01T09:03:47Z</time>
      </trkpt>
      <trkpt lat="47.12553" lon="6.82762">
        <ele>1041.153</ele>
        <time>2018-08-01T09:03:48Z</time>
      </trkpt>
      <trkpt lat="47.12558" lon="6.82753">
        <ele>1040.847</ele>
        <time>2018-08-01T09:03:49Z</time>
      </trkpt>
      <trkpt lat="47.12563" lon="6.82742">
        <ele>1040.059</ele>
        <time>2018-08-01T09:03:50Z</time>
      </trkpt>
      <trkpt lat="47.12568" lon="6.82731">
        <ele>1039.425</ele>
        <time>2018-08-01T09:03:51Z</time>
      </trkpt>
      <trkpt lat="47.12571" lon="6.82718">
        <ele>1038.922</ele>
        <time>2018-08-01T09:03:52Z</time>
      </trkpt>
      <trkpt lat="47.12574" lon="6.82705">
        <ele>1038.377</ele>
        <time>2018-08-01T09:03:53Z</time>
      </trkpt>
      <trkpt lat="47.12577" lon="6.82694">
        <ele>1037.716</ele>
        <time>2018-08-01T09:03:54Z</time>
      </trkpt>
      <trkpt lat="47.1258" lon="6.82681">
        <ele>1037.393</ele>
        <time>2018-08-01T09:03:55Z</time>
      </trkpt>
      <trkpt lat="47.12584" lon="6.82668">
        <ele>1036.965</ele>
        <time>2018-08-01T09:03:56Z</time>
      </trkpt>
      <trkpt lat="47.12587" lon="6.82654">
        <ele>1036.321</ele>
        <time>2018-08-01T09:03:57Z</time>
      </trkpt>
      <trkpt lat="47.12593" lon="6.82643">
        <ele>1035.708</ele>
        <time>2018-08-01T09:03:58Z</time>
      </trkpt>
      <trkpt lat="47.12599" lon="6.82632">
        <ele>1035.191</ele>
        <time>2018-08-01T09:03:59Z</time>
      </trkpt>
      <trkpt lat="47.12606" lon="6.82621">
        <ele>1034.546</ele>
        <time>2018-08-01T09:04:00Z</time>
      </trkpt>
      <trkpt lat="47.12613" lon="6.8261">
        <ele>1033.94</ele>
        <time>2018-08-01T09:04:01Z</time>
      </trkpt>
      <trkpt lat="47.1262" lon="6.82599">
        <ele>1033.442</ele>
        <time>2018-08-01T09:04:02Z</time>
      </trkpt>
      <trkpt lat="47.12626" lon="6.82586">
        <ele>1032.948</ele>
        <time>2018-08-01T09:04:03Z</time>
      </trkpt>
      <trkpt lat="47.12631" lon="6.82571">
        <ele>1032.915</ele>
        <time>2018-08-01T09:04:04Z</time>
      </trkpt>
      <trkpt lat="47.12636" lon="6.82557">
        <ele>1032.58</ele>
        <time>2018-08-01T09:04:05Z</time>
      </trkpt>
      <trkpt lat="47.12641" lon="6.82543">
        <ele>1032.179</ele>
        <time>2018-08-01T09:04:06Z</time>
      </trkpt>
      <trkpt lat="47.12641" lon="6.82534">
        <ele>1031.828</ele>
        <time>2018-08-01T09:04:07Z</time>
      </trkpt>
      <trkpt lat="47.12638" lon="6.82519">
        <ele>1031.489</ele>
        <time>2018-08-01T09:04:08Z</time>
      </trkpt>
      <trkpt lat="47.12637" lon="6.82506">
        <ele>1030.917</ele>
        <time>2018-08-01T09:04:09Z</time>
      </trkpt>
      <trkpt lat="47.12631" lon="6.82492">
        <ele>1030.308</ele>
        <time>2018-08-01T09:04:10Z</time>
      </trkpt>
      <trkpt lat="47.12625" lon="6.82478">
        <ele>1029.754</ele>
        <time>2018-08-01T09:04:11Z</time>
      </trkpt>
      <trkpt lat="47.12617" lon="6.8247">
        <ele>1029.069</ele>
        <time>2018-08-01T09:04:12Z</time>
      </trkpt>
      <trkpt lat="47.12609" lon="6.8246">
        <ele>1028.333</ele>
        <time>2018-08-01T09:04:13Z</time>
      </trkpt>
      <trkpt lat="47.12602" lon="6.82452">
        <ele>1027.835</ele>
        <time>2018-08-01T09:04:14Z</time>
      </trkpt>
      <trkpt lat="47.12596" lon="6.82441">
        <ele>1027.361</ele>
        <time>2018-08-01T09:04:15Z</time>
      </trkpt>
      <trkpt lat="47.12592" lon="6.82432">
        <ele>1026.988</ele>
        <time>2018-08-01T09:04:16Z</time>
      </trkpt>
      <trkpt lat="47.1259" lon="6.82421">
        <ele>1026.483</ele>
        <time>2018-08-01T09:04:17Z</time>
      </trkpt>
      <trkpt lat="47.12591" lon="6.82409">
        <ele>1026.072</ele>
        <time>2018-08-01T09:04:18Z</time>
      </trkpt>
      <trkpt lat="47.126" lon="6.82398">
        <ele>1025.344</ele>
        <time>2018-08-01T09:04:19Z</time>
      </trkpt>
      <trkpt lat="47.12605" lon="6.8239">
        <ele>1024.605</ele>
        <time>2018-08-01T09:04:20Z</time>
      </trkpt>
      <trkpt lat="47.12611" lon="6.82385">
        <ele>1023.915</ele>
        <time>2018-08-01T09:04:21Z</time>
      </trkpt>
      <trkpt lat="47.12624" lon="6.82393">
        <ele>1023.308</ele>
        <time>2018-08-01T09:04:22Z</time>
      </trkpt>
      <trkpt lat="47.12631" lon="6.82399">
        <ele>1022.856</ele>
        <time>2018-08-01T09:04:23Z</time>
      </trkpt>
      <trkpt lat="47.12638" lon="6.82406">
        <ele>1022.481</ele>
        <time>2018-08-01T09:04:24Z</time>
      </trkpt>
      <trkpt lat="47.12646" lon="6.82414">
        <ele>1022.035</ele>
        <time>2018-08-01T09:04:25Z</time>
      </trkpt>
      <trkpt lat="47.1265" lon="6.82424">
        <ele>1021.737</ele>
        <time>2018-08-01T09:04:26Z</time>
      </trkpt>
      <trkpt lat="47.12658" lon="6.82431">
        <ele>1021.433</ele>
        <time>2018-08-01T09:04:27Z</time>
      </trkpt>
      <trkpt lat="47.12664" lon="6.82438">
        <ele>1021.07</ele>
        <time>2018-08-01T09:04:28Z</time>
      </trkpt>
      <trkpt lat="47.12672" lon="6.82443">
        <ele>1020.655</ele>
        <time>2018-08-01T09:04:29Z</time>
      </trkpt>
      <trkpt lat="47.12679" lon="6.82449">
        <ele>1020.274</ele>
        <time>2018-08-01T09:04:30Z</time>
      </trkpt>
      <trkpt lat="47.12687" lon="6.8245">
        <ele>1019.968</ele>
        <time>2018-08-01T09:04:31Z</time>
      </trkpt>
      <trkpt lat="47.12696" lon="6.82452">
        <ele>1019.642</ele>
        <time>2018-08-01T09:04:32Z</time>
      </trkpt>
      <trkpt lat="47.12704" lon="6.82454">
        <ele>1019.626</ele>
        <time>2018-08-01T09:04:33Z</time>
      </trkpt>
      <trkpt lat="47.12715" lon="6.82455">
        <ele>1019.308</ele>
        <time>2018-08-01T09:04:34Z</time>
      </trkpt>
      <trkpt lat="47.12727" lon="6.82455">
        <ele>1018.918</ele>
        <time>2018-08-01T09:04:35Z</time>
      </trkpt>
      <trkpt lat="47.12738" lon="6.8246">
        <ele>1018.513</ele>
        <time>2018-08-01T09:04:36Z</time>
      </trkpt>
      <trkpt lat="47.1275" lon="6.82464">
        <ele>1018.067</ele>
        <time>2018-08-01T09:04:37Z</time>
      </trkpt>
      <trkpt lat="47.12756" lon="6.82473">
        <ele>1017.339</ele>
        <time>2018-08-01T09:04:38Z</time>
      </trkpt>
      <trkpt lat="47.12765" lon="6.82484">
        <ele>1016.615</ele>
        <time>2018-08-01T09:04:39Z</time>
      </trkpt>
      <trkpt lat="47.12774" lon="6.82494">
        <ele>1016.052</ele>
        <time>2018-08-01T09:04:40Z</time>
      </trkpt>
      <trkpt lat="47.12781" lon="6.82502">
        <ele>1015.447</ele>
        <time>2018-08-01T09:04:41Z</time>
      </trkpt>
      <trkpt lat="47.12789" lon="6.82512">
        <ele>1014.886</ele>
        <time>2018-08-01T09:04:42Z</time>
      </trkpt>
      <trkpt lat="47.12798" lon="6.82521">
        <ele>1014.264</ele>
        <time>2018-08-01T09:04:43Z</time>
      </trkpt>
      <trkpt lat="47.12806" lon="6.82531">
        <ele>1013.606</ele>
        <time>2018-08-01T09:04:44Z</time>
      </trkpt>
      <trkpt lat="47.12813" lon="6.82542">
        <ele>1012.916</ele>
        <time>2018-08-01T09:04:45Z</time>
      </trkpt>
      <trkpt lat="47.12819" lon="6.82555">
        <ele>1012.208</ele>
        <time>2018-08-01T09:04:46Z</time>
      </trkpt>
      <trkpt lat="47.12824" lon="6.82567">
        <ele>1011.538</ele>
        <time>2018-08-01T09:04:47Z</time>
      </trkpt>
      <trkpt lat="47.1283" lon="6.82581">
        <ele>1010.853</ele>
        <time>2018-08-01T09:04:48Z</time>
      </trkpt>
      <trkpt lat="47.12836" lon="6.82593">
        <ele>1010.227</ele>
        <time>2018-08-01T09:04:49Z</time>
      </trkpt>
      <trkpt lat="47.12843" lon="6.82602">
        <ele>1009.659</ele>
        <time>2018-08-01T09:04:50Z</time>
      </trkpt>
      <trkpt lat="47.12853" lon="6.82609">
        <ele>1008.985</ele>
        <time>2018-08-01T09:04:51Z</time>
      </trkpt>
      <trkpt lat="47.12864" lon="6.82615">
        <ele>1008.382</ele>
        <time>2018-08-01T09:04:52Z</time>
      </trkpt>
      <trkpt lat="47.12875" lon="6.82621">
        <ele>1007.777</ele>
        <time>2018-08-01T09:04:53Z</time>
      </trkpt>
      <trkpt lat="47.12884" lon="6.82625">
        <ele>1007.166</ele>
        <time>2018-08-01T09:04:54Z</time>
      </trkpt>
      <trkpt lat="47.12894" lon="6.82623">
        <ele>1006.665</ele>
        <time>2018-08-01T09:04:55Z</time>
      </trkpt>
      <trkpt lat="47.12905" lon="6.82625">
        <ele>1006.068</ele>
        <time>2018-08-01T09:04:56Z</time>
      </trkpt>
      <trkpt lat="47.12916" lon="6.82626">
        <ele>1005.414</ele>
        <time>2018-08-01T09:04:57Z</time>
      </trkpt>
      <trkpt lat="47.1292" lon="6.82623">
        <ele>1004.808</ele>
        <time>2018-08-01T09:04:58Z</time>
      </trkpt>
      <trkpt lat="47.12933" lon="6.82619">
        <ele>1004.188</ele>
        <time>2018-08-01T09:04:59Z</time>
      </trkpt>
      <trkpt lat="47.12943" lon="6.82617">
        <ele>1004.153</ele>
        <time>2018-08-01T09:05:00Z</time>
      </trkpt>
      <trkpt lat="47.12954" lon="6.82612">
        <ele>1003.397</ele>
        <time>2018-08-01T09:05:01Z</time>
      </trkpt>
      <trkpt lat="47.12966" lon="6.8261">
        <ele>1002.659</ele>
        <time>2018-08-01T09:05:02Z</time>
      </trkpt>
      <trkpt lat="47.12978" lon="6.82608">
        <ele>1001.845</ele>
        <time>2018-08-01T09:05:03Z</time>
      </trkpt>
      <trkpt lat="47.12989" lon="6.82606">
        <ele>1001.072</ele>
        <time>2018-08-01T09:05:04Z</time>
      </trkpt>
      <trkpt lat="47.12997" lon="6.826">
        <ele>1000.267</ele>
        <time>2018-08-01T09:05:05Z</time>
      </trkpt>
      <trkpt lat="47.13006" lon="6.82593">
        <ele>999.476</ele>
        <time>2018-08-01T09:05:06Z</time>
      </trkpt>
      <trkpt lat="47.13014" lon="6.82578">
        <ele>998.774</ele>
        <time>2018-08-01T09:05:07Z</time>
      </trkpt>
      <trkpt lat="47.13022" lon="6.82567">
        <ele>998.156</ele>
        <time>2018-08-01T09:05:08Z</time>
      </trkpt>
      <trkpt lat="47.13022" lon="6.82552">
        <ele>997.321</ele>
        <time>2018-08-01T09:05:09Z</time>
      </trkpt>
      <trkpt lat="47.1302" lon="6.82536">
        <ele>996.708</ele>
        <time>2018-08-01T09:05:10Z</time>
      </trkpt>
      <trkpt lat="47.13018" lon="6.82523">
        <ele>996.229</ele>
        <time>2018-08-01T09:05:11Z</time>
      </trkpt>
      <trkpt lat="47.13015" lon="6.82509">
        <ele>995.654</ele>
        <time>2018-08-01T09:05:12Z</time>
      </trkpt>
      <trkpt lat="47.13011" lon="6.82494">
        <ele>994.998</ele>
        <time>2018-08-01T09:05:13Z</time>
      </trkpt>
      <trkpt lat="47.13008" lon="6.82481">
        <ele>994.33</ele>
        <time>2018-08-01T09:05:14Z</time>
      </trkpt>
      <trkpt lat="47.13006" lon="6.82468">
        <ele>993.666</ele>
        <time>2018-08-01T09:05:15Z</time>
      </trkpt>
      <trkpt lat="47.13006" lon="6.82457">
        <ele>992.853</ele>
        <time>2018-08-01T09:05:16Z</time>
      </trkpt>
      <trkpt lat="47.1301" lon="6.82448">
        <ele>991.978</ele>
        <time>2018-08-01T09:05:17Z</time>
      </trkpt>
      <trkpt lat="47.13014" lon="6.82436">
        <ele>991.047</ele>
        <time>2018-08-01T09:05:18Z</time>
      </trkpt>
      <trkpt lat="47.13018" lon="6.82426">
        <ele>990.363</ele>
        <time>2018-08-01T09:05:19Z</time>
      </trkpt>
      <trkpt lat="47.13026" lon="6.82426">
        <ele>989.744</ele>
        <time>2018-08-01T09:05:20Z</time>
      </trkpt>
      <trkpt lat="47.13035" lon="6.82427">
        <ele>989.218</ele>
        <time>2018-08-01T09:05:21Z</time>
      </trkpt>
      <trkpt lat="47.13042" lon="6.82424">
        <ele>988.808</ele>
        <time>2018-08-01T09:05:22Z</time>
      </trkpt>
      <trkpt lat="47.13052" lon="6.82428">
        <ele>988.678</ele>
        <time>2018-08-01T09:05:23Z</time>
      </trkpt>
      <trkpt lat="47.13061" lon="6.82429">
        <ele>988.263</ele>
        <time>2018-08-01T09:05:24Z</time>
      </trkpt>
      <trkpt lat="47.13068" lon="6.82432">
        <ele>987.837</ele>
        <time>2018-08-01T09:05:25Z</time>
      </trkpt>
      <trkpt lat="47.13078" lon="6.82436">
        <ele>987.329</ele>
        <time>2018-08-01T09:05:26Z</time>
      </trkpt>
      <trkpt lat="47.13086" lon="6.82445">
        <ele>986.845</ele>
        <time>2018-08-01T09:05:27Z</time>
      </trkpt>
      <trkpt lat="47.13091" lon="6.82469">
        <ele>986.852</ele>
        <time>2018-08-01T09:05:28Z</time>
      </trkpt>
      <trkpt lat="47.13094" lon="6.82477">
        <ele>984.977</ele>
        <time>2018-08-01T09:05:29Z</time>
      </trkpt>
      <trkpt lat="47.13102" lon="6.82486">
        <ele>984.976</ele>
        <time>2018-08-01T09:05:30Z</time>
      </trkpt>
      <trkpt lat="47.13107" lon="6.82498">
        <ele>984.915</ele>
        <time>2018-08-01T09:05:31Z</time>
      </trkpt>
      <trkpt lat="47.13116" lon="6.82511">
        <ele>984.265</ele>
        <time>2018-08-01T09:05:32Z</time>
      </trkpt>
      <trkpt lat="47.13119" lon="6.82527">
        <ele>983.511</ele>
        <time>2018-08-01T09:05:33Z</time>
      </trkpt>
      <trkpt lat="47.13125" lon="6.82541">
        <ele>982.908</ele>
        <time>2018-08-01T09:05:34Z</time>
      </trkpt>
      <trkpt lat="47.13132" lon="6.82554">
        <ele>982.363</ele>
        <time>2018-08-01T09:05:35Z</time>
      </trkpt>
      <trkpt lat="47.13137" lon="6.82567">
        <ele>981.848</ele>
        <time>2018-08-01T09:05:36Z</time>
      </trkpt>
      <trkpt lat="47.13143" lon="6.82581">
        <ele>981.382</ele>
        <time>2018-08-01T09:05:37Z</time>
      </trkpt>
      <trkpt lat="47.13149" lon="6.82592">
        <ele>980.834</ele>
        <time>2018-08-01T09:05:38Z</time>
      </trkpt>
      <trkpt lat="47.13155" lon="6.82605">
        <ele>980.22</ele>
        <time>2018-08-01T09:05:39Z</time>
      </trkpt>
      <trkpt lat="47.13159" lon="6.82614">
        <ele>979.657</ele>
        <time>2018-08-01T09:05:40Z</time>
      </trkpt>
      <trkpt lat="47.13163" lon="6.82626">
        <ele>979.032</ele>
        <time>2018-08-01T09:05:41Z</time>
      </trkpt>
      <trkpt lat="47.13171" lon="6.82629">
        <ele>978.361</ele>
        <time>2018-08-01T09:05:42Z</time>
      </trkpt>
      <trkpt lat="47.13181" lon="6.82621">
        <ele>977.686</ele>
        <time>2018-08-01T09:05:43Z</time>
      </trkpt>
      <trkpt lat="47.13186" lon="6.82614">
        <ele>976.96</ele>
        <time>2018-08-01T09:05:44Z</time>
      </trkpt>
      <trkpt lat="47.13192" lon="6.82601">
        <ele>976.126</ele>
        <time>2018-08-01T09:05:45Z</time>
      </trkpt>
      <trkpt lat="47.13198" lon="6.82592">
        <ele>975.508</ele>
        <time>2018-08-01T09:05:46Z</time>
      </trkpt>
      <trkpt lat="47.13203" lon="6.82578">
        <ele>975.09</ele>
        <time>2018-08-01T09:05:47Z</time>
      </trkpt>
      <trkpt lat="47.13209" lon="6.82567">
        <ele>974.485</ele>
        <time>2018-08-01T09:05:48Z</time>
      </trkpt>
      <trkpt lat="47.13216" lon="6.82556">
        <ele>973.959</ele>
        <time>2018-08-01T09:05:49Z</time>
      </trkpt>
      <trkpt lat="47.13226" lon="6.82549">
        <ele>973.481</ele>
        <time>2018-08-01T09:05:50Z</time>
      </trkpt>
      <trkpt lat="47.13234" lon="6.8254">
        <ele>972.937</ele>
        <time>2018-08-01T09:05:51Z</time>
      </trkpt>
      <trkpt lat="47.13244" lon="6.82535">
        <ele>972.334</ele>
        <time>2018-08-01T09:05:52Z</time>
      </trkpt>
      <trkpt lat="47.13254" lon="6.82535">
        <ele>971.739</ele>
        <time>2018-08-01T09:05:53Z</time>
      </trkpt>
      <trkpt lat="47.13264" lon="6.82532">
        <ele>971.128</ele>
        <time>2018-08-01T09:05:54Z</time>
      </trkpt>
      <trkpt lat="47.13275" lon="6.82532">
        <ele>970.423</ele>
        <time>2018-08-01T09:05:55Z</time>
      </trkpt>
      <trkpt lat="47.13282" lon="6.82525">
        <ele>970.483</ele>
        <time>2018-08-01T09:05:56Z</time>
      </trkpt>
      <trkpt lat="47.1329" lon="6.8252">
        <ele>969.711</ele>
        <time>2018-08-01T09:05:57Z</time>
      </trkpt>
      <trkpt lat="47.13301" lon="6.82517">
        <ele>969.108</ele>
        <time>2018-08-01T09:05:58Z</time>
      </trkpt>
      <trkpt lat="47.13312" lon="6.82514">
        <ele>968.584</ele>
        <time>2018-08-01T09:05:59Z</time>
      </trkpt>
      <trkpt lat="47.13322" lon="6.82509">
        <ele>967.989</ele>
        <time>2018-08-01T09:06:00Z</time>
      </trkpt>
      <trkpt lat="47.13331" lon="6.82501">
        <ele>967.273</ele>
        <time>2018-08-01T09:06:01Z</time>
      </trkpt>
      <trkpt lat="47.13343" lon="6.82494">
        <ele>966.785</ele>
        <time>2018-08-01T09:06:02Z</time>
      </trkpt>
      <trkpt lat="47.13352" lon="6.82484">
        <ele>965.921</ele>
        <time>2018-08-01T09:06:03Z</time>
      </trkpt>
      <trkpt lat="47.13363" lon="6.82477">
        <ele>965.138</ele>
        <time>2018-08-01T09:06:04Z</time>
      </trkpt>
      <trkpt lat="47.13372" lon="6.82473">
        <ele>964.483</ele>
        <time>2018-08-01T09:06:05Z</time>
      </trkpt>
      <trkpt lat="47.13382" lon="6.82469">
        <ele>963.882</ele>
        <time>2018-08-01T09:06:06Z</time>
      </trkpt>
      <trkpt lat="47.13393" lon="6.82464">
        <ele>963.047</ele>
        <time>2018-08-01T09:06:07Z</time>
      </trkpt>
      <trkpt lat="47.13403" lon="6.82454">
        <ele>962.329</ele>
        <time>2018-08-01T09:06:08Z</time>
      </trkpt>
      <trkpt lat="47.13412" lon="6.82444">
        <ele>961.721</ele>
        <time>2018-08-01T09:06:09Z</time>
      </trkpt>
      <trkpt lat="47.13422" lon="6.82435">
        <ele>961.008</ele>
        <time>2018-08-01T09:06:10Z</time>
      </trkpt>
      <trkpt lat="47.13431" lon="6.82424">
        <ele>960.396</ele>
        <time>2018-08-01T09:06:11Z</time>
      </trkpt>
      <trkpt lat="47.13441" lon="6.82413">
        <ele>959.781</ele>
        <time>2018-08-01T09:06:12Z</time>
      </trkpt>
      <trkpt lat="47.1345" lon="6.82401">
        <ele>959.175</ele>
        <time>2018-08-01T09:06:13Z</time>
      </trkpt>
      <trkpt lat="47.13457" lon="6.8239">
        <ele>958.477</ele>
        <time>2018-08-01T09:06:14Z</time>
      </trkpt>
      <trkpt lat="47.13464" lon="6.82375">
        <ele>957.743</ele>
        <time>2018-08-01T09:06:15Z</time>
      </trkpt>
      <trkpt lat="47.13471" lon="6.82359">
        <ele>957.07</ele>
        <time>2018-08-01T09:06:16Z</time>
      </trkpt>
      <trkpt lat="47.13479" lon="6.82344">
        <ele>956.225</ele>
        <time>2018-08-01T09:06:17Z</time>
      </trkpt>
      <trkpt lat="47.13488" lon="6.82331">
        <ele>955.474</ele>
        <time>2018-08-01T09:06:18Z</time>
      </trkpt>
      <trkpt lat="47.13497" lon="6.82322">
        <ele>954.565</ele>
        <time>2018-08-01T09:06:19Z</time>
      </trkpt>
      <trkpt lat="47.13506" lon="6.82311">
        <ele>953.668</ele>
        <time>2018-08-01T09:06:20Z</time>
      </trkpt>
      <trkpt lat="47.13516" lon="6.82306">
        <ele>952.714</ele>
        <time>2018-08-01T09:06:21Z</time>
      </trkpt>
      <trkpt lat="47.13526" lon="6.82302">
        <ele>951.708</ele>
        <time>2018-08-01T09:06:22Z</time>
      </trkpt>
      <trkpt lat="47.13537" lon="6.82301">
        <ele>951.758</ele>
        <time>2018-08-01T09:06:23Z</time>
      </trkpt>
      <trkpt lat="47.13548" lon="6.82317">
        <ele>950.653</ele>
        <time>2018-08-01T09:06:24Z</time>
      </trkpt>
      <trkpt lat="47.13558" lon="6.82332">
        <ele>948.977</ele>
        <time>2018-08-01T09:06:25Z</time>
      </trkpt>
      <trkpt lat="47.13569" lon="6.82346">
        <ele>948.959</ele>
        <time>2018-08-01T09:06:26Z</time>
      </trkpt>
      <trkpt lat="47.13577" lon="6.82358">
        <ele>948.145</ele>
        <time>2018-08-01T09:06:27Z</time>
      </trkpt>
      <trkpt lat="47.13585" lon="6.82369">
        <ele>946.912</ele>
        <time>2018-08-01T09:06:28Z</time>
      </trkpt>
      <trkpt lat="47.13594" lon="6.8238">
        <ele>946.947</ele>
        <time>2018-08-01T09:06:29Z</time>
      </trkpt>
      <trkpt lat="47.13603" lon="6.82391">
        <ele>946.496</ele>
        <time>2018-08-01T09:06:30Z</time>
      </trkpt>
      <trkpt lat="47.13611" lon="6.82403">
        <ele>945.735</ele>
        <time>2018-08-01T09:06:31Z</time>
      </trkpt>
      <trkpt lat="47.13619" lon="6.82414">
        <ele>944.986</ele>
        <time>2018-08-01T09:06:32Z</time>
      </trkpt>
      <trkpt lat="47.13628" lon="6.82426">
        <ele>944.114</ele>
        <time>2018-08-01T09:06:33Z</time>
      </trkpt>
      <trkpt lat="47.13636" lon="6.82437">
        <ele>943.408</ele>
        <time>2018-08-01T09:06:34Z</time>
      </trkpt>
      <trkpt lat="47.13643" lon="6.82448">
        <ele>942.685</ele>
        <time>2018-08-01T09:06:35Z</time>
      </trkpt>
      <trkpt lat="47.1365" lon="6.82461">
        <ele>941.83</ele>
        <time>2018-08-01T09:06:36Z</time>
      </trkpt>
      <trkpt lat="47.13655" lon="6.82476">
        <ele>941.074</ele>
        <time>2018-08-01T09:06:37Z</time>
      </trkpt>
      <trkpt lat="47.13658" lon="6.82491">
        <ele>940.166</ele>
        <time>2018-08-01T09:06:38Z</time>
      </trkpt>
      <trkpt lat="47.1366" lon="6.82508">
        <ele>939.342</ele>
        <time>2018-08-01T09:06:39Z</time>
      </trkpt>
      <trkpt lat="47.13656" lon="6.82526">
        <ele>938.489</ele>
        <time>2018-08-01T09:06:40Z</time>
      </trkpt>
      <trkpt lat="47.13648" lon="6.82537">
        <ele>937.544</ele>
        <time>2018-08-01T09:06:41Z</time>
      </trkpt>
      <trkpt lat="47.13642" lon="6.82552">
        <ele>936.843</ele>
        <time>2018-08-01T09:06:42Z</time>
      </trkpt>
      <trkpt lat="47.13639" lon="6.82569">
        <ele>936.285</ele>
        <time>2018-08-01T09:06:43Z</time>
      </trkpt>
      <trkpt lat="47.13635" lon="6.82584">
        <ele>935.689</ele>
        <time>2018-08-01T09:06:44Z</time>
      </trkpt>
      <trkpt lat="47.13626" lon="6.82596">
        <ele>935.017</ele>
        <time>2018-08-01T09:06:45Z</time>
      </trkpt>
      <trkpt lat="47.13622" lon="6.82613">
        <ele>934.408</ele>
        <time>2018-08-01T09:06:46Z</time>
      </trkpt>
      <trkpt lat="47.13619" lon="6.82629">
        <ele>933.79</ele>
        <time>2018-08-01T09:06:47Z</time>
      </trkpt>
      <trkpt lat="47.13615" lon="6.82644">
        <ele>933.075</ele>
        <time>2018-08-01T09:06:48Z</time>
      </trkpt>
      <trkpt lat="47.13618" lon="6.8266">
        <ele>932.389</ele>
        <time>2018-08-01T09:06:49Z</time>
      </trkpt>
      <trkpt lat="47.13618" lon="6.82676">
        <ele>931.581</ele>
        <time>2018-08-01T09:06:50Z</time>
      </trkpt>
      <trkpt lat="47.13625" lon="6.82693">
        <ele>930.827</ele>
        <time>2018-08-01T09:06:51Z</time>
      </trkpt>
      <trkpt lat="47.13626" lon="6.8271">
        <ele>930.834</ele>
        <time>2018-08-01T09:06:52Z</time>
      </trkpt>
      <trkpt lat="47.13628" lon="6.82728">
        <ele>930.019</ele>
        <time>2018-08-01T09:06:53Z</time>
      </trkpt>
      <trkpt lat="47.13633" lon="6.82743">
        <ele>929.468</ele>
        <time>2018-08-01T09:06:54Z</time>
      </trkpt>
      <trkpt lat="47.13638" lon="6.8276">
        <ele>928.725</ele>
        <time>2018-08-01T09:06:55Z</time>
      </trkpt>
      <trkpt lat="47.1364" lon="6.82775">
        <ele>928.026</ele>
        <time>2018-08-01T09:06:56Z</time>
      </trkpt>
      <trkpt lat="47.1365" lon="6.8279">
        <ele>927.308</ele>
        <time>2018-08-01T09:06:57Z</time>
      </trkpt>
      <trkpt lat="47.13655" lon="6.82807">
        <ele>926.608</ele>
        <time>2018-08-01T09:06:58Z</time>
      </trkpt>
      <trkpt lat="47.13661" lon="6.82823">
        <ele>925.864</ele>
        <time>2018-08-01T09:06:59Z</time>
      </trkpt>
      <trkpt lat="47.13662" lon="6.8284">
        <ele>925.029</ele>
        <time>2018-08-01T09:07:00Z</time>
      </trkpt>
      <trkpt lat="47.13668" lon="6.82855">
        <ele>924.283</ele>
        <time>2018-08-01T09:07:01Z</time>
      </trkpt>
      <trkpt lat="47.13674" lon="6.82871">
        <ele>923.455</ele>
        <time>2018-08-01T09:07:02Z</time>
      </trkpt>
      <trkpt lat="47.13677" lon="6.82886">
        <ele>922.731</ele>
        <time>2018-08-01T09:07:03Z</time>
      </trkpt>
      <trkpt lat="47.13682" lon="6.82902">
        <ele>921.938</ele>
        <time>2018-08-01T09:07:04Z</time>
      </trkpt>
      <trkpt lat="47.13688" lon="6.82918">
        <ele>921.113</ele>
        <time>2018-08-01T09:07:05Z</time>
      </trkpt>
      <trkpt lat="47.13701" lon="6.82922">
        <ele>920.392</ele>
        <time>2018-08-01T09:07:06Z</time>
      </trkpt>
      <trkpt lat="47.13712" lon="6.8293">
        <ele>919.464</ele>
        <time>2018-08-01T09:07:07Z</time>
      </trkpt>
      <trkpt lat="47.13722" lon="6.82939">
        <ele>918.506</ele>
        <time>2018-08-01T09:07:08Z</time>
      </trkpt>
      <trkpt lat="47.13735" lon="6.82941">
        <ele>917.616</ele>
        <time>2018-08-01T09:07:09Z</time>
      </trkpt>
      <trkpt lat="47.13746" lon="6.82944">
        <ele>916.708</ele>
        <time>2018-08-01T09:07:10Z</time>
      </trkpt>
      <trkpt lat="47.13758" lon="6.8295">
        <ele>915.938</ele>
        <time>2018-08-01T09:07:11Z</time>
      </trkpt>
      <trkpt lat="47.1377" lon="6.82955">
        <ele>915.123</ele>
        <time>2018-08-01T09:07:12Z</time>
      </trkpt>
      <trkpt lat="47.13783" lon="6.82959">
        <ele>914.367</ele>
        <time>2018-08-01T09:07:13Z</time>
      </trkpt>
      <trkpt lat="47.13795" lon="6.82965">
        <ele>913.549</ele>
        <time>2018-08-01T09:07:14Z</time>
      </trkpt>
      <trkpt lat="47.13808" lon="6.82967">
        <ele>912.755</ele>
        <time>2018-08-01T09:07:15Z</time>
      </trkpt>
      <trkpt lat="47.13819" lon="6.82974">
        <ele>911.872</ele>
        <time>2018-08-01T09:07:16Z</time>
      </trkpt>
      <trkpt lat="47.1383" lon="6.82979">
        <ele>911.017</ele>
        <time>2018-08-01T09:07:17Z</time>
      </trkpt>
      <trkpt lat="47.13843" lon="6.82984">
        <ele>910.136</ele>
        <time>2018-08-01T09:07:18Z</time>
      </trkpt>
      <trkpt lat="47.13855" lon="6.82992">
        <ele>909.393</ele>
        <time>2018-08-01T09:07:19Z</time>
      </trkpt>
      <trkpt lat="47.13869" lon="6.82997">
        <ele>909.365</ele>
        <time>2018-08-01T09:07:20Z</time>
      </trkpt>
      <trkpt lat="47.13879" lon="6.83004">
        <ele>908.621</ele>
        <time>2018-08-01T09:07:21Z</time>
      </trkpt>
      <trkpt lat="47.13891" lon="6.83011">
        <ele>907.708</ele>
        <time>2018-08-01T09:07:22Z</time>
      </trkpt>
      <trkpt lat="47.13902" lon="6.83016">
        <ele>906.841</ele>
        <time>2018-08-01T09:07:23Z</time>
      </trkpt>
      <trkpt lat="47.13913" lon="6.83021">
        <ele>905.936</ele>
        <time>2018-08-01T09:07:24Z</time>
      </trkpt>
      <trkpt lat="47.13921" lon="6.83024">
        <ele>905.02</ele>
        <time>2018-08-01T09:07:25Z</time>
      </trkpt>
      <trkpt lat="47.13934" lon="6.83028">
        <ele>904.132</ele>
        <time>2018-08-01T09:07:26Z</time>
      </trkpt>
      <trkpt lat="47.13946" lon="6.8303">
        <ele>903.388</ele>
        <time>2018-08-01T09:07:27Z</time>
      </trkpt>
      <trkpt lat="47.13959" lon="6.83034">
        <ele>902.585</ele>
        <time>2018-08-01T09:07:28Z</time>
      </trkpt>
      <trkpt lat="47.13972" lon="6.83042">
        <ele>901.76</ele>
        <time>2018-08-01T09:07:29Z</time>
      </trkpt>
      <trkpt lat="47.13984" lon="6.83045">
        <ele>900.959</ele>
        <time>2018-08-01T09:07:30Z</time>
      </trkpt>
      <trkpt lat="47.13995" lon="6.83044">
        <ele>900.153</ele>
        <time>2018-08-01T09:07:31Z</time>
      </trkpt>
      <trkpt lat="47.14008" lon="6.83045">
        <ele>899.404</ele>
        <time>2018-08-01T09:07:32Z</time>
      </trkpt>
      <trkpt lat="47.14021" lon="6.8304">
        <ele>898.714</ele>
        <time>2018-08-01T09:07:33Z</time>
      </trkpt>
      <trkpt lat="47.14032" lon="6.83037">
        <ele>898.008</ele>
        <time>2018-08-01T09:07:34Z</time>
      </trkpt>
      <trkpt lat="47.14044" lon="6.83034">
        <ele>897.237</ele>
        <time>2018-08-01T09:07:35Z</time>
      </trkpt>
      <trkpt lat="47.14056" lon="6.83029">
        <ele>896.572</ele>
        <time>2018-08-01T09:07:36Z</time>
      </trkpt>
      <trkpt lat="47.14068" lon="6.83026">
        <ele>895.736</ele>
        <time>2018-08-01T09:07:37Z</time>
      </trkpt>
      <trkpt lat="47.14081" lon="6.83026">
        <ele>894.978</ele>
        <time>2018-08-01T09:07:38Z</time>
      </trkpt>
      <trkpt lat="47.14094" lon="6.83026">
        <ele>894.124</ele>
        <time>2018-08-01T09:07:39Z</time>
      </trkpt>
      <trkpt lat="47.14106" lon="6.83023">
        <ele>893.261</ele>
        <time>2018-08-01T09:07:40Z</time>
      </trkpt>
      <trkpt lat="47.14118" lon="6.83025">
        <ele>892.236</ele>
        <time>2018-08-01T09:07:41Z</time>
      </trkpt>
      <trkpt lat="47.1413" lon="6.83028">
        <ele>891.385</ele>
        <time>2018-08-01T09:07:42Z</time>
      </trkpt>
      <trkpt lat="47.14142" lon="6.8303">
        <ele>890.477</ele>
        <time>2018-08-01T09:07:43Z</time>
      </trkpt>
      <trkpt lat="47.14154" lon="6.83036">
        <ele>889.561</ele>
        <time>2018-08-01T09:07:44Z</time>
      </trkpt>
      <trkpt lat="47.14167" lon="6.8304">
        <ele>888.727</ele>
        <time>2018-08-01T09:07:45Z</time>
      </trkpt>
      <trkpt lat="47.14179" lon="6.83055">
        <ele>888.008</ele>
        <time>2018-08-01T09:07:46Z</time>
      </trkpt>
      <trkpt lat="47.1419" lon="6.83065">
        <ele>887.269</ele>
        <time>2018-08-01T09:07:47Z</time>
      </trkpt>
      <trkpt lat="47.14201" lon="6.83075">
        <ele>887.254</ele>
        <time>2018-08-01T09:07:48Z</time>
      </trkpt>
      <trkpt lat="47.14211" lon="6.83085">
        <ele>886.468</ele>
        <time>2018-08-01T09:07:49Z</time>
      </trkpt>
      <trkpt lat="47.14222" lon="6.83094">
        <ele>885.58</ele>
        <time>2018-08-01T09:07:50Z</time>
      </trkpt>
      <trkpt lat="47.14232" lon="6.83102">
        <ele>884.636</ele>
        <time>2018-08-01T09:07:51Z</time>
      </trkpt>
      <trkpt lat="47.14242" lon="6.8311">
        <ele>883.783</ele>
        <time>2018-08-01T09:07:52Z</time>
      </trkpt>
      <trkpt lat="47.14251" lon="6.83118">
        <ele>882.988</ele>
        <time>2018-08-01T09:07:53Z</time>
      </trkpt>
      <trkpt lat="47.1426" lon="6.83127">
        <ele>882.187</ele>
        <time>2018-08-01T09:07:54Z</time>
      </trkpt>
      <trkpt lat="47.1427" lon="6.83139">
        <ele>881.254</ele>
        <time>2018-08-01T09:07:55Z</time>
      </trkpt>
      <trkpt lat="47.14275" lon="6.83153">
        <ele>880.356</ele>
        <time>2018-08-01T09:07:56Z</time>
      </trkpt>
      <trkpt lat="47.14276" lon="6.8317">
        <ele>879.311</ele>
        <time>2018-08-01T09:07:57Z</time>
      </trkpt>
      <trkpt lat="47.14276" lon="6.83187">
        <ele>878.308</ele>
        <time>2018-08-01T09:07:58Z</time>
      </trkpt>
      <trkpt lat="47.14278" lon="6.83204">
        <ele>877.337</ele>
        <time>2018-08-01T09:07:59Z</time>
      </trkpt>
      <trkpt lat="47.14279" lon="6.83222">
        <ele>876.372</ele>
        <time>2018-08-01T09:08:00Z</time>
      </trkpt>
      <trkpt lat="47.14281" lon="6.83238">
        <ele>875.336</ele>
        <time>2018-08-01T09:08:01Z</time>
      </trkpt>
      <trkpt lat="47.14283" lon="6.83257">
        <ele>874.478</ele>
        <time>2018-08-01T09:08:02Z</time>
      </trkpt>
      <trkpt lat="47.14284" lon="6.83273">
        <ele>873.634</ele>
        <time>2018-08-01T09:08:03Z</time>
      </trkpt>
      <trkpt lat="47.14285" lon="6.83289">
        <ele>872.991</ele>
        <time>2018-08-01T09:08:04Z</time>
      </trkpt>
      <trkpt lat="47.14289" lon="6.83306">
        <ele>872.226</ele>
        <time>2018-08-01T09:08:05Z</time>
      </trkpt>
      <trkpt lat="47.14293" lon="6.83323">
        <ele>871.655</ele>
        <time>2018-08-01T09:08:06Z</time>
      </trkpt>
      <trkpt lat="47.14295" lon="6.83339">
        <ele>871.064</ele>
        <time>2018-08-01T09:08:07Z</time>
      </trkpt>
      <trkpt lat="47.14299" lon="6.83354">
        <ele>870.306</ele>
        <time>2018-08-01T09:08:08Z</time>
      </trkpt>
      <trkpt lat="47.14305" lon="6.83368">
        <ele>869.616</ele>
        <time>2018-08-01T09:08:09Z</time>
      </trkpt>
      <trkpt lat="47.14312" lon="6.8338">
        <ele>868.908</ele>
        <time>2018-08-01T09:08:10Z</time>
      </trkpt>
      <trkpt lat="47.14321" lon="6.83394">
        <ele>868.238</ele>
        <time>2018-08-01T09:08:11Z</time>
      </trkpt>
      <trkpt lat="47.1433" lon="6.83405">
        <ele>867.543</ele>
        <time>2018-08-01T09:08:12Z</time>
      </trkpt>
      <trkpt lat="47.1434" lon="6.83415">
        <ele>866.747</ele>
        <time>2018-08-01T09:08:13Z</time>
      </trkpt>
      <trkpt lat="47.1435" lon="6.83426">
        <ele>866.079</ele>
        <time>2018-08-01T09:08:14Z</time>
      </trkpt>
      <trkpt lat="47.14359" lon="6.83438">
        <ele>865.355</ele>
        <time>2018-08-01T09:08:15Z</time>
      </trkpt>
      <trkpt lat="47.14369" lon="6.8345">
        <ele>864.552</ele>
        <time>2018-08-01T09:08:16Z</time>
      </trkpt>
      <trkpt lat="47.14378" lon="6.83459">
        <ele>864.597</ele>
        <time>2018-08-01T09:08:17Z</time>
      </trkpt>
      <trkpt lat="47.14387" lon="6.83471">
        <ele>863.856</ele>
        <time>2018-08-01T09:08:18Z</time>
      </trkpt>
      <trkpt lat="47.14395" lon="6.83483">
        <ele>863.137</ele>
        <time>2018-08-01T09:08:19Z</time>
      </trkpt>
      <trkpt lat="47.14405" lon="6.83496">
        <ele>862.349</ele>
        <time>2018-08-01T09:08:20Z</time>
      </trkpt>
      <trkpt lat="47.14414" lon="6.83508">
        <ele>861.413</ele>
        <time>2018-08-01T09:08:21Z</time>
      </trkpt>
      <trkpt lat="47.14422" lon="6.83522">
        <ele>860.608</ele>
        <time>2018-08-01T09:08:22Z</time>
      </trkpt>
      <trkpt lat="47.1443" lon="6.83537">
        <ele>859.895</ele>
        <time>2018-08-01T09:08:23Z</time>
      </trkpt>
      <trkpt lat="47.14437" lon="6.83552">
        <ele>858.95</ele>
        <time>2018-08-01T09:08:24Z</time>
      </trkpt>
      <trkpt lat="47.14444" lon="6.83568">
        <ele>858.044</ele>
        <time>2018-08-01T09:08:25Z</time>
      </trkpt>
      <trkpt lat="47.14449" lon="6.83583">
        <ele>857.226</ele>
        <time>2018-08-01T09:08:26Z</time>
      </trkpt>
      <trkpt lat="47.1445" lon="6.83601">
        <ele>856.452</ele>
        <time>2018-08-01T09:08:27Z</time>
      </trkpt>
      <trkpt lat="47.14448" lon="6.83618">
        <ele>855.559</ele>
        <time>2018-08-01T09:08:28Z</time>
      </trkpt>
      <trkpt lat="47.14447" lon="6.83636">
        <ele>854.734</ele>
        <time>2018-08-01T09:08:29Z</time>
      </trkpt>
      <trkpt lat="47.14442" lon="6.83653">
        <ele>853.833</ele>
        <time>2018-08-01T09:08:30Z</time>
      </trkpt>
      <trkpt lat="47.14435" lon="6.83669">
        <ele>852.815</ele>
        <time>2018-08-01T09:08:31Z</time>
      </trkpt>
      <trkpt lat="47.14424" lon="6.83682">
        <ele>851.865</ele>
        <time>2018-08-01T09:08:32Z</time>
      </trkpt>
      <trkpt lat="47.14416" lon="6.83696">
        <ele>850.911</ele>
        <time>2018-08-01T09:08:33Z</time>
      </trkpt>
      <trkpt lat="47.14407" lon="6.83709">
        <ele>850.208</ele>
        <time>2018-08-01T09:08:34Z</time>
      </trkpt>
      <trkpt lat="47.144" lon="6.83723">
        <ele>849.653</ele>
        <time>2018-08-01T09:08:35Z</time>
      </trkpt>
      <trkpt lat="47.14392" lon="6.83738">
        <ele>849.068</ele>
        <time>2018-08-01T09:08:36Z</time>
      </trkpt>
      <trkpt lat="47.14386" lon="6.83752">
        <ele>848.342</ele>
        <time>2018-08-01T09:08:37Z</time>
      </trkpt>
      <trkpt lat="47.14385" lon="6.83768">
        <ele>847.584</ele>
        <time>2018-08-01T09:08:38Z</time>
      </trkpt>
      <trkpt lat="47.14385" lon="6.83784">
        <ele>846.75</ele>
        <time>2018-08-01T09:08:39Z</time>
      </trkpt>
      <trkpt lat="47.14388" lon="6.83801">
        <ele>845.917</ele>
        <time>2018-08-01T09:08:40Z</time>
      </trkpt>
      <trkpt lat="47.14392" lon="6.83822">
        <ele>844.942</ele>
        <time>2018-08-01T09:08:41Z</time>
      </trkpt>
      <trkpt lat="47.14397" lon="6.83842">
        <ele>844.151</ele>
        <time>2018-08-01T09:08:42Z</time>
      </trkpt>
      <trkpt lat="47.14398" lon="6.83861">
        <ele>843.493</ele>
        <time>2018-08-01T09:08:43Z</time>
      </trkpt>
      <trkpt lat="47.14406" lon="6.83879">
        <ele>842.665</ele>
        <time>2018-08-01T09:08:44Z</time>
      </trkpt>
      <trkpt lat="47.1441" lon="6.83898">
        <ele>842.621</ele>
        <time>2018-08-01T09:08:45Z</time>
      </trkpt>
      <trkpt lat="47.1442" lon="6.83905">
        <ele>841.808</ele>
        <time>2018-08-01T09:08:46Z</time>
      </trkpt>
      <trkpt lat="47.1443" lon="6.83916">
        <ele>841.181</ele>
        <time>2018-08-01T09:08:47Z</time>
      </trkpt>
      <trkpt lat="47.14437" lon="6.83931">
        <ele>840.466</ele>
        <time>2018-08-01T09:08:48Z</time>
      </trkpt>
      <trkpt lat="47.14447" lon="6.83943">
        <ele>839.63</ele>
        <time>2018-08-01T09:08:49Z</time>
      </trkpt>
      <trkpt lat="47.14455" lon="6.83955">
        <ele>838.862</ele>
        <time>2018-08-01T09:08:50Z</time>
      </trkpt>
      <trkpt lat="47.14466" lon="6.83967">
        <ele>838.088</ele>
        <time>2018-08-01T09:08:51Z</time>
      </trkpt>
      <trkpt lat="47.14474" lon="6.83978">
        <ele>837.265</ele>
        <time>2018-08-01T09:08:52Z</time>
      </trkpt>
      <trkpt lat="47.14483" lon="6.83991">
        <ele>836.35</ele>
        <time>2018-08-01T09:08:53Z</time>
      </trkpt>
      <trkpt lat="47.14493" lon="6.84003">
        <ele>835.519</ele>
        <time>2018-08-01T09:08:54Z</time>
      </trkpt>
      <trkpt lat="47.14501" lon="6.84017">
        <ele>834.796</ele>
        <time>2018-08-01T09:08:55Z</time>
      </trkpt>
      <trkpt lat="47.1451" lon="6.84032">
        <ele>833.731</ele>
        <time>2018-08-01T09:08:56Z</time>
      </trkpt>
      <trkpt lat="47.14516" lon="6.84047">
        <ele>832.824</ele>
        <time>2018-08-01T09:08:57Z</time>
      </trkpt>
      <trkpt lat="47.14518" lon="6.84064">
        <ele>831.908</ele>
        <time>2018-08-01T09:08:58Z</time>
      </trkpt>
      <trkpt lat="47.14525" lon="6.84081">
        <ele>831.091</ele>
        <time>2018-08-01T09:08:59Z</time>
      </trkpt>
      <trkpt lat="47.14531" lon="6.84099">
        <ele>830.286</ele>
        <time>2018-08-01T09:09:00Z</time>
      </trkpt>
      <trkpt lat="47.14534" lon="6.84118">
        <ele>829.55</ele>
        <time>2018-08-01T09:09:01Z</time>
      </trkpt>
      <trkpt lat="47.14537" lon="6.84135">
        <ele>828.722</ele>
        <time>2018-08-01T09:09:02Z</time>
      </trkpt>
      <trkpt lat="47.14535" lon="6.84154">
        <ele>827.858</ele>
        <time>2018-08-01T09:09:03Z</time>
      </trkpt>
      <trkpt lat="47.14535" lon="6.84172">
        <ele>827.085</ele>
        <time>2018-08-01T09:09:04Z</time>
      </trkpt>
      <trkpt lat="47.14536" lon="6.84191">
        <ele>826.28</ele>
        <time>2018-08-01T09:09:05Z</time>
      </trkpt>
      <trkpt lat="47.14535" lon="6.84209">
        <ele>825.359</ele>
        <time>2018-08-01T09:09:06Z</time>
      </trkpt>
      <trkpt lat="47.14537" lon="6.84227">
        <ele>824.595</ele>
        <time>2018-08-01T09:09:07Z</time>
      </trkpt>
      <trkpt lat="47.14537" lon="6.84246">
        <ele>823.849</ele>
        <time>2018-08-01T09:09:08Z</time>
      </trkpt>
      <trkpt lat="47.14545" lon="6.84257">
        <ele>823.123</ele>
        <time>2018-08-01T09:09:09Z</time>
      </trkpt>
      <trkpt lat="47.14553" lon="6.84273">
        <ele>822.308</ele>
        <time>2018-08-01T09:09:10Z</time>
      </trkpt>
      <trkpt lat="47.14562" lon="6.84285">
        <ele>821.531</ele>
        <time>2018-08-01T09:09:11Z</time>
      </trkpt>
      <trkpt lat="47.14572" lon="6.84294">
        <ele>820.746</ele>
        <time>2018-08-01T09:09:12Z</time>
      </trkpt>
      <trkpt lat="47.14581" lon="6.84307">
        <ele>819.98</ele>
        <time>2018-08-01T09:09:13Z</time>
      </trkpt>
      <trkpt lat="47.14592" lon="6.84315">
        <ele>819.932</ele>
        <time>2018-08-01T09:09:14Z</time>
      </trkpt>
      <trkpt lat="47.14603" lon="6.84323">
        <ele>819.058</ele>
        <time>2018-08-01T09:09:15Z</time>
      </trkpt>
      <trkpt lat="47.14614" lon="6.84335">
        <ele>818.045</ele>
        <time>2018-08-01T09:09:16Z</time>
      </trkpt>
      <trkpt lat="47.14625" lon="6.84346">
        <ele>817.04</ele>
        <time>2018-08-01T09:09:17Z</time>
      </trkpt>
      <trkpt lat="47.14635" lon="6.84355">
        <ele>816.049</ele>
        <time>2018-08-01T09:09:18Z</time>
      </trkpt>
      <trkpt lat="47.14646" lon="6.84364">
        <ele>815.041</ele>
        <time>2018-08-01T09:09:19Z</time>
      </trkpt>
      <trkpt lat="47.14656" lon="6.84373">
        <ele>814.081</ele>
        <time>2018-08-01T09:09:20Z</time>
      </trkpt>
      <trkpt lat="47.14667" lon="6.84381">
        <ele>813.109</ele>
        <time>2018-08-01T09:09:21Z</time>
      </trkpt>
      <trkpt lat="47.14678" lon="6.84389">
        <ele>812.308</ele>
        <time>2018-08-01T09:09:22Z</time>
      </trkpt>
      <trkpt lat="47.14689" lon="6.84396">
        <ele>811.536</ele>
        <time>2018-08-01T09:09:23Z</time>
      </trkpt>
      <trkpt lat="47.14701" lon="6.84404">
        <ele>810.721</ele>
        <time>2018-08-01T09:09:24Z</time>
      </trkpt>
      <trkpt lat="47.14712" lon="6.84409">
        <ele>809.965</ele>
        <time>2018-08-01T09:09:25Z</time>
      </trkpt>
      <trkpt lat="47.14725" lon="6.84408">
        <ele>809.257</ele>
        <time>2018-08-01T09:09:26Z</time>
      </trkpt>
      <trkpt lat="47.14738" lon="6.8441">
        <ele>808.583</ele>
        <time>2018-08-01T09:09:27Z</time>
      </trkpt>
      <trkpt lat="47.1475" lon="6.84408">
        <ele>807.88</ele>
        <time>2018-08-01T09:09:28Z</time>
      </trkpt>
      <trkpt lat="47.14762" lon="6.84407">
        <ele>807.185</ele>
        <time>2018-08-01T09:09:29Z</time>
      </trkpt>
      <trkpt lat="47.14773" lon="6.84405">
        <ele>806.364</ele>
        <time>2018-08-01T09:09:30Z</time>
      </trkpt>
      <trkpt lat="47.14784" lon="6.84404">
        <ele>805.572</ele>
        <time>2018-08-01T09:09:31Z</time>
      </trkpt>
      <trkpt lat="47.14796" lon="6.84401">
        <ele>804.613</ele>
        <time>2018-08-01T09:09:32Z</time>
      </trkpt>
      <trkpt lat="47.14809" lon="6.844">
        <ele>803.814</ele>
        <time>2018-08-01T09:09:33Z</time>
      </trkpt>
      <trkpt lat="47.14822" lon="6.84398">
        <ele>803.008</ele>
        <time>2018-08-01T09:09:34Z</time>
      </trkpt>
      <trkpt lat="47.14834" lon="6.84398">
        <ele>802.239</ele>
        <time>2018-08-01T09:09:35Z</time>
      </trkpt>
      <trkpt lat="47.14844" lon="6.84396">
        <ele>801.424</ele>
        <time>2018-08-01T09:09:36Z</time>
      </trkpt>
      <trkpt lat="47.14857" lon="6.84397">
        <ele>800.518</ele>
        <time>2018-08-01T09:09:37Z</time>
      </trkpt>
      <trkpt lat="47.14869" lon="6.84398">
        <ele>799.66</ele>
        <time>2018-08-01T09:09:38Z</time>
      </trkpt>
      <trkpt lat="47.14881" lon="6.844">
        <ele>798.676</ele>
        <time>2018-08-01T09:09:39Z</time>
      </trkpt>
      <trkpt lat="47.14892" lon="6.84402">
        <ele>797.693</ele>
        <time>2018-08-01T09:09:40Z</time>
      </trkpt>
      <trkpt lat="47.14902" lon="6.84407">
        <ele>797.678</ele>
        <time>2018-08-01T09:09:41Z</time>
      </trkpt>
      <trkpt lat="47.14911" lon="6.84411">
        <ele>796.777</ele>
        <time>2018-08-01T09:09:42Z</time>
      </trkpt>
      <trkpt lat="47.1492" lon="6.84413">
        <ele>795.879</ele>
        <time>2018-08-01T09:09:43Z</time>
      </trkpt>
      <trkpt lat="47.14928" lon="6.84416">
        <ele>794.905</ele>
        <time>2018-08-01T09:09:44Z</time>
      </trkpt>
      <trkpt lat="47.14935" lon="6.84415">
        <ele>794.025</ele>
        <time>2018-08-01T09:09:45Z</time>
      </trkpt>
      <trkpt lat="47.1494" lon="6.8441">
        <ele>793.108</ele>
        <time>2018-08-01T09:09:46Z</time>
      </trkpt>
      <trkpt lat="47.14944" lon="6.84401">
        <ele>792.319</ele>
        <time>2018-08-01T09:09:47Z</time>
      </trkpt>
      <trkpt lat="47.14937" lon="6.84385">
        <ele>791.124</ele>
        <time>2018-08-01T09:09:49Z</time>
      </trkpt>
      <trkpt lat="47.14926" lon="6.8438">
        <ele>790.668</ele>
        <time>2018-08-01T09:09:50Z</time>
      </trkpt>
      <trkpt lat="47.14919" lon="6.84381">
        <ele>790.48</ele>
        <time>2018-08-01T09:09:51Z</time>
      </trkpt>
      <trkpt lat="47.14911" lon="6.84384">
        <ele>790.196</ele>
        <time>2018-08-01T09:09:52Z</time>
      </trkpt>
      <trkpt lat="47.14902" lon="6.84388">
        <ele>789.883</ele>
        <time>2018-08-01T09:09:53Z</time>
      </trkpt>
      <trkpt lat="47.14893" lon="6.84387">
        <ele>789.588</ele>
        <time>2018-08-01T09:09:54Z</time>
      </trkpt>
      <trkpt lat="47.14886" lon="6.84385">
        <ele>789.217</ele>
        <time>2018-08-01T09:09:55Z</time>
      </trkpt>
      <trkpt lat="47.14876" lon="6.84382">
        <ele>788.679</ele>
        <time>2018-08-01T09:09:56Z</time>
      </trkpt>
      <trkpt lat="47.14868" lon="6.84377">
        <ele>788.005</ele>
        <time>2018-08-01T09:09:57Z</time>
      </trkpt>
      <trkpt lat="47.1486" lon="6.84376">
        <ele>787.425</ele>
        <time>2018-08-01T09:09:58Z</time>
      </trkpt>
      <trkpt lat="47.14853" lon="6.84376">
        <ele>786.808</ele>
        <time>2018-08-01T09:09:59Z</time>
      </trkpt>
      <trkpt lat="47.14845" lon="6.84375">
        <ele>786.299</ele>
        <time>2018-08-01T09:10:00Z</time>
      </trkpt>
      <trkpt lat="47.14834" lon="6.84367">
        <ele>785.784</ele>
        <time>2018-08-01T09:10:01Z</time>
      </trkpt>
      <trkpt lat="47.14824" lon="6.84358">
        <ele>785.228</ele>
        <time>2018-08-01T09:10:02Z</time>
      </trkpt>
      <trkpt lat="47.14814" lon="6.8435">
        <ele>784.64</ele>
        <time>2018-08-01T09:10:03Z</time>
      </trkpt>
      <trkpt lat="47.14807" lon="6.84349">
        <ele>784.086</ele>
        <time>2018-08-01T09:10:04Z</time>
      </trkpt>
      <trkpt lat="47.14797" lon="6.84343">
        <ele>783.473</ele>
        <time>2018-08-01T09:10:05Z</time>
      </trkpt>
      <trkpt lat="47.14786" lon="6.84335">
        <ele>782.898</ele>
        <time>2018-08-01T09:10:06Z</time>
      </trkpt>
      <trkpt lat="47.14773" lon="6.84323">
        <ele>782.397</ele>
        <time>2018-08-01T09:10:07Z</time>
      </trkpt>
      <trkpt lat="47.14762" lon="6.84313">
        <ele>781.741</ele>
        <time>2018-08-01T09:10:08Z</time>
      </trkpt>
      <trkpt lat="47.14753" lon="6.84306">
        <ele>781.181</ele>
        <time>2018-08-01T09:10:09Z</time>
      </trkpt>
      <trkpt lat="47.14741" lon="6.84297">
        <ele>781.109</ele>
        <time>2018-08-01T09:10:10Z</time>
      </trkpt>
      <trkpt lat="47.14731" lon="6.8429">
        <ele>780.508</ele>
        <time>2018-08-01T09:10:11Z</time>
      </trkpt>
      <trkpt lat="47.14721" lon="6.84287">
        <ele>779.936</ele>
        <time>2018-08-01T09:10:12Z</time>
      </trkpt>
      <trkpt lat="47.1471" lon="6.84279">
        <ele>779.291</ele>
        <time>2018-08-01T09:10:13Z</time>
      </trkpt>
      <trkpt lat="47.147" lon="6.84272">
        <ele>778.635</ele>
        <time>2018-08-01T09:10:14Z</time>
      </trkpt>
      <trkpt lat="47.14691" lon="6.84265">
        <ele>777.937</ele>
        <time>2018-08-01T09:10:15Z</time>
      </trkpt>
      <trkpt lat="47.14683" lon="6.8426">
        <ele>777.243</ele>
        <time>2018-08-01T09:10:16Z</time>
      </trkpt>
      <trkpt lat="47.14673" lon="6.84245">
        <ele>776.42</ele>
        <time>2018-08-01T09:10:17Z</time>
      </trkpt>
      <trkpt lat="47.14668" lon="6.84228">
        <ele>775.635</ele>
        <time>2018-08-01T09:10:18Z</time>
      </trkpt>
      <trkpt lat="47.14662" lon="6.84215">
        <ele>774.734</ele>
        <time>2018-08-01T09:10:19Z</time>
      </trkpt>
      <trkpt lat="47.14659" lon="6.84197">
        <ele>773.987</ele>
        <time>2018-08-01T09:10:20Z</time>
      </trkpt>
      <trkpt lat="47.14658" lon="6.84179">
        <ele>773.142</ele>
        <time>2018-08-01T09:10:21Z</time>
      </trkpt>
      <trkpt lat="47.14655" lon="6.8416">
        <ele>772.326</ele>
        <time>2018-08-01T09:10:22Z</time>
      </trkpt>
      <trkpt lat="47.14653" lon="6.84143">
        <ele>771.408</ele>
        <time>2018-08-01T09:10:23Z</time>
      </trkpt>
      <trkpt lat="47.14653" lon="6.84124">
        <ele>770.68</ele>
        <time>2018-08-01T09:10:24Z</time>
      </trkpt>
      <trkpt lat="47.14653" lon="6.84105">
        <ele>769.745</ele>
        <time>2018-08-01T09:10:25Z</time>
      </trkpt>
      <trkpt lat="47.14654" lon="6.84094">
        <ele>768.739</ele>
        <time>2018-08-01T09:10:26Z</time>
      </trkpt>
      <trkpt lat="47.14654" lon="6.84076">
        <ele>767.671</ele>
        <time>2018-08-01T09:10:27Z</time>
      </trkpt>
      <trkpt lat="47.14654" lon="6.84061">
        <ele>766.657</ele>
        <time>2018-08-01T09:10:28Z</time>
      </trkpt>
      <trkpt lat="47.14656" lon="6.8405">
        <ele>765.544</ele>
        <time>2018-08-01T09:10:29Z</time>
      </trkpt>
      <trkpt lat="47.14658" lon="6.84042">
        <ele>764.439</ele>
        <time>2018-08-01T09:10:30Z</time>
      </trkpt>
      <trkpt lat="47.1466" lon="6.84034">
        <ele>763.468</ele>
        <time>2018-08-01T09:10:31Z</time>
      </trkpt>
      <trkpt lat="47.1468" lon="6.84039">
        <ele>761.947</ele>
        <time>2018-08-01T09:10:33Z</time>
      </trkpt>
      <trkpt lat="47.14681" lon="6.84047">
        <ele>761.029</ele>
        <time>2018-08-01T09:10:35Z</time>
      </trkpt>
      <trkpt lat="47.14681" lon="6.84066">
        <ele>760.721</ele>
        <time>2018-08-01T09:10:36Z</time>
      </trkpt>
      <trkpt lat="47.1468" lon="6.84078">
        <ele>760.508</ele>
        <time>2018-08-01T09:10:37Z</time>
      </trkpt>
      <trkpt lat="47.1468" lon="6.84093">
        <ele>760.586</ele>
        <time>2018-08-01T09:10:38Z</time>
      </trkpt>
      <trkpt lat="47.14679" lon="6.84106">
        <ele>760.351</ele>
        <time>2018-08-01T09:10:39Z</time>
      </trkpt>
      <trkpt lat="47.1468" lon="6.84118">
        <ele>760.145</ele>
        <time>2018-08-01T09:10:40Z</time>
      </trkpt>
      <trkpt lat="47.14681" lon="6.84133">
        <ele>759.827</ele>
        <time>2018-08-01T09:10:41Z</time>
      </trkpt>
      <trkpt lat="47.14686" lon="6.84145">
        <ele>759.373</ele>
        <time>2018-08-01T09:10:42Z</time>
      </trkpt>
      <trkpt lat="47.14689" lon="6.8416">
        <ele>758.72</ele>
        <time>2018-08-01T09:10:43Z</time>
      </trkpt>
      <trkpt lat="47.14694" lon="6.84172">
        <ele>757.935</ele>
        <time>2018-08-01T09:10:44Z</time>
      </trkpt>
      <trkpt lat="47.14699" lon="6.84187">
        <ele>757.224</ele>
        <time>2018-08-01T09:10:45Z</time>
      </trkpt>
      <trkpt lat="47.14705" lon="6.84201">
        <ele>756.478</ele>
        <time>2018-08-01T09:10:46Z</time>
      </trkpt>
      <trkpt lat="47.14713" lon="6.84212">
        <ele>755.633</ele>
        <time>2018-08-01T09:10:47Z</time>
      </trkpt>
      <trkpt lat="47.14719" lon="6.84224">
        <ele>754.826</ele>
        <time>2018-08-01T09:10:48Z</time>
      </trkpt>
      <trkpt lat="47.14729" lon="6.84232">
        <ele>754.008</ele>
        <time>2018-08-01T09:10:49Z</time>
      </trkpt>
      <trkpt lat="47.14741" lon="6.84234">
        <ele>753.199</ele>
        <time>2018-08-01T09:10:50Z</time>
      </trkpt>
      <trkpt lat="47.14753" lon="6.84238">
        <ele>752.124</ele>
        <time>2018-08-01T09:10:51Z</time>
      </trkpt>
      <trkpt lat="47.14763" lon="6.8424">
        <ele>751.158</ele>
        <time>2018-08-01T09:10:52Z</time>
      </trkpt>
      <trkpt lat="47.14774" lon="6.8424">
        <ele>750.17</ele>
        <time>2018-08-01T09:10:53Z</time>
      </trkpt>
      <trkpt lat="47.14783" lon="6.84239">
        <ele>749.156</ele>
        <time>2018-08-01T09:10:54Z</time>
      </trkpt>
      <trkpt lat="47.14792" lon="6.84238">
        <ele>748.033</ele>
        <time>2018-08-01T09:10:55Z</time>
      </trkpt>
      <trkpt lat="47.14801" lon="6.84237">
        <ele>746.988</ele>
        <time>2018-08-01T09:10:56Z</time>
      </trkpt>
      <trkpt lat="47.14807" lon="6.84231">
        <ele>745.847</ele>
        <time>2018-08-01T09:10:57Z</time>
      </trkpt>
      <trkpt lat="47.14811" lon="6.84223">
        <ele>744.873</ele>
        <time>2018-08-01T09:10:58Z</time>
      </trkpt>
      <trkpt lat="47.14813" lon="6.84216">
        <ele>743.985</ele>
        <time>2018-08-01T09:10:59Z</time>
      </trkpt>
      <trkpt lat="47.14813" lon="6.84205">
        <ele>743.213</ele>
        <time>2018-08-01T09:11:00Z</time>
      </trkpt>
      <trkpt lat="47.1481" lon="6.84195">
        <ele>742.608</ele>
        <time>2018-08-01T09:11:01Z</time>
      </trkpt>
      <trkpt lat="47.14803" lon="6.84184">
        <ele>741.649</ele>
        <time>2018-08-01T09:11:03Z</time>
      </trkpt>
      <trkpt lat="47.1479" lon="6.84192">
        <ele>741.154</ele>
        <time>2018-08-01T09:11:04Z</time>
      </trkpt>
      <trkpt lat="47.14777" lon="6.842">
        <ele>740.688</ele>
        <time>2018-08-01T09:11:05Z</time>
      </trkpt>
      <trkpt lat="47.14764" lon="6.842">
        <ele>740.16</ele>
        <time>2018-08-01T09:11:06Z</time>
      </trkpt>
      <trkpt lat="47.14754" lon="6.84202">
        <ele>740.166</ele>
        <time>2018-08-01T09:11:07Z</time>
      </trkpt>
      <trkpt lat="47.14745" lon="6.842">
        <ele>739.533</ele>
        <time>2018-08-01T09:11:08Z</time>
      </trkpt>
      <trkpt lat="47.14737" lon="6.84185">
        <ele>738.818</ele>
        <time>2018-08-01T09:11:09Z</time>
      </trkpt>
      <trkpt lat="47.14729" lon="6.84175">
        <ele>738.277</ele>
        <time>2018-08-01T09:11:10Z</time>
      </trkpt>
      <trkpt lat="47.14722" lon="6.84162">
        <ele>737.525</ele>
        <time>2018-08-01T09:11:11Z</time>
      </trkpt>
      <trkpt lat="47.14723" lon="6.84143">
        <ele>736.726</ele>
        <time>2018-08-01T09:11:12Z</time>
      </trkpt>
      <trkpt lat="47.14725" lon="6.84125">
        <ele>736.008</ele>
        <time>2018-08-01T09:11:13Z</time>
      </trkpt>
      <trkpt lat="47.14731" lon="6.84107">
        <ele>735.308</ele>
        <time>2018-08-01T09:11:14Z</time>
      </trkpt>
      <trkpt lat="47.14734" lon="6.84091">
        <ele>734.534</ele>
        <time>2018-08-01T09:11:15Z</time>
      </trkpt>
      <trkpt lat="47.14737" lon="6.84074">
        <ele>733.769</ele>
        <time>2018-08-01T09:11:16Z</time>
      </trkpt>
      <trkpt lat="47.1474" lon="6.84057">
        <ele>733.143</ele>
        <time>2018-08-01T09:11:17Z</time>
      </trkpt>
      <trkpt lat="47.14743" lon="6.84041">
        <ele>732.695</ele>
        <time>2018-08-01T09:11:18Z</time>
      </trkpt>
      <trkpt lat="47.14748" lon="6.84025">
        <ele>732.161</ele>
        <time>2018-08-01T09:11:19Z</time>
      </trkpt>
      <trkpt lat="47.14754" lon="6.8401">
        <ele>731.768</ele>
        <time>2018-08-01T09:11:20Z</time>
      </trkpt>
      <trkpt lat="47.1476" lon="6.83993">
        <ele>731.353</ele>
        <time>2018-08-01T09:11:21Z</time>
      </trkpt>
      <trkpt lat="47.14765" lon="6.83977">
        <ele>730.732</ele>
        <time>2018-08-01T09:11:22Z</time>
      </trkpt>
      <trkpt lat="47.14767" lon="6.83962">
        <ele>730.023</ele>
        <time>2018-08-01T09:11:23Z</time>
      </trkpt>
      <trkpt lat="47.14765" lon="6.83944">
        <ele>729.283</ele>
        <time>2018-08-01T09:11:24Z</time>
      </trkpt>
      <trkpt lat="47.1476" lon="6.83928">
        <ele>728.411</ele>
        <time>2018-08-01T09:11:25Z</time>
      </trkpt>
      <trkpt lat="47.14756" lon="6.83912">
        <ele>727.608</ele>
        <time>2018-08-01T09:11:26Z</time>
      </trkpt>
      <trkpt lat="47.14753" lon="6.83897">
        <ele>726.964</ele>
        <time>2018-08-01T09:11:27Z</time>
      </trkpt>
      <trkpt lat="47.14749" lon="6.8388">
        <ele>726.129</ele>
        <time>2018-08-01T09:11:28Z</time>
      </trkpt>
      <trkpt lat="47.14744" lon="6.83863">
        <ele>725.323</ele>
        <time>2018-08-01T09:11:29Z</time>
      </trkpt>
      <trkpt lat="47.14746" lon="6.83847">
        <ele>724.455</ele>
        <time>2018-08-01T09:11:30Z</time>
      </trkpt>
      <trkpt lat="47.14745" lon="6.83829">
        <ele>723.431</ele>
        <time>2018-08-01T09:11:31Z</time>
      </trkpt>
      <trkpt lat="47.14745" lon="6.83812">
        <ele>722.548</ele>
        <time>2018-08-01T09:11:32Z</time>
      </trkpt>
      <trkpt lat="47.14745" lon="6.83795">
        <ele>721.823</ele>
        <time>2018-08-01T09:11:33Z</time>
      </trkpt>
      <trkpt lat="47.14745" lon="6.83778">
        <ele>721.122</ele>
        <time>2018-08-01T09:11:34Z</time>
      </trkpt>
      <trkpt lat="47.14733" lon="6.8376">
        <ele>721.122</ele>
        <time>2018-08-01T09:11:35Z</time>
      </trkpt>
      <trkpt lat="47.14729" lon="6.83744">
        <ele>720.562</ele>
        <time>2018-08-01T09:11:36Z</time>
      </trkpt>
      <trkpt lat="47.14724" lon="6.8373">
        <ele>720.108</ele>
        <time>2018-08-01T09:11:37Z</time>
      </trkpt>
      <trkpt lat="47.14716" lon="6.83716">
        <ele>719.508</ele>
        <time>2018-08-01T09:11:38Z</time>
      </trkpt>
      <trkpt lat="47.14709" lon="6.83703">
        <ele>718.714</ele>
        <time>2018-08-01T09:11:39Z</time>
      </trkpt>
      <trkpt lat="47.14698" lon="6.83692">
        <ele>717.969</ele>
        <time>2018-08-01T09:11:40Z</time>
      </trkpt>
      <trkpt lat="47.1469" lon="6.83678">
        <ele>717.063</ele>
        <time>2018-08-01T09:11:41Z</time>
      </trkpt>
      <trkpt lat="47.14686" lon="6.83662">
        <ele>716.035</ele>
        <time>2018-08-01T09:11:42Z</time>
      </trkpt>
      <trkpt lat="47.1468" lon="6.83644">
        <ele>714.981</ele>
        <time>2018-08-01T09:11:43Z</time>
      </trkpt>
      <trkpt lat="47.14679" lon="6.83628">
        <ele>713.858</ele>
        <time>2018-08-01T09:11:44Z</time>
      </trkpt>
      <trkpt lat="47.14679" lon="6.83611">
        <ele>712.663</ele>
        <time>2018-08-01T09:11:45Z</time>
      </trkpt>
      <trkpt lat="47.1468" lon="6.83593">
        <ele>711.562</ele>
        <time>2018-08-01T09:11:46Z</time>
      </trkpt>
      <trkpt lat="47.14678" lon="6.83574">
        <ele>710.621</ele>
        <time>2018-08-01T09:11:47Z</time>
      </trkpt>
      <trkpt lat="47.14674" lon="6.83558">
        <ele>710.041</ele>
        <time>2018-08-01T09:11:48Z</time>
      </trkpt>
      <trkpt lat="47.14669" lon="6.8354">
        <ele>709.405</ele>
        <time>2018-08-01T09:11:49Z</time>
      </trkpt>
      <trkpt lat="47.14666" lon="6.83526">
        <ele>708.808</ele>
        <time>2018-08-01T09:11:50Z</time>
      </trkpt>
      <trkpt lat="47.1466" lon="6.83517">
        <ele>708.254</ele>
        <time>2018-08-01T09:11:51Z</time>
      </trkpt>
      <trkpt lat="47.14655" lon="6.83506">
        <ele>707.559</ele>
        <time>2018-08-01T09:11:52Z</time>
      </trkpt>
      <trkpt lat="47.14649" lon="6.83497">
        <ele>706.683</ele>
        <time>2018-08-01T09:11:53Z</time>
      </trkpt>
      <trkpt lat="47.14647" lon="6.83489">
        <ele>705.695</ele>
        <time>2018-08-01T09:11:54Z</time>
      </trkpt>
      <trkpt lat="47.14646" lon="6.83483">
        <ele>704.781</ele>
        <time>2018-08-01T09:11:55Z</time>
      </trkpt>
      <trkpt lat="47.14646" lon="6.83476">
        <ele>703.728</ele>
        <time>2018-08-01T09:11:56Z</time>
      </trkpt>
      <trkpt lat="47.14645" lon="6.83469">
        <ele>702.843</ele>
        <time>2018-08-01T09:11:57Z</time>
      </trkpt>
      <trkpt lat="47.14655" lon="6.83478">
        <ele>702.122</ele>
        <time>2018-08-01T09:11:58Z</time>
      </trkpt>
      <trkpt lat="47.14665" lon="6.83493">
        <ele>701.219</ele>
        <time>2018-08-01T09:12:00Z</time>
      </trkpt>
      <trkpt lat="47.14668" lon="6.83501">
        <ele>701.009</ele>
        <time>2018-08-01T09:12:01Z</time>
      </trkpt>
      <trkpt lat="47.14672" lon="6.83511">
        <ele>701.019</ele>
        <time>2018-08-01T09:12:02Z</time>
      </trkpt>
      <trkpt lat="47.14678" lon="6.83516">
        <ele>700.808</ele>
        <time>2018-08-01T09:12:03Z</time>
      </trkpt>
      <trkpt lat="47.14681" lon="6.83527">
        <ele>700.763</ele>
        <time>2018-08-01T09:12:04Z</time>
      </trkpt>
      <trkpt lat="47.14685" lon="6.83537">
        <ele>700.668</ele>
        <time>2018-08-01T09:12:05Z</time>
      </trkpt>
      <trkpt lat="47.1469" lon="6.83551">
        <ele>700.392</ele>
        <time>2018-08-01T09:12:06Z</time>
      </trkpt>
      <trkpt lat="47.14694" lon="6.83562">
        <ele>700.024</ele>
        <time>2018-08-01T09:12:07Z</time>
      </trkpt>
      <trkpt lat="47.14699" lon="6.83573">
        <ele>699.76</ele>
        <time>2018-08-01T09:12:08Z</time>
      </trkpt>
      <trkpt lat="47.14703" lon="6.83586">
        <ele>699.377</ele>
        <time>2018-08-01T09:12:09Z</time>
      </trkpt>
      <trkpt lat="47.14706" lon="6.836">
        <ele>698.842</ele>
        <time>2018-08-01T09:12:10Z</time>
      </trkpt>
      <trkpt lat="47.14708" lon="6.83615">
        <ele>698.381</ele>
        <time>2018-08-01T09:12:11Z</time>
      </trkpt>
      <trkpt lat="47.14712" lon="6.8363">
        <ele>697.774</ele>
        <time>2018-08-01T09:12:12Z</time>
      </trkpt>
      <trkpt lat="47.14717" lon="6.83641">
        <ele>697.156</ele>
        <time>2018-08-01T09:12:13Z</time>
      </trkpt>
      <trkpt lat="47.14722" lon="6.83652">
        <ele>696.421</ele>
        <time>2018-08-01T09:12:14Z</time>
      </trkpt>
      <trkpt lat="47.14728" lon="6.83662">
        <ele>695.808</ele>
        <time>2018-08-01T09:12:15Z</time>
      </trkpt>
      <trkpt lat="47.14736" lon="6.83674">
        <ele>695.129</ele>
        <time>2018-08-01T09:12:16Z</time>
      </trkpt>
      <trkpt lat="47.14744" lon="6.83684">
        <ele>694.464</ele>
        <time>2018-08-01T09:12:17Z</time>
      </trkpt>
      <trkpt lat="47.14752" lon="6.83694">
        <ele>693.758</ele>
        <time>2018-08-01T09:12:18Z</time>
      </trkpt>
      <trkpt lat="47.14761" lon="6.83707">
        <ele>693.04</ele>
        <time>2018-08-01T09:12:19Z</time>
      </trkpt>
      <trkpt lat="47.14768" lon="6.83718">
        <ele>692.246</ele>
        <time>2018-08-01T09:12:20Z</time>
      </trkpt>
      <trkpt lat="47.14774" lon="6.8373">
        <ele>691.543</ele>
        <time>2018-08-01T09:12:21Z</time>
      </trkpt>
      <trkpt lat="47.1478" lon="6.83745">
        <ele>690.898</ele>
        <time>2018-08-01T09:12:22Z</time>
      </trkpt>
      <trkpt lat="47.14785" lon="6.83761">
        <ele>690.147</ele>
        <time>2018-08-01T09:12:23Z</time>
      </trkpt>
      <trkpt lat="47.14789" lon="6.83778">
        <ele>689.458</ele>
        <time>2018-08-01T09:12:24Z</time>
      </trkpt>
      <trkpt lat="47.14795" lon="6.83794">
        <ele>688.752</ele>
        <time>2018-08-01T09:12:25Z</time>
      </trkpt>
      <trkpt lat="47.148" lon="6.83808">
        <ele>688.017</ele>
        <time>2018-08-01T09:12:26Z</time>
      </trkpt>
      <trkpt lat="47.14806" lon="6.83824">
        <ele>687.408</ele>
        <time>2018-08-01T09:12:27Z</time>
      </trkpt>
      <trkpt lat="47.14809" lon="6.83841">
        <ele>686.767</ele>
        <time>2018-08-01T09:12:28Z</time>
      </trkpt>
      <trkpt lat="47.14812" lon="6.83856">
        <ele>686.042</ele>
        <time>2018-08-01T09:12:29Z</time>
      </trkpt>
      <trkpt lat="47.14811" lon="6.83873">
        <ele>685.336</ele>
        <time>2018-08-01T09:12:30Z</time>
      </trkpt>
      <trkpt lat="47.14817" lon="6.8389">
        <ele>685.358</ele>
        <time>2018-08-01T09:12:31Z</time>
      </trkpt>
      <trkpt lat="47.14823" lon="6.83906">
        <ele>684.664</ele>
        <time>2018-08-01T09:12:32Z</time>
      </trkpt>
      <trkpt lat="47.14829" lon="6.83924">
        <ele>683.841</ele>
        <time>2018-08-01T09:12:33Z</time>
      </trkpt>
      <trkpt lat="47.14831" lon="6.83941">
        <ele>682.986</ele>
        <time>2018-08-01T09:12:34Z</time>
      </trkpt>
      <trkpt lat="47.14835" lon="6.83958">
        <ele>682.035</ele>
        <time>2018-08-01T09:12:35Z</time>
      </trkpt>
      <trkpt lat="47.14834" lon="6.83969">
        <ele>681.077</ele>
        <time>2018-08-01T09:12:36Z</time>
      </trkpt>
      <trkpt lat="47.14833" lon="6.8398">
        <ele>680.261</ele>
        <time>2018-08-01T09:12:37Z</time>
      </trkpt>
      <trkpt lat="47.14834" lon="6.83996">
        <ele>679.427</ele>
        <time>2018-08-01T09:12:38Z</time>
      </trkpt>
      <trkpt lat="47.14833" lon="6.84009">
        <ele>678.508</ele>
        <time>2018-08-01T09:12:39Z</time>
      </trkpt>
      <trkpt lat="47.14835" lon="6.84023">
        <ele>677.859</ele>
        <time>2018-08-01T09:12:40Z</time>
      </trkpt>
      <trkpt lat="47.14835" lon="6.84038">
        <ele>677.184</ele>
        <time>2018-08-01T09:12:41Z</time>
      </trkpt>
      <trkpt lat="47.14833" lon="6.84054">
        <ele>676.588</ele>
        <time>2018-08-01T09:12:42Z</time>
      </trkpt>
      <trkpt lat="47.14839" lon="6.84068">
        <ele>675.93</ele>
        <time>2018-08-01T09:12:43Z</time>
      </trkpt>
      <trkpt lat="47.14843" lon="6.8408">
        <ele>675.486</ele>
        <time>2018-08-01T09:12:44Z</time>
      </trkpt>
      <trkpt lat="47.14849" lon="6.84083">
        <ele>674.843</ele>
        <time>2018-08-01T09:12:45Z</time>
      </trkpt>
      <trkpt lat="47.14857" lon="6.84093">
        <ele>674.318</ele>
        <time>2018-08-01T09:12:46Z</time>
      </trkpt>
      <trkpt lat="47.14867" lon="6.84093">
        <ele>673.687</ele>
        <time>2018-08-01T09:12:47Z</time>
      </trkpt>
      <trkpt lat="47.14883" lon="6.84093">
        <ele>672.976</ele>
        <time>2018-08-01T09:12:48Z</time>
      </trkpt>
      <trkpt lat="47.14895" lon="6.84094">
        <ele>672.29</ele>
        <time>2018-08-01T09:12:49Z</time>
      </trkpt>
      <trkpt lat="47.14903" lon="6.84082">
        <ele>671.419</ele>
        <time>2018-08-01T09:12:50Z</time>
      </trkpt>
      <trkpt lat="47.14914" lon="6.84085">
        <ele>670.608</ele>
        <time>2018-08-01T09:12:51Z</time>
      </trkpt>
      <trkpt lat="47.14923" lon="6.84092">
        <ele>669.869</ele>
        <time>2018-08-01T09:12:52Z</time>
      </trkpt>
      <trkpt lat="47.14932" lon="6.84101">
        <ele>669.034</ele>
        <time>2018-08-01T09:12:53Z</time>
      </trkpt>
      <trkpt lat="47.14941" lon="6.84114">
        <ele>668.368</ele>
        <time>2018-08-01T09:12:54Z</time>
      </trkpt>
      <trkpt lat="47.14949" lon="6.84125">
        <ele>667.56</ele>
        <time>2018-08-01T09:12:55Z</time>
      </trkpt>
      <trkpt lat="47.14957" lon="6.84138">
        <ele>666.846</ele>
        <time>2018-08-01T09:12:56Z</time>
      </trkpt>
      <trkpt lat="47.14965" lon="6.84148">
        <ele>666.373</ele>
        <time>2018-08-01T09:12:57Z</time>
      </trkpt>
      <trkpt lat="47.14973" lon="6.84156">
        <ele>665.778</ele>
        <time>2018-08-01T09:12:58Z</time>
      </trkpt>
      <trkpt lat="47.14986" lon="6.84159">
        <ele>665.727</ele>
        <time>2018-08-01T09:12:59Z</time>
      </trkpt>
      <trkpt lat="47.14998" lon="6.84162">
        <ele>665.127</ele>
        <time>2018-08-01T09:13:00Z</time>
      </trkpt>
      <trkpt lat="47.1501" lon="6.84166">
        <ele>664.568</ele>
        <time>2018-08-01T09:13:01Z</time>
      </trkpt>
      <trkpt lat="47.15022" lon="6.84164">
        <ele>663.914</ele>
        <time>2018-08-01T09:13:02Z</time>
      </trkpt>
      <trkpt lat="47.15027" lon="6.84132">
        <ele>663.108</ele>
        <time>2018-08-01T09:13:03Z</time>
      </trkpt>
      <trkpt lat="47.15035" lon="6.84125">
        <ele>662.374</ele>
        <time>2018-08-01T09:13:04Z</time>
      </trkpt>
      <trkpt lat="47.15046" lon="6.84121">
        <ele>661.529</ele>
        <time>2018-08-01T09:13:05Z</time>
      </trkpt>
      <trkpt lat="47.15059" lon="6.84123">
        <ele>660.763</ele>
        <time>2018-08-01T09:13:06Z</time>
      </trkpt>
      <trkpt lat="47.15074" lon="6.84122">
        <ele>659.825</ele>
        <time>2018-08-01T09:13:07Z</time>
      </trkpt>
      <trkpt lat="47.15087" lon="6.84119">
        <ele>659.041</ele>
        <time>2018-08-01T09:13:08Z</time>
      </trkpt>
      <trkpt lat="47.15097" lon="6.84114">
        <ele>658.278</ele>
        <time>2018-08-01T09:13:09Z</time>
      </trkpt>
      <trkpt lat="47.15109" lon="6.84113">
        <ele>657.563</ele>
        <time>2018-08-01T09:13:10Z</time>
      </trkpt>
      <trkpt lat="47.15119" lon="6.84103">
        <ele>656.882</ele>
        <time>2018-08-01T09:13:11Z</time>
      </trkpt>
      <trkpt lat="47.15127" lon="6.84092">
        <ele>656.367</ele>
        <time>2018-08-01T09:13:12Z</time>
      </trkpt>
      <trkpt lat="47.15138" lon="6.84085">
        <ele>655.781</ele>
        <time>2018-08-01T09:13:13Z</time>
      </trkpt>
      <trkpt lat="47.15145" lon="6.84074">
        <ele>655.119</ele>
        <time>2018-08-01T09:13:14Z</time>
      </trkpt>
      <trkpt lat="47.15155" lon="6.84067">
        <ele>654.508</ele>
        <time>2018-08-01T09:13:15Z</time>
      </trkpt>
      <trkpt lat="47.15163" lon="6.84062">
        <ele>653.928</ele>
        <time>2018-08-01T09:13:16Z</time>
      </trkpt>
      <trkpt lat="47.15171" lon="6.8405">
        <ele>653.323</ele>
        <time>2018-08-01T09:13:17Z</time>
      </trkpt>
      <trkpt lat="47.15181" lon="6.84038">
        <ele>652.867</ele>
        <time>2018-08-01T09:13:18Z</time>
      </trkpt>
      <trkpt lat="47.1519" lon="6.84031">
        <ele>652.349</ele>
        <time>2018-08-01T09:13:19Z</time>
      </trkpt>
      <trkpt lat="47.15198" lon="6.8402">
        <ele>651.995</ele>
        <time>2018-08-01T09:13:20Z</time>
      </trkpt>
      <trkpt lat="47.15209" lon="6.84008">
        <ele>651.562</ele>
        <time>2018-08-01T09:13:21Z</time>
      </trkpt>
      <trkpt lat="47.15218" lon="6.84016">
        <ele>651.167</ele>
        <time>2018-08-01T09:13:22Z</time>
      </trkpt>
      <trkpt lat="47.15229" lon="6.84023">
        <ele>650.836</ele>
        <time>2018-08-01T09:13:23Z</time>
      </trkpt>
      <trkpt lat="47.15239" lon="6.84022">
        <ele>650.583</ele>
        <time>2018-08-01T09:13:24Z</time>
      </trkpt>
      <trkpt lat="47.15249" lon="6.84023">
        <ele>650.225</ele>
        <time>2018-08-01T09:13:25Z</time>
      </trkpt>
      <trkpt lat="47.15257" lon="6.84026">
        <ele>650.217</ele>
        <time>2018-08-01T09:13:26Z</time>
      </trkpt>
      <trkpt lat="47.15267" lon="6.84053">
        <ele>650.008</ele>
        <time>2018-08-01T09:13:27Z</time>
      </trkpt>
      <trkpt lat="47.15273" lon="6.84062">
        <ele>649.87</ele>
        <time>2018-08-01T09:13:28Z</time>
      </trkpt>
      <trkpt lat="47.15281" lon="6.8407">
        <ele>649.675</ele>
        <time>2018-08-01T09:13:29Z</time>
      </trkpt>
      <trkpt lat="47.15287" lon="6.84079">
        <ele>649.529</ele>
        <time>2018-08-01T09:13:30Z</time>
      </trkpt>
      <trkpt lat="47.15293" lon="6.84088">
        <ele>649.561</ele>
        <time>2018-08-01T09:13:31Z</time>
      </trkpt>
      <trkpt lat="47.15298" lon="6.84098">
        <ele>649.577</ele>
        <time>2018-08-01T09:13:32Z</time>
      </trkpt>
      <trkpt lat="47.15304" lon="6.84106">
        <ele>649.574</ele>
        <time>2018-08-01T09:13:33Z</time>
      </trkpt>
      <trkpt lat="47.15309" lon="6.84116">
        <ele>649.539</ele>
        <time>2018-08-01T09:13:34Z</time>
      </trkpt>
      <trkpt lat="47.15315" lon="6.84125">
        <ele>649.458</ele>
        <time>2018-08-01T09:13:35Z</time>
      </trkpt>
      <trkpt lat="47.15321" lon="6.84136">
        <ele>649.316</ele>
        <time>2018-08-01T09:13:36Z</time>
      </trkpt>
      <trkpt lat="47.15327" lon="6.84146">
        <ele>649.176</ele>
        <time>2018-08-01T09:13:37Z</time>
      </trkpt>
      <trkpt lat="47.15332" lon="6.84157">
        <ele>648.813</ele>
        <time>2018-08-01T09:13:38Z</time>
      </trkpt>
      <trkpt lat="47.15338" lon="6.84167">
        <ele>648.508</ele>
        <time>2018-08-01T09:13:39Z</time>
      </trkpt>
      <trkpt lat="47.15344" lon="6.84178">
        <ele>648.243</ele>
        <time>2018-08-01T09:13:40Z</time>
      </trkpt>
      <trkpt lat="47.1535" lon="6.84189">
        <ele>647.898</ele>
        <time>2018-08-01T09:13:41Z</time>
      </trkpt>
      <trkpt lat="47.15356" lon="6.84202">
        <ele>647.482</ele>
        <time>2018-08-01T09:13:42Z</time>
      </trkpt>
      <trkpt lat="47.15364" lon="6.84214">
        <ele>647.074</ele>
        <time>2018-08-01T09:13:43Z</time>
      </trkpt>
      <trkpt lat="47.15372" lon="6.84225">
        <ele>646.65</ele>
        <time>2018-08-01T09:13:44Z</time>
      </trkpt>
      <trkpt lat="47.1537" lon="6.84238">
        <ele>646.287</ele>
        <time>2018-08-01T09:13:45Z</time>
      </trkpt>
      <trkpt lat="47.15376" lon="6.84249">
        <ele>645.852</ele>
        <time>2018-08-01T09:13:46Z</time>
      </trkpt>
      <trkpt lat="47.15386" lon="6.84257">
        <ele>645.481</ele>
        <time>2018-08-01T09:13:47Z</time>
      </trkpt>
      <trkpt lat="47.15394" lon="6.84266">
        <ele>645.037</ele>
        <time>2018-08-01T09:13:48Z</time>
      </trkpt>
      <trkpt lat="47.154" lon="6.84277">
        <ele>644.749</ele>
        <time>2018-08-01T09:13:49Z</time>
      </trkpt>
      <trkpt lat="47.15403" lon="6.84289">
        <ele>644.313</ele>
        <time>2018-08-01T09:13:50Z</time>
      </trkpt>
      <trkpt lat="47.15409" lon="6.84302">
        <ele>643.908</ele>
        <time>2018-08-01T09:13:51Z</time>
      </trkpt>
      <trkpt lat="47.15417" lon="6.84313">
        <ele>643.535</ele>
        <time>2018-08-01T09:13:52Z</time>
      </trkpt>
      <trkpt lat="47.1542" lon="6.84327">
        <ele>643.16</ele>
        <time>2018-08-01T09:13:53Z</time>
      </trkpt>
      <trkpt lat="47.15426" lon="6.84341">
        <ele>642.764</ele>
        <time>2018-08-01T09:13:54Z</time>
      </trkpt>
      <trkpt lat="47.15431" lon="6.84353">
        <ele>642.796</ele>
        <time>2018-08-01T09:13:55Z</time>
      </trkpt>
      <trkpt lat="47.15437" lon="6.84364">
        <ele>642.382</ele>
        <time>2018-08-01T09:13:56Z</time>
      </trkpt>
      <trkpt lat="47.15443" lon="6.84376">
        <ele>641.979</ele>
        <time>2018-08-01T09:13:57Z</time>
      </trkpt>
      <trkpt lat="47.15449" lon="6.84389">
        <ele>641.524</ele>
        <time>2018-08-01T09:13:58Z</time>
      </trkpt>
      <trkpt lat="47.15455" lon="6.84401">
        <ele>641.083</ele>
        <time>2018-08-01T09:13:59Z</time>
      </trkpt>
      <trkpt lat="47.15459" lon="6.84414">
        <ele>640.629</ele>
        <time>2018-08-01T09:14:00Z</time>
      </trkpt>
      <trkpt lat="47.15466" lon="6.84427">
        <ele>640.2</ele>
        <time>2018-08-01T09:14:01Z</time>
      </trkpt>
      <trkpt lat="47.15471" lon="6.8444">
        <ele>639.82</ele>
        <time>2018-08-01T09:14:02Z</time>
      </trkpt>
      <trkpt lat="47.15476" lon="6.84453">
        <ele>639.408</ele>
        <time>2018-08-01T09:14:03Z</time>
      </trkpt>
      <trkpt lat="47.15479" lon="6.84465">
        <ele>639.064</ele>
        <time>2018-08-01T09:14:04Z</time>
      </trkpt>
      <trkpt lat="47.15481" lon="6.84478">
        <ele>638.669</ele>
        <time>2018-08-01T09:14:05Z</time>
      </trkpt>
      <trkpt lat="47.15484" lon="6.84491">
        <ele>638.343</ele>
        <time>2018-08-01T09:14:06Z</time>
      </trkpt>
      <trkpt lat="47.15486" lon="6.84503">
        <ele>638.075</ele>
        <time>2018-08-01T09:14:07Z</time>
      </trkpt>
      <trkpt lat="47.15491" lon="6.84517">
        <ele>637.721</ele>
        <time>2018-08-01T09:14:08Z</time>
      </trkpt>
      <trkpt lat="47.15493" lon="6.84529">
        <ele>637.578</ele>
        <time>2018-08-01T09:14:09Z</time>
      </trkpt>
      <trkpt lat="47.15498" lon="6.84541">
        <ele>637.383</ele>
        <time>2018-08-01T09:14:10Z</time>
      </trkpt>
      <trkpt lat="47.15499" lon="6.84553">
        <ele>637.142</ele>
        <time>2018-08-01T09:14:11Z</time>
      </trkpt>
      <trkpt lat="47.15502" lon="6.84565">
        <ele>636.912</ele>
        <time>2018-08-01T09:14:12Z</time>
      </trkpt>
      <trkpt lat="47.15504" lon="6.84578">
        <ele>636.732</ele>
        <time>2018-08-01T09:14:13Z</time>
      </trkpt>
      <trkpt lat="47.15505" lon="6.84591">
        <ele>636.505</ele>
        <time>2018-08-01T09:14:14Z</time>
      </trkpt>
      <trkpt lat="47.15504" lon="6.84603">
        <ele>636.308</ele>
        <time>2018-08-01T09:14:15Z</time>
      </trkpt>
      <trkpt lat="47.15504" lon="6.84616">
        <ele>636.183</ele>
        <time>2018-08-01T09:14:16Z</time>
      </trkpt>
      <trkpt lat="47.15504" lon="6.84628">
        <ele>635.958</ele>
        <time>2018-08-01T09:14:17Z</time>
      </trkpt>
      <trkpt lat="47.15505" lon="6.84641">
        <ele>635.752</ele>
        <time>2018-08-01T09:14:18Z</time>
      </trkpt>
      <trkpt lat="47.15505" lon="6.84653">
        <ele>635.684</ele>
        <time>2018-08-01T09:14:19Z</time>
      </trkpt>
      <trkpt lat="47.15505" lon="6.84666">
        <ele>635.45</ele>
        <time>2018-08-01T09:14:20Z</time>
      </trkpt>
      <trkpt lat="47.15504" lon="6.84677">
        <ele>635.237</ele>
        <time>2018-08-01T09:14:21Z</time>
      </trkpt>
      <trkpt lat="47.15503" lon="6.8469">
        <ele>635.042</ele>
        <time>2018-08-01T09:14:22Z</time>
      </trkpt>
      <trkpt lat="47.15505" lon="6.84701">
        <ele>635.031</ele>
        <time>2018-08-01T09:14:23Z</time>
      </trkpt>
      <trkpt lat="47.15508" lon="6.84712">
        <ele>634.944</ele>
        <time>2018-08-01T09:14:24Z</time>
      </trkpt>
      <trkpt lat="47.15508" lon="6.84724">
        <ele>634.805</ele>
        <time>2018-08-01T09:14:25Z</time>
      </trkpt>
      <trkpt lat="47.15507" lon="6.84737">
        <ele>634.615</ele>
        <time>2018-08-01T09:14:26Z</time>
      </trkpt>
      <trkpt lat="47.15508" lon="6.84748">
        <ele>634.408</ele>
        <time>2018-08-01T09:14:27Z</time>
      </trkpt>
      <trkpt lat="47.1551" lon="6.84759">
        <ele>634.236</ele>
        <time>2018-08-01T09:14:28Z</time>
      </trkpt>
      <trkpt lat="47.15515" lon="6.84772">
        <ele>634.181</ele>
        <time>2018-08-01T09:14:29Z</time>
      </trkpt>
      <trkpt lat="47.15517" lon="6.84783">
        <ele>633.945</ele>
        <time>2018-08-01T09:14:30Z</time>
      </trkpt>
      <trkpt lat="47.15517" lon="6.84794">
        <ele>633.827</ele>
        <time>2018-08-01T09:14:31Z</time>
      </trkpt>
      <trkpt lat="47.15521" lon="6.84807">
        <ele>633.743</ele>
        <time>2018-08-01T09:14:32Z</time>
      </trkpt>
      <trkpt lat="47.15524" lon="6.84818">
        <ele>633.67</ele>
        <time>2018-08-01T09:14:33Z</time>
      </trkpt>
      <trkpt lat="47.15525" lon="6.8483">
        <ele>633.385</ele>
        <time>2018-08-01T09:14:34Z</time>
      </trkpt>
      <trkpt lat="47.15526" lon="6.84843">
        <ele>633.164</ele>
        <time>2018-08-01T09:14:35Z</time>
      </trkpt>
      <trkpt lat="47.15529" lon="6.84856">
        <ele>632.975</ele>
        <time>2018-08-01T09:14:36Z</time>
      </trkpt>
      <trkpt lat="47.15534" lon="6.84871">
        <ele>632.728</ele>
        <time>2018-08-01T09:14:37Z</time>
      </trkpt>
      <trkpt lat="47.15533" lon="6.84884">
        <ele>632.52</ele>
        <time>2018-08-01T09:14:38Z</time>
      </trkpt>
      <trkpt lat="47.15532" lon="6.84895">
        <ele>632.208</ele>
        <time>2018-08-01T09:14:39Z</time>
      </trkpt>
      <trkpt lat="47.1553" lon="6.84907">
        <ele>632.079</ele>
        <time>2018-08-01T09:14:40Z</time>
      </trkpt>
      <trkpt lat="47.15531" lon="6.84918">
        <ele>631.954</ele>
        <time>2018-08-01T09:14:41Z</time>
      </trkpt>
      <trkpt lat="47.15535" lon="6.84931">
        <ele>631.858</ele>
        <time>2018-08-01T09:14:42Z</time>
      </trkpt>
      <trkpt lat="47.15536" lon="6.84942">
        <ele>631.76</ele>
        <time>2018-08-01T09:14:43Z</time>
      </trkpt>
      <trkpt lat="47.15539" lon="6.84953">
        <ele>631.736</ele>
        <time>2018-08-01T09:14:44Z</time>
      </trkpt>
      <trkpt lat="47.15542" lon="6.84964">
        <ele>631.633</ele>
        <time>2018-08-01T09:14:45Z</time>
      </trkpt>
      <trkpt lat="47.15544" lon="6.84974">
        <ele>631.368</ele>
        <time>2018-08-01T09:14:46Z</time>
      </trkpt>
      <trkpt lat="47.15549" lon="6.8498">
        <ele>631.147</ele>
        <time>2018-08-01T09:14:47Z</time>
      </trkpt>
      <trkpt lat="47.15553" lon="6.8499">
        <ele>630.987</ele>
        <time>2018-08-01T09:14:48Z</time>
      </trkpt>
      <trkpt lat="47.15557" lon="6.85001">
        <ele>630.742</ele>
        <time>2018-08-01T09:14:49Z</time>
      </trkpt>
      <trkpt lat="47.15562" lon="6.85011">
        <ele>630.526</ele>
        <time>2018-08-01T09:14:50Z</time>
      </trkpt>
      <trkpt lat="47.15568" lon="6.85021">
        <ele>630.508</ele>
        <time>2018-08-01T09:14:51Z</time>
      </trkpt>
      <trkpt lat="47.15575" lon="6.8503">
        <ele>630.43</ele>
        <time>2018-08-01T09:14:52Z</time>
      </trkpt>
      <trkpt lat="47.1558" lon="6.85036">
        <ele>630.295</ele>
        <time>2018-08-01T09:14:53Z</time>
      </trkpt>
      <trkpt lat="47.15587" lon="6.8504">
        <ele>630.029</ele>
        <time>2018-08-01T09:14:54Z</time>
      </trkpt>
      <trkpt lat="47.15595" lon="6.85042">
        <ele>629.881</ele>
        <time>2018-08-01T09:14:55Z</time>
      </trkpt>
      <trkpt lat="47.15603" lon="6.85047">
        <ele>629.657</ele>
        <time>2018-08-01T09:14:56Z</time>
      </trkpt>
      <trkpt lat="47.1561" lon="6.85051">
        <ele>629.424</ele>
        <time>2018-08-01T09:14:57Z</time>
      </trkpt>
      <trkpt lat="47.15616" lon="6.85055">
        <ele>629.279</ele>
        <time>2018-08-01T09:14:58Z</time>
      </trkpt>
      <trkpt lat="47.15623" lon="6.85059">
        <ele>629.038</ele>
        <time>2018-08-01T09:14:59Z</time>
      </trkpt>
      <trkpt lat="47.1563" lon="6.85069">
        <ele>628.839</ele>
        <time>2018-08-01T09:15:00Z</time>
      </trkpt>
      <trkpt lat="47.15637" lon="6.85073">
        <ele>628.601</ele>
        <time>2018-08-01T09:15:01Z</time>
      </trkpt>
      <trkpt lat="47.15645" lon="6.8508">
        <ele>628.521</ele>
        <time>2018-08-01T09:15:02Z</time>
      </trkpt>
      <trkpt lat="47.15652" lon="6.85076">
        <ele>628.408</ele>
        <time>2018-08-01T09:15:03Z</time>
      </trkpt>
      <trkpt lat="47.15659" lon="6.85081">
        <ele>628.335</ele>
        <time>2018-08-01T09:15:04Z</time>
      </trkpt>
      <trkpt lat="47.15667" lon="6.85088">
        <ele>628.23</ele>
        <time>2018-08-01T09:15:05Z</time>
      </trkpt>
      <trkpt lat="47.15675" lon="6.85089">
        <ele>628.054</ele>
        <time>2018-08-01T09:15:06Z</time>
      </trkpt>
      <trkpt lat="47.15681" lon="6.8509">
        <ele>627.886</ele>
        <time>2018-08-01T09:15:07Z</time>
      </trkpt>
      <trkpt lat="47.15689" lon="6.85092">
        <ele>627.692</ele>
        <time>2018-08-01T09:15:08Z</time>
      </trkpt>
      <trkpt lat="47.15696" lon="6.8509">
        <ele>627.539</ele>
        <time>2018-08-01T09:15:09Z</time>
      </trkpt>
      <trkpt lat="47.15706" lon="6.85095">
        <ele>627.334</ele>
        <time>2018-08-01T09:15:10Z</time>
      </trkpt>
      <trkpt lat="47.15713" lon="6.85091">
        <ele>627.173</ele>
        <time>2018-08-01T09:15:11Z</time>
      </trkpt>
      <trkpt lat="47.15722" lon="6.85104">
        <ele>626.972</ele>
        <time>2018-08-01T09:15:12Z</time>
      </trkpt>
      <trkpt lat="47.15729" lon="6.85113">
        <ele>626.813</ele>
        <time>2018-08-01T09:15:13Z</time>
      </trkpt>
      <trkpt lat="47.15737" lon="6.85122">
        <ele>626.714</ele>
        <time>2018-08-01T09:15:14Z</time>
      </trkpt>
      <trkpt lat="47.1574" lon="6.85129">
        <ele>626.608</ele>
        <time>2018-08-01T09:15:15Z</time>
      </trkpt>
      <trkpt lat="47.15746" lon="6.85135">
        <ele>626.549</ele>
        <time>2018-08-01T09:15:16Z</time>
      </trkpt>
      <trkpt lat="47.15753" lon="6.85137">
        <ele>626.424</ele>
        <time>2018-08-01T09:15:17Z</time>
      </trkpt>
      <trkpt lat="47.15758" lon="6.85145">
        <ele>626.448</ele>
        <time>2018-08-01T09:15:18Z</time>
      </trkpt>
      <trkpt lat="47.15764" lon="6.8515">
        <ele>626.27</ele>
        <time>2018-08-01T09:15:19Z</time>
      </trkpt>
      <trkpt lat="47.1577" lon="6.85159">
        <ele>626.076</ele>
        <time>2018-08-01T09:15:20Z</time>
      </trkpt>
      <trkpt lat="47.15778" lon="6.85165">
        <ele>625.833</ele>
        <time>2018-08-01T09:15:21Z</time>
      </trkpt>
      <trkpt lat="47.15786" lon="6.85162">
        <ele>625.738</ele>
        <time>2018-08-01T09:15:22Z</time>
      </trkpt>
      <trkpt lat="47.15794" lon="6.85158">
        <ele>625.627</ele>
        <time>2018-08-01T09:15:23Z</time>
      </trkpt>
      <trkpt lat="47.15802" lon="6.85151">
        <ele>625.518</ele>
        <time>2018-08-01T09:15:24Z</time>
      </trkpt>
      <trkpt lat="47.1581" lon="6.85147">
        <ele>625.398</ele>
        <time>2018-08-01T09:15:25Z</time>
      </trkpt>
      <trkpt lat="47.15818" lon="6.85146">
        <ele>625.217</ele>
        <time>2018-08-01T09:15:26Z</time>
      </trkpt>
      <trkpt lat="47.15825" lon="6.85161">
        <ele>625.008</ele>
        <time>2018-08-01T09:15:27Z</time>
      </trkpt>
      <trkpt lat="47.15833" lon="6.85168">
        <ele>624.843</ele>
        <time>2018-08-01T09:15:28Z</time>
      </trkpt>
      <trkpt lat="47.1584" lon="6.85172">
        <ele>624.678</ele>
        <time>2018-08-01T09:15:29Z</time>
      </trkpt>
      <trkpt lat="47.15849" lon="6.85176">
        <ele>624.472</ele>
        <time>2018-08-01T09:15:30Z</time>
      </trkpt>
      <trkpt lat="47.15857" lon="6.8518">
        <ele>624.314</ele>
        <time>2018-08-01T09:15:31Z</time>
      </trkpt>
      <trkpt lat="47.15863" lon="6.8518">
        <ele>624.13</ele>
        <time>2018-08-01T09:15:32Z</time>
      </trkpt>
      <trkpt lat="47.1587" lon="6.85191">
        <ele>624.047</ele>
        <time>2018-08-01T09:15:33Z</time>
      </trkpt>
      <trkpt lat="47.15879" lon="6.85191">
        <ele>623.942</ele>
        <time>2018-08-01T09:15:34Z</time>
      </trkpt>
      <trkpt lat="47.15887" lon="6.85204">
        <ele>623.891</ele>
        <time>2018-08-01T09:15:35Z</time>
      </trkpt>
      <trkpt lat="47.159" lon="6.85212">
        <ele>623.748</ele>
        <time>2018-08-01T09:15:36Z</time>
      </trkpt>
      <trkpt lat="47.15904" lon="6.85219">
        <ele>623.761</ele>
        <time>2018-08-01T09:15:37Z</time>
      </trkpt>
      <trkpt lat="47.15903" lon="6.85227">
        <ele>623.717</ele>
        <time>2018-08-01T09:15:38Z</time>
      </trkpt>
      <trkpt lat="47.15911" lon="6.85237">
        <ele>623.708</ele>
        <time>2018-08-01T09:15:39Z</time>
      </trkpt>
      <trkpt lat="47.15912" lon="6.85244">
        <ele>623.746</ele>
        <time>2018-08-01T09:15:40Z</time>
      </trkpt>
      <trkpt lat="47.15918" lon="6.85253">
        <ele>623.751</ele>
        <time>2018-08-01T09:15:41Z</time>
      </trkpt>
      <trkpt lat="47.15926" lon="6.85257">
        <ele>623.755</ele>
        <time>2018-08-01T09:15:42Z</time>
      </trkpt>
      <trkpt lat="47.15932" lon="6.85269">
        <ele>623.627</ele>
        <time>2018-08-01T09:15:43Z</time>
      </trkpt>
      <trkpt lat="47.15937" lon="6.85272">
        <ele>623.643</ele>
        <time>2018-08-01T09:15:44Z</time>
      </trkpt>
      <trkpt lat="47.15943" lon="6.85279">
        <ele>623.64</ele>
        <time>2018-08-01T09:15:45Z</time>
      </trkpt>
      <trkpt lat="47.15945" lon="6.85286">
        <ele>623.685</ele>
        <time>2018-08-01T09:15:46Z</time>
      </trkpt>
      <trkpt lat="47.15948" lon="6.85294">
        <ele>623.654</ele>
        <time>2018-08-01T09:15:47Z</time>
      </trkpt>
      <trkpt lat="47.15953" lon="6.85304">
        <ele>623.578</ele>
        <time>2018-08-01T09:15:48Z</time>
      </trkpt>
      <trkpt lat="47.1596" lon="6.85311">
        <ele>623.533</ele>
        <time>2018-08-01T09:15:49Z</time>
      </trkpt>
      <trkpt lat="47.15965" lon="6.85327">
        <ele>623.526</ele>
        <time>2018-08-01T09:15:52Z</time>
      </trkpt>
      <trkpt lat="47.15974" lon="6.85335">
        <ele>623.508</ele>
        <time>2018-08-01T09:15:53Z</time>
      </trkpt>
      <trkpt lat="47.15986" lon="6.8534">
        <ele>623.589</ele>
        <time>2018-08-01T09:15:54Z</time>
      </trkpt>
      <trkpt lat="47.15994" lon="6.85346">
        <ele>623.554</ele>
        <time>2018-08-01T09:15:55Z</time>
      </trkpt>
      <trkpt lat="47.15995" lon="6.85354">
        <ele>623.578</ele>
        <time>2018-08-01T09:15:56Z</time>
      </trkpt>
      <trkpt lat="47.16005" lon="6.85363">
        <ele>623.57</ele>
        <time>2018-08-01T09:15:58Z</time>
      </trkpt>
      <trkpt lat="47.16007" lon="6.85373">
        <ele>623.626</ele>
        <time>2018-08-01T09:15:59Z</time>
      </trkpt>
      <trkpt lat="47.16008" lon="6.85381">
        <ele>623.723</ele>
        <time>2018-08-01T09:16:00Z</time>
      </trkpt>
      <trkpt lat="47.16014" lon="6.85389">
        <ele>623.868</ele>
        <time>2018-08-01T09:16:01Z</time>
      </trkpt>
      <trkpt lat="47.1602" lon="6.85395">
        <ele>623.867</ele>
        <time>2018-08-01T09:16:02Z</time>
      </trkpt>
      <trkpt lat="47.16023" lon="6.85401">
        <ele>623.875</ele>
        <time>2018-08-01T09:16:03Z</time>
      </trkpt>
      <trkpt lat="47.16028" lon="6.85407">
        <ele>623.728</ele>
        <time>2018-08-01T09:16:04Z</time>
      </trkpt>
      <trkpt lat="47.16031" lon="6.85416">
        <ele>623.62</ele>
        <time>2018-08-01T09:16:05Z</time>
      </trkpt>
      <trkpt lat="47.16035" lon="6.85423">
        <ele>623.508</ele>
        <time>2018-08-01T09:16:06Z</time>
      </trkpt>
      <trkpt lat="47.1604" lon="6.85431">
        <ele>623.559</ele>
        <time>2018-08-01T09:16:07Z</time>
      </trkpt>
      <trkpt lat="47.16043" lon="6.85438">
        <ele>623.564</ele>
        <time>2018-08-01T09:16:08Z</time>
      </trkpt>
      <trkpt lat="47.16046" lon="6.85446">
        <ele>623.598</ele>
        <time>2018-08-01T09:16:09Z</time>
      </trkpt>
      <trkpt lat="47.1605" lon="6.85452">
        <ele>623.58</ele>
        <time>2018-08-01T09:16:10Z</time>
      </trkpt>
      <trkpt lat="47.16057" lon="6.85454">
        <ele>623.546</ele>
        <time>2018-08-01T09:16:11Z</time>
      </trkpt>
      <trkpt lat="47.16065" lon="6.85457">
        <ele>623.583</ele>
        <time>2018-08-01T09:16:12Z</time>
      </trkpt>
      <trkpt lat="47.16066" lon="6.85467">
        <ele>623.548</ele>
        <time>2018-08-01T09:16:13Z</time>
      </trkpt>
      <trkpt lat="47.16069" lon="6.85473">
        <ele>623.597</ele>
        <time>2018-08-01T09:16:14Z</time>
      </trkpt>
      <trkpt lat="47.16073" lon="6.85481">
        <ele>623.582</ele>
        <time>2018-08-01T09:16:15Z</time>
      </trkpt>
      <trkpt lat="47.16076" lon="6.85488">
        <ele>623.543</ele>
        <time>2018-08-01T09:16:16Z</time>
      </trkpt>
      <trkpt lat="47.16081" lon="6.85494">
        <ele>623.517</ele>
        <time>2018-08-01T09:16:17Z</time>
      </trkpt>
      <trkpt lat="47.16085" lon="6.85501">
        <ele>623.508</ele>
        <time>2018-08-01T09:16:18Z</time>
      </trkpt>
      <trkpt lat="47.16092" lon="6.85515">
        <ele>623.57</ele>
        <time>2018-08-01T09:16:20Z</time>
      </trkpt>
      <trkpt lat="47.16095" lon="6.85522">
        <ele>623.685</ele>
        <time>2018-08-01T09:16:21Z</time>
      </trkpt>
      <trkpt lat="47.16097" lon="6.85529">
        <ele>623.619</ele>
        <time>2018-08-01T09:16:22Z</time>
      </trkpt>
      <trkpt lat="47.16101" lon="6.85536">
        <ele>623.661</ele>
        <time>2018-08-01T09:16:23Z</time>
      </trkpt>
      <trkpt lat="47.16104" lon="6.85543">
        <ele>623.647</ele>
        <time>2018-08-01T09:16:24Z</time>
      </trkpt>
      <trkpt lat="47.16109" lon="6.85555">
        <ele>623.624</ele>
        <time>2018-08-01T09:16:26Z</time>
      </trkpt>
      <trkpt lat="47.16115" lon="6.8556">
        <ele>623.629</ele>
        <time>2018-08-01T09:16:27Z</time>
      </trkpt>
      <trkpt lat="47.16119" lon="6.85566">
        <ele>623.628</ele>
        <time>2018-08-01T09:16:28Z</time>
      </trkpt>
      <trkpt lat="47.16125" lon="6.85574">
        <ele>623.671</ele>
        <time>2018-08-01T09:16:29Z</time>
      </trkpt>
      <trkpt lat="47.16132" lon="6.85578">
        <ele>623.641</ele>
        <time>2018-08-01T09:16:30Z</time>
      </trkpt>
      <trkpt lat="47.16135" lon="6.85584">
        <ele>623.615</ele>
        <time>2018-08-01T09:16:31Z</time>
      </trkpt>
      <trkpt lat="47.16141" lon="6.85591">
        <ele>623.508</ele>
        <time>2018-08-01T09:16:32Z</time>
      </trkpt>
      <trkpt lat="47.1615" lon="6.856">
        <ele>623.469</ele>
        <time>2018-08-01T09:16:34Z</time>
      </trkpt>
      <trkpt lat="47.16155" lon="6.85606">
        <ele>623.434</ele>
        <time>2018-08-01T09:16:35Z</time>
      </trkpt>
      <trkpt lat="47.16161" lon="6.8561">
        <ele>623.428</ele>
        <time>2018-08-01T09:16:36Z</time>
      </trkpt>
      <trkpt lat="47.16166" lon="6.85613">
        <ele>623.44</ele>
        <time>2018-08-01T09:16:37Z</time>
      </trkpt>
      <trkpt lat="47.16171" lon="6.85617">
        <ele>623.446</ele>
        <time>2018-08-01T09:16:38Z</time>
      </trkpt>
      <trkpt lat="47.16177" lon="6.85619">
        <ele>623.483</ele>
        <time>2018-08-01T09:16:39Z</time>
      </trkpt>
      <trkpt lat="47.16185" lon="6.85622">
        <ele>623.488</ele>
        <time>2018-08-01T09:16:41Z</time>
      </trkpt>
      <trkpt lat="47.16192" lon="6.85624">
        <ele>623.497</ele>
        <time>2018-08-01T09:16:42Z</time>
      </trkpt>
      <trkpt lat="47.16198" lon="6.85628">
        <ele>623.458</ele>
        <time>2018-08-01T09:16:43Z</time>
      </trkpt>
      <trkpt lat="47.16204" lon="6.85627">
        <ele>623.452</ele>
        <time>2018-08-01T09:16:44Z</time>
      </trkpt>
      <trkpt lat="47.16211" lon="6.85629">
        <ele>623.417</ele>
        <time>2018-08-01T09:16:45Z</time>
      </trkpt>
      <trkpt lat="47.16217" lon="6.85633">
        <ele>623.408</ele>
        <time>2018-08-01T09:16:46Z</time>
      </trkpt>
      <trkpt lat="47.16223" lon="6.85637">
        <ele>623.487</ele>
        <time>2018-08-01T09:16:47Z</time>
      </trkpt>
      <trkpt lat="47.16229" lon="6.85639">
        <ele>623.422</ele>
        <time>2018-08-01T09:16:48Z</time>
      </trkpt>
      <trkpt lat="47.16235" lon="6.8565">
        <ele>623.376</ele>
        <time>2018-08-01T09:16:49Z</time>
      </trkpt>
      <trkpt lat="47.16242" lon="6.85658">
        <ele>623.268</ele>
        <time>2018-08-01T09:16:50Z</time>
      </trkpt>
      <trkpt lat="47.16247" lon="6.85668">
        <ele>623.164</ele>
        <time>2018-08-01T09:16:51Z</time>
      </trkpt>
      <trkpt lat="47.16253" lon="6.85677">
        <ele>623.121</ele>
        <time>2018-08-01T09:16:52Z</time>
      </trkpt>
      <trkpt lat="47.16258" lon="6.85685">
        <ele>623.176</ele>
        <time>2018-08-01T09:16:53Z</time>
      </trkpt>
      <trkpt lat="47.16263" lon="6.85693">
        <ele>623.165</ele>
        <time>2018-08-01T09:16:54Z</time>
      </trkpt>
      <trkpt lat="47.16267" lon="6.85703">
        <ele>623.024</ele>
        <time>2018-08-01T09:16:55Z</time>
      </trkpt>
      <trkpt lat="47.16271" lon="6.8571">
        <ele>622.904</ele>
        <time>2018-08-01T09:16:56Z</time>
      </trkpt>
      <trkpt lat="47.16276" lon="6.85717">
        <ele>622.914</ele>
        <time>2018-08-01T09:16:57Z</time>
      </trkpt>
      <trkpt lat="47.16281" lon="6.85722">
        <ele>622.808</ele>
        <time>2018-08-01T09:16:58Z</time>
      </trkpt>
      <trkpt lat="47.16286" lon="6.85726">
        <ele>622.884</ele>
        <time>2018-08-01T09:16:59Z</time>
      </trkpt>
      <trkpt lat="47.16292" lon="6.85733">
        <ele>622.789</ele>
        <time>2018-08-01T09:17:00Z</time>
      </trkpt>
      <trkpt lat="47.16297" lon="6.85735">
        <ele>622.733</ele>
        <time>2018-08-01T09:17:01Z</time>
      </trkpt>
      <trkpt lat="47.16302" lon="6.85741">
        <ele>622.685</ele>
        <time>2018-08-01T09:17:02Z</time>
      </trkpt>
      <trkpt lat="47.16307" lon="6.85746">
        <ele>622.571</ele>
        <time>2018-08-01T09:17:03Z</time>
      </trkpt>
      <trkpt lat="47.16312" lon="6.85752">
        <ele>622.478</ele>
        <time>2018-08-01T09:17:04Z</time>
      </trkpt>
      <trkpt lat="47.16317" lon="6.85758">
        <ele>622.373</ele>
        <time>2018-08-01T09:17:05Z</time>
      </trkpt>
      <trkpt lat="47.16321" lon="6.85764">
        <ele>622.262</ele>
        <time>2018-08-01T09:17:06Z</time>
      </trkpt>
      <trkpt lat="47.16326" lon="6.85772">
        <ele>622.189</ele>
        <time>2018-08-01T09:17:07Z</time>
      </trkpt>
      <trkpt lat="47.1633" lon="6.8578">
        <ele>622.106</ele>
        <time>2018-08-01T09:17:08Z</time>
      </trkpt>
      <trkpt lat="47.16334" lon="6.85787">
        <ele>622.026</ele>
        <time>2018-08-01T09:17:09Z</time>
      </trkpt>
      <trkpt lat="47.16338" lon="6.85794">
        <ele>621.908</ele>
        <time>2018-08-01T09:17:10Z</time>
      </trkpt>
      <trkpt lat="47.16342" lon="6.85803">
        <ele>621.85</ele>
        <time>2018-08-01T09:17:11Z</time>
      </trkpt>
      <trkpt lat="47.16345" lon="6.85811">
        <ele>621.755</ele>
        <time>2018-08-01T09:17:12Z</time>
      </trkpt>
      <trkpt lat="47.16347" lon="6.85818">
        <ele>621.669</ele>
        <time>2018-08-01T09:17:13Z</time>
      </trkpt>
      <trkpt lat="47.16352" lon="6.85825">
        <ele>621.541</ele>
        <time>2018-08-01T09:17:14Z</time>
      </trkpt>
      <trkpt lat="47.16356" lon="6.85832">
        <ele>621.477</ele>
        <time>2018-08-01T09:17:15Z</time>
      </trkpt>
      <trkpt lat="47.16361" lon="6.85838">
        <ele>621.354</ele>
        <time>2018-08-01T09:17:16Z</time>
      </trkpt>
      <trkpt lat="47.16365" lon="6.85842">
        <ele>621.229</ele>
        <time>2018-08-01T09:17:17Z</time>
      </trkpt>
      <trkpt lat="47.16369" lon="6.85847">
        <ele>621.158</ele>
        <time>2018-08-01T09:17:18Z</time>
      </trkpt>
      <trkpt lat="47.16374" lon="6.85854">
        <ele>621.078</ele>
        <time>2018-08-01T09:17:19Z</time>
      </trkpt>
      <trkpt lat="47.16379" lon="6.85857">
        <ele>620.933</ele>
        <time>2018-08-01T09:17:20Z</time>
      </trkpt>
      <trkpt lat="47.16386" lon="6.85858">
        <ele>620.826</ele>
        <time>2018-08-01T09:17:21Z</time>
      </trkpt>
      <trkpt lat="47.16392" lon="6.85858">
        <ele>620.708</ele>
        <time>2018-08-01T09:17:22Z</time>
      </trkpt>
      <trkpt lat="47.16396" lon="6.85853">
        <ele>620.649</ele>
        <time>2018-08-01T09:17:23Z</time>
      </trkpt>
      <trkpt lat="47.164" lon="6.85847">
        <ele>620.534</ele>
        <time>2018-08-01T09:17:24Z</time>
      </trkpt>
      <trkpt lat="47.16404" lon="6.8584">
        <ele>620.458</ele>
        <time>2018-08-01T09:17:25Z</time>
      </trkpt>
      <trkpt lat="47.16408" lon="6.85834">
        <ele>620.38</ele>
        <time>2018-08-01T09:17:26Z</time>
      </trkpt>
      <trkpt lat="47.16412" lon="6.85825">
        <ele>620.226</ele>
        <time>2018-08-01T09:17:27Z</time>
      </trkpt>
      <trkpt lat="47.16416" lon="6.85818">
        <ele>620.253</ele>
        <time>2018-08-01T09:17:28Z</time>
      </trkpt>
      <trkpt lat="47.1642" lon="6.85811">
        <ele>620.228</ele>
        <time>2018-08-01T09:17:29Z</time>
      </trkpt>
      <trkpt lat="47.16424" lon="6.85805">
        <ele>620.297</ele>
        <time>2018-08-01T09:17:30Z</time>
      </trkpt>
      <trkpt lat="47.16427" lon="6.85797">
        <ele>620.278</ele>
        <time>2018-08-01T09:17:31Z</time>
      </trkpt>
      <trkpt lat="47.16431" lon="6.85791">
        <ele>620.233</ele>
        <time>2018-08-01T09:17:32Z</time>
      </trkpt>
      <trkpt lat="47.16434" lon="6.85784">
        <ele>620.226</ele>
        <time>2018-08-01T09:17:33Z</time>
      </trkpt>
      <trkpt lat="47.16438" lon="6.8578">
        <ele>620.208</ele>
        <time>2018-08-01T09:17:34Z</time>
      </trkpt>
      <trkpt lat="47.16442" lon="6.85774">
        <ele>620.259</ele>
        <time>2018-08-01T09:17:35Z</time>
      </trkpt>
      <trkpt lat="47.16445" lon="6.85767">
        <ele>620.224</ele>
        <time>2018-08-01T09:17:36Z</time>
      </trkpt>
      <trkpt lat="47.16447" lon="6.85761">
        <ele>620.328</ele>
        <time>2018-08-01T09:17:37Z</time>
      </trkpt>
      <trkpt lat="47.16448" lon="6.85754">
        <ele>620.45</ele>
        <time>2018-08-01T09:17:38Z</time>
      </trkpt>
      <trkpt lat="47.16452" lon="6.85745">
        <ele>620.696</ele>
        <time>2018-08-01T09:17:40Z</time>
      </trkpt>
      <trkpt lat="47.16455" lon="6.85737">
        <ele>620.753</ele>
        <time>2018-08-01T09:17:42Z</time>
      </trkpt>
      <trkpt lat="47.16456" lon="6.85729">
        <ele>620.528</ele>
        <time>2018-08-01T09:17:45Z</time>
      </trkpt>
      <trkpt lat="47.16456" lon="6.85722">
        <ele>620.247</ele>
        <time>2018-08-01T09:17:47Z</time>
      </trkpt>
      <trkpt lat="47.16456" lon="6.85714">
        <ele>620.128</ele>
        <time>2018-08-01T09:17:50Z</time>
      </trkpt>
      <trkpt lat="47.16455" lon="6.85708">
        <ele>620.189</ele>
        <time>2018-08-01T09:17:52Z</time>
      </trkpt>
      <trkpt lat="47.16452" lon="6.85702">
        <ele>620.217</ele>
        <time>2018-08-01T09:17:55Z</time>
      </trkpt>
      <trkpt lat="47.1645" lon="6.85696">
        <ele>620.308</ele>
        <time>2018-08-01T09:18:05Z</time>
      </trkpt>
      <trkpt lat="47.16444" lon="6.85695">
        <ele>620.134</ele>
        <time>2018-08-01T09:18:27Z</time>
      </trkpt>
      <trkpt lat="47.16448" lon="6.85689">
        <ele>620.289</ele>
        <time>2018-08-01T09:28:38Z</time>
      </trkpt>
      <trkpt lat="47.16448" lon="6.8568">
        <ele>620.233</ele>
        <time>2018-08-01T09:28:41Z</time>
      </trkpt>
      <trkpt lat="47.16447" lon="6.85674">
        <ele>620.255</ele>
        <time>2018-08-01T09:28:43Z</time>
      </trkpt>
      <trkpt lat="47.16446" lon="6.85667">
        <ele>620.311</ele>
        <time>2018-08-01T09:28:45Z</time>
      </trkpt>
      <trkpt lat="47.16444" lon="6.85659">
        <ele>620.378</ele>
        <time>2018-08-01T09:28:47Z</time>
      </trkpt>
      <trkpt lat="47.16442" lon="6.85653">
        <ele>620.363</ele>
        <time>2018-08-01T09:28:49Z</time>
      </trkpt>
      <trkpt lat="47.1644" lon="6.85645">
        <ele>620.392</ele>
        <time>2018-08-01T09:28:51Z</time>
      </trkpt>
      <trkpt lat="47.16438" lon="6.85638">
        <ele>620.331</ele>
        <time>2018-08-01T09:28:53Z</time>
      </trkpt>
      <trkpt lat="47.16437" lon="6.85631">
        <ele>620.361</ele>
        <time>2018-08-01T09:28:55Z</time>
      </trkpt>
      <trkpt lat="47.16436" lon="6.85625">
        <ele>620.307</ele>
        <time>2018-08-01T09:28:57Z</time>
      </trkpt>
      <trkpt lat="47.16434" lon="6.85619">
        <ele>620.308</ele>
        <time>2018-08-01T09:28:59Z</time>
      </trkpt>
      <trkpt lat="47.16432" lon="6.85613">
        <ele>620.355</ele>
        <time>2018-08-01T09:29:01Z</time>
      </trkpt>
      <trkpt lat="47.16431" lon="6.85604">
        <ele>620.36</ele>
        <time>2018-08-01T09:29:04Z</time>
      </trkpt>
      <trkpt lat="47.16427" lon="6.85598">
        <ele>620.384</ele>
        <time>2018-08-01T09:29:07Z</time>
      </trkpt>
      <trkpt lat="47.16423" lon="6.85592">
        <ele>620.276</ele>
        <time>2018-08-01T09:29:10Z</time>
      </trkpt>
      <trkpt lat="47.16418" lon="6.85588">
        <ele>619.832</ele>
        <time>2018-08-01T09:29:15Z</time>
      </trkpt>
      <trkpt lat="47.16416" lon="6.85582">
        <ele>619.129</ele>
        <time>2018-08-01T09:29:26Z</time>
      </trkpt>
      <trkpt lat="47.16413" lon="6.85576">
        <ele>619.464</ele>
        <time>2018-08-01T09:29:37Z</time>
      </trkpt>
      <trkpt lat="47.16414" lon="6.85567">
        <ele>619.573</ele>
        <time>2018-08-01T09:29:41Z</time>
      </trkpt>
      <trkpt lat="47.16413" lon="6.8556">
        <ele>619.512</ele>
        <time>2018-08-01T09:29:45Z</time>
      </trkpt>
      <trkpt lat="47.16409" lon="6.85557">
        <ele>619.432</ele>
        <time>2018-08-01T09:29:50Z</time>
      </trkpt>
      <trkpt lat="47.16407" lon="6.8555">
        <ele>619.405</ele>
        <time>2018-08-01T09:29:59Z</time>
      </trkpt>
      <trkpt lat="47.16404" lon="6.85543">
        <ele>619.308</ele>
        <time>2018-08-01T09:30:02Z</time>
      </trkpt>
      <trkpt lat="47.16403" lon="6.85536">
        <ele>619.313</ele>
        <time>2018-08-01T09:30:05Z</time>
      </trkpt>
      <trkpt lat="47.16402" lon="6.85528">
        <ele>619.528</ele>
        <time>2018-08-01T09:30:09Z</time>
      </trkpt>
      <trkpt lat="47.16403" lon="6.85521">
        <ele>619.942</ele>
        <time>2018-08-01T09:30:17Z</time>
      </trkpt>
      <trkpt lat="47.16403" lon="6.85514">
        <ele>620.374</ele>
        <time>2018-08-01T09:30:25Z</time>
      </trkpt>
      <trkpt lat="47.16401" lon="6.85505">
        <ele>620.39</ele>
        <time>2018-08-01T09:30:28Z</time>
      </trkpt>
      <trkpt lat="47.164" lon="6.85498">
        <ele>620.117</ele>
        <time>2018-08-01T09:30:30Z</time>
      </trkpt>
      <trkpt lat="47.16396" lon="6.85491">
        <ele>620.122</ele>
        <time>2018-08-01T09:30:33Z</time>
      </trkpt>
      <trkpt lat="47.16393" lon="6.85484">
        <ele>620.331</ele>
        <time>2018-08-01T09:30:36Z</time>
      </trkpt>
      <trkpt lat="47.1639" lon="6.85477">
        <ele>620.449</ele>
        <time>2018-08-01T09:30:39Z</time>
      </trkpt>
      <trkpt lat="47.16388" lon="6.85471">
        <ele>620.502</ele>
        <time>2018-08-01T09:30:41Z</time>
      </trkpt>
      <trkpt lat="47.16387" lon="6.85464">
        <ele>620.722</ele>
        <time>2018-08-01T09:30:43Z</time>
      </trkpt>
      <trkpt lat="47.16388" lon="6.85456">
        <ele>620.808</ele>
        <time>2018-08-01T09:30:46Z</time>
      </trkpt>
      <trkpt lat="47.16391" lon="6.85451">
        <ele>620.826</ele>
        <time>2018-08-01T09:30:48Z</time>
      </trkpt>
      <trkpt lat="47.16392" lon="6.85443">
        <ele>620.781</ele>
        <time>2018-08-01T09:30:50Z</time>
      </trkpt>
      <trkpt lat="47.16393" lon="6.85435">
        <ele>620.655</ele>
        <time>2018-08-01T09:30:52Z</time>
      </trkpt>
      <trkpt lat="47.16391" lon="6.85425">
        <ele>620.487</ele>
        <time>2018-08-01T09:30:54Z</time>
      </trkpt>
      <trkpt lat="47.1639" lon="6.85416">
        <ele>620.123</ele>
        <time>2018-08-01T09:30:56Z</time>
      </trkpt>
      <trkpt lat="47.16391" lon="6.85408">
        <ele>619.85</ele>
        <time>2018-08-01T09:30:58Z</time>
      </trkpt>
      <trkpt lat="47.16395" lon="6.85401">
        <ele>619.725</ele>
        <time>2018-08-01T09:31:01Z</time>
      </trkpt>
      <trkpt lat="47.16395" lon="6.85393">
        <ele>619.714</ele>
        <time>2018-08-01T09:31:04Z</time>
      </trkpt>
      <trkpt lat="47.16392" lon="6.85386">
        <ele>619.621</ele>
        <time>2018-08-01T09:31:07Z</time>
      </trkpt>
      <trkpt lat="47.16388" lon="6.85381">
        <ele>620.041</ele>
        <time>2018-08-01T09:31:10Z</time>
      </trkpt>
      <trkpt lat="47.16385" lon="6.85376">
        <ele>620.405</ele>
        <time>2018-08-01T09:31:16Z</time>
      </trkpt>
      <trkpt lat="47.16381" lon="6.85373">
        <ele>620.108</ele>
        <time>2018-08-01T09:31:48Z</time>
      </trkpt>
      <trkpt lat="47.16382" lon="6.85363">
        <ele>619.324</ele>
        <time>2018-08-01T09:31:59Z</time>
      </trkpt>
      <trkpt lat="47.16381" lon="6.85353">
        <ele>618.769</ele>
        <time>2018-08-01T09:32:01Z</time>
      </trkpt>
      <trkpt lat="47.16381" lon="6.85346">
        <ele>618.343</ele>
        <time>2018-08-01T09:32:03Z</time>
      </trkpt>
      <trkpt lat="47.16383" lon="6.85339">
        <ele>618.395</ele>
        <time>2018-08-01T09:32:05Z</time>
      </trkpt>
      <trkpt lat="47.16383" lon="6.8533">
        <ele>618.371</ele>
        <time>2018-08-01T09:32:08Z</time>
      </trkpt>
      <trkpt lat="47.16379" lon="6.85323">
        <ele>618.568</ele>
        <time>2018-08-01T09:32:11Z</time>
      </trkpt>
      <trkpt lat="47.16377" lon="6.85316">
        <ele>619.033</ele>
        <time>2018-08-01T09:32:14Z</time>
      </trkpt>
      <trkpt lat="47.16377" lon="6.85307">
        <ele>619.432</ele>
        <time>2018-08-01T09:32:17Z</time>
      </trkpt>
      <trkpt lat="47.16377" lon="6.85301">
        <ele>620.037</ele>
        <time>2018-08-01T09:32:20Z</time>
      </trkpt>
      <trkpt lat="47.16381" lon="6.85293">
        <ele>620.349</ele>
        <time>2018-08-01T09:32:23Z</time>
      </trkpt>
      <trkpt lat="47.16383" lon="6.85285">
        <ele>620.313</ele>
        <time>2018-08-01T09:32:26Z</time>
      </trkpt>
      <trkpt lat="47.16384" lon="6.85278">
        <ele>620.208</ele>
        <time>2018-08-01T09:32:28Z</time>
      </trkpt>
      <trkpt lat="47.16385" lon="6.85271">
        <ele>620.265</ele>
        <time>2018-08-01T09:32:30Z</time>
      </trkpt>
      <trkpt lat="47.16387" lon="6.85263">
        <ele>620.34</ele>
        <time>2018-08-01T09:32:33Z</time>
      </trkpt>
      <trkpt lat="47.1639" lon="6.85256">
        <ele>620.244</ele>
        <time>2018-08-01T09:32:37Z</time>
      </trkpt>
      <trkpt lat="47.16392" lon="6.85247">
        <ele>619.626</ele>
        <time>2018-08-01T09:32:40Z</time>
      </trkpt>
      <trkpt lat="47.16392" lon="6.85239">
        <ele>618.672</ele>
        <time>2018-08-01T09:32:43Z</time>
      </trkpt>
      <trkpt lat="47.16394" lon="6.85231">
        <ele>618.479</ele>
        <time>2018-08-01T09:32:46Z</time>
      </trkpt>
      <trkpt lat="47.16394" lon="6.85222">
        <ele>618.694</ele>
        <time>2018-08-01T09:32:49Z</time>
      </trkpt>
      <trkpt lat="47.16392" lon="6.85214">
        <ele>618.723</ele>
        <time>2018-08-01T09:32:53Z</time>
      </trkpt>
      <trkpt lat="47.16389" lon="6.85207">
        <ele>618.725</ele>
        <time>2018-08-01T09:32:56Z</time>
      </trkpt>
      <trkpt lat="47.16386" lon="6.85201">
        <ele>618.626</ele>
        <time>2018-08-01T09:32:59Z</time>
      </trkpt>
      <trkpt lat="47.16384" lon="6.85196">
        <ele>618.408</ele>
        <time>2018-08-01T09:33:02Z</time>
      </trkpt>
      <trkpt lat="47.16381" lon="6.85189">
        <ele>618.308</ele>
        <time>2018-08-01T09:33:06Z</time>
      </trkpt>
      <trkpt lat="47.1638" lon="6.85182">
        <ele>618.414</ele>
        <time>2018-08-01T09:33:10Z</time>
      </trkpt>
      <trkpt lat="47.16378" lon="6.85175">
        <ele>618.499</ele>
        <time>2018-08-01T09:33:16Z</time>
      </trkpt>
      <trkpt lat="47.16375" lon="6.85167">
        <ele>618.323</ele>
        <time>2018-08-01T09:33:21Z</time>
      </trkpt>
      <trkpt lat="47.16372" lon="6.8516">
        <ele>618.085</ele>
        <time>2018-08-01T09:33:24Z</time>
      </trkpt>
      <trkpt lat="47.16369" lon="6.85153">
        <ele>617.811</ele>
        <time>2018-08-01T09:33:29Z</time>
      </trkpt>
      <trkpt lat="47.16367" lon="6.85147">
        <ele>617.948</ele>
        <time>2018-08-01T09:33:33Z</time>
      </trkpt>
      <trkpt lat="47.16364" lon="6.8514">
        <ele>618.013</ele>
        <time>2018-08-01T09:33:36Z</time>
      </trkpt>
      <trkpt lat="47.1636" lon="6.85133">
        <ele>618.032</ele>
        <time>2018-08-01T09:33:38Z</time>
      </trkpt>
      <trkpt lat="47.16358" lon="6.85126">
        <ele>617.858</ele>
        <time>2018-08-01T09:33:41Z</time>
      </trkpt>
      <trkpt lat="47.16354" lon="6.85122">
        <ele>617.952</ele>
        <time>2018-08-01T09:33:46Z</time>
      </trkpt>
      <trkpt lat="47.16353" lon="6.85114">
        <ele>618.317</ele>
        <time>2018-08-01T09:33:50Z</time>
      </trkpt>
      <trkpt lat="47.16352" lon="6.85108">
        <ele>618.208</ele>
        <time>2018-08-01T09:33:53Z</time>
      </trkpt>
      <trkpt lat="47.16348" lon="6.85102">
        <ele>618.367</ele>
        <time>2018-08-01T09:34:02Z</time>
      </trkpt>
      <trkpt lat="47.16345" lon="6.85096">
        <ele>618.572</ele>
        <time>2018-08-01T09:34:12Z</time>
      </trkpt>
      <trkpt lat="47.16342" lon="6.8509">
        <ele>618.326</ele>
        <time>2018-08-01T09:34:16Z</time>
      </trkpt>
      <trkpt lat="47.16338" lon="6.85083">
        <ele>618.138</ele>
        <time>2018-08-01T09:34:21Z</time>
      </trkpt>
      <trkpt lat="47.16338" lon="6.85077">
        <ele>617.784</ele>
        <time>2018-08-01T09:34:25Z</time>
      </trkpt>
      <trkpt lat="47.16337" lon="6.8507">
        <ele>617.871</ele>
        <time>2018-08-01T09:34:29Z</time>
      </trkpt>
      <trkpt lat="47.16334" lon="6.85062">
        <ele>617.956</ele>
        <time>2018-08-01T09:34:33Z</time>
      </trkpt>
      <trkpt lat="47.16331" lon="6.85057">
        <ele>617.725</ele>
        <time>2018-08-01T09:34:35Z</time>
      </trkpt>
      <trkpt lat="47.16329" lon="6.8505">
        <ele>617.538</ele>
        <time>2018-08-01T09:34:38Z</time>
      </trkpt>
      <trkpt lat="47.16328" lon="6.8504">
        <ele>617.57</ele>
        <time>2018-08-01T09:34:41Z</time>
      </trkpt>
      <trkpt lat="47.16327" lon="6.85031">
        <ele>617.817</ele>
        <time>2018-08-01T09:34:44Z</time>
      </trkpt>
      <trkpt lat="47.16326" lon="6.85024">
        <ele>618.208</ele>
        <time>2018-08-01T09:34:47Z</time>
      </trkpt>
      <trkpt lat="47.16329" lon="6.85018">
        <ele>619.065</ele>
        <time>2018-08-01T09:34:53Z</time>
      </trkpt>
      <trkpt lat="47.16333" lon="6.85015">
        <ele>619.03</ele>
        <time>2018-08-01T09:34:56Z</time>
      </trkpt>
      <trkpt lat="47.16337" lon="6.85012">
        <ele>618.984</ele>
        <time>2018-08-01T09:35:01Z</time>
      </trkpt>
      <trkpt lat="47.16335" lon="6.85005">
        <ele>618.976</ele>
        <time>2018-08-01T09:35:11Z</time>
      </trkpt>
      <trkpt lat="47.16337" lon="6.84998">
        <ele>618.622</ele>
        <time>2018-08-01T09:35:15Z</time>
      </trkpt>
      <trkpt lat="47.16338" lon="6.84992">
        <ele>618.449</ele>
        <time>2018-08-01T09:35:27Z</time>
      </trkpt>
      <trkpt lat="47.16341" lon="6.84987">
        <ele>618.694</ele>
        <time>2018-08-01T09:35:36Z</time>
      </trkpt>
      <trkpt lat="47.16343" lon="6.84981">
        <ele>618.573</ele>
        <time>2018-08-01T09:35:45Z</time>
      </trkpt>
      <trkpt lat="47.16344" lon="6.84973">
        <ele>618.771</ele>
        <time>2018-08-01T09:35:56Z</time>
      </trkpt>
      <trkpt lat="47.16348" lon="6.84966">
        <ele>618.641</ele>
        <time>2018-08-01T09:35:59Z</time>
      </trkpt>
      <trkpt lat="47.16352" lon="6.8496">
        <ele>618.415</ele>
        <time>2018-08-01T09:36:02Z</time>
      </trkpt>
      <trkpt lat="47.16356" lon="6.84956">
        <ele>618.108</ele>
        <time>2018-08-01T09:36:05Z</time>
      </trkpt>
      <trkpt lat="47.16357" lon="6.84949">
        <ele>617.859</ele>
        <time>2018-08-01T09:36:08Z</time>
      </trkpt>
      <trkpt lat="47.16355" lon="6.84942">
        <ele>617.974</ele>
        <time>2018-08-01T09:36:11Z</time>
      </trkpt>
      <trkpt lat="47.16354" lon="6.84933">
        <ele>618.448</ele>
        <time>2018-08-01T09:36:14Z</time>
      </trkpt>
      <trkpt lat="47.16355" lon="6.84925">
        <ele>619.04</ele>
        <time>2018-08-01T09:36:17Z</time>
      </trkpt>
      <trkpt lat="47.16354" lon="6.84919">
        <ele>619.656</ele>
        <time>2018-08-01T09:36:20Z</time>
      </trkpt>
      <trkpt lat="47.16354" lon="6.84912">
        <ele>620.253</ele>
        <time>2018-08-01T09:36:23Z</time>
      </trkpt>
      <trkpt lat="47.16352" lon="6.84904">
        <ele>620.768</ele>
        <time>2018-08-01T09:36:26Z</time>
      </trkpt>
      <trkpt lat="47.16352" lon="6.84895">
        <ele>621.257</ele>
        <time>2018-08-01T09:36:29Z</time>
      </trkpt>
      <trkpt lat="47.16353" lon="6.84886">
        <ele>621.554</ele>
        <time>2018-08-01T09:36:32Z</time>
      </trkpt>
      <trkpt lat="47.16353" lon="6.8488">
        <ele>621.756</ele>
        <time>2018-08-01T09:36:34Z</time>
      </trkpt>
      <trkpt lat="47.16352" lon="6.84871">
        <ele>622.011</ele>
        <time>2018-08-01T09:36:37Z</time>
      </trkpt>
      <trkpt lat="47.16351" lon="6.84863">
        <ele>622.408</ele>
        <time>2018-08-01T09:36:40Z</time>
      </trkpt>
      <trkpt lat="47.16351" lon="6.84857">
        <ele>623.067</ele>
        <time>2018-08-01T09:36:43Z</time>
      </trkpt>
      <trkpt lat="47.16351" lon="6.84849">
        <ele>623.732</ele>
        <time>2018-08-01T09:36:47Z</time>
      </trkpt>
      <trkpt lat="47.16352" lon="6.84842">
        <ele>623.836</ele>
        <time>2018-08-01T09:36:50Z</time>
      </trkpt>
      <trkpt lat="47.16357" lon="6.84834">
        <ele>623.358</ele>
        <time>2018-08-01T09:37:08Z</time>
      </trkpt>
      <trkpt lat="47.16358" lon="6.84827">
        <ele>622.914</ele>
        <time>2018-08-01T09:37:14Z</time>
      </trkpt>
      <trkpt lat="47.16356" lon="6.84818">
        <ele>622.361</ele>
        <time>2018-08-01T09:37:17Z</time>
      </trkpt>
      <trkpt lat="47.16355" lon="6.84811">
        <ele>621.946</ele>
        <time>2018-08-01T09:37:19Z</time>
      </trkpt>
      <trkpt lat="47.16353" lon="6.84803">
        <ele>621.665</ele>
        <time>2018-08-01T09:37:21Z</time>
      </trkpt>
      <trkpt lat="47.16351" lon="6.84796">
        <ele>621.427</ele>
        <time>2018-08-01T09:37:23Z</time>
      </trkpt>
      <trkpt lat="47.16349" lon="6.84789">
        <ele>621.468</ele>
        <time>2018-08-01T09:37:25Z</time>
      </trkpt>
      <trkpt lat="47.16347" lon="6.84782">
        <ele>621.414</ele>
        <time>2018-08-01T09:37:27Z</time>
      </trkpt>
      <trkpt lat="47.16348" lon="6.84772">
        <ele>621.408</ele>
        <time>2018-08-01T09:37:29Z</time>
      </trkpt>
      <trkpt lat="47.16352" lon="6.84763">
        <ele>621.414</ele>
        <time>2018-08-01T09:37:31Z</time>
      </trkpt>
      <trkpt lat="47.16355" lon="6.84753">
        <ele>621.549</ele>
        <time>2018-08-01T09:37:33Z</time>
      </trkpt>
      <trkpt lat="47.16358" lon="6.84744">
        <ele>621.663</ele>
        <time>2018-08-01T09:37:35Z</time>
      </trkpt>
      <trkpt lat="47.16362" lon="6.84736">
        <ele>621.685</ele>
        <time>2018-08-01T09:37:37Z</time>
      </trkpt>
      <trkpt lat="47.16366" lon="6.84729">
        <ele>621.661</ele>
        <time>2018-08-01T09:37:39Z</time>
      </trkpt>
      <trkpt lat="47.16369" lon="6.84721">
        <ele>621.768</ele>
        <time>2018-08-01T09:37:41Z</time>
      </trkpt>
      <trkpt lat="47.16371" lon="6.84715">
        <ele>621.973</ele>
        <time>2018-08-01T09:37:43Z</time>
      </trkpt>
      <trkpt lat="47.16373" lon="6.84708">
        <ele>622.392</ele>
        <time>2018-08-01T09:37:45Z</time>
      </trkpt>
      <trkpt lat="47.16376" lon="6.84701">
        <ele>622.548</ele>
        <time>2018-08-01T09:37:47Z</time>
      </trkpt>
      <trkpt lat="47.16379" lon="6.84692">
        <ele>622.661</ele>
        <time>2018-08-01T09:37:49Z</time>
      </trkpt>
      <trkpt lat="47.16382" lon="6.84683">
        <ele>622.617</ele>
        <time>2018-08-01T09:37:51Z</time>
      </trkpt>
      <trkpt lat="47.16384" lon="6.84673">
        <ele>622.608</ele>
        <time>2018-08-01T09:37:53Z</time>
      </trkpt>
      <trkpt lat="47.16387" lon="6.84664">
        <ele>622.656</ele>
        <time>2018-08-01T09:37:55Z</time>
      </trkpt>
      <trkpt lat="47.16392" lon="6.84655">
        <ele>622.611</ele>
        <time>2018-08-01T09:37:57Z</time>
      </trkpt>
      <trkpt lat="47.16397" lon="6.84647">
        <ele>622.545</ele>
        <time>2018-08-01T09:37:59Z</time>
      </trkpt>
      <trkpt lat="47.16402" lon="6.84637">
        <ele>622.467</ele>
        <time>2018-08-01T09:38:01Z</time>
      </trkpt>
      <trkpt lat="47.16406" lon="6.84627">
        <ele>622.243</ele>
        <time>2018-08-01T09:38:03Z</time>
      </trkpt>
      <trkpt lat="47.1641" lon="6.8462">
        <ele>622.23</ele>
        <time>2018-08-01T09:38:05Z</time>
      </trkpt>
      <trkpt lat="47.16412" lon="6.84613">
        <ele>622.355</ele>
        <time>2018-08-01T09:38:07Z</time>
      </trkpt>
      <trkpt lat="47.16416" lon="6.84605">
        <ele>622.544</ele>
        <time>2018-08-01T09:38:10Z</time>
      </trkpt>
      <trkpt lat="47.1642" lon="6.846">
        <ele>622.826</ele>
        <time>2018-08-01T09:38:12Z</time>
      </trkpt>
      <trkpt lat="47.16424" lon="6.84595">
        <ele>623.047</ele>
        <time>2018-08-01T09:38:14Z</time>
      </trkpt>
      <trkpt lat="47.1643" lon="6.84589">
        <ele>623.111</ele>
        <time>2018-08-01T09:38:16Z</time>
      </trkpt>
      <trkpt lat="47.16436" lon="6.84582">
        <ele>623.008</ele>
        <time>2018-08-01T09:38:18Z</time>
      </trkpt>
      <trkpt lat="47.1644" lon="6.84576">
        <ele>622.974</ele>
        <time>2018-08-01T09:38:20Z</time>
      </trkpt>
      <trkpt lat="47.16445" lon="6.8457">
        <ele>622.649</ele>
        <time>2018-08-01T09:38:22Z</time>
      </trkpt>
      <trkpt lat="47.16448" lon="6.84563">
        <ele>622.273</ele>
        <time>2018-08-01T09:38:24Z</time>
      </trkpt>
      <trkpt lat="47.16453" lon="6.84553">
        <ele>621.645</ele>
        <time>2018-08-01T09:38:26Z</time>
      </trkpt>
      <trkpt lat="47.16455" lon="6.84545">
        <ele>620.721</ele>
        <time>2018-08-01T09:38:28Z</time>
      </trkpt>
      <trkpt lat="47.16456" lon="6.84538">
        <ele>619.968</ele>
        <time>2018-08-01T09:38:30Z</time>
      </trkpt>
      <trkpt lat="47.16459" lon="6.8453">
        <ele>618.773</ele>
        <time>2018-08-01T09:38:33Z</time>
      </trkpt>
      <trkpt lat="47.16462" lon="6.84523">
        <ele>618.082</ele>
        <time>2018-08-01T09:38:35Z</time>
      </trkpt>
      <trkpt lat="47.16466" lon="6.84514">
        <ele>617.718</ele>
        <time>2018-08-01T09:38:37Z</time>
      </trkpt>
      <trkpt lat="47.16469" lon="6.84507">
        <ele>617.698</ele>
        <time>2018-08-01T09:38:39Z</time>
      </trkpt>
      <trkpt lat="47.16471" lon="6.845">
        <ele>617.617</ele>
        <time>2018-08-01T09:38:41Z</time>
      </trkpt>
      <trkpt lat="47.16474" lon="6.84493">
        <ele>617.508</ele>
        <time>2018-08-01T09:38:43Z</time>
      </trkpt>
      <trkpt lat="47.16476" lon="6.84487">
        <ele>617.353</ele>
        <time>2018-08-01T09:38:45Z</time>
      </trkpt>
      <trkpt lat="47.16478" lon="6.84479">
        <ele>617.228</ele>
        <time>2018-08-01T09:38:48Z</time>
      </trkpt>
      <trkpt lat="47.16483" lon="6.84473">
        <ele>617.272</ele>
        <time>2018-08-01T09:38:51Z</time>
      </trkpt>
      <trkpt lat="47.16488" lon="6.84468">
        <ele>617.124</ele>
        <time>2018-08-01T09:38:54Z</time>
      </trkpt>
      <trkpt lat="47.16491" lon="6.84459">
        <ele>617.28</ele>
        <time>2018-08-01T09:38:57Z</time>
      </trkpt>
      <trkpt lat="47.16493" lon="6.84451">
        <ele>617.387</ele>
        <time>2018-08-01T09:39:00Z</time>
      </trkpt>
      <trkpt lat="47.16498" lon="6.84445">
        <ele>617.342</ele>
        <time>2018-08-01T09:39:03Z</time>
      </trkpt>
      <trkpt lat="47.16501" lon="6.8444">
        <ele>617.371</ele>
        <time>2018-08-01T09:39:05Z</time>
      </trkpt>
      <trkpt lat="47.16504" lon="6.84433">
        <ele>617.331</ele>
        <time>2018-08-01T09:39:07Z</time>
      </trkpt>
      <trkpt lat="47.16507" lon="6.84426">
        <ele>617.461</ele>
        <time>2018-08-01T09:39:09Z</time>
      </trkpt>
      <trkpt lat="47.1651" lon="6.84419">
        <ele>617.607</ele>
        <time>2018-08-01T09:39:11Z</time>
      </trkpt>
      <trkpt lat="47.16512" lon="6.84414">
        <ele>617.808</ele>
        <time>2018-08-01T09:39:13Z</time>
      </trkpt>
      <trkpt lat="47.16517" lon="6.84411">
        <ele>617.925</ele>
        <time>2018-08-01T09:39:15Z</time>
      </trkpt>
      <trkpt lat="47.16522" lon="6.84408">
        <ele>618.04</ele>
        <time>2018-08-01T09:39:17Z</time>
      </trkpt>
      <trkpt lat="47.16528" lon="6.84405">
        <ele>617.954</ele>
        <time>2018-08-01T09:39:19Z</time>
      </trkpt>
      <trkpt lat="47.16535" lon="6.84406">
        <ele>617.726</ele>
        <time>2018-08-01T09:39:21Z</time>
      </trkpt>
      <trkpt lat="47.16543" lon="6.84405">
        <ele>617.562</ele>
        <time>2018-08-01T09:39:23Z</time>
      </trkpt>
      <trkpt lat="47.1655" lon="6.84403">
        <ele>617.539</ele>
        <time>2018-08-01T09:39:25Z</time>
      </trkpt>
      <trkpt lat="47.16555" lon="6.844">
        <ele>617.854</ele>
        <time>2018-08-01T09:39:27Z</time>
      </trkpt>
      <trkpt lat="47.16563" lon="6.84399">
        <ele>618.263</ele>
        <time>2018-08-01T09:39:29Z</time>
      </trkpt>
      <trkpt lat="47.16568" lon="6.84396">
        <ele>618.549</ele>
        <time>2018-08-01T09:39:31Z</time>
      </trkpt>
      <trkpt lat="47.16572" lon="6.8439">
        <ele>618.702</ele>
        <time>2018-08-01T09:39:33Z</time>
      </trkpt>
      <trkpt lat="47.16577" lon="6.84385">
        <ele>618.922</ele>
        <time>2018-08-01T09:39:35Z</time>
      </trkpt>
      <trkpt lat="47.16581" lon="6.84381">
        <ele>618.908</ele>
        <time>2018-08-01T09:39:37Z</time>
      </trkpt>
      <trkpt lat="47.16586" lon="6.84375">
        <ele>618.886</ele>
        <time>2018-08-01T09:39:39Z</time>
      </trkpt>
      <trkpt lat="47.16592" lon="6.84372">
        <ele>618.741</ele>
        <time>2018-08-01T09:39:41Z</time>
      </trkpt>
      <trkpt lat="47.16598" lon="6.84368">
        <ele>618.675</ele>
        <time>2018-08-01T09:39:43Z</time>
      </trkpt>
      <trkpt lat="47.16605" lon="6.84361">
        <ele>618.267</ele>
        <time>2018-08-01T09:39:45Z</time>
      </trkpt>
      <trkpt lat="47.16609" lon="6.84353">
        <ele>617.733</ele>
        <time>2018-08-01T09:39:47Z</time>
      </trkpt>
      <trkpt lat="47.16612" lon="6.84346">
        <ele>617.69</ele>
        <time>2018-08-01T09:39:49Z</time>
      </trkpt>
      <trkpt lat="47.16615" lon="6.84339">
        <ele>618.025</ele>
        <time>2018-08-01T09:39:51Z</time>
      </trkpt>
      <trkpt lat="47.16617" lon="6.84333">
        <ele>618.484</ele>
        <time>2018-08-01T09:39:53Z</time>
      </trkpt>
      <trkpt lat="47.1662" lon="6.84327">
        <ele>618.764</ele>
        <time>2018-08-01T09:39:55Z</time>
      </trkpt>
      <trkpt lat="47.16622" lon="6.84322">
        <ele>619.006</ele>
        <time>2018-08-01T09:39:57Z</time>
      </trkpt>
      <trkpt lat="47.16626" lon="6.84315">
        <ele>619.316</ele>
        <time>2018-08-01T09:39:59Z</time>
      </trkpt>
      <trkpt lat="47.16628" lon="6.84307">
        <ele>619.808</ele>
        <time>2018-08-01T09:40:02Z</time>
      </trkpt>
      <trkpt lat="47.16631" lon="6.84301">
        <ele>620.238</ele>
        <time>2018-08-01T09:40:04Z</time>
      </trkpt>
      <trkpt lat="47.16635" lon="6.84296">
        <ele>620.473</ele>
        <time>2018-08-01T09:40:06Z</time>
      </trkpt>
      <trkpt lat="47.16639" lon="6.8429">
        <ele>620.887</ele>
        <time>2018-08-01T09:40:09Z</time>
      </trkpt>
      <trkpt lat="47.16642" lon="6.84283">
        <ele>620.969</ele>
        <time>2018-08-01T09:40:11Z</time>
      </trkpt>
      <trkpt lat="47.16645" lon="6.84278">
        <ele>620.985</ele>
        <time>2018-08-01T09:40:13Z</time>
      </trkpt>
      <trkpt lat="47.16647" lon="6.84269">
        <ele>620.742</ele>
        <time>2018-08-01T09:40:16Z</time>
      </trkpt>
      <trkpt lat="47.1665" lon="6.84263">
        <ele>620.767</ele>
        <time>2018-08-01T09:40:18Z</time>
      </trkpt>
      <trkpt lat="47.16653" lon="6.84257">
        <ele>620.726</ele>
        <time>2018-08-01T09:40:20Z</time>
      </trkpt>
      <trkpt lat="47.16657" lon="6.84254">
        <ele>620.754</ele>
        <time>2018-08-01T09:40:22Z</time>
      </trkpt>
      <trkpt lat="47.16662" lon="6.84254">
        <ele>620.656</ele>
        <time>2018-08-01T09:40:24Z</time>
      </trkpt>
      <trkpt lat="47.16668" lon="6.84253">
        <ele>620.711</ele>
        <time>2018-08-01T09:40:26Z</time>
      </trkpt>
      <trkpt lat="47.16673" lon="6.8425">
        <ele>620.808</ele>
        <time>2018-08-01T09:40:28Z</time>
      </trkpt>
      <trkpt lat="47.16677" lon="6.84241">
        <ele>620.747</ele>
        <time>2018-08-01T09:40:31Z</time>
      </trkpt>
      <trkpt lat="47.16677" lon="6.84232">
        <ele>620.432</ele>
        <time>2018-08-01T09:40:33Z</time>
      </trkpt>
      <trkpt lat="47.16677" lon="6.84223">
        <ele>620.156</ele>
        <time>2018-08-01T09:40:35Z</time>
      </trkpt>
      <trkpt lat="47.16678" lon="6.84213">
        <ele>620.128</ele>
        <time>2018-08-01T09:40:37Z</time>
      </trkpt>
      <trkpt lat="47.16679" lon="6.84203">
        <ele>620.254</ele>
        <time>2018-08-01T09:40:39Z</time>
      </trkpt>
      <trkpt lat="47.16681" lon="6.84197">
        <ele>620.341</ele>
        <time>2018-08-01T09:40:41Z</time>
      </trkpt>
      <trkpt lat="47.16685" lon="6.84191">
        <ele>620.656</ele>
        <time>2018-08-01T09:40:44Z</time>
      </trkpt>
      <trkpt lat="47.16688" lon="6.84184">
        <ele>621.275</ele>
        <time>2018-08-01T09:40:46Z</time>
      </trkpt>
      <trkpt lat="47.16693" lon="6.84177">
        <ele>622.118</ele>
        <time>2018-08-01T09:40:49Z</time>
      </trkpt>
      <trkpt lat="47.16698" lon="6.8417">
        <ele>622.798</ele>
        <time>2018-08-01T09:40:51Z</time>
      </trkpt>
      <trkpt lat="47.16702" lon="6.84161">
        <ele>623.317</ele>
        <time>2018-08-01T09:40:53Z</time>
      </trkpt>
      <trkpt lat="47.16705" lon="6.84154">
        <ele>623.808</ele>
        <time>2018-08-01T09:40:55Z</time>
      </trkpt>
      <trkpt lat="47.16709" lon="6.84148">
        <ele>624.243</ele>
        <time>2018-08-01T09:40:57Z</time>
      </trkpt>
      <trkpt lat="47.16712" lon="6.84143">
        <ele>624.768</ele>
        <time>2018-08-01T09:40:59Z</time>
      </trkpt>
      <trkpt lat="47.16717" lon="6.84136">
        <ele>625.162</ele>
        <time>2018-08-01T09:41:01Z</time>
      </trkpt>
      <trkpt lat="47.16721" lon="6.84131">
        <ele>625.634</ele>
        <time>2018-08-01T09:41:03Z</time>
      </trkpt>
      <trkpt lat="47.16726" lon="6.84125">
        <ele>626.24</ele>
        <time>2018-08-01T09:41:05Z</time>
      </trkpt>
      <trkpt lat="47.16729" lon="6.84118">
        <ele>626.587</ele>
        <time>2018-08-01T09:41:07Z</time>
      </trkpt>
      <trkpt lat="47.16733" lon="6.8411">
        <ele>627.142</ele>
        <time>2018-08-01T09:41:09Z</time>
      </trkpt>
      <trkpt lat="47.16739" lon="6.84103">
        <ele>627.671</ele>
        <time>2018-08-01T09:41:11Z</time>
      </trkpt>
      <trkpt lat="47.16743" lon="6.84098">
        <ele>628.169</ele>
        <time>2018-08-01T09:41:13Z</time>
      </trkpt>
      <trkpt lat="47.16748" lon="6.84095">
        <ele>628.604</ele>
        <time>2018-08-01T09:41:15Z</time>
      </trkpt>
      <trkpt lat="47.16752" lon="6.84092">
        <ele>629.224</ele>
        <time>2018-08-01T09:41:17Z</time>
      </trkpt>
      <trkpt lat="47.16757" lon="6.84086">
        <ele>629.808</ele>
        <time>2018-08-01T09:41:19Z</time>
      </trkpt>
      <trkpt lat="47.16759" lon="6.84081">
        <ele>630.458</ele>
        <time>2018-08-01T09:41:21Z</time>
      </trkpt>
      <trkpt lat="47.16762" lon="6.84075">
        <ele>630.933</ele>
        <time>2018-08-01T09:41:23Z</time>
      </trkpt>
      <trkpt lat="47.16766" lon="6.8407">
        <ele>631.337</ele>
        <time>2018-08-01T09:41:25Z</time>
      </trkpt>
      <trkpt lat="47.16771" lon="6.84066">
        <ele>631.529</ele>
        <time>2018-08-01T09:41:27Z</time>
      </trkpt>
      <trkpt lat="47.16775" lon="6.84059">
        <ele>632.035</ele>
        <time>2018-08-01T09:41:30Z</time>
      </trkpt>
      <trkpt lat="47.16779" lon="6.84052">
        <ele>632.442</ele>
        <time>2018-08-01T09:41:33Z</time>
      </trkpt>
      <trkpt lat="47.16782" lon="6.84046">
        <ele>632.727</ele>
        <time>2018-08-01T09:41:35Z</time>
      </trkpt>
      <trkpt lat="47.16785" lon="6.84041">
        <ele>633.096</ele>
        <time>2018-08-01T09:41:37Z</time>
      </trkpt>
      <trkpt lat="47.16788" lon="6.84035">
        <ele>633.377</ele>
        <time>2018-08-01T09:41:39Z</time>
      </trkpt>
      <trkpt lat="47.16792" lon="6.84028">
        <ele>633.661</ele>
        <time>2018-08-01T09:41:41Z</time>
      </trkpt>
      <trkpt lat="47.16796" lon="6.84022">
        <ele>633.827</ele>
        <time>2018-08-01T09:41:43Z</time>
      </trkpt>
      <trkpt lat="47.16799" lon="6.84017">
        <ele>634.108</ele>
        <time>2018-08-01T09:41:45Z</time>
      </trkpt>
      <trkpt lat="47.16806" lon="6.84013">
        <ele>634.459</ele>
        <time>2018-08-01T09:41:47Z</time>
      </trkpt>
      <trkpt lat="47.16814" lon="6.8401">
        <ele>634.884</ele>
        <time>2018-08-01T09:41:49Z</time>
      </trkpt>
      <trkpt lat="47.16817" lon="6.84005">
        <ele>635.538</ele>
        <time>2018-08-01T09:41:52Z</time>
      </trkpt>
      <trkpt lat="47.16822" lon="6.83999">
        <ele>636.03</ele>
        <time>2018-08-01T09:41:55Z</time>
      </trkpt>
      <trkpt lat="47.16828" lon="6.83992">
        <ele>636.256</ele>
        <time>2018-08-01T09:41:58Z</time>
      </trkpt>
      <trkpt lat="47.16833" lon="6.83987">
        <ele>636.383</ele>
        <time>2018-08-01T09:42:00Z</time>
      </trkpt>
      <trkpt lat="47.16838" lon="6.83985">
        <ele>636.458</ele>
        <time>2018-08-01T09:42:02Z</time>
      </trkpt>
      <trkpt lat="47.16844" lon="6.83983">
        <ele>636.777</ele>
        <time>2018-08-01T09:42:04Z</time>
      </trkpt>
      <trkpt lat="47.1685" lon="6.83981">
        <ele>637.033</ele>
        <time>2018-08-01T09:42:06Z</time>
      </trkpt>
      <trkpt lat="47.16854" lon="6.83979">
        <ele>637.423</ele>
        <time>2018-08-01T09:42:09Z</time>
      </trkpt>
      <trkpt lat="47.16858" lon="6.83984">
        <ele>638.015</ele>
        <time>2018-08-01T09:42:18Z</time>
      </trkpt>
      <trkpt lat="47.16863" lon="6.83983">
        <ele>638.008</ele>
        <time>2018-08-01T09:42:28Z</time>
      </trkpt>
      <trkpt lat="47.16867" lon="6.83987">
        <ele>637.135</ele>
        <time>2018-08-01T09:42:37Z</time>
      </trkpt>
      <trkpt lat="47.16873" lon="6.83983">
        <ele>636.87</ele>
        <time>2018-08-01T09:42:40Z</time>
      </trkpt>
      <trkpt lat="47.16876" lon="6.83979">
        <ele>636.734</ele>
        <time>2018-08-01T09:42:43Z</time>
      </trkpt>
      <trkpt lat="47.16881" lon="6.83976">
        <ele>636.726</ele>
        <time>2018-08-01T09:42:46Z</time>
      </trkpt>
      <trkpt lat="47.16885" lon="6.83973">
        <ele>636.852</ele>
        <time>2018-08-01T09:42:49Z</time>
      </trkpt>
      <trkpt lat="47.16891" lon="6.83969">
        <ele>637.099</ele>
        <time>2018-08-01T09:42:52Z</time>
      </trkpt>
      <trkpt lat="47.16896" lon="6.83968">
        <ele>637.144</ele>
        <time>2018-08-01T09:42:54Z</time>
      </trkpt>
      <trkpt lat="47.16901" lon="6.8396">
        <ele>637.163</ele>
        <time>2018-08-01T09:42:57Z</time>
      </trkpt>
      <trkpt lat="47.16903" lon="6.83954">
        <ele>637.083</ele>
        <time>2018-08-01T09:42:59Z</time>
      </trkpt>
      <trkpt lat="47.16907" lon="6.83951">
        <ele>637.125</ele>
        <time>2018-08-01T09:43:03Z</time>
      </trkpt>
      <trkpt lat="47.16913" lon="6.83949">
        <ele>637.217</ele>
        <time>2018-08-01T09:43:05Z</time>
      </trkpt>
      <trkpt lat="47.16917" lon="6.83945">
        <ele>637.308</ele>
        <time>2018-08-01T09:43:07Z</time>
      </trkpt>
      <trkpt lat="47.1692" lon="6.83939">
        <ele>637.58</ele>
        <time>2018-08-01T09:43:09Z</time>
      </trkpt>
      <trkpt lat="47.16923" lon="6.83933">
        <ele>638.195</ele>
        <time>2018-08-01T09:43:12Z</time>
      </trkpt>
      <trkpt lat="47.16924" lon="6.83926">
        <ele>638.839</ele>
        <time>2018-08-01T09:43:15Z</time>
      </trkpt>
      <trkpt lat="47.16929" lon="6.83922">
        <ele>639.651</ele>
        <time>2018-08-01T09:43:19Z</time>
      </trkpt>
      <trkpt lat="47.16935" lon="6.83919">
        <ele>640.337</ele>
        <time>2018-08-01T09:43:22Z</time>
      </trkpt>
      <trkpt lat="47.16939" lon="6.83915">
        <ele>640.944</ele>
        <time>2018-08-01T09:43:26Z</time>
      </trkpt>
      <trkpt lat="47.16943" lon="6.8391">
        <ele>641.399</ele>
        <time>2018-08-01T09:43:28Z</time>
      </trkpt>
      <trkpt lat="47.16947" lon="6.83905">
        <ele>642.288</ele>
        <time>2018-08-01T09:43:32Z</time>
      </trkpt>
      <trkpt lat="47.1695" lon="6.83901">
        <ele>642.526</ele>
        <time>2018-08-01T09:43:35Z</time>
      </trkpt>
      <trkpt lat="47.16954" lon="6.83894">
        <ele>642.747</ele>
        <time>2018-08-01T09:43:39Z</time>
      </trkpt>
      <trkpt lat="47.16959" lon="6.8389">
        <ele>642.911</ele>
        <time>2018-08-01T09:43:42Z</time>
      </trkpt>
      <trkpt lat="47.16964" lon="6.83886">
        <ele>643.208</ele>
        <time>2018-08-01T09:43:45Z</time>
      </trkpt>
      <trkpt lat="47.16969" lon="6.83883">
        <ele>643.744</ele>
        <time>2018-08-01T09:43:48Z</time>
      </trkpt>
      <trkpt lat="47.16975" lon="6.83879">
        <ele>644.329</ele>
        <time>2018-08-01T09:43:51Z</time>
      </trkpt>
      <trkpt lat="47.16981" lon="6.83876">
        <ele>644.763</ele>
        <time>2018-08-01T09:43:54Z</time>
      </trkpt>
      <trkpt lat="47.16987" lon="6.83874">
        <ele>645.045</ele>
        <time>2018-08-01T09:43:56Z</time>
      </trkpt>
      <trkpt lat="47.16993" lon="6.83869">
        <ele>645.081</ele>
        <time>2018-08-01T09:43:58Z</time>
      </trkpt>
      <trkpt lat="47.16997" lon="6.83863">
        <ele>644.848</ele>
        <time>2018-08-01T09:44:00Z</time>
      </trkpt>
      <trkpt lat="47.17002" lon="6.83858">
        <ele>644.583</ele>
        <time>2018-08-01T09:44:02Z</time>
      </trkpt>
      <trkpt lat="47.17007" lon="6.83856">
        <ele>644.252</ele>
        <time>2018-08-01T09:44:04Z</time>
      </trkpt>
      <trkpt lat="47.17013" lon="6.83854">
        <ele>643.968</ele>
        <time>2018-08-01T09:44:06Z</time>
      </trkpt>
      <trkpt lat="47.1702" lon="6.83853">
        <ele>643.642</ele>
        <time>2018-08-01T09:44:08Z</time>
      </trkpt>
      <trkpt lat="47.17026" lon="6.83853">
        <ele>643.526</ele>
        <time>2018-08-01T09:44:10Z</time>
      </trkpt>
      <trkpt lat="47.1703" lon="6.83856">
        <ele>643.808</ele>
        <time>2018-08-01T09:44:13Z</time>
      </trkpt>
      <trkpt lat="47.17035" lon="6.83858">
        <ele>644.228</ele>
        <time>2018-08-01T09:44:15Z</time>
      </trkpt>
      <trkpt lat="47.17041" lon="6.8386">
        <ele>644.743</ele>
        <time>2018-08-01T09:44:17Z</time>
      </trkpt>
      <trkpt lat="47.17046" lon="6.83861">
        <ele>644.947</ele>
        <time>2018-08-01T09:44:19Z</time>
      </trkpt>
      <trkpt lat="47.17055" lon="6.83861">
        <ele>645.439</ele>
        <time>2018-08-01T09:44:21Z</time>
      </trkpt>
      <trkpt lat="47.17062" lon="6.83861">
        <ele>645.865</ele>
        <time>2018-08-01T09:44:23Z</time>
      </trkpt>
      <trkpt lat="47.1707" lon="6.83862">
        <ele>646.342</ele>
        <time>2018-08-01T09:44:25Z</time>
      </trkpt>
      <trkpt lat="47.17076" lon="6.83862">
        <ele>646.827</ele>
        <time>2018-08-01T09:44:27Z</time>
      </trkpt>
      <trkpt lat="47.17083" lon="6.83862">
        <ele>647.216</ele>
        <time>2018-08-01T09:44:29Z</time>
      </trkpt>
      <trkpt lat="47.17089" lon="6.83861">
        <ele>647.577</ele>
        <time>2018-08-01T09:44:31Z</time>
      </trkpt>
      <trkpt lat="47.17094" lon="6.83863">
        <ele>647.761</ele>
        <time>2018-08-01T09:44:34Z</time>
      </trkpt>
      <trkpt lat="47.17097" lon="6.83869">
        <ele>647.827</ele>
        <time>2018-08-01T09:44:38Z</time>
      </trkpt>
      <trkpt lat="47.17102" lon="6.83872">
        <ele>647.308</ele>
        <time>2018-08-01T09:44:42Z</time>
      </trkpt>
      <trkpt lat="47.17107" lon="6.83873">
        <ele>646.599</ele>
        <time>2018-08-01T09:44:45Z</time>
      </trkpt>
      <trkpt lat="47.17111" lon="6.83876">
        <ele>645.654</ele>
        <time>2018-08-01T09:44:50Z</time>
      </trkpt>
      <trkpt lat="47.17116" lon="6.8388">
        <ele>645.278</ele>
        <time>2018-08-01T09:44:53Z</time>
      </trkpt>
      <trkpt lat="47.1712" lon="6.83883">
        <ele>644.08</ele>
        <time>2018-08-01T09:45:02Z</time>
      </trkpt>
      <trkpt lat="47.17123" lon="6.83889">
        <ele>642.836</ele>
        <time>2018-08-01T09:45:09Z</time>
      </trkpt>
      <trkpt lat="47.17126" lon="6.83894">
        <ele>641.723</ele>
        <time>2018-08-01T09:45:13Z</time>
      </trkpt>
      <trkpt lat="47.1713" lon="6.83898">
        <ele>640.218</ele>
        <time>2018-08-01T09:45:19Z</time>
      </trkpt>
      <trkpt lat="47.17133" lon="6.83906">
        <ele>639.637</ele>
        <time>2018-08-01T09:47:06Z</time>
      </trkpt>
      <trkpt lat="47.17137" lon="6.8391">
        <ele>638.771</ele>
        <time>2018-08-01T09:47:13Z</time>
      </trkpt>
      <trkpt lat="47.17142" lon="6.8391">
        <ele>638.441</ele>
        <time>2018-08-01T09:47:16Z</time>
      </trkpt>
      <trkpt lat="47.17147" lon="6.83912">
        <ele>637.615</ele>
        <time>2018-08-01T09:47:21Z</time>
      </trkpt>
      <trkpt lat="47.17151" lon="6.83917">
        <ele>636.908</ele>
        <time>2018-08-01T09:47:25Z</time>
      </trkpt>
      <trkpt lat="47.17152" lon="6.83923">
        <ele>636.079</ele>
        <time>2018-08-01T09:47:29Z</time>
      </trkpt>
      <trkpt lat="47.17152" lon="6.8393">
        <ele>634.044</ele>
        <time>2018-08-01T09:47:49Z</time>
      </trkpt>
      <trkpt lat="47.17155" lon="6.83936">
        <ele>632.838</ele>
        <time>2018-08-01T09:47:58Z</time>
      </trkpt>
      <trkpt lat="47.17159" lon="6.83939">
        <ele>632.28</ele>
        <time>2018-08-01T09:48:03Z</time>
      </trkpt>
      <trkpt lat="47.17163" lon="6.83945">
        <ele>631.326</ele>
        <time>2018-08-01T09:48:07Z</time>
      </trkpt>
      <trkpt lat="47.17167" lon="6.83948">
        <ele>630.333</ele>
        <time>2018-08-01T09:48:10Z</time>
      </trkpt>
      <trkpt lat="47.1717" lon="6.83953">
        <ele>629.068</ele>
        <time>2018-08-01T09:48:13Z</time>
      </trkpt>
      <trkpt lat="47.17174" lon="6.83959">
        <ele>627.997</ele>
        <time>2018-08-01T09:48:16Z</time>
      </trkpt>
      <trkpt lat="47.17178" lon="6.83964">
        <ele>626.879</ele>
        <time>2018-08-01T09:48:19Z</time>
      </trkpt>
      <trkpt lat="47.17181" lon="6.83971">
        <ele>626.205</ele>
        <time>2018-08-01T09:50:33Z</time>
      </trkpt>
      <trkpt lat="47.17177" lon="6.83966">
        <ele>625.925</ele>
        <time>2018-08-01T09:55:03Z</time>
      </trkpt>
      <trkpt lat="47.17172" lon="6.83963">
        <ele>626.108</ele>
        <time>2018-08-01T09:55:10Z</time>
      </trkpt>
      <trkpt lat="47.17167" lon="6.83962">
        <ele>626.749</ele>
        <time>2018-08-01T09:55:30Z</time>
      </trkpt>
      <trkpt lat="47.17165" lon="6.83957">
        <ele>628.254</ele>
        <time>2018-08-01T09:55:36Z</time>
      </trkpt>
      <trkpt lat="47.17162" lon="6.83951">
        <ele>629.328</ele>
        <time>2018-08-01T09:55:41Z</time>
      </trkpt>
      <trkpt lat="47.17158" lon="6.83947">
        <ele>631.14</ele>
        <time>2018-08-01T09:55:48Z</time>
      </trkpt>
      <trkpt lat="47.17155" lon="6.83941">
        <ele>632.186</ele>
        <time>2018-08-01T09:55:55Z</time>
      </trkpt>
      <trkpt lat="47.17152" lon="6.83936">
        <ele>633.783</ele>
        <time>2018-08-01T09:56:06Z</time>
      </trkpt>
      <trkpt lat="47.1715" lon="6.83931">
        <ele>634.538</ele>
        <time>2018-08-01T09:56:11Z</time>
      </trkpt>
      <trkpt lat="47.17145" lon="6.83932">
        <ele>635.657</ele>
        <time>2018-08-01T09:56:24Z</time>
      </trkpt>
      <trkpt lat="47.17143" lon="6.83926">
        <ele>636.022</ele>
        <time>2018-08-01T09:56:28Z</time>
      </trkpt>
      <trkpt lat="47.17143" lon="6.83918">
        <ele>636.762</ele>
        <time>2018-08-01T09:56:33Z</time>
      </trkpt>
      <trkpt lat="47.17142" lon="6.83911">
        <ele>637.608</ele>
        <time>2018-08-01T09:56:38Z</time>
      </trkpt>
      <trkpt lat="47.17137" lon="6.83909">
        <ele>639.308</ele>
        <time>2018-08-01T09:56:47Z</time>
      </trkpt>
      <trkpt lat="47.17134" lon="6.83903">
        <ele>640.174</ele>
        <time>2018-08-01T09:56:52Z</time>
      </trkpt>
      <trkpt lat="47.1713" lon="6.83906">
        <ele>641.049</ele>
        <time>2018-08-01T09:57:11Z</time>
      </trkpt>
      <trkpt lat="47.17125" lon="6.83902">
        <ele>641.113</ele>
        <time>2018-08-01T09:57:17Z</time>
      </trkpt>
      <trkpt lat="47.17123" lon="6.83897">
        <ele>642.055</ele>
        <time>2018-08-01T09:57:23Z</time>
      </trkpt>
      <trkpt lat="47.17119" lon="6.83892">
        <ele>643.161</ele>
        <time>2018-08-01T09:57:29Z</time>
      </trkpt>
      <trkpt lat="47.17117" lon="6.83886">
        <ele>644.448</ele>
        <time>2018-08-01T09:57:36Z</time>
      </trkpt>
      <trkpt lat="47.17113" lon="6.83882">
        <ele>645.693</ele>
        <time>2018-08-01T09:57:45Z</time>
      </trkpt>
      <trkpt lat="47.1711" lon="6.83876">
        <ele>646.752</ele>
        <time>2018-08-01T09:57:50Z</time>
      </trkpt>
      <trkpt lat="47.17106" lon="6.83875">
        <ele>647.623</ele>
        <time>2018-08-01T09:57:54Z</time>
      </trkpt>
      <trkpt lat="47.17101" lon="6.83876">
        <ele>648.083</ele>
        <time>2018-08-01T10:02:27Z</time>
      </trkpt>
      <trkpt lat="47.17096" lon="6.83877">
        <ele>647.811</ele>
        <time>2018-08-01T10:02:30Z</time>
      </trkpt>
      <trkpt lat="47.17091" lon="6.83876">
        <ele>647.708</ele>
        <time>2018-08-01T10:02:32Z</time>
      </trkpt>
      <trkpt lat="47.17086" lon="6.83876">
        <ele>647.494</ele>
        <time>2018-08-01T10:02:34Z</time>
      </trkpt>
      <trkpt lat="47.1708" lon="6.83877">
        <ele>647.159</ele>
        <time>2018-08-01T10:02:36Z</time>
      </trkpt>
      <trkpt lat="47.17074" lon="6.83875">
        <ele>646.633</ele>
        <time>2018-08-01T10:02:38Z</time>
      </trkpt>
      <trkpt lat="47.17067" lon="6.83874">
        <ele>646.025</ele>
        <time>2018-08-01T10:02:40Z</time>
      </trkpt>
      <trkpt lat="47.1706" lon="6.83872">
        <ele>645.691</ele>
        <time>2018-08-01T10:02:42Z</time>
      </trkpt>
      <trkpt lat="47.17053" lon="6.83864">
        <ele>645.038</ele>
        <time>2018-08-01T10:02:44Z</time>
      </trkpt>
      <trkpt lat="47.17049" lon="6.8386">
        <ele>644.753</ele>
        <time>2018-08-01T10:02:45Z</time>
      </trkpt>
      <trkpt lat="47.17044" lon="6.83858">
        <ele>644.242</ele>
        <time>2018-08-01T10:02:46Z</time>
      </trkpt>
      <trkpt lat="47.17039" lon="6.83857">
        <ele>643.946</ele>
        <time>2018-08-01T10:02:47Z</time>
      </trkpt>
      <trkpt lat="47.17026" lon="6.8386">
        <ele>643.788</ele>
        <time>2018-08-01T10:02:48Z</time>
      </trkpt>
      <trkpt lat="47.17021" lon="6.83862">
        <ele>643.716</ele>
        <time>2018-08-01T10:02:49Z</time>
      </trkpt>
      <trkpt lat="47.17016" lon="6.83866">
        <ele>643.808</ele>
        <time>2018-08-01T10:02:54Z</time>
      </trkpt>
      <trkpt lat="47.17011" lon="6.83868">
        <ele>644.316</ele>
        <time>2018-08-01T10:02:57Z</time>
      </trkpt>
      <trkpt lat="47.17006" lon="6.83869">
        <ele>644.531</ele>
        <time>2018-08-01T10:02:59Z</time>
      </trkpt>
      <trkpt lat="47.17001" lon="6.83869">
        <ele>644.725</ele>
        <time>2018-08-01T10:03:01Z</time>
      </trkpt>
      <trkpt lat="47.16996" lon="6.83871">
        <ele>645.077</ele>
        <time>2018-08-01T10:03:03Z</time>
      </trkpt>
      <trkpt lat="47.16989" lon="6.83874">
        <ele>645.133</ele>
        <time>2018-08-01T10:03:05Z</time>
      </trkpt>
      <trkpt lat="47.16982" lon="6.83879">
        <ele>645.09</ele>
        <time>2018-08-01T10:03:07Z</time>
      </trkpt>
      <trkpt lat="47.16975" lon="6.83886">
        <ele>644.865</ele>
        <time>2018-08-01T10:03:09Z</time>
      </trkpt>
      <trkpt lat="47.16972" lon="6.8389">
        <ele>644.664</ele>
        <time>2018-08-01T10:03:10Z</time>
      </trkpt>
      <trkpt lat="47.16968" lon="6.83894">
        <ele>644.344</ele>
        <time>2018-08-01T10:03:11Z</time>
      </trkpt>
      <trkpt lat="47.16961" lon="6.83901">
        <ele>643.705</ele>
        <time>2018-08-01T10:03:13Z</time>
      </trkpt>
      <trkpt lat="47.16954" lon="6.83903">
        <ele>643.515</ele>
        <time>2018-08-01T10:03:15Z</time>
      </trkpt>
      <trkpt lat="47.1695" lon="6.83906">
        <ele>643.208</ele>
        <time>2018-08-01T10:03:17Z</time>
      </trkpt>
      <trkpt lat="47.16944" lon="6.8391">
        <ele>643.026</ele>
        <time>2018-08-01T10:03:19Z</time>
      </trkpt>
      <trkpt lat="47.16938" lon="6.83916">
        <ele>642.541</ele>
        <time>2018-08-01T10:03:21Z</time>
      </trkpt>
      <trkpt lat="47.16934" lon="6.83922">
        <ele>641.645</ele>
        <time>2018-08-01T10:03:23Z</time>
      </trkpt>
      <trkpt lat="47.1693" lon="6.83927">
        <ele>640.757</ele>
        <time>2018-08-01T10:03:25Z</time>
      </trkpt>
      <trkpt lat="47.16922" lon="6.83934">
        <ele>639.823</ele>
        <time>2018-08-01T10:03:27Z</time>
      </trkpt>
      <trkpt lat="47.16912" lon="6.83942">
        <ele>639.76</ele>
        <time>2018-08-01T10:03:28Z</time>
      </trkpt>
      <trkpt lat="47.16907" lon="6.83947">
        <ele>639.485</ele>
        <time>2018-08-01T10:03:29Z</time>
      </trkpt>
      <trkpt lat="47.16902" lon="6.83957">
        <ele>638.744</ele>
        <time>2018-08-01T10:03:31Z</time>
      </trkpt>
      <trkpt lat="47.16895" lon="6.83962">
        <ele>638.078</ele>
        <time>2018-08-01T10:03:33Z</time>
      </trkpt>
      <trkpt lat="47.1689" lon="6.83969">
        <ele>637.733</ele>
        <time>2018-08-01T10:03:35Z</time>
      </trkpt>
      <trkpt lat="47.16886" lon="6.83976">
        <ele>637.626</ele>
        <time>2018-08-01T10:03:38Z</time>
      </trkpt>
      <trkpt lat="47.16878" lon="6.8398">
        <ele>637.508</ele>
        <time>2018-08-01T10:03:40Z</time>
      </trkpt>
      <trkpt lat="47.16872" lon="6.83983">
        <ele>637.479</ele>
        <time>2018-08-01T10:03:42Z</time>
      </trkpt>
      <trkpt lat="47.16868" lon="6.83978">
        <ele>637.394</ele>
        <time>2018-08-01T10:03:49Z</time>
      </trkpt>
      <trkpt lat="47.16866" lon="6.83969">
        <ele>638.328</ele>
        <time>2018-08-01T10:04:59Z</time>
      </trkpt>
      <trkpt lat="47.16871" lon="6.83968">
        <ele>638.82</ele>
        <time>2018-08-01T10:05:02Z</time>
      </trkpt>
      <trkpt lat="47.16876" lon="6.83966">
        <ele>639.346</ele>
        <time>2018-08-01T10:05:05Z</time>
      </trkpt>
      <trkpt lat="47.1688" lon="6.83961">
        <ele>640.223</ele>
        <time>2018-08-01T10:05:09Z</time>
      </trkpt>
      <trkpt lat="47.16884" lon="6.83956">
        <ele>640.988</ele>
        <time>2018-08-01T10:05:12Z</time>
      </trkpt>
      <trkpt lat="47.16889" lon="6.83951">
        <ele>641.977</ele>
        <time>2018-08-01T10:05:16Z</time>
      </trkpt>
      <trkpt lat="47.16894" lon="6.8395">
        <ele>642.538</ele>
        <time>2018-08-01T10:05:19Z</time>
      </trkpt>
      <trkpt lat="47.16898" lon="6.83946">
        <ele>643.57</ele>
        <time>2018-08-01T10:05:22Z</time>
      </trkpt>
      <trkpt lat="47.16901" lon="6.8394">
        <ele>644.317</ele>
        <time>2018-08-01T10:05:24Z</time>
      </trkpt>
      <trkpt lat="47.16905" lon="6.83935">
        <ele>644.908</ele>
        <time>2018-08-01T10:05:26Z</time>
      </trkpt>
      <trkpt lat="47.16909" lon="6.8393">
        <ele>645.455</ele>
        <time>2018-08-01T10:05:28Z</time>
      </trkpt>
      <trkpt lat="47.16913" lon="6.83925">
        <ele>645.81</ele>
        <time>2018-08-01T10:05:30Z</time>
      </trkpt>
      <trkpt lat="47.16917" lon="6.83918">
        <ele>646.444</ele>
        <time>2018-08-01T10:05:33Z</time>
      </trkpt>
      <trkpt lat="47.16921" lon="6.83914">
        <ele>647.386</ele>
        <time>2018-08-01T10:05:36Z</time>
      </trkpt>
      <trkpt lat="47.16924" lon="6.83909">
        <ele>647.822</ele>
        <time>2018-08-01T10:05:38Z</time>
      </trkpt>
      <trkpt lat="47.16928" lon="6.83904">
        <ele>648.329</ele>
        <time>2018-08-01T10:05:40Z</time>
      </trkpt>
      <trkpt lat="47.16931" lon="6.83899">
        <ele>648.924</ele>
        <time>2018-08-01T10:05:42Z</time>
      </trkpt>
      <trkpt lat="47.16935" lon="6.83896">
        <ele>650.133</ele>
        <time>2018-08-01T10:05:48Z</time>
      </trkpt>
      <trkpt lat="47.16936" lon="6.83889">
        <ele>650.029</ele>
        <time>2018-08-01T10:06:02Z</time>
      </trkpt>
      <trkpt lat="47.16941" lon="6.83885">
        <ele>650.5</ele>
        <time>2018-08-01T10:06:07Z</time>
      </trkpt>
      <trkpt lat="47.16937" lon="6.8388">
        <ele>651.62</ele>
        <time>2018-08-01T10:06:17Z</time>
      </trkpt>
      <trkpt lat="47.16933" lon="6.83875">
        <ele>652.208</ele>
        <time>2018-08-01T10:06:22Z</time>
      </trkpt>
      <trkpt lat="47.16938" lon="6.8387">
        <ele>652.554</ele>
        <time>2018-08-01T10:06:50Z</time>
      </trkpt>
      <trkpt lat="47.16938" lon="6.83862">
        <ele>653.149</ele>
        <time>2018-08-01T10:06:54Z</time>
      </trkpt>
      <trkpt lat="47.16938" lon="6.83853">
        <ele>653.723</ele>
        <time>2018-08-01T10:06:57Z</time>
      </trkpt>
      <trkpt lat="47.1694" lon="6.83847">
        <ele>654.455</ele>
        <time>2018-08-01T10:06:59Z</time>
      </trkpt>
      <trkpt lat="47.16943" lon="6.8384">
        <ele>655.131</ele>
        <time>2018-08-01T10:07:01Z</time>
      </trkpt>
      <trkpt lat="47.16946" lon="6.83833">
        <ele>656.318</ele>
        <time>2018-08-01T10:07:04Z</time>
      </trkpt>
      <trkpt lat="47.16948" lon="6.83827">
        <ele>657.093</ele>
        <time>2018-08-01T10:07:06Z</time>
      </trkpt>
      <trkpt lat="47.16951" lon="6.8382">
        <ele>657.762</ele>
        <time>2018-08-01T10:07:08Z</time>
      </trkpt>
      <trkpt lat="47.16956" lon="6.83813">
        <ele>658.335</ele>
        <time>2018-08-01T10:07:10Z</time>
      </trkpt>
      <trkpt lat="47.16958" lon="6.83807">
        <ele>659.086</ele>
        <time>2018-08-01T10:07:12Z</time>
      </trkpt>
      <trkpt lat="47.16958" lon="6.83799">
        <ele>660.114</ele>
        <time>2018-08-01T10:07:15Z</time>
      </trkpt>
      <trkpt lat="47.16959" lon="6.83791">
        <ele>661.308</ele>
        <time>2018-08-01T10:07:18Z</time>
      </trkpt>
      <trkpt lat="47.1696" lon="6.83783">
        <ele>662.225</ele>
        <time>2018-08-01T10:07:21Z</time>
      </trkpt>
      <trkpt lat="47.1696" lon="6.83775">
        <ele>662.56</ele>
        <time>2018-08-01T10:07:23Z</time>
      </trkpt>
      <trkpt lat="47.16961" lon="6.83768">
        <ele>663.244</ele>
        <time>2018-08-01T10:07:25Z</time>
      </trkpt>
      <trkpt lat="47.16963" lon="6.83761">
        <ele>663.986</ele>
        <time>2018-08-01T10:07:27Z</time>
      </trkpt>
      <trkpt lat="47.16966" lon="6.83754">
        <ele>664.982</ele>
        <time>2018-08-01T10:07:30Z</time>
      </trkpt>
      <trkpt lat="47.16971" lon="6.83747">
        <ele>665.949</ele>
        <time>2018-08-01T10:07:33Z</time>
      </trkpt>
      <trkpt lat="47.16975" lon="6.83741">
        <ele>666.744</ele>
        <time>2018-08-01T10:07:36Z</time>
      </trkpt>
      <trkpt lat="47.1698" lon="6.83737">
        <ele>667.783</ele>
        <time>2018-08-01T10:07:39Z</time>
      </trkpt>
      <trkpt lat="47.16985" lon="6.83735">
        <ele>668.542</ele>
        <time>2018-08-01T10:07:51Z</time>
      </trkpt>
      <trkpt lat="47.16992" lon="6.83733">
        <ele>668.722</ele>
        <time>2018-08-01T10:08:43Z</time>
      </trkpt>
      <trkpt lat="47.16987" lon="6.83733">
        <ele>668.914</ele>
        <time>2018-08-01T10:08:49Z</time>
      </trkpt>
      <trkpt lat="47.16993" lon="6.83734">
        <ele>669.108</ele>
        <time>2018-08-01T10:11:15Z</time>
      </trkpt>
      <trkpt lat="47.16998" lon="6.83736">
        <ele>669.626</ele>
        <time>2018-08-01T10:11:18Z</time>
      </trkpt>
      <trkpt lat="47.17001" lon="6.83741">
        <ele>671.051</ele>
        <time>2018-08-01T10:11:22Z</time>
      </trkpt>
      <trkpt lat="47.17004" lon="6.83747">
        <ele>672.685</ele>
        <time>2018-08-01T10:11:34Z</time>
      </trkpt>
      <trkpt lat="47.17008" lon="6.83749">
        <ele>673.587</ele>
        <time>2018-08-01T10:11:39Z</time>
      </trkpt>
      <trkpt lat="47.17014" lon="6.8375">
        <ele>675.073</ele>
        <time>2018-08-01T10:11:46Z</time>
      </trkpt>
      <trkpt lat="47.17019" lon="6.83749">
        <ele>676.43</ele>
        <time>2018-08-01T10:11:55Z</time>
      </trkpt>
      <trkpt lat="47.17024" lon="6.83748">
        <ele>676.615</ele>
        <time>2018-08-01T10:11:59Z</time>
      </trkpt>
      <trkpt lat="47.17029" lon="6.83747">
        <ele>677.724</ele>
        <time>2018-08-01T10:12:06Z</time>
      </trkpt>
      <trkpt lat="47.17034" lon="6.8375">
        <ele>680.886</ele>
        <time>2018-08-01T10:12:27Z</time>
      </trkpt>
      <trkpt lat="47.17039" lon="6.83744">
        <ele>681.56</ele>
        <time>2018-08-01T10:12:38Z</time>
      </trkpt>
      <trkpt lat="47.17044" lon="6.83744">
        <ele>681.626</ele>
        <time>2018-08-01T10:12:49Z</time>
      </trkpt>
      <trkpt lat="47.17049" lon="6.83742">
        <ele>682.908</ele>
        <time>2018-08-01T10:12:55Z</time>
      </trkpt>
      <trkpt lat="47.17055" lon="6.83741">
        <ele>685.21</ele>
        <time>2018-08-01T10:12:59Z</time>
      </trkpt>
      <trkpt lat="47.1706" lon="6.83739">
        <ele>686.485</ele>
        <time>2018-08-01T10:13:01Z</time>
      </trkpt>
      <trkpt lat="47.17065" lon="6.83737">
        <ele>687.799</ele>
        <time>2018-08-01T10:13:03Z</time>
      </trkpt>
      <trkpt lat="47.17069" lon="6.83736">
        <ele>689.191</ele>
        <time>2018-08-01T10:13:05Z</time>
      </trkpt>
      <trkpt lat="47.17076" lon="6.83735">
        <ele>690.977</ele>
        <time>2018-08-01T10:13:08Z</time>
      </trkpt>
      <trkpt lat="47.17083" lon="6.83735">
        <ele>691.944</ele>
        <time>2018-08-01T10:13:10Z</time>
      </trkpt>
      <trkpt lat="47.17087" lon="6.83734">
        <ele>692.919</ele>
        <time>2018-08-01T10:13:12Z</time>
      </trkpt>
      <trkpt lat="47.17094" lon="6.83733">
        <ele>694.068</ele>
        <time>2018-08-01T10:13:15Z</time>
      </trkpt>
      <trkpt lat="47.17098" lon="6.83732">
        <ele>694.655</ele>
        <time>2018-08-01T10:13:17Z</time>
      </trkpt>
      <trkpt lat="47.17105" lon="6.83731">
        <ele>695.207</ele>
        <time>2018-08-01T10:13:20Z</time>
      </trkpt>
      <trkpt lat="47.1711" lon="6.83729">
        <ele>695.417</ele>
        <time>2018-08-01T10:13:23Z</time>
      </trkpt>
      <trkpt lat="47.17115" lon="6.83727">
        <ele>695.908</ele>
        <time>2018-08-01T10:13:27Z</time>
      </trkpt>
      <trkpt lat="47.1712" lon="6.83725">
        <ele>696.177</ele>
        <time>2018-08-01T10:13:30Z</time>
      </trkpt>
      <trkpt lat="47.17126" lon="6.83726">
        <ele>696.262</ele>
        <time>2018-08-01T10:13:34Z</time>
      </trkpt>
      <trkpt lat="47.1713" lon="6.83731">
        <ele>696.336</ele>
        <time>2018-08-01T10:13:38Z</time>
      </trkpt>
      <trkpt lat="47.17134" lon="6.83731">
        <ele>696.758</ele>
        <time>2018-08-01T10:13:56Z</time>
      </trkpt>
      <trkpt lat="47.17139" lon="6.83731">
        <ele>697.824</ele>
        <time>2018-08-01T10:14:10Z</time>
      </trkpt>
      <trkpt lat="47.17142" lon="6.83738">
        <ele>698.571</ele>
        <time>2018-08-01T10:14:17Z</time>
      </trkpt>
      <trkpt lat="47.17147" lon="6.83741">
        <ele>698.956</ele>
        <time>2018-08-01T10:14:28Z</time>
      </trkpt>
      <trkpt lat="47.17151" lon="6.83745">
        <ele>698.835</ele>
        <time>2018-08-01T10:15:03Z</time>
      </trkpt>
      <trkpt lat="47.17156" lon="6.83749">
        <ele>698.875</ele>
        <time>2018-08-01T10:15:06Z</time>
      </trkpt>
      <trkpt lat="47.17162" lon="6.8375">
        <ele>698.928</ele>
        <time>2018-08-01T10:15:08Z</time>
      </trkpt>
      <trkpt lat="47.17168" lon="6.83753">
        <ele>699.32</ele>
        <time>2018-08-01T10:15:11Z</time>
      </trkpt>
      <trkpt lat="47.17172" lon="6.83758">
        <ele>700.108</ele>
        <time>2018-08-01T10:15:14Z</time>
      </trkpt>
      <trkpt lat="47.17177" lon="6.83763">
        <ele>701.179</ele>
        <time>2018-08-01T10:15:17Z</time>
      </trkpt>
      <trkpt lat="47.17181" lon="6.83767">
        <ele>701.784</ele>
        <time>2018-08-01T10:15:19Z</time>
      </trkpt>
      <trkpt lat="47.17186" lon="6.83773">
        <ele>702.468</ele>
        <time>2018-08-01T10:15:22Z</time>
      </trkpt>
      <trkpt lat="47.17193" lon="6.83777">
        <ele>703.04</ele>
        <time>2018-08-01T10:15:25Z</time>
      </trkpt>
      <trkpt lat="47.17198" lon="6.83781">
        <ele>703.346</ele>
        <time>2018-08-01T10:15:28Z</time>
      </trkpt>
      <trkpt lat="47.17204" lon="6.83786">
        <ele>703.543</ele>
        <time>2018-08-01T10:15:43Z</time>
      </trkpt>
      <trkpt lat="47.17201" lon="6.83778">
        <ele>704.258</ele>
        <time>2018-08-01T10:15:49Z</time>
      </trkpt>
      <trkpt lat="47.17197" lon="6.83772">
        <ele>705.357</ele>
        <time>2018-08-01T10:15:52Z</time>
      </trkpt>
      <trkpt lat="47.17195" lon="6.83765">
        <ele>706.678</ele>
        <time>2018-08-01T10:15:55Z</time>
      </trkpt>
      <trkpt lat="47.17193" lon="6.83759">
        <ele>707.933</ele>
        <time>2018-08-01T10:15:58Z</time>
      </trkpt>
      <trkpt lat="47.17193" lon="6.83752">
        <ele>709.026</ele>
        <time>2018-08-01T10:16:01Z</time>
      </trkpt>
      <trkpt lat="47.1719" lon="6.83744">
        <ele>710.408</ele>
        <time>2018-08-01T10:16:04Z</time>
      </trkpt>
      <trkpt lat="47.17188" lon="6.83736">
        <ele>711.469</ele>
        <time>2018-08-01T10:16:07Z</time>
      </trkpt>
      <trkpt lat="47.17185" lon="6.83731">
        <ele>713.144</ele>
        <time>2018-08-01T10:16:10Z</time>
      </trkpt>
      <trkpt lat="47.17181" lon="6.83722">
        <ele>714.788</ele>
        <time>2018-08-01T10:16:13Z</time>
      </trkpt>
      <trkpt lat="47.17179" lon="6.83716">
        <ele>715.73</ele>
        <time>2018-08-01T10:16:15Z</time>
      </trkpt>
      <trkpt lat="47.17177" lon="6.83707">
        <ele>717.116</ele>
        <time>2018-08-01T10:16:18Z</time>
      </trkpt>
      <trkpt lat="47.17176" lon="6.837">
        <ele>718.693</ele>
        <time>2018-08-01T10:16:21Z</time>
      </trkpt>
      <trkpt lat="47.17174" lon="6.83693">
        <ele>720.188</ele>
        <time>2018-08-01T10:16:24Z</time>
      </trkpt>
      <trkpt lat="47.1717" lon="6.83685">
        <ele>721.677</ele>
        <time>2018-08-01T10:16:27Z</time>
      </trkpt>
      <trkpt lat="47.17168" lon="6.83679">
        <ele>723.162</ele>
        <time>2018-08-01T10:16:30Z</time>
      </trkpt>
      <trkpt lat="47.17166" lon="6.83672">
        <ele>724.683</ele>
        <time>2018-08-01T10:16:33Z</time>
      </trkpt>
      <trkpt lat="47.17164" lon="6.83666">
        <ele>725.011</ele>
        <time>2018-08-01T10:16:35Z</time>
      </trkpt>
      <trkpt lat="47.17162" lon="6.83658">
        <ele>726.208</ele>
        <time>2018-08-01T10:16:38Z</time>
      </trkpt>
      <trkpt lat="47.17162" lon="6.83651">
        <ele>727.138</ele>
        <time>2018-08-01T10:16:40Z</time>
      </trkpt>
      <trkpt lat="47.17161" lon="6.83643">
        <ele>728.583</ele>
        <time>2018-08-01T10:16:43Z</time>
      </trkpt>
      <trkpt lat="47.17159" lon="6.83636">
        <ele>729.967</ele>
        <time>2018-08-01T10:16:46Z</time>
      </trkpt>
      <trkpt lat="47.17156" lon="6.8363">
        <ele>731.379</ele>
        <time>2018-08-01T10:16:49Z</time>
      </trkpt>
      <trkpt lat="47.17155" lon="6.83623">
        <ele>732.765</ele>
        <time>2018-08-01T10:16:52Z</time>
      </trkpt>
      <trkpt lat="47.17155" lon="6.83614">
        <ele>734.262</ele>
        <time>2018-08-01T10:16:55Z</time>
      </trkpt>
      <trkpt lat="47.17155" lon="6.83606">
        <ele>735.787</ele>
        <time>2018-08-01T10:16:58Z</time>
      </trkpt>
      <trkpt lat="47.17152" lon="6.83599">
        <ele>736.726</ele>
        <time>2018-08-01T10:17:01Z</time>
      </trkpt>
      <trkpt lat="47.17149" lon="6.83593">
        <ele>738.146</ele>
        <time>2018-08-01T10:17:04Z</time>
      </trkpt>
      <trkpt lat="47.17146" lon="6.83587">
        <ele>740.188</ele>
        <time>2018-08-01T10:17:08Z</time>
      </trkpt>
      <trkpt lat="47.17142" lon="6.8358">
        <ele>741.816</ele>
        <time>2018-08-01T10:17:11Z</time>
      </trkpt>
      <trkpt lat="47.17139" lon="6.83573">
        <ele>743.508</ele>
        <time>2018-08-01T10:17:14Z</time>
      </trkpt>
      <trkpt lat="47.1714" lon="6.83564">
        <ele>745.696</ele>
        <time>2018-08-01T10:17:18Z</time>
      </trkpt>
      <trkpt lat="47.17137" lon="6.83557">
        <ele>747.231</ele>
        <time>2018-08-01T10:17:21Z</time>
      </trkpt>
      <trkpt lat="47.17135" lon="6.83549">
        <ele>748.755</ele>
        <time>2018-08-01T10:17:24Z</time>
      </trkpt>
      <trkpt lat="47.17132" lon="6.83543">
        <ele>749.737</ele>
        <time>2018-08-01T10:17:26Z</time>
      </trkpt>
      <trkpt lat="47.1713" lon="6.83535">
        <ele>750.623</ele>
        <time>2018-08-01T10:17:29Z</time>
      </trkpt>
      <trkpt lat="47.17129" lon="6.83526">
        <ele>751.51</ele>
        <time>2018-08-01T10:17:31Z</time>
      </trkpt>
      <trkpt lat="47.17127" lon="6.8352">
        <ele>752.525</ele>
        <time>2018-08-01T10:17:33Z</time>
      </trkpt>
      <trkpt lat="47.17126" lon="6.83512">
        <ele>754.184</ele>
        <time>2018-08-01T10:17:36Z</time>
      </trkpt>
      <trkpt lat="47.17123" lon="6.83499">
        <ele>756.073</ele>
        <time>2018-08-01T10:18:11Z</time>
      </trkpt>
      <trkpt lat="47.17121" lon="6.83492">
        <ele>756.385</ele>
        <time>2018-08-01T10:18:15Z</time>
      </trkpt>
      <trkpt lat="47.17119" lon="6.83486">
        <ele>757.513</ele>
        <time>2018-08-01T10:18:19Z</time>
      </trkpt>
      <trkpt lat="47.17114" lon="6.83479">
        <ele>758.408</ele>
        <time>2018-08-01T10:18:22Z</time>
      </trkpt>
      <trkpt lat="47.17112" lon="6.83472">
        <ele>758.729</ele>
        <time>2018-08-01T10:18:24Z</time>
      </trkpt>
      <trkpt lat="47.17109" lon="6.83467">
        <ele>759.254</ele>
        <time>2018-08-01T10:18:26Z</time>
      </trkpt>
      <trkpt lat="47.17105" lon="6.83459">
        <ele>759.768</ele>
        <time>2018-08-01T10:18:29Z</time>
      </trkpt>
      <trkpt lat="47.17102" lon="6.83451">
        <ele>760.34</ele>
        <time>2018-08-01T10:18:32Z</time>
      </trkpt>
      <trkpt lat="47.17104" lon="6.83442">
        <ele>761.026</ele>
        <time>2018-08-01T10:18:35Z</time>
      </trkpt>
      <trkpt lat="47.17109" lon="6.83438">
        <ele>761.273</ele>
        <time>2018-08-01T10:18:37Z</time>
      </trkpt>
      <trkpt lat="47.17113" lon="6.83435">
        <ele>761.478</ele>
        <time>2018-08-01T10:18:39Z</time>
      </trkpt>
      <trkpt lat="47.17119" lon="6.83431">
        <ele>761.757</ele>
        <time>2018-08-01T10:18:41Z</time>
      </trkpt>
      <trkpt lat="47.17123" lon="6.83426">
        <ele>762.113</ele>
        <time>2018-08-01T10:18:43Z</time>
      </trkpt>
      <trkpt lat="47.17128" lon="6.83421">
        <ele>762.443</ele>
        <time>2018-08-01T10:18:45Z</time>
      </trkpt>
      <trkpt lat="47.17132" lon="6.83415">
        <ele>762.707</ele>
        <time>2018-08-01T10:18:47Z</time>
      </trkpt>
      <trkpt lat="47.17136" lon="6.83409">
        <ele>763.008</ele>
        <time>2018-08-01T10:18:49Z</time>
      </trkpt>
      <trkpt lat="47.1714" lon="6.83402">
        <ele>763.143</ele>
        <time>2018-08-01T10:18:51Z</time>
      </trkpt>
      <trkpt lat="47.17143" lon="6.83395">
        <ele>763.468</ele>
        <time>2018-08-01T10:18:53Z</time>
      </trkpt>
      <trkpt lat="47.17147" lon="6.83388">
        <ele>763.782</ele>
        <time>2018-08-01T10:18:55Z</time>
      </trkpt>
      <trkpt lat="47.17152" lon="6.83382">
        <ele>764.014</ele>
        <time>2018-08-01T10:18:57Z</time>
      </trkpt>
      <trkpt lat="47.17156" lon="6.83376">
        <ele>764.32</ele>
        <time>2018-08-01T10:18:59Z</time>
      </trkpt>
      <trkpt lat="47.1716" lon="6.83369">
        <ele>764.647</ele>
        <time>2018-08-01T10:19:01Z</time>
      </trkpt>
      <trkpt lat="47.17165" lon="6.83362">
        <ele>764.932</ele>
        <time>2018-08-01T10:19:03Z</time>
      </trkpt>
      <trkpt lat="47.1717" lon="6.83356">
        <ele>765.281</ele>
        <time>2018-08-01T10:19:05Z</time>
      </trkpt>
      <trkpt lat="47.17175" lon="6.8335">
        <ele>765.668</ele>
        <time>2018-08-01T10:19:07Z</time>
      </trkpt>
      <trkpt lat="47.17181" lon="6.83344">
        <ele>766.042</ele>
        <time>2018-08-01T10:19:09Z</time>
      </trkpt>
      <trkpt lat="47.17187" lon="6.83338">
        <ele>766.426</ele>
        <time>2018-08-01T10:19:11Z</time>
      </trkpt>
      <trkpt lat="47.17193" lon="6.83332">
        <ele>766.808</ele>
        <time>2018-08-01T10:19:13Z</time>
      </trkpt>
      <trkpt lat="47.17199" lon="6.83327">
        <ele>767.268</ele>
        <time>2018-08-01T10:19:15Z</time>
      </trkpt>
      <trkpt lat="47.17204" lon="6.83321">
        <ele>767.423</ele>
        <time>2018-08-01T10:19:17Z</time>
      </trkpt>
      <trkpt lat="47.17211" lon="6.83317">
        <ele>767.987</ele>
        <time>2018-08-01T10:19:19Z</time>
      </trkpt>
      <trkpt lat="47.17218" lon="6.83313">
        <ele>768.489</ele>
        <time>2018-08-01T10:19:21Z</time>
      </trkpt>
      <trkpt lat="47.17226" lon="6.83312">
        <ele>768.865</ele>
        <time>2018-08-01T10:19:23Z</time>
      </trkpt>
      <trkpt lat="47.17235" lon="6.83312">
        <ele>769.152</ele>
        <time>2018-08-01T10:19:25Z</time>
      </trkpt>
      <trkpt lat="47.17243" lon="6.83311">
        <ele>769.467</ele>
        <time>2018-08-01T10:19:27Z</time>
      </trkpt>
      <trkpt lat="47.17249" lon="6.83309">
        <ele>769.766</ele>
        <time>2018-08-01T10:19:29Z</time>
      </trkpt>
      <trkpt lat="47.17256" lon="6.83307">
        <ele>770.175</ele>
        <time>2018-08-01T10:19:31Z</time>
      </trkpt>
      <trkpt lat="47.17263" lon="6.8331">
        <ele>770.528</ele>
        <time>2018-08-01T10:19:33Z</time>
      </trkpt>
      <trkpt lat="47.17271" lon="6.83313">
        <ele>770.92</ele>
        <time>2018-08-01T10:19:35Z</time>
      </trkpt>
      <trkpt lat="47.17279" lon="6.83319">
        <ele>771.308</ele>
        <time>2018-08-01T10:19:37Z</time>
      </trkpt>
      <trkpt lat="47.17283" lon="6.83323">
        <ele>771.579</ele>
        <time>2018-08-01T10:19:38Z</time>
      </trkpt>
      <trkpt lat="47.17286" lon="6.83328">
        <ele>771.764</ele>
        <time>2018-08-01T10:19:39Z</time>
      </trkpt>
      <trkpt lat="47.17289" lon="6.83333">
        <ele>771.938</ele>
        <time>2018-08-01T10:19:40Z</time>
      </trkpt>
      <trkpt lat="47.17292" lon="6.83338">
        <ele>772.29</ele>
        <time>2018-08-01T10:19:41Z</time>
      </trkpt>
      <trkpt lat="47.17298" lon="6.83347">
        <ele>772.856</ele>
        <time>2018-08-01T10:19:43Z</time>
      </trkpt>
      <trkpt lat="47.17304" lon="6.83356">
        <ele>773.053</ele>
        <time>2018-08-01T10:19:45Z</time>
      </trkpt>
      <trkpt lat="47.1731" lon="6.83364">
        <ele>773.488</ele>
        <time>2018-08-01T10:19:47Z</time>
      </trkpt>
      <trkpt lat="47.17316" lon="6.83371">
        <ele>773.717</ele>
        <time>2018-08-01T10:19:49Z</time>
      </trkpt>
      <trkpt lat="47.17321" lon="6.83377">
        <ele>774.111</ele>
        <time>2018-08-01T10:19:51Z</time>
      </trkpt>
      <trkpt lat="47.17327" lon="6.83383">
        <ele>774.521</ele>
        <time>2018-08-01T10:19:53Z</time>
      </trkpt>
      <trkpt lat="47.17334" lon="6.83386">
        <ele>774.903</ele>
        <time>2018-08-01T10:19:55Z</time>
      </trkpt>
      <trkpt lat="47.17343" lon="6.83386">
        <ele>775.308</ele>
        <time>2018-08-01T10:19:57Z</time>
      </trkpt>
      <trkpt lat="47.17351" lon="6.83385">
        <ele>775.763</ele>
        <time>2018-08-01T10:19:59Z</time>
      </trkpt>
      <trkpt lat="47.17359" lon="6.83383">
        <ele>776.168</ele>
        <time>2018-08-01T10:20:01Z</time>
      </trkpt>
      <trkpt lat="47.17366" lon="6.83378">
        <ele>776.512</ele>
        <time>2018-08-01T10:20:03Z</time>
      </trkpt>
      <trkpt lat="47.17372" lon="6.83371">
        <ele>777.024</ele>
        <time>2018-08-01T10:20:05Z</time>
      </trkpt>
      <trkpt lat="47.1738" lon="6.83365">
        <ele>777.46</ele>
        <time>2018-08-01T10:20:07Z</time>
      </trkpt>
      <trkpt lat="47.17388" lon="6.83362">
        <ele>777.727</ele>
        <time>2018-08-01T10:20:09Z</time>
      </trkpt>
      <trkpt lat="47.17396" lon="6.83361">
        <ele>778.032</ele>
        <time>2018-08-01T10:20:11Z</time>
      </trkpt>
      <trkpt lat="47.17403" lon="6.83365">
        <ele>778.111</ele>
        <time>2018-08-01T10:20:13Z</time>
      </trkpt>
      <trkpt lat="47.17409" lon="6.83372">
        <ele>778.589</ele>
        <time>2018-08-01T10:20:15Z</time>
      </trkpt>
      <trkpt lat="47.17414" lon="6.83382">
        <ele>779.006</ele>
        <time>2018-08-01T10:20:17Z</time>
      </trkpt>
      <trkpt lat="47.17417" lon="6.83393">
        <ele>779.726</ele>
        <time>2018-08-01T10:20:19Z</time>
      </trkpt>
      <trkpt lat="47.17421" lon="6.83403">
        <ele>780.308</ele>
        <time>2018-08-01T10:20:21Z</time>
      </trkpt>
      <trkpt lat="47.17424" lon="6.83413">
        <ele>780.91</ele>
        <time>2018-08-01T10:20:23Z</time>
      </trkpt>
      <trkpt lat="47.17428" lon="6.83423">
        <ele>781.435</ele>
        <time>2018-08-01T10:20:25Z</time>
      </trkpt>
      <trkpt lat="47.17432" lon="6.83433">
        <ele>781.859</ele>
        <time>2018-08-01T10:20:27Z</time>
      </trkpt>
      <trkpt lat="47.17436" lon="6.83442">
        <ele>782.241</ele>
        <time>2018-08-01T10:20:29Z</time>
      </trkpt>
      <trkpt lat="47.17441" lon="6.83451">
        <ele>782.787</ele>
        <time>2018-08-01T10:20:31Z</time>
      </trkpt>
      <trkpt lat="47.17446" lon="6.83458">
        <ele>783.224</ele>
        <time>2018-08-01T10:20:33Z</time>
      </trkpt>
      <trkpt lat="47.17452" lon="6.83465">
        <ele>783.789</ele>
        <time>2018-08-01T10:20:35Z</time>
      </trkpt>
      <trkpt lat="47.17458" lon="6.83471">
        <ele>784.178</ele>
        <time>2018-08-01T10:20:37Z</time>
      </trkpt>
      <trkpt lat="47.17465" lon="6.83477">
        <ele>784.523</ele>
        <time>2018-08-01T10:20:39Z</time>
      </trkpt>
      <trkpt lat="47.17471" lon="6.83482">
        <ele>784.783</ele>
        <time>2018-08-01T10:20:41Z</time>
      </trkpt>
      <trkpt lat="47.17478" lon="6.83487">
        <ele>785.111</ele>
        <time>2018-08-01T10:20:43Z</time>
      </trkpt>
      <trkpt lat="47.17484" lon="6.83493">
        <ele>785.408</ele>
        <time>2018-08-01T10:20:45Z</time>
      </trkpt>
      <trkpt lat="47.1749" lon="6.83498">
        <ele>785.984</ele>
        <time>2018-08-01T10:20:47Z</time>
      </trkpt>
      <trkpt lat="47.17497" lon="6.83504">
        <ele>786.399</ele>
        <time>2018-08-01T10:20:49Z</time>
      </trkpt>
      <trkpt lat="47.17504" lon="6.83509">
        <ele>786.873</ele>
        <time>2018-08-01T10:20:51Z</time>
      </trkpt>
      <trkpt lat="47.1751" lon="6.83514">
        <ele>787.325</ele>
        <time>2018-08-01T10:20:53Z</time>
      </trkpt>
      <trkpt lat="47.17517" lon="6.8352">
        <ele>787.761</ele>
        <time>2018-08-01T10:20:55Z</time>
      </trkpt>
      <trkpt lat="47.17522" lon="6.83527">
        <ele>788.238</ele>
        <time>2018-08-01T10:20:57Z</time>
      </trkpt>
      <trkpt lat="47.17529" lon="6.83533">
        <ele>788.673</ele>
        <time>2018-08-01T10:20:59Z</time>
      </trkpt>
      <trkpt lat="47.17535" lon="6.8354">
        <ele>789.022</ele>
        <time>2018-08-01T10:21:01Z</time>
      </trkpt>
      <trkpt lat="47.17541" lon="6.83546">
        <ele>789.396</ele>
        <time>2018-08-01T10:21:03Z</time>
      </trkpt>
      <trkpt lat="47.17548" lon="6.83553">
        <ele>789.831</ele>
        <time>2018-08-01T10:21:05Z</time>
      </trkpt>
      <trkpt lat="47.17555" lon="6.8356">
        <ele>790.124</ele>
        <time>2018-08-01T10:21:07Z</time>
      </trkpt>
      <trkpt lat="47.17562" lon="6.83566">
        <ele>790.308</ele>
        <time>2018-08-01T10:21:09Z</time>
      </trkpt>
      <trkpt lat="47.1757" lon="6.83572">
        <ele>790.541</ele>
        <time>2018-08-01T10:21:11Z</time>
      </trkpt>
      <trkpt lat="47.17576" lon="6.83578">
        <ele>791.046</ele>
        <time>2018-08-01T10:21:13Z</time>
      </trkpt>
      <trkpt lat="47.17582" lon="6.83584">
        <ele>791.59</ele>
        <time>2018-08-01T10:21:15Z</time>
      </trkpt>
      <trkpt lat="47.17588" lon="6.83589">
        <ele>791.942</ele>
        <time>2018-08-01T10:21:17Z</time>
      </trkpt>
      <trkpt lat="47.17594" lon="6.83594">
        <ele>792.538</ele>
        <time>2018-08-01T10:21:19Z</time>
      </trkpt>
      <trkpt lat="47.17601" lon="6.836">
        <ele>793.295</ele>
        <time>2018-08-01T10:21:21Z</time>
      </trkpt>
      <trkpt lat="47.17608" lon="6.83606">
        <ele>793.87</ele>
        <time>2018-08-01T10:21:23Z</time>
      </trkpt>
      <trkpt lat="47.17615" lon="6.83611">
        <ele>793.959</ele>
        <time>2018-08-01T10:21:25Z</time>
      </trkpt>
      <trkpt lat="47.17621" lon="6.83618">
        <ele>794.378</ele>
        <time>2018-08-01T10:21:27Z</time>
      </trkpt>
      <trkpt lat="47.17628" lon="6.83625">
        <ele>794.633</ele>
        <time>2018-08-01T10:21:29Z</time>
      </trkpt>
      <trkpt lat="47.17635" lon="6.83632">
        <ele>795.126</ele>
        <time>2018-08-01T10:21:31Z</time>
      </trkpt>
      <trkpt lat="47.17642" lon="6.83638">
        <ele>795.508</ele>
        <time>2018-08-01T10:21:33Z</time>
      </trkpt>
      <trkpt lat="47.17649" lon="6.83644">
        <ele>795.889</ele>
        <time>2018-08-01T10:21:35Z</time>
      </trkpt>
      <trkpt lat="47.17656" lon="6.83649">
        <ele>796.244</ele>
        <time>2018-08-01T10:21:37Z</time>
      </trkpt>
      <trkpt lat="47.17663" lon="6.83654">
        <ele>796.838</ele>
        <time>2018-08-01T10:21:39Z</time>
      </trkpt>
      <trkpt lat="47.17669" lon="6.83661">
        <ele>797.26</ele>
        <time>2018-08-01T10:21:41Z</time>
      </trkpt>
      <trkpt lat="47.17675" lon="6.83669">
        <ele>797.556</ele>
        <time>2018-08-01T10:21:43Z</time>
      </trkpt>
      <trkpt lat="47.17681" lon="6.83677">
        <ele>797.773</ele>
        <time>2018-08-01T10:21:45Z</time>
      </trkpt>
      <trkpt lat="47.17687" lon="6.83685">
        <ele>798.178</ele>
        <time>2018-08-01T10:21:47Z</time>
      </trkpt>
      <trkpt lat="47.17694" lon="6.83693">
        <ele>798.637</ele>
        <time>2018-08-01T10:21:49Z</time>
      </trkpt>
      <trkpt lat="47.177" lon="6.83701">
        <ele>799.246</ele>
        <time>2018-08-01T10:21:51Z</time>
      </trkpt>
      <trkpt lat="47.17706" lon="6.83708">
        <ele>800.088</ele>
        <time>2018-08-01T10:21:53Z</time>
      </trkpt>
      <trkpt lat="47.17713" lon="6.83714">
        <ele>800.716</ele>
        <time>2018-08-01T10:21:55Z</time>
      </trkpt>
      <trkpt lat="47.1772" lon="6.83719">
        <ele>801.108</ele>
        <time>2018-08-01T10:21:57Z</time>
      </trkpt>
      <trkpt lat="47.17726" lon="6.83724">
        <ele>801.536</ele>
        <time>2018-08-01T10:21:59Z</time>
      </trkpt>
      <trkpt lat="47.17731" lon="6.8373">
        <ele>801.991</ele>
        <time>2018-08-01T10:22:01Z</time>
      </trkpt>
      <trkpt lat="47.17738" lon="6.83736">
        <ele>802.115</ele>
        <time>2018-08-01T10:22:03Z</time>
      </trkpt>
      <trkpt lat="47.17745" lon="6.83743">
        <ele>802.477</ele>
        <time>2018-08-01T10:22:05Z</time>
      </trkpt>
      <trkpt lat="47.17752" lon="6.83748">
        <ele>802.823</ele>
        <time>2018-08-01T10:22:07Z</time>
      </trkpt>
      <trkpt lat="47.1776" lon="6.83754">
        <ele>803.38</ele>
        <time>2018-08-01T10:22:09Z</time>
      </trkpt>
      <trkpt lat="47.17764" lon="6.83757">
        <ele>803.575</ele>
        <time>2018-08-01T10:22:10Z</time>
      </trkpt>
      <trkpt lat="47.1777" lon="6.83761">
        <ele>803.984</ele>
        <time>2018-08-01T10:22:12Z</time>
      </trkpt>
      <trkpt lat="47.17776" lon="6.83767">
        <ele>804.253</ele>
        <time>2018-08-01T10:22:14Z</time>
      </trkpt>
      <trkpt lat="47.17781" lon="6.83775">
        <ele>804.604</ele>
        <time>2018-08-01T10:22:16Z</time>
      </trkpt>
      <trkpt lat="47.17787" lon="6.83784">
        <ele>805.114</ele>
        <time>2018-08-01T10:22:18Z</time>
      </trkpt>
      <trkpt lat="47.17794" lon="6.83793">
        <ele>805.508</ele>
        <time>2018-08-01T10:22:20Z</time>
      </trkpt>
      <trkpt lat="47.17801" lon="6.83801">
        <ele>806.047</ele>
        <time>2018-08-01T10:22:22Z</time>
      </trkpt>
      <trkpt lat="47.17804" lon="6.83806">
        <ele>806.292</ele>
        <time>2018-08-01T10:22:23Z</time>
      </trkpt>
      <trkpt lat="47.1781" lon="6.83813">
        <ele>806.516</ele>
        <time>2018-08-01T10:22:25Z</time>
      </trkpt>
      <trkpt lat="47.17817" lon="6.8382">
        <ele>806.668</ele>
        <time>2018-08-01T10:22:27Z</time>
      </trkpt>
      <trkpt lat="47.17823" lon="6.83828">
        <ele>806.834</ele>
        <time>2018-08-01T10:22:29Z</time>
      </trkpt>
      <trkpt lat="47.17829" lon="6.83837">
        <ele>806.961</ele>
        <time>2018-08-01T10:22:31Z</time>
      </trkpt>
      <trkpt lat="47.17835" lon="6.83846">
        <ele>807.296</ele>
        <time>2018-08-01T10:22:33Z</time>
      </trkpt>
      <trkpt lat="47.17839" lon="6.83856">
        <ele>807.625</ele>
        <time>2018-08-01T10:22:35Z</time>
      </trkpt>
      <trkpt lat="47.17842" lon="6.83862">
        <ele>807.855</ele>
        <time>2018-08-01T10:22:36Z</time>
      </trkpt>
      <trkpt lat="47.17846" lon="6.83872">
        <ele>808.207</ele>
        <time>2018-08-01T10:22:38Z</time>
      </trkpt>
      <trkpt lat="47.17853" lon="6.8388">
        <ele>808.617</ele>
        <time>2018-08-01T10:22:40Z</time>
      </trkpt>
      <trkpt lat="47.1786" lon="6.83884">
        <ele>809.008</ele>
        <time>2018-08-01T10:22:42Z</time>
      </trkpt>
      <trkpt lat="47.17866" lon="6.83885">
        <ele>809.437</ele>
        <time>2018-08-01T10:22:44Z</time>
      </trkpt>
      <trkpt lat="47.17872" lon="6.83885">
        <ele>809.872</ele>
        <time>2018-08-01T10:22:46Z</time>
      </trkpt>
      <trkpt lat="47.17874" lon="6.83875">
        <ele>810.286</ele>
        <time>2018-08-01T10:22:48Z</time>
      </trkpt>
      <trkpt lat="47.17878" lon="6.83868">
        <ele>810.658</ele>
        <time>2018-08-01T10:22:50Z</time>
      </trkpt>
      <trkpt lat="47.1788" lon="6.83859">
        <ele>811.214</ele>
        <time>2018-08-01T10:22:53Z</time>
      </trkpt>
      <trkpt lat="47.17878" lon="6.83852">
        <ele>811.761</ele>
        <time>2018-08-01T10:22:55Z</time>
      </trkpt>
      <trkpt lat="47.17873" lon="6.83842">
        <ele>812.196</ele>
        <time>2018-08-01T10:22:57Z</time>
      </trkpt>
      <trkpt lat="47.17869" lon="6.83837">
        <ele>812.175</ele>
        <time>2018-08-01T10:22:58Z</time>
      </trkpt>
      <trkpt lat="47.17865" lon="6.83833">
        <ele>812.423</ele>
        <time>2018-08-01T10:22:59Z</time>
      </trkpt>
      <trkpt lat="47.17861" lon="6.83829">
        <ele>812.783</ele>
        <time>2018-08-01T10:23:00Z</time>
      </trkpt>
      <trkpt lat="47.17857" lon="6.83826">
        <ele>812.911</ele>
        <time>2018-08-01T10:23:01Z</time>
      </trkpt>
      <trkpt lat="47.17849" lon="6.8382">
        <ele>813.308</ele>
        <time>2018-08-01T10:23:03Z</time>
      </trkpt>
      <trkpt lat="47.17844" lon="6.83813">
        <ele>813.684</ele>
        <time>2018-08-01T10:23:05Z</time>
      </trkpt>
      <trkpt lat="47.1784" lon="6.83806">
        <ele>814.079</ele>
        <time>2018-08-01T10:23:07Z</time>
      </trkpt>
      <trkpt lat="47.17835" lon="6.83801">
        <ele>814.343</ele>
        <time>2018-08-01T10:23:09Z</time>
      </trkpt>
      <trkpt lat="47.1783" lon="6.83795">
        <ele>814.745</ele>
        <time>2018-08-01T10:23:11Z</time>
      </trkpt>
      <trkpt lat="47.17825" lon="6.83789">
        <ele>815.161</ele>
        <time>2018-08-01T10:23:13Z</time>
      </trkpt>
      <trkpt lat="47.1782" lon="6.83782">
        <ele>815.398</ele>
        <time>2018-08-01T10:23:15Z</time>
      </trkpt>
      <trkpt lat="47.17815" lon="6.83774">
        <ele>815.493</ele>
        <time>2018-08-01T10:23:17Z</time>
      </trkpt>
      <trkpt lat="47.17811" lon="6.83765">
        <ele>815.532</ele>
        <time>2018-08-01T10:23:19Z</time>
      </trkpt>
      <trkpt lat="47.17807" lon="6.83756">
        <ele>815.626</ele>
        <time>2018-08-01T10:23:21Z</time>
      </trkpt>
      <trkpt lat="47.17803" lon="6.83747">
        <ele>816.047</ele>
        <time>2018-08-01T10:23:23Z</time>
      </trkpt>
      <trkpt lat="47.17798" lon="6.83738">
        <ele>816.211</ele>
        <time>2018-08-01T10:23:25Z</time>
      </trkpt>
      <trkpt lat="47.17793" lon="6.83728">
        <ele>816.808</ele>
        <time>2018-08-01T10:23:27Z</time>
      </trkpt>
      <trkpt lat="47.17789" lon="6.83719">
        <ele>817.244</ele>
        <time>2018-08-01T10:23:29Z</time>
      </trkpt>
      <trkpt lat="47.17784" lon="6.8371">
        <ele>817.719</ele>
        <time>2018-08-01T10:23:31Z</time>
      </trkpt>
      <trkpt lat="47.17779" lon="6.83702">
        <ele>818.283</ele>
        <time>2018-08-01T10:23:33Z</time>
      </trkpt>
      <trkpt lat="47.17775" lon="6.83693">
        <ele>818.885</ele>
        <time>2018-08-01T10:23:35Z</time>
      </trkpt>
      <trkpt lat="47.17771" lon="6.83683">
        <ele>819.341</ele>
        <time>2018-08-01T10:23:37Z</time>
      </trkpt>
      <trkpt lat="47.17767" lon="6.83674">
        <ele>819.858</ele>
        <time>2018-08-01T10:23:39Z</time>
      </trkpt>
      <trkpt lat="47.17763" lon="6.83665">
        <ele>820.353</ele>
        <time>2018-08-01T10:23:41Z</time>
      </trkpt>
      <trkpt lat="47.1776" lon="6.83656">
        <ele>820.722</ele>
        <time>2018-08-01T10:23:43Z</time>
      </trkpt>
      <trkpt lat="47.17757" lon="6.83648">
        <ele>821.183</ele>
        <time>2018-08-01T10:23:45Z</time>
      </trkpt>
      <trkpt lat="47.17753" lon="6.83638">
        <ele>821.625</ele>
        <time>2018-08-01T10:23:47Z</time>
      </trkpt>
      <trkpt lat="47.17748" lon="6.83627">
        <ele>822.117</ele>
        <time>2018-08-01T10:23:49Z</time>
      </trkpt>
      <trkpt lat="47.17744" lon="6.83617">
        <ele>822.608</ele>
        <time>2018-08-01T10:23:51Z</time>
      </trkpt>
      <trkpt lat="47.17739" lon="6.83608">
        <ele>822.85</ele>
        <time>2018-08-01T10:23:53Z</time>
      </trkpt>
      <trkpt lat="47.17734" lon="6.83599">
        <ele>823.235</ele>
        <time>2018-08-01T10:23:55Z</time>
      </trkpt>
      <trkpt lat="47.17729" lon="6.8359">
        <ele>823.589</ele>
        <time>2018-08-01T10:23:57Z</time>
      </trkpt>
      <trkpt lat="47.17724" lon="6.83581">
        <ele>823.931</ele>
        <time>2018-08-01T10:23:59Z</time>
      </trkpt>
      <trkpt lat="47.17719" lon="6.83572">
        <ele>824.477</ele>
        <time>2018-08-01T10:24:01Z</time>
      </trkpt>
      <trkpt lat="47.17713" lon="6.83563">
        <ele>824.934</ele>
        <time>2018-08-01T10:24:03Z</time>
      </trkpt>
      <trkpt lat="47.17709" lon="6.83553">
        <ele>825.389</ele>
        <time>2018-08-01T10:24:05Z</time>
      </trkpt>
      <trkpt lat="47.17704" lon="6.83542">
        <ele>825.828</ele>
        <time>2018-08-01T10:24:07Z</time>
      </trkpt>
      <trkpt lat="47.17699" lon="6.83532">
        <ele>826.376</ele>
        <time>2018-08-01T10:24:09Z</time>
      </trkpt>
      <trkpt lat="47.17694" lon="6.83522">
        <ele>826.79</ele>
        <time>2018-08-01T10:24:11Z</time>
      </trkpt>
      <trkpt lat="47.17689" lon="6.83512">
        <ele>827.019</ele>
        <time>2018-08-01T10:24:13Z</time>
      </trkpt>
      <trkpt lat="47.17684" lon="6.83502">
        <ele>827.408</ele>
        <time>2018-08-01T10:24:15Z</time>
      </trkpt>
      <trkpt lat="47.17679" lon="6.83492">
        <ele>827.849</ele>
        <time>2018-08-01T10:24:17Z</time>
      </trkpt>
      <trkpt lat="47.17674" lon="6.83482">
        <ele>828.364</ele>
        <time>2018-08-01T10:24:19Z</time>
      </trkpt>
      <trkpt lat="47.17669" lon="6.83472">
        <ele>828.688</ele>
        <time>2018-08-01T10:24:21Z</time>
      </trkpt>
      <trkpt lat="47.17665" lon="6.83463">
        <ele>829.16</ele>
        <time>2018-08-01T10:24:23Z</time>
      </trkpt>
      <trkpt lat="47.17661" lon="6.83452">
        <ele>829.536</ele>
        <time>2018-08-01T10:24:25Z</time>
      </trkpt>
      <trkpt lat="47.17657" lon="6.83442">
        <ele>830.193</ele>
        <time>2018-08-01T10:24:27Z</time>
      </trkpt>
      <trkpt lat="47.17654" lon="6.83432">
        <ele>830.928</ele>
        <time>2018-08-01T10:24:29Z</time>
      </trkpt>
      <trkpt lat="47.17649" lon="6.83422">
        <ele>831.567</ele>
        <time>2018-08-01T10:24:31Z</time>
      </trkpt>
      <trkpt lat="47.17645" lon="6.83411">
        <ele>832.081</ele>
        <time>2018-08-01T10:24:33Z</time>
      </trkpt>
      <trkpt lat="47.17641" lon="6.83401">
        <ele>832.361</ele>
        <time>2018-08-01T10:24:35Z</time>
      </trkpt>
      <trkpt lat="47.17636" lon="6.83391">
        <ele>832.817</ele>
        <time>2018-08-01T10:24:37Z</time>
      </trkpt>
      <trkpt lat="47.17632" lon="6.83382">
        <ele>833.208</ele>
        <time>2018-08-01T10:24:39Z</time>
      </trkpt>
      <trkpt lat="47.17627" lon="6.83373">
        <ele>833.72</ele>
        <time>2018-08-01T10:24:41Z</time>
      </trkpt>
      <trkpt lat="47.17623" lon="6.83364">
        <ele>834.175</ele>
        <time>2018-08-01T10:24:43Z</time>
      </trkpt>
      <trkpt lat="47.17619" lon="6.83355">
        <ele>834.789</ele>
        <time>2018-08-01T10:24:45Z</time>
      </trkpt>
      <trkpt lat="47.17614" lon="6.83347">
        <ele>834.951</ele>
        <time>2018-08-01T10:24:47Z</time>
      </trkpt>
      <trkpt lat="47.1761" lon="6.83338">
        <ele>835.457</ele>
        <time>2018-08-01T10:24:49Z</time>
      </trkpt>
      <trkpt lat="47.17605" lon="6.83327">
        <ele>835.934</ele>
        <time>2018-08-01T10:24:51Z</time>
      </trkpt>
      <trkpt lat="47.17601" lon="6.83317">
        <ele>836.449</ele>
        <time>2018-08-01T10:24:53Z</time>
      </trkpt>
      <trkpt lat="47.17597" lon="6.83309">
        <ele>836.878</ele>
        <time>2018-08-01T10:24:55Z</time>
      </trkpt>
      <trkpt lat="47.17593" lon="6.83301">
        <ele>837.223</ele>
        <time>2018-08-01T10:24:57Z</time>
      </trkpt>
      <trkpt lat="47.17588" lon="6.83292">
        <ele>837.683</ele>
        <time>2018-08-01T10:24:59Z</time>
      </trkpt>
      <trkpt lat="47.17583" lon="6.83282">
        <ele>838.111</ele>
        <time>2018-08-01T10:25:01Z</time>
      </trkpt>
      <trkpt lat="47.17579" lon="6.83272">
        <ele>838.608</ele>
        <time>2018-08-01T10:25:03Z</time>
      </trkpt>
      <trkpt lat="47.17574" lon="6.83262">
        <ele>839.054</ele>
        <time>2018-08-01T10:25:05Z</time>
      </trkpt>
      <trkpt lat="47.17569" lon="6.83251">
        <ele>839.389</ele>
        <time>2018-08-01T10:25:07Z</time>
      </trkpt>
      <trkpt lat="47.17563" lon="6.83242">
        <ele>839.753</ele>
        <time>2018-08-01T10:25:09Z</time>
      </trkpt>
      <trkpt lat="47.17559" lon="6.83236">
        <ele>839.945</ele>
        <time>2018-08-01T10:25:10Z</time>
      </trkpt>
      <trkpt lat="47.17555" lon="6.83227">
        <ele>840.441</ele>
        <time>2018-08-01T10:25:12Z</time>
      </trkpt>
      <trkpt lat="47.17549" lon="6.83219">
        <ele>840.968</ele>
        <time>2018-08-01T10:25:14Z</time>
      </trkpt>
      <trkpt lat="47.17546" lon="6.83209">
        <ele>841.143</ele>
        <time>2018-08-01T10:25:16Z</time>
      </trkpt>
      <trkpt lat="47.17541" lon="6.83199">
        <ele>841.652</ele>
        <time>2018-08-01T10:25:18Z</time>
      </trkpt>
      <trkpt lat="47.17535" lon="6.83192">
        <ele>842.175</ele>
        <time>2018-08-01T10:25:20Z</time>
      </trkpt>
      <trkpt lat="47.1753" lon="6.83182">
        <ele>842.728</ele>
        <time>2018-08-01T10:25:22Z</time>
      </trkpt>
      <trkpt lat="47.17525" lon="6.83175">
        <ele>843.22</ele>
        <time>2018-08-01T10:25:24Z</time>
      </trkpt>
      <trkpt lat="47.17519" lon="6.83166">
        <ele>843.608</ele>
        <time>2018-08-01T10:25:26Z</time>
      </trkpt>
      <trkpt lat="47.17514" lon="6.83157">
        <ele>844.049</ele>
        <time>2018-08-01T10:25:28Z</time>
      </trkpt>
      <trkpt lat="47.17507" lon="6.83149">
        <ele>844.474</ele>
        <time>2018-08-01T10:25:30Z</time>
      </trkpt>
      <trkpt lat="47.17501" lon="6.83143">
        <ele>844.988</ele>
        <time>2018-08-01T10:25:32Z</time>
      </trkpt>
      <trkpt lat="47.17494" lon="6.83138">
        <ele>845.48</ele>
        <time>2018-08-01T10:25:34Z</time>
      </trkpt>
      <trkpt lat="47.17486" lon="6.83133">
        <ele>845.876</ele>
        <time>2018-08-01T10:25:36Z</time>
      </trkpt>
      <trkpt lat="47.17479" lon="6.83127">
        <ele>846.293</ele>
        <time>2018-08-01T10:25:38Z</time>
      </trkpt>
      <trkpt lat="47.17472" lon="6.83122">
        <ele>846.748</ele>
        <time>2018-08-01T10:25:40Z</time>
      </trkpt>
      <trkpt lat="47.17465" lon="6.83116">
        <ele>847.027</ele>
        <time>2018-08-01T10:25:42Z</time>
      </trkpt>
      <trkpt lat="47.17457" lon="6.83111">
        <ele>847.455</ele>
        <time>2018-08-01T10:25:44Z</time>
      </trkpt>
      <trkpt lat="47.1745" lon="6.83105">
        <ele>847.707</ele>
        <time>2018-08-01T10:25:46Z</time>
      </trkpt>
      <trkpt lat="47.17442" lon="6.831">
        <ele>848.017</ele>
        <time>2018-08-01T10:25:48Z</time>
      </trkpt>
      <trkpt lat="47.17435" lon="6.83095">
        <ele>848.308</ele>
        <time>2018-08-01T10:25:50Z</time>
      </trkpt>
      <trkpt lat="47.17428" lon="6.8309">
        <ele>848.857</ele>
        <time>2018-08-01T10:25:52Z</time>
      </trkpt>
      <trkpt lat="47.17421" lon="6.83084">
        <ele>849.442</ele>
        <time>2018-08-01T10:25:54Z</time>
      </trkpt>
      <trkpt lat="47.17415" lon="6.83077">
        <ele>849.986</ele>
        <time>2018-08-01T10:25:56Z</time>
      </trkpt>
      <trkpt lat="47.17412" lon="6.83069">
        <ele>850.438</ele>
        <time>2018-08-01T10:25:58Z</time>
      </trkpt>
      <trkpt lat="47.17408" lon="6.83061">
        <ele>851.084</ele>
        <time>2018-08-01T10:26:00Z</time>
      </trkpt>
      <trkpt lat="47.17403" lon="6.83054">
        <ele>851.681</ele>
        <time>2018-08-01T10:26:02Z</time>
      </trkpt>
      <trkpt lat="47.17398" lon="6.83046">
        <ele>852.266</ele>
        <time>2018-08-01T10:26:04Z</time>
      </trkpt>
      <trkpt lat="47.17394" lon="6.83037">
        <ele>852.735</ele>
        <time>2018-08-01T10:26:06Z</time>
      </trkpt>
      <trkpt lat="47.17389" lon="6.83031">
        <ele>853.373</ele>
        <time>2018-08-01T10:26:08Z</time>
      </trkpt>
      <trkpt lat="47.17386" lon="6.83025">
        <ele>853.685</ele>
        <time>2018-08-01T10:26:10Z</time>
      </trkpt>
      <trkpt lat="47.17391" lon="6.83023">
        <ele>854.613</ele>
        <time>2018-08-01T10:26:15Z</time>
      </trkpt>
      <trkpt lat="47.17395" lon="6.83027">
        <ele>854.708</ele>
        <time>2018-08-01T10:26:17Z</time>
      </trkpt>
      <trkpt lat="47.17399" lon="6.8303">
        <ele>855.029</ele>
        <time>2018-08-01T10:26:19Z</time>
      </trkpt>
      <trkpt lat="47.17403" lon="6.83033">
        <ele>855.634</ele>
        <time>2018-08-01T10:26:21Z</time>
      </trkpt>
      <trkpt lat="47.17409" lon="6.83036">
        <ele>856.768</ele>
        <time>2018-08-01T10:26:24Z</time>
      </trkpt>
      <trkpt lat="47.17414" lon="6.83039">
        <ele>857.45</ele>
        <time>2018-08-01T10:26:26Z</time>
      </trkpt>
      <trkpt lat="47.17418" lon="6.83043">
        <ele>858.056</ele>
        <time>2018-08-01T10:26:28Z</time>
      </trkpt>
      <trkpt lat="47.17423" lon="6.83046">
        <ele>858.683</ele>
        <time>2018-08-01T10:26:30Z</time>
      </trkpt>
      <trkpt lat="47.17428" lon="6.83047">
        <ele>859.278</ele>
        <time>2018-08-01T10:26:32Z</time>
      </trkpt>
      <trkpt lat="47.17433" lon="6.83048">
        <ele>859.627</ele>
        <time>2018-08-01T10:26:34Z</time>
      </trkpt>
      <trkpt lat="47.17438" lon="6.8305">
        <ele>860.096</ele>
        <time>2018-08-01T10:26:36Z</time>
      </trkpt>
      <trkpt lat="47.17443" lon="6.83052">
        <ele>860.231</ele>
        <time>2018-08-01T10:26:38Z</time>
      </trkpt>
      <trkpt lat="47.17448" lon="6.83055">
        <ele>860.524</ele>
        <time>2018-08-01T10:26:40Z</time>
      </trkpt>
      <trkpt lat="47.17454" lon="6.83056">
        <ele>860.908</ele>
        <time>2018-08-01T10:26:42Z</time>
      </trkpt>
      <trkpt lat="47.17459" lon="6.83059">
        <ele>861.161</ele>
        <time>2018-08-01T10:26:44Z</time>
      </trkpt>
      <trkpt lat="47.17465" lon="6.83063">
        <ele>861.466</ele>
        <time>2018-08-01T10:26:46Z</time>
      </trkpt>
      <trkpt lat="47.17471" lon="6.83065">
        <ele>861.73</ele>
        <time>2018-08-01T10:26:48Z</time>
      </trkpt>
      <trkpt lat="47.17476" lon="6.83065">
        <ele>862.042</ele>
        <time>2018-08-01T10:26:50Z</time>
      </trkpt>
      <trkpt lat="47.17482" lon="6.83063">
        <ele>862.328</ele>
        <time>2018-08-01T10:26:52Z</time>
      </trkpt>
      <trkpt lat="47.17489" lon="6.83064">
        <ele>862.665</ele>
        <time>2018-08-01T10:26:54Z</time>
      </trkpt>
      <trkpt lat="47.17496" lon="6.83067">
        <ele>862.94</ele>
        <time>2018-08-01T10:26:56Z</time>
      </trkpt>
      <trkpt lat="47.175" lon="6.83068">
        <ele>862.959</ele>
        <time>2018-08-01T10:26:58Z</time>
      </trkpt>
      <trkpt lat="47.17507" lon="6.83072">
        <ele>862.976</ele>
        <time>2018-08-01T10:27:00Z</time>
      </trkpt>
      <trkpt lat="47.17515" lon="6.83076">
        <ele>862.99</ele>
        <time>2018-08-01T10:27:02Z</time>
      </trkpt>
      <trkpt lat="47.17522" lon="6.8308">
        <ele>863.119</ele>
        <time>2018-08-01T10:27:04Z</time>
      </trkpt>
      <trkpt lat="47.17529" lon="6.83086">
        <ele>863.308</ele>
        <time>2018-08-01T10:27:06Z</time>
      </trkpt>
      <trkpt lat="47.17536" lon="6.8309">
        <ele>863.649</ele>
        <time>2018-08-01T10:27:08Z</time>
      </trkpt>
      <trkpt lat="47.17542" lon="6.83093">
        <ele>863.914</ele>
        <time>2018-08-01T10:27:10Z</time>
      </trkpt>
      <trkpt lat="47.17548" lon="6.83097">
        <ele>864.358</ele>
        <time>2018-08-01T10:27:12Z</time>
      </trkpt>
      <trkpt lat="47.17555" lon="6.83101">
        <ele>864.83</ele>
        <time>2018-08-01T10:27:14Z</time>
      </trkpt>
      <trkpt lat="47.17562" lon="6.83104">
        <ele>865.256</ele>
        <time>2018-08-01T10:27:16Z</time>
      </trkpt>
      <trkpt lat="47.17567" lon="6.83107">
        <ele>865.753</ele>
        <time>2018-08-01T10:27:18Z</time>
      </trkpt>
      <trkpt lat="47.17573" lon="6.8311">
        <ele>866.368</ele>
        <time>2018-08-01T10:27:20Z</time>
      </trkpt>
      <trkpt lat="47.1758" lon="6.83112">
        <ele>866.887</ele>
        <time>2018-08-01T10:27:22Z</time>
      </trkpt>
      <trkpt lat="47.17586" lon="6.83114">
        <ele>867.144</ele>
        <time>2018-08-01T10:27:24Z</time>
      </trkpt>
      <trkpt lat="47.17593" lon="6.83116">
        <ele>867.505</ele>
        <time>2018-08-01T10:27:26Z</time>
      </trkpt>
      <trkpt lat="47.17599" lon="6.83118">
        <ele>867.915</ele>
        <time>2018-08-01T10:27:28Z</time>
      </trkpt>
      <trkpt lat="47.17605" lon="6.8312">
        <ele>868.508</ele>
        <time>2018-08-01T10:27:30Z</time>
      </trkpt>
      <trkpt lat="47.1761" lon="6.83123">
        <ele>868.856</ele>
        <time>2018-08-01T10:27:32Z</time>
      </trkpt>
      <trkpt lat="47.17616" lon="6.83126">
        <ele>869.451</ele>
        <time>2018-08-01T10:27:34Z</time>
      </trkpt>
      <trkpt lat="47.17622" lon="6.83131">
        <ele>869.865</ele>
        <time>2018-08-01T10:27:36Z</time>
      </trkpt>
      <trkpt lat="47.17625" lon="6.83138">
        <ele>870.147</ele>
        <time>2018-08-01T10:27:38Z</time>
      </trkpt>
      <trkpt lat="47.17631" lon="6.83147">
        <ele>870.433</ele>
        <time>2018-08-01T10:27:40Z</time>
      </trkpt>
      <trkpt lat="47.17637" lon="6.83155">
        <ele>870.89</ele>
        <time>2018-08-01T10:27:42Z</time>
      </trkpt>
      <trkpt lat="47.17643" lon="6.83164">
        <ele>871.335</ele>
        <time>2018-08-01T10:27:44Z</time>
      </trkpt>
      <trkpt lat="47.17649" lon="6.83169">
        <ele>871.794</ele>
        <time>2018-08-01T10:27:46Z</time>
      </trkpt>
      <trkpt lat="47.17655" lon="6.83173">
        <ele>872.031</ele>
        <time>2018-08-01T10:27:48Z</time>
      </trkpt>
      <trkpt lat="47.17661" lon="6.83176">
        <ele>872.561</ele>
        <time>2018-08-01T10:27:50Z</time>
      </trkpt>
      <trkpt lat="47.17668" lon="6.8318">
        <ele>873.007</ele>
        <time>2018-08-01T10:27:52Z</time>
      </trkpt>
      <trkpt lat="47.17673" lon="6.83184">
        <ele>873.508</ele>
        <time>2018-08-01T10:27:54Z</time>
      </trkpt>
      <trkpt lat="47.17678" lon="6.83188">
        <ele>874.035</ele>
        <time>2018-08-01T10:27:57Z</time>
      </trkpt>
      <trkpt lat="47.17682" lon="6.83191">
        <ele>874.23</ele>
        <time>2018-08-01T10:28:00Z</time>
      </trkpt>
      <trkpt lat="47.17687" lon="6.83194">
        <ele>874.644</ele>
        <time>2018-08-01T10:28:04Z</time>
      </trkpt>
      <trkpt lat="47.17692" lon="6.83201">
        <ele>874.836</ele>
        <time>2018-08-01T10:28:07Z</time>
      </trkpt>
      <trkpt lat="47.17695" lon="6.83206">
        <ele>875.242</ele>
        <time>2018-08-01T10:28:10Z</time>
      </trkpt>
      <trkpt lat="47.17699" lon="6.83209">
        <ele>875.649</ele>
        <time>2018-08-01T10:28:13Z</time>
      </trkpt>
      <trkpt lat="47.17705" lon="6.83215">
        <ele>875.974</ele>
        <time>2018-08-01T10:28:16Z</time>
      </trkpt>
      <trkpt lat="47.17709" lon="6.83219">
        <ele>876.153</ele>
        <time>2018-08-01T10:28:18Z</time>
      </trkpt>
      <trkpt lat="47.17714" lon="6.83221">
        <ele>876.412</ele>
        <time>2018-08-01T10:28:20Z</time>
      </trkpt>
      <trkpt lat="47.17719" lon="6.83222">
        <ele>876.632</ele>
        <time>2018-08-01T10:28:22Z</time>
      </trkpt>
      <trkpt lat="47.17725" lon="6.83226">
        <ele>877.005</ele>
        <time>2018-08-01T10:28:25Z</time>
      </trkpt>
      <trkpt lat="47.17731" lon="6.83229">
        <ele>877.308</ele>
        <time>2018-08-01T10:28:28Z</time>
      </trkpt>
      <trkpt lat="47.17735" lon="6.83232">
        <ele>877.613</ele>
        <time>2018-08-01T10:28:30Z</time>
      </trkpt>
      <trkpt lat="47.1774" lon="6.83238">
        <ele>878.068</ele>
        <time>2018-08-01T10:28:33Z</time>
      </trkpt>
      <trkpt lat="47.17744" lon="6.83243">
        <ele>878.332</ele>
        <time>2018-08-01T10:28:35Z</time>
      </trkpt>
      <trkpt lat="47.17749" lon="6.8325">
        <ele>878.934</ele>
        <time>2018-08-01T10:28:37Z</time>
      </trkpt>
      <trkpt lat="47.17752" lon="6.83257">
        <ele>879.34</ele>
        <time>2018-08-01T10:28:39Z</time>
      </trkpt>
      <trkpt lat="47.17755" lon="6.83264">
        <ele>879.827</ele>
        <time>2018-08-01T10:28:41Z</time>
      </trkpt>
      <trkpt lat="47.17759" lon="6.83271">
        <ele>880.162</ele>
        <time>2018-08-01T10:28:43Z</time>
      </trkpt>
      <trkpt lat="47.17764" lon="6.83277">
        <ele>880.431</ele>
        <time>2018-08-01T10:28:45Z</time>
      </trkpt>
      <trkpt lat="47.1777" lon="6.83282">
        <ele>880.962</ele>
        <time>2018-08-01T10:28:47Z</time>
      </trkpt>
      <trkpt lat="47.17775" lon="6.83288">
        <ele>881.483</ele>
        <time>2018-08-01T10:28:49Z</time>
      </trkpt>
      <trkpt lat="47.1778" lon="6.83295">
        <ele>881.911</ele>
        <time>2018-08-01T10:28:51Z</time>
      </trkpt>
      <trkpt lat="47.17787" lon="6.83301">
        <ele>882.308</ele>
        <time>2018-08-01T10:28:53Z</time>
      </trkpt>
      <trkpt lat="47.17793" lon="6.83307">
        <ele>882.538</ele>
        <time>2018-08-01T10:28:55Z</time>
      </trkpt>
      <trkpt lat="47.17798" lon="6.83312">
        <ele>882.743</ele>
        <time>2018-08-01T10:28:57Z</time>
      </trkpt>
      <trkpt lat="47.17803" lon="6.83318">
        <ele>883.197</ele>
        <time>2018-08-01T10:28:59Z</time>
      </trkpt>
      <trkpt lat="47.17808" lon="6.83323">
        <ele>883.479</ele>
        <time>2018-08-01T10:29:01Z</time>
      </trkpt>
      <trkpt lat="47.17814" lon="6.83326">
        <ele>883.995</ele>
        <time>2018-08-01T10:29:03Z</time>
      </trkpt>
      <trkpt lat="47.17821" lon="6.8333">
        <ele>884.362</ele>
        <time>2018-08-01T10:29:05Z</time>
      </trkpt>
      <trkpt lat="47.17826" lon="6.83335">
        <ele>884.717</ele>
        <time>2018-08-01T10:29:07Z</time>
      </trkpt>
      <trkpt lat="47.17832" lon="6.8334">
        <ele>885.126</ele>
        <time>2018-08-01T10:29:09Z</time>
      </trkpt>
      <trkpt lat="47.17838" lon="6.83345">
        <ele>885.524</ele>
        <time>2018-08-01T10:29:11Z</time>
      </trkpt>
      <trkpt lat="47.17843" lon="6.83347">
        <ele>885.904</ele>
        <time>2018-08-01T10:29:13Z</time>
      </trkpt>
      <trkpt lat="47.17848" lon="6.8335">
        <ele>886.314</ele>
        <time>2018-08-01T10:29:15Z</time>
      </trkpt>
      <trkpt lat="47.17852" lon="6.83355">
        <ele>886.808</ele>
        <time>2018-08-01T10:29:17Z</time>
      </trkpt>
      <trkpt lat="47.17857" lon="6.83359">
        <ele>887.254</ele>
        <time>2018-08-01T10:29:19Z</time>
      </trkpt>
      <trkpt lat="47.17863" lon="6.83362">
        <ele>887.389</ele>
        <time>2018-08-01T10:29:21Z</time>
      </trkpt>
      <trkpt lat="47.17868" lon="6.83364">
        <ele>887.773</ele>
        <time>2018-08-01T10:29:23Z</time>
      </trkpt>
      <trkpt lat="47.17873" lon="6.83366">
        <ele>888.115</ele>
        <time>2018-08-01T10:29:25Z</time>
      </trkpt>
      <trkpt lat="47.17879" lon="6.83369">
        <ele>888.871</ele>
        <time>2018-08-01T10:29:27Z</time>
      </trkpt>
      <trkpt lat="47.17885" lon="6.83376">
        <ele>889.258</ele>
        <time>2018-08-01T10:29:29Z</time>
      </trkpt>
      <trkpt lat="47.17891" lon="6.83381">
        <ele>889.633</ele>
        <time>2018-08-01T10:29:31Z</time>
      </trkpt>
      <trkpt lat="47.17897" lon="6.83384">
        <ele>889.972</ele>
        <time>2018-08-01T10:29:33Z</time>
      </trkpt>
      <trkpt lat="47.17902" lon="6.83386">
        <ele>890.282</ele>
        <time>2018-08-01T10:29:35Z</time>
      </trkpt>
      <trkpt lat="47.17908" lon="6.8339">
        <ele>890.543</ele>
        <time>2018-08-01T10:29:37Z</time>
      </trkpt>
      <trkpt lat="47.17913" lon="6.83395">
        <ele>890.917</ele>
        <time>2018-08-01T10:29:39Z</time>
      </trkpt>
      <trkpt lat="47.17918" lon="6.83401">
        <ele>891.308</ele>
        <time>2018-08-01T10:29:41Z</time>
      </trkpt>
      <trkpt lat="47.17921" lon="6.83408">
        <ele>891.84</ele>
        <time>2018-08-01T10:29:43Z</time>
      </trkpt>
      <trkpt lat="47.17925" lon="6.83415">
        <ele>892.575</ele>
        <time>2018-08-01T10:29:45Z</time>
      </trkpt>
      <trkpt lat="47.1793" lon="6.83424">
        <ele>893.059</ele>
        <time>2018-08-01T10:29:47Z</time>
      </trkpt>
      <trkpt lat="47.17934" lon="6.8343">
        <ele>893.171</ele>
        <time>2018-08-01T10:29:49Z</time>
      </trkpt>
      <trkpt lat="47.17937" lon="6.83435">
        <ele>893.477</ele>
        <time>2018-08-01T10:29:51Z</time>
      </trkpt>
      <trkpt lat="47.17941" lon="6.83442">
        <ele>894.014</ele>
        <time>2018-08-01T10:29:53Z</time>
      </trkpt>
      <trkpt lat="47.17945" lon="6.8345">
        <ele>894.559</ele>
        <time>2018-08-01T10:29:55Z</time>
      </trkpt>
      <trkpt lat="47.17949" lon="6.83459">
        <ele>894.978</ele>
        <time>2018-08-01T10:29:57Z</time>
      </trkpt>
      <trkpt lat="47.17951" lon="6.83466">
        <ele>895.358</ele>
        <time>2018-08-01T10:29:59Z</time>
      </trkpt>
      <trkpt lat="47.17952" lon="6.83473">
        <ele>895.852</ele>
        <time>2018-08-01T10:30:01Z</time>
      </trkpt>
      <trkpt lat="47.17955" lon="6.83482">
        <ele>896.017</ele>
        <time>2018-08-01T10:30:03Z</time>
      </trkpt>
      <trkpt lat="47.17959" lon="6.83489">
        <ele>896.208</ele>
        <time>2018-08-01T10:30:05Z</time>
      </trkpt>
      <trkpt lat="47.17963" lon="6.83495">
        <ele>896.697</ele>
        <time>2018-08-01T10:30:07Z</time>
      </trkpt>
      <trkpt lat="47.17967" lon="6.83504">
        <ele>896.932</ele>
        <time>2018-08-01T10:30:09Z</time>
      </trkpt>
      <trkpt lat="47.17972" lon="6.8351">
        <ele>897.246</ele>
        <time>2018-08-01T10:30:11Z</time>
      </trkpt>
      <trkpt lat="47.17977" lon="6.83516">
        <ele>897.798</ele>
        <time>2018-08-01T10:30:13Z</time>
      </trkpt>
      <trkpt lat="47.17982" lon="6.83522">
        <ele>898.094</ele>
        <time>2018-08-01T10:30:15Z</time>
      </trkpt>
      <trkpt lat="47.17987" lon="6.83529">
        <ele>898.351</ele>
        <time>2018-08-01T10:30:17Z</time>
      </trkpt>
      <trkpt lat="47.17991" lon="6.83535">
        <ele>898.666</ele>
        <time>2018-08-01T10:30:19Z</time>
      </trkpt>
      <trkpt lat="47.17996" lon="6.83541">
        <ele>898.975</ele>
        <time>2018-08-01T10:30:21Z</time>
      </trkpt>
      <trkpt lat="47.18001" lon="6.83546">
        <ele>899.294</ele>
        <time>2018-08-01T10:30:23Z</time>
      </trkpt>
      <trkpt lat="47.18006" lon="6.83552">
        <ele>899.857</ele>
        <time>2018-08-01T10:30:25Z</time>
      </trkpt>
      <trkpt lat="47.18012" lon="6.83557">
        <ele>900.322</ele>
        <time>2018-08-01T10:30:27Z</time>
      </trkpt>
      <trkpt lat="47.18017" lon="6.83563">
        <ele>900.708</ele>
        <time>2018-08-01T10:30:29Z</time>
      </trkpt>
      <trkpt lat="47.18022" lon="6.83567">
        <ele>901.251</ele>
        <time>2018-08-01T10:30:31Z</time>
      </trkpt>
      <trkpt lat="47.18026" lon="6.83574">
        <ele>901.636</ele>
        <time>2018-08-01T10:30:33Z</time>
      </trkpt>
      <trkpt lat="47.1803" lon="6.83581">
        <ele>902.03</ele>
        <time>2018-08-01T10:30:35Z</time>
      </trkpt>
      <trkpt lat="47.18034" lon="6.83591">
        <ele>902.472</ele>
        <time>2018-08-01T10:30:37Z</time>
      </trkpt>
      <trkpt lat="47.18037" lon="6.836">
        <ele>903.098</ele>
        <time>2018-08-01T10:30:39Z</time>
      </trkpt>
      <trkpt lat="47.1804" lon="6.83609">
        <ele>903.475</ele>
        <time>2018-08-01T10:30:41Z</time>
      </trkpt>
      <trkpt lat="47.18044" lon="6.83617">
        <ele>903.58</ele>
        <time>2018-08-01T10:30:43Z</time>
      </trkpt>
      <trkpt lat="47.18049" lon="6.83623">
        <ele>903.979</ele>
        <time>2018-08-01T10:30:45Z</time>
      </trkpt>
      <trkpt lat="47.18055" lon="6.83628">
        <ele>904.226</ele>
        <time>2018-08-01T10:30:47Z</time>
      </trkpt>
      <trkpt lat="47.1806" lon="6.83633">
        <ele>904.647</ele>
        <time>2018-08-01T10:30:49Z</time>
      </trkpt>
      <trkpt lat="47.18065" lon="6.8364">
        <ele>905.111</ele>
        <time>2018-08-01T10:30:51Z</time>
      </trkpt>
      <trkpt lat="47.18069" lon="6.83649">
        <ele>905.608</ele>
        <time>2018-08-01T10:30:53Z</time>
      </trkpt>
      <trkpt lat="47.18072" lon="6.83658">
        <ele>906.254</ele>
        <time>2018-08-01T10:30:55Z</time>
      </trkpt>
      <trkpt lat="47.18075" lon="6.83668">
        <ele>906.659</ele>
        <time>2018-08-01T10:30:57Z</time>
      </trkpt>
      <trkpt lat="47.18077" lon="6.83676">
        <ele>907.113</ele>
        <time>2018-08-01T10:30:59Z</time>
      </trkpt>
      <trkpt lat="47.1808" lon="6.83681">
        <ele>907.485</ele>
        <time>2018-08-01T10:31:01Z</time>
      </trkpt>
      <trkpt lat="47.18083" lon="6.83686">
        <ele>907.961</ele>
        <time>2018-08-01T10:31:03Z</time>
      </trkpt>
      <trkpt lat="47.18087" lon="6.83693">
        <ele>908.438</ele>
        <time>2018-08-01T10:31:05Z</time>
      </trkpt>
      <trkpt lat="47.1809" lon="6.83703">
        <ele>908.883</ele>
        <time>2018-08-01T10:31:07Z</time>
      </trkpt>
      <trkpt lat="47.18092" lon="6.83711">
        <ele>909.132</ele>
        <time>2018-08-01T10:31:09Z</time>
      </trkpt>
      <trkpt lat="47.18095" lon="6.83718">
        <ele>909.348</ele>
        <time>2018-08-01T10:31:11Z</time>
      </trkpt>
      <trkpt lat="47.18098" lon="6.83725">
        <ele>909.861</ele>
        <time>2018-08-01T10:31:14Z</time>
      </trkpt>
      <trkpt lat="47.18101" lon="6.83731">
        <ele>910.417</ele>
        <time>2018-08-01T10:31:18Z</time>
      </trkpt>
      <trkpt lat="47.18105" lon="6.83736">
        <ele>911.108</ele>
        <time>2018-08-01T10:31:22Z</time>
      </trkpt>
      <trkpt lat="47.18108" lon="6.83744">
        <ele>911.496</ele>
        <time>2018-08-01T10:31:25Z</time>
      </trkpt>
      <trkpt lat="47.1811" lon="6.83751">
        <ele>911.641</ele>
        <time>2018-08-01T10:31:27Z</time>
      </trkpt>
      <trkpt lat="47.18111" lon="6.83758">
        <ele>911.925</ele>
        <time>2018-08-01T10:31:29Z</time>
      </trkpt>
      <trkpt lat="47.18113" lon="6.83764">
        <ele>912.117</ele>
        <time>2018-08-01T10:31:31Z</time>
      </trkpt>
      <trkpt lat="47.18114" lon="6.83771">
        <ele>912.463</ele>
        <time>2018-08-01T10:31:33Z</time>
      </trkpt>
      <trkpt lat="47.18118" lon="6.83777">
        <ele>912.94</ele>
        <time>2018-08-01T10:31:36Z</time>
      </trkpt>
      <trkpt lat="47.18121" lon="6.83782">
        <ele>913.145</ele>
        <time>2018-08-01T10:31:38Z</time>
      </trkpt>
      <trkpt lat="47.18124" lon="6.83788">
        <ele>913.454</ele>
        <time>2018-08-01T10:31:40Z</time>
      </trkpt>
      <trkpt lat="47.18128" lon="6.83795">
        <ele>913.857</ele>
        <time>2018-08-01T10:31:43Z</time>
      </trkpt>
      <trkpt lat="47.18131" lon="6.83801">
        <ele>914.1</ele>
        <time>2018-08-01T10:31:45Z</time>
      </trkpt>
      <trkpt lat="47.18135" lon="6.83807">
        <ele>914.42</ele>
        <time>2018-08-01T10:31:47Z</time>
      </trkpt>
      <trkpt lat="47.18139" lon="6.83811">
        <ele>914.608</ele>
        <time>2018-08-01T10:31:49Z</time>
      </trkpt>
      <trkpt lat="47.18144" lon="6.83815">
        <ele>914.927</ele>
        <time>2018-08-01T10:31:51Z</time>
      </trkpt>
      <trkpt lat="47.18148" lon="6.83818">
        <ele>915.252</ele>
        <time>2018-08-01T10:31:53Z</time>
      </trkpt>
      <trkpt lat="47.18152" lon="6.83822">
        <ele>915.536</ele>
        <time>2018-08-01T10:31:55Z</time>
      </trkpt>
      <trkpt lat="47.18157" lon="6.83826">
        <ele>915.768</ele>
        <time>2018-08-01T10:31:57Z</time>
      </trkpt>
      <trkpt lat="47.18163" lon="6.83829">
        <ele>916.024</ele>
        <time>2018-08-01T10:31:59Z</time>
      </trkpt>
      <trkpt lat="47.18167" lon="6.83833">
        <ele>916.351</ele>
        <time>2018-08-01T10:32:01Z</time>
      </trkpt>
      <trkpt lat="47.18172" lon="6.83837">
        <ele>916.686</ele>
        <time>2018-08-01T10:32:03Z</time>
      </trkpt>
      <trkpt lat="47.18177" lon="6.83841">
        <ele>917.055</ele>
        <time>2018-08-01T10:32:05Z</time>
      </trkpt>
      <trkpt lat="47.18182" lon="6.83845">
        <ele>917.372</ele>
        <time>2018-08-01T10:32:07Z</time>
      </trkpt>
      <trkpt lat="47.18187" lon="6.8385">
        <ele>917.713</ele>
        <time>2018-08-01T10:32:09Z</time>
      </trkpt>
      <trkpt lat="47.18192" lon="6.83854">
        <ele>917.914</ele>
        <time>2018-08-01T10:32:11Z</time>
      </trkpt>
      <trkpt lat="47.18197" lon="6.83858">
        <ele>918.108</ele>
        <time>2018-08-01T10:32:13Z</time>
      </trkpt>
      <trkpt lat="47.18202" lon="6.83864">
        <ele>918.599</ele>
        <time>2018-08-01T10:32:15Z</time>
      </trkpt>
      <trkpt lat="47.18206" lon="6.8387">
        <ele>918.934</ele>
        <time>2018-08-01T10:32:17Z</time>
      </trkpt>
      <trkpt lat="47.1821" lon="6.83875">
        <ele>919.478</ele>
        <time>2018-08-01T10:32:19Z</time>
      </trkpt>
      <trkpt lat="47.18215" lon="6.83879">
        <ele>920.04</ele>
        <time>2018-08-01T10:32:21Z</time>
      </trkpt>
      <trkpt lat="47.1822" lon="6.83882">
        <ele>920.416</ele>
        <time>2018-08-01T10:32:23Z</time>
      </trkpt>
      <trkpt lat="47.18224" lon="6.83886">
        <ele>920.843</ele>
        <time>2018-08-01T10:32:25Z</time>
      </trkpt>
      <trkpt lat="47.18229" lon="6.8389">
        <ele>921.288</ele>
        <time>2018-08-01T10:32:27Z</time>
      </trkpt>
      <trkpt lat="47.18232" lon="6.83895">
        <ele>921.667</ele>
        <time>2018-08-01T10:32:29Z</time>
      </trkpt>
      <trkpt lat="47.18236" lon="6.83899">
        <ele>922.173</ele>
        <time>2018-08-01T10:32:31Z</time>
      </trkpt>
      <trkpt lat="47.1824" lon="6.83903">
        <ele>922.285</ele>
        <time>2018-08-01T10:32:33Z</time>
      </trkpt>
      <trkpt lat="47.18244" lon="6.83907">
        <ele>922.413</ele>
        <time>2018-08-01T10:32:35Z</time>
      </trkpt>
      <trkpt lat="47.18249" lon="6.83913">
        <ele>923.108</ele>
        <time>2018-08-01T10:32:38Z</time>
      </trkpt>
      <trkpt lat="47.18253" lon="6.83916">
        <ele>923.619</ele>
        <time>2018-08-01T10:32:40Z</time>
      </trkpt>
      <trkpt lat="47.18258" lon="6.83918">
        <ele>923.964</ele>
        <time>2018-08-01T10:32:42Z</time>
      </trkpt>
      <trkpt lat="47.18263" lon="6.8392">
        <ele>924.258</ele>
        <time>2018-08-01T10:32:44Z</time>
      </trkpt>
      <trkpt lat="47.18268" lon="6.83925">
        <ele>924.54</ele>
        <time>2018-08-01T10:32:46Z</time>
      </trkpt>
      <trkpt lat="47.18272" lon="6.8393">
        <ele>924.846</ele>
        <time>2018-08-01T10:32:48Z</time>
      </trkpt>
      <trkpt lat="47.18275" lon="6.83935">
        <ele>925.193</ele>
        <time>2018-08-01T10:32:50Z</time>
      </trkpt>
      <trkpt lat="47.18278" lon="6.83941">
        <ele>925.228</ele>
        <time>2018-08-01T10:32:52Z</time>
      </trkpt>
      <trkpt lat="47.18281" lon="6.83947">
        <ele>925.577</ele>
        <time>2018-08-01T10:32:54Z</time>
      </trkpt>
      <trkpt lat="47.18283" lon="6.83954">
        <ele>925.834</ele>
        <time>2018-08-01T10:32:57Z</time>
      </trkpt>
      <trkpt lat="47.18288" lon="6.83954">
        <ele>926.855</ele>
        <time>2018-08-01T10:33:46Z</time>
      </trkpt>
      <trkpt lat="47.18291" lon="6.83961">
        <ele>927.01</ele>
        <time>2018-08-01T10:33:48Z</time>
      </trkpt>
      <trkpt lat="47.18293" lon="6.83967">
        <ele>927.208</ele>
        <time>2018-08-01T10:33:50Z</time>
      </trkpt>
      <trkpt lat="47.18296" lon="6.83973">
        <ele>927.585</ele>
        <time>2018-08-01T10:33:52Z</time>
      </trkpt>
      <trkpt lat="47.18298" lon="6.83978">
        <ele>927.73</ele>
        <time>2018-08-01T10:33:54Z</time>
      </trkpt>
      <trkpt lat="47.18301" lon="6.83984">
        <ele>927.994</ele>
        <time>2018-08-01T10:33:56Z</time>
      </trkpt>
      <trkpt lat="47.18304" lon="6.83989">
        <ele>928.286</ele>
        <time>2018-08-01T10:33:58Z</time>
      </trkpt>
      <trkpt lat="47.18309" lon="6.83994">
        <ele>928.532</ele>
        <time>2018-08-01T10:34:00Z</time>
      </trkpt>
      <trkpt lat="47.18313" lon="6.84">
        <ele>928.989</ele>
        <time>2018-08-01T10:34:02Z</time>
      </trkpt>
      <trkpt lat="47.18316" lon="6.84007">
        <ele>929.124</ele>
        <time>2018-08-01T10:34:04Z</time>
      </trkpt>
      <trkpt lat="47.18318" lon="6.84015">
        <ele>929.243</ele>
        <time>2018-08-01T10:34:06Z</time>
      </trkpt>
      <trkpt lat="47.1832" lon="6.84022">
        <ele>929.684</ele>
        <time>2018-08-01T10:34:08Z</time>
      </trkpt>
      <trkpt lat="47.18323" lon="6.84031">
        <ele>930.207</ele>
        <time>2018-08-01T10:34:11Z</time>
      </trkpt>
      <trkpt lat="47.18325" lon="6.8404">
        <ele>930.517</ele>
        <time>2018-08-01T10:34:14Z</time>
      </trkpt>
      <trkpt lat="47.18326" lon="6.84049">
        <ele>930.708</ele>
        <time>2018-08-01T10:34:16Z</time>
      </trkpt>
      <trkpt lat="47.18327" lon="6.84056">
        <ele>931.18</ele>
        <time>2018-08-01T10:34:18Z</time>
      </trkpt>
      <trkpt lat="47.18328" lon="6.84062">
        <ele>931.665</ele>
        <time>2018-08-01T10:34:20Z</time>
      </trkpt>
      <trkpt lat="47.1833" lon="6.84069">
        <ele>931.919</ele>
        <time>2018-08-01T10:34:22Z</time>
      </trkpt>
      <trkpt lat="47.18331" lon="6.84075">
        <ele>932.121</ele>
        <time>2018-08-01T10:34:24Z</time>
      </trkpt>
      <trkpt lat="47.18333" lon="6.84082">
        <ele>932.427</ele>
        <time>2018-08-01T10:34:26Z</time>
      </trkpt>
      <trkpt lat="47.18336" lon="6.8409">
        <ele>932.954</ele>
        <time>2018-08-01T10:34:28Z</time>
      </trkpt>
      <trkpt lat="47.18337" lon="6.84097">
        <ele>933.469</ele>
        <time>2018-08-01T10:34:30Z</time>
      </trkpt>
      <trkpt lat="47.1834" lon="6.84104">
        <ele>934.038</ele>
        <time>2018-08-01T10:34:33Z</time>
      </trkpt>
      <trkpt lat="47.18342" lon="6.84113">
        <ele>934.528</ele>
        <time>2018-08-01T10:34:37Z</time>
      </trkpt>
      <trkpt lat="47.1834" lon="6.8412">
        <ele>935.089</ele>
        <time>2018-08-01T10:34:39Z</time>
      </trkpt>
      <trkpt lat="47.18337" lon="6.84129">
        <ele>935.417</ele>
        <time>2018-08-01T10:34:41Z</time>
      </trkpt>
      <trkpt lat="47.18336" lon="6.84138">
        <ele>935.808</ele>
        <time>2018-08-01T10:34:43Z</time>
      </trkpt>
      <trkpt lat="47.18334" lon="6.84147">
        <ele>936.274</ele>
        <time>2018-08-01T10:34:45Z</time>
      </trkpt>
      <trkpt lat="47.18333" lon="6.84155">
        <ele>936.369</ele>
        <time>2018-08-01T10:34:47Z</time>
      </trkpt>
      <trkpt lat="47.18333" lon="6.84163">
        <ele>936.663</ele>
        <time>2018-08-01T10:34:49Z</time>
      </trkpt>
      <trkpt lat="47.18334" lon="6.84169">
        <ele>936.775</ele>
        <time>2018-08-01T10:34:51Z</time>
      </trkpt>
      <trkpt lat="47.18336" lon="6.84175">
        <ele>937.151</ele>
        <time>2018-08-01T10:34:53Z</time>
      </trkpt>
      <trkpt lat="47.1834" lon="6.84182">
        <ele>937.348</ele>
        <time>2018-08-01T10:34:55Z</time>
      </trkpt>
      <trkpt lat="47.18345" lon="6.84187">
        <ele>937.753</ele>
        <time>2018-08-01T10:34:58Z</time>
      </trkpt>
      <trkpt lat="47.18351" lon="6.84191">
        <ele>938.152</ele>
        <time>2018-08-01T10:35:01Z</time>
      </trkpt>
      <trkpt lat="47.18356" lon="6.84195">
        <ele>938.656</ele>
        <time>2018-08-01T10:35:04Z</time>
      </trkpt>
      <trkpt lat="47.18361" lon="6.84201">
        <ele>939.159</ele>
        <time>2018-08-01T10:35:07Z</time>
      </trkpt>
      <trkpt lat="47.18362" lon="6.84208">
        <ele>939.414</ele>
        <time>2018-08-01T10:35:10Z</time>
      </trkpt>
      <trkpt lat="47.18362" lon="6.84215">
        <ele>939.608</ele>
        <time>2018-08-01T10:38:19Z</time>
      </trkpt>
      <trkpt lat="47.18366" lon="6.8421">
        <ele>939.767</ele>
        <time>2018-08-01T10:38:31Z</time>
      </trkpt>
      <trkpt lat="47.18369" lon="6.84204">
        <ele>939.852</ele>
        <time>2018-08-01T10:38:32Z</time>
      </trkpt>
      <trkpt lat="47.18372" lon="6.84198">
        <ele>939.946</ele>
        <time>2018-08-01T10:38:33Z</time>
      </trkpt>
      <trkpt lat="47.18375" lon="6.84193">
        <ele>940.128</ele>
        <time>2018-08-01T10:38:35Z</time>
      </trkpt>
      <trkpt lat="47.18378" lon="6.84188">
        <ele>940.884</ele>
        <time>2018-08-01T10:38:44Z</time>
      </trkpt>
      <trkpt lat="47.18374" lon="6.84191">
        <ele>941.251</ele>
        <time>2018-08-01T10:38:50Z</time>
      </trkpt>
      <trkpt lat="47.18373" lon="6.84198">
        <ele>941.336</ele>
        <time>2018-08-01T10:38:55Z</time>
      </trkpt>
      <trkpt lat="47.18372" lon="6.84207">
        <ele>941.445</ele>
        <time>2018-08-01T10:39:01Z</time>
      </trkpt>
      <trkpt lat="47.18374" lon="6.84215">
        <ele>941.457</ele>
        <time>2018-08-01T10:39:04Z</time>
      </trkpt>
      <trkpt lat="47.18373" lon="6.84208">
        <ele>944.5</ele>
        <time>2018-08-01T10:39:57Z</time>
      </trkpt>
      <trkpt lat="47.18372" lon="6.84215">
        <ele>949.22</ele>
        <time>2018-08-01T10:40:42Z</time>
      </trkpt>
      <trkpt lat="47.18371" lon="6.84222">
        <ele>950.408</ele>
        <time>2018-08-01T10:40:50Z</time>
      </trkpt>
      <trkpt lat="47.18372" lon="6.84229">
        <ele>950.927</ele>
        <time>2018-08-01T10:40:54Z</time>
      </trkpt>
      <trkpt lat="47.18378" lon="6.84227">
        <ele>951.432</ele>
        <time>2018-08-01T10:40:57Z</time>
      </trkpt>
      <trkpt lat="47.18383" lon="6.84223">
        <ele>951.616</ele>
        <time>2018-08-01T10:40:59Z</time>
      </trkpt>
      <trkpt lat="47.18378" lon="6.84232">
        <ele>951.578</ele>
        <time>2018-08-01T10:41:03Z</time>
      </trkpt>
      <trkpt lat="47.18373" lon="6.84235">
        <ele>951.334</ele>
        <time>2018-08-01T10:41:05Z</time>
      </trkpt>
      <trkpt lat="47.18368" lon="6.84235">
        <ele>951.171</ele>
        <time>2018-08-01T10:41:08Z</time>
      </trkpt>
      <trkpt lat="47.18364" lon="6.84239">
        <ele>950.266</ele>
        <time>2018-08-01T10:41:16Z</time>
      </trkpt>
      <trkpt lat="47.18359" lon="6.84239">
        <ele>949.825</ele>
        <time>2018-08-01T10:41:19Z</time>
      </trkpt>
      <trkpt lat="47.18354" lon="6.84239">
        <ele>949.367</ele>
        <time>2018-08-01T10:41:22Z</time>
      </trkpt>
      <trkpt lat="47.18349" lon="6.8424">
        <ele>948.981</ele>
        <time>2018-08-01T10:41:24Z</time>
      </trkpt>
      <trkpt lat="47.18339" lon="6.84247">
        <ele>948.619</ele>
        <time>2018-08-01T10:41:25Z</time>
      </trkpt>
      <trkpt lat="47.18329" lon="6.84254">
        <ele>948.408</ele>
        <time>2018-08-01T10:41:26Z</time>
      </trkpt>
      <trkpt lat="47.18324" lon="6.84258">
        <ele>948.268</ele>
        <time>2018-08-01T10:41:27Z</time>
      </trkpt>
      <trkpt lat="47.18317" lon="6.84264">
        <ele>948.073</ele>
        <time>2018-08-01T10:41:29Z</time>
      </trkpt>
      <trkpt lat="47.18308" lon="6.84266">
        <ele>947.957</ele>
        <time>2018-08-01T10:41:31Z</time>
      </trkpt>
      <trkpt lat="47.18302" lon="6.84265">
        <ele>947.869</ele>
        <time>2018-08-01T10:41:33Z</time>
      </trkpt>
      <trkpt lat="47.18298" lon="6.84262">
        <ele>947.345</ele>
        <time>2018-08-01T10:41:37Z</time>
      </trkpt>
      <trkpt lat="47.18292" lon="6.84263">
        <ele>947.122</ele>
        <time>2018-08-01T10:41:41Z</time>
      </trkpt>
      <trkpt lat="47.18282" lon="6.84252">
        <ele>947.087</ele>
        <time>2018-08-01T10:42:08Z</time>
      </trkpt>
      <trkpt lat="47.18289" lon="6.84252">
        <ele>946.946</ele>
        <time>2018-08-01T10:42:12Z</time>
      </trkpt>
      <trkpt lat="47.18284" lon="6.84249">
        <ele>946.523</ele>
        <time>2018-08-01T10:42:18Z</time>
      </trkpt>
      <trkpt lat="47.18279" lon="6.84254">
        <ele>946.583</ele>
        <time>2018-08-01T10:42:21Z</time>
      </trkpt>
      <trkpt lat="47.18276" lon="6.8426">
        <ele>946.411</ele>
        <time>2018-08-01T10:42:23Z</time>
      </trkpt>
      <trkpt lat="47.18272" lon="6.84267">
        <ele>946.308</ele>
        <time>2018-08-01T10:42:25Z</time>
      </trkpt>
      <trkpt lat="47.1827" lon="6.84272">
        <ele>946.344</ele>
        <time>2018-08-01T10:42:30Z</time>
      </trkpt>
      <trkpt lat="47.18268" lon="6.84278">
        <ele>946.189</ele>
        <time>2018-08-01T10:42:40Z</time>
      </trkpt>
      <trkpt lat="47.18271" lon="6.84273">
        <ele>946.423</ele>
        <time>2018-08-01T10:42:49Z</time>
      </trkpt>
      <trkpt lat="47.18276" lon="6.84273">
        <ele>948.055</ele>
        <time>2018-08-01T10:42:57Z</time>
      </trkpt>
      <trkpt lat="47.1827" lon="6.84277">
        <ele>949.331</ele>
        <time>2018-08-01T10:43:03Z</time>
      </trkpt>
      <trkpt lat="47.18264" lon="6.84277">
        <ele>949.528</ele>
        <time>2018-08-01T10:43:05Z</time>
      </trkpt>
      <trkpt lat="47.18259" lon="6.84278">
        <ele>949.673</ele>
        <time>2018-08-01T10:43:07Z</time>
      </trkpt>
      <trkpt lat="47.18236" lon="6.84268">
        <ele>949.872</ele>
        <time>2018-08-01T10:43:09Z</time>
      </trkpt>
      <trkpt lat="47.18234" lon="6.84275">
        <ele>950.333</ele>
        <time>2018-08-01T10:43:15Z</time>
      </trkpt>
      <trkpt lat="47.18229" lon="6.84277">
        <ele>950.223</ele>
        <time>2018-08-01T10:43:23Z</time>
      </trkpt>
      <trkpt lat="47.18232" lon="6.84272">
        <ele>949.915</ele>
        <time>2018-08-01T10:44:56Z</time>
      </trkpt>
      <trkpt lat="47.18237" lon="6.84274">
        <ele>949.608</ele>
        <time>2018-08-01T10:45:38Z</time>
      </trkpt>
      <trkpt lat="47.18241" lon="6.84274">
        <ele>949.085</ele>
        <time>2018-08-01T10:45:44Z</time>
      </trkpt>
      <trkpt lat="47.18237" lon="6.84276">
        <ele>949.25</ele>
        <time>2018-08-01T10:48:34Z</time>
      </trkpt>
      <trkpt lat="47.18241" lon="6.84274">
        <ele>949.274</ele>
        <time>2018-08-01T10:49:22Z</time>
      </trkpt>
      <trkpt lat="47.18247" lon="6.84275">
        <ele>948.446</ele>
        <time>2018-08-01T10:49:29Z</time>
      </trkpt>
      <trkpt lat="47.18251" lon="6.84277">
        <ele>947.882</ele>
        <time>2018-08-01T10:49:33Z</time>
      </trkpt>
      <trkpt lat="47.18256" lon="6.84279">
        <ele>946.529</ele>
        <time>2018-08-01T10:49:39Z</time>
      </trkpt>
      <trkpt lat="47.18259" lon="6.84283">
        <ele>946.054</ele>
        <time>2018-08-01T10:49:44Z</time>
      </trkpt>
      <trkpt lat="47.18264" lon="6.84284">
        <ele>945.923</ele>
        <time>2018-08-01T10:49:49Z</time>
      </trkpt>
      <trkpt lat="47.18269" lon="6.84281">
        <ele>946.032</ele>
        <time>2018-08-01T10:49:54Z</time>
      </trkpt>
      <trkpt lat="47.18274" lon="6.8428">
        <ele>946.292</ele>
        <time>2018-08-01T10:50:00Z</time>
      </trkpt>
      <trkpt lat="47.18278" lon="6.84278">
        <ele>946.311</ele>
        <time>2018-08-01T10:50:03Z</time>
      </trkpt>
      <trkpt lat="47.18284" lon="6.84274">
        <ele>946.208</ele>
        <time>2018-08-01T10:50:07Z</time>
      </trkpt>
      <trkpt lat="47.18288" lon="6.84271">
        <ele>946.255</ele>
        <time>2018-08-01T10:50:11Z</time>
      </trkpt>
      <trkpt lat="47.18293" lon="6.84269">
        <ele>946.28</ele>
        <time>2018-08-01T10:50:14Z</time>
      </trkpt>
      <trkpt lat="47.18298" lon="6.84265">
        <ele>946.294</ele>
        <time>2018-08-01T10:50:18Z</time>
      </trkpt>
      <trkpt lat="47.18301" lon="6.84259">
        <ele>946.426</ele>
        <time>2018-08-01T10:50:22Z</time>
      </trkpt>
      <trkpt lat="47.18304" lon="6.84254">
        <ele>946.722</ele>
        <time>2018-08-01T10:50:27Z</time>
      </trkpt>
      <trkpt lat="47.18305" lon="6.84245">
        <ele>947.239</ele>
        <time>2018-08-01T10:50:32Z</time>
      </trkpt>
      <trkpt lat="47.1831" lon="6.84242">
        <ele>948.314</ele>
        <time>2018-08-01T10:50:38Z</time>
      </trkpt>
      <trkpt lat="47.18315" lon="6.84238">
        <ele>949.573</ele>
        <time>2018-08-01T10:50:44Z</time>
      </trkpt>
      <trkpt lat="47.18318" lon="6.84233">
        <ele>950.429</ele>
        <time>2018-08-01T10:50:52Z</time>
      </trkpt>
      <trkpt lat="47.18319" lon="6.84227">
        <ele>950.3</ele>
        <time>2018-08-01T10:51:05Z</time>
      </trkpt>
      <trkpt lat="47.18323" lon="6.84225">
        <ele>950.72</ele>
        <time>2018-08-01T10:51:14Z</time>
      </trkpt>
      <trkpt lat="47.18328" lon="6.84223">
        <ele>951.008</ele>
        <time>2018-08-01T10:51:20Z</time>
      </trkpt>
      <trkpt lat="47.18331" lon="6.84218">
        <ele>950.484</ele>
        <time>2018-08-01T10:51:26Z</time>
      </trkpt>
      <trkpt lat="47.18332" lon="6.84212">
        <ele>949.559</ele>
        <time>2018-08-01T10:51:41Z</time>
      </trkpt>
      <trkpt lat="47.18328" lon="6.84207">
        <ele>949.563</ele>
        <time>2018-08-01T10:51:44Z</time>
      </trkpt>
      <trkpt lat="47.18333" lon="6.84206">
        <ele>949.115</ele>
        <time>2018-08-01T10:52:00Z</time>
      </trkpt>
      <trkpt lat="47.18338" lon="6.84205">
        <ele>948.021</ele>
        <time>2018-08-01T10:52:05Z</time>
      </trkpt>
      <trkpt lat="47.18343" lon="6.84205">
        <ele>946.038</ele>
        <time>2018-08-01T10:52:13Z</time>
      </trkpt>
      <trkpt lat="47.18348" lon="6.84206">
        <ele>944.433</ele>
        <time>2018-08-01T10:52:21Z</time>
      </trkpt>
      <trkpt lat="47.18353" lon="6.84203">
        <ele>943.182</ele>
        <time>2018-08-01T10:52:28Z</time>
      </trkpt>
      <trkpt lat="47.18358" lon="6.84204">
        <ele>942.587</ele>
        <time>2018-08-01T10:52:32Z</time>
      </trkpt>
      <trkpt lat="47.18363" lon="6.84208">
        <ele>941.642</ele>
        <time>2018-08-01T10:52:38Z</time>
      </trkpt>
      <trkpt lat="47.18368" lon="6.84214">
        <ele>941.126</ele>
        <time>2018-08-01T10:52:41Z</time>
      </trkpt>
      <trkpt lat="47.18372" lon="6.8422">
        <ele>940.808</ele>
        <time>2018-08-01T10:52:44Z</time>
      </trkpt>
      <trkpt lat="47.18368" lon="6.84216">
        <ele>939.93</ele>
        <time>2018-08-01T10:52:48Z</time>
      </trkpt>
      <trkpt lat="47.18366" lon="6.84208">
        <ele>939.565</ele>
        <time>2018-08-01T10:52:51Z</time>
      </trkpt>
      <trkpt lat="47.18364" lon="6.84202">
        <ele>939.259</ele>
        <time>2018-08-01T10:52:54Z</time>
      </trkpt>
      <trkpt lat="47.1836" lon="6.84196">
        <ele>939.261</ele>
        <time>2018-08-01T10:53:05Z</time>
      </trkpt>
      <trkpt lat="47.18364" lon="6.84201">
        <ele>939.217</ele>
        <time>2018-08-01T10:55:46Z</time>
      </trkpt>
      <trkpt lat="47.18371" lon="6.84203">
        <ele>939.424</ele>
        <time>2018-08-01T10:55:49Z</time>
      </trkpt>
      <trkpt lat="47.18374" lon="6.84207">
        <ele>939.789</ele>
        <time>2018-08-01T10:55:51Z</time>
      </trkpt>
      <trkpt lat="47.1838" lon="6.84209">
        <ele>940.188</ele>
        <time>2018-08-01T10:55:54Z</time>
      </trkpt>
      <trkpt lat="47.18385" lon="6.8421">
        <ele>940.278</ele>
        <time>2018-08-01T10:55:56Z</time>
      </trkpt>
      <trkpt lat="47.1839" lon="6.8421">
        <ele>940.533</ele>
        <time>2018-08-01T10:55:58Z</time>
      </trkpt>
      <trkpt lat="47.18395" lon="6.84211">
        <ele>940.726</ele>
        <time>2018-08-01T10:56:00Z</time>
      </trkpt>
      <trkpt lat="47.184" lon="6.84216">
        <ele>941.108</ele>
        <time>2018-08-01T10:56:03Z</time>
      </trkpt>
      <trkpt lat="47.18404" lon="6.84222">
        <ele>941.469</ele>
        <time>2018-08-01T10:56:05Z</time>
      </trkpt>
      <trkpt lat="47.18409" lon="6.84227">
        <ele>941.864</ele>
        <time>2018-08-01T10:56:08Z</time>
      </trkpt>
      <trkpt lat="47.18413" lon="6.8423">
        <ele>942.258</ele>
        <time>2018-08-01T10:56:11Z</time>
      </trkpt>
      <trkpt lat="47.18417" lon="6.84234">
        <ele>942.52</ele>
        <time>2018-08-01T10:56:14Z</time>
      </trkpt>
      <trkpt lat="47.18421" lon="6.8424">
        <ele>942.866</ele>
        <time>2018-08-01T10:56:18Z</time>
      </trkpt>
      <trkpt lat="47.18426" lon="6.84244">
        <ele>942.953</ele>
        <time>2018-08-01T10:56:21Z</time>
      </trkpt>
      <trkpt lat="47.18432" lon="6.84245">
        <ele>942.938</ele>
        <time>2018-08-01T10:56:24Z</time>
      </trkpt>
      <trkpt lat="47.18437" lon="6.84247">
        <ele>942.997</ele>
        <time>2018-08-01T10:56:27Z</time>
      </trkpt>
      <trkpt lat="47.18442" lon="6.84249">
        <ele>942.974</ele>
        <time>2018-08-01T10:56:29Z</time>
      </trkpt>
      <trkpt lat="47.18446" lon="6.84252">
        <ele>942.856</ele>
        <time>2018-08-01T10:56:31Z</time>
      </trkpt>
      <trkpt lat="47.1845" lon="6.84256">
        <ele>942.721</ele>
        <time>2018-08-01T10:56:34Z</time>
      </trkpt>
      <trkpt lat="47.18455" lon="6.84263">
        <ele>942.508</ele>
        <time>2018-08-01T10:56:37Z</time>
      </trkpt>
      <trkpt lat="47.1846" lon="6.84267">
        <ele>942.369</ele>
        <time>2018-08-01T10:56:39Z</time>
      </trkpt>
      <trkpt lat="47.18465" lon="6.84271">
        <ele>942.084</ele>
        <time>2018-08-01T10:56:41Z</time>
      </trkpt>
      <trkpt lat="47.18471" lon="6.84274">
        <ele>941.698</ele>
        <time>2018-08-01T10:56:44Z</time>
      </trkpt>
      <trkpt lat="47.18476" lon="6.84277">
        <ele>941.45</ele>
        <time>2018-08-01T10:56:46Z</time>
      </trkpt>
      <trkpt lat="47.18482" lon="6.84281">
        <ele>941.216</ele>
        <time>2018-08-01T10:56:48Z</time>
      </trkpt>
      <trkpt lat="47.18487" lon="6.84283">
        <ele>941.023</ele>
        <time>2018-08-01T10:56:50Z</time>
      </trkpt>
      <trkpt lat="47.18492" lon="6.84285">
        <ele>940.938</ele>
        <time>2018-08-01T10:56:52Z</time>
      </trkpt>
      <trkpt lat="47.18497" lon="6.84283">
        <ele>940.427</ele>
        <time>2018-08-01T10:56:56Z</time>
      </trkpt>
      <trkpt lat="47.18502" lon="6.84282">
        <ele>940.161</ele>
        <time>2018-08-01T10:56:59Z</time>
      </trkpt>
      <trkpt lat="47.18509" lon="6.84285">
        <ele>939.921</ele>
        <time>2018-08-01T10:57:01Z</time>
      </trkpt>
      <trkpt lat="47.18513" lon="6.84287">
        <ele>939.713</ele>
        <time>2018-08-01T10:57:03Z</time>
      </trkpt>
      <trkpt lat="47.1852" lon="6.8429">
        <ele>939.508</ele>
        <time>2018-08-01T10:57:05Z</time>
      </trkpt>
      <trkpt lat="47.18526" lon="6.84291">
        <ele>939.148</ele>
        <time>2018-08-01T10:57:07Z</time>
      </trkpt>
      <trkpt lat="47.18533" lon="6.8429">
        <ele>938.633</ele>
        <time>2018-08-01T10:57:09Z</time>
      </trkpt>
      <trkpt lat="47.18539" lon="6.84291">
        <ele>938.247</ele>
        <time>2018-08-01T10:57:11Z</time>
      </trkpt>
      <trkpt lat="47.18547" lon="6.84292">
        <ele>937.839</ele>
        <time>2018-08-01T10:57:13Z</time>
      </trkpt>
      <trkpt lat="47.18554" lon="6.84294">
        <ele>937.635</ele>
        <time>2018-08-01T10:57:15Z</time>
      </trkpt>
      <trkpt lat="47.18561" lon="6.84297">
        <ele>937.442</ele>
        <time>2018-08-01T10:57:17Z</time>
      </trkpt>
      <trkpt lat="47.18566" lon="6.84302">
        <ele>937.287</ele>
        <time>2018-08-01T10:57:19Z</time>
      </trkpt>
      <trkpt lat="47.18569" lon="6.84308">
        <ele>936.566</ele>
        <time>2018-08-01T10:57:21Z</time>
      </trkpt>
      <trkpt lat="47.18569" lon="6.84315">
        <ele>936.072</ele>
        <time>2018-08-01T10:57:23Z</time>
      </trkpt>
      <trkpt lat="47.18565" lon="6.84322">
        <ele>936.313</ele>
        <time>2018-08-01T10:57:26Z</time>
      </trkpt>
      <trkpt lat="47.1856" lon="6.84326">
        <ele>937.414</ele>
        <time>2018-08-01T10:57:29Z</time>
      </trkpt>
      <trkpt lat="47.18555" lon="6.8433">
        <ele>938.508</ele>
        <time>2018-08-01T10:57:32Z</time>
      </trkpt>
      <trkpt lat="47.1855" lon="6.84336">
        <ele>939.259</ele>
        <time>2018-08-01T10:57:35Z</time>
      </trkpt>
      <trkpt lat="47.18547" lon="6.84342">
        <ele>939.844</ele>
        <time>2018-08-01T10:57:38Z</time>
      </trkpt>
      <trkpt lat="47.18546" lon="6.84349">
        <ele>940.238</ele>
        <time>2018-08-01T10:57:41Z</time>
      </trkpt>
      <trkpt lat="47.18546" lon="6.84358">
        <ele>940.46</ele>
        <time>2018-08-01T10:57:45Z</time>
      </trkpt>
      <trkpt lat="47.18544" lon="6.84367">
        <ele>940.586</ele>
        <time>2018-08-01T10:57:48Z</time>
      </trkpt>
      <trkpt lat="47.18543" lon="6.84374">
        <ele>940.583</ele>
        <time>2018-08-01T10:57:50Z</time>
      </trkpt>
      <trkpt lat="47.18543" lon="6.84382">
        <ele>940.718</ele>
        <time>2018-08-01T10:57:53Z</time>
      </trkpt>
      <trkpt lat="47.18545" lon="6.8439">
        <ele>941.117</ele>
        <time>2018-08-01T10:57:56Z</time>
      </trkpt>
      <trkpt lat="47.18547" lon="6.84397">
        <ele>941.762</ele>
        <time>2018-08-01T10:58:00Z</time>
      </trkpt>
      <trkpt lat="47.18548" lon="6.84406">
        <ele>942.483</ele>
        <time>2018-08-01T10:58:03Z</time>
      </trkpt>
      <trkpt lat="47.18552" lon="6.84414">
        <ele>943.211</ele>
        <time>2018-08-01T10:58:06Z</time>
      </trkpt>
      <trkpt lat="47.18555" lon="6.8442">
        <ele>943.608</ele>
        <time>2018-08-01T10:58:08Z</time>
      </trkpt>
      <trkpt lat="47.18558" lon="6.84425">
        <ele>944.498</ele>
        <time>2018-08-01T10:58:11Z</time>
      </trkpt>
      <trkpt lat="47.18561" lon="6.84433">
        <ele>945.163</ele>
        <time>2018-08-01T10:58:14Z</time>
      </trkpt>
      <trkpt lat="47.18563" lon="6.84441">
        <ele>946.097</ele>
        <time>2018-08-01T10:58:17Z</time>
      </trkpt>
      <trkpt lat="47.18563" lon="6.8445">
        <ele>946.759</ele>
        <time>2018-08-01T10:58:20Z</time>
      </trkpt>
      <trkpt lat="47.18561" lon="6.84459">
        <ele>947.365</ele>
        <time>2018-08-01T10:58:23Z</time>
      </trkpt>
      <trkpt lat="47.18558" lon="6.84465">
        <ele>947.582</ele>
        <time>2018-08-01T10:58:25Z</time>
      </trkpt>
      <trkpt lat="47.18554" lon="6.84472">
        <ele>947.767</ele>
        <time>2018-08-01T10:58:28Z</time>
      </trkpt>
      <trkpt lat="47.18551" lon="6.84477">
        <ele>947.846</ele>
        <time>2018-08-01T10:58:30Z</time>
      </trkpt>
      <trkpt lat="47.18547" lon="6.84482">
        <ele>947.845</ele>
        <time>2018-08-01T10:58:32Z</time>
      </trkpt>
      <trkpt lat="47.18543" lon="6.84486">
        <ele>947.747</ele>
        <time>2018-08-01T10:58:34Z</time>
      </trkpt>
      <trkpt lat="47.18538" lon="6.84491">
        <ele>947.611</ele>
        <time>2018-08-01T10:58:36Z</time>
      </trkpt>
      <trkpt lat="47.18534" lon="6.84495">
        <ele>947.508</ele>
        <time>2018-08-01T10:58:38Z</time>
      </trkpt>
      <trkpt lat="47.1853" lon="6.845">
        <ele>947.586</ele>
        <time>2018-08-01T10:58:40Z</time>
      </trkpt>
      <trkpt lat="47.18526" lon="6.84506">
        <ele>947.431</ele>
        <time>2018-08-01T10:58:43Z</time>
      </trkpt>
      <trkpt lat="47.18522" lon="6.84511">
        <ele>947.395</ele>
        <time>2018-08-01T10:58:46Z</time>
      </trkpt>
      <trkpt lat="47.18518" lon="6.84517">
        <ele>947.047</ele>
        <time>2018-08-01T10:58:50Z</time>
      </trkpt>
      <trkpt lat="47.18513" lon="6.84521">
        <ele>946.643</ele>
        <time>2018-08-01T10:58:55Z</time>
      </trkpt>
      <trkpt lat="47.18509" lon="6.84528">
        <ele>946.13</ele>
        <time>2018-08-01T10:58:59Z</time>
      </trkpt>
      <trkpt lat="47.18505" lon="6.84534">
        <ele>945.855</ele>
        <time>2018-08-01T10:59:01Z</time>
      </trkpt>
      <trkpt lat="47.185" lon="6.84539">
        <ele>945.444</ele>
        <time>2018-08-01T10:59:03Z</time>
      </trkpt>
      <trkpt lat="47.18495" lon="6.84546">
        <ele>944.782</ele>
        <time>2018-08-01T10:59:05Z</time>
      </trkpt>
      <trkpt lat="47.1849" lon="6.84555">
        <ele>944.343</ele>
        <time>2018-08-01T10:59:07Z</time>
      </trkpt>
      <trkpt lat="47.18485" lon="6.84565">
        <ele>943.517</ele>
        <time>2018-08-01T10:59:09Z</time>
      </trkpt>
      <trkpt lat="47.18482" lon="6.8457">
        <ele>943.008</ele>
        <time>2018-08-01T10:59:10Z</time>
      </trkpt>
      <trkpt lat="47.18476" lon="6.84576">
        <ele>942.57</ele>
        <time>2018-08-01T10:59:11Z</time>
      </trkpt>
      <trkpt lat="47.18474" lon="6.84588">
        <ele>942.175</ele>
        <time>2018-08-01T10:59:12Z</time>
      </trkpt>
      <trkpt lat="47.1847" lon="6.84594">
        <ele>941.679</ele>
        <time>2018-08-01T10:59:13Z</time>
      </trkpt>
      <trkpt lat="47.18466" lon="6.84604">
        <ele>941.071</ele>
        <time>2018-08-01T10:59:14Z</time>
      </trkpt>
      <trkpt lat="47.1846" lon="6.84612">
        <ele>940.397</ele>
        <time>2018-08-01T10:59:15Z</time>
      </trkpt>
      <trkpt lat="47.18453" lon="6.84619">
        <ele>939.864</ele>
        <time>2018-08-01T10:59:16Z</time>
      </trkpt>
      <trkpt lat="47.18448" lon="6.84627">
        <ele>939.219</ele>
        <time>2018-08-01T10:59:17Z</time>
      </trkpt>
      <trkpt lat="47.18443" lon="6.84635">
        <ele>938.648</ele>
        <time>2018-08-01T10:59:18Z</time>
      </trkpt>
      <trkpt lat="47.1844" lon="6.84643">
        <ele>938.158</ele>
        <time>2018-08-01T10:59:19Z</time>
      </trkpt>
      <trkpt lat="47.18437" lon="6.84652">
        <ele>937.852</ele>
        <time>2018-08-01T10:59:20Z</time>
      </trkpt>
      <trkpt lat="47.18439" lon="6.84666">
        <ele>937.517</ele>
        <time>2018-08-01T10:59:21Z</time>
      </trkpt>
      <trkpt lat="47.18438" lon="6.84676">
        <ele>937.308</ele>
        <time>2018-08-01T10:59:22Z</time>
      </trkpt>
      <trkpt lat="47.18437" lon="6.84685">
        <ele>937.337</ele>
        <time>2018-08-01T10:59:23Z</time>
      </trkpt>
      <trkpt lat="47.18441" lon="6.84691">
        <ele>937.332</ele>
        <time>2018-08-01T10:59:24Z</time>
      </trkpt>
      <trkpt lat="47.18444" lon="6.84699">
        <ele>937.516</ele>
        <time>2018-08-01T10:59:26Z</time>
      </trkpt>
      <trkpt lat="47.18446" lon="6.84707">
        <ele>937.768</ele>
        <time>2018-08-01T10:59:28Z</time>
      </trkpt>
      <trkpt lat="47.1845" lon="6.84712">
        <ele>938.024</ele>
        <time>2018-08-01T10:59:30Z</time>
      </trkpt>
      <trkpt lat="47.18453" lon="6.8472">
        <ele>938.541</ele>
        <time>2018-08-01T10:59:33Z</time>
      </trkpt>
      <trkpt lat="47.18455" lon="6.84728">
        <ele>938.846</ele>
        <time>2018-08-01T10:59:35Z</time>
      </trkpt>
      <trkpt lat="47.18457" lon="6.84737">
        <ele>938.925</ele>
        <time>2018-08-01T10:59:37Z</time>
      </trkpt>
      <trkpt lat="47.18458" lon="6.84744">
        <ele>939.018</ele>
        <time>2018-08-01T10:59:39Z</time>
      </trkpt>
      <trkpt lat="47.18458" lon="6.84752">
        <ele>939.198</ele>
        <time>2018-08-01T10:59:41Z</time>
      </trkpt>
      <trkpt lat="47.18458" lon="6.84761">
        <ele>939.117</ele>
        <time>2018-08-01T10:59:43Z</time>
      </trkpt>
      <trkpt lat="47.18458" lon="6.84768">
        <ele>939.108</ele>
        <time>2018-08-01T10:59:45Z</time>
      </trkpt>
      <trkpt lat="47.18459" lon="6.84775">
        <ele>939.283</ele>
        <time>2018-08-01T10:59:47Z</time>
      </trkpt>
      <trkpt lat="47.1846" lon="6.84783">
        <ele>939.398</ele>
        <time>2018-08-01T10:59:49Z</time>
      </trkpt>
      <trkpt lat="47.18459" lon="6.84792">
        <ele>939.532</ele>
        <time>2018-08-01T10:59:51Z</time>
      </trkpt>
      <trkpt lat="47.18459" lon="6.848">
        <ele>939.714</ele>
        <time>2018-08-01T10:59:53Z</time>
      </trkpt>
      <trkpt lat="47.1846" lon="6.84809">
        <ele>939.97</ele>
        <time>2018-08-01T10:59:56Z</time>
      </trkpt>
      <trkpt lat="47.1846" lon="6.84817">
        <ele>940.127</ele>
        <time>2018-08-01T10:59:59Z</time>
      </trkpt>
      <trkpt lat="47.18459" lon="6.84825">
        <ele>940.162</ele>
        <time>2018-08-01T11:00:02Z</time>
      </trkpt>
      <trkpt lat="47.18459" lon="6.84832">
        <ele>940.131</ele>
        <time>2018-08-01T11:00:06Z</time>
      </trkpt>
      <trkpt lat="47.18459" lon="6.84839">
        <ele>940.047</ele>
        <time>2018-08-01T11:00:09Z</time>
      </trkpt>
      <trkpt lat="47.18458" lon="6.84846">
        <ele>940.029</ele>
        <time>2018-08-01T11:00:12Z</time>
      </trkpt>
      <trkpt lat="47.18459" lon="6.84857">
        <ele>939.821</ele>
        <time>2018-08-01T11:00:15Z</time>
      </trkpt>
      <trkpt lat="47.18459" lon="6.84866">
        <ele>939.508</ele>
        <time>2018-08-01T11:00:17Z</time>
      </trkpt>
      <trkpt lat="47.18458" lon="6.84875">
        <ele>939.076</ele>
        <time>2018-08-01T11:00:19Z</time>
      </trkpt>
      <trkpt lat="47.18458" lon="6.84885">
        <ele>938.651</ele>
        <time>2018-08-01T11:00:21Z</time>
      </trkpt>
      <trkpt lat="47.18458" lon="6.84896">
        <ele>938.215</ele>
        <time>2018-08-01T11:00:23Z</time>
      </trkpt>
      <trkpt lat="47.18458" lon="6.84906">
        <ele>937.777</ele>
        <time>2018-08-01T11:00:25Z</time>
      </trkpt>
      <trkpt lat="47.18458" lon="6.84919">
        <ele>936.973</ele>
        <time>2018-08-01T11:00:27Z</time>
      </trkpt>
      <trkpt lat="47.18457" lon="6.84931">
        <ele>936.19</ele>
        <time>2018-08-01T11:00:29Z</time>
      </trkpt>
      <trkpt lat="47.18457" lon="6.84943">
        <ele>935.735</ele>
        <time>2018-08-01T11:00:31Z</time>
      </trkpt>
      <trkpt lat="47.18457" lon="6.84955">
        <ele>935.084</ele>
        <time>2018-08-01T11:00:33Z</time>
      </trkpt>
      <trkpt lat="47.18458" lon="6.84966">
        <ele>934.284</ele>
        <time>2018-08-01T11:00:35Z</time>
      </trkpt>
      <trkpt lat="47.18459" lon="6.84981">
        <ele>933.507</ele>
        <time>2018-08-01T11:00:37Z</time>
      </trkpt>
      <trkpt lat="47.18463" lon="6.84993">
        <ele>932.817</ele>
        <time>2018-08-01T11:00:39Z</time>
      </trkpt>
      <trkpt lat="47.18466" lon="6.85003">
        <ele>932.108</ele>
        <time>2018-08-01T11:00:41Z</time>
      </trkpt>
      <trkpt lat="47.18467" lon="6.8501">
        <ele>931.73</ele>
        <time>2018-08-01T11:00:42Z</time>
      </trkpt>
      <trkpt lat="47.18469" lon="6.85016">
        <ele>931.395</ele>
        <time>2018-08-01T11:00:43Z</time>
      </trkpt>
      <trkpt lat="47.1847" lon="6.85027">
        <ele>930.819</ele>
        <time>2018-08-01T11:00:45Z</time>
      </trkpt>
      <trkpt lat="47.18474" lon="6.8504">
        <ele>930.581</ele>
        <time>2018-08-01T11:00:47Z</time>
      </trkpt>
      <trkpt lat="47.18476" lon="6.85046">
        <ele>930.387</ele>
        <time>2018-08-01T11:00:48Z</time>
      </trkpt>
      <trkpt lat="47.18483" lon="6.85057">
        <ele>929.854</ele>
        <time>2018-08-01T11:00:50Z</time>
      </trkpt>
      <trkpt lat="47.18487" lon="6.85066">
        <ele>929.129</ele>
        <time>2018-08-01T11:00:52Z</time>
      </trkpt>
      <trkpt lat="47.18491" lon="6.85073">
        <ele>928.458</ele>
        <time>2018-08-01T11:00:54Z</time>
      </trkpt>
      <trkpt lat="47.18496" lon="6.85081">
        <ele>927.433</ele>
        <time>2018-08-01T11:00:57Z</time>
      </trkpt>
      <trkpt lat="47.18502" lon="6.85086">
        <ele>927.223</ele>
        <time>2018-08-01T11:00:59Z</time>
      </trkpt>
      <trkpt lat="47.18507" lon="6.85089">
        <ele>926.615</ele>
        <time>2018-08-01T11:01:01Z</time>
      </trkpt>
      <trkpt lat="47.18512" lon="6.85091">
        <ele>926.008</ele>
        <time>2018-08-01T11:01:03Z</time>
      </trkpt>
      <trkpt lat="47.18516" lon="6.85093">
        <ele>925.365</ele>
        <time>2018-08-01T11:01:05Z</time>
      </trkpt>
      <trkpt lat="47.18521" lon="6.85095">
        <ele>924.91</ele>
        <time>2018-08-01T11:01:07Z</time>
      </trkpt>
      <trkpt lat="47.18527" lon="6.85097">
        <ele>924.734</ele>
        <time>2018-08-01T11:01:09Z</time>
      </trkpt>
      <trkpt lat="47.18534" lon="6.85099">
        <ele>924.546</ele>
        <time>2018-08-01T11:01:11Z</time>
      </trkpt>
      <trkpt lat="47.18538" lon="6.85102">
        <ele>924.362</ele>
        <time>2018-08-01T11:01:12Z</time>
      </trkpt>
      <trkpt lat="47.18543" lon="6.85108">
        <ele>924.089</ele>
        <time>2018-08-01T11:01:13Z</time>
      </trkpt>
      <trkpt lat="47.18548" lon="6.85112">
        <ele>923.754</ele>
        <time>2018-08-01T11:01:14Z</time>
      </trkpt>
      <trkpt lat="47.18552" lon="6.85117">
        <ele>923.373</ele>
        <time>2018-08-01T11:01:15Z</time>
      </trkpt>
      <trkpt lat="47.18559" lon="6.85126">
        <ele>922.532</ele>
        <time>2018-08-01T11:01:17Z</time>
      </trkpt>
      <trkpt lat="47.18562" lon="6.85134">
        <ele>921.992</ele>
        <time>2018-08-01T11:01:19Z</time>
      </trkpt>
      <trkpt lat="47.18565" lon="6.85141">
        <ele>920.711</ele>
        <time>2018-08-01T11:01:21Z</time>
      </trkpt>
      <trkpt lat="47.18562" lon="6.85146">
        <ele>918.808</ele>
        <time>2018-08-01T11:01:24Z</time>
      </trkpt>
      <trkpt lat="47.18557" lon="6.8515">
        <ele>918.055</ele>
        <time>2018-08-01T11:01:29Z</time>
      </trkpt>
      <trkpt lat="47.18556" lon="6.85143">
        <ele>917.81</ele>
        <time>2018-08-01T11:01:32Z</time>
      </trkpt>
      <trkpt lat="47.18562" lon="6.85143">
        <ele>917.924</ele>
        <time>2018-08-01T11:01:35Z</time>
      </trkpt>
      <trkpt lat="47.18566" lon="6.85149">
        <ele>918.096</ele>
        <time>2018-08-01T11:01:38Z</time>
      </trkpt>
      <trkpt lat="47.1857" lon="6.85158">
        <ele>917.662</ele>
        <time>2018-08-01T11:01:41Z</time>
      </trkpt>
      <trkpt lat="47.18571" lon="6.85167">
        <ele>917.159</ele>
        <time>2018-08-01T11:01:43Z</time>
      </trkpt>
      <trkpt lat="47.18571" lon="6.85176">
        <ele>916.474</ele>
        <time>2018-08-01T11:01:45Z</time>
      </trkpt>
      <trkpt lat="47.18571" lon="6.85183">
        <ele>915.543</ele>
        <time>2018-08-01T11:01:47Z</time>
      </trkpt>
      <trkpt lat="47.18571" lon="6.85189">
        <ele>914.882</ele>
        <time>2018-08-01T11:01:49Z</time>
      </trkpt>
      <trkpt lat="47.18574" lon="6.85197">
        <ele>914.043</ele>
        <time>2018-08-01T11:01:52Z</time>
      </trkpt>
      <trkpt lat="47.18581" lon="6.85199">
        <ele>913.717</ele>
        <time>2018-08-01T11:01:55Z</time>
      </trkpt>
      <trkpt lat="47.18585" lon="6.85198">
        <ele>913.408</ele>
        <time>2018-08-01T11:01:58Z</time>
      </trkpt>
      <trkpt lat="47.18587" lon="6.85205">
        <ele>913.59</ele>
        <time>2018-08-01T11:02:05Z</time>
      </trkpt>
      <trkpt lat="47.18584" lon="6.85197">
        <ele>914.285</ele>
        <time>2018-08-01T11:24:55Z</time>
      </trkpt>
      <trkpt lat="47.18589" lon="6.85197">
        <ele>914.149</ele>
        <time>2018-08-01T11:26:07Z</time>
      </trkpt>
      <trkpt lat="47.18594" lon="6.85202">
        <ele>913.381</ele>
        <time>2018-08-01T11:26:56Z</time>
      </trkpt>
      <trkpt lat="47.18598" lon="6.85205">
        <ele>913.077</ele>
        <time>2018-08-01T11:26:58Z</time>
      </trkpt>
      <trkpt lat="47.18604" lon="6.85208">
        <ele>912.674</ele>
        <time>2018-08-01T11:27:00Z</time>
      </trkpt>
      <trkpt lat="47.18609" lon="6.85213">
        <ele>912.429</ele>
        <time>2018-08-01T11:27:02Z</time>
      </trkpt>
      <trkpt lat="47.18609" lon="6.85221">
        <ele>912.338</ele>
        <time>2018-08-01T11:27:04Z</time>
      </trkpt>
      <trkpt lat="47.18607" lon="6.85229">
        <ele>911.643</ele>
        <time>2018-08-01T11:27:07Z</time>
      </trkpt>
      <trkpt lat="47.18604" lon="6.85236">
        <ele>911.064</ele>
        <time>2018-08-01T11:27:09Z</time>
      </trkpt>
      <trkpt lat="47.18601" lon="6.85245">
        <ele>910.61</ele>
        <time>2018-08-01T11:27:11Z</time>
      </trkpt>
      <trkpt lat="47.18597" lon="6.85253">
        <ele>910.208</ele>
        <time>2018-08-01T11:27:13Z</time>
      </trkpt>
      <trkpt lat="47.18593" lon="6.85264">
        <ele>909.626</ele>
        <time>2018-08-01T11:27:15Z</time>
      </trkpt>
      <trkpt lat="47.18593" lon="6.85277">
        <ele>909.071</ele>
        <time>2018-08-01T11:27:17Z</time>
      </trkpt>
      <trkpt lat="47.18595" lon="6.85288">
        <ele>908.615</ele>
        <time>2018-08-01T11:27:18Z</time>
      </trkpt>
      <trkpt lat="47.18595" lon="6.85295">
        <ele>908.197</ele>
        <time>2018-08-01T11:27:19Z</time>
      </trkpt>
      <trkpt lat="47.18595" lon="6.85302">
        <ele>907.673</ele>
        <time>2018-08-01T11:27:20Z</time>
      </trkpt>
      <trkpt lat="47.18595" lon="6.85309">
        <ele>907.06</ele>
        <time>2018-08-01T11:27:21Z</time>
      </trkpt>
      <trkpt lat="47.18594" lon="6.85319">
        <ele>906.155</ele>
        <time>2018-08-01T11:27:22Z</time>
      </trkpt>
      <trkpt lat="47.18593" lon="6.85327">
        <ele>904.914</ele>
        <time>2018-08-01T11:27:23Z</time>
      </trkpt>
      <trkpt lat="47.18593" lon="6.85335">
        <ele>904.022</ele>
        <time>2018-08-01T11:27:24Z</time>
      </trkpt>
      <trkpt lat="47.18592" lon="6.85345">
        <ele>902.762</ele>
        <time>2018-08-01T11:27:25Z</time>
      </trkpt>
      <trkpt lat="47.1859" lon="6.85356">
        <ele>901.608</ele>
        <time>2018-08-01T11:27:26Z</time>
      </trkpt>
      <trkpt lat="47.18589" lon="6.85364">
        <ele>900.508</ele>
        <time>2018-08-01T11:27:27Z</time>
      </trkpt>
      <trkpt lat="47.18588" lon="6.85372">
        <ele>900.084</ele>
        <time>2018-08-01T11:27:28Z</time>
      </trkpt>
      <trkpt lat="47.18588" lon="6.85381">
        <ele>899.459</ele>
        <time>2018-08-01T11:27:29Z</time>
      </trkpt>
      <trkpt lat="47.18585" lon="6.85391">
        <ele>898.953</ele>
        <time>2018-08-01T11:27:31Z</time>
      </trkpt>
      <trkpt lat="47.18584" lon="6.85397">
        <ele>898.195</ele>
        <time>2018-08-01T11:27:55Z</time>
      </trkpt>
      <trkpt lat="47.1858" lon="6.85397">
        <ele>898.221</ele>
        <time>2018-08-01T11:28:42Z</time>
      </trkpt>
      <trkpt lat="47.18574" lon="6.85398">
        <ele>898.038</ele>
        <time>2018-08-01T11:28:44Z</time>
      </trkpt>
      <trkpt lat="47.18568" lon="6.85401">
        <ele>897.633</ele>
        <time>2018-08-01T11:28:46Z</time>
      </trkpt>
      <trkpt lat="47.18562" lon="6.85405">
        <ele>897.082</ele>
        <time>2018-08-01T11:28:48Z</time>
      </trkpt>
      <trkpt lat="47.18559" lon="6.8541">
        <ele>896.264</ele>
        <time>2018-08-01T11:28:51Z</time>
      </trkpt>
      <trkpt lat="47.18565" lon="6.85414">
        <ele>896.106</ele>
        <time>2018-08-01T11:28:54Z</time>
      </trkpt>
      <trkpt lat="47.18569" lon="6.8541">
        <ele>896.616</ele>
        <time>2018-08-01T11:28:56Z</time>
      </trkpt>
      <trkpt lat="47.18573" lon="6.85404">
        <ele>897.108</ele>
        <time>2018-08-01T11:28:58Z</time>
      </trkpt>
      <trkpt lat="47.18577" lon="6.85397">
        <ele>897.348</ele>
        <time>2018-08-01T11:29:00Z</time>
      </trkpt>
      <trkpt lat="47.18581" lon="6.85392">
        <ele>897.683</ele>
        <time>2018-08-01T11:29:02Z</time>
      </trkpt>
      <trkpt lat="47.18586" lon="6.85391">
        <ele>897.927</ele>
        <time>2018-08-01T11:29:04Z</time>
      </trkpt>
      <trkpt lat="47.18591" lon="6.85393">
        <ele>898.139</ele>
        <time>2018-08-01T11:29:06Z</time>
      </trkpt>
      <trkpt lat="47.18597" lon="6.85395">
        <ele>898.265</ele>
        <time>2018-08-01T11:29:08Z</time>
      </trkpt>
      <trkpt lat="47.18604" lon="6.85396">
        <ele>898.342</ele>
        <time>2018-08-01T11:29:11Z</time>
      </trkpt>
      <trkpt lat="47.18609" lon="6.85396">
        <ele>898.377</ele>
        <time>2018-08-01T11:29:13Z</time>
      </trkpt>
      <trkpt lat="47.18614" lon="6.85396">
        <ele>898.366</ele>
        <time>2018-08-01T11:29:15Z</time>
      </trkpt>
      <trkpt lat="47.18618" lon="6.85394">
        <ele>898.483</ele>
        <time>2018-08-01T11:29:17Z</time>
      </trkpt>
      <trkpt lat="47.18623" lon="6.8539">
        <ele>898.525</ele>
        <time>2018-08-01T11:29:19Z</time>
      </trkpt>
      <trkpt lat="47.18629" lon="6.85387">
        <ele>898.617</ele>
        <time>2018-08-01T11:29:21Z</time>
      </trkpt>
      <trkpt lat="47.18635" lon="6.85385">
        <ele>898.608</ele>
        <time>2018-08-01T11:29:23Z</time>
      </trkpt>
      <trkpt lat="47.18641" lon="6.85384">
        <ele>898.49</ele>
        <time>2018-08-01T11:29:25Z</time>
      </trkpt>
      <trkpt lat="47.18648" lon="6.85387">
        <ele>898.275</ele>
        <time>2018-08-01T11:29:27Z</time>
      </trkpt>
      <trkpt lat="47.18654" lon="6.85392">
        <ele>898.069</ele>
        <time>2018-08-01T11:29:29Z</time>
      </trkpt>
      <trkpt lat="47.18659" lon="6.85399">
        <ele>897.771</ele>
        <time>2018-08-01T11:29:31Z</time>
      </trkpt>
      <trkpt lat="47.18665" lon="6.85407">
        <ele>897.587</ele>
        <time>2018-08-01T11:29:33Z</time>
      </trkpt>
      <trkpt lat="47.18671" lon="6.85414">
        <ele>897.314</ele>
        <time>2018-08-01T11:29:35Z</time>
      </trkpt>
      <trkpt lat="47.18675" lon="6.85421">
        <ele>897.189</ele>
        <time>2018-08-01T11:29:37Z</time>
      </trkpt>
      <trkpt lat="47.18677" lon="6.85429">
        <ele>896.878</ele>
        <time>2018-08-01T11:29:39Z</time>
      </trkpt>
      <trkpt lat="47.18677" lon="6.85438">
        <ele>896.666</ele>
        <time>2018-08-01T11:29:41Z</time>
      </trkpt>
      <trkpt lat="47.18676" lon="6.85446">
        <ele>896.529</ele>
        <time>2018-08-01T11:29:43Z</time>
      </trkpt>
      <trkpt lat="47.18675" lon="6.85453">
        <ele>896.621</ele>
        <time>2018-08-01T11:29:45Z</time>
      </trkpt>
      <trkpt lat="47.18672" lon="6.85461">
        <ele>897.108</ele>
        <time>2018-08-01T11:29:48Z</time>
      </trkpt>
      <trkpt lat="47.18668" lon="6.85467">
        <ele>897.368</ele>
        <time>2018-08-01T11:29:51Z</time>
      </trkpt>
      <trkpt lat="47.18663" lon="6.85472">
        <ele>897.213</ele>
        <time>2018-08-01T11:29:54Z</time>
      </trkpt>
      <trkpt lat="47.18658" lon="6.85478">
        <ele>897.167</ele>
        <time>2018-08-01T11:29:56Z</time>
      </trkpt>
      <trkpt lat="47.18654" lon="6.85485">
        <ele>897.049</ele>
        <time>2018-08-01T11:29:58Z</time>
      </trkpt>
      <trkpt lat="47.18649" lon="6.85492">
        <ele>896.725</ele>
        <time>2018-08-01T11:30:00Z</time>
      </trkpt>
      <trkpt lat="47.18646" lon="6.85499">
        <ele>896.432</ele>
        <time>2018-08-01T11:30:02Z</time>
      </trkpt>
      <trkpt lat="47.18644" lon="6.85508">
        <ele>896.377</ele>
        <time>2018-08-01T11:30:04Z</time>
      </trkpt>
      <trkpt lat="47.18644" lon="6.85515">
        <ele>896.076</ele>
        <time>2018-08-01T11:30:06Z</time>
      </trkpt>
      <trkpt lat="47.18644" lon="6.85523">
        <ele>895.722</ele>
        <time>2018-08-01T11:30:08Z</time>
      </trkpt>
      <trkpt lat="47.18644" lon="6.85532">
        <ele>895.462</ele>
        <time>2018-08-01T11:30:11Z</time>
      </trkpt>
      <trkpt lat="47.18646" lon="6.85538">
        <ele>895.408</ele>
        <time>2018-08-01T11:30:13Z</time>
      </trkpt>
      <trkpt lat="47.18647" lon="6.85545">
        <ele>895.408</ele>
        <time>2018-08-01T11:30:15Z</time>
      </trkpt>
      <trkpt lat="47.18648" lon="6.85553">
        <ele>895.444</ele>
        <time>2018-08-01T11:30:17Z</time>
      </trkpt>
      <trkpt lat="47.1865" lon="6.85561">
        <ele>895.279</ele>
        <time>2018-08-01T11:30:19Z</time>
      </trkpt>
      <trkpt lat="47.18656" lon="6.85569">
        <ele>894.983</ele>
        <time>2018-08-01T11:30:22Z</time>
      </trkpt>
      <trkpt lat="47.18661" lon="6.85574">
        <ele>894.925</ele>
        <time>2018-08-01T11:30:24Z</time>
      </trkpt>
      <trkpt lat="47.18667" lon="6.85579">
        <ele>895.041</ele>
        <time>2018-08-01T11:30:26Z</time>
      </trkpt>
      <trkpt lat="47.18674" lon="6.85585">
        <ele>895.338</ele>
        <time>2018-08-01T11:30:28Z</time>
      </trkpt>
      <trkpt lat="47.1868" lon="6.85589">
        <ele>895.483</ele>
        <time>2018-08-01T11:30:30Z</time>
      </trkpt>
      <trkpt lat="47.18686" lon="6.85593">
        <ele>895.472</ele>
        <time>2018-08-01T11:30:32Z</time>
      </trkpt>
      <trkpt lat="47.18693" lon="6.85597">
        <ele>895.321</ele>
        <time>2018-08-01T11:30:34Z</time>
      </trkpt>
      <trkpt lat="47.18698" lon="6.85599">
        <ele>895.341</ele>
        <time>2018-08-01T11:30:36Z</time>
      </trkpt>
      <trkpt lat="47.18705" lon="6.85601">
        <ele>895.205</ele>
        <time>2018-08-01T11:30:38Z</time>
      </trkpt>
      <trkpt lat="47.18711" lon="6.85603">
        <ele>895.008</ele>
        <time>2018-08-01T11:30:40Z</time>
      </trkpt>
      <trkpt lat="47.18718" lon="6.85605">
        <ele>894.544</ele>
        <time>2018-08-01T11:30:42Z</time>
      </trkpt>
      <trkpt lat="47.18725" lon="6.85607">
        <ele>894.299</ele>
        <time>2018-08-01T11:30:44Z</time>
      </trkpt>
      <trkpt lat="47.18731" lon="6.85608">
        <ele>893.483</ele>
        <time>2018-08-01T11:30:46Z</time>
      </trkpt>
      <trkpt lat="47.18738" lon="6.8561">
        <ele>892.665</ele>
        <time>2018-08-01T11:30:48Z</time>
      </trkpt>
      <trkpt lat="47.18744" lon="6.85614">
        <ele>892.171</ele>
        <time>2018-08-01T11:30:50Z</time>
      </trkpt>
      <trkpt lat="47.1875" lon="6.85617">
        <ele>891.728</ele>
        <time>2018-08-01T11:30:52Z</time>
      </trkpt>
      <trkpt lat="47.18756" lon="6.85621">
        <ele>891.073</ele>
        <time>2018-08-01T11:30:54Z</time>
      </trkpt>
      <trkpt lat="47.18762" lon="6.85625">
        <ele>890.342</ele>
        <time>2018-08-01T11:30:56Z</time>
      </trkpt>
      <trkpt lat="47.18769" lon="6.85629">
        <ele>889.563</ele>
        <time>2018-08-01T11:30:58Z</time>
      </trkpt>
      <trkpt lat="47.18778" lon="6.85633">
        <ele>888.844</ele>
        <time>2018-08-01T11:31:00Z</time>
      </trkpt>
      <trkpt lat="47.18785" lon="6.85638">
        <ele>887.918</ele>
        <time>2018-08-01T11:31:02Z</time>
      </trkpt>
      <trkpt lat="47.18792" lon="6.85643">
        <ele>887.408</ele>
        <time>2018-08-01T11:31:04Z</time>
      </trkpt>
      <trkpt lat="47.18799" lon="6.85649">
        <ele>887.078</ele>
        <time>2018-08-01T11:31:06Z</time>
      </trkpt>
      <trkpt lat="47.18805" lon="6.85657">
        <ele>886.863</ele>
        <time>2018-08-01T11:31:08Z</time>
      </trkpt>
      <trkpt lat="47.1881" lon="6.85665">
        <ele>886.367</ele>
        <time>2018-08-01T11:31:10Z</time>
      </trkpt>
      <trkpt lat="47.18816" lon="6.85672">
        <ele>886.299</ele>
        <time>2018-08-01T11:31:12Z</time>
      </trkpt>
      <trkpt lat="47.18821" lon="6.85678">
        <ele>886.475</ele>
        <time>2018-08-01T11:31:14Z</time>
      </trkpt>
      <trkpt lat="47.18826" lon="6.85683">
        <ele>886.892</ele>
        <time>2018-08-01T11:31:16Z</time>
      </trkpt>
      <trkpt lat="47.18831" lon="6.85687">
        <ele>887.127</ele>
        <time>2018-08-01T11:31:18Z</time>
      </trkpt>
      <trkpt lat="47.18837" lon="6.85691">
        <ele>887.466</ele>
        <time>2018-08-01T11:31:20Z</time>
      </trkpt>
      <trkpt lat="47.18843" lon="6.85696">
        <ele>887.714</ele>
        <time>2018-08-01T11:31:22Z</time>
      </trkpt>
      <trkpt lat="47.1885" lon="6.85701">
        <ele>888.254</ele>
        <time>2018-08-01T11:31:24Z</time>
      </trkpt>
      <trkpt lat="47.18857" lon="6.85705">
        <ele>888.609</ele>
        <time>2018-08-01T11:31:26Z</time>
      </trkpt>
      <trkpt lat="47.18863" lon="6.85709">
        <ele>889.008</ele>
        <time>2018-08-01T11:31:28Z</time>
      </trkpt>
      <trkpt lat="47.1887" lon="6.85706">
        <ele>889.753</ele>
        <time>2018-08-01T11:31:31Z</time>
      </trkpt>
      <trkpt lat="47.18875" lon="6.857">
        <ele>890.258</ele>
        <time>2018-08-01T11:31:33Z</time>
      </trkpt>
      <trkpt lat="47.1888" lon="6.85695">
        <ele>890.862</ele>
        <time>2018-08-01T11:31:36Z</time>
      </trkpt>
      <trkpt lat="47.18886" lon="6.85691">
        <ele>891.134</ele>
        <time>2018-08-01T11:31:38Z</time>
      </trkpt>
      <trkpt lat="47.18892" lon="6.85692">
        <ele>891.35</ele>
        <time>2018-08-01T11:31:40Z</time>
      </trkpt>
      <trkpt lat="47.18899" lon="6.85693">
        <ele>891.537</ele>
        <time>2018-08-01T11:31:42Z</time>
      </trkpt>
      <trkpt lat="47.18906" lon="6.85694">
        <ele>891.752</ele>
        <time>2018-08-01T11:31:44Z</time>
      </trkpt>
      <trkpt lat="47.18913" lon="6.85695">
        <ele>891.821</ele>
        <time>2018-08-01T11:31:46Z</time>
      </trkpt>
      <trkpt lat="47.1892" lon="6.85696">
        <ele>892.057</ele>
        <time>2018-08-01T11:31:48Z</time>
      </trkpt>
      <trkpt lat="47.18926" lon="6.85697">
        <ele>892.3</ele>
        <time>2018-08-01T11:31:50Z</time>
      </trkpt>
      <trkpt lat="47.18933" lon="6.85697">
        <ele>892.52</ele>
        <time>2018-08-01T11:31:52Z</time>
      </trkpt>
      <trkpt lat="47.18939" lon="6.85698">
        <ele>892.608</ele>
        <time>2018-08-01T11:31:54Z</time>
      </trkpt>
      <trkpt lat="47.18945" lon="6.85701">
        <ele>892.777</ele>
        <time>2018-08-01T11:31:56Z</time>
      </trkpt>
      <trkpt lat="47.1895" lon="6.85704">
        <ele>892.752</ele>
        <time>2018-08-01T11:31:58Z</time>
      </trkpt>
      <trkpt lat="47.18956" lon="6.85706">
        <ele>893.086</ele>
        <time>2018-08-01T11:32:01Z</time>
      </trkpt>
      <trkpt lat="47.1896" lon="6.85709">
        <ele>893.378</ele>
        <time>2018-08-01T11:32:03Z</time>
      </trkpt>
      <trkpt lat="47.18965" lon="6.8571">
        <ele>893.654</ele>
        <time>2018-08-01T11:32:05Z</time>
      </trkpt>
      <trkpt lat="47.1897" lon="6.85711">
        <ele>893.941</ele>
        <time>2018-08-01T11:32:07Z</time>
      </trkpt>
      <trkpt lat="47.18975" lon="6.85712">
        <ele>894.276</ele>
        <time>2018-08-01T11:32:09Z</time>
      </trkpt>
      <trkpt lat="47.1898" lon="6.85712">
        <ele>894.525</ele>
        <time>2018-08-01T11:32:11Z</time>
      </trkpt>
      <trkpt lat="47.18985" lon="6.85711">
        <ele>894.886</ele>
        <time>2018-08-01T11:32:13Z</time>
      </trkpt>
      <trkpt lat="47.1899" lon="6.8571">
        <ele>895.06</ele>
        <time>2018-08-01T11:32:15Z</time>
      </trkpt>
      <trkpt lat="47.18995" lon="6.85711">
        <ele>895.326</ele>
        <time>2018-08-01T11:32:17Z</time>
      </trkpt>
      <trkpt lat="47.19" lon="6.8571">
        <ele>895.908</ele>
        <time>2018-08-01T11:32:20Z</time>
      </trkpt>
      <trkpt lat="47.19007" lon="6.85711">
        <ele>896.43</ele>
        <time>2018-08-01T11:32:23Z</time>
      </trkpt>
      <trkpt lat="47.19012" lon="6.85713">
        <ele>896.575</ele>
        <time>2018-08-01T11:32:26Z</time>
      </trkpt>
      <trkpt lat="47.19017" lon="6.85713">
        <ele>897.399</ele>
        <time>2018-08-01T11:32:38Z</time>
      </trkpt>
      <trkpt lat="47.19022" lon="6.85715">
        <ele>897.771</ele>
        <time>2018-08-01T11:32:41Z</time>
      </trkpt>
      <trkpt lat="47.19026" lon="6.85721">
        <ele>898.887</ele>
        <time>2018-08-01T11:32:44Z</time>
      </trkpt>
      <trkpt lat="47.19029" lon="6.85728">
        <ele>899.444</ele>
        <time>2018-08-01T11:32:47Z</time>
      </trkpt>
      <trkpt lat="47.19033" lon="6.85734">
        <ele>899.369</ele>
        <time>2018-08-01T11:32:51Z</time>
      </trkpt>
      <trkpt lat="47.19036" lon="6.8574">
        <ele>899.038</ele>
        <time>2018-08-01T11:32:54Z</time>
      </trkpt>
      <trkpt lat="47.19039" lon="6.85748">
        <ele>898.782</ele>
        <time>2018-08-01T11:32:57Z</time>
      </trkpt>
      <trkpt lat="47.19041" lon="6.85755">
        <ele>898.743</ele>
        <time>2018-08-01T11:32:59Z</time>
      </trkpt>
      <trkpt lat="47.19043" lon="6.85762">
        <ele>898.817</ele>
        <time>2018-08-01T11:33:01Z</time>
      </trkpt>
      <trkpt lat="47.19045" lon="6.85769">
        <ele>899.008</ele>
        <time>2018-08-01T11:33:03Z</time>
      </trkpt>
      <trkpt lat="47.19048" lon="6.85775">
        <ele>899.28</ele>
        <time>2018-08-01T11:33:05Z</time>
      </trkpt>
      <trkpt lat="47.19051" lon="6.85781">
        <ele>899.345</ele>
        <time>2018-08-01T11:33:07Z</time>
      </trkpt>
      <trkpt lat="47.19054" lon="6.85789">
        <ele>899.489</ele>
        <time>2018-08-01T11:33:09Z</time>
      </trkpt>
      <trkpt lat="47.19057" lon="6.85797">
        <ele>899.571</ele>
        <time>2018-08-01T11:33:11Z</time>
      </trkpt>
      <trkpt lat="47.1906" lon="6.85805">
        <ele>899.847</ele>
        <time>2018-08-01T11:33:13Z</time>
      </trkpt>
      <trkpt lat="47.19063" lon="6.85813">
        <ele>900.094</ele>
        <time>2018-08-01T11:33:15Z</time>
      </trkpt>
      <trkpt lat="47.19067" lon="6.85821">
        <ele>900.169</ele>
        <time>2018-08-01T11:33:17Z</time>
      </trkpt>
      <trkpt lat="47.19069" lon="6.85827">
        <ele>900.068</ele>
        <time>2018-08-01T11:33:19Z</time>
      </trkpt>
      <trkpt lat="47.19073" lon="6.85834">
        <ele>899.787</ele>
        <time>2018-08-01T11:33:21Z</time>
      </trkpt>
      <trkpt lat="47.19079" lon="6.85833">
        <ele>899.442</ele>
        <time>2018-08-01T11:33:24Z</time>
      </trkpt>
      <trkpt lat="47.19084" lon="6.85827">
        <ele>899.526</ele>
        <time>2018-08-01T11:33:26Z</time>
      </trkpt>
      <trkpt lat="47.1909" lon="6.85821">
        <ele>899.708</ele>
        <time>2018-08-01T11:33:28Z</time>
      </trkpt>
      <trkpt lat="47.19095" lon="6.85817">
        <ele>900.07</ele>
        <time>2018-08-01T11:33:30Z</time>
      </trkpt>
      <trkpt lat="47.191" lon="6.85812">
        <ele>900.465</ele>
        <time>2018-08-01T11:33:32Z</time>
      </trkpt>
      <trkpt lat="47.19105" lon="6.85806">
        <ele>901.049</ele>
        <time>2018-08-01T11:33:34Z</time>
      </trkpt>
      <trkpt lat="47.19111" lon="6.85802">
        <ele>901.311</ele>
        <time>2018-08-01T11:33:36Z</time>
      </trkpt>
      <trkpt lat="47.19117" lon="6.858">
        <ele>901.927</ele>
        <time>2018-08-01T11:33:38Z</time>
      </trkpt>
      <trkpt lat="47.19122" lon="6.858">
        <ele>902.554</ele>
        <time>2018-08-01T11:33:40Z</time>
      </trkpt>
      <trkpt lat="47.19128" lon="6.85801">
        <ele>903.079</ele>
        <time>2018-08-01T11:33:42Z</time>
      </trkpt>
      <trkpt lat="47.19134" lon="6.85804">
        <ele>903.488</ele>
        <time>2018-08-01T11:33:44Z</time>
      </trkpt>
      <trkpt lat="47.19139" lon="6.85804">
        <ele>903.752</ele>
        <time>2018-08-01T11:33:46Z</time>
      </trkpt>
      <trkpt lat="47.19144" lon="6.85804">
        <ele>903.953</ele>
        <time>2018-08-01T11:33:48Z</time>
      </trkpt>
      <trkpt lat="47.19149" lon="6.85803">
        <ele>904.208</ele>
        <time>2018-08-01T11:33:50Z</time>
      </trkpt>
      <trkpt lat="47.19155" lon="6.85802">
        <ele>904.708</ele>
        <time>2018-08-01T11:33:52Z</time>
      </trkpt>
      <trkpt lat="47.1916" lon="6.85801">
        <ele>905.197</ele>
        <time>2018-08-01T11:33:54Z</time>
      </trkpt>
      <trkpt lat="47.19166" lon="6.858">
        <ele>905.452</ele>
        <time>2018-08-01T11:33:56Z</time>
      </trkpt>
      <trkpt lat="47.19172" lon="6.85796">
        <ele>906.066</ele>
        <time>2018-08-01T11:33:58Z</time>
      </trkpt>
      <trkpt lat="47.19177" lon="6.85793">
        <ele>906.698</ele>
        <time>2018-08-01T11:34:00Z</time>
      </trkpt>
      <trkpt lat="47.19183" lon="6.8579">
        <ele>907.074</ele>
        <time>2018-08-01T11:34:02Z</time>
      </trkpt>
      <trkpt lat="47.19188" lon="6.85787">
        <ele>907.231</ele>
        <time>2018-08-01T11:34:04Z</time>
      </trkpt>
      <trkpt lat="47.19193" lon="6.85782">
        <ele>907.596</ele>
        <time>2018-08-01T11:34:06Z</time>
      </trkpt>
      <trkpt lat="47.19198" lon="6.85778">
        <ele>908.045</ele>
        <time>2018-08-01T11:34:08Z</time>
      </trkpt>
      <trkpt lat="47.19203" lon="6.85774">
        <ele>908.792</ele>
        <time>2018-08-01T11:34:10Z</time>
      </trkpt>
      <trkpt lat="47.19208" lon="6.85771">
        <ele>909.273</ele>
        <time>2018-08-01T11:34:12Z</time>
      </trkpt>
      <trkpt lat="47.19213" lon="6.85771">
        <ele>909.72</ele>
        <time>2018-08-01T11:34:14Z</time>
      </trkpt>
      <trkpt lat="47.19218" lon="6.85775">
        <ele>909.808</ele>
        <time>2018-08-01T11:34:16Z</time>
      </trkpt>
      <trkpt lat="47.19221" lon="6.85783">
        <ele>909.841</ele>
        <time>2018-08-01T11:34:18Z</time>
      </trkpt>
      <trkpt lat="47.19226" lon="6.85794">
        <ele>909.576</ele>
        <time>2018-08-01T11:34:20Z</time>
      </trkpt>
      <trkpt lat="47.19228" lon="6.858">
        <ele>909.58</ele>
        <time>2018-08-01T11:34:21Z</time>
      </trkpt>
      <trkpt lat="47.19231" lon="6.85805">
        <ele>909.552</ele>
        <time>2018-08-01T11:34:22Z</time>
      </trkpt>
      <trkpt lat="47.19234" lon="6.85811">
        <ele>909.568</ele>
        <time>2018-08-01T11:34:23Z</time>
      </trkpt>
      <trkpt lat="47.19238" lon="6.85818">
        <ele>909.565</ele>
        <time>2018-08-01T11:34:24Z</time>
      </trkpt>
      <trkpt lat="47.19242" lon="6.85828">
        <ele>909.84</ele>
        <time>2018-08-01T11:34:26Z</time>
      </trkpt>
      <trkpt lat="47.19245" lon="6.85835">
        <ele>909.959</ele>
        <time>2018-08-01T11:34:27Z</time>
      </trkpt>
      <trkpt lat="47.19247" lon="6.85841">
        <ele>910.021</ele>
        <time>2018-08-01T11:34:28Z</time>
      </trkpt>
      <trkpt lat="47.19251" lon="6.85847">
        <ele>910.041</ele>
        <time>2018-08-01T11:34:29Z</time>
      </trkpt>
      <trkpt lat="47.19254" lon="6.85853">
        <ele>910.105</ele>
        <time>2018-08-01T11:34:30Z</time>
      </trkpt>
      <trkpt lat="47.19257" lon="6.85858">
        <ele>910.108</ele>
        <time>2018-08-01T11:34:31Z</time>
      </trkpt>
      <trkpt lat="47.1926" lon="6.85864">
        <ele>910.144</ele>
        <time>2018-08-01T11:34:32Z</time>
      </trkpt>
      <trkpt lat="47.19263" lon="6.85871">
        <ele>910.259</ele>
        <time>2018-08-01T11:34:33Z</time>
      </trkpt>
      <trkpt lat="47.19266" lon="6.85877">
        <ele>910.253</ele>
        <time>2018-08-01T11:34:34Z</time>
      </trkpt>
      <trkpt lat="47.19268" lon="6.85882">
        <ele>910.225</ele>
        <time>2018-08-01T11:34:35Z</time>
      </trkpt>
      <trkpt lat="47.19274" lon="6.85892">
        <ele>910.251</ele>
        <time>2018-08-01T11:34:37Z</time>
      </trkpt>
      <trkpt lat="47.19278" lon="6.85897">
        <ele>910.128</ele>
        <time>2018-08-01T11:34:38Z</time>
      </trkpt>
      <trkpt lat="47.19282" lon="6.85902">
        <ele>910.143</ele>
        <time>2018-08-01T11:34:39Z</time>
      </trkpt>
      <trkpt lat="47.19286" lon="6.85907">
        <ele>910.122</ele>
        <time>2018-08-01T11:34:40Z</time>
      </trkpt>
      <trkpt lat="47.19291" lon="6.85914">
        <ele>910.238</ele>
        <time>2018-08-01T11:34:41Z</time>
      </trkpt>
      <trkpt lat="47.19298" lon="6.85922">
        <ele>910.37</ele>
        <time>2018-08-01T11:34:43Z</time>
      </trkpt>
      <trkpt lat="47.19306" lon="6.85929">
        <ele>910.317</ele>
        <time>2018-08-01T11:34:45Z</time>
      </trkpt>
      <trkpt lat="47.19309" lon="6.85933">
        <ele>910.208</ele>
        <time>2018-08-01T11:34:46Z</time>
      </trkpt>
      <trkpt lat="47.19314" lon="6.85938">
        <ele>910.185</ele>
        <time>2018-08-01T11:34:47Z</time>
      </trkpt>
      <trkpt lat="47.19321" lon="6.85945">
        <ele>909.83</ele>
        <time>2018-08-01T11:34:49Z</time>
      </trkpt>
      <trkpt lat="47.19325" lon="6.85951">
        <ele>909.814</ele>
        <time>2018-08-01T11:34:50Z</time>
      </trkpt>
      <trkpt lat="47.1933" lon="6.85961">
        <ele>909.636</ele>
        <time>2018-08-01T11:34:51Z</time>
      </trkpt>
      <trkpt lat="47.19335" lon="6.85967">
        <ele>909.462</ele>
        <time>2018-08-01T11:34:52Z</time>
      </trkpt>
      <trkpt lat="47.1934" lon="6.85972">
        <ele>909.219</ele>
        <time>2018-08-01T11:34:53Z</time>
      </trkpt>
      <trkpt lat="47.19343" lon="6.85981">
        <ele>908.724</ele>
        <time>2018-08-01T11:34:54Z</time>
      </trkpt>
      <trkpt lat="47.19347" lon="6.85988">
        <ele>908.193</ele>
        <time>2018-08-01T11:34:55Z</time>
      </trkpt>
      <trkpt lat="47.19352" lon="6.85996">
        <ele>907.534</ele>
        <time>2018-08-01T11:34:56Z</time>
      </trkpt>
      <trkpt lat="47.19356" lon="6.86006">
        <ele>907.055</ele>
        <time>2018-08-01T11:34:57Z</time>
      </trkpt>
      <trkpt lat="47.1936" lon="6.86015">
        <ele>906.71</ele>
        <time>2018-08-01T11:34:58Z</time>
      </trkpt>
      <trkpt lat="47.19364" lon="6.86024">
        <ele>906.708</ele>
        <time>2018-08-01T11:34:59Z</time>
      </trkpt>
      <trkpt lat="47.19368" lon="6.86034">
        <ele>906.415</ele>
        <time>2018-08-01T11:35:00Z</time>
      </trkpt>
      <trkpt lat="47.19372" lon="6.86044">
        <ele>906.07</ele>
        <time>2018-08-01T11:35:01Z</time>
      </trkpt>
      <trkpt lat="47.19374" lon="6.86053">
        <ele>905.844</ele>
        <time>2018-08-01T11:35:02Z</time>
      </trkpt>
      <trkpt lat="47.19379" lon="6.86063">
        <ele>905.166</ele>
        <time>2018-08-01T11:35:03Z</time>
      </trkpt>
      <trkpt lat="47.19384" lon="6.86075">
        <ele>904.412</ele>
        <time>2018-08-01T11:35:04Z</time>
      </trkpt>
      <trkpt lat="47.19391" lon="6.86087">
        <ele>903.969</ele>
        <time>2018-08-01T11:35:05Z</time>
      </trkpt>
      <trkpt lat="47.19395" lon="6.86097">
        <ele>903.624</ele>
        <time>2018-08-01T11:35:06Z</time>
      </trkpt>
      <trkpt lat="47.19401" lon="6.86107">
        <ele>903.183</ele>
        <time>2018-08-01T11:35:07Z</time>
      </trkpt>
      <trkpt lat="47.19406" lon="6.86117">
        <ele>903.028</ele>
        <time>2018-08-01T11:35:08Z</time>
      </trkpt>
      <trkpt lat="47.19409" lon="6.86127">
        <ele>902.389</ele>
        <time>2018-08-01T11:35:09Z</time>
      </trkpt>
      <trkpt lat="47.19414" lon="6.86137">
        <ele>901.417</ele>
        <time>2018-08-01T11:35:10Z</time>
      </trkpt>
      <trkpt lat="47.19419" lon="6.86146">
        <ele>900.708</ele>
        <time>2018-08-01T11:35:11Z</time>
      </trkpt>
      <trkpt lat="47.19423" lon="6.86155">
        <ele>899.844</ele>
        <time>2018-08-01T11:35:12Z</time>
      </trkpt>
      <trkpt lat="47.19427" lon="6.86164">
        <ele>898.889</ele>
        <time>2018-08-01T11:35:13Z</time>
      </trkpt>
      <trkpt lat="47.19431" lon="6.86173">
        <ele>898.583</ele>
        <time>2018-08-01T11:35:14Z</time>
      </trkpt>
      <trkpt lat="47.19437" lon="6.86182">
        <ele>898.555</ele>
        <time>2018-08-01T11:35:15Z</time>
      </trkpt>
      <trkpt lat="47.19441" lon="6.86191">
        <ele>898.151</ele>
        <time>2018-08-01T11:35:16Z</time>
      </trkpt>
      <trkpt lat="47.19445" lon="6.86201">
        <ele>897.958</ele>
        <time>2018-08-01T11:35:17Z</time>
      </trkpt>
      <trkpt lat="47.19449" lon="6.86209">
        <ele>897.763</ele>
        <time>2018-08-01T11:35:18Z</time>
      </trkpt>
      <trkpt lat="47.19452" lon="6.86218">
        <ele>897.782</ele>
        <time>2018-08-01T11:35:19Z</time>
      </trkpt>
      <trkpt lat="47.19457" lon="6.86225">
        <ele>897.784</ele>
        <time>2018-08-01T11:35:20Z</time>
      </trkpt>
      <trkpt lat="47.19459" lon="6.86233">
        <ele>897.707</ele>
        <time>2018-08-01T11:35:21Z</time>
      </trkpt>
      <trkpt lat="47.19465" lon="6.86245">
        <ele>897.817</ele>
        <time>2018-08-01T11:35:23Z</time>
      </trkpt>
      <trkpt lat="47.1947" lon="6.86252">
        <ele>897.908</ele>
        <time>2018-08-01T11:35:24Z</time>
      </trkpt>
      <trkpt lat="47.19473" lon="6.86259">
        <ele>898.13</ele>
        <time>2018-08-01T11:35:25Z</time>
      </trkpt>
      <trkpt lat="47.19476" lon="6.86263">
        <ele>898.285</ele>
        <time>2018-08-01T11:35:26Z</time>
      </trkpt>
      <trkpt lat="47.19481" lon="6.86269">
        <ele>898.279</ele>
        <time>2018-08-01T11:35:27Z</time>
      </trkpt>
      <trkpt lat="47.19486" lon="6.86275">
        <ele>898.451</ele>
        <time>2018-08-01T11:35:28Z</time>
      </trkpt>
      <trkpt lat="47.1949" lon="6.8628">
        <ele>898.887</ele>
        <time>2018-08-01T11:35:29Z</time>
      </trkpt>
      <trkpt lat="47.19495" lon="6.86285">
        <ele>899.164</ele>
        <time>2018-08-01T11:35:30Z</time>
      </trkpt>
      <trkpt lat="47.19499" lon="6.8629">
        <ele>899.149</ele>
        <time>2018-08-01T11:35:31Z</time>
      </trkpt>
      <trkpt lat="47.19504" lon="6.86295">
        <ele>899.178</ele>
        <time>2018-08-01T11:35:32Z</time>
      </trkpt>
      <trkpt lat="47.19509" lon="6.86299">
        <ele>899.116</ele>
        <time>2018-08-01T11:35:33Z</time>
      </trkpt>
      <trkpt lat="47.19513" lon="6.86304">
        <ele>899.076</ele>
        <time>2018-08-01T11:35:34Z</time>
      </trkpt>
      <trkpt lat="47.19518" lon="6.86309">
        <ele>898.913</ele>
        <time>2018-08-01T11:35:35Z</time>
      </trkpt>
      <trkpt lat="47.19522" lon="6.86314">
        <ele>898.908</ele>
        <time>2018-08-01T11:35:36Z</time>
      </trkpt>
      <trkpt lat="47.19527" lon="6.86319">
        <ele>899.093</ele>
        <time>2018-08-01T11:35:37Z</time>
      </trkpt>
      <trkpt lat="47.19531" lon="6.86326">
        <ele>899.428</ele>
        <time>2018-08-01T11:35:38Z</time>
      </trkpt>
      <trkpt lat="47.19535" lon="6.8633">
        <ele>899.722</ele>
        <time>2018-08-01T11:35:39Z</time>
      </trkpt>
      <trkpt lat="47.19539" lon="6.86334">
        <ele>900.124</ele>
        <time>2018-08-01T11:35:40Z</time>
      </trkpt>
      <trkpt lat="47.19545" lon="6.86341">
        <ele>900.57</ele>
        <time>2018-08-01T11:35:41Z</time>
      </trkpt>
      <trkpt lat="47.19553" lon="6.86349">
        <ele>901.377</ele>
        <time>2018-08-01T11:35:43Z</time>
      </trkpt>
      <trkpt lat="47.19557" lon="6.86353">
        <ele>901.572</ele>
        <time>2018-08-01T11:35:44Z</time>
      </trkpt>
      <trkpt lat="47.1956" lon="6.86358">
        <ele>901.631</ele>
        <time>2018-08-01T11:35:45Z</time>
      </trkpt>
      <trkpt lat="47.19564" lon="6.86363">
        <ele>901.712</ele>
        <time>2018-08-01T11:35:46Z</time>
      </trkpt>
      <trkpt lat="47.19568" lon="6.86368">
        <ele>901.732</ele>
        <time>2018-08-01T11:35:47Z</time>
      </trkpt>
      <trkpt lat="47.19573" lon="6.86377">
        <ele>901.405</ele>
        <time>2018-08-01T11:35:49Z</time>
      </trkpt>
      <trkpt lat="47.19581" lon="6.86385">
        <ele>901.408</ele>
        <time>2018-08-01T11:35:51Z</time>
      </trkpt>
      <trkpt lat="47.19588" lon="6.86394">
        <ele>901.953</ele>
        <time>2018-08-01T11:35:53Z</time>
      </trkpt>
      <trkpt lat="47.19594" lon="6.86402">
        <ele>902.228</ele>
        <time>2018-08-01T11:35:55Z</time>
      </trkpt>
      <trkpt lat="47.196" lon="6.86409">
        <ele>902.892</ele>
        <time>2018-08-01T11:35:57Z</time>
      </trkpt>
      <trkpt lat="47.19606" lon="6.86412">
        <ele>902.974</ele>
        <time>2018-08-01T11:35:58Z</time>
      </trkpt>
      <trkpt lat="47.1961" lon="6.86416">
        <ele>903.12</ele>
        <time>2018-08-01T11:35:59Z</time>
      </trkpt>
      <trkpt lat="47.19618" lon="6.86424">
        <ele>903.427</ele>
        <time>2018-08-01T11:36:01Z</time>
      </trkpt>
      <trkpt lat="47.19622" lon="6.86432">
        <ele>903.662</ele>
        <time>2018-08-01T11:36:03Z</time>
      </trkpt>
      <trkpt lat="47.19626" lon="6.86436">
        <ele>903.641</ele>
        <time>2018-08-01T11:36:04Z</time>
      </trkpt>
      <trkpt lat="47.19631" lon="6.86443">
        <ele>903.158</ele>
        <time>2018-08-01T11:36:06Z</time>
      </trkpt>
      <trkpt lat="47.19638" lon="6.86451">
        <ele>903.252</ele>
        <time>2018-08-01T11:36:08Z</time>
      </trkpt>
      <trkpt lat="47.19644" lon="6.8646">
        <ele>903.817</ele>
        <time>2018-08-01T11:36:10Z</time>
      </trkpt>
      <trkpt lat="47.19647" lon="6.86465">
        <ele>904.308</ele>
        <time>2018-08-01T11:36:11Z</time>
      </trkpt>
      <trkpt lat="47.19653" lon="6.86474">
        <ele>905.017</ele>
        <time>2018-08-01T11:36:13Z</time>
      </trkpt>
      <trkpt lat="47.19657" lon="6.86478">
        <ele>905.362</ele>
        <time>2018-08-01T11:36:14Z</time>
      </trkpt>
      <trkpt lat="47.19663" lon="6.86487">
        <ele>905.876</ele>
        <time>2018-08-01T11:36:16Z</time>
      </trkpt>
      <trkpt lat="47.19667" lon="6.86491">
        <ele>906.168</ele>
        <time>2018-08-01T11:36:17Z</time>
      </trkpt>
      <trkpt lat="47.1967" lon="6.86496">
        <ele>906.424</ele>
        <time>2018-08-01T11:36:18Z</time>
      </trkpt>
      <trkpt lat="47.19674" lon="6.86501">
        <ele>906.711</ele>
        <time>2018-08-01T11:36:19Z</time>
      </trkpt>
      <trkpt lat="47.19681" lon="6.86509">
        <ele>907.086</ele>
        <time>2018-08-01T11:36:21Z</time>
      </trkpt>
      <trkpt lat="47.19688" lon="6.86518">
        <ele>907.625</ele>
        <time>2018-08-01T11:36:23Z</time>
      </trkpt>
      <trkpt lat="47.19695" lon="6.86525">
        <ele>908.183</ele>
        <time>2018-08-01T11:36:25Z</time>
      </trkpt>
      <trkpt lat="47.19702" lon="6.86533">
        <ele>908.725</ele>
        <time>2018-08-01T11:36:27Z</time>
      </trkpt>
      <trkpt lat="47.19707" lon="6.8654">
        <ele>909.417</ele>
        <time>2018-08-01T11:36:29Z</time>
      </trkpt>
      <trkpt lat="47.19714" lon="6.86547">
        <ele>909.708</ele>
        <time>2018-08-01T11:36:31Z</time>
      </trkpt>
      <trkpt lat="47.19718" lon="6.86552">
        <ele>909.94</ele>
        <time>2018-08-01T11:36:32Z</time>
      </trkpt>
      <trkpt lat="47.19724" lon="6.86557">
        <ele>910.195</ele>
        <time>2018-08-01T11:36:34Z</time>
      </trkpt>
      <trkpt lat="47.19731" lon="6.86562">
        <ele>910.419</ele>
        <time>2018-08-01T11:36:36Z</time>
      </trkpt>
      <trkpt lat="47.19737" lon="6.86567">
        <ele>910.871</ele>
        <time>2018-08-01T11:36:38Z</time>
      </trkpt>
      <trkpt lat="47.19744" lon="6.86572">
        <ele>911.347</ele>
        <time>2018-08-01T11:36:40Z</time>
      </trkpt>
      <trkpt lat="47.1975" lon="6.86576">
        <ele>911.964</ele>
        <time>2018-08-01T11:36:42Z</time>
      </trkpt>
      <trkpt lat="47.19756" lon="6.86582">
        <ele>912.549</ele>
        <time>2018-08-01T11:36:44Z</time>
      </trkpt>
      <trkpt lat="47.19762" lon="6.86587">
        <ele>913.028</ele>
        <time>2018-08-01T11:36:46Z</time>
      </trkpt>
      <trkpt lat="47.19768" lon="6.86593">
        <ele>913.431</ele>
        <time>2018-08-01T11:36:48Z</time>
      </trkpt>
      <trkpt lat="47.19775" lon="6.86598">
        <ele>913.661</ele>
        <time>2018-08-01T11:36:50Z</time>
      </trkpt>
      <trkpt lat="47.19782" lon="6.86603">
        <ele>914.007</ele>
        <time>2018-08-01T11:36:52Z</time>
      </trkpt>
      <trkpt lat="47.19789" lon="6.86608">
        <ele>914.408</ele>
        <time>2018-08-01T11:36:54Z</time>
      </trkpt>
      <trkpt lat="47.19795" lon="6.86614">
        <ele>914.925</ele>
        <time>2018-08-01T11:36:56Z</time>
      </trkpt>
      <trkpt lat="47.19802" lon="6.86618">
        <ele>915.57</ele>
        <time>2018-08-01T11:36:58Z</time>
      </trkpt>
      <trkpt lat="47.19808" lon="6.86622">
        <ele>916.124</ele>
        <time>2018-08-01T11:37:00Z</time>
      </trkpt>
      <trkpt lat="47.19815" lon="6.86627">
        <ele>916.646</ele>
        <time>2018-08-01T11:37:02Z</time>
      </trkpt>
      <trkpt lat="47.1982" lon="6.86631">
        <ele>917.132</ele>
        <time>2018-08-01T11:37:04Z</time>
      </trkpt>
      <trkpt lat="47.19827" lon="6.86635">
        <ele>917.589</ele>
        <time>2018-08-01T11:37:06Z</time>
      </trkpt>
      <trkpt lat="47.19834" lon="6.86638">
        <ele>918.034</ele>
        <time>2018-08-01T11:37:08Z</time>
      </trkpt>
      <trkpt lat="47.19839" lon="6.86641">
        <ele>918.473</ele>
        <time>2018-08-01T11:37:10Z</time>
      </trkpt>
      <trkpt lat="47.19845" lon="6.86646">
        <ele>918.987</ele>
        <time>2018-08-01T11:37:12Z</time>
      </trkpt>
      <trkpt lat="47.19851" lon="6.86651">
        <ele>919.442</ele>
        <time>2018-08-01T11:37:14Z</time>
      </trkpt>
      <trkpt lat="47.19856" lon="6.86656">
        <ele>919.726</ele>
        <time>2018-08-01T11:37:16Z</time>
      </trkpt>
      <trkpt lat="47.19862" lon="6.8666">
        <ele>920.308</ele>
        <time>2018-08-01T11:37:18Z</time>
      </trkpt>
      <trkpt lat="47.19868" lon="6.86664">
        <ele>921.01</ele>
        <time>2018-08-01T11:37:20Z</time>
      </trkpt>
      <trkpt lat="47.19873" lon="6.86668">
        <ele>921.615</ele>
        <time>2018-08-01T11:37:22Z</time>
      </trkpt>
      <trkpt lat="47.19879" lon="6.86672">
        <ele>922.269</ele>
        <time>2018-08-01T11:37:24Z</time>
      </trkpt>
      <trkpt lat="47.19886" lon="6.86678">
        <ele>922.981</ele>
        <time>2018-08-01T11:37:26Z</time>
      </trkpt>
      <trkpt lat="47.19892" lon="6.86682">
        <ele>923.797</ele>
        <time>2018-08-01T11:37:28Z</time>
      </trkpt>
      <trkpt lat="47.19899" lon="6.86687">
        <ele>924.454</ele>
        <time>2018-08-01T11:37:30Z</time>
      </trkpt>
      <trkpt lat="47.19904" lon="6.8669">
        <ele>925.279</ele>
        <time>2018-08-01T11:37:32Z</time>
      </trkpt>
      <trkpt lat="47.19909" lon="6.86692">
        <ele>925.988</ele>
        <time>2018-08-01T11:37:34Z</time>
      </trkpt>
      <trkpt lat="47.19914" lon="6.86695">
        <ele>926.612</ele>
        <time>2018-08-01T11:37:36Z</time>
      </trkpt>
      <trkpt lat="47.19921" lon="6.86699">
        <ele>927.532</ele>
        <time>2018-08-01T11:37:39Z</time>
      </trkpt>
      <trkpt lat="47.19926" lon="6.86699">
        <ele>928.305</ele>
        <time>2018-08-01T11:37:41Z</time>
      </trkpt>
      <trkpt lat="47.19933" lon="6.86701">
        <ele>929.008</ele>
        <time>2018-08-01T11:37:43Z</time>
      </trkpt>
      <trkpt lat="47.19939" lon="6.86703">
        <ele>929.333</ele>
        <time>2018-08-01T11:37:45Z</time>
      </trkpt>
      <trkpt lat="47.19946" lon="6.86704">
        <ele>929.858</ele>
        <time>2018-08-01T11:37:47Z</time>
      </trkpt>
      <trkpt lat="47.19951" lon="6.86704">
        <ele>930.432</ele>
        <time>2018-08-01T11:37:49Z</time>
      </trkpt>
      <trkpt lat="47.19957" lon="6.86703">
        <ele>931.034</ele>
        <time>2018-08-01T11:37:51Z</time>
      </trkpt>
      <trkpt lat="47.19962" lon="6.86702">
        <ele>931.67</ele>
        <time>2018-08-01T11:37:53Z</time>
      </trkpt>
      <trkpt lat="47.19968" lon="6.86701">
        <ele>932.277</ele>
        <time>2018-08-01T11:37:55Z</time>
      </trkpt>
      <trkpt lat="47.19973" lon="6.86701">
        <ele>932.822</ele>
        <time>2018-08-01T11:37:57Z</time>
      </trkpt>
      <trkpt lat="47.19978" lon="6.86699">
        <ele>933.521</ele>
        <time>2018-08-01T11:37:59Z</time>
      </trkpt>
      <trkpt lat="47.19982" lon="6.86696">
        <ele>934.269</ele>
        <time>2018-08-01T11:38:01Z</time>
      </trkpt>
      <trkpt lat="47.19986" lon="6.86693">
        <ele>935.104</ele>
        <time>2018-08-01T11:38:04Z</time>
      </trkpt>
      <trkpt lat="47.19991" lon="6.86687">
        <ele>935.924</ele>
        <time>2018-08-01T11:38:07Z</time>
      </trkpt>
      <trkpt lat="47.19996" lon="6.86684">
        <ele>936.308</ele>
        <time>2018-08-01T11:38:09Z</time>
      </trkpt>
      <trkpt lat="47.20003" lon="6.86682">
        <ele>936.848</ele>
        <time>2018-08-01T11:38:11Z</time>
      </trkpt>
      <trkpt lat="47.20008" lon="6.8668">
        <ele>937.063</ele>
        <time>2018-08-01T11:38:13Z</time>
      </trkpt>
      <trkpt lat="47.20014" lon="6.86677">
        <ele>937.517</ele>
        <time>2018-08-01T11:38:15Z</time>
      </trkpt>
      <trkpt lat="47.20021" lon="6.86675">
        <ele>938.019</ele>
        <time>2018-08-01T11:38:17Z</time>
      </trkpt>
      <trkpt lat="47.20028" lon="6.86672">
        <ele>938.555</ele>
        <time>2018-08-01T11:38:19Z</time>
      </trkpt>
      <trkpt lat="47.20033" lon="6.86669">
        <ele>938.932</ele>
        <time>2018-08-01T11:38:21Z</time>
      </trkpt>
      <trkpt lat="47.20037" lon="6.86664">
        <ele>939.217</ele>
        <time>2018-08-01T11:38:23Z</time>
      </trkpt>
      <trkpt lat="47.20043" lon="6.86657">
        <ele>939.586</ele>
        <time>2018-08-01T11:38:25Z</time>
      </trkpt>
      <trkpt lat="47.20048" lon="6.86652">
        <ele>939.736</ele>
        <time>2018-08-01T11:38:27Z</time>
      </trkpt>
      <trkpt lat="47.20054" lon="6.86648">
        <ele>940.117</ele>
        <time>2018-08-01T11:38:30Z</time>
      </trkpt>
      <trkpt lat="47.20061" lon="6.86642">
        <ele>940.318</ele>
        <time>2018-08-01T11:38:32Z</time>
      </trkpt>
      <trkpt lat="47.20065" lon="6.86641">
        <ele>940.408</ele>
        <time>2018-08-01T11:38:33Z</time>
      </trkpt>
      <trkpt lat="47.20074" lon="6.8664">
        <ele>940.575</ele>
        <time>2018-08-01T11:38:35Z</time>
      </trkpt>
      <trkpt lat="47.20081" lon="6.86642">
        <ele>940.72</ele>
        <time>2018-08-01T11:38:37Z</time>
      </trkpt>
      <trkpt lat="47.20087" lon="6.86646">
        <ele>940.884</ele>
        <time>2018-08-01T11:38:39Z</time>
      </trkpt>
      <trkpt lat="47.20092" lon="6.86651">
        <ele>941.056</ele>
        <time>2018-08-01T11:38:41Z</time>
      </trkpt>
      <trkpt lat="47.20097" lon="6.86657">
        <ele>941.362</ele>
        <time>2018-08-01T11:38:43Z</time>
      </trkpt>
      <trkpt lat="47.20103" lon="6.86664">
        <ele>941.639</ele>
        <time>2018-08-01T11:38:45Z</time>
      </trkpt>
      <trkpt lat="47.20106" lon="6.86667">
        <ele>941.844</ele>
        <time>2018-08-01T11:38:47Z</time>
      </trkpt>
      <trkpt lat="47.20112" lon="6.86672">
        <ele>942.033</ele>
        <time>2018-08-01T11:38:49Z</time>
      </trkpt>
      <trkpt lat="47.20115" lon="6.86678">
        <ele>942.399</ele>
        <time>2018-08-01T11:38:51Z</time>
      </trkpt>
      <trkpt lat="47.2012" lon="6.86684">
        <ele>942.507</ele>
        <time>2018-08-01T11:38:53Z</time>
      </trkpt>
      <trkpt lat="47.20126" lon="6.86691">
        <ele>942.627</ele>
        <time>2018-08-01T11:38:55Z</time>
      </trkpt>
      <trkpt lat="47.20133" lon="6.86697">
        <ele>942.708</ele>
        <time>2018-08-01T11:38:57Z</time>
      </trkpt>
      <trkpt lat="47.20139" lon="6.86701">
        <ele>942.881</ele>
        <time>2018-08-01T11:38:59Z</time>
      </trkpt>
      <trkpt lat="47.20145" lon="6.86707">
        <ele>942.916</ele>
        <time>2018-08-01T11:39:01Z</time>
      </trkpt>
      <trkpt lat="47.20151" lon="6.86713">
        <ele>942.92</ele>
        <time>2018-08-01T11:39:03Z</time>
      </trkpt>
      <trkpt lat="47.20157" lon="6.86717">
        <ele>942.942</ele>
        <time>2018-08-01T11:39:05Z</time>
      </trkpt>
      <trkpt lat="47.20165" lon="6.86722">
        <ele>942.938</ele>
        <time>2018-08-01T11:39:07Z</time>
      </trkpt>
      <trkpt lat="47.20171" lon="6.86726">
        <ele>942.935</ele>
        <time>2018-08-01T11:39:09Z</time>
      </trkpt>
      <trkpt lat="47.20178" lon="6.86729">
        <ele>942.92</ele>
        <time>2018-08-01T11:39:11Z</time>
      </trkpt>
      <trkpt lat="47.20184" lon="6.86732">
        <ele>942.869</ele>
        <time>2018-08-01T11:39:13Z</time>
      </trkpt>
      <trkpt lat="47.2019" lon="6.86735">
        <ele>942.628</ele>
        <time>2018-08-01T11:39:15Z</time>
      </trkpt>
      <trkpt lat="47.20197" lon="6.86738">
        <ele>942.589</ele>
        <time>2018-08-01T11:39:17Z</time>
      </trkpt>
      <trkpt lat="47.20205" lon="6.86741">
        <ele>942.417</ele>
        <time>2018-08-01T11:39:19Z</time>
      </trkpt>
      <trkpt lat="47.20212" lon="6.86744">
        <ele>942.308</ele>
        <time>2018-08-01T11:39:21Z</time>
      </trkpt>
      <trkpt lat="47.20219" lon="6.86748">
        <ele>942.144</ele>
        <time>2018-08-01T11:39:23Z</time>
      </trkpt>
      <trkpt lat="47.20225" lon="6.8675">
        <ele>942.069</ele>
        <time>2018-08-01T11:39:25Z</time>
      </trkpt>
      <trkpt lat="47.20231" lon="6.86751">
        <ele>942.073</ele>
        <time>2018-08-01T11:39:27Z</time>
      </trkpt>
      <trkpt lat="47.20237" lon="6.86752">
        <ele>942.045</ele>
        <time>2018-08-01T11:39:29Z</time>
      </trkpt>
      <trkpt lat="47.20243" lon="6.86752">
        <ele>941.931</ele>
        <time>2018-08-01T11:39:31Z</time>
      </trkpt>
      <trkpt lat="47.20248" lon="6.86749">
        <ele>941.938</ele>
        <time>2018-08-01T11:39:33Z</time>
      </trkpt>
      <trkpt lat="47.20254" lon="6.86744">
        <ele>942.073</ele>
        <time>2018-08-01T11:39:35Z</time>
      </trkpt>
      <trkpt lat="47.20257" lon="6.86739">
        <ele>942.022</ele>
        <time>2018-08-01T11:39:37Z</time>
      </trkpt>
      <trkpt lat="47.20259" lon="6.86731">
        <ele>941.353</ele>
        <time>2018-08-01T11:41:29Z</time>
      </trkpt>
      <trkpt lat="47.2026" lon="6.86721">
        <ele>941.204</ele>
        <time>2018-08-01T11:41:31Z</time>
      </trkpt>
      <trkpt lat="47.20261" lon="6.86709">
        <ele>940.914</ele>
        <time>2018-08-01T11:41:33Z</time>
      </trkpt>
      <trkpt lat="47.20261" lon="6.86702">
        <ele>940.708</ele>
        <time>2018-08-01T11:41:34Z</time>
      </trkpt>
      <trkpt lat="47.20262" lon="6.86692">
        <ele>940.577</ele>
        <time>2018-08-01T11:41:35Z</time>
      </trkpt>
      <trkpt lat="47.20262" lon="6.86685">
        <ele>940.222</ele>
        <time>2018-08-01T11:41:36Z</time>
      </trkpt>
      <trkpt lat="47.20265" lon="6.86678">
        <ele>939.926</ele>
        <time>2018-08-01T11:41:37Z</time>
      </trkpt>
      <trkpt lat="47.20264" lon="6.86663">
        <ele>939.678</ele>
        <time>2018-08-01T11:41:38Z</time>
      </trkpt>
      <trkpt lat="47.20263" lon="6.86651">
        <ele>939.374</ele>
        <time>2018-08-01T11:41:39Z</time>
      </trkpt>
      <trkpt lat="47.20265" lon="6.86638">
        <ele>939.051</ele>
        <time>2018-08-01T11:41:40Z</time>
      </trkpt>
      <trkpt lat="47.20266" lon="6.86624">
        <ele>938.676</ele>
        <time>2018-08-01T11:41:41Z</time>
      </trkpt>
      <trkpt lat="47.2027" lon="6.86611">
        <ele>938.145</ele>
        <time>2018-08-01T11:41:42Z</time>
      </trkpt>
      <trkpt lat="47.20273" lon="6.86598">
        <ele>937.479</ele>
        <time>2018-08-01T11:41:43Z</time>
      </trkpt>
      <trkpt lat="47.20278" lon="6.86588">
        <ele>936.505</ele>
        <time>2018-08-01T11:41:44Z</time>
      </trkpt>
      <trkpt lat="47.20282" lon="6.86579">
        <ele>935.525</ele>
        <time>2018-08-01T11:41:45Z</time>
      </trkpt>
      <trkpt lat="47.20287" lon="6.86571">
        <ele>934.508</ele>
        <time>2018-08-01T11:41:46Z</time>
      </trkpt>
      <trkpt lat="47.20292" lon="6.86562">
        <ele>933.519</ele>
        <time>2018-08-01T11:41:47Z</time>
      </trkpt>
      <trkpt lat="47.20297" lon="6.86556">
        <ele>932.564</ele>
        <time>2018-08-01T11:41:48Z</time>
      </trkpt>
      <trkpt lat="47.20304" lon="6.86552">
        <ele>931.768</ele>
        <time>2018-08-01T11:41:49Z</time>
      </trkpt>
      <trkpt lat="47.2031" lon="6.86548">
        <ele>931.07</ele>
        <time>2018-08-01T11:41:50Z</time>
      </trkpt>
      <trkpt lat="47.20317" lon="6.86549">
        <ele>930.366</ele>
        <time>2018-08-01T11:41:51Z</time>
      </trkpt>
      <trkpt lat="47.20324" lon="6.8655">
        <ele>930.363</ele>
        <time>2018-08-01T11:41:52Z</time>
      </trkpt>
      <trkpt lat="47.20331" lon="6.86554">
        <ele>929.648</ele>
        <time>2018-08-01T11:41:53Z</time>
      </trkpt>
      <trkpt lat="47.20337" lon="6.86561">
        <ele>929.157</ele>
        <time>2018-08-01T11:41:54Z</time>
      </trkpt>
      <trkpt lat="47.20343" lon="6.86567">
        <ele>928.666</ele>
        <time>2018-08-01T11:41:55Z</time>
      </trkpt>
      <trkpt lat="47.20349" lon="6.86575">
        <ele>928.229</ele>
        <time>2018-08-01T11:41:56Z</time>
      </trkpt>
      <trkpt lat="47.20355" lon="6.86584">
        <ele>927.821</ele>
        <time>2018-08-01T11:41:57Z</time>
      </trkpt>
      <trkpt lat="47.2036" lon="6.86593">
        <ele>927.408</ele>
        <time>2018-08-01T11:41:58Z</time>
      </trkpt>
      <trkpt lat="47.20365" lon="6.86602">
        <ele>927.178</ele>
        <time>2018-08-01T11:41:59Z</time>
      </trkpt>
      <trkpt lat="47.2037" lon="6.8661">
        <ele>926.883</ele>
        <time>2018-08-01T11:42:00Z</time>
      </trkpt>
      <trkpt lat="47.20376" lon="6.86618">
        <ele>926.477</ele>
        <time>2018-08-01T11:42:01Z</time>
      </trkpt>
      <trkpt lat="47.20381" lon="6.86627">
        <ele>926.059</ele>
        <time>2018-08-01T11:42:02Z</time>
      </trkpt>
      <trkpt lat="47.20386" lon="6.86636">
        <ele>925.845</ele>
        <time>2018-08-01T11:42:03Z</time>
      </trkpt>
      <trkpt lat="47.20391" lon="6.86643">
        <ele>925.312</ele>
        <time>2018-08-01T11:42:04Z</time>
      </trkpt>
      <trkpt lat="47.20398" lon="6.86651">
        <ele>924.887</ele>
        <time>2018-08-01T11:42:05Z</time>
      </trkpt>
      <trkpt lat="47.20404" lon="6.86658">
        <ele>924.636</ele>
        <time>2018-08-01T11:42:06Z</time>
      </trkpt>
      <trkpt lat="47.2041" lon="6.86663">
        <ele>924.656</ele>
        <time>2018-08-01T11:42:07Z</time>
      </trkpt>
      <trkpt lat="47.20417" lon="6.86666">
        <ele>924.459</ele>
        <time>2018-08-01T11:42:08Z</time>
      </trkpt>
      <trkpt lat="47.20424" lon="6.86672">
        <ele>924.414</ele>
        <time>2018-08-01T11:42:09Z</time>
      </trkpt>
      <trkpt lat="47.2043" lon="6.86673">
        <ele>924.408</ele>
        <time>2018-08-01T11:42:10Z</time>
      </trkpt>
      <trkpt lat="47.20437" lon="6.86677">
        <ele>924.487</ele>
        <time>2018-08-01T11:42:11Z</time>
      </trkpt>
      <trkpt lat="47.20442" lon="6.86678">
        <ele>924.112</ele>
        <time>2018-08-01T11:42:12Z</time>
      </trkpt>
      <trkpt lat="47.20447" lon="6.8668">
        <ele>924.076</ele>
        <time>2018-08-01T11:42:13Z</time>
      </trkpt>
      <trkpt lat="47.20452" lon="6.86682">
        <ele>923.968</ele>
        <time>2018-08-01T11:42:14Z</time>
      </trkpt>
      <trkpt lat="47.20459" lon="6.86684">
        <ele>923.924</ele>
        <time>2018-08-01T11:42:15Z</time>
      </trkpt>
      <trkpt lat="47.20466" lon="6.86686">
        <ele>923.771</ele>
        <time>2018-08-01T11:42:16Z</time>
      </trkpt>
      <trkpt lat="47.20472" lon="6.86688">
        <ele>923.626</ele>
        <time>2018-08-01T11:42:17Z</time>
      </trkpt>
      <trkpt lat="47.20479" lon="6.86689">
        <ele>923.435</ele>
        <time>2018-08-01T11:42:18Z</time>
      </trkpt>
      <trkpt lat="47.20486" lon="6.86693">
        <ele>923.464</ele>
        <time>2018-08-01T11:42:19Z</time>
      </trkpt>
      <trkpt lat="47.20494" lon="6.86695">
        <ele>922.906</ele>
        <time>2018-08-01T11:42:20Z</time>
      </trkpt>
      <trkpt lat="47.205" lon="6.867">
        <ele>922.416</ele>
        <time>2018-08-01T11:42:21Z</time>
      </trkpt>
      <trkpt lat="47.20507" lon="6.86706">
        <ele>922.008</ele>
        <time>2018-08-01T11:42:22Z</time>
      </trkpt>
      <trkpt lat="47.20513" lon="6.86714">
        <ele>921.538</ele>
        <time>2018-08-01T11:42:23Z</time>
      </trkpt>
      <trkpt lat="47.20519" lon="6.86721">
        <ele>921.083</ele>
        <time>2018-08-01T11:42:24Z</time>
      </trkpt>
      <trkpt lat="47.20523" lon="6.86727">
        <ele>920.757</ele>
        <time>2018-08-01T11:42:25Z</time>
      </trkpt>
      <trkpt lat="47.20528" lon="6.86736">
        <ele>920.619</ele>
        <time>2018-08-01T11:42:26Z</time>
      </trkpt>
      <trkpt lat="47.20533" lon="6.86743">
        <ele>920.625</ele>
        <time>2018-08-01T11:42:27Z</time>
      </trkpt>
      <trkpt lat="47.20538" lon="6.86748">
        <ele>920.522</ele>
        <time>2018-08-01T11:42:28Z</time>
      </trkpt>
      <trkpt lat="47.20546" lon="6.86763">
        <ele>920.437</ele>
        <time>2018-08-01T11:42:29Z</time>
      </trkpt>
      <trkpt lat="47.20551" lon="6.86771">
        <ele>919.936</ele>
        <time>2018-08-01T11:42:30Z</time>
      </trkpt>
      <trkpt lat="47.20555" lon="6.86779">
        <ele>919.398</ele>
        <time>2018-08-01T11:42:31Z</time>
      </trkpt>
      <trkpt lat="47.20559" lon="6.86786">
        <ele>918.515</ele>
        <time>2018-08-01T11:42:32Z</time>
      </trkpt>
      <trkpt lat="47.20563" lon="6.86794">
        <ele>917.826</ele>
        <time>2018-08-01T11:42:33Z</time>
      </trkpt>
      <trkpt lat="47.20568" lon="6.86801">
        <ele>917.308</ele>
        <time>2018-08-01T11:42:34Z</time>
      </trkpt>
      <trkpt lat="47.2057" lon="6.86808">
        <ele>917.211</ele>
        <time>2018-08-01T11:42:35Z</time>
      </trkpt>
      <trkpt lat="47.20575" lon="6.86815">
        <ele>916.966</ele>
        <time>2018-08-01T11:42:36Z</time>
      </trkpt>
      <trkpt lat="47.20581" lon="6.86826">
        <ele>916.67</ele>
        <time>2018-08-01T11:42:37Z</time>
      </trkpt>
      <trkpt lat="47.20587" lon="6.86833">
        <ele>916.482</ele>
        <time>2018-08-01T11:42:38Z</time>
      </trkpt>
      <trkpt lat="47.20597" lon="6.86847">
        <ele>915.648</ele>
        <time>2018-08-01T11:42:40Z</time>
      </trkpt>
      <trkpt lat="47.20602" lon="6.86855">
        <ele>915.255</ele>
        <time>2018-08-01T11:42:41Z</time>
      </trkpt>
      <trkpt lat="47.20606" lon="6.86862">
        <ele>915.04</ele>
        <time>2018-08-01T11:42:42Z</time>
      </trkpt>
      <trkpt lat="47.20612" lon="6.8687">
        <ele>914.869</ele>
        <time>2018-08-01T11:42:43Z</time>
      </trkpt>
      <trkpt lat="47.20619" lon="6.86876">
        <ele>914.676</ele>
        <time>2018-08-01T11:42:44Z</time>
      </trkpt>
      <trkpt lat="47.20626" lon="6.86882">
        <ele>914.49</ele>
        <time>2018-08-01T11:42:45Z</time>
      </trkpt>
      <trkpt lat="47.20631" lon="6.86887">
        <ele>914.419</ele>
        <time>2018-08-01T11:42:46Z</time>
      </trkpt>
      <trkpt lat="47.20642" lon="6.86891">
        <ele>914.108</ele>
        <time>2018-08-01T11:42:47Z</time>
      </trkpt>
      <trkpt lat="47.20651" lon="6.86894">
        <ele>913.749</ele>
        <time>2018-08-01T11:42:48Z</time>
      </trkpt>
      <trkpt lat="47.20661" lon="6.86892">
        <ele>913.424</ele>
        <time>2018-08-01T11:42:49Z</time>
      </trkpt>
      <trkpt lat="47.20668" lon="6.86888">
        <ele>913.078</ele>
        <time>2018-08-01T11:42:50Z</time>
      </trkpt>
      <trkpt lat="47.20675" lon="6.86881">
        <ele>912.52</ele>
        <time>2018-08-01T11:42:51Z</time>
      </trkpt>
      <trkpt lat="47.20681" lon="6.86872">
        <ele>912.146</ele>
        <time>2018-08-01T11:42:52Z</time>
      </trkpt>
      <trkpt lat="47.20687" lon="6.86859">
        <ele>911.743</ele>
        <time>2018-08-01T11:42:53Z</time>
      </trkpt>
      <trkpt lat="47.20695" lon="6.86851">
        <ele>911.388</ele>
        <time>2018-08-01T11:42:54Z</time>
      </trkpt>
      <trkpt lat="47.20698" lon="6.86837">
        <ele>911.047</ele>
        <time>2018-08-01T11:42:55Z</time>
      </trkpt>
      <trkpt lat="47.20701" lon="6.86826">
        <ele>910.939</ele>
        <time>2018-08-01T11:42:56Z</time>
      </trkpt>
      <trkpt lat="47.20707" lon="6.8682">
        <ele>910.801</ele>
        <time>2018-08-01T11:42:57Z</time>
      </trkpt>
      <trkpt lat="47.20713" lon="6.86812">
        <ele>910.721</ele>
        <time>2018-08-01T11:42:58Z</time>
      </trkpt>
      <trkpt lat="47.20718" lon="6.86805">
        <ele>910.508</ele>
        <time>2018-08-01T11:42:59Z</time>
      </trkpt>
      <trkpt lat="47.20724" lon="6.86797">
        <ele>910.455</ele>
        <time>2018-08-01T11:43:00Z</time>
      </trkpt>
      <trkpt lat="47.20733" lon="6.86794">
        <ele>910.17</ele>
        <time>2018-08-01T11:43:01Z</time>
      </trkpt>
      <trkpt lat="47.20741" lon="6.8679">
        <ele>910.014</ele>
        <time>2018-08-01T11:43:02Z</time>
      </trkpt>
      <trkpt lat="47.20749" lon="6.86791">
        <ele>909.966</ele>
        <time>2018-08-01T11:43:03Z</time>
      </trkpt>
      <trkpt lat="47.20757" lon="6.86792">
        <ele>909.422</ele>
        <time>2018-08-01T11:43:04Z</time>
      </trkpt>
      <trkpt lat="47.20764" lon="6.86795">
        <ele>908.769</ele>
        <time>2018-08-01T11:43:05Z</time>
      </trkpt>
      <trkpt lat="47.20772" lon="6.86799">
        <ele>908.284</ele>
        <time>2018-08-01T11:43:06Z</time>
      </trkpt>
      <trkpt lat="47.20779" lon="6.86804">
        <ele>907.653</ele>
        <time>2018-08-01T11:43:07Z</time>
      </trkpt>
      <trkpt lat="47.20786" lon="6.86808">
        <ele>906.852</ele>
        <time>2018-08-01T11:43:08Z</time>
      </trkpt>
      <trkpt lat="47.20792" lon="6.86814">
        <ele>906.453</ele>
        <time>2018-08-01T11:43:09Z</time>
      </trkpt>
      <trkpt lat="47.20797" lon="6.86821">
        <ele>906.308</ele>
        <time>2018-08-01T11:43:10Z</time>
      </trkpt>
      <trkpt lat="47.20803" lon="6.86828">
        <ele>906.008</ele>
        <time>2018-08-01T11:43:11Z</time>
      </trkpt>
      <trkpt lat="47.20808" lon="6.86837">
        <ele>906.087</ele>
        <time>2018-08-01T11:43:12Z</time>
      </trkpt>
      <trkpt lat="47.20812" lon="6.86843">
        <ele>905.942</ele>
        <time>2018-08-01T11:43:13Z</time>
      </trkpt>
      <trkpt lat="47.20818" lon="6.8685">
        <ele>905.936</ele>
        <time>2018-08-01T11:43:14Z</time>
      </trkpt>
      <trkpt lat="47.20823" lon="6.86857">
        <ele>905.758</ele>
        <time>2018-08-01T11:43:15Z</time>
      </trkpt>
      <trkpt lat="47.20829" lon="6.86865">
        <ele>905.434</ele>
        <time>2018-08-01T11:43:16Z</time>
      </trkpt>
      <trkpt lat="47.20834" lon="6.86871">
        <ele>905.271</ele>
        <time>2018-08-01T11:43:17Z</time>
      </trkpt>
      <trkpt lat="47.20839" lon="6.86879">
        <ele>904.836</ele>
        <time>2018-08-01T11:43:18Z</time>
      </trkpt>
      <trkpt lat="47.20844" lon="6.86886">
        <ele>904.535</ele>
        <time>2018-08-01T11:43:19Z</time>
      </trkpt>
      <trkpt lat="47.20849" lon="6.86895">
        <ele>904.368</ele>
        <time>2018-08-01T11:43:20Z</time>
      </trkpt>
      <trkpt lat="47.20854" lon="6.86904">
        <ele>904.242</ele>
        <time>2018-08-01T11:43:21Z</time>
      </trkpt>
      <trkpt lat="47.2086" lon="6.86912">
        <ele>904.226</ele>
        <time>2018-08-01T11:43:22Z</time>
      </trkpt>
      <trkpt lat="47.20866" lon="6.86919">
        <ele>904.108</ele>
        <time>2018-08-01T11:43:23Z</time>
      </trkpt>
      <trkpt lat="47.20871" lon="6.86927">
        <ele>903.948</ele>
        <time>2018-08-01T11:43:24Z</time>
      </trkpt>
      <trkpt lat="47.20877" lon="6.86935">
        <ele>903.723</ele>
        <time>2018-08-01T11:43:25Z</time>
      </trkpt>
      <trkpt lat="47.20883" lon="6.86942">
        <ele>903.527</ele>
        <time>2018-08-01T11:43:26Z</time>
      </trkpt>
      <trkpt lat="47.20888" lon="6.8695">
        <ele>903.149</ele>
        <time>2018-08-01T11:43:27Z</time>
      </trkpt>
      <trkpt lat="47.20894" lon="6.86959">
        <ele>902.935</ele>
        <time>2018-08-01T11:43:28Z</time>
      </trkpt>
      <trkpt lat="47.209" lon="6.86968">
        <ele>902.732</ele>
        <time>2018-08-01T11:43:29Z</time>
      </trkpt>
      <trkpt lat="47.20905" lon="6.86977">
        <ele>902.637</ele>
        <time>2018-08-01T11:43:30Z</time>
      </trkpt>
      <trkpt lat="47.20911" lon="6.86986">
        <ele>902.526</ele>
        <time>2018-08-01T11:43:31Z</time>
      </trkpt>
      <trkpt lat="47.20915" lon="6.86994">
        <ele>902.526</ele>
        <time>2018-08-01T11:43:32Z</time>
      </trkpt>
      <trkpt lat="47.2092" lon="6.87002">
        <ele>902.647</ele>
        <time>2018-08-01T11:43:33Z</time>
      </trkpt>
      <trkpt lat="47.20924" lon="6.87013">
        <ele>902.611</ele>
        <time>2018-08-01T11:43:34Z</time>
      </trkpt>
      <trkpt lat="47.20928" lon="6.87022">
        <ele>902.508</ele>
        <time>2018-08-01T11:43:35Z</time>
      </trkpt>
      <trkpt lat="47.20931" lon="6.87033">
        <ele>902.334</ele>
        <time>2018-08-01T11:43:36Z</time>
      </trkpt>
      <trkpt lat="47.20934" lon="6.87044">
        <ele>902.289</ele>
        <time>2018-08-01T11:43:37Z</time>
      </trkpt>
      <trkpt lat="47.20937" lon="6.87053">
        <ele>902.023</ele>
        <time>2018-08-01T11:43:38Z</time>
      </trkpt>
      <trkpt lat="47.2094" lon="6.87062">
        <ele>902.055</ele>
        <time>2018-08-01T11:43:39Z</time>
      </trkpt>
      <trkpt lat="47.20943" lon="6.87071">
        <ele>902.321</ele>
        <time>2018-08-01T11:43:40Z</time>
      </trkpt>
      <trkpt lat="47.20947" lon="6.8708">
        <ele>902.518</ele>
        <time>2018-08-01T11:43:41Z</time>
      </trkpt>
      <trkpt lat="47.2095" lon="6.87089">
        <ele>902.533</ele>
        <time>2018-08-01T11:43:42Z</time>
      </trkpt>
      <trkpt lat="47.20953" lon="6.87098">
        <ele>902.562</ele>
        <time>2018-08-01T11:43:43Z</time>
      </trkpt>
      <trkpt lat="47.20957" lon="6.87108">
        <ele>902.243</ele>
        <time>2018-08-01T11:43:44Z</time>
      </trkpt>
      <trkpt lat="47.20961" lon="6.87117">
        <ele>901.864</ele>
        <time>2018-08-01T11:43:45Z</time>
      </trkpt>
      <trkpt lat="47.20965" lon="6.87128">
        <ele>901.21</ele>
        <time>2018-08-01T11:43:46Z</time>
      </trkpt>
      <trkpt lat="47.20968" lon="6.87139">
        <ele>900.608</ele>
        <time>2018-08-01T11:43:47Z</time>
      </trkpt>
      <trkpt lat="47.20971" lon="6.8715">
        <ele>900.186</ele>
        <time>2018-08-01T11:43:48Z</time>
      </trkpt>
      <trkpt lat="47.20974" lon="6.8716">
        <ele>899.731</ele>
        <time>2018-08-01T11:43:49Z</time>
      </trkpt>
      <trkpt lat="47.20977" lon="6.87172">
        <ele>899.375</ele>
        <time>2018-08-01T11:43:50Z</time>
      </trkpt>
      <trkpt lat="47.2098" lon="6.87185">
        <ele>898.947</ele>
        <time>2018-08-01T11:43:51Z</time>
      </trkpt>
      <trkpt lat="47.20983" lon="6.87196">
        <ele>898.533</ele>
        <time>2018-08-01T11:43:52Z</time>
      </trkpt>
      <trkpt lat="47.20988" lon="6.87209">
        <ele>898.33</ele>
        <time>2018-08-01T11:43:53Z</time>
      </trkpt>
      <trkpt lat="47.20991" lon="6.87221">
        <ele>898.155</ele>
        <time>2018-08-01T11:43:54Z</time>
      </trkpt>
      <trkpt lat="47.20994" lon="6.87232">
        <ele>898.064</ele>
        <time>2018-08-01T11:43:55Z</time>
      </trkpt>
      <trkpt lat="47.20997" lon="6.87245">
        <ele>897.892</ele>
        <time>2018-08-01T11:43:56Z</time>
      </trkpt>
      <trkpt lat="47.21001" lon="6.87256">
        <ele>897.573</ele>
        <time>2018-08-01T11:43:57Z</time>
      </trkpt>
      <trkpt lat="47.21005" lon="6.87268">
        <ele>896.92</ele>
        <time>2018-08-01T11:43:58Z</time>
      </trkpt>
      <trkpt lat="47.21008" lon="6.8728">
        <ele>896.308</ele>
        <time>2018-08-01T11:43:59Z</time>
      </trkpt>
      <trkpt lat="47.21013" lon="6.87293">
        <ele>895.791</ele>
        <time>2018-08-01T11:44:00Z</time>
      </trkpt>
      <trkpt lat="47.21017" lon="6.87305">
        <ele>895.086</ele>
        <time>2018-08-01T11:44:01Z</time>
      </trkpt>
      <trkpt lat="47.21022" lon="6.87316">
        <ele>894.85</ele>
        <time>2018-08-01T11:44:02Z</time>
      </trkpt>
      <trkpt lat="47.21026" lon="6.87326">
        <ele>894.882</ele>
        <time>2018-08-01T11:44:03Z</time>
      </trkpt>
      <trkpt lat="47.21031" lon="6.87335">
        <ele>894.978</ele>
        <time>2018-08-01T11:44:04Z</time>
      </trkpt>
      <trkpt lat="47.21037" lon="6.87341">
        <ele>894.995</ele>
        <time>2018-08-01T11:44:05Z</time>
      </trkpt>
      <trkpt lat="47.21042" lon="6.87348">
        <ele>895.13</ele>
        <time>2018-08-01T11:44:06Z</time>
      </trkpt>
      <trkpt lat="47.21048" lon="6.87354">
        <ele>895.189</ele>
        <time>2018-08-01T11:44:07Z</time>
      </trkpt>
      <trkpt lat="47.21052" lon="6.87361">
        <ele>894.949</ele>
        <time>2018-08-01T11:44:08Z</time>
      </trkpt>
      <trkpt lat="47.21057" lon="6.87367">
        <ele>894.802</ele>
        <time>2018-08-01T11:44:09Z</time>
      </trkpt>
      <trkpt lat="47.21062" lon="6.87371">
        <ele>894.822</ele>
        <time>2018-08-01T11:44:10Z</time>
      </trkpt>
      <trkpt lat="47.21067" lon="6.87378">
        <ele>894.808</ele>
        <time>2018-08-01T11:44:11Z</time>
      </trkpt>
      <trkpt lat="47.2107" lon="6.87383">
        <ele>894.926</ele>
        <time>2018-08-01T11:44:12Z</time>
      </trkpt>
      <trkpt lat="47.21073" lon="6.8739">
        <ele>894.931</ele>
        <time>2018-08-01T11:44:13Z</time>
      </trkpt>
      <trkpt lat="47.21078" lon="6.87399">
        <ele>894.985</ele>
        <time>2018-08-01T11:44:15Z</time>
      </trkpt>
      <trkpt lat="47.21081" lon="6.87404">
        <ele>894.897</ele>
        <time>2018-08-01T11:44:16Z</time>
      </trkpt>
      <trkpt lat="47.21084" lon="6.8741">
        <ele>894.823</ele>
        <time>2018-08-01T11:44:17Z</time>
      </trkpt>
      <trkpt lat="47.21089" lon="6.87416">
        <ele>894.99</ele>
        <time>2018-08-01T11:44:18Z</time>
      </trkpt>
      <trkpt lat="47.21093" lon="6.87422">
        <ele>895.175</ele>
        <time>2018-08-01T11:44:19Z</time>
      </trkpt>
      <trkpt lat="47.21097" lon="6.87428">
        <ele>895.454</ele>
        <time>2018-08-01T11:44:20Z</time>
      </trkpt>
      <trkpt lat="47.21101" lon="6.87432">
        <ele>895.625</ele>
        <time>2018-08-01T11:44:21Z</time>
      </trkpt>
      <trkpt lat="47.21105" lon="6.87436">
        <ele>895.826</ele>
        <time>2018-08-01T11:44:22Z</time>
      </trkpt>
      <trkpt lat="47.21109" lon="6.87447">
        <ele>896.208</ele>
        <time>2018-08-01T11:44:24Z</time>
      </trkpt>
      <trkpt lat="47.21112" lon="6.87452">
        <ele>896.408</ele>
        <time>2018-08-01T11:44:25Z</time>
      </trkpt>
      <trkpt lat="47.21117" lon="6.87461">
        <ele>896.724</ele>
        <time>2018-08-01T11:44:27Z</time>
      </trkpt>
      <trkpt lat="47.21121" lon="6.87465">
        <ele>896.919</ele>
        <time>2018-08-01T11:44:28Z</time>
      </trkpt>
      <trkpt lat="47.21126" lon="6.87469">
        <ele>897.023</ele>
        <time>2018-08-01T11:44:29Z</time>
      </trkpt>
      <trkpt lat="47.21131" lon="6.87476">
        <ele>897.135</ele>
        <time>2018-08-01T11:44:30Z</time>
      </trkpt>
      <trkpt lat="47.21134" lon="6.87481">
        <ele>897.271</ele>
        <time>2018-08-01T11:44:31Z</time>
      </trkpt>
      <trkpt lat="47.21138" lon="6.87486">
        <ele>897.348</ele>
        <time>2018-08-01T11:44:32Z</time>
      </trkpt>
      <trkpt lat="47.21141" lon="6.87491">
        <ele>897.383</ele>
        <time>2018-08-01T11:44:33Z</time>
      </trkpt>
      <trkpt lat="47.21144" lon="6.87496">
        <ele>897.142</ele>
        <time>2018-08-01T11:44:34Z</time>
      </trkpt>
      <trkpt lat="47.21149" lon="6.87503">
        <ele>897.059</ele>
        <time>2018-08-01T11:44:35Z</time>
      </trkpt>
      <trkpt lat="47.21152" lon="6.87507">
        <ele>897.003</ele>
        <time>2018-08-01T11:44:36Z</time>
      </trkpt>
      <trkpt lat="47.21158" lon="6.87516">
        <ele>896.723</ele>
        <time>2018-08-01T11:44:38Z</time>
      </trkpt>
      <trkpt lat="47.21164" lon="6.87525">
        <ele>896.908</ele>
        <time>2018-08-01T11:44:40Z</time>
      </trkpt>
      <trkpt lat="47.21169" lon="6.87531">
        <ele>897.657</ele>
        <time>2018-08-01T11:44:42Z</time>
      </trkpt>
      <trkpt lat="47.21175" lon="6.87539">
        <ele>898.432</ele>
        <time>2018-08-01T11:44:44Z</time>
      </trkpt>
      <trkpt lat="47.21181" lon="6.87545">
        <ele>899.236</ele>
        <time>2018-08-01T11:44:46Z</time>
      </trkpt>
      <trkpt lat="47.21188" lon="6.87552">
        <ele>900.078</ele>
        <time>2018-08-01T11:44:48Z</time>
      </trkpt>
      <trkpt lat="47.21194" lon="6.87558">
        <ele>900.694</ele>
        <time>2018-08-01T11:44:50Z</time>
      </trkpt>
      <trkpt lat="47.21201" lon="6.87566">
        <ele>901.031</ele>
        <time>2018-08-01T11:44:52Z</time>
      </trkpt>
      <trkpt lat="47.21207" lon="6.87573">
        <ele>901.396</ele>
        <time>2018-08-01T11:44:54Z</time>
      </trkpt>
      <trkpt lat="47.21214" lon="6.87579">
        <ele>901.775</ele>
        <time>2018-08-01T11:44:56Z</time>
      </trkpt>
      <trkpt lat="47.21221" lon="6.87585">
        <ele>902.237</ele>
        <time>2018-08-01T11:44:58Z</time>
      </trkpt>
      <trkpt lat="47.21227" lon="6.8759">
        <ele>902.849</ele>
        <time>2018-08-01T11:45:00Z</time>
      </trkpt>
      <trkpt lat="47.21232" lon="6.87595">
        <ele>903.313</ele>
        <time>2018-08-01T11:45:02Z</time>
      </trkpt>
      <trkpt lat="47.21238" lon="6.87602">
        <ele>903.608</ele>
        <time>2018-08-01T11:45:04Z</time>
      </trkpt>
      <trkpt lat="47.21243" lon="6.87608">
        <ele>904.075</ele>
        <time>2018-08-01T11:45:06Z</time>
      </trkpt>
      <trkpt lat="47.2125" lon="6.87613">
        <ele>904.32</ele>
        <time>2018-08-01T11:45:08Z</time>
      </trkpt>
      <trkpt lat="47.21257" lon="6.87616">
        <ele>904.624</ele>
        <time>2018-08-01T11:45:10Z</time>
      </trkpt>
      <trkpt lat="47.21264" lon="6.8762">
        <ele>904.976</ele>
        <time>2018-08-01T11:45:12Z</time>
      </trkpt>
      <trkpt lat="47.2127" lon="6.87625">
        <ele>905.462</ele>
        <time>2018-08-01T11:45:14Z</time>
      </trkpt>
      <trkpt lat="47.21278" lon="6.87629">
        <ele>905.489</ele>
        <time>2018-08-01T11:45:16Z</time>
      </trkpt>
      <trkpt lat="47.21286" lon="6.87633">
        <ele>905.324</ele>
        <time>2018-08-01T11:45:18Z</time>
      </trkpt>
      <trkpt lat="47.21292" lon="6.87633">
        <ele>905.113</ele>
        <time>2018-08-01T11:45:19Z</time>
      </trkpt>
      <trkpt lat="47.21298" lon="6.87634">
        <ele>904.844</ele>
        <time>2018-08-01T11:45:20Z</time>
      </trkpt>
      <trkpt lat="47.21304" lon="6.87633">
        <ele>904.505</ele>
        <time>2018-08-01T11:45:21Z</time>
      </trkpt>
      <trkpt lat="47.2131" lon="6.87629">
        <ele>904.115</ele>
        <time>2018-08-01T11:45:22Z</time>
      </trkpt>
      <trkpt lat="47.21316" lon="6.87626">
        <ele>903.708</ele>
        <time>2018-08-01T11:45:23Z</time>
      </trkpt>
      <trkpt lat="47.21323" lon="6.87624">
        <ele>903.496</ele>
        <time>2018-08-01T11:45:24Z</time>
      </trkpt>
      <trkpt lat="47.2133" lon="6.87622">
        <ele>903.461</ele>
        <time>2018-08-01T11:45:25Z</time>
      </trkpt>
      <trkpt lat="47.21336" lon="6.87621">
        <ele>903.685</ele>
        <time>2018-08-01T11:45:26Z</time>
      </trkpt>
      <trkpt lat="47.21342" lon="6.87621">
        <ele>903.767</ele>
        <time>2018-08-01T11:45:27Z</time>
      </trkpt>
      <trkpt lat="47.21348" lon="6.87623">
        <ele>903.823</ele>
        <time>2018-08-01T11:45:28Z</time>
      </trkpt>
      <trkpt lat="47.21352" lon="6.87625">
        <ele>903.92</ele>
        <time>2018-08-01T11:45:29Z</time>
      </trkpt>
      <trkpt lat="47.21357" lon="6.87629">
        <ele>904.095</ele>
        <time>2018-08-01T11:45:30Z</time>
      </trkpt>
      <trkpt lat="47.21362" lon="6.87634">
        <ele>904.144</ele>
        <time>2018-08-01T11:45:31Z</time>
      </trkpt>
      <trkpt lat="47.21368" lon="6.87638">
        <ele>904.181</ele>
        <time>2018-08-01T11:45:32Z</time>
      </trkpt>
      <trkpt lat="47.21373" lon="6.87642">
        <ele>904.161</ele>
        <time>2018-08-01T11:45:33Z</time>
      </trkpt>
      <trkpt lat="47.21379" lon="6.87646">
        <ele>904.117</ele>
        <time>2018-08-01T11:45:34Z</time>
      </trkpt>
      <trkpt lat="47.21384" lon="6.8765">
        <ele>904.108</ele>
        <time>2018-08-01T11:45:35Z</time>
      </trkpt>
      <trkpt lat="47.2139" lon="6.87653">
        <ele>903.72</ele>
        <time>2018-08-01T11:45:36Z</time>
      </trkpt>
      <trkpt lat="47.21395" lon="6.87657">
        <ele>903.315</ele>
        <time>2018-08-01T11:45:37Z</time>
      </trkpt>
      <trkpt lat="47.214" lon="6.8766">
        <ele>902.929</ele>
        <time>2018-08-01T11:45:38Z</time>
      </trkpt>
      <trkpt lat="47.21406" lon="6.87664">
        <ele>902.611</ele>
        <time>2018-08-01T11:45:39Z</time>
      </trkpt>
      <trkpt lat="47.21411" lon="6.87666">
        <ele>902.347</ele>
        <time>2018-08-01T11:45:40Z</time>
      </trkpt>
      <trkpt lat="47.21417" lon="6.87667">
        <ele>902.254</ele>
        <time>2018-08-01T11:45:41Z</time>
      </trkpt>
      <trkpt lat="47.21423" lon="6.8767">
        <ele>902.249</ele>
        <time>2018-08-01T11:45:42Z</time>
      </trkpt>
      <trkpt lat="47.21428" lon="6.87669">
        <ele>902.388</ele>
        <time>2018-08-01T11:45:43Z</time>
      </trkpt>
      <trkpt lat="47.21435" lon="6.87671">
        <ele>902.866</ele>
        <time>2018-08-01T11:45:45Z</time>
      </trkpt>
      <trkpt lat="47.21442" lon="6.87669">
        <ele>903.529</ele>
        <time>2018-08-01T11:45:47Z</time>
      </trkpt>
      <trkpt lat="47.21448" lon="6.87671">
        <ele>904.221</ele>
        <time>2018-08-01T11:45:49Z</time>
      </trkpt>
      <trkpt lat="47.21453" lon="6.87666">
        <ele>904.808</ele>
        <time>2018-08-01T11:45:51Z</time>
      </trkpt>
      <trkpt lat="47.21458" lon="6.87659">
        <ele>905.578</ele>
        <time>2018-08-01T11:45:53Z</time>
      </trkpt>
      <trkpt lat="47.21463" lon="6.87652">
        <ele>905.953</ele>
        <time>2018-08-01T11:45:55Z</time>
      </trkpt>
      <trkpt lat="47.21467" lon="6.87645">
        <ele>905.957</ele>
        <time>2018-08-01T11:45:57Z</time>
      </trkpt>
      <trkpt lat="47.2147" lon="6.87635">
        <ele>905.739</ele>
        <time>2018-08-01T11:45:59Z</time>
      </trkpt>
      <trkpt lat="47.21475" lon="6.87624">
        <ele>905.365</ele>
        <time>2018-08-01T11:46:01Z</time>
      </trkpt>
      <trkpt lat="47.21478" lon="6.87613">
        <ele>905.052</ele>
        <time>2018-08-01T11:46:03Z</time>
      </trkpt>
      <trkpt lat="47.21482" lon="6.87602">
        <ele>904.987</ele>
        <time>2018-08-01T11:46:05Z</time>
      </trkpt>
      <trkpt lat="47.21485" lon="6.87596">
        <ele>904.916</ele>
        <time>2018-08-01T11:46:06Z</time>
      </trkpt>
      <trkpt lat="47.21489" lon="6.87591">
        <ele>904.967</ele>
        <time>2018-08-01T11:46:07Z</time>
      </trkpt>
      <trkpt lat="47.21492" lon="6.87586">
        <ele>904.781</ele>
        <time>2018-08-01T11:46:08Z</time>
      </trkpt>
      <trkpt lat="47.21496" lon="6.8758">
        <ele>904.619</ele>
        <time>2018-08-01T11:46:09Z</time>
      </trkpt>
      <trkpt lat="47.21501" lon="6.87573">
        <ele>904.308</ele>
        <time>2018-08-01T11:46:10Z</time>
      </trkpt>
      <trkpt lat="47.21505" lon="6.87565">
        <ele>903.838</ele>
        <time>2018-08-01T11:46:11Z</time>
      </trkpt>
      <trkpt lat="47.21513" lon="6.87559">
        <ele>903.313</ele>
        <time>2018-08-01T11:46:12Z</time>
      </trkpt>
      <trkpt lat="47.2152" lon="6.87556">
        <ele>902.617</ele>
        <time>2018-08-01T11:46:13Z</time>
      </trkpt>
      <trkpt lat="47.21527" lon="6.87556">
        <ele>901.669</ele>
        <time>2018-08-01T11:46:14Z</time>
      </trkpt>
      <trkpt lat="47.21532" lon="6.8756">
        <ele>900.885</ele>
        <time>2018-08-01T11:46:15Z</time>
      </trkpt>
      <trkpt lat="47.2154" lon="6.87566">
        <ele>900.122</ele>
        <time>2018-08-01T11:46:17Z</time>
      </trkpt>
      <trkpt lat="47.21544" lon="6.8757">
        <ele>900.127</ele>
        <time>2018-08-01T11:46:18Z</time>
      </trkpt>
      <trkpt lat="47.21551" lon="6.87576">
        <ele>901.036</ele>
        <time>2018-08-01T11:46:20Z</time>
      </trkpt>
      <trkpt lat="47.21558" lon="6.87579">
        <ele>901.846</ele>
        <time>2018-08-01T11:46:22Z</time>
      </trkpt>
      <trkpt lat="47.21563" lon="6.87583">
        <ele>902.388</ele>
        <time>2018-08-01T11:46:24Z</time>
      </trkpt>
      <trkpt lat="47.21567" lon="6.87587">
        <ele>902.516</ele>
        <time>2018-08-01T11:46:25Z</time>
      </trkpt>
      <trkpt lat="47.21572" lon="6.87594">
        <ele>902.808</ele>
        <time>2018-08-01T11:46:27Z</time>
      </trkpt>
      <trkpt lat="47.21578" lon="6.876">
        <ele>903.576</ele>
        <time>2018-08-01T11:46:29Z</time>
      </trkpt>
      <trkpt lat="47.21583" lon="6.87605">
        <ele>904.171</ele>
        <time>2018-08-01T11:46:31Z</time>
      </trkpt>
      <trkpt lat="47.21589" lon="6.87609">
        <ele>904.665</ele>
        <time>2018-08-01T11:46:33Z</time>
      </trkpt>
      <trkpt lat="47.21594" lon="6.87615">
        <ele>905.367</ele>
        <time>2018-08-01T11:46:35Z</time>
      </trkpt>
      <trkpt lat="47.216" lon="6.8762">
        <ele>906.283</ele>
        <time>2018-08-01T11:46:37Z</time>
      </trkpt>
      <trkpt lat="47.21606" lon="6.87626">
        <ele>906.95</ele>
        <time>2018-08-01T11:46:39Z</time>
      </trkpt>
      <trkpt lat="47.21611" lon="6.87631">
        <ele>907.285</ele>
        <time>2018-08-01T11:46:41Z</time>
      </trkpt>
      <trkpt lat="47.21616" lon="6.87638">
        <ele>907.524</ele>
        <time>2018-08-01T11:46:43Z</time>
      </trkpt>
      <trkpt lat="47.2162" lon="6.87645">
        <ele>907.934</ele>
        <time>2018-08-01T11:46:45Z</time>
      </trkpt>
      <trkpt lat="47.21626" lon="6.87654">
        <ele>908.555</ele>
        <time>2018-08-01T11:46:47Z</time>
      </trkpt>
      <trkpt lat="47.21631" lon="6.87661">
        <ele>909.11</ele>
        <time>2018-08-01T11:46:49Z</time>
      </trkpt>
      <trkpt lat="47.21636" lon="6.87666">
        <ele>909.508</ele>
        <time>2018-08-01T11:46:51Z</time>
      </trkpt>
      <trkpt lat="47.21642" lon="6.87672">
        <ele>910.045</ele>
        <time>2018-08-01T11:46:53Z</time>
      </trkpt>
      <trkpt lat="47.21647" lon="6.87677">
        <ele>910.27</ele>
        <time>2018-08-01T11:46:55Z</time>
      </trkpt>
      <trkpt lat="47.21653" lon="6.87681">
        <ele>910.934</ele>
        <time>2018-08-01T11:46:57Z</time>
      </trkpt>
      <trkpt lat="47.21659" lon="6.87687">
        <ele>911.536</ele>
        <time>2018-08-01T11:46:59Z</time>
      </trkpt>
      <trkpt lat="47.21665" lon="6.87692">
        <ele>912.192</ele>
        <time>2018-08-01T11:47:01Z</time>
      </trkpt>
      <trkpt lat="47.2167" lon="6.87698">
        <ele>912.759</ele>
        <time>2018-08-01T11:47:03Z</time>
      </trkpt>
      <trkpt lat="47.21674" lon="6.87705">
        <ele>913.464</ele>
        <time>2018-08-01T11:47:05Z</time>
      </trkpt>
      <trkpt lat="47.21679" lon="6.8771">
        <ele>914.163</ele>
        <time>2018-08-01T11:47:07Z</time>
      </trkpt>
      <trkpt lat="47.21684" lon="6.87714">
        <ele>914.753</ele>
        <time>2018-08-01T11:47:09Z</time>
      </trkpt>
      <trkpt lat="47.21689" lon="6.87717">
        <ele>915.304</ele>
        <time>2018-08-01T11:47:11Z</time>
      </trkpt>
      <trkpt lat="47.21694" lon="6.87721">
        <ele>916.014</ele>
        <time>2018-08-01T11:47:13Z</time>
      </trkpt>
      <trkpt lat="47.21699" lon="6.87726">
        <ele>916.708</ele>
        <time>2018-08-01T11:47:15Z</time>
      </trkpt>
      <trkpt lat="47.21704" lon="6.87732">
        <ele>917.637</ele>
        <time>2018-08-01T11:47:18Z</time>
      </trkpt>
      <trkpt lat="47.21708" lon="6.87736">
        <ele>918.152</ele>
        <time>2018-08-01T11:47:20Z</time>
      </trkpt>
      <trkpt lat="47.21712" lon="6.8774">
        <ele>918.436</ele>
        <time>2018-08-01T11:47:22Z</time>
      </trkpt>
      <trkpt lat="47.21717" lon="6.87745">
        <ele>919.138</ele>
        <time>2018-08-01T11:47:25Z</time>
      </trkpt>
      <trkpt lat="47.21722" lon="6.87749">
        <ele>920.334</ele>
        <time>2018-08-01T11:47:29Z</time>
      </trkpt>
      <trkpt lat="47.21724" lon="6.87757">
        <ele>922.081</ele>
        <time>2018-08-01T11:48:44Z</time>
      </trkpt>
      <trkpt lat="47.21728" lon="6.87761">
        <ele>922.176</ele>
        <time>2018-08-01T11:48:46Z</time>
      </trkpt>
      <trkpt lat="47.21731" lon="6.87765">
        <ele>922.525</ele>
        <time>2018-08-01T11:48:48Z</time>
      </trkpt>
      <trkpt lat="47.21736" lon="6.87769">
        <ele>923.046</ele>
        <time>2018-08-01T11:48:50Z</time>
      </trkpt>
      <trkpt lat="47.2174" lon="6.87774">
        <ele>923.688</ele>
        <time>2018-08-01T11:48:52Z</time>
      </trkpt>
      <trkpt lat="47.21745" lon="6.87778">
        <ele>924.216</ele>
        <time>2018-08-01T11:48:54Z</time>
      </trkpt>
      <trkpt lat="47.21749" lon="6.87782">
        <ele>924.708</ele>
        <time>2018-08-01T11:48:56Z</time>
      </trkpt>
      <trkpt lat="47.21754" lon="6.87787">
        <ele>925.286</ele>
        <time>2018-08-01T11:48:58Z</time>
      </trkpt>
      <trkpt lat="47.21759" lon="6.87791">
        <ele>925.781</ele>
        <time>2018-08-01T11:49:00Z</time>
      </trkpt>
      <trkpt lat="47.21763" lon="6.87796">
        <ele>926.245</ele>
        <time>2018-08-01T11:49:02Z</time>
      </trkpt>
      <trkpt lat="47.21768" lon="6.87801">
        <ele>926.737</ele>
        <time>2018-08-01T11:49:04Z</time>
      </trkpt>
      <trkpt lat="47.21773" lon="6.87807">
        <ele>927.333</ele>
        <time>2018-08-01T11:49:06Z</time>
      </trkpt>
      <trkpt lat="47.21777" lon="6.87811">
        <ele>927.85</ele>
        <time>2018-08-01T11:49:08Z</time>
      </trkpt>
      <trkpt lat="47.21782" lon="6.87816">
        <ele>928.585</ele>
        <time>2018-08-01T11:49:10Z</time>
      </trkpt>
      <trkpt lat="47.21787" lon="6.87821">
        <ele>928.874</ele>
        <time>2018-08-01T11:49:12Z</time>
      </trkpt>
      <trkpt lat="47.21793" lon="6.87826">
        <ele>929.491</ele>
        <time>2018-08-01T11:49:14Z</time>
      </trkpt>
      <trkpt lat="47.21798" lon="6.87831">
        <ele>929.981</ele>
        <time>2018-08-01T11:49:16Z</time>
      </trkpt>
      <trkpt lat="47.21803" lon="6.87835">
        <ele>930.419</ele>
        <time>2018-08-01T11:49:18Z</time>
      </trkpt>
      <trkpt lat="47.21808" lon="6.8784">
        <ele>931.008</ele>
        <time>2018-08-01T11:49:20Z</time>
      </trkpt>
      <trkpt lat="47.21812" lon="6.87845">
        <ele>931.581</ele>
        <time>2018-08-01T11:49:22Z</time>
      </trkpt>
      <trkpt lat="47.21817" lon="6.87849">
        <ele>932.096</ele>
        <time>2018-08-01T11:49:24Z</time>
      </trkpt>
      <trkpt lat="47.21822" lon="6.87855">
        <ele>932.45</ele>
        <time>2018-08-01T11:49:26Z</time>
      </trkpt>
      <trkpt lat="47.21827" lon="6.87859">
        <ele>932.942</ele>
        <time>2018-08-01T11:49:28Z</time>
      </trkpt>
      <trkpt lat="47.21832" lon="6.87864">
        <ele>933.578</ele>
        <time>2018-08-01T11:49:30Z</time>
      </trkpt>
      <trkpt lat="47.21836" lon="6.87869">
        <ele>934.125</ele>
        <time>2018-08-01T11:49:32Z</time>
      </trkpt>
      <trkpt lat="47.21841" lon="6.87874">
        <ele>934.65</ele>
        <time>2018-08-01T11:49:34Z</time>
      </trkpt>
      <trkpt lat="47.21845" lon="6.87879">
        <ele>935.079</ele>
        <time>2018-08-01T11:49:36Z</time>
      </trkpt>
      <trkpt lat="47.2185" lon="6.87883">
        <ele>935.325</ele>
        <time>2018-08-01T11:49:38Z</time>
      </trkpt>
      <trkpt lat="47.21855" lon="6.87887">
        <ele>935.526</ele>
        <time>2018-08-01T11:49:40Z</time>
      </trkpt>
      <trkpt lat="47.2186" lon="6.87889">
        <ele>935.908</ele>
        <time>2018-08-01T11:49:42Z</time>
      </trkpt>
      <trkpt lat="47.21864" lon="6.87893">
        <ele>936.408</ele>
        <time>2018-08-01T11:49:44Z</time>
      </trkpt>
      <trkpt lat="47.21867" lon="6.87899">
        <ele>936.954</ele>
        <time>2018-08-01T11:49:46Z</time>
      </trkpt>
      <trkpt lat="47.21871" lon="6.87905">
        <ele>937.349</ele>
        <time>2018-08-01T11:49:48Z</time>
      </trkpt>
      <trkpt lat="47.21876" lon="6.87908">
        <ele>937.633</ele>
        <time>2018-08-01T11:49:50Z</time>
      </trkpt>
      <trkpt lat="47.21881" lon="6.87911">
        <ele>937.745</ele>
        <time>2018-08-01T11:49:52Z</time>
      </trkpt>
      <trkpt lat="47.21886" lon="6.87916">
        <ele>937.781</ele>
        <time>2018-08-01T11:49:54Z</time>
      </trkpt>
      <trkpt lat="47.21892" lon="6.8792">
        <ele>937.728</ele>
        <time>2018-08-01T11:49:56Z</time>
      </trkpt>
      <trkpt lat="47.21899" lon="6.87923">
        <ele>937.783</ele>
        <time>2018-08-01T11:49:58Z</time>
      </trkpt>
      <trkpt lat="47.21906" lon="6.87924">
        <ele>937.782</ele>
        <time>2018-08-01T11:50:00Z</time>
      </trkpt>
      <trkpt lat="47.21914" lon="6.87926">
        <ele>937.742</ele>
        <time>2018-08-01T11:50:02Z</time>
      </trkpt>
      <trkpt lat="47.21924" lon="6.87925">
        <ele>937.622</ele>
        <time>2018-08-01T11:50:04Z</time>
      </trkpt>
      <trkpt lat="47.21933" lon="6.87927">
        <ele>937.414</ele>
        <time>2018-08-01T11:50:06Z</time>
      </trkpt>
      <trkpt lat="47.21938" lon="6.87928">
        <ele>937.408</ele>
        <time>2018-08-01T11:50:07Z</time>
      </trkpt>
      <trkpt lat="47.21946" lon="6.87929">
        <ele>937.566</ele>
        <time>2018-08-01T11:50:09Z</time>
      </trkpt>
      <trkpt lat="47.21954" lon="6.87929">
        <ele>937.631</ele>
        <time>2018-08-01T11:50:11Z</time>
      </trkpt>
      <trkpt lat="47.21961" lon="6.87929">
        <ele>937.265</ele>
        <time>2018-08-01T11:50:13Z</time>
      </trkpt>
      <trkpt lat="47.21967" lon="6.87929">
        <ele>936.637</ele>
        <time>2018-08-01T11:50:15Z</time>
      </trkpt>
      <trkpt lat="47.21961" lon="6.87928">
        <ele>936.263</ele>
        <time>2018-08-01T11:50:23Z</time>
      </trkpt>
      <trkpt lat="47.21956" lon="6.87928">
        <ele>936.02</ele>
        <time>2018-08-01T11:50:27Z</time>
      </trkpt>
      <trkpt lat="47.21957" lon="6.87921">
        <ele>936.125</ele>
        <time>2018-08-01T11:50:54Z</time>
      </trkpt>
      <trkpt lat="47.21962" lon="6.87921">
        <ele>935.984</ele>
        <time>2018-08-01T11:51:11Z</time>
      </trkpt>
      <trkpt lat="47.21967" lon="6.87917">
        <ele>936.066</ele>
        <time>2018-08-01T11:51:15Z</time>
      </trkpt>
      <trkpt lat="47.21972" lon="6.87913">
        <ele>936.729</ele>
        <time>2018-08-01T11:51:18Z</time>
      </trkpt>
      <trkpt lat="47.21977" lon="6.87911">
        <ele>937.121</ele>
        <time>2018-08-01T11:51:20Z</time>
      </trkpt>
      <trkpt lat="47.21983" lon="6.87909">
        <ele>937.608</ele>
        <time>2018-08-01T11:51:23Z</time>
      </trkpt>
      <trkpt lat="47.21988" lon="6.8791">
        <ele>937.828</ele>
        <time>2018-08-01T11:51:25Z</time>
      </trkpt>
      <trkpt lat="47.21993" lon="6.87911">
        <ele>937.963</ele>
        <time>2018-08-01T11:51:27Z</time>
      </trkpt>
      <trkpt lat="47.21998" lon="6.87911">
        <ele>937.957</ele>
        <time>2018-08-01T11:51:29Z</time>
      </trkpt>
      <trkpt lat="47.22003" lon="6.87912">
        <ele>937.919</ele>
        <time>2018-08-01T11:51:31Z</time>
      </trkpt>
      <trkpt lat="47.22008" lon="6.87913">
        <ele>937.935</ele>
        <time>2018-08-01T11:51:33Z</time>
      </trkpt>
      <trkpt lat="47.22013" lon="6.87915">
        <ele>937.962</ele>
        <time>2018-08-01T11:51:35Z</time>
      </trkpt>
      <trkpt lat="47.22018" lon="6.87916">
        <ele>937.967</ele>
        <time>2018-08-01T11:51:37Z</time>
      </trkpt>
      <trkpt lat="47.22023" lon="6.87916">
        <ele>938.166</ele>
        <time>2018-08-01T11:51:39Z</time>
      </trkpt>
      <trkpt lat="47.22028" lon="6.87917">
        <ele>938.488</ele>
        <time>2018-08-01T11:51:41Z</time>
      </trkpt>
      <trkpt lat="47.22033" lon="6.8792">
        <ele>938.624</ele>
        <time>2018-08-01T11:51:43Z</time>
      </trkpt>
      <trkpt lat="47.22038" lon="6.87922">
        <ele>938.626</ele>
        <time>2018-08-01T11:51:45Z</time>
      </trkpt>
      <trkpt lat="47.22043" lon="6.87925">
        <ele>938.508</ele>
        <time>2018-08-01T11:51:47Z</time>
      </trkpt>
      <trkpt lat="47.22048" lon="6.87927">
        <ele>938.38</ele>
        <time>2018-08-01T11:51:49Z</time>
      </trkpt>
      <trkpt lat="47.22053" lon="6.87931">
        <ele>938.285</ele>
        <time>2018-08-01T11:51:51Z</time>
      </trkpt>
      <trkpt lat="47.22058" lon="6.87933">
        <ele>938.029</ele>
        <time>2018-08-01T11:51:53Z</time>
      </trkpt>
      <trkpt lat="47.22062" lon="6.87936">
        <ele>938.051</ele>
        <time>2018-08-01T11:51:55Z</time>
      </trkpt>
      <trkpt lat="47.22067" lon="6.87937">
        <ele>938.027</ele>
        <time>2018-08-01T11:51:57Z</time>
      </trkpt>
      <trkpt lat="47.22072" lon="6.8794">
        <ele>938.034</ele>
        <time>2018-08-01T11:51:59Z</time>
      </trkpt>
      <trkpt lat="47.22078" lon="6.87943">
        <ele>938.029</ele>
        <time>2018-08-01T11:52:01Z</time>
      </trkpt>
      <trkpt lat="47.22082" lon="6.87947">
        <ele>938.058</ele>
        <time>2018-08-01T11:52:03Z</time>
      </trkpt>
      <trkpt lat="47.22086" lon="6.87952">
        <ele>937.926</ele>
        <time>2018-08-01T11:52:05Z</time>
      </trkpt>
      <trkpt lat="47.22091" lon="6.87956">
        <ele>937.647</ele>
        <time>2018-08-01T11:52:07Z</time>
      </trkpt>
      <trkpt lat="47.22096" lon="6.87954">
        <ele>937.211</ele>
        <time>2018-08-01T11:52:09Z</time>
      </trkpt>
      <trkpt lat="47.22102" lon="6.87947">
        <ele>937.408</ele>
        <time>2018-08-01T11:52:12Z</time>
      </trkpt>
      <trkpt lat="47.22105" lon="6.87941">
        <ele>937.884</ele>
        <time>2018-08-01T11:52:14Z</time>
      </trkpt>
      <trkpt lat="47.22109" lon="6.87934">
        <ele>938.269</ele>
        <time>2018-08-01T11:52:16Z</time>
      </trkpt>
      <trkpt lat="47.22111" lon="6.87926">
        <ele>938.543</ele>
        <time>2018-08-01T11:52:18Z</time>
      </trkpt>
      <trkpt lat="47.22113" lon="6.87918">
        <ele>938.825</ele>
        <time>2018-08-01T11:52:20Z</time>
      </trkpt>
      <trkpt lat="47.22116" lon="6.8791">
        <ele>939.131</ele>
        <time>2018-08-01T11:52:22Z</time>
      </trkpt>
      <trkpt lat="47.22119" lon="6.87904">
        <ele>939.238</ele>
        <time>2018-08-01T11:52:24Z</time>
      </trkpt>
      <trkpt lat="47.22123" lon="6.87898">
        <ele>939.363</ele>
        <time>2018-08-01T11:52:26Z</time>
      </trkpt>
      <trkpt lat="47.22127" lon="6.87892">
        <ele>939.412</ele>
        <time>2018-08-01T11:52:28Z</time>
      </trkpt>
      <trkpt lat="47.22131" lon="6.87886">
        <ele>939.534</ele>
        <time>2018-08-01T11:52:30Z</time>
      </trkpt>
      <trkpt lat="47.22135" lon="6.8788">
        <ele>939.555</ele>
        <time>2018-08-01T11:52:32Z</time>
      </trkpt>
      <trkpt lat="47.22138" lon="6.87874">
        <ele>939.41</ele>
        <time>2018-08-01T11:52:34Z</time>
      </trkpt>
      <trkpt lat="47.22141" lon="6.87869">
        <ele>939.408</ele>
        <time>2018-08-01T11:52:36Z</time>
      </trkpt>
      <trkpt lat="47.22143" lon="6.87863">
        <ele>939.565</ele>
        <time>2018-08-01T11:52:38Z</time>
      </trkpt>
      <trkpt lat="47.22146" lon="6.87856">
        <ele>939.65</ele>
        <time>2018-08-01T11:52:40Z</time>
      </trkpt>
      <trkpt lat="47.22149" lon="6.87851">
        <ele>939.654</ele>
        <time>2018-08-01T11:52:42Z</time>
      </trkpt>
      <trkpt lat="47.22152" lon="6.87845">
        <ele>939.466</ele>
        <time>2018-08-01T11:52:44Z</time>
      </trkpt>
      <trkpt lat="47.22154" lon="6.87839">
        <ele>939.162</ele>
        <time>2018-08-01T11:52:46Z</time>
      </trkpt>
      <trkpt lat="47.22156" lon="6.87831">
        <ele>938.989</ele>
        <time>2018-08-01T11:52:48Z</time>
      </trkpt>
      <trkpt lat="47.22158" lon="6.87824">
        <ele>939.184</ele>
        <time>2018-08-01T11:52:50Z</time>
      </trkpt>
      <trkpt lat="47.2216" lon="6.87817">
        <ele>939.133</ele>
        <time>2018-08-01T11:52:52Z</time>
      </trkpt>
      <trkpt lat="47.22163" lon="6.87811">
        <ele>939.492</ele>
        <time>2018-08-01T11:52:54Z</time>
      </trkpt>
      <trkpt lat="47.22167" lon="6.87805">
        <ele>939.573</ele>
        <time>2018-08-01T11:52:58Z</time>
      </trkpt>
      <trkpt lat="47.22171" lon="6.878">
        <ele>938.92</ele>
        <time>2018-08-01T11:53:02Z</time>
      </trkpt>
      <trkpt lat="47.22175" lon="6.87794">
        <ele>938.808</ele>
        <time>2018-08-01T11:53:06Z</time>
      </trkpt>
      <trkpt lat="47.2218" lon="6.87788">
        <ele>938.551</ele>
        <time>2018-08-01T11:53:10Z</time>
      </trkpt>
      <trkpt lat="47.22184" lon="6.87782">
        <ele>938.166</ele>
        <time>2018-08-01T11:53:14Z</time>
      </trkpt>
      <trkpt lat="47.22188" lon="6.87778">
        <ele>938.03</ele>
        <time>2018-08-01T11:53:17Z</time>
      </trkpt>
      <trkpt lat="47.22192" lon="6.87774">
        <ele>937.932</ele>
        <time>2018-08-01T11:53:21Z</time>
      </trkpt>
      <trkpt lat="47.22198" lon="6.8777">
        <ele>937.958</ele>
        <time>2018-08-01T11:53:25Z</time>
      </trkpt>
      <trkpt lat="47.22202" lon="6.87764">
        <ele>937.845</ele>
        <time>2018-08-01T11:53:28Z</time>
      </trkpt>
      <trkpt lat="47.22207" lon="6.87762">
        <ele>937.71</ele>
        <time>2018-08-01T11:53:31Z</time>
      </trkpt>
      <trkpt lat="47.22212" lon="6.8776">
        <ele>937.789</ele>
        <time>2018-08-01T11:53:34Z</time>
      </trkpt>
      <trkpt lat="47.22218" lon="6.87758">
        <ele>937.739</ele>
        <time>2018-08-01T11:53:37Z</time>
      </trkpt>
      <trkpt lat="47.22223" lon="6.87754">
        <ele>937.601</ele>
        <time>2018-08-01T11:53:43Z</time>
      </trkpt>
      <trkpt lat="47.22229" lon="6.87752">
        <ele>937.521</ele>
        <time>2018-08-01T11:53:46Z</time>
      </trkpt>
      <trkpt lat="47.22235" lon="6.87749">
        <ele>937.208</ele>
        <time>2018-08-01T11:53:49Z</time>
      </trkpt>
      <trkpt lat="47.22242" lon="6.87747">
        <ele>936.945</ele>
        <time>2018-08-01T11:53:51Z</time>
      </trkpt>
      <trkpt lat="47.2225" lon="6.87747">
        <ele>936.62</ele>
        <time>2018-08-01T11:53:53Z</time>
      </trkpt>
      <trkpt lat="47.22258" lon="6.87744">
        <ele>936.474</ele>
        <time>2018-08-01T11:53:55Z</time>
      </trkpt>
      <trkpt lat="47.22266" lon="6.8774">
        <ele>936.226</ele>
        <time>2018-08-01T11:53:57Z</time>
      </trkpt>
      <trkpt lat="47.22272" lon="6.87737">
        <ele>935.942</ele>
        <time>2018-08-01T11:53:59Z</time>
      </trkpt>
      <trkpt lat="47.22278" lon="6.87733">
        <ele>935.479</ele>
        <time>2018-08-01T11:54:01Z</time>
      </trkpt>
      <trkpt lat="47.22287" lon="6.87729">
        <ele>934.764</ele>
        <time>2018-08-01T11:54:03Z</time>
      </trkpt>
      <trkpt lat="47.22293" lon="6.87726">
        <ele>934.373</ele>
        <time>2018-08-01T11:54:04Z</time>
      </trkpt>
      <trkpt lat="47.22298" lon="6.87723">
        <ele>933.978</ele>
        <time>2018-08-01T11:54:05Z</time>
      </trkpt>
      <trkpt lat="47.22303" lon="6.87721">
        <ele>933.633</ele>
        <time>2018-08-01T11:54:06Z</time>
      </trkpt>
      <trkpt lat="47.22311" lon="6.87719">
        <ele>933.426</ele>
        <time>2018-08-01T11:54:07Z</time>
      </trkpt>
      <trkpt lat="47.22315" lon="6.87715">
        <ele>933.308</ele>
        <time>2018-08-01T11:54:09Z</time>
      </trkpt>
      <trkpt lat="47.22324" lon="6.87712">
        <ele>933.369</ele>
        <time>2018-08-01T11:54:11Z</time>
      </trkpt>
      <trkpt lat="47.22329" lon="6.87711">
        <ele>933.324</ele>
        <time>2018-08-01T11:54:13Z</time>
      </trkpt>
      <trkpt lat="47.22335" lon="6.87709">
        <ele>933.378</ele>
        <time>2018-08-01T11:54:15Z</time>
      </trkpt>
      <trkpt lat="47.2234" lon="6.87705">
        <ele>933.22</ele>
        <time>2018-08-01T11:54:17Z</time>
      </trkpt>
      <trkpt lat="47.22345" lon="6.87702">
        <ele>932.836</ele>
        <time>2018-08-01T11:54:19Z</time>
      </trkpt>
      <trkpt lat="47.22351" lon="6.87698">
        <ele>931.793</ele>
        <time>2018-08-01T11:54:21Z</time>
      </trkpt>
      <trkpt lat="47.22358" lon="6.87693">
        <ele>930.488</ele>
        <time>2018-08-01T11:54:23Z</time>
      </trkpt>
      <trkpt lat="47.22364" lon="6.87687">
        <ele>928.917</ele>
        <time>2018-08-01T11:54:25Z</time>
      </trkpt>
      <trkpt lat="47.22371" lon="6.87682">
        <ele>927.636</ele>
        <time>2018-08-01T11:54:27Z</time>
      </trkpt>
      <trkpt lat="47.22376" lon="6.8768">
        <ele>927.117</ele>
        <time>2018-08-01T11:54:28Z</time>
      </trkpt>
      <trkpt lat="47.22388" lon="6.87676">
        <ele>926.718</ele>
        <time>2018-08-01T11:54:29Z</time>
      </trkpt>
      <trkpt lat="47.22394" lon="6.87673">
        <ele>926.508</ele>
        <time>2018-08-01T11:54:30Z</time>
      </trkpt>
      <trkpt lat="47.22402" lon="6.8767">
        <ele>926.225</ele>
        <time>2018-08-01T11:54:31Z</time>
      </trkpt>
      <trkpt lat="47.2241" lon="6.87668">
        <ele>926.02</ele>
        <time>2018-08-01T11:54:32Z</time>
      </trkpt>
      <trkpt lat="47.22418" lon="6.87667">
        <ele>925.394</ele>
        <time>2018-08-01T11:54:34Z</time>
      </trkpt>
      <trkpt lat="47.22423" lon="6.87664">
        <ele>924.936</ele>
        <time>2018-08-01T11:54:35Z</time>
      </trkpt>
      <trkpt lat="47.22428" lon="6.87658">
        <ele>924.152</ele>
        <time>2018-08-01T11:54:37Z</time>
      </trkpt>
      <trkpt lat="47.22432" lon="6.87656">
        <ele>923.639</ele>
        <time>2018-08-01T11:54:38Z</time>
      </trkpt>
      <trkpt lat="47.22437" lon="6.87653">
        <ele>923.094</ele>
        <time>2018-08-01T11:54:39Z</time>
      </trkpt>
      <trkpt lat="47.22441" lon="6.87649">
        <ele>922.433</ele>
        <time>2018-08-01T11:54:40Z</time>
      </trkpt>
      <trkpt lat="47.2245" lon="6.87645">
        <ele>921.166</ele>
        <time>2018-08-01T11:54:42Z</time>
      </trkpt>
      <trkpt lat="47.22454" lon="6.87643">
        <ele>921.129</ele>
        <time>2018-08-01T11:54:43Z</time>
      </trkpt>
      <trkpt lat="47.22462" lon="6.87639">
        <ele>920.421</ele>
        <time>2018-08-01T11:54:44Z</time>
      </trkpt>
      <trkpt lat="47.22468" lon="6.87636">
        <ele>919.808</ele>
        <time>2018-08-01T11:54:45Z</time>
      </trkpt>
      <trkpt lat="47.22475" lon="6.87632">
        <ele>919.328</ele>
        <time>2018-08-01T11:54:46Z</time>
      </trkpt>
      <trkpt lat="47.22482" lon="6.87631">
        <ele>918.853</ele>
        <time>2018-08-01T11:54:47Z</time>
      </trkpt>
      <trkpt lat="47.22489" lon="6.87627">
        <ele>918.287</ele>
        <time>2018-08-01T11:54:48Z</time>
      </trkpt>
      <trkpt lat="47.22495" lon="6.87625">
        <ele>917.929</ele>
        <time>2018-08-01T11:54:49Z</time>
      </trkpt>
      <trkpt lat="47.22501" lon="6.87622">
        <ele>917.455</ele>
        <time>2018-08-01T11:54:50Z</time>
      </trkpt>
      <trkpt lat="47.22507" lon="6.87618">
        <ele>917.132</ele>
        <time>2018-08-01T11:54:51Z</time>
      </trkpt>
      <trkpt lat="47.22512" lon="6.87615">
        <ele>916.737</ele>
        <time>2018-08-01T11:54:52Z</time>
      </trkpt>
      <trkpt lat="47.22517" lon="6.87612">
        <ele>916.546</ele>
        <time>2018-08-01T11:54:53Z</time>
      </trkpt>
      <trkpt lat="47.22522" lon="6.8761">
        <ele>916.213</ele>
        <time>2018-08-01T11:54:54Z</time>
      </trkpt>
      <trkpt lat="47.2253" lon="6.87604">
        <ele>916.043</ele>
        <time>2018-08-01T11:54:56Z</time>
      </trkpt>
      <trkpt lat="47.22535" lon="6.876">
        <ele>916.007</ele>
        <time>2018-08-01T11:54:57Z</time>
      </trkpt>
      <trkpt lat="47.22541" lon="6.87596">
        <ele>915.908</ele>
        <time>2018-08-01T11:54:58Z</time>
      </trkpt>
      <trkpt lat="47.22546" lon="6.87594">
        <ele>915.473</ele>
        <time>2018-08-01T11:54:59Z</time>
      </trkpt>
      <trkpt lat="47.22551" lon="6.8759">
        <ele>915.068</ele>
        <time>2018-08-01T11:55:00Z</time>
      </trkpt>
      <trkpt lat="47.22556" lon="6.87587">
        <ele>914.732</ele>
        <time>2018-08-01T11:55:01Z</time>
      </trkpt>
      <trkpt lat="47.22562" lon="6.87584">
        <ele>914.154</ele>
        <time>2018-08-01T11:55:02Z</time>
      </trkpt>
      <trkpt lat="47.22568" lon="6.87583">
        <ele>913.62</ele>
        <time>2018-08-01T11:55:03Z</time>
      </trkpt>
      <trkpt lat="47.22574" lon="6.87579">
        <ele>913.447</ele>
        <time>2018-08-01T11:55:04Z</time>
      </trkpt>
      <trkpt lat="47.22578" lon="6.87576">
        <ele>913.032</ele>
        <time>2018-08-01T11:55:05Z</time>
      </trkpt>
      <trkpt lat="47.22584" lon="6.87574">
        <ele>912.641</ele>
        <time>2018-08-01T11:55:06Z</time>
      </trkpt>
      <trkpt lat="47.2259" lon="6.87573">
        <ele>912.274</ele>
        <time>2018-08-01T11:55:07Z</time>
      </trkpt>
      <trkpt lat="47.22596" lon="6.87571">
        <ele>911.956</ele>
        <time>2018-08-01T11:55:08Z</time>
      </trkpt>
      <trkpt lat="47.22601" lon="6.87571">
        <ele>911.721</ele>
        <time>2018-08-01T11:55:09Z</time>
      </trkpt>
      <trkpt lat="47.22607" lon="6.87567">
        <ele>911.708</ele>
        <time>2018-08-01T11:55:10Z</time>
      </trkpt>
      <trkpt lat="47.22612" lon="6.87564">
        <ele>911.419</ele>
        <time>2018-08-01T11:55:11Z</time>
      </trkpt>
      <trkpt lat="47.22618" lon="6.87562">
        <ele>911.114</ele>
        <time>2018-08-01T11:55:12Z</time>
      </trkpt>
      <trkpt lat="47.22624" lon="6.87559">
        <ele>911.158</ele>
        <time>2018-08-01T11:55:13Z</time>
      </trkpt>
      <trkpt lat="47.22628" lon="6.87556">
        <ele>910.92</ele>
        <time>2018-08-01T11:55:14Z</time>
      </trkpt>
      <trkpt lat="47.22633" lon="6.87554">
        <ele>910.426</ele>
        <time>2018-08-01T11:55:15Z</time>
      </trkpt>
      <trkpt lat="47.22638" lon="6.87551">
        <ele>910.383</ele>
        <time>2018-08-01T11:55:16Z</time>
      </trkpt>
      <trkpt lat="47.22643" lon="6.87549">
        <ele>910.158</ele>
        <time>2018-08-01T11:55:17Z</time>
      </trkpt>
      <trkpt lat="47.22647" lon="6.87545">
        <ele>909.777</ele>
        <time>2018-08-01T11:55:18Z</time>
      </trkpt>
      <trkpt lat="47.22652" lon="6.87542">
        <ele>909.414</ele>
        <time>2018-08-01T11:55:19Z</time>
      </trkpt>
      <trkpt lat="47.22661" lon="6.87538">
        <ele>909.054</ele>
        <time>2018-08-01T11:55:21Z</time>
      </trkpt>
      <trkpt lat="47.22666" lon="6.87535">
        <ele>908.609</ele>
        <time>2018-08-01T11:55:22Z</time>
      </trkpt>
      <trkpt lat="47.22674" lon="6.87529">
        <ele>908.508</ele>
        <time>2018-08-01T11:55:24Z</time>
      </trkpt>
      <trkpt lat="47.22682" lon="6.87522">
        <ele>908.433</ele>
        <time>2018-08-01T11:55:26Z</time>
      </trkpt>
      <trkpt lat="47.22686" lon="6.87517">
        <ele>908.398</ele>
        <time>2018-08-01T11:55:27Z</time>
      </trkpt>
      <trkpt lat="47.22691" lon="6.87513">
        <ele>908.132</ele>
        <time>2018-08-01T11:55:28Z</time>
      </trkpt>
      <trkpt lat="47.22695" lon="6.8751">
        <ele>907.974</ele>
        <time>2018-08-01T11:55:29Z</time>
      </trkpt>
      <trkpt lat="47.22699" lon="6.87506">
        <ele>907.86</ele>
        <time>2018-08-01T11:55:30Z</time>
      </trkpt>
      <trkpt lat="47.22704" lon="6.87504">
        <ele>907.547</ele>
        <time>2018-08-01T11:55:31Z</time>
      </trkpt>
      <trkpt lat="47.22709" lon="6.87502">
        <ele>907.332</ele>
        <time>2018-08-01T11:55:32Z</time>
      </trkpt>
      <trkpt lat="47.22713" lon="6.87499">
        <ele>907.221</ele>
        <time>2018-08-01T11:55:33Z</time>
      </trkpt>
      <trkpt lat="47.22718" lon="6.87496">
        <ele>907.052</ele>
        <time>2018-08-01T11:55:34Z</time>
      </trkpt>
      <trkpt lat="47.22723" lon="6.87493">
        <ele>906.753</ele>
        <time>2018-08-01T11:55:35Z</time>
      </trkpt>
      <trkpt lat="47.22728" lon="6.87489">
        <ele>906.508</ele>
        <time>2018-08-01T11:55:36Z</time>
      </trkpt>
      <trkpt lat="47.22736" lon="6.87483">
        <ele>906.108</ele>
        <time>2018-08-01T11:55:38Z</time>
      </trkpt>
      <trkpt lat="47.2274" lon="6.8748">
        <ele>906.027</ele>
        <time>2018-08-01T11:55:39Z</time>
      </trkpt>
      <trkpt lat="47.2275" lon="6.87475">
        <ele>905.852</ele>
        <time>2018-08-01T11:55:41Z</time>
      </trkpt>
      <trkpt lat="47.22757" lon="6.87472">
        <ele>905.696</ele>
        <time>2018-08-01T11:55:43Z</time>
      </trkpt>
      <trkpt lat="47.22762" lon="6.87466">
        <ele>905.188</ele>
        <time>2018-08-01T11:55:45Z</time>
      </trkpt>
      <trkpt lat="47.22764" lon="6.8746">
        <ele>904.634</ele>
        <time>2018-08-01T11:55:47Z</time>
      </trkpt>
      <trkpt lat="47.22767" lon="6.87453">
        <ele>904.081</ele>
        <time>2018-08-01T11:55:50Z</time>
      </trkpt>
      <trkpt lat="47.22771" lon="6.8745">
        <ele>903.226</ele>
        <time>2018-08-01T11:55:57Z</time>
      </trkpt>
      <trkpt lat="47.22775" lon="6.87446">
        <ele>902.975</ele>
        <time>2018-08-01T11:56:00Z</time>
      </trkpt>
      <trkpt lat="47.22778" lon="6.8744">
        <ele>902.446</ele>
        <time>2018-08-01T11:56:04Z</time>
      </trkpt>
      <trkpt lat="47.22781" lon="6.87435">
        <ele>902.588</ele>
        <time>2018-08-01T11:57:05Z</time>
      </trkpt>
      <trkpt lat="47.22787" lon="6.87432">
        <ele>902.516</ele>
        <time>2018-08-01T11:57:08Z</time>
      </trkpt>
      <trkpt lat="47.22792" lon="6.87429">
        <ele>902.508</ele>
        <time>2018-08-01T11:57:11Z</time>
      </trkpt>
      <trkpt lat="47.22797" lon="6.87425">
        <ele>902.416</ele>
        <time>2018-08-01T11:57:15Z</time>
      </trkpt>
      <trkpt lat="47.22801" lon="6.87421">
        <ele>902.331</ele>
        <time>2018-08-01T11:57:17Z</time>
      </trkpt>
      <trkpt lat="47.22807" lon="6.87418">
        <ele>902.285</ele>
        <time>2018-08-01T11:57:19Z</time>
      </trkpt>
      <trkpt lat="47.22813" lon="6.87412">
        <ele>901.827</ele>
        <time>2018-08-01T11:57:21Z</time>
      </trkpt>
      <trkpt lat="47.22819" lon="6.87405">
        <ele>901.373</ele>
        <time>2018-08-01T11:57:23Z</time>
      </trkpt>
      <trkpt lat="47.22827" lon="6.87399">
        <ele>900.64</ele>
        <time>2018-08-01T11:57:25Z</time>
      </trkpt>
      <trkpt lat="47.22834" lon="6.87397">
        <ele>900.125</ele>
        <time>2018-08-01T11:57:27Z</time>
      </trkpt>
      <trkpt lat="47.22842" lon="6.87396">
        <ele>900.074</ele>
        <time>2018-08-01T11:57:29Z</time>
      </trkpt>
      <trkpt lat="47.2285" lon="6.87395">
        <ele>899.734</ele>
        <time>2018-08-01T11:57:31Z</time>
      </trkpt>
      <trkpt lat="47.22858" lon="6.87395">
        <ele>899.455</ele>
        <time>2018-08-01T11:57:33Z</time>
      </trkpt>
      <trkpt lat="47.22865" lon="6.87394">
        <ele>899.31</ele>
        <time>2018-08-01T11:57:35Z</time>
      </trkpt>
      <trkpt lat="47.22872" lon="6.87391">
        <ele>899.108</ele>
        <time>2018-08-01T11:57:37Z</time>
      </trkpt>
      <trkpt lat="47.2288" lon="6.87387">
        <ele>898.855</ele>
        <time>2018-08-01T11:57:39Z</time>
      </trkpt>
      <trkpt lat="47.22885" lon="6.87385">
        <ele>898.83</ele>
        <time>2018-08-01T11:57:40Z</time>
      </trkpt>
      <trkpt lat="47.22892" lon="6.87382">
        <ele>898.394</ele>
        <time>2018-08-01T11:57:42Z</time>
      </trkpt>
      <trkpt lat="47.22901" lon="6.87379">
        <ele>898.036</ele>
        <time>2018-08-01T11:57:44Z</time>
      </trkpt>
      <trkpt lat="47.22908" lon="6.87379">
        <ele>897.662</ele>
        <time>2018-08-01T11:57:46Z</time>
      </trkpt>
      <trkpt lat="47.22916" lon="6.87381">
        <ele>897.529</ele>
        <time>2018-08-01T11:57:48Z</time>
      </trkpt>
      <trkpt lat="47.22921" lon="6.87382">
        <ele>897.424</ele>
        <time>2018-08-01T11:57:49Z</time>
      </trkpt>
      <trkpt lat="47.22926" lon="6.87383">
        <ele>897.333</ele>
        <time>2018-08-01T11:57:50Z</time>
      </trkpt>
      <trkpt lat="47.22931" lon="6.87386">
        <ele>897.247</ele>
        <time>2018-08-01T11:57:51Z</time>
      </trkpt>
      <trkpt lat="47.22941" lon="6.87391">
        <ele>897.029</ele>
        <time>2018-08-01T11:57:52Z</time>
      </trkpt>
      <trkpt lat="47.22946" lon="6.87391">
        <ele>896.921</ele>
        <time>2018-08-01T11:57:53Z</time>
      </trkpt>
      <trkpt lat="47.22952" lon="6.87393">
        <ele>896.808</ele>
        <time>2018-08-01T11:57:54Z</time>
      </trkpt>
      <trkpt lat="47.22957" lon="6.87391">
        <ele>896.886</ele>
        <time>2018-08-01T11:57:55Z</time>
      </trkpt>
      <trkpt lat="47.22962" lon="6.87391">
        <ele>896.771</ele>
        <time>2018-08-01T11:57:56Z</time>
      </trkpt>
      <trkpt lat="47.22968" lon="6.87391">
        <ele>896.585</ele>
        <time>2018-08-01T11:57:57Z</time>
      </trkpt>
      <trkpt lat="47.22976" lon="6.87395">
        <ele>896.277</ele>
        <time>2018-08-01T11:57:58Z</time>
      </trkpt>
      <trkpt lat="47.22985" lon="6.87392">
        <ele>895.493</ele>
        <time>2018-08-01T11:58:00Z</time>
      </trkpt>
      <trkpt lat="47.22992" lon="6.87396">
        <ele>894.93</ele>
        <time>2018-08-01T11:58:01Z</time>
      </trkpt>
      <trkpt lat="47.22997" lon="6.87396">
        <ele>894.585</ele>
        <time>2018-08-01T11:58:02Z</time>
      </trkpt>
      <trkpt lat="47.23004" lon="6.87399">
        <ele>894.164</ele>
        <time>2018-08-01T11:58:03Z</time>
      </trkpt>
      <trkpt lat="47.2301" lon="6.87399">
        <ele>893.725</ele>
        <time>2018-08-01T11:58:04Z</time>
      </trkpt>
      <trkpt lat="47.23016" lon="6.87401">
        <ele>893.426</ele>
        <time>2018-08-01T11:58:05Z</time>
      </trkpt>
      <trkpt lat="47.23022" lon="6.87404">
        <ele>893.208</ele>
        <time>2018-08-01T11:58:06Z</time>
      </trkpt>
      <trkpt lat="47.2303" lon="6.87406">
        <ele>892.808</ele>
        <time>2018-08-01T11:58:07Z</time>
      </trkpt>
      <trkpt lat="47.23037" lon="6.87409">
        <ele>892.564</ele>
        <time>2018-08-01T11:58:08Z</time>
      </trkpt>
      <trkpt lat="47.23043" lon="6.87411">
        <ele>892.499</ele>
        <time>2018-08-01T11:58:09Z</time>
      </trkpt>
      <trkpt lat="47.2305" lon="6.87415">
        <ele>892.283</ele>
        <time>2018-08-01T11:58:10Z</time>
      </trkpt>
      <trkpt lat="47.23058" lon="6.87417">
        <ele>891.625</ele>
        <time>2018-08-01T11:58:11Z</time>
      </trkpt>
      <trkpt lat="47.23065" lon="6.8742">
        <ele>891.051</ele>
        <time>2018-08-01T11:58:12Z</time>
      </trkpt>
      <trkpt lat="47.23071" lon="6.87422">
        <ele>890.438</ele>
        <time>2018-08-01T11:58:13Z</time>
      </trkpt>
      <trkpt lat="47.23079" lon="6.87423">
        <ele>889.633</ele>
        <time>2018-08-01T11:58:14Z</time>
      </trkpt>
      <trkpt lat="47.23086" lon="6.87425">
        <ele>888.722</ele>
        <time>2018-08-01T11:58:15Z</time>
      </trkpt>
      <trkpt lat="47.23094" lon="6.87426">
        <ele>888.177</ele>
        <time>2018-08-01T11:58:16Z</time>
      </trkpt>
      <trkpt lat="47.23101" lon="6.87426">
        <ele>887.661</ele>
        <time>2018-08-01T11:58:17Z</time>
      </trkpt>
      <trkpt lat="47.23109" lon="6.87427">
        <ele>887.127</ele>
        <time>2018-08-01T11:58:18Z</time>
      </trkpt>
      <trkpt lat="47.23117" lon="6.87427">
        <ele>886.608</ele>
        <time>2018-08-01T11:58:19Z</time>
      </trkpt>
      <trkpt lat="47.23124" lon="6.87428">
        <ele>886.579</ele>
        <time>2018-08-01T11:58:20Z</time>
      </trkpt>
      <trkpt lat="47.23131" lon="6.87429">
        <ele>886.364</ele>
        <time>2018-08-01T11:58:21Z</time>
      </trkpt>
      <trkpt lat="47.23138" lon="6.8743">
        <ele>886.358</ele>
        <time>2018-08-01T11:58:22Z</time>
      </trkpt>
      <trkpt lat="47.23144" lon="6.8743">
        <ele>886.34</ele>
        <time>2018-08-01T11:58:23Z</time>
      </trkpt>
      <trkpt lat="47.2315" lon="6.87431">
        <ele>886.376</ele>
        <time>2018-08-01T11:58:24Z</time>
      </trkpt>
      <trkpt lat="47.23157" lon="6.87432">
        <ele>886.343</ele>
        <time>2018-08-01T11:58:25Z</time>
      </trkpt>
      <trkpt lat="47.23163" lon="6.87435">
        <ele>886.228</ele>
        <time>2018-08-01T11:58:26Z</time>
      </trkpt>
      <trkpt lat="47.23169" lon="6.87437">
        <ele>886.247</ele>
        <time>2018-08-01T11:58:27Z</time>
      </trkpt>
      <trkpt lat="47.23175" lon="6.87438">
        <ele>885.965</ele>
        <time>2018-08-01T11:58:28Z</time>
      </trkpt>
      <trkpt lat="47.23182" lon="6.8744">
        <ele>885.768</ele>
        <time>2018-08-01T11:58:29Z</time>
      </trkpt>
      <trkpt lat="47.2319" lon="6.87443">
        <ele>885.514</ele>
        <time>2018-08-01T11:58:30Z</time>
      </trkpt>
      <trkpt lat="47.23197" lon="6.87443">
        <ele>885.208</ele>
        <time>2018-08-01T11:58:31Z</time>
      </trkpt>
      <trkpt lat="47.23205" lon="6.87444">
        <ele>885.078</ele>
        <time>2018-08-01T11:58:32Z</time>
      </trkpt>
      <trkpt lat="47.23212" lon="6.87443">
        <ele>884.833</ele>
        <time>2018-08-01T11:58:33Z</time>
      </trkpt>
      <trkpt lat="47.23219" lon="6.87444">
        <ele>884.747</ele>
        <time>2018-08-01T11:58:34Z</time>
      </trkpt>
      <trkpt lat="47.23225" lon="6.87444">
        <ele>884.679</ele>
        <time>2018-08-01T11:58:35Z</time>
      </trkpt>
      <trkpt lat="47.2323" lon="6.87445">
        <ele>884.565</ele>
        <time>2018-08-01T11:58:36Z</time>
      </trkpt>
      <trkpt lat="47.23235" lon="6.87446">
        <ele>884.432</ele>
        <time>2018-08-01T11:58:37Z</time>
      </trkpt>
      <trkpt lat="47.23241" lon="6.87447">
        <ele>884.327</ele>
        <time>2018-08-01T11:58:38Z</time>
      </trkpt>
      <trkpt lat="47.23245" lon="6.87452">
        <ele>884.026</ele>
        <time>2018-08-01T11:58:39Z</time>
      </trkpt>
      <trkpt lat="47.2325" lon="6.87455">
        <ele>883.517</ele>
        <time>2018-08-01T11:58:40Z</time>
      </trkpt>
      <trkpt lat="47.23256" lon="6.87463">
        <ele>882.887</ele>
        <time>2018-08-01T11:58:41Z</time>
      </trkpt>
      <trkpt lat="47.23263" lon="6.87469">
        <ele>881.915</ele>
        <time>2018-08-01T11:58:42Z</time>
      </trkpt>
      <trkpt lat="47.23269" lon="6.87476">
        <ele>880.908</ele>
        <time>2018-08-01T11:58:43Z</time>
      </trkpt>
      <trkpt lat="47.23277" lon="6.87485">
        <ele>879.243</ele>
        <time>2018-08-01T11:58:45Z</time>
      </trkpt>
      <trkpt lat="47.23283" lon="6.87492">
        <ele>878.518</ele>
        <time>2018-08-01T11:58:46Z</time>
      </trkpt>
      <trkpt lat="47.23288" lon="6.87497">
        <ele>877.812</ele>
        <time>2018-08-01T11:58:47Z</time>
      </trkpt>
      <trkpt lat="47.23292" lon="6.87504">
        <ele>877.344</ele>
        <time>2018-08-01T11:58:48Z</time>
      </trkpt>
      <trkpt lat="47.23296" lon="6.87511">
        <ele>876.79</ele>
        <time>2018-08-01T11:58:49Z</time>
      </trkpt>
      <trkpt lat="47.233" lon="6.87516">
        <ele>876.067</ele>
        <time>2018-08-01T11:58:50Z</time>
      </trkpt>
      <trkpt lat="47.23304" lon="6.87522">
        <ele>876.022</ele>
        <time>2018-08-01T11:58:51Z</time>
      </trkpt>
      <trkpt lat="47.23312" lon="6.87534">
        <ele>875.241</ele>
        <time>2018-08-01T11:58:52Z</time>
      </trkpt>
      <trkpt lat="47.23317" lon="6.87539">
        <ele>874.326</ele>
        <time>2018-08-01T11:58:53Z</time>
      </trkpt>
      <trkpt lat="47.23324" lon="6.87549">
        <ele>873.447</ele>
        <time>2018-08-01T11:58:54Z</time>
      </trkpt>
      <trkpt lat="47.23331" lon="6.87555">
        <ele>872.511</ele>
        <time>2018-08-01T11:58:55Z</time>
      </trkpt>
      <trkpt lat="47.23339" lon="6.8756">
        <ele>871.808</ele>
        <time>2018-08-01T11:58:56Z</time>
      </trkpt>
      <trkpt lat="47.23345" lon="6.87567">
        <ele>871.144</ele>
        <time>2018-08-01T11:58:57Z</time>
      </trkpt>
      <trkpt lat="47.23353" lon="6.8757">
        <ele>870.869</ele>
        <time>2018-08-01T11:58:58Z</time>
      </trkpt>
      <trkpt lat="47.2336" lon="6.8757">
        <ele>870.423</ele>
        <time>2018-08-01T11:58:59Z</time>
      </trkpt>
      <trkpt lat="47.23368" lon="6.87568">
        <ele>870.225</ele>
        <time>2018-08-01T11:59:00Z</time>
      </trkpt>
      <trkpt lat="47.23373" lon="6.87563">
        <ele>869.961</ele>
        <time>2018-08-01T11:59:01Z</time>
      </trkpt>
      <trkpt lat="47.23377" lon="6.87555">
        <ele>869.778</ele>
        <time>2018-08-01T11:59:02Z</time>
      </trkpt>
      <trkpt lat="47.23381" lon="6.87548">
        <ele>869.653</ele>
        <time>2018-08-01T11:59:03Z</time>
      </trkpt>
      <trkpt lat="47.23385" lon="6.87542">
        <ele>869.622</ele>
        <time>2018-08-01T11:59:04Z</time>
      </trkpt>
      <trkpt lat="47.23388" lon="6.87536">
        <ele>869.874</ele>
        <time>2018-08-01T11:59:05Z</time>
      </trkpt>
      <trkpt lat="47.23393" lon="6.87532">
        <ele>870.056</ele>
        <time>2018-08-01T11:59:06Z</time>
      </trkpt>
      <trkpt lat="47.23398" lon="6.87521">
        <ele>870.621</ele>
        <time>2018-08-01T11:59:08Z</time>
      </trkpt>
      <trkpt lat="47.23402" lon="6.87517">
        <ele>870.808</ele>
        <time>2018-08-01T11:59:09Z</time>
      </trkpt>
      <trkpt lat="47.23405" lon="6.87512">
        <ele>870.949</ele>
        <time>2018-08-01T11:59:10Z</time>
      </trkpt>
      <trkpt lat="47.2341" lon="6.87509">
        <ele>870.944</ele>
        <time>2018-08-01T11:59:11Z</time>
      </trkpt>
      <trkpt lat="47.23417" lon="6.87503">
        <ele>871.128</ele>
        <time>2018-08-01T11:59:13Z</time>
      </trkpt>
      <trkpt lat="47.23428" lon="6.87502">
        <ele>871.23</ele>
        <time>2018-08-01T11:59:15Z</time>
      </trkpt>
      <trkpt lat="47.23432" lon="6.87501">
        <ele>871.166</ele>
        <time>2018-08-01T11:59:16Z</time>
      </trkpt>
      <trkpt lat="47.23437" lon="6.87499">
        <ele>871.073</ele>
        <time>2018-08-01T11:59:17Z</time>
      </trkpt>
      <trkpt lat="47.23448" lon="6.87496">
        <ele>870.848</ele>
        <time>2018-08-01T11:59:19Z</time>
      </trkpt>
      <trkpt lat="47.23452" lon="6.87495">
        <ele>870.337</ele>
        <time>2018-08-01T11:59:20Z</time>
      </trkpt>
      <trkpt lat="47.23459" lon="6.87495">
        <ele>869.526</ele>
        <time>2018-08-01T11:59:22Z</time>
      </trkpt>
      <trkpt lat="47.23465" lon="6.8749">
        <ele>867.947</ele>
        <time>2018-08-01T11:59:25Z</time>
      </trkpt>
      <trkpt lat="47.2347" lon="6.87488">
        <ele>866.711</ele>
        <time>2018-08-01T11:59:27Z</time>
      </trkpt>
      <trkpt lat="47.23476" lon="6.87489">
        <ele>866.308</ele>
        <time>2018-08-01T11:59:28Z</time>
      </trkpt>
      <trkpt lat="47.23481" lon="6.8749">
        <ele>865.914</ele>
        <time>2018-08-01T11:59:29Z</time>
      </trkpt>
      <trkpt lat="47.23488" lon="6.87494">
        <ele>865.339</ele>
        <time>2018-08-01T11:59:30Z</time>
      </trkpt>
      <trkpt lat="47.23494" lon="6.87498">
        <ele>864.853</ele>
        <time>2018-08-01T11:59:31Z</time>
      </trkpt>
      <trkpt lat="47.23501" lon="6.87505">
        <ele>864.295</ele>
        <time>2018-08-01T11:59:32Z</time>
      </trkpt>
      <trkpt lat="47.23509" lon="6.87511">
        <ele>863.571</ele>
        <time>2018-08-01T11:59:33Z</time>
      </trkpt>
      <trkpt lat="47.23514" lon="6.87515">
        <ele>862.948</ele>
        <time>2018-08-01T11:59:34Z</time>
      </trkpt>
      <trkpt lat="47.23519" lon="6.87518">
        <ele>862.363</ele>
        <time>2018-08-01T11:59:35Z</time>
      </trkpt>
      <trkpt lat="47.23525" lon="6.87524">
        <ele>861.872</ele>
        <time>2018-08-01T11:59:36Z</time>
      </trkpt>
      <trkpt lat="47.23531" lon="6.87531">
        <ele>861.384</ele>
        <time>2018-08-01T11:59:37Z</time>
      </trkpt>
      <trkpt lat="47.23536" lon="6.87538">
        <ele>860.807</ele>
        <time>2018-08-01T11:59:38Z</time>
      </trkpt>
      <trkpt lat="47.23543" lon="6.87547">
        <ele>860.017</ele>
        <time>2018-08-01T11:59:39Z</time>
      </trkpt>
      <trkpt lat="47.23546" lon="6.87555">
        <ele>859.108</ele>
        <time>2018-08-01T11:59:40Z</time>
      </trkpt>
      <trkpt lat="47.2355" lon="6.87565">
        <ele>858.01</ele>
        <time>2018-08-01T11:59:41Z</time>
      </trkpt>
      <trkpt lat="47.23554" lon="6.87574">
        <ele>856.945</ele>
        <time>2018-08-01T11:59:42Z</time>
      </trkpt>
      <trkpt lat="47.23562" lon="6.87587">
        <ele>855.349</ele>
        <time>2018-08-01T11:59:44Z</time>
      </trkpt>
      <trkpt lat="47.23567" lon="6.87596">
        <ele>854.681</ele>
        <time>2018-08-01T11:59:45Z</time>
      </trkpt>
      <trkpt lat="47.23573" lon="6.87604">
        <ele>854.037</ele>
        <time>2018-08-01T11:59:46Z</time>
      </trkpt>
      <trkpt lat="47.23577" lon="6.87613">
        <ele>854.084</ele>
        <time>2018-08-01T11:59:47Z</time>
      </trkpt>
      <trkpt lat="47.23583" lon="6.87623">
        <ele>853.489</ele>
        <time>2018-08-01T11:59:48Z</time>
      </trkpt>
      <trkpt lat="47.23587" lon="6.8763">
        <ele>852.668</ele>
        <time>2018-08-01T11:59:49Z</time>
      </trkpt>
      <trkpt lat="47.23595" lon="6.87639">
        <ele>851.656</ele>
        <time>2018-08-01T11:59:50Z</time>
      </trkpt>
      <trkpt lat="47.23603" lon="6.87647">
        <ele>850.659</ele>
        <time>2018-08-01T11:59:51Z</time>
      </trkpt>
      <trkpt lat="47.23611" lon="6.87653">
        <ele>849.614</ele>
        <time>2018-08-01T11:59:52Z</time>
      </trkpt>
      <trkpt lat="47.23619" lon="6.8766">
        <ele>848.608</ele>
        <time>2018-08-01T11:59:53Z</time>
      </trkpt>
      <trkpt lat="47.23629" lon="6.87665">
        <ele>847.867</ele>
        <time>2018-08-01T11:59:54Z</time>
      </trkpt>
      <trkpt lat="47.23637" lon="6.87671">
        <ele>846.912</ele>
        <time>2018-08-01T11:59:55Z</time>
      </trkpt>
      <trkpt lat="47.23644" lon="6.87677">
        <ele>846.086</ele>
        <time>2018-08-01T11:59:56Z</time>
      </trkpt>
      <trkpt lat="47.23653" lon="6.87684">
        <ele>845.338</ele>
        <time>2018-08-01T11:59:57Z</time>
      </trkpt>
      <trkpt lat="47.23663" lon="6.8769">
        <ele>844.614</ele>
        <time>2018-08-01T11:59:58Z</time>
      </trkpt>
      <trkpt lat="47.23673" lon="6.87694">
        <ele>843.771</ele>
        <time>2018-08-01T11:59:59Z</time>
      </trkpt>
      <trkpt lat="47.23681" lon="6.87697">
        <ele>843.056</ele>
        <time>2018-08-01T12:00:00Z</time>
      </trkpt>
      <trkpt lat="47.23691" lon="6.87701">
        <ele>842.585</ele>
        <time>2018-08-01T12:00:01Z</time>
      </trkpt>
      <trkpt lat="47.237" lon="6.87704">
        <ele>842.027</ele>
        <time>2018-08-01T12:00:02Z</time>
      </trkpt>
      <trkpt lat="47.23709" lon="6.87706">
        <ele>841.568</ele>
        <time>2018-08-01T12:00:03Z</time>
      </trkpt>
      <trkpt lat="47.23719" lon="6.87709">
        <ele>841.214</ele>
        <time>2018-08-01T12:00:04Z</time>
      </trkpt>
      <trkpt lat="47.23728" lon="6.87712">
        <ele>840.908</ele>
        <time>2018-08-01T12:00:05Z</time>
      </trkpt>
      <trkpt lat="47.23738" lon="6.87716">
        <ele>840.574</ele>
        <time>2018-08-01T12:00:06Z</time>
      </trkpt>
      <trkpt lat="47.23747" lon="6.87719">
        <ele>840.319</ele>
        <time>2018-08-01T12:00:07Z</time>
      </trkpt>
      <trkpt lat="47.23757" lon="6.87723">
        <ele>839.993</ele>
        <time>2018-08-01T12:00:08Z</time>
      </trkpt>
      <trkpt lat="47.23766" lon="6.87727">
        <ele>839.495</ele>
        <time>2018-08-01T12:00:09Z</time>
      </trkpt>
      <trkpt lat="47.23775" lon="6.87731">
        <ele>838.741</ele>
        <time>2018-08-01T12:00:10Z</time>
      </trkpt>
      <trkpt lat="47.23783" lon="6.87735">
        <ele>838.218</ele>
        <time>2018-08-01T12:00:11Z</time>
      </trkpt>
      <trkpt lat="47.2379" lon="6.87738">
        <ele>837.563</ele>
        <time>2018-08-01T12:00:12Z</time>
      </trkpt>
      <trkpt lat="47.23798" lon="6.87741">
        <ele>837.182</ele>
        <time>2018-08-01T12:00:13Z</time>
      </trkpt>
      <trkpt lat="47.23804" lon="6.87745">
        <ele>837.142</ele>
        <time>2018-08-01T12:00:14Z</time>
      </trkpt>
      <trkpt lat="47.23811" lon="6.87746">
        <ele>836.622</ele>
        <time>2018-08-01T12:00:15Z</time>
      </trkpt>
      <trkpt lat="47.23817" lon="6.87748">
        <ele>836.414</ele>
        <time>2018-08-01T12:00:16Z</time>
      </trkpt>
      <trkpt lat="47.23824" lon="6.87752">
        <ele>836.208</ele>
        <time>2018-08-01T12:00:17Z</time>
      </trkpt>
      <trkpt lat="47.23832" lon="6.87758">
        <ele>835.936</ele>
        <time>2018-08-01T12:00:19Z</time>
      </trkpt>
      <trkpt lat="47.23837" lon="6.8776">
        <ele>835.631</ele>
        <time>2018-08-01T12:00:21Z</time>
      </trkpt>
      <trkpt lat="47.23842" lon="6.87763">
        <ele>835.355</ele>
        <time>2018-08-01T12:00:23Z</time>
      </trkpt>
      <trkpt lat="47.23847" lon="6.87766">
        <ele>834.937</ele>
        <time>2018-08-01T12:00:25Z</time>
      </trkpt>
      <trkpt lat="47.23854" lon="6.8777">
        <ele>834.483</ele>
        <time>2018-08-01T12:00:28Z</time>
      </trkpt>
      <trkpt lat="47.23859" lon="6.87773">
        <ele>834.18</ele>
        <time>2018-08-01T12:00:30Z</time>
      </trkpt>
      <trkpt lat="47.23864" lon="6.87774">
        <ele>833.845</ele>
        <time>2018-08-01T12:00:32Z</time>
      </trkpt>
      <trkpt lat="47.23869" lon="6.87777">
        <ele>833.644</ele>
        <time>2018-08-01T12:00:34Z</time>
      </trkpt>
      <trkpt lat="47.23873" lon="6.8778">
        <ele>833.268</ele>
        <time>2018-08-01T12:00:36Z</time>
      </trkpt>
      <trkpt lat="47.23879" lon="6.87784">
        <ele>832.642</ele>
        <time>2018-08-01T12:00:39Z</time>
      </trkpt>
      <trkpt lat="47.23883" lon="6.87787">
        <ele>832.426</ele>
        <time>2018-08-01T12:00:41Z</time>
      </trkpt>
      <trkpt lat="47.23888" lon="6.87791">
        <ele>832.308</ele>
        <time>2018-08-01T12:00:43Z</time>
      </trkpt>
      <trkpt lat="47.23897" lon="6.87796">
        <ele>832.118</ele>
        <time>2018-08-01T12:00:45Z</time>
      </trkpt>
      <trkpt lat="47.23902" lon="6.87802">
        <ele>831.943</ele>
        <time>2018-08-01T12:00:46Z</time>
      </trkpt>
      <trkpt lat="47.23907" lon="6.87806">
        <ele>831.617</ele>
        <time>2018-08-01T12:00:47Z</time>
      </trkpt>
      <trkpt lat="47.23912" lon="6.87811">
        <ele>831.219</ele>
        <time>2018-08-01T12:00:48Z</time>
      </trkpt>
      <trkpt lat="47.23917" lon="6.87816">
        <ele>830.835</ele>
        <time>2018-08-01T12:00:49Z</time>
      </trkpt>
      <trkpt lat="47.23924" lon="6.87821">
        <ele>830.392</ele>
        <time>2018-08-01T12:00:50Z</time>
      </trkpt>
      <trkpt lat="47.2393" lon="6.87825">
        <ele>829.697</ele>
        <time>2018-08-01T12:00:51Z</time>
      </trkpt>
      <trkpt lat="47.23936" lon="6.87831">
        <ele>829.286</ele>
        <time>2018-08-01T12:00:52Z</time>
      </trkpt>
      <trkpt lat="47.23941" lon="6.87832">
        <ele>828.313</ele>
        <time>2018-08-01T12:00:54Z</time>
      </trkpt>
      <trkpt lat="47.23944" lon="6.87838">
        <ele>827.443</ele>
        <time>2018-08-01T12:01:25Z</time>
      </trkpt>
      <trkpt lat="47.23948" lon="6.87841">
        <ele>827.407</ele>
        <time>2018-08-01T12:01:28Z</time>
      </trkpt>
      <trkpt lat="47.23954" lon="6.87848">
        <ele>827.508</ele>
        <time>2018-08-01T12:01:31Z</time>
      </trkpt>
      <trkpt lat="47.2396" lon="6.87852">
        <ele>827.573</ele>
        <time>2018-08-01T12:01:33Z</time>
      </trkpt>
      <trkpt lat="47.23967" lon="6.87857">
        <ele>827.238</ele>
        <time>2018-08-01T12:01:35Z</time>
      </trkpt>
      <trkpt lat="47.23975" lon="6.8786">
        <ele>827.142</ele>
        <time>2018-08-01T12:01:37Z</time>
      </trkpt>
      <trkpt lat="47.23984" lon="6.87863">
        <ele>826.734</ele>
        <time>2018-08-01T12:01:39Z</time>
      </trkpt>
      <trkpt lat="47.23989" lon="6.87863">
        <ele>826.79</ele>
        <time>2018-08-01T12:01:40Z</time>
      </trkpt>
      <trkpt lat="47.23994" lon="6.87864">
        <ele>826.767</ele>
        <time>2018-08-01T12:01:41Z</time>
      </trkpt>
      <trkpt lat="47.23999" lon="6.87864">
        <ele>826.672</ele>
        <time>2018-08-01T12:01:42Z</time>
      </trkpt>
      <trkpt lat="47.24009" lon="6.87864">
        <ele>826.611</ele>
        <time>2018-08-01T12:01:44Z</time>
      </trkpt>
      <trkpt lat="47.24015" lon="6.87863">
        <ele>826.583</ele>
        <time>2018-08-01T12:01:45Z</time>
      </trkpt>
      <trkpt lat="47.24023" lon="6.87861">
        <ele>826.625</ele>
        <time>2018-08-01T12:01:47Z</time>
      </trkpt>
      <trkpt lat="47.24032" lon="6.87858">
        <ele>826.617</ele>
        <time>2018-08-01T12:01:49Z</time>
      </trkpt>
      <trkpt lat="47.24036" lon="6.87857">
        <ele>826.708</ele>
        <time>2018-08-01T12:01:50Z</time>
      </trkpt>
      <trkpt lat="47.24041" lon="6.87857">
        <ele>826.76</ele>
        <time>2018-08-01T12:01:51Z</time>
      </trkpt>
      <trkpt lat="47.24046" lon="6.87855">
        <ele>826.715</ele>
        <time>2018-08-01T12:01:52Z</time>
      </trkpt>
      <trkpt lat="47.2405" lon="6.87852">
        <ele>826.739</ele>
        <time>2018-08-01T12:01:53Z</time>
      </trkpt>
      <trkpt lat="47.24055" lon="6.87851">
        <ele>826.751</ele>
        <time>2018-08-01T12:01:54Z</time>
      </trkpt>
      <trkpt lat="47.24064" lon="6.87849">
        <ele>826.847</ele>
        <time>2018-08-01T12:01:56Z</time>
      </trkpt>
      <trkpt lat="47.24068" lon="6.87847">
        <ele>826.854</ele>
        <time>2018-08-01T12:01:57Z</time>
      </trkpt>
      <trkpt lat="47.24076" lon="6.87844">
        <ele>826.929</ele>
        <time>2018-08-01T12:01:59Z</time>
      </trkpt>
      <trkpt lat="47.24081" lon="6.87842">
        <ele>827.188</ele>
        <time>2018-08-01T12:02:00Z</time>
      </trkpt>
      <trkpt lat="47.24086" lon="6.87843">
        <ele>827.154</ele>
        <time>2018-08-01T12:02:01Z</time>
      </trkpt>
      <trkpt lat="47.24094" lon="6.87842">
        <ele>827.156</ele>
        <time>2018-08-01T12:02:03Z</time>
      </trkpt>
      <trkpt lat="47.24102" lon="6.87842">
        <ele>827.111</ele>
        <time>2018-08-01T12:02:05Z</time>
      </trkpt>
      <trkpt lat="47.2411" lon="6.87841">
        <ele>826.908</ele>
        <time>2018-08-01T12:02:07Z</time>
      </trkpt>
      <trkpt lat="47.24117" lon="6.87839">
        <ele>826.727</ele>
        <time>2018-08-01T12:02:09Z</time>
      </trkpt>
      <trkpt lat="47.24123" lon="6.87839">
        <ele>826.592</ele>
        <time>2018-08-01T12:02:11Z</time>
      </trkpt>
      <trkpt lat="47.24128" lon="6.8784">
        <ele>826.446</ele>
        <time>2018-08-01T12:02:13Z</time>
      </trkpt>
      <trkpt lat="47.24133" lon="6.87843">
        <ele>826.398</ele>
        <time>2018-08-01T12:02:15Z</time>
      </trkpt>
      <trkpt lat="47.24138" lon="6.87845">
        <ele>826.374</ele>
        <time>2018-08-01T12:02:17Z</time>
      </trkpt>
      <trkpt lat="47.24143" lon="6.87846">
        <ele>826.371</ele>
        <time>2018-08-01T12:02:19Z</time>
      </trkpt>
      <trkpt lat="47.24147" lon="6.87841">
        <ele>826.866</ele>
        <time>2018-08-01T12:03:31Z</time>
      </trkpt>
      <trkpt lat="47.24145" lon="6.87835">
        <ele>826.965</ele>
        <time>2018-08-01T12:03:34Z</time>
      </trkpt>
      <trkpt lat="47.2414" lon="6.8784">
        <ele>826.881</ele>
        <time>2018-08-01T12:03:36Z</time>
      </trkpt>
      <trkpt lat="47.24138" lon="6.8785">
        <ele>826.761</ele>
        <time>2018-08-01T12:03:38Z</time>
      </trkpt>
      <trkpt lat="47.24138" lon="6.8786">
        <ele>826.917</ele>
        <time>2018-08-01T12:03:40Z</time>
      </trkpt>
      <trkpt lat="47.2414" lon="6.8787">
        <ele>827.308</ele>
        <time>2018-08-01T12:03:42Z</time>
      </trkpt>
      <trkpt lat="47.24144" lon="6.87879">
        <ele>828.15</ele>
        <time>2018-08-01T12:03:44Z</time>
      </trkpt>
      <trkpt lat="47.24148" lon="6.87887">
        <ele>828.765</ele>
        <time>2018-08-01T12:03:46Z</time>
      </trkpt>
      <trkpt lat="47.24153" lon="6.87896">
        <ele>829.249</ele>
        <time>2018-08-01T12:03:48Z</time>
      </trkpt>
      <trkpt lat="47.24156" lon="6.87904">
        <ele>829.551</ele>
        <time>2018-08-01T12:03:50Z</time>
      </trkpt>
      <trkpt lat="47.24161" lon="6.87911">
        <ele>829.927</ele>
        <time>2018-08-01T12:03:52Z</time>
      </trkpt>
      <trkpt lat="47.24165" lon="6.87918">
        <ele>830.194</ele>
        <time>2018-08-01T12:03:54Z</time>
      </trkpt>
      <trkpt lat="47.2417" lon="6.87926">
        <ele>830.219</ele>
        <time>2018-08-01T12:03:56Z</time>
      </trkpt>
      <trkpt lat="47.24175" lon="6.87934">
        <ele>830.768</ele>
        <time>2018-08-01T12:03:58Z</time>
      </trkpt>
      <trkpt lat="47.2418" lon="6.87941">
        <ele>831.547</ele>
        <time>2018-08-01T12:04:00Z</time>
      </trkpt>
      <trkpt lat="47.24185" lon="6.87948">
        <ele>832.429</ele>
        <time>2018-08-01T12:04:02Z</time>
      </trkpt>
      <trkpt lat="47.2419" lon="6.87956">
        <ele>832.821</ele>
        <time>2018-08-01T12:04:04Z</time>
      </trkpt>
      <trkpt lat="47.24195" lon="6.87964">
        <ele>832.908</ele>
        <time>2018-08-01T12:04:06Z</time>
      </trkpt>
      <trkpt lat="47.24199" lon="6.87971">
        <ele>833.026</ele>
        <time>2018-08-01T12:04:08Z</time>
      </trkpt>
      <trkpt lat="47.24204" lon="6.87979">
        <ele>833.371</ele>
        <time>2018-08-01T12:04:10Z</time>
      </trkpt>
      <trkpt lat="47.24209" lon="6.87986">
        <ele>833.765</ele>
        <time>2018-08-01T12:04:12Z</time>
      </trkpt>
      <trkpt lat="47.24214" lon="6.87994">
        <ele>834.197</ele>
        <time>2018-08-01T12:04:14Z</time>
      </trkpt>
      <trkpt lat="47.24218" lon="6.88001">
        <ele>834.343</ele>
        <time>2018-08-01T12:04:16Z</time>
      </trkpt>
      <trkpt lat="47.24222" lon="6.88009">
        <ele>834.88</ele>
        <time>2018-08-01T12:04:18Z</time>
      </trkpt>
      <trkpt lat="47.24226" lon="6.88016">
        <ele>835.075</ele>
        <time>2018-08-01T12:04:20Z</time>
      </trkpt>
      <trkpt lat="47.2423" lon="6.88024">
        <ele>835.124</ele>
        <time>2018-08-01T12:04:22Z</time>
      </trkpt>
      <trkpt lat="47.24234" lon="6.8803">
        <ele>835.158</ele>
        <time>2018-08-01T12:04:24Z</time>
      </trkpt>
      <trkpt lat="47.24238" lon="6.88034">
        <ele>835.452</ele>
        <time>2018-08-01T12:04:26Z</time>
      </trkpt>
      <trkpt lat="47.24243" lon="6.88038">
        <ele>835.717</ele>
        <time>2018-08-01T12:04:28Z</time>
      </trkpt>
      <trkpt lat="47.24247" lon="6.88043">
        <ele>835.808</ele>
        <time>2018-08-01T12:04:30Z</time>
      </trkpt>
      <trkpt lat="47.24252" lon="6.88049">
        <ele>835.937</ele>
        <time>2018-08-01T12:04:32Z</time>
      </trkpt>
      <trkpt lat="47.24255" lon="6.88056">
        <ele>835.752</ele>
        <time>2018-08-01T12:04:34Z</time>
      </trkpt>
      <trkpt lat="47.2426" lon="6.88064">
        <ele>835.546</ele>
        <time>2018-08-01T12:04:36Z</time>
      </trkpt>
      <trkpt lat="47.24268" lon="6.88072">
        <ele>835.178</ele>
        <time>2018-08-01T12:04:38Z</time>
      </trkpt>
      <trkpt lat="47.24272" lon="6.88078">
        <ele>835.134</ele>
        <time>2018-08-01T12:04:39Z</time>
      </trkpt>
      <trkpt lat="47.24277" lon="6.88084">
        <ele>835.081</ele>
        <time>2018-08-01T12:04:40Z</time>
      </trkpt>
      <trkpt lat="47.24282" lon="6.88088">
        <ele>834.846</ele>
        <time>2018-08-01T12:04:41Z</time>
      </trkpt>
      <trkpt lat="47.24287" lon="6.88094">
        <ele>834.615</ele>
        <time>2018-08-01T12:04:42Z</time>
      </trkpt>
      <trkpt lat="47.24293" lon="6.88099">
        <ele>834.567</ele>
        <time>2018-08-01T12:04:43Z</time>
      </trkpt>
      <trkpt lat="47.24297" lon="6.88105">
        <ele>834.481</ele>
        <time>2018-08-01T12:04:44Z</time>
      </trkpt>
      <trkpt lat="47.24302" lon="6.88111">
        <ele>834.219</ele>
        <time>2018-08-01T12:04:45Z</time>
      </trkpt>
      <trkpt lat="47.24306" lon="6.88117">
        <ele>834.008</ele>
        <time>2018-08-01T12:04:46Z</time>
      </trkpt>
      <trkpt lat="47.2431" lon="6.88123">
        <ele>834.038</ele>
        <time>2018-08-01T12:04:47Z</time>
      </trkpt>
      <trkpt lat="47.24314" lon="6.8813">
        <ele>833.983</ele>
        <time>2018-08-01T12:04:48Z</time>
      </trkpt>
      <trkpt lat="47.24318" lon="6.88136">
        <ele>833.957</ele>
        <time>2018-08-01T12:04:49Z</time>
      </trkpt>
      <trkpt lat="47.2432" lon="6.88144">
        <ele>833.659</ele>
        <time>2018-08-01T12:04:50Z</time>
      </trkpt>
      <trkpt lat="47.24324" lon="6.88152">
        <ele>833.685</ele>
        <time>2018-08-01T12:04:51Z</time>
      </trkpt>
      <trkpt lat="47.24328" lon="6.88158">
        <ele>833.522</ele>
        <time>2018-08-01T12:04:52Z</time>
      </trkpt>
      <trkpt lat="47.24331" lon="6.88164">
        <ele>833.277</ele>
        <time>2018-08-01T12:04:53Z</time>
      </trkpt>
      <trkpt lat="47.24334" lon="6.8817">
        <ele>832.986</ele>
        <time>2018-08-01T12:04:54Z</time>
      </trkpt>
      <trkpt lat="47.24339" lon="6.88182">
        <ele>832.618</ele>
        <time>2018-08-01T12:04:56Z</time>
      </trkpt>
      <trkpt lat="47.24342" lon="6.88188">
        <ele>832.698</ele>
        <time>2018-08-01T12:04:57Z</time>
      </trkpt>
      <trkpt lat="47.24343" lon="6.88194">
        <ele>832.617</ele>
        <time>2018-08-01T12:04:58Z</time>
      </trkpt>
      <trkpt lat="47.24346" lon="6.882">
        <ele>832.708</ele>
        <time>2018-08-01T12:04:59Z</time>
      </trkpt>
      <trkpt lat="47.24353" lon="6.88208">
        <ele>832.793</ele>
        <time>2018-08-01T12:05:01Z</time>
      </trkpt>
      <trkpt lat="47.24358" lon="6.88213">
        <ele>832.688</ele>
        <time>2018-08-01T12:05:02Z</time>
      </trkpt>
      <trkpt lat="47.24362" lon="6.88219">
        <ele>832.582</ele>
        <time>2018-08-01T12:05:03Z</time>
      </trkpt>
      <trkpt lat="47.24365" lon="6.88224">
        <ele>832.434</ele>
        <time>2018-08-01T12:05:04Z</time>
      </trkpt>
      <trkpt lat="47.2437" lon="6.88229">
        <ele>832.32</ele>
        <time>2018-08-01T12:05:05Z</time>
      </trkpt>
      <trkpt lat="47.24374" lon="6.88234">
        <ele>832.147</ele>
        <time>2018-08-01T12:05:06Z</time>
      </trkpt>
      <trkpt lat="47.24378" lon="6.88238">
        <ele>831.982</ele>
        <time>2018-08-01T12:05:07Z</time>
      </trkpt>
      <trkpt lat="47.24383" lon="6.88244">
        <ele>831.731</ele>
        <time>2018-08-01T12:05:08Z</time>
      </trkpt>
      <trkpt lat="47.24387" lon="6.88249">
        <ele>831.467</ele>
        <time>2018-08-01T12:05:09Z</time>
      </trkpt>
      <trkpt lat="47.24393" lon="6.88251">
        <ele>831.181</ele>
        <time>2018-08-01T12:05:10Z</time>
      </trkpt>
      <trkpt lat="47.244" lon="6.88253">
        <ele>830.819</ele>
        <time>2018-08-01T12:05:11Z</time>
      </trkpt>
      <trkpt lat="47.24407" lon="6.88253">
        <ele>830.408</ele>
        <time>2018-08-01T12:05:12Z</time>
      </trkpt>
      <trkpt lat="47.24413" lon="6.88253">
        <ele>830.148</ele>
        <time>2018-08-01T12:05:13Z</time>
      </trkpt>
      <trkpt lat="47.24419" lon="6.88252">
        <ele>829.723</ele>
        <time>2018-08-01T12:05:14Z</time>
      </trkpt>
      <trkpt lat="47.24425" lon="6.88251">
        <ele>829.177</ele>
        <time>2018-08-01T12:05:15Z</time>
      </trkpt>
      <trkpt lat="47.24434" lon="6.88252">
        <ele>827.989</ele>
        <time>2018-08-01T12:05:17Z</time>
      </trkpt>
      <trkpt lat="47.24441" lon="6.8825">
        <ele>827.985</ele>
        <time>2018-08-01T12:05:18Z</time>
      </trkpt>
      <trkpt lat="47.24449" lon="6.88248">
        <ele>827.652</ele>
        <time>2018-08-01T12:05:19Z</time>
      </trkpt>
      <trkpt lat="47.24456" lon="6.88246">
        <ele>827.457</ele>
        <time>2018-08-01T12:05:20Z</time>
      </trkpt>
      <trkpt lat="47.24462" lon="6.88244">
        <ele>827.126</ele>
        <time>2018-08-01T12:05:21Z</time>
      </trkpt>
      <trkpt lat="47.24469" lon="6.88242">
        <ele>826.757</ele>
        <time>2018-08-01T12:05:22Z</time>
      </trkpt>
      <trkpt lat="47.24477" lon="6.88242">
        <ele>826.6</ele>
        <time>2018-08-01T12:05:23Z</time>
      </trkpt>
      <trkpt lat="47.24482" lon="6.88241">
        <ele>826.22</ele>
        <time>2018-08-01T12:05:24Z</time>
      </trkpt>
      <trkpt lat="47.24487" lon="6.88239">
        <ele>825.508</ele>
        <time>2018-08-01T12:05:25Z</time>
      </trkpt>
      <trkpt lat="47.24492" lon="6.88239">
        <ele>825.457</ele>
        <time>2018-08-01T12:05:27Z</time>
      </trkpt>
      <trkpt lat="47.245" lon="6.88241">
        <ele>825.182</ele>
        <time>2018-08-01T12:05:28Z</time>
      </trkpt>
      <trkpt lat="47.24503" lon="6.88246">
        <ele>824.456</ele>
        <time>2018-08-01T12:05:30Z</time>
      </trkpt>
      <trkpt lat="47.24504" lon="6.88254">
        <ele>823.528</ele>
        <time>2018-08-01T12:05:32Z</time>
      </trkpt>
      <trkpt lat="47.24502" lon="6.88261">
        <ele>822.984</ele>
        <time>2018-08-01T12:05:34Z</time>
      </trkpt>
      <trkpt lat="47.24499" lon="6.88271">
        <ele>822.711</ele>
        <time>2018-08-01T12:05:36Z</time>
      </trkpt>
      <trkpt lat="47.24496" lon="6.88279">
        <ele>822.976</ele>
        <time>2018-08-01T12:05:38Z</time>
      </trkpt>
      <trkpt lat="47.24495" lon="6.88289">
        <ele>823.525</ele>
        <time>2018-08-01T12:05:40Z</time>
      </trkpt>
      <trkpt lat="47.24494" lon="6.88298">
        <ele>824.268</ele>
        <time>2018-08-01T12:05:42Z</time>
      </trkpt>
      <trkpt lat="47.24493" lon="6.88308">
        <ele>825.042</ele>
        <time>2018-08-01T12:05:44Z</time>
      </trkpt>
      <trkpt lat="47.24491" lon="6.88317">
        <ele>825.426</ele>
        <time>2018-08-01T12:05:46Z</time>
      </trkpt>
      <trkpt lat="47.24489" lon="6.88328">
        <ele>825.908</ele>
        <time>2018-08-01T12:05:48Z</time>
      </trkpt>
      <trkpt lat="47.24489" lon="6.88339">
        <ele>826.158</ele>
        <time>2018-08-01T12:05:50Z</time>
      </trkpt>
      <trkpt lat="47.2449" lon="6.88351">
        <ele>826.273</ele>
        <time>2018-08-01T12:05:52Z</time>
      </trkpt>
      <trkpt lat="47.24492" lon="6.88363">
        <ele>826.347</ele>
        <time>2018-08-01T12:05:54Z</time>
      </trkpt>
      <trkpt lat="47.24494" lon="6.88375">
        <ele>826.459</ele>
        <time>2018-08-01T12:05:56Z</time>
      </trkpt>
      <trkpt lat="47.24495" lon="6.88387">
        <ele>826.575</ele>
        <time>2018-08-01T12:05:58Z</time>
      </trkpt>
      <trkpt lat="47.24497" lon="6.884">
        <ele>826.662</ele>
        <time>2018-08-01T12:06:00Z</time>
      </trkpt>
      <trkpt lat="47.24499" lon="6.88406">
        <ele>826.937</ele>
        <time>2018-08-01T12:06:01Z</time>
      </trkpt>
      <trkpt lat="47.245" lon="6.88418">
        <ele>827.436</ele>
        <time>2018-08-01T12:06:03Z</time>
      </trkpt>
      <trkpt lat="47.24501" lon="6.88429">
        <ele>827.784</ele>
        <time>2018-08-01T12:06:05Z</time>
      </trkpt>
      <trkpt lat="47.24501" lon="6.88441">
        <ele>827.707</ele>
        <time>2018-08-01T12:06:07Z</time>
      </trkpt>
      <trkpt lat="47.24501" lon="6.88452">
        <ele>827.417</ele>
        <time>2018-08-01T12:06:09Z</time>
      </trkpt>
      <trkpt lat="47.24501" lon="6.88461">
        <ele>827.508</ele>
        <time>2018-08-01T12:06:11Z</time>
      </trkpt>
      <trkpt lat="47.24501" lon="6.88469">
        <ele>827.62</ele>
        <time>2018-08-01T12:06:13Z</time>
      </trkpt>
      <trkpt lat="47.24501" lon="6.88479">
        <ele>827.775</ele>
        <time>2018-08-01T12:06:15Z</time>
      </trkpt>
      <trkpt lat="47.245" lon="6.88489">
        <ele>827.889</ele>
        <time>2018-08-01T12:06:17Z</time>
      </trkpt>
      <trkpt lat="47.24502" lon="6.88501">
        <ele>828.231</ele>
        <time>2018-08-01T12:06:19Z</time>
      </trkpt>
      <trkpt lat="47.24504" lon="6.88514">
        <ele>828.717</ele>
        <time>2018-08-01T12:06:21Z</time>
      </trkpt>
      <trkpt lat="47.24506" lon="6.8852">
        <ele>828.964</ele>
        <time>2018-08-01T12:06:22Z</time>
      </trkpt>
      <trkpt lat="47.24508" lon="6.88532">
        <ele>829.159</ele>
        <time>2018-08-01T12:06:24Z</time>
      </trkpt>
      <trkpt lat="47.2451" lon="6.88543">
        <ele>829.228</ele>
        <time>2018-08-01T12:06:26Z</time>
      </trkpt>
      <trkpt lat="47.24513" lon="6.88553">
        <ele>829.548</ele>
        <time>2018-08-01T12:06:28Z</time>
      </trkpt>
      <trkpt lat="47.24516" lon="6.88559">
        <ele>829.861</ele>
        <time>2018-08-01T12:06:30Z</time>
      </trkpt>
      <trkpt lat="47.2452" lon="6.88565">
        <ele>830.217</ele>
        <time>2018-08-01T12:06:32Z</time>
      </trkpt>
      <trkpt lat="47.24523" lon="6.88571">
        <ele>830.408</ele>
        <time>2018-08-01T12:06:34Z</time>
      </trkpt>
      <trkpt lat="47.24526" lon="6.88575">
        <ele>830.886</ele>
        <time>2018-08-01T12:06:36Z</time>
      </trkpt>
      <trkpt lat="47.2453" lon="6.8858">
        <ele>831.281</ele>
        <time>2018-08-01T12:06:38Z</time>
      </trkpt>
      <trkpt lat="47.24535" lon="6.88585">
        <ele>831.635</ele>
        <time>2018-08-01T12:06:40Z</time>
      </trkpt>
      <trkpt lat="47.24538" lon="6.88588">
        <ele>831.727</ele>
        <time>2018-08-01T12:06:42Z</time>
      </trkpt>
      <trkpt lat="47.24543" lon="6.88592">
        <ele>831.923</ele>
        <time>2018-08-01T12:06:44Z</time>
      </trkpt>
      <trkpt lat="47.24547" lon="6.88597">
        <ele>832.24</ele>
        <time>2018-08-01T12:06:46Z</time>
      </trkpt>
      <trkpt lat="47.2455" lon="6.88603">
        <ele>832.595</ele>
        <time>2018-08-01T12:06:48Z</time>
      </trkpt>
      <trkpt lat="47.24553" lon="6.8861">
        <ele>832.874</ele>
        <time>2018-08-01T12:06:50Z</time>
      </trkpt>
      <trkpt lat="47.24554" lon="6.88617">
        <ele>833.147</ele>
        <time>2018-08-01T12:06:52Z</time>
      </trkpt>
      <trkpt lat="47.24556" lon="6.88626">
        <ele>833.429</ele>
        <time>2018-08-01T12:06:54Z</time>
      </trkpt>
      <trkpt lat="47.24556" lon="6.88635">
        <ele>833.721</ele>
        <time>2018-08-01T12:06:56Z</time>
      </trkpt>
      <trkpt lat="47.24555" lon="6.88643">
        <ele>834.008</ele>
        <time>2018-08-01T12:06:58Z</time>
      </trkpt>
      <trkpt lat="47.24552" lon="6.8865">
        <ele>834.666</ele>
        <time>2018-08-01T12:07:00Z</time>
      </trkpt>
      <trkpt lat="47.24548" lon="6.88659">
        <ele>835.271</ele>
        <time>2018-08-01T12:07:02Z</time>
      </trkpt>
      <trkpt lat="47.24542" lon="6.88665">
        <ele>835.985</ele>
        <time>2018-08-01T12:07:04Z</time>
      </trkpt>
      <trkpt lat="47.24536" lon="6.8867">
        <ele>836.617</ele>
        <time>2018-08-01T12:07:06Z</time>
      </trkpt>
      <trkpt lat="47.2453" lon="6.88673">
        <ele>837.363</ele>
        <time>2018-08-01T12:07:08Z</time>
      </trkpt>
      <trkpt lat="47.24524" lon="6.88675">
        <ele>837.67</ele>
        <time>2018-08-01T12:07:10Z</time>
      </trkpt>
      <trkpt lat="47.24519" lon="6.88678">
        <ele>838.125</ele>
        <time>2018-08-01T12:07:12Z</time>
      </trkpt>
      <trkpt lat="47.24513" lon="6.88681">
        <ele>838.514</ele>
        <time>2018-08-01T12:07:14Z</time>
      </trkpt>
      <trkpt lat="47.24507" lon="6.88683">
        <ele>838.962</ele>
        <time>2018-08-01T12:07:16Z</time>
      </trkpt>
      <trkpt lat="47.24502" lon="6.88687">
        <ele>839.383</ele>
        <time>2018-08-01T12:07:18Z</time>
      </trkpt>
      <trkpt lat="47.24499" lon="6.88694">
        <ele>839.711</ele>
        <time>2018-08-01T12:07:20Z</time>
      </trkpt>
      <trkpt lat="47.24502" lon="6.88699">
        <ele>840.108</ele>
        <time>2018-08-01T12:07:22Z</time>
      </trkpt>
      <trkpt lat="47.24509" lon="6.88699">
        <ele>840.728</ele>
        <time>2018-08-01T12:07:24Z</time>
      </trkpt>
      <trkpt lat="47.24516" lon="6.88697">
        <ele>841.443</ele>
        <time>2018-08-01T12:07:26Z</time>
      </trkpt>
      <trkpt lat="47.2452" lon="6.88696">
        <ele>842.137</ele>
        <time>2018-08-01T12:07:28Z</time>
      </trkpt>
      <trkpt lat="47.24525" lon="6.88695">
        <ele>842.829</ele>
        <time>2018-08-01T12:07:30Z</time>
      </trkpt>
      <trkpt lat="47.24531" lon="6.88694">
        <ele>843.755</ele>
        <time>2018-08-01T12:07:33Z</time>
      </trkpt>
      <trkpt lat="47.24537" lon="6.88695">
        <ele>844.322</ele>
        <time>2018-08-01T12:07:35Z</time>
      </trkpt>
      <trkpt lat="47.24543" lon="6.88697">
        <ele>844.687</ele>
        <time>2018-08-01T12:07:37Z</time>
      </trkpt>
      <trkpt lat="47.24549" lon="6.88698">
        <ele>845.336</ele>
        <time>2018-08-01T12:07:39Z</time>
      </trkpt>
      <trkpt lat="47.24554" lon="6.887">
        <ele>846.177</ele>
        <time>2018-08-01T12:07:41Z</time>
      </trkpt>
      <trkpt lat="47.2456" lon="6.88703">
        <ele>846.861</ele>
        <time>2018-08-01T12:07:43Z</time>
      </trkpt>
      <trkpt lat="47.24565" lon="6.88707">
        <ele>847.327</ele>
        <time>2018-08-01T12:07:45Z</time>
      </trkpt>
      <trkpt lat="47.2457" lon="6.88713">
        <ele>848.308</ele>
        <time>2018-08-01T12:07:48Z</time>
      </trkpt>
      <trkpt lat="47.24574" lon="6.88719">
        <ele>849.059</ele>
        <time>2018-08-01T12:07:50Z</time>
      </trkpt>
      <trkpt lat="47.24577" lon="6.88724">
        <ele>849.624</ele>
        <time>2018-08-01T12:07:52Z</time>
      </trkpt>
      <trkpt lat="47.24581" lon="6.8873">
        <ele>850.278</ele>
        <time>2018-08-01T12:07:54Z</time>
      </trkpt>
      <trkpt lat="47.24585" lon="6.88736">
        <ele>850.81</ele>
        <time>2018-08-01T12:07:56Z</time>
      </trkpt>
      <trkpt lat="47.24588" lon="6.88741">
        <ele>851.426</ele>
        <time>2018-08-01T12:07:58Z</time>
      </trkpt>
      <trkpt lat="47.24593" lon="6.88748">
        <ele>852.683</ele>
        <time>2018-08-01T12:08:01Z</time>
      </trkpt>
      <trkpt lat="47.24596" lon="6.88753">
        <ele>853.348</ele>
        <time>2018-08-01T12:08:04Z</time>
      </trkpt>
      <trkpt lat="47.24601" lon="6.88759">
        <ele>854.317</ele>
        <time>2018-08-01T12:08:07Z</time>
      </trkpt>
      <trkpt lat="47.24604" lon="6.88764">
        <ele>855.153</ele>
        <time>2018-08-01T12:08:09Z</time>
      </trkpt>
      <trkpt lat="47.24608" lon="6.88769">
        <ele>855.804</ele>
        <time>2018-08-01T12:08:11Z</time>
      </trkpt>
      <trkpt lat="47.24611" lon="6.88774">
        <ele>856.514</ele>
        <time>2018-08-01T12:08:13Z</time>
      </trkpt>
      <trkpt lat="47.24616" lon="6.88778">
        <ele>857.108</ele>
        <time>2018-08-01T12:08:15Z</time>
      </trkpt>
      <trkpt lat="47.24619" lon="6.88782">
        <ele>857.887</ele>
        <time>2018-08-01T12:08:17Z</time>
      </trkpt>
      <trkpt lat="47.24625" lon="6.88787">
        <ele>858.852</ele>
        <time>2018-08-01T12:08:20Z</time>
      </trkpt>
      <trkpt lat="47.2463" lon="6.88793">
        <ele>859.776</ele>
        <time>2018-08-01T12:08:23Z</time>
      </trkpt>
      <trkpt lat="47.24634" lon="6.88798">
        <ele>860.258</ele>
        <time>2018-08-01T12:08:25Z</time>
      </trkpt>
      <trkpt lat="47.24638" lon="6.88803">
        <ele>860.684</ele>
        <time>2018-08-01T12:08:27Z</time>
      </trkpt>
      <trkpt lat="47.24642" lon="6.88807">
        <ele>860.931</ele>
        <time>2018-08-01T12:08:29Z</time>
      </trkpt>
      <trkpt lat="47.24646" lon="6.88812">
        <ele>861.196</ele>
        <time>2018-08-01T12:08:31Z</time>
      </trkpt>
      <trkpt lat="47.24649" lon="6.88818">
        <ele>861.515</ele>
        <time>2018-08-01T12:08:33Z</time>
      </trkpt>
      <trkpt lat="47.24655" lon="6.88823">
        <ele>862.395</ele>
        <time>2018-08-01T12:08:36Z</time>
      </trkpt>
      <trkpt lat="47.24661" lon="6.88827">
        <ele>862.649</ele>
        <time>2018-08-01T12:08:38Z</time>
      </trkpt>
      <trkpt lat="47.24668" lon="6.88832">
        <ele>862.623</ele>
        <time>2018-08-01T12:08:40Z</time>
      </trkpt>
      <trkpt lat="47.24674" lon="6.88837">
        <ele>862.608</ele>
        <time>2018-08-01T12:08:42Z</time>
      </trkpt>
      <trkpt lat="47.2468" lon="6.88842">
        <ele>862.641</ele>
        <time>2018-08-01T12:08:44Z</time>
      </trkpt>
      <trkpt lat="47.24685" lon="6.88847">
        <ele>862.756</ele>
        <time>2018-08-01T12:08:46Z</time>
      </trkpt>
      <trkpt lat="47.24693" lon="6.88852">
        <ele>862.69</ele>
        <time>2018-08-01T12:08:48Z</time>
      </trkpt>
      <trkpt lat="47.24697" lon="6.88855">
        <ele>862.532</ele>
        <time>2018-08-01T12:08:49Z</time>
      </trkpt>
      <trkpt lat="47.24705" lon="6.8886">
        <ele>862.068</ele>
        <time>2018-08-01T12:08:51Z</time>
      </trkpt>
      <trkpt lat="47.24712" lon="6.88868">
        <ele>861.545</ele>
        <time>2018-08-01T12:08:53Z</time>
      </trkpt>
      <trkpt lat="47.24716" lon="6.88879">
        <ele>861.35</ele>
        <time>2018-08-01T12:08:55Z</time>
      </trkpt>
      <trkpt lat="47.24719" lon="6.88889">
        <ele>861.329</ele>
        <time>2018-08-01T12:08:57Z</time>
      </trkpt>
      <trkpt lat="47.24722" lon="6.88897">
        <ele>861.346</ele>
        <time>2018-08-01T12:08:59Z</time>
      </trkpt>
      <trkpt lat="47.24723" lon="6.88904">
        <ele>861.188</ele>
        <time>2018-08-01T12:09:01Z</time>
      </trkpt>
      <trkpt lat="47.24724" lon="6.88914">
        <ele>860.716</ele>
        <time>2018-08-01T12:09:04Z</time>
      </trkpt>
      <trkpt lat="47.24725" lon="6.88921">
        <ele>860.508</ele>
        <time>2018-08-01T12:09:06Z</time>
      </trkpt>
      <trkpt lat="47.24726" lon="6.8893">
        <ele>860.426</ele>
        <time>2018-08-01T12:09:08Z</time>
      </trkpt>
      <trkpt lat="47.24726" lon="6.88938">
        <ele>860.281</ele>
        <time>2018-08-01T12:09:10Z</time>
      </trkpt>
      <trkpt lat="47.24727" lon="6.88946">
        <ele>860.155</ele>
        <time>2018-08-01T12:09:12Z</time>
      </trkpt>
      <trkpt lat="47.24727" lon="6.88954">
        <ele>859.947</ele>
        <time>2018-08-01T12:09:14Z</time>
      </trkpt>
      <trkpt lat="47.24729" lon="6.88963">
        <ele>859.773</ele>
        <time>2018-08-01T12:09:16Z</time>
      </trkpt>
      <trkpt lat="47.2473" lon="6.88971">
        <ele>859.58</ele>
        <time>2018-08-01T12:09:18Z</time>
      </trkpt>
      <trkpt lat="47.24732" lon="6.88979">
        <ele>859.215</ele>
        <time>2018-08-01T12:09:21Z</time>
      </trkpt>
      <trkpt lat="47.24736" lon="6.88986">
        <ele>859.054</ele>
        <time>2018-08-01T12:09:23Z</time>
      </trkpt>
      <trkpt lat="47.24739" lon="6.88992">
        <ele>858.821</ele>
        <time>2018-08-01T12:09:25Z</time>
      </trkpt>
      <trkpt lat="47.24741" lon="6.88998">
        <ele>858.741</ele>
        <time>2018-08-01T12:09:27Z</time>
      </trkpt>
      <trkpt lat="47.24743" lon="6.89006">
        <ele>858.505</ele>
        <time>2018-08-01T12:09:29Z</time>
      </trkpt>
      <trkpt lat="47.24745" lon="6.89018">
        <ele>857.908</ele>
        <time>2018-08-01T12:09:31Z</time>
      </trkpt>
      <trkpt lat="47.24747" lon="6.89025">
        <ele>857.534</ele>
        <time>2018-08-01T12:09:32Z</time>
      </trkpt>
      <trkpt lat="47.24748" lon="6.89032">
        <ele>857.189</ele>
        <time>2018-08-01T12:09:33Z</time>
      </trkpt>
      <trkpt lat="47.24748" lon="6.89039">
        <ele>856.623</ele>
        <time>2018-08-01T12:09:34Z</time>
      </trkpt>
      <trkpt lat="47.24749" lon="6.89051">
        <ele>856.045</ele>
        <time>2018-08-01T12:09:36Z</time>
      </trkpt>
      <trkpt lat="47.24749" lon="6.89065">
        <ele>855.581</ele>
        <time>2018-08-01T12:09:38Z</time>
      </trkpt>
      <trkpt lat="47.2475" lon="6.89072">
        <ele>855.378</ele>
        <time>2018-08-01T12:09:39Z</time>
      </trkpt>
      <trkpt lat="47.24751" lon="6.89084">
        <ele>855.093</ele>
        <time>2018-08-01T12:09:41Z</time>
      </trkpt>
      <trkpt lat="47.24754" lon="6.89096">
        <ele>854.862</ele>
        <time>2018-08-01T12:09:43Z</time>
      </trkpt>
      <trkpt lat="47.24758" lon="6.89106">
        <ele>854.837</ele>
        <time>2018-08-01T12:09:45Z</time>
      </trkpt>
      <trkpt lat="47.24763" lon="6.89115">
        <ele>854.849</ele>
        <time>2018-08-01T12:09:47Z</time>
      </trkpt>
      <trkpt lat="47.24768" lon="6.89123">
        <ele>854.713</ele>
        <time>2018-08-01T12:09:49Z</time>
      </trkpt>
      <trkpt lat="47.24772" lon="6.89131">
        <ele>854.608</ele>
        <time>2018-08-01T12:09:51Z</time>
      </trkpt>
      <trkpt lat="47.24776" lon="6.89139">
        <ele>854.625</ele>
        <time>2018-08-01T12:09:53Z</time>
      </trkpt>
      <trkpt lat="47.24781" lon="6.89145">
        <ele>854.43</ele>
        <time>2018-08-01T12:09:56Z</time>
      </trkpt>
      <trkpt lat="47.24785" lon="6.89148">
        <ele>854.344</ele>
        <time>2018-08-01T12:09:58Z</time>
      </trkpt>
      <trkpt lat="47.24789" lon="6.89152">
        <ele>854.226</ele>
        <time>2018-08-01T12:10:00Z</time>
      </trkpt>
      <trkpt lat="47.24793" lon="6.89158">
        <ele>854.162</ele>
        <time>2018-08-01T12:10:02Z</time>
      </trkpt>
      <trkpt lat="47.24796" lon="6.89164">
        <ele>854.169</ele>
        <time>2018-08-01T12:10:04Z</time>
      </trkpt>
      <trkpt lat="47.248" lon="6.89171">
        <ele>854.164</ele>
        <time>2018-08-01T12:10:06Z</time>
      </trkpt>
      <trkpt lat="47.24804" lon="6.89178">
        <ele>853.983</ele>
        <time>2018-08-01T12:10:08Z</time>
      </trkpt>
      <trkpt lat="47.24807" lon="6.89185">
        <ele>853.772</ele>
        <time>2018-08-01T12:10:10Z</time>
      </trkpt>
      <trkpt lat="47.2481" lon="6.89191">
        <ele>853.613</ele>
        <time>2018-08-01T12:10:14Z</time>
      </trkpt>
      <trkpt lat="47.24814" lon="6.89197">
        <ele>853.614</ele>
        <time>2018-08-01T12:10:16Z</time>
      </trkpt>
      <trkpt lat="47.2482" lon="6.89204">
        <ele>853.608</ele>
        <time>2018-08-01T12:10:18Z</time>
      </trkpt>
      <trkpt lat="47.24826" lon="6.8921">
        <ele>853.669</ele>
        <time>2018-08-01T12:10:20Z</time>
      </trkpt>
      <trkpt lat="47.24832" lon="6.89219">
        <ele>853.774</ele>
        <time>2018-08-01T12:10:22Z</time>
      </trkpt>
      <trkpt lat="47.24837" lon="6.89227">
        <ele>853.728</ele>
        <time>2018-08-01T12:10:24Z</time>
      </trkpt>
      <trkpt lat="47.24841" lon="6.89234">
        <ele>853.81</ele>
        <time>2018-08-01T12:10:26Z</time>
      </trkpt>
      <trkpt lat="47.24845" lon="6.89241">
        <ele>853.826</ele>
        <time>2018-08-01T12:10:28Z</time>
      </trkpt>
      <trkpt lat="47.2485" lon="6.89248">
        <ele>853.993</ele>
        <time>2018-08-01T12:10:30Z</time>
      </trkpt>
      <trkpt lat="47.24856" lon="6.89256">
        <ele>853.928</ele>
        <time>2018-08-01T12:10:32Z</time>
      </trkpt>
      <trkpt lat="47.24863" lon="6.89263">
        <ele>853.927</ele>
        <time>2018-08-01T12:10:34Z</time>
      </trkpt>
      <trkpt lat="47.24871" lon="6.89269">
        <ele>853.924</ele>
        <time>2018-08-01T12:10:36Z</time>
      </trkpt>
      <trkpt lat="47.24877" lon="6.89276">
        <ele>854.004</ele>
        <time>2018-08-01T12:10:38Z</time>
      </trkpt>
      <trkpt lat="47.24881" lon="6.89281">
        <ele>854.114</ele>
        <time>2018-08-01T12:10:39Z</time>
      </trkpt>
      <trkpt lat="47.24885" lon="6.89286">
        <ele>854.108</ele>
        <time>2018-08-01T12:10:40Z</time>
      </trkpt>
      <trkpt lat="47.2489" lon="6.89295">
        <ele>854.114</ele>
        <time>2018-08-01T12:10:42Z</time>
      </trkpt>
      <trkpt lat="47.24893" lon="6.89305">
        <ele>854.119</ele>
        <time>2018-08-01T12:10:44Z</time>
      </trkpt>
      <trkpt lat="47.24894" lon="6.89315">
        <ele>854.143</ele>
        <time>2018-08-01T12:10:46Z</time>
      </trkpt>
      <trkpt lat="47.24893" lon="6.89325">
        <ele>854.355</ele>
        <time>2018-08-01T12:10:48Z</time>
      </trkpt>
      <trkpt lat="47.24891" lon="6.89335">
        <ele>854.541</ele>
        <time>2018-08-01T12:10:50Z</time>
      </trkpt>
      <trkpt lat="47.24893" lon="6.89345">
        <ele>855.188</ele>
        <time>2018-08-01T12:10:52Z</time>
      </trkpt>
      <trkpt lat="47.24895" lon="6.89354">
        <ele>855.783</ele>
        <time>2018-08-01T12:10:54Z</time>
      </trkpt>
      <trkpt lat="47.24898" lon="6.89365">
        <ele>856.172</ele>
        <time>2018-08-01T12:10:56Z</time>
      </trkpt>
      <trkpt lat="47.24901" lon="6.89376">
        <ele>856.376</ele>
        <time>2018-08-01T12:10:58Z</time>
      </trkpt>
      <trkpt lat="47.24904" lon="6.89388">
        <ele>856.79</ele>
        <time>2018-08-01T12:11:00Z</time>
      </trkpt>
      <trkpt lat="47.24908" lon="6.89398">
        <ele>857.119</ele>
        <time>2018-08-01T12:11:02Z</time>
      </trkpt>
      <trkpt lat="47.2491" lon="6.89405">
        <ele>857.308</ele>
        <time>2018-08-01T12:11:04Z</time>
      </trkpt>
      <trkpt lat="47.24913" lon="6.89413">
        <ele>857.549</ele>
        <time>2018-08-01T12:11:06Z</time>
      </trkpt>
      <trkpt lat="47.24915" lon="6.8942">
        <ele>857.714</ele>
        <time>2018-08-01T12:11:08Z</time>
      </trkpt>
      <trkpt lat="47.24919" lon="6.8943">
        <ele>858.068</ele>
        <time>2018-08-01T12:11:11Z</time>
      </trkpt>
      <trkpt lat="47.24924" lon="6.89437">
        <ele>858.03</ele>
        <time>2018-08-01T12:11:13Z</time>
      </trkpt>
      <trkpt lat="47.24931" lon="6.89446">
        <ele>857.866</ele>
        <time>2018-08-01T12:11:15Z</time>
      </trkpt>
      <trkpt lat="47.24935" lon="6.8945">
        <ele>857.893</ele>
        <time>2018-08-01T12:11:16Z</time>
      </trkpt>
      <trkpt lat="47.2494" lon="6.89458">
        <ele>857.548</ele>
        <time>2018-08-01T12:11:18Z</time>
      </trkpt>
      <trkpt lat="47.24945" lon="6.89466">
        <ele>857.357</ele>
        <time>2018-08-01T12:11:20Z</time>
      </trkpt>
      <trkpt lat="47.24951" lon="6.89476">
        <ele>857.323</ele>
        <time>2018-08-01T12:11:22Z</time>
      </trkpt>
      <trkpt lat="47.24955" lon="6.89487">
        <ele>857.483</ele>
        <time>2018-08-01T12:11:24Z</time>
      </trkpt>
      <trkpt lat="47.24957" lon="6.89494">
        <ele>857.511</ele>
        <time>2018-08-01T12:11:25Z</time>
      </trkpt>
      <trkpt lat="47.24959" lon="6.89501">
        <ele>857.608</ele>
        <time>2018-08-01T12:11:26Z</time>
      </trkpt>
      <trkpt lat="47.24961" lon="6.89507">
        <ele>857.784</ele>
        <time>2018-08-01T12:11:27Z</time>
      </trkpt>
      <trkpt lat="47.24965" lon="6.89518">
        <ele>858.169</ele>
        <time>2018-08-01T12:11:29Z</time>
      </trkpt>
      <trkpt lat="47.24967" lon="6.89523">
        <ele>858.263</ele>
        <time>2018-08-01T12:11:30Z</time>
      </trkpt>
      <trkpt lat="47.24971" lon="6.89533">
        <ele>858.525</ele>
        <time>2018-08-01T12:11:32Z</time>
      </trkpt>
      <trkpt lat="47.24974" lon="6.89545">
        <ele>858.671</ele>
        <time>2018-08-01T12:11:34Z</time>
      </trkpt>
      <trkpt lat="47.24976" lon="6.89554">
        <ele>858.978</ele>
        <time>2018-08-01T12:11:36Z</time>
      </trkpt>
      <trkpt lat="47.24979" lon="6.89564">
        <ele>859.363</ele>
        <time>2018-08-01T12:11:38Z</time>
      </trkpt>
      <trkpt lat="47.2498" lon="6.89573">
        <ele>859.892</ele>
        <time>2018-08-01T12:11:40Z</time>
      </trkpt>
      <trkpt lat="47.24979" lon="6.89585">
        <ele>860.313</ele>
        <time>2018-08-01T12:11:42Z</time>
      </trkpt>
      <trkpt lat="47.2498" lon="6.89596">
        <ele>860.643</ele>
        <time>2018-08-01T12:11:44Z</time>
      </trkpt>
      <trkpt lat="47.24981" lon="6.89606">
        <ele>861.107</ele>
        <time>2018-08-01T12:11:46Z</time>
      </trkpt>
      <trkpt lat="47.24982" lon="6.89616">
        <ele>861.508</ele>
        <time>2018-08-01T12:11:48Z</time>
      </trkpt>
      <trkpt lat="47.24984" lon="6.89627">
        <ele>861.933</ele>
        <time>2018-08-01T12:11:50Z</time>
      </trkpt>
      <trkpt lat="47.24986" lon="6.89635">
        <ele>862.268</ele>
        <time>2018-08-01T12:11:52Z</time>
      </trkpt>
      <trkpt lat="47.24989" lon="6.89643">
        <ele>862.442</ele>
        <time>2018-08-01T12:11:54Z</time>
      </trkpt>
      <trkpt lat="47.24993" lon="6.89651">
        <ele>862.564</ele>
        <time>2018-08-01T12:11:56Z</time>
      </trkpt>
      <trkpt lat="47.24997" lon="6.8966">
        <ele>862.54</ele>
        <time>2018-08-01T12:11:58Z</time>
      </trkpt>
      <trkpt lat="47.25" lon="6.89671">
        <ele>862.257</ele>
        <time>2018-08-01T12:12:00Z</time>
      </trkpt>
      <trkpt lat="47.25004" lon="6.89682">
        <ele>862.082</ele>
        <time>2018-08-01T12:12:01Z</time>
      </trkpt>
      <trkpt lat="47.25005" lon="6.8969">
        <ele>861.631</ele>
        <time>2018-08-01T12:12:02Z</time>
      </trkpt>
      <trkpt lat="47.25008" lon="6.89698">
        <ele>861.265</ele>
        <time>2018-08-01T12:12:03Z</time>
      </trkpt>
      <trkpt lat="47.25009" lon="6.89707">
        <ele>860.868</ele>
        <time>2018-08-01T12:12:04Z</time>
      </trkpt>
      <trkpt lat="47.25011" lon="6.89717">
        <ele>860.214</ele>
        <time>2018-08-01T12:12:05Z</time>
      </trkpt>
      <trkpt lat="47.25015" lon="6.89722">
        <ele>859.808</ele>
        <time>2018-08-01T12:12:06Z</time>
      </trkpt>
      <trkpt lat="47.25019" lon="6.89732">
        <ele>859.528</ele>
        <time>2018-08-01T12:12:07Z</time>
      </trkpt>
      <trkpt lat="47.25024" lon="6.89741">
        <ele>859.553</ele>
        <time>2018-08-01T12:12:09Z</time>
      </trkpt>
      <trkpt lat="47.25028" lon="6.89748">
        <ele>859.957</ele>
        <time>2018-08-01T12:12:11Z</time>
      </trkpt>
      <trkpt lat="47.25034" lon="6.89757">
        <ele>860.419</ele>
        <time>2018-08-01T12:12:13Z</time>
      </trkpt>
      <trkpt lat="47.2504" lon="6.8976">
        <ele>860.725</ele>
        <time>2018-08-01T12:12:14Z</time>
      </trkpt>
      <trkpt lat="47.25046" lon="6.89766">
        <ele>860.972</ele>
        <time>2018-08-01T12:12:16Z</time>
      </trkpt>
      <trkpt lat="47.25052" lon="6.8977">
        <ele>861.077</ele>
        <time>2018-08-01T12:12:18Z</time>
      </trkpt>
      <trkpt lat="47.25058" lon="6.89776">
        <ele>860.956</ele>
        <time>2018-08-01T12:12:20Z</time>
      </trkpt>
      <trkpt lat="47.25064" lon="6.89782">
        <ele>860.777</ele>
        <time>2018-08-01T12:12:22Z</time>
      </trkpt>
      <trkpt lat="47.25068" lon="6.89788">
        <ele>860.661</ele>
        <time>2018-08-01T12:12:23Z</time>
      </trkpt>
      <trkpt lat="47.25071" lon="6.89793">
        <ele>860.627</ele>
        <time>2018-08-01T12:12:24Z</time>
      </trkpt>
      <trkpt lat="47.25075" lon="6.89802">
        <ele>860.608</ele>
        <time>2018-08-01T12:12:26Z</time>
      </trkpt>
      <trkpt lat="47.25078" lon="6.89814">
        <ele>861.099</ele>
        <time>2018-08-01T12:12:28Z</time>
      </trkpt>
      <trkpt lat="47.25082" lon="6.89823">
        <ele>861.484</ele>
        <time>2018-08-01T12:12:30Z</time>
      </trkpt>
      <trkpt lat="47.25085" lon="6.89832">
        <ele>861.868</ele>
        <time>2018-08-01T12:12:32Z</time>
      </trkpt>
      <trkpt lat="47.25089" lon="6.89841">
        <ele>862.05</ele>
        <time>2018-08-01T12:12:34Z</time>
      </trkpt>
      <trkpt lat="47.25093" lon="6.8985">
        <ele>862.176</ele>
        <time>2018-08-01T12:12:36Z</time>
      </trkpt>
      <trkpt lat="47.25098" lon="6.89859">
        <ele>862.263</ele>
        <time>2018-08-01T12:12:38Z</time>
      </trkpt>
      <trkpt lat="47.25101" lon="6.89864">
        <ele>862.298</ele>
        <time>2018-08-01T12:12:39Z</time>
      </trkpt>
      <trkpt lat="47.25107" lon="6.89873">
        <ele>862.327</ele>
        <time>2018-08-01T12:12:41Z</time>
      </trkpt>
      <trkpt lat="47.2511" lon="6.89881">
        <ele>862.321</ele>
        <time>2018-08-01T12:12:43Z</time>
      </trkpt>
      <trkpt lat="47.25113" lon="6.89887">
        <ele>862.441</ele>
        <time>2018-08-01T12:12:45Z</time>
      </trkpt>
      <trkpt lat="47.25116" lon="6.89896">
        <ele>862.405</ele>
        <time>2018-08-01T12:12:48Z</time>
      </trkpt>
      <trkpt lat="47.25119" lon="6.89901">
        <ele>862.408</ele>
        <time>2018-08-01T12:12:50Z</time>
      </trkpt>
      <trkpt lat="47.25122" lon="6.89908">
        <ele>862.474</ele>
        <time>2018-08-01T12:12:53Z</time>
      </trkpt>
      <trkpt lat="47.25125" lon="6.89915">
        <ele>862.319</ele>
        <time>2018-08-01T12:12:56Z</time>
      </trkpt>
      <trkpt lat="47.25128" lon="6.8992">
        <ele>862.243</ele>
        <time>2018-08-01T12:12:58Z</time>
      </trkpt>
      <trkpt lat="47.25132" lon="6.89926">
        <ele>861.945</ele>
        <time>2018-08-01T12:13:00Z</time>
      </trkpt>
      <trkpt lat="47.25135" lon="6.89933">
        <ele>861.471</ele>
        <time>2018-08-01T12:13:02Z</time>
      </trkpt>
      <trkpt lat="47.25138" lon="6.8994">
        <ele>860.738</ele>
        <time>2018-08-01T12:13:04Z</time>
      </trkpt>
      <trkpt lat="47.25143" lon="6.89951">
        <ele>860.063</ele>
        <time>2018-08-01T12:13:06Z</time>
      </trkpt>
      <trkpt lat="47.25148" lon="6.89961">
        <ele>859.752</ele>
        <time>2018-08-01T12:13:08Z</time>
      </trkpt>
      <trkpt lat="47.25152" lon="6.8997">
        <ele>859.224</ele>
        <time>2018-08-01T12:13:10Z</time>
      </trkpt>
      <trkpt lat="47.25154" lon="6.8998">
        <ele>858.704</ele>
        <time>2018-08-01T12:13:13Z</time>
      </trkpt>
      <trkpt lat="47.25155" lon="6.89987">
        <ele>858.314</ele>
        <time>2018-08-01T12:13:15Z</time>
      </trkpt>
      <trkpt lat="47.25152" lon="6.89995">
        <ele>857.608</ele>
        <time>2018-08-01T12:13:18Z</time>
      </trkpt>
      <trkpt lat="47.2515" lon="6.90004">
        <ele>856.634</ele>
        <time>2018-08-01T12:13:21Z</time>
      </trkpt>
      <trkpt lat="47.25152" lon="6.90012">
        <ele>855.629</ele>
        <time>2018-08-01T12:13:24Z</time>
      </trkpt>
      <trkpt lat="47.25151" lon="6.90019">
        <ele>854.523</ele>
        <time>2018-08-01T12:13:28Z</time>
      </trkpt>
      <trkpt lat="47.25153" lon="6.90026">
        <ele>853.435</ele>
        <time>2018-08-01T12:13:31Z</time>
      </trkpt>
      <trkpt lat="47.25155" lon="6.90034">
        <ele>852.821</ele>
        <time>2018-08-01T12:13:33Z</time>
      </trkpt>
      <trkpt lat="47.25157" lon="6.90044">
        <ele>852.678</ele>
        <time>2018-08-01T12:13:35Z</time>
      </trkpt>
      <trkpt lat="47.2516" lon="6.90052">
        <ele>852.433</ele>
        <time>2018-08-01T12:13:37Z</time>
      </trkpt>
      <trkpt lat="47.25162" lon="6.9006">
        <ele>852.332</ele>
        <time>2018-08-01T12:13:39Z</time>
      </trkpt>
      <trkpt lat="47.25165" lon="6.90067">
        <ele>852.386</ele>
        <time>2018-08-01T12:13:41Z</time>
      </trkpt>
      <trkpt lat="47.25167" lon="6.90075">
        <ele>852.36</ele>
        <time>2018-08-01T12:13:43Z</time>
      </trkpt>
      <trkpt lat="47.25169" lon="6.90082">
        <ele>852.426</ele>
        <time>2018-08-01T12:13:45Z</time>
      </trkpt>
      <trkpt lat="47.25171" lon="6.90089">
        <ele>852.408</ele>
        <time>2018-08-01T12:13:47Z</time>
      </trkpt>
      <trkpt lat="47.25175" lon="6.90096">
        <ele>852.44</ele>
        <time>2018-08-01T12:13:49Z</time>
      </trkpt>
      <trkpt lat="47.25178" lon="6.90102">
        <ele>852.485</ele>
        <time>2018-08-01T12:13:51Z</time>
      </trkpt>
      <trkpt lat="47.25182" lon="6.90109">
        <ele>852.649</ele>
        <time>2018-08-01T12:13:54Z</time>
      </trkpt>
      <trkpt lat="47.25187" lon="6.90116">
        <ele>852.721</ele>
        <time>2018-08-01T12:13:57Z</time>
      </trkpt>
      <trkpt lat="47.2519" lon="6.90124">
        <ele>852.747</ele>
        <time>2018-08-01T12:13:59Z</time>
      </trkpt>
      <trkpt lat="47.25191" lon="6.90132">
        <ele>852.864</ele>
        <time>2018-08-01T12:14:01Z</time>
      </trkpt>
      <trkpt lat="47.25194" lon="6.9014">
        <ele>852.929</ele>
        <time>2018-08-01T12:14:03Z</time>
      </trkpt>
      <trkpt lat="47.25197" lon="6.90147">
        <ele>853.198</ele>
        <time>2018-08-01T12:14:05Z</time>
      </trkpt>
      <trkpt lat="47.25199" lon="6.90155">
        <ele>853.324</ele>
        <time>2018-08-01T12:14:07Z</time>
      </trkpt>
      <trkpt lat="47.25201" lon="6.90164">
        <ele>853.704</ele>
        <time>2018-08-01T12:14:09Z</time>
      </trkpt>
      <trkpt lat="47.25203" lon="6.9017">
        <ele>854.114</ele>
        <time>2018-08-01T12:14:11Z</time>
      </trkpt>
      <trkpt lat="47.25207" lon="6.90175">
        <ele>854.508</ele>
        <time>2018-08-01T12:14:13Z</time>
      </trkpt>
      <trkpt lat="47.25211" lon="6.90179">
        <ele>854.814</ele>
        <time>2018-08-01T12:14:15Z</time>
      </trkpt>
      <trkpt lat="47.25215" lon="6.90185">
        <ele>855.169</ele>
        <time>2018-08-01T12:14:17Z</time>
      </trkpt>
      <trkpt lat="47.25222" lon="6.90191">
        <ele>855.523</ele>
        <time>2018-08-01T12:14:19Z</time>
      </trkpt>
      <trkpt lat="47.25228" lon="6.90196">
        <ele>855.975</ele>
        <time>2018-08-01T12:14:21Z</time>
      </trkpt>
      <trkpt lat="47.25235" lon="6.902">
        <ele>856.461</ele>
        <time>2018-08-01T12:14:23Z</time>
      </trkpt>
      <trkpt lat="47.25241" lon="6.90204">
        <ele>856.978</ele>
        <time>2018-08-01T12:14:25Z</time>
      </trkpt>
      <trkpt lat="47.25245" lon="6.90209">
        <ele>857.443</ele>
        <time>2018-08-01T12:14:27Z</time>
      </trkpt>
      <trkpt lat="47.2525" lon="6.90214">
        <ele>858.292</ele>
        <time>2018-08-01T12:14:31Z</time>
      </trkpt>
      <trkpt lat="47.25253" lon="6.9022">
        <ele>858.936</ele>
        <time>2018-08-01T12:14:34Z</time>
      </trkpt>
      <trkpt lat="47.25257" lon="6.90227">
        <ele>859.517</ele>
        <time>2018-08-01T12:14:37Z</time>
      </trkpt>
      <trkpt lat="47.25261" lon="6.90233">
        <ele>859.918</ele>
        <time>2018-08-01T12:14:39Z</time>
      </trkpt>
      <trkpt lat="47.25265" lon="6.90238">
        <ele>860.208</ele>
        <time>2018-08-01T12:14:41Z</time>
      </trkpt>
      <trkpt lat="47.25269" lon="6.90244">
        <ele>860.725</ele>
        <time>2018-08-01T12:14:43Z</time>
      </trkpt>
      <trkpt lat="47.25273" lon="6.90249">
        <ele>861.66</ele>
        <time>2018-08-01T12:14:45Z</time>
      </trkpt>
      <trkpt lat="47.25276" lon="6.90255">
        <ele>862.854</ele>
        <time>2018-08-01T12:14:47Z</time>
      </trkpt>
      <trkpt lat="47.2528" lon="6.9026">
        <ele>864.166</ele>
        <time>2018-08-01T12:14:49Z</time>
      </trkpt>
      <trkpt lat="47.25284" lon="6.90265">
        <ele>865.262</ele>
        <time>2018-08-01T12:14:51Z</time>
      </trkpt>
      <trkpt lat="47.25288" lon="6.90269">
        <ele>866.079</ele>
        <time>2018-08-01T12:14:53Z</time>
      </trkpt>
      <trkpt lat="47.25292" lon="6.90272">
        <ele>866.664</ele>
        <time>2018-08-01T12:16:37Z</time>
      </trkpt>
      <trkpt lat="47.2529" lon="6.9028">
        <ele>867.013</ele>
        <time>2018-08-01T12:16:41Z</time>
      </trkpt>
      <trkpt lat="47.25284" lon="6.90284">
        <ele>867.652</ele>
        <time>2018-08-01T12:16:44Z</time>
      </trkpt>
      <trkpt lat="47.25279" lon="6.90286">
        <ele>868.053</ele>
        <time>2018-08-01T12:16:46Z</time>
      </trkpt>
      <trkpt lat="47.25275" lon="6.90289">
        <ele>868.408</ele>
        <time>2018-08-01T12:16:48Z</time>
      </trkpt>
      <trkpt lat="47.2527" lon="6.90293">
        <ele>868.608</ele>
        <time>2018-08-01T12:16:50Z</time>
      </trkpt>
      <trkpt lat="47.25266" lon="6.90298">
        <ele>869.087</ele>
        <time>2018-08-01T12:16:52Z</time>
      </trkpt>
      <trkpt lat="47.25263" lon="6.90302">
        <ele>869.392</ele>
        <time>2018-08-01T12:16:54Z</time>
      </trkpt>
      <trkpt lat="47.25259" lon="6.90306">
        <ele>869.536</ele>
        <time>2018-08-01T12:16:56Z</time>
      </trkpt>
      <trkpt lat="47.25255" lon="6.90311">
        <ele>869.888</ele>
        <time>2018-08-01T12:16:58Z</time>
      </trkpt>
      <trkpt lat="47.25252" lon="6.90316">
        <ele>870.194</ele>
        <time>2018-08-01T12:17:00Z</time>
      </trkpt>
      <trkpt lat="47.25248" lon="6.9032">
        <ele>870.441</ele>
        <time>2018-08-01T12:17:02Z</time>
      </trkpt>
      <trkpt lat="47.25243" lon="6.90326">
        <ele>870.986</ele>
        <time>2018-08-01T12:17:05Z</time>
      </trkpt>
      <trkpt lat="47.25239" lon="6.90332">
        <ele>871.495</ele>
        <time>2018-08-01T12:17:07Z</time>
      </trkpt>
      <trkpt lat="47.25236" lon="6.90338">
        <ele>872.124</ele>
        <time>2018-08-01T12:17:09Z</time>
      </trkpt>
      <trkpt lat="47.25232" lon="6.90344">
        <ele>872.804</ele>
        <time>2018-08-01T12:17:11Z</time>
      </trkpt>
      <trkpt lat="47.25229" lon="6.90351">
        <ele>873.614</ele>
        <time>2018-08-01T12:17:13Z</time>
      </trkpt>
      <trkpt lat="47.25227" lon="6.90358">
        <ele>874.308</ele>
        <time>2018-08-01T12:17:15Z</time>
      </trkpt>
      <trkpt lat="47.25225" lon="6.90365">
        <ele>875.054</ele>
        <time>2018-08-01T12:17:17Z</time>
      </trkpt>
      <trkpt lat="47.25223" lon="6.90373">
        <ele>875.359</ele>
        <time>2018-08-01T12:17:19Z</time>
      </trkpt>
      <trkpt lat="47.25221" lon="6.90381">
        <ele>875.943</ele>
        <time>2018-08-01T12:17:21Z</time>
      </trkpt>
      <trkpt lat="47.2522" lon="6.90389">
        <ele>876.465</ele>
        <time>2018-08-01T12:17:23Z</time>
      </trkpt>
      <trkpt lat="47.25218" lon="6.90397">
        <ele>876.881</ele>
        <time>2018-08-01T12:17:25Z</time>
      </trkpt>
      <trkpt lat="47.25217" lon="6.90405">
        <ele>877.248</ele>
        <time>2018-08-01T12:17:27Z</time>
      </trkpt>
      <trkpt lat="47.25216" lon="6.90413">
        <ele>877.673</ele>
        <time>2018-08-01T12:17:29Z</time>
      </trkpt>
      <trkpt lat="47.25215" lon="6.9042">
        <ele>878.192</ele>
        <time>2018-08-01T12:17:31Z</time>
      </trkpt>
      <trkpt lat="47.25215" lon="6.90428">
        <ele>878.646</ele>
        <time>2018-08-01T12:17:33Z</time>
      </trkpt>
      <trkpt lat="47.25214" lon="6.90436">
        <ele>879.388</ele>
        <time>2018-08-01T12:17:36Z</time>
      </trkpt>
      <trkpt lat="47.25215" lon="6.90444">
        <ele>880.216</ele>
        <time>2018-08-01T12:17:39Z</time>
      </trkpt>
      <trkpt lat="47.25215" lon="6.90452">
        <ele>880.908</ele>
        <time>2018-08-01T12:17:41Z</time>
      </trkpt>
      <trkpt lat="47.25215" lon="6.90461">
        <ele>881.866</ele>
        <time>2018-08-01T12:17:44Z</time>
      </trkpt>
      <trkpt lat="47.25214" lon="6.90468">
        <ele>882.481</ele>
        <time>2018-08-01T12:17:47Z</time>
      </trkpt>
      <trkpt lat="47.25214" lon="6.90475">
        <ele>883.155</ele>
        <time>2018-08-01T12:17:49Z</time>
      </trkpt>
      <trkpt lat="47.25215" lon="6.90483">
        <ele>884.067</ele>
        <time>2018-08-01T12:17:52Z</time>
      </trkpt>
      <trkpt lat="47.25215" lon="6.9049">
        <ele>885.043</ele>
        <time>2018-08-01T12:17:55Z</time>
      </trkpt>
      <trkpt lat="47.25213" lon="6.90497">
        <ele>886.14</ele>
        <time>2018-08-01T12:17:58Z</time>
      </trkpt>
      <trkpt lat="47.25211" lon="6.90504">
        <ele>887.225</ele>
        <time>2018-08-01T12:18:01Z</time>
      </trkpt>
      <trkpt lat="47.25211" lon="6.90513">
        <ele>888.314</ele>
        <time>2018-08-01T12:18:04Z</time>
      </trkpt>
      <trkpt lat="47.2521" lon="6.90521">
        <ele>889.358</ele>
        <time>2018-08-01T12:18:07Z</time>
      </trkpt>
      <trkpt lat="47.2521" lon="6.90531">
        <ele>890.352</ele>
        <time>2018-08-01T12:18:10Z</time>
      </trkpt>
      <trkpt lat="47.25211" lon="6.90539">
        <ele>891.017</ele>
        <time>2018-08-01T12:18:13Z</time>
      </trkpt>
      <trkpt lat="47.25211" lon="6.90548">
        <ele>892.108</ele>
        <time>2018-08-01T12:18:16Z</time>
      </trkpt>
      <trkpt lat="47.2521" lon="6.90557">
        <ele>893.177</ele>
        <time>2018-08-01T12:18:19Z</time>
      </trkpt>
      <trkpt lat="47.2521" lon="6.90565">
        <ele>894.252</ele>
        <time>2018-08-01T12:18:22Z</time>
      </trkpt>
      <trkpt lat="47.25208" lon="6.90572">
        <ele>895.936</ele>
        <time>2018-08-01T12:18:26Z</time>
      </trkpt>
      <trkpt lat="47.25207" lon="6.90581">
        <ele>897.188</ele>
        <time>2018-08-01T12:18:29Z</time>
      </trkpt>
      <trkpt lat="47.25206" lon="6.9059">
        <ele>898.344</ele>
        <time>2018-08-01T12:18:32Z</time>
      </trkpt>
      <trkpt lat="47.25205" lon="6.90597">
        <ele>899.531</ele>
        <time>2018-08-01T12:18:35Z</time>
      </trkpt>
      <trkpt lat="47.25203" lon="6.90605">
        <ele>900.856</ele>
        <time>2018-08-01T12:18:38Z</time>
      </trkpt>
      <trkpt lat="47.25203" lon="6.90613">
        <ele>901.695</ele>
        <time>2018-08-01T12:18:41Z</time>
      </trkpt>
      <trkpt lat="47.25204" lon="6.9062">
        <ele>902.322</ele>
        <time>2018-08-01T12:18:43Z</time>
      </trkpt>
      <trkpt lat="47.25208" lon="6.90628">
        <ele>903.262</ele>
        <time>2018-08-01T12:18:46Z</time>
      </trkpt>
      <trkpt lat="47.2521" lon="6.90636">
        <ele>904.108</ele>
        <time>2018-08-01T12:18:49Z</time>
      </trkpt>
      <trkpt lat="47.2521" lon="6.90645">
        <ele>905.008</ele>
        <time>2018-08-01T12:18:52Z</time>
      </trkpt>
      <trkpt lat="47.2521" lon="6.90652">
        <ele>905.734</ele>
        <time>2018-08-01T12:18:54Z</time>
      </trkpt>
      <trkpt lat="47.25213" lon="6.90659">
        <ele>906.639</ele>
        <time>2018-08-01T12:18:57Z</time>
      </trkpt>
      <trkpt lat="47.25217" lon="6.90667">
        <ele>907.523</ele>
        <time>2018-08-01T12:19:00Z</time>
      </trkpt>
      <trkpt lat="47.25219" lon="6.90673">
        <ele>908.165</ele>
        <time>2018-08-01T12:19:02Z</time>
      </trkpt>
      <trkpt lat="47.25219" lon="6.90682">
        <ele>908.931</ele>
        <time>2018-08-01T12:19:05Z</time>
      </trkpt>
      <trkpt lat="47.25219" lon="6.90689">
        <ele>909.648</ele>
        <time>2018-08-01T12:19:08Z</time>
      </trkpt>
      <trkpt lat="47.2522" lon="6.90697">
        <ele>910.613</ele>
        <time>2018-08-01T12:19:11Z</time>
      </trkpt>
      <trkpt lat="47.25221" lon="6.90706">
        <ele>911.932</ele>
        <time>2018-08-01T12:19:15Z</time>
      </trkpt>
      <trkpt lat="47.25222" lon="6.90714">
        <ele>912.923</ele>
        <time>2018-08-01T12:19:19Z</time>
      </trkpt>
      <trkpt lat="47.25225" lon="6.90721">
        <ele>913.883</ele>
        <time>2018-08-01T12:19:22Z</time>
      </trkpt>
      <trkpt lat="47.25227" lon="6.90728">
        <ele>914.611</ele>
        <time>2018-08-01T12:19:25Z</time>
      </trkpt>
      <trkpt lat="47.25229" lon="6.90737">
        <ele>915.308</ele>
        <time>2018-08-01T12:19:28Z</time>
      </trkpt>
      <trkpt lat="47.25232" lon="6.90746">
        <ele>916.014</ele>
        <time>2018-08-01T12:19:31Z</time>
      </trkpt>
      <trkpt lat="47.25233" lon="6.90755">
        <ele>916.529</ele>
        <time>2018-08-01T12:19:34Z</time>
      </trkpt>
      <trkpt lat="47.25236" lon="6.90764">
        <ele>917.353</ele>
        <time>2018-08-01T12:19:37Z</time>
      </trkpt>
      <trkpt lat="47.25238" lon="6.90772">
        <ele>918.025</ele>
        <time>2018-08-01T12:19:40Z</time>
      </trkpt>
      <trkpt lat="47.25239" lon="6.9078">
        <ele>918.851</ele>
        <time>2018-08-01T12:19:43Z</time>
      </trkpt>
      <trkpt lat="47.25241" lon="6.9079">
        <ele>919.648</ele>
        <time>2018-08-01T12:19:46Z</time>
      </trkpt>
      <trkpt lat="47.25242" lon="6.90796">
        <ele>920.193</ele>
        <time>2018-08-01T12:19:48Z</time>
      </trkpt>
      <trkpt lat="47.25246" lon="6.90803">
        <ele>920.832</ele>
        <time>2018-08-01T12:19:51Z</time>
      </trkpt>
      <trkpt lat="47.25249" lon="6.9081">
        <ele>921.524</ele>
        <time>2018-08-01T12:19:54Z</time>
      </trkpt>
      <trkpt lat="47.25251" lon="6.90816">
        <ele>922.004</ele>
        <time>2018-08-01T12:19:56Z</time>
      </trkpt>
      <trkpt lat="47.25254" lon="6.90825">
        <ele>923.014</ele>
        <time>2018-08-01T12:19:59Z</time>
      </trkpt>
      <trkpt lat="47.25256" lon="6.90832">
        <ele>923.508</ele>
        <time>2018-08-01T12:20:01Z</time>
      </trkpt>
      <trkpt lat="47.25258" lon="6.90838">
        <ele>923.784</ele>
        <time>2018-08-01T12:20:03Z</time>
      </trkpt>
      <trkpt lat="47.2526" lon="6.90845">
        <ele>924.059</ele>
        <time>2018-08-01T12:20:05Z</time>
      </trkpt>
      <trkpt lat="47.25263" lon="6.90851">
        <ele>924.363</ele>
        <time>2018-08-01T12:20:07Z</time>
      </trkpt>
      <trkpt lat="47.25266" lon="6.90856">
        <ele>924.775</ele>
        <time>2018-08-01T12:20:09Z</time>
      </trkpt>
      <trkpt lat="47.25269" lon="6.90864">
        <ele>925.221</ele>
        <time>2018-08-01T12:20:12Z</time>
      </trkpt>
      <trkpt lat="47.25272" lon="6.90872">
        <ele>925.758</ele>
        <time>2018-08-01T12:20:15Z</time>
      </trkpt>
      <trkpt lat="47.25274" lon="6.90878">
        <ele>926.183</ele>
        <time>2018-08-01T12:20:17Z</time>
      </trkpt>
      <trkpt lat="47.25277" lon="6.90886">
        <ele>926.682</ele>
        <time>2018-08-01T12:20:20Z</time>
      </trkpt>
      <trkpt lat="47.25279" lon="6.90895">
        <ele>927.222</ele>
        <time>2018-08-01T12:20:23Z</time>
      </trkpt>
      <trkpt lat="47.25281" lon="6.90903">
        <ele>927.662</ele>
        <time>2018-08-01T12:20:25Z</time>
      </trkpt>
      <trkpt lat="47.25283" lon="6.9091">
        <ele>928.008</ele>
        <time>2018-08-01T12:20:27Z</time>
      </trkpt>
      <trkpt lat="47.25284" lon="6.90917">
        <ele>928.408</ele>
        <time>2018-08-01T12:20:30Z</time>
      </trkpt>
      <trkpt lat="47.25285" lon="6.90926">
        <ele>929.064</ele>
        <time>2018-08-01T12:20:33Z</time>
      </trkpt>
      <trkpt lat="47.25288" lon="6.90934">
        <ele>929.429</ele>
        <time>2018-08-01T12:20:35Z</time>
      </trkpt>
      <trkpt lat="47.25292" lon="6.90941">
        <ele>929.943</ele>
        <time>2018-08-01T12:20:37Z</time>
      </trkpt>
      <trkpt lat="47.25296" lon="6.9095">
        <ele>930.345</ele>
        <time>2018-08-01T12:20:39Z</time>
      </trkpt>
      <trkpt lat="47.25299" lon="6.90956">
        <ele>930.711</ele>
        <time>2018-08-01T12:20:41Z</time>
      </trkpt>
      <trkpt lat="47.253" lon="6.90963">
        <ele>931.388</ele>
        <time>2018-08-01T12:20:44Z</time>
      </trkpt>
      <trkpt lat="47.25301" lon="6.90972">
        <ele>931.823</ele>
        <time>2018-08-01T12:20:47Z</time>
      </trkpt>
      <trkpt lat="47.25302" lon="6.90979">
        <ele>932.252</ele>
        <time>2018-08-01T12:20:49Z</time>
      </trkpt>
      <trkpt lat="47.25305" lon="6.90987">
        <ele>932.942</ele>
        <time>2018-08-01T12:20:52Z</time>
      </trkpt>
      <trkpt lat="47.25308" lon="6.90995">
        <ele>933.622</ele>
        <time>2018-08-01T12:20:55Z</time>
      </trkpt>
      <trkpt lat="47.2531" lon="6.91003">
        <ele>934.414</ele>
        <time>2018-08-01T12:20:58Z</time>
      </trkpt>
      <trkpt lat="47.25313" lon="6.9101">
        <ele>934.608</ele>
        <time>2018-08-01T12:21:00Z</time>
      </trkpt>
      <trkpt lat="47.25316" lon="6.91016">
        <ele>935.156</ele>
        <time>2018-08-01T12:21:02Z</time>
      </trkpt>
      <trkpt lat="47.25318" lon="6.91022">
        <ele>935.561</ele>
        <time>2018-08-01T12:21:04Z</time>
      </trkpt>
      <trkpt lat="47.25321" lon="6.91028">
        <ele>936.055</ele>
        <time>2018-08-01T12:21:06Z</time>
      </trkpt>
      <trkpt lat="47.25325" lon="6.91033">
        <ele>936.587</ele>
        <time>2018-08-01T12:21:08Z</time>
      </trkpt>
      <trkpt lat="47.25329" lon="6.91042">
        <ele>937.193</ele>
        <time>2018-08-01T12:21:11Z</time>
      </trkpt>
      <trkpt lat="47.25332" lon="6.91048">
        <ele>937.52</ele>
        <time>2018-08-01T12:21:13Z</time>
      </trkpt>
      <trkpt lat="47.25336" lon="6.91056">
        <ele>938.035</ele>
        <time>2018-08-01T12:21:15Z</time>
      </trkpt>
      <trkpt lat="47.25341" lon="6.91066">
        <ele>938.494</ele>
        <time>2018-08-01T12:21:17Z</time>
      </trkpt>
      <trkpt lat="47.25345" lon="6.91073">
        <ele>939.235</ele>
        <time>2018-08-01T12:21:20Z</time>
      </trkpt>
      <trkpt lat="47.25348" lon="6.91079">
        <ele>940.086</ele>
        <time>2018-08-01T12:21:23Z</time>
      </trkpt>
      <trkpt lat="47.25351" lon="6.91085">
        <ele>940.314</ele>
        <time>2018-08-01T12:21:25Z</time>
      </trkpt>
      <trkpt lat="47.25356" lon="6.9109">
        <ele>941.108</ele>
        <time>2018-08-01T12:21:28Z</time>
      </trkpt>
      <trkpt lat="47.25358" lon="6.91096">
        <ele>941.785</ele>
        <time>2018-08-01T12:21:30Z</time>
      </trkpt>
      <trkpt lat="47.25362" lon="6.91102">
        <ele>942.38</ele>
        <time>2018-08-01T12:21:32Z</time>
      </trkpt>
      <trkpt lat="47.25367" lon="6.91111">
        <ele>942.874</ele>
        <time>2018-08-01T12:21:34Z</time>
      </trkpt>
      <trkpt lat="47.2537" lon="6.91121">
        <ele>943.256</ele>
        <time>2018-08-01T12:21:36Z</time>
      </trkpt>
      <trkpt lat="47.25372" lon="6.91129">
        <ele>943.632</ele>
        <time>2018-08-01T12:21:38Z</time>
      </trkpt>
      <trkpt lat="47.25374" lon="6.91135">
        <ele>944.179</ele>
        <time>2018-08-01T12:21:40Z</time>
      </trkpt>
      <trkpt lat="47.25376" lon="6.91145">
        <ele>944.984</ele>
        <time>2018-08-01T12:21:43Z</time>
      </trkpt>
      <trkpt lat="47.25378" lon="6.91152">
        <ele>945.523</ele>
        <time>2018-08-01T12:21:45Z</time>
      </trkpt>
      <trkpt lat="47.25378" lon="6.9116">
        <ele>946.298</ele>
        <time>2018-08-01T12:21:47Z</time>
      </trkpt>
      <trkpt lat="47.25378" lon="6.91168">
        <ele>946.915</ele>
        <time>2018-08-01T12:21:49Z</time>
      </trkpt>
      <trkpt lat="47.25377" lon="6.91175">
        <ele>947.526</ele>
        <time>2018-08-01T12:21:51Z</time>
      </trkpt>
      <trkpt lat="47.25378" lon="6.91182">
        <ele>948.008</ele>
        <time>2018-08-01T12:21:53Z</time>
      </trkpt>
      <trkpt lat="47.25379" lon="6.91188">
        <ele>948.281</ele>
        <time>2018-08-01T12:21:55Z</time>
      </trkpt>
      <trkpt lat="47.25379" lon="6.91198">
        <ele>948.916</ele>
        <time>2018-08-01T12:21:58Z</time>
      </trkpt>
      <trkpt lat="47.25378" lon="6.91206">
        <ele>949.57</ele>
        <time>2018-08-01T12:22:00Z</time>
      </trkpt>
      <trkpt lat="47.25377" lon="6.91214">
        <ele>950.242</ele>
        <time>2018-08-01T12:22:02Z</time>
      </trkpt>
      <trkpt lat="47.25377" lon="6.91221">
        <ele>950.868</ele>
        <time>2018-08-01T12:22:04Z</time>
      </trkpt>
      <trkpt lat="47.25377" lon="6.91228">
        <ele>951.465</ele>
        <time>2018-08-01T12:22:06Z</time>
      </trkpt>
      <trkpt lat="47.25377" lon="6.91237">
        <ele>952.06</ele>
        <time>2018-08-01T12:22:08Z</time>
      </trkpt>
      <trkpt lat="47.25377" lon="6.91245">
        <ele>952.559</ele>
        <time>2018-08-01T12:22:10Z</time>
      </trkpt>
      <trkpt lat="47.25377" lon="6.91254">
        <ele>953.074</ele>
        <time>2018-08-01T12:22:12Z</time>
      </trkpt>
      <trkpt lat="47.25377" lon="6.91262">
        <ele>953.556</ele>
        <time>2018-08-01T12:22:14Z</time>
      </trkpt>
      <trkpt lat="47.25377" lon="6.91269">
        <ele>954.021</ele>
        <time>2018-08-01T12:22:16Z</time>
      </trkpt>
      <trkpt lat="47.25377" lon="6.91277">
        <ele>954.508</ele>
        <time>2018-08-01T12:22:18Z</time>
      </trkpt>
      <trkpt lat="47.25377" lon="6.91284">
        <ele>955.029</ele>
        <time>2018-08-01T12:22:20Z</time>
      </trkpt>
      <trkpt lat="47.25376" lon="6.91292">
        <ele>955.284</ele>
        <time>2018-08-01T12:22:22Z</time>
      </trkpt>
      <trkpt lat="47.25376" lon="6.91299">
        <ele>955.728</ele>
        <time>2018-08-01T12:22:24Z</time>
      </trkpt>
      <trkpt lat="47.25376" lon="6.91308">
        <ele>956.34</ele>
        <time>2018-08-01T12:22:27Z</time>
      </trkpt>
      <trkpt lat="47.25375" lon="6.91316">
        <ele>956.756</ele>
        <time>2018-08-01T12:22:29Z</time>
      </trkpt>
      <trkpt lat="47.25375" lon="6.91323">
        <ele>957.163</ele>
        <time>2018-08-01T12:22:31Z</time>
      </trkpt>
      <trkpt lat="47.25374" lon="6.91331">
        <ele>957.568</ele>
        <time>2018-08-01T12:22:33Z</time>
      </trkpt>
      <trkpt lat="47.25373" lon="6.91339">
        <ele>957.957</ele>
        <time>2018-08-01T12:22:35Z</time>
      </trkpt>
      <trkpt lat="47.25373" lon="6.91348">
        <ele>958.485</ele>
        <time>2018-08-01T12:22:37Z</time>
      </trkpt>
      <trkpt lat="47.25372" lon="6.91356">
        <ele>958.989</ele>
        <time>2018-08-01T12:22:39Z</time>
      </trkpt>
      <trkpt lat="47.25371" lon="6.91365">
        <ele>959.317</ele>
        <time>2018-08-01T12:22:41Z</time>
      </trkpt>
      <trkpt lat="47.2537" lon="6.91373">
        <ele>959.708</ele>
        <time>2018-08-01T12:22:43Z</time>
      </trkpt>
      <trkpt lat="47.25369" lon="6.91381">
        <ele>960.13</ele>
        <time>2018-08-01T12:22:45Z</time>
      </trkpt>
      <trkpt lat="47.25368" lon="6.91389">
        <ele>960.635</ele>
        <time>2018-08-01T12:22:47Z</time>
      </trkpt>
      <trkpt lat="47.25367" lon="6.91397">
        <ele>960.939</ele>
        <time>2018-08-01T12:22:49Z</time>
      </trkpt>
      <trkpt lat="47.25365" lon="6.91404">
        <ele>961.381</ele>
        <time>2018-08-01T12:22:51Z</time>
      </trkpt>
      <trkpt lat="47.25364" lon="6.91411">
        <ele>961.737</ele>
        <time>2018-08-01T12:22:53Z</time>
      </trkpt>
      <trkpt lat="47.25364" lon="6.9142">
        <ele>962.224</ele>
        <time>2018-08-01T12:22:56Z</time>
      </trkpt>
      <trkpt lat="47.25363" lon="6.91427">
        <ele>962.549</ele>
        <time>2018-08-01T12:22:58Z</time>
      </trkpt>
      <trkpt lat="47.25362" lon="6.91434">
        <ele>962.838</ele>
        <time>2018-08-01T12:23:00Z</time>
      </trkpt>
      <trkpt lat="47.2536" lon="6.9144">
        <ele>963.451</ele>
        <time>2018-08-01T12:23:03Z</time>
      </trkpt>
      <trkpt lat="47.25354" lon="6.91442">
        <ele>964.001</ele>
        <time>2018-08-01T12:25:17Z</time>
      </trkpt>
      <trkpt lat="47.25352" lon="6.91448">
        <ele>964.011</ele>
        <time>2018-08-01T12:25:20Z</time>
      </trkpt>
      <trkpt lat="47.25348" lon="6.91457">
        <ele>964.008</ele>
        <time>2018-08-01T12:25:23Z</time>
      </trkpt>
      <trkpt lat="47.25345" lon="6.91464">
        <ele>964.037</ele>
        <time>2018-08-01T12:25:25Z</time>
      </trkpt>
      <trkpt lat="47.25342" lon="6.91472">
        <ele>964.042</ele>
        <time>2018-08-01T12:25:27Z</time>
      </trkpt>
      <trkpt lat="47.25339" lon="6.91481">
        <ele>964.046</ele>
        <time>2018-08-01T12:25:29Z</time>
      </trkpt>
      <trkpt lat="47.25337" lon="6.91492">
        <ele>964.148</ele>
        <time>2018-08-01T12:25:31Z</time>
      </trkpt>
      <trkpt lat="47.25335" lon="6.91503">
        <ele>964.374</ele>
        <time>2018-08-01T12:25:33Z</time>
      </trkpt>
      <trkpt lat="47.25333" lon="6.91514">
        <ele>964.431</ele>
        <time>2018-08-01T12:25:35Z</time>
      </trkpt>
      <trkpt lat="47.2533" lon="6.91526">
        <ele>964.626</ele>
        <time>2018-08-01T12:25:37Z</time>
      </trkpt>
      <trkpt lat="47.25328" lon="6.91536">
        <ele>964.925</ele>
        <time>2018-08-01T12:25:39Z</time>
      </trkpt>
      <trkpt lat="47.25328" lon="6.91546">
        <ele>965.148</ele>
        <time>2018-08-01T12:25:41Z</time>
      </trkpt>
      <trkpt lat="47.25327" lon="6.91556">
        <ele>965.461</ele>
        <time>2018-08-01T12:25:43Z</time>
      </trkpt>
      <trkpt lat="47.25326" lon="6.91566">
        <ele>965.617</ele>
        <time>2018-08-01T12:25:45Z</time>
      </trkpt>
      <trkpt lat="47.25326" lon="6.91577">
        <ele>965.808</ele>
        <time>2018-08-01T12:25:47Z</time>
      </trkpt>
      <trkpt lat="47.25326" lon="6.91585">
        <ele>965.916</ele>
        <time>2018-08-01T12:25:49Z</time>
      </trkpt>
      <trkpt lat="47.25324" lon="6.91593">
        <ele>966.061</ele>
        <time>2018-08-01T12:25:51Z</time>
      </trkpt>
      <trkpt lat="47.25323" lon="6.91601">
        <ele>966.245</ele>
        <time>2018-08-01T12:25:53Z</time>
      </trkpt>
      <trkpt lat="47.25323" lon="6.91609">
        <ele>966.467</ele>
        <time>2018-08-01T12:25:55Z</time>
      </trkpt>
      <trkpt lat="47.25323" lon="6.91617">
        <ele>966.623</ele>
        <time>2018-08-01T12:25:57Z</time>
      </trkpt>
      <trkpt lat="47.25324" lon="6.91628">
        <ele>966.84</ele>
        <time>2018-08-01T12:25:59Z</time>
      </trkpt>
      <trkpt lat="47.25326" lon="6.9164">
        <ele>967.065</ele>
        <time>2018-08-01T12:26:01Z</time>
      </trkpt>
      <trkpt lat="47.25329" lon="6.91651">
        <ele>967.184</ele>
        <time>2018-08-01T12:26:03Z</time>
      </trkpt>
      <trkpt lat="47.25332" lon="6.91663">
        <ele>967.181</ele>
        <time>2018-08-01T12:26:05Z</time>
      </trkpt>
      <trkpt lat="47.25336" lon="6.91673">
        <ele>967.161</ele>
        <time>2018-08-01T12:26:06Z</time>
      </trkpt>
      <trkpt lat="47.25339" lon="6.91683">
        <ele>967.117</ele>
        <time>2018-08-01T12:26:08Z</time>
      </trkpt>
      <trkpt lat="47.25342" lon="6.9169">
        <ele>967.108</ele>
        <time>2018-08-01T12:26:09Z</time>
      </trkpt>
      <trkpt lat="47.25346" lon="6.917">
        <ele>967.22</ele>
        <time>2018-08-01T12:26:11Z</time>
      </trkpt>
      <trkpt lat="47.25351" lon="6.91709">
        <ele>967.255</ele>
        <time>2018-08-01T12:26:13Z</time>
      </trkpt>
      <trkpt lat="47.25354" lon="6.91715">
        <ele>967.239</ele>
        <time>2018-08-01T12:26:14Z</time>
      </trkpt>
      <trkpt lat="47.25357" lon="6.91721">
        <ele>967.231</ele>
        <time>2018-08-01T12:26:15Z</time>
      </trkpt>
      <trkpt lat="47.25362" lon="6.91732">
        <ele>967.297</ele>
        <time>2018-08-01T12:26:17Z</time>
      </trkpt>
      <trkpt lat="47.25365" lon="6.91741">
        <ele>967.214</ele>
        <time>2018-08-01T12:26:19Z</time>
      </trkpt>
      <trkpt lat="47.2537" lon="6.9175">
        <ele>967.259</ele>
        <time>2018-08-01T12:26:21Z</time>
      </trkpt>
      <trkpt lat="47.25372" lon="6.91756">
        <ele>967.268</ele>
        <time>2018-08-01T12:26:22Z</time>
      </trkpt>
      <trkpt lat="47.25375" lon="6.91762">
        <ele>967.228</ele>
        <time>2018-08-01T12:26:23Z</time>
      </trkpt>
      <trkpt lat="47.25379" lon="6.91768">
        <ele>967.289</ele>
        <time>2018-08-01T12:26:24Z</time>
      </trkpt>
      <trkpt lat="47.25384" lon="6.91776">
        <ele>967.217</ele>
        <time>2018-08-01T12:26:26Z</time>
      </trkpt>
      <trkpt lat="47.25387" lon="6.91786">
        <ele>967.208</ele>
        <time>2018-08-01T12:26:28Z</time>
      </trkpt>
      <trkpt lat="47.25391" lon="6.91791">
        <ele>967.214</ele>
        <time>2018-08-01T12:26:29Z</time>
      </trkpt>
      <trkpt lat="47.25394" lon="6.91796">
        <ele>967.279</ele>
        <time>2018-08-01T12:26:30Z</time>
      </trkpt>
      <trkpt lat="47.25398" lon="6.91805">
        <ele>967.123</ele>
        <time>2018-08-01T12:26:32Z</time>
      </trkpt>
      <trkpt lat="47.25402" lon="6.91811">
        <ele>967.185</ele>
        <time>2018-08-01T12:26:33Z</time>
      </trkpt>
      <trkpt lat="47.25404" lon="6.91817">
        <ele>967.161</ele>
        <time>2018-08-01T12:26:34Z</time>
      </trkpt>
      <trkpt lat="47.25407" lon="6.91823">
        <ele>967.128</ele>
        <time>2018-08-01T12:26:35Z</time>
      </trkpt>
      <trkpt lat="47.2541" lon="6.9183">
        <ele>967.053</ele>
        <time>2018-08-01T12:26:36Z</time>
      </trkpt>
      <trkpt lat="47.25414" lon="6.91837">
        <ele>967.052</ele>
        <time>2018-08-01T12:26:37Z</time>
      </trkpt>
      <trkpt lat="47.25418" lon="6.91844">
        <ele>966.961</ele>
        <time>2018-08-01T12:26:38Z</time>
      </trkpt>
      <trkpt lat="47.25422" lon="6.91848">
        <ele>966.721</ele>
        <time>2018-08-01T12:26:39Z</time>
      </trkpt>
      <trkpt lat="47.2543" lon="6.91858">
        <ele>966.213</ele>
        <time>2018-08-01T12:26:41Z</time>
      </trkpt>
      <trkpt lat="47.25432" lon="6.91865">
        <ele>965.708</ele>
        <time>2018-08-01T12:26:43Z</time>
      </trkpt>
      <trkpt lat="47.25437" lon="6.91871">
        <ele>965.538</ele>
        <time>2018-08-01T12:26:44Z</time>
      </trkpt>
      <trkpt lat="47.25441" lon="6.91874">
        <ele>965.353</ele>
        <time>2018-08-01T12:26:45Z</time>
      </trkpt>
      <trkpt lat="47.25445" lon="6.91879">
        <ele>965.177</ele>
        <time>2018-08-01T12:26:46Z</time>
      </trkpt>
      <trkpt lat="47.2545" lon="6.91888">
        <ele>964.819</ele>
        <time>2018-08-01T12:26:48Z</time>
      </trkpt>
      <trkpt lat="47.25457" lon="6.91901">
        <ele>964.495</ele>
        <time>2018-08-01T12:26:50Z</time>
      </trkpt>
      <trkpt lat="47.2546" lon="6.91907">
        <ele>964.282</ele>
        <time>2018-08-01T12:26:51Z</time>
      </trkpt>
      <trkpt lat="47.25464" lon="6.91913">
        <ele>964.087</ele>
        <time>2018-08-01T12:26:52Z</time>
      </trkpt>
      <trkpt lat="47.25468" lon="6.91918">
        <ele>963.866</ele>
        <time>2018-08-01T12:26:53Z</time>
      </trkpt>
      <trkpt lat="47.25471" lon="6.91925">
        <ele>963.563</ele>
        <time>2018-08-01T12:26:54Z</time>
      </trkpt>
      <trkpt lat="47.25477" lon="6.91932">
        <ele>963.544</ele>
        <time>2018-08-01T12:26:55Z</time>
      </trkpt>
      <trkpt lat="47.25481" lon="6.91942">
        <ele>963.218</ele>
        <time>2018-08-01T12:26:56Z</time>
      </trkpt>
      <trkpt lat="47.25484" lon="6.91951">
        <ele>962.908</ele>
        <time>2018-08-01T12:26:57Z</time>
      </trkpt>
      <trkpt lat="47.25489" lon="6.9196">
        <ele>962.678</ele>
        <time>2018-08-01T12:26:58Z</time>
      </trkpt>
      <trkpt lat="47.25493" lon="6.9197">
        <ele>962.223</ele>
        <time>2018-08-01T12:26:59Z</time>
      </trkpt>
      <trkpt lat="47.25501" lon="6.91979">
        <ele>961.377</ele>
        <time>2018-08-01T12:27:01Z</time>
      </trkpt>
      <trkpt lat="47.25504" lon="6.91984">
        <ele>961.029</ele>
        <time>2018-08-01T12:27:02Z</time>
      </trkpt>
      <trkpt lat="47.25507" lon="6.91991">
        <ele>960.735</ele>
        <time>2018-08-01T12:27:03Z</time>
      </trkpt>
      <trkpt lat="47.25512" lon="6.91995">
        <ele>960.582</ele>
        <time>2018-08-01T12:27:04Z</time>
      </trkpt>
      <trkpt lat="47.25516" lon="6.91998">
        <ele>960.357</ele>
        <time>2018-08-01T12:27:05Z</time>
      </trkpt>
      <trkpt lat="47.25523" lon="6.92001">
        <ele>960.036</ele>
        <time>2018-08-01T12:27:06Z</time>
      </trkpt>
      <trkpt lat="47.25528" lon="6.92003">
        <ele>959.584</ele>
        <time>2018-08-01T12:27:07Z</time>
      </trkpt>
      <trkpt lat="47.25533" lon="6.92006">
        <ele>959.307</ele>
        <time>2018-08-01T12:27:08Z</time>
      </trkpt>
      <trkpt lat="47.25539" lon="6.9201">
        <ele>958.717</ele>
        <time>2018-08-01T12:27:09Z</time>
      </trkpt>
      <trkpt lat="47.25551" lon="6.92017">
        <ele>957.408</ele>
        <time>2018-08-01T12:27:11Z</time>
      </trkpt>
      <trkpt lat="47.25556" lon="6.92022">
        <ele>956.84</ele>
        <time>2018-08-01T12:27:12Z</time>
      </trkpt>
      <trkpt lat="47.25563" lon="6.92035">
        <ele>955.455</ele>
        <time>2018-08-01T12:27:14Z</time>
      </trkpt>
      <trkpt lat="47.25565" lon="6.92045">
        <ele>955.159</ele>
        <time>2018-08-01T12:27:15Z</time>
      </trkpt>
      <trkpt lat="47.2557" lon="6.92054">
        <ele>954.881</ele>
        <time>2018-08-01T12:27:16Z</time>
      </trkpt>
      <trkpt lat="47.25573" lon="6.92062">
        <ele>954.767</ele>
        <time>2018-08-01T12:27:17Z</time>
      </trkpt>
      <trkpt lat="47.25576" lon="6.92071">
        <ele>954.774</ele>
        <time>2018-08-01T12:27:18Z</time>
      </trkpt>
      <trkpt lat="47.25581" lon="6.92079">
        <ele>954.639</ele>
        <time>2018-08-01T12:27:19Z</time>
      </trkpt>
      <trkpt lat="47.25584" lon="6.92086">
        <ele>954.488</ele>
        <time>2018-08-01T12:27:20Z</time>
      </trkpt>
      <trkpt lat="47.2559" lon="6.92098">
        <ele>954.073</ele>
        <time>2018-08-01T12:27:22Z</time>
      </trkpt>
      <trkpt lat="47.25593" lon="6.92106">
        <ele>954.085</ele>
        <time>2018-08-01T12:27:23Z</time>
      </trkpt>
      <trkpt lat="47.25595" lon="6.92113">
        <ele>953.813</ele>
        <time>2018-08-01T12:27:24Z</time>
      </trkpt>
      <trkpt lat="47.256" lon="6.92122">
        <ele>953.708</ele>
        <time>2018-08-01T12:27:25Z</time>
      </trkpt>
      <trkpt lat="47.25606" lon="6.92135">
        <ele>953.539</ele>
        <time>2018-08-01T12:27:27Z</time>
      </trkpt>
      <trkpt lat="47.2561" lon="6.92143">
        <ele>953.574</ele>
        <time>2018-08-01T12:27:28Z</time>
      </trkpt>
      <trkpt lat="47.25616" lon="6.92156">
        <ele>953.448</ele>
        <time>2018-08-01T12:27:30Z</time>
      </trkpt>
      <trkpt lat="47.2562" lon="6.92162">
        <ele>953.44</ele>
        <time>2018-08-01T12:27:31Z</time>
      </trkpt>
      <trkpt lat="47.25625" lon="6.92169">
        <ele>953.546</ele>
        <time>2018-08-01T12:27:32Z</time>
      </trkpt>
      <trkpt lat="47.25629" lon="6.9218">
        <ele>953.743</ele>
        <time>2018-08-01T12:27:34Z</time>
      </trkpt>
      <trkpt lat="47.25628" lon="6.92187">
        <ele>953.878</ele>
        <time>2018-08-01T12:27:35Z</time>
      </trkpt>
      <trkpt lat="47.2563" lon="6.92193">
        <ele>953.957</ele>
        <time>2018-08-01T12:27:36Z</time>
      </trkpt>
      <trkpt lat="47.25634" lon="6.92199">
        <ele>954.056</ele>
        <time>2018-08-01T12:27:37Z</time>
      </trkpt>
      <trkpt lat="47.25637" lon="6.92205">
        <ele>954.159</ele>
        <time>2018-08-01T12:27:38Z</time>
      </trkpt>
      <trkpt lat="47.25641" lon="6.92209">
        <ele>954.214</ele>
        <time>2018-08-01T12:27:39Z</time>
      </trkpt>
      <trkpt lat="47.25645" lon="6.92215">
        <ele>954.308</ele>
        <time>2018-08-01T12:27:40Z</time>
      </trkpt>
      <trkpt lat="47.25649" lon="6.92226">
        <ele>954.457</ele>
        <time>2018-08-01T12:27:42Z</time>
      </trkpt>
      <trkpt lat="47.25652" lon="6.92236">
        <ele>954.452</ele>
        <time>2018-08-01T12:27:44Z</time>
      </trkpt>
      <trkpt lat="47.25653" lon="6.92247">
        <ele>954.326</ele>
        <time>2018-08-01T12:27:46Z</time>
      </trkpt>
      <trkpt lat="47.25653" lon="6.92258">
        <ele>953.978</ele>
        <time>2018-08-01T12:27:48Z</time>
      </trkpt>
      <trkpt lat="47.25653" lon="6.92269">
        <ele>953.724</ele>
        <time>2018-08-01T12:27:50Z</time>
      </trkpt>
      <trkpt lat="47.25653" lon="6.92281">
        <ele>953.331</ele>
        <time>2018-08-01T12:27:52Z</time>
      </trkpt>
      <trkpt lat="47.25654" lon="6.92288">
        <ele>953.246</ele>
        <time>2018-08-01T12:27:53Z</time>
      </trkpt>
      <trkpt lat="47.25654" lon="6.92295">
        <ele>953.155</ele>
        <time>2018-08-01T12:27:54Z</time>
      </trkpt>
      <trkpt lat="47.25655" lon="6.92303">
        <ele>953.061</ele>
        <time>2018-08-01T12:27:55Z</time>
      </trkpt>
      <trkpt lat="47.25655" lon="6.9231">
        <ele>952.921</ele>
        <time>2018-08-01T12:27:56Z</time>
      </trkpt>
      <trkpt lat="47.25655" lon="6.92322">
        <ele>952.813</ele>
        <time>2018-08-01T12:27:58Z</time>
      </trkpt>
      <trkpt lat="47.25655" lon="6.92335">
        <ele>952.808</ele>
        <time>2018-08-01T12:28:00Z</time>
      </trkpt>
      <trkpt lat="47.25656" lon="6.92341">
        <ele>952.898</ele>
        <time>2018-08-01T12:28:01Z</time>
      </trkpt>
      <trkpt lat="47.25656" lon="6.92348">
        <ele>952.973</ele>
        <time>2018-08-01T12:28:02Z</time>
      </trkpt>
      <trkpt lat="47.25656" lon="6.92355">
        <ele>953.077</ele>
        <time>2018-08-01T12:28:03Z</time>
      </trkpt>
      <trkpt lat="47.25656" lon="6.92363">
        <ele>953.129</ele>
        <time>2018-08-01T12:28:04Z</time>
      </trkpt>
      <trkpt lat="47.25657" lon="6.92369">
        <ele>953.245</ele>
        <time>2018-08-01T12:28:05Z</time>
      </trkpt>
      <trkpt lat="47.25659" lon="6.92384">
        <ele>953.182</ele>
        <time>2018-08-01T12:28:07Z</time>
      </trkpt>
      <trkpt lat="47.25661" lon="6.92392">
        <ele>953.097</ele>
        <time>2018-08-01T12:28:08Z</time>
      </trkpt>
      <trkpt lat="47.25663" lon="6.924">
        <ele>952.946</ele>
        <time>2018-08-01T12:28:09Z</time>
      </trkpt>
      <trkpt lat="47.25665" lon="6.92411">
        <ele>952.624</ele>
        <time>2018-08-01T12:28:11Z</time>
      </trkpt>
      <trkpt lat="47.25668" lon="6.92419">
        <ele>952.504</ele>
        <time>2018-08-01T12:28:13Z</time>
      </trkpt>
      <trkpt lat="47.2567" lon="6.92427">
        <ele>952.514</ele>
        <time>2018-08-01T12:28:15Z</time>
      </trkpt>
      <trkpt lat="47.25672" lon="6.92434">
        <ele>952.608</ele>
        <time>2018-08-01T12:28:17Z</time>
      </trkpt>
      <trkpt lat="47.25671" lon="6.92444">
        <ele>952.674</ele>
        <time>2018-08-01T12:28:20Z</time>
      </trkpt>
      <trkpt lat="47.25672" lon="6.92452">
        <ele>952.679</ele>
        <time>2018-08-01T12:28:22Z</time>
      </trkpt>
      <trkpt lat="47.25674" lon="6.9246">
        <ele>952.693</ele>
        <time>2018-08-01T12:28:24Z</time>
      </trkpt>
      <trkpt lat="47.25677" lon="6.92468">
        <ele>952.435</ele>
        <time>2018-08-01T12:28:26Z</time>
      </trkpt>
      <trkpt lat="47.2568" lon="6.9248">
        <ele>951.971</ele>
        <time>2018-08-01T12:28:28Z</time>
      </trkpt>
      <trkpt lat="47.25681" lon="6.92487">
        <ele>951.618</ele>
        <time>2018-08-01T12:28:29Z</time>
      </trkpt>
      <trkpt lat="47.25682" lon="6.92499">
        <ele>951.223</ele>
        <time>2018-08-01T12:28:30Z</time>
      </trkpt>
      <trkpt lat="47.25682" lon="6.92514">
        <ele>950.462</ele>
        <time>2018-08-01T12:28:32Z</time>
      </trkpt>
      <trkpt lat="47.25684" lon="6.92523">
        <ele>949.973</ele>
        <time>2018-08-01T12:28:33Z</time>
      </trkpt>
      <trkpt lat="47.25682" lon="6.92531">
        <ele>949.385</ele>
        <time>2018-08-01T12:28:34Z</time>
      </trkpt>
      <trkpt lat="47.25681" lon="6.92538">
        <ele>948.713</ele>
        <time>2018-08-01T12:28:35Z</time>
      </trkpt>
      <trkpt lat="47.25681" lon="6.92545">
        <ele>948.008</ele>
        <time>2018-08-01T12:28:36Z</time>
      </trkpt>
      <trkpt lat="47.25677" lon="6.9255">
        <ele>945.849</ele>
        <time>2018-08-01T12:28:39Z</time>
      </trkpt>
      <trkpt lat="47.25674" lon="6.92556">
        <ele>944.854</ele>
        <time>2018-08-01T12:28:47Z</time>
      </trkpt>
      <trkpt lat="47.25674" lon="6.92566">
        <ele>944.668</ele>
        <time>2018-08-01T12:28:55Z</time>
      </trkpt>
      <trkpt lat="47.2567" lon="6.92572">
        <ele>944.32</ele>
        <time>2018-08-01T12:28:57Z</time>
      </trkpt>
      <trkpt lat="47.25665" lon="6.92579">
        <ele>943.966</ele>
        <time>2018-08-01T12:28:59Z</time>
      </trkpt>
      <trkpt lat="47.25659" lon="6.92587">
        <ele>943.583</ele>
        <time>2018-08-01T12:29:01Z</time>
      </trkpt>
      <trkpt lat="47.25655" lon="6.92596">
        <ele>943.288</ele>
        <time>2018-08-01T12:29:02Z</time>
      </trkpt>
      <trkpt lat="47.25651" lon="6.92608">
        <ele>942.547</ele>
        <time>2018-08-01T12:29:04Z</time>
      </trkpt>
      <trkpt lat="47.25646" lon="6.92616">
        <ele>942.122</ele>
        <time>2018-08-01T12:29:05Z</time>
      </trkpt>
      <trkpt lat="47.25643" lon="6.92626">
        <ele>941.662</ele>
        <time>2018-08-01T12:29:06Z</time>
      </trkpt>
      <trkpt lat="47.25638" lon="6.92636">
        <ele>941.008</ele>
        <time>2018-08-01T12:29:07Z</time>
      </trkpt>
      <trkpt lat="47.25636" lon="6.92644">
        <ele>940.408</ele>
        <time>2018-08-01T12:29:08Z</time>
      </trkpt>
      <trkpt lat="47.25631" lon="6.92651">
        <ele>939.874</ele>
        <time>2018-08-01T12:29:09Z</time>
      </trkpt>
      <trkpt lat="47.25626" lon="6.92657">
        <ele>939.199</ele>
        <time>2018-08-01T12:29:10Z</time>
      </trkpt>
      <trkpt lat="47.2562" lon="6.92666">
        <ele>938.473</ele>
        <time>2018-08-01T12:29:11Z</time>
      </trkpt>
      <trkpt lat="47.25615" lon="6.92674">
        <ele>937.685</ele>
        <time>2018-08-01T12:29:12Z</time>
      </trkpt>
      <trkpt lat="47.25612" lon="6.92684">
        <ele>936.831</ele>
        <time>2018-08-01T12:29:13Z</time>
      </trkpt>
      <trkpt lat="47.25609" lon="6.92695">
        <ele>936.838</ele>
        <time>2018-08-01T12:29:14Z</time>
      </trkpt>
      <trkpt lat="47.25603" lon="6.92704">
        <ele>935.983</ele>
        <time>2018-08-01T12:29:15Z</time>
      </trkpt>
      <trkpt lat="47.25598" lon="6.92712">
        <ele>935.052</ele>
        <time>2018-08-01T12:29:16Z</time>
      </trkpt>
      <trkpt lat="47.2559" lon="6.9272">
        <ele>934.163</ele>
        <time>2018-08-01T12:29:17Z</time>
      </trkpt>
      <trkpt lat="47.25585" lon="6.92726">
        <ele>933.344</ele>
        <time>2018-08-01T12:29:18Z</time>
      </trkpt>
      <trkpt lat="47.25582" lon="6.92733">
        <ele>932.618</ele>
        <time>2018-08-01T12:29:19Z</time>
      </trkpt>
      <trkpt lat="47.25579" lon="6.9274">
        <ele>932.008</ele>
        <time>2018-08-01T12:29:20Z</time>
      </trkpt>
      <trkpt lat="47.25576" lon="6.92749">
        <ele>931.388</ele>
        <time>2018-08-01T12:29:21Z</time>
      </trkpt>
      <trkpt lat="47.25572" lon="6.92761">
        <ele>930.033</ele>
        <time>2018-08-01T12:29:23Z</time>
      </trkpt>
      <trkpt lat="47.25571" lon="6.92769">
        <ele>929.437</ele>
        <time>2018-08-01T12:29:24Z</time>
      </trkpt>
      <trkpt lat="47.25572" lon="6.92777">
        <ele>928.649</ele>
        <time>2018-08-01T12:29:25Z</time>
      </trkpt>
      <trkpt lat="47.25575" lon="6.92793">
        <ele>927.625</ele>
        <time>2018-08-01T12:29:27Z</time>
      </trkpt>
      <trkpt lat="47.25577" lon="6.92803">
        <ele>927.392</ele>
        <time>2018-08-01T12:29:28Z</time>
      </trkpt>
      <trkpt lat="47.25579" lon="6.92815">
        <ele>926.647</ele>
        <time>2018-08-01T12:29:29Z</time>
      </trkpt>
      <trkpt lat="47.25582" lon="6.92827">
        <ele>926.126</ele>
        <time>2018-08-01T12:29:30Z</time>
      </trkpt>
      <trkpt lat="47.25585" lon="6.92838">
        <ele>925.588</ele>
        <time>2018-08-01T12:29:31Z</time>
      </trkpt>
      <trkpt lat="47.25588" lon="6.9285">
        <ele>924.724</ele>
        <time>2018-08-01T12:29:32Z</time>
      </trkpt>
      <trkpt lat="47.2559" lon="6.92861">
        <ele>923.826</ele>
        <time>2018-08-01T12:29:33Z</time>
      </trkpt>
      <trkpt lat="47.25593" lon="6.92871">
        <ele>923.308</ele>
        <time>2018-08-01T12:29:34Z</time>
      </trkpt>
      <trkpt lat="47.25595" lon="6.92882">
        <ele>923.27</ele>
        <time>2018-08-01T12:29:35Z</time>
      </trkpt>
      <trkpt lat="47.25598" lon="6.92892">
        <ele>923.255</ele>
        <time>2018-08-01T12:29:36Z</time>
      </trkpt>
      <trkpt lat="47.256" lon="6.92902">
        <ele>923.299</ele>
        <time>2018-08-01T12:29:37Z</time>
      </trkpt>
      <trkpt lat="47.256" lon="6.92912">
        <ele>923.021</ele>
        <time>2018-08-01T12:29:38Z</time>
      </trkpt>
      <trkpt lat="47.25601" lon="6.92921">
        <ele>922.857</ele>
        <time>2018-08-01T12:29:39Z</time>
      </trkpt>
      <trkpt lat="47.25602" lon="6.92929">
        <ele>922.724</ele>
        <time>2018-08-01T12:29:40Z</time>
      </trkpt>
      <trkpt lat="47.25602" lon="6.92938">
        <ele>922.489</ele>
        <time>2018-08-01T12:29:41Z</time>
      </trkpt>
      <trkpt lat="47.25601" lon="6.92947">
        <ele>922.468</ele>
        <time>2018-08-01T12:29:42Z</time>
      </trkpt>
      <trkpt lat="47.25599" lon="6.92959">
        <ele>922.124</ele>
        <time>2018-08-01T12:29:44Z</time>
      </trkpt>
      <trkpt lat="47.25592" lon="6.92968">
        <ele>921.404</ele>
        <time>2018-08-01T12:29:46Z</time>
      </trkpt>
      <trkpt lat="47.25587" lon="6.92973">
        <ele>920.114</ele>
        <time>2018-08-01T12:29:48Z</time>
      </trkpt>
      <trkpt lat="47.25587" lon="6.92982">
        <ele>917.908</ele>
        <time>2018-08-01T12:29:52Z</time>
      </trkpt>
      <trkpt lat="47.25591" lon="6.9299">
        <ele>917.234</ele>
        <time>2018-08-01T12:29:56Z</time>
      </trkpt>
      <trkpt lat="47.25593" lon="6.92995">
        <ele>916.939</ele>
        <time>2018-08-01T12:29:58Z</time>
      </trkpt>
      <trkpt lat="47.25595" lon="6.93005">
        <ele>916.273</ele>
        <time>2018-08-01T12:30:01Z</time>
      </trkpt>
      <trkpt lat="47.25597" lon="6.93012">
        <ele>915.285</ele>
        <time>2018-08-01T12:30:04Z</time>
      </trkpt>
      <trkpt lat="47.25596" lon="6.93018">
        <ele>912.771</ele>
        <time>2018-08-01T12:30:19Z</time>
      </trkpt>
      <trkpt lat="47.256" lon="6.93023">
        <ele>912.378</ele>
        <time>2018-08-01T12:30:38Z</time>
      </trkpt>
      <trkpt lat="47.25604" lon="6.93025">
        <ele>911.663</ele>
        <time>2018-08-01T12:30:46Z</time>
      </trkpt>
      <trkpt lat="47.25602" lon="6.93032">
        <ele>910.652</ele>
        <time>2018-08-01T12:30:53Z</time>
      </trkpt>
      <trkpt lat="47.25598" lon="6.93037">
        <ele>910.013</ele>
        <time>2018-08-01T12:30:56Z</time>
      </trkpt>
      <trkpt lat="47.25599" lon="6.93046">
        <ele>908.943</ele>
        <time>2018-08-01T12:31:00Z</time>
      </trkpt>
      <trkpt lat="47.25604" lon="6.93048">
        <ele>907.407</ele>
        <time>2018-08-01T12:31:03Z</time>
      </trkpt>
      <trkpt lat="47.2561" lon="6.93046">
        <ele>906.208</ele>
        <time>2018-08-01T12:31:07Z</time>
      </trkpt>
      <trkpt lat="47.25614" lon="6.93043">
        <ele>903.963</ele>
        <time>2018-08-01T12:31:13Z</time>
      </trkpt>
      <trkpt lat="47.25619" lon="6.93043">
        <ele>901.458</ele>
        <time>2018-08-01T12:31:37Z</time>
      </trkpt>
      <trkpt lat="47.25623" lon="6.9304">
        <ele>901.042</ele>
        <time>2018-08-01T12:31:39Z</time>
      </trkpt>
      <trkpt lat="47.25628" lon="6.93038">
        <ele>898.344</ele>
        <time>2018-08-01T12:31:52Z</time>
      </trkpt>
      <trkpt lat="47.25632" lon="6.93033">
        <ele>898.12</ele>
        <time>2018-08-01T12:32:21Z</time>
      </trkpt>
      <trkpt lat="47.25636" lon="6.9303">
        <ele>897.817</ele>
        <time>2018-08-01T12:32:23Z</time>
      </trkpt>
      <trkpt lat="47.25643" lon="6.93028">
        <ele>896.762</ele>
        <time>2018-08-01T12:32:26Z</time>
      </trkpt>
      <trkpt lat="47.25647" lon="6.93025">
        <ele>895.821</ele>
        <time>2018-08-01T12:32:28Z</time>
      </trkpt>
      <trkpt lat="47.25654" lon="6.93021">
        <ele>895.353</ele>
        <time>2018-08-01T12:32:30Z</time>
      </trkpt>
      <trkpt lat="47.2566" lon="6.93015">
        <ele>894.104</ele>
        <time>2018-08-01T12:32:32Z</time>
      </trkpt>
      <trkpt lat="47.25666" lon="6.93013">
        <ele>892.514</ele>
        <time>2018-08-01T12:32:35Z</time>
      </trkpt>
      <trkpt lat="47.2567" lon="6.9301">
        <ele>891.708</ele>
        <time>2018-08-01T12:32:37Z</time>
      </trkpt>
      <trkpt lat="47.25676" lon="6.93008">
        <ele>890.557</ele>
        <time>2018-08-01T12:32:40Z</time>
      </trkpt>
      <trkpt lat="47.25683" lon="6.93009">
        <ele>889.122</ele>
        <time>2018-08-01T12:32:43Z</time>
      </trkpt>
      <trkpt lat="47.25689" lon="6.93008">
        <ele>888.136</ele>
        <time>2018-08-01T12:32:45Z</time>
      </trkpt>
      <trkpt lat="47.25696" lon="6.93008">
        <ele>887.188</ele>
        <time>2018-08-01T12:32:47Z</time>
      </trkpt>
      <trkpt lat="47.25704" lon="6.93006">
        <ele>885.974</ele>
        <time>2018-08-01T12:32:49Z</time>
      </trkpt>
      <trkpt lat="47.25711" lon="6.93004">
        <ele>884.881</ele>
        <time>2018-08-01T12:32:51Z</time>
      </trkpt>
      <trkpt lat="47.25716" lon="6.93004">
        <ele>883.746</ele>
        <time>2018-08-01T12:32:53Z</time>
      </trkpt>
      <trkpt lat="47.25723" lon="6.93003">
        <ele>882.045</ele>
        <time>2018-08-01T12:32:56Z</time>
      </trkpt>
      <trkpt lat="47.25729" lon="6.93001">
        <ele>881.422</ele>
        <time>2018-08-01T12:32:58Z</time>
      </trkpt>
      <trkpt lat="47.25734" lon="6.92999">
        <ele>880.162</ele>
        <time>2018-08-01T12:33:00Z</time>
      </trkpt>
      <trkpt lat="47.25739" lon="6.92998">
        <ele>878.708</ele>
        <time>2018-08-01T12:33:02Z</time>
      </trkpt>
      <trkpt lat="47.25745" lon="6.92999">
        <ele>877.508</ele>
        <time>2018-08-01T12:33:04Z</time>
      </trkpt>
      <trkpt lat="47.25751" lon="6.92999">
        <ele>876.284</ele>
        <time>2018-08-01T12:33:06Z</time>
      </trkpt>
      <trkpt lat="47.25755" lon="6.93001">
        <ele>874.899</ele>
        <time>2018-08-01T12:33:08Z</time>
      </trkpt>
      <trkpt lat="47.25761" lon="6.93005">
        <ele>873.463</ele>
        <time>2018-08-01T12:33:10Z</time>
      </trkpt>
      <trkpt lat="47.25768" lon="6.93009">
        <ele>872.185</ele>
        <time>2018-08-01T12:33:12Z</time>
      </trkpt>
      <trkpt lat="47.25776" lon="6.93014">
        <ele>871.051</ele>
        <time>2018-08-01T12:33:14Z</time>
      </trkpt>
      <trkpt lat="47.25783" lon="6.9302">
        <ele>869.778</ele>
        <time>2018-08-01T12:33:16Z</time>
      </trkpt>
      <trkpt lat="47.25789" lon="6.93025">
        <ele>869.193</ele>
        <time>2018-08-01T12:33:17Z</time>
      </trkpt>
      <trkpt lat="47.25794" lon="6.93028">
        <ele>868.432</ele>
        <time>2018-08-01T12:33:18Z</time>
      </trkpt>
      <trkpt lat="47.25799" lon="6.93027">
        <ele>867.752</ele>
        <time>2018-08-01T12:33:19Z</time>
      </trkpt>
      <trkpt lat="47.25806" lon="6.93023">
        <ele>866.953</ele>
        <time>2018-08-01T12:33:21Z</time>
      </trkpt>
      <trkpt lat="47.25811" lon="6.93019">
        <ele>866.308</ele>
        <time>2018-08-01T12:33:22Z</time>
      </trkpt>
      <trkpt lat="47.25819" lon="6.93014">
        <ele>865.908</ele>
        <time>2018-08-01T12:33:23Z</time>
      </trkpt>
      <trkpt lat="47.25824" lon="6.93014">
        <ele>865.657</ele>
        <time>2018-08-01T12:33:24Z</time>
      </trkpt>
      <trkpt lat="47.25829" lon="6.93014">
        <ele>865.222</ele>
        <time>2018-08-01T12:33:26Z</time>
      </trkpt>
      <trkpt lat="47.25834" lon="6.93013">
        <ele>864.856</ele>
        <time>2018-08-01T12:33:28Z</time>
      </trkpt>
      <trkpt lat="47.25838" lon="6.9301">
        <ele>864.978</ele>
        <time>2018-08-01T12:33:30Z</time>
      </trkpt>
      <trkpt lat="47.25845" lon="6.9301">
        <ele>865.124</ele>
        <time>2018-08-01T12:33:32Z</time>
      </trkpt>
      <trkpt lat="47.2585" lon="6.93011">
        <ele>864.931</ele>
        <time>2018-08-01T12:33:35Z</time>
      </trkpt>
      <trkpt lat="47.25855" lon="6.9301">
        <ele>864.676</ele>
        <time>2018-08-01T12:33:37Z</time>
      </trkpt>
      <trkpt lat="47.2586" lon="6.9301">
        <ele>864.025</ele>
        <time>2018-08-01T12:33:39Z</time>
      </trkpt>
      <trkpt lat="47.25866" lon="6.93012">
        <ele>862.567</ele>
        <time>2018-08-01T12:34:04Z</time>
      </trkpt>
      <trkpt lat="47.25872" lon="6.93007">
        <ele>861.981</ele>
        <time>2018-08-01T12:34:08Z</time>
      </trkpt>
      <trkpt lat="47.25877" lon="6.93005">
        <ele>861.619</ele>
        <time>2018-08-01T12:34:09Z</time>
      </trkpt>
      <trkpt lat="47.25882" lon="6.93004">
        <ele>861.108</ele>
        <time>2018-08-01T12:34:10Z</time>
      </trkpt>
      <trkpt lat="47.25886" lon="6.93002">
        <ele>860.658</ele>
        <time>2018-08-01T12:34:11Z</time>
      </trkpt>
      <trkpt lat="47.25894" lon="6.93001">
        <ele>859.423</ele>
        <time>2018-08-01T12:34:13Z</time>
      </trkpt>
      <trkpt lat="47.25902" lon="6.93005">
        <ele>858.767</ele>
        <time>2018-08-01T12:34:14Z</time>
      </trkpt>
      <trkpt lat="47.25907" lon="6.93007">
        <ele>858.219</ele>
        <time>2018-08-01T12:34:15Z</time>
      </trkpt>
      <trkpt lat="47.25911" lon="6.93007">
        <ele>857.535</ele>
        <time>2018-08-01T12:34:16Z</time>
      </trkpt>
      <trkpt lat="47.25916" lon="6.93009">
        <ele>856.972</ele>
        <time>2018-08-01T12:34:17Z</time>
      </trkpt>
      <trkpt lat="47.25926" lon="6.9301">
        <ele>856.437</ele>
        <time>2018-08-01T12:34:19Z</time>
      </trkpt>
      <trkpt lat="47.25931" lon="6.93011">
        <ele>856.446</ele>
        <time>2018-08-01T12:34:20Z</time>
      </trkpt>
      <trkpt lat="47.25934" lon="6.93016">
        <ele>856.042</ele>
        <time>2018-08-01T12:34:21Z</time>
      </trkpt>
      <trkpt lat="47.2594" lon="6.9302">
        <ele>855.622</ele>
        <time>2018-08-01T12:34:23Z</time>
      </trkpt>
      <trkpt lat="47.25946" lon="6.93024">
        <ele>854.714</ele>
        <time>2018-08-01T12:34:25Z</time>
      </trkpt>
      <trkpt lat="47.25956" lon="6.93027">
        <ele>853.608</ele>
        <time>2018-08-01T12:34:27Z</time>
      </trkpt>
      <trkpt lat="47.25961" lon="6.93032">
        <ele>851.556</ele>
        <time>2018-08-01T12:34:30Z</time>
      </trkpt>
      <trkpt lat="47.25966" lon="6.93034">
        <ele>850.231</ele>
        <time>2018-08-01T12:34:32Z</time>
      </trkpt>
      <trkpt lat="47.25972" lon="6.93037">
        <ele>848.825</ele>
        <time>2018-08-01T12:34:34Z</time>
      </trkpt>
      <trkpt lat="47.25977" lon="6.93039">
        <ele>847.487</ele>
        <time>2018-08-01T12:34:36Z</time>
      </trkpt>
      <trkpt lat="47.25983" lon="6.93043">
        <ele>846.033</ele>
        <time>2018-08-01T12:34:38Z</time>
      </trkpt>
      <trkpt lat="47.2599" lon="6.93048">
        <ele>844.75</ele>
        <time>2018-08-01T12:34:40Z</time>
      </trkpt>
      <trkpt lat="47.25995" lon="6.93051">
        <ele>843.245</ele>
        <time>2018-08-01T12:34:42Z</time>
      </trkpt>
      <trkpt lat="47.26002" lon="6.93055">
        <ele>841.754</ele>
        <time>2018-08-01T12:34:44Z</time>
      </trkpt>
      <trkpt lat="47.26009" lon="6.93059">
        <ele>840.459</ele>
        <time>2018-08-01T12:34:46Z</time>
      </trkpt>
      <trkpt lat="47.26013" lon="6.93061">
        <ele>839.803</ele>
        <time>2018-08-01T12:34:47Z</time>
      </trkpt>
      <trkpt lat="47.26017" lon="6.93064">
        <ele>839.823</ele>
        <time>2018-08-01T12:34:48Z</time>
      </trkpt>
      <trkpt lat="47.26023" lon="6.93069">
        <ele>838.808</ele>
        <time>2018-08-01T12:34:50Z</time>
      </trkpt>
      <trkpt lat="47.26028" lon="6.93077">
        <ele>837.867</ele>
        <time>2018-08-01T12:34:52Z</time>
      </trkpt>
      <trkpt lat="47.26033" lon="6.93088">
        <ele>836.632</ele>
        <time>2018-08-01T12:34:54Z</time>
      </trkpt>
      <trkpt lat="47.26036" lon="6.93098">
        <ele>835.926</ele>
        <time>2018-08-01T12:34:55Z</time>
      </trkpt>
      <trkpt lat="47.26037" lon="6.93106">
        <ele>835.438</ele>
        <time>2018-08-01T12:34:56Z</time>
      </trkpt>
      <trkpt lat="47.2604" lon="6.93115">
        <ele>834.764</ele>
        <time>2018-08-01T12:34:57Z</time>
      </trkpt>
      <trkpt lat="47.26041" lon="6.93122">
        <ele>833.941</ele>
        <time>2018-08-01T12:34:58Z</time>
      </trkpt>
      <trkpt lat="47.26043" lon="6.93128">
        <ele>833.366</ele>
        <time>2018-08-01T12:34:59Z</time>
      </trkpt>
      <trkpt lat="47.26044" lon="6.93136">
        <ele>832.895</ele>
        <time>2018-08-01T12:35:00Z</time>
      </trkpt>
      <trkpt lat="47.26045" lon="6.93145">
        <ele>832.153</ele>
        <time>2018-08-01T12:35:01Z</time>
      </trkpt>
      <trkpt lat="47.2605" lon="6.9316">
        <ele>831.204</ele>
        <time>2018-08-01T12:35:03Z</time>
      </trkpt>
      <trkpt lat="47.26052" lon="6.93175">
        <ele>830.214</ele>
        <time>2018-08-01T12:35:05Z</time>
      </trkpt>
      <trkpt lat="47.26054" lon="6.93182">
        <ele>829.908</ele>
        <time>2018-08-01T12:35:06Z</time>
      </trkpt>
      <trkpt lat="47.26054" lon="6.93193">
        <ele>829.177</ele>
        <time>2018-08-01T12:35:08Z</time>
      </trkpt>
      <trkpt lat="47.26055" lon="6.932">
        <ele>828.682</ele>
        <time>2018-08-01T12:35:09Z</time>
      </trkpt>
      <trkpt lat="47.26056" lon="6.93208">
        <ele>828.176</ele>
        <time>2018-08-01T12:35:10Z</time>
      </trkpt>
      <trkpt lat="47.26059" lon="6.93215">
        <ele>827.588</ele>
        <time>2018-08-01T12:35:11Z</time>
      </trkpt>
      <trkpt lat="47.26062" lon="6.93224">
        <ele>826.914</ele>
        <time>2018-08-01T12:35:12Z</time>
      </trkpt>
      <trkpt lat="47.26064" lon="6.93231">
        <ele>826.411</ele>
        <time>2018-08-01T12:35:13Z</time>
      </trkpt>
      <trkpt lat="47.26067" lon="6.93237">
        <ele>826.046</ele>
        <time>2018-08-01T12:35:14Z</time>
      </trkpt>
      <trkpt lat="47.2607" lon="6.9325">
        <ele>825.485</ele>
        <time>2018-08-01T12:35:16Z</time>
      </trkpt>
      <trkpt lat="47.26076" lon="6.93256">
        <ele>824.647</ele>
        <time>2018-08-01T12:35:18Z</time>
      </trkpt>
      <trkpt lat="47.2608" lon="6.93261">
        <ele>824.129</ele>
        <time>2018-08-01T12:35:19Z</time>
      </trkpt>
      <trkpt lat="47.26085" lon="6.93265">
        <ele>823.421</ele>
        <time>2018-08-01T12:35:20Z</time>
      </trkpt>
      <trkpt lat="47.2609" lon="6.93267">
        <ele>823.008</ele>
        <time>2018-08-01T12:35:21Z</time>
      </trkpt>
      <trkpt lat="47.26096" lon="6.93271">
        <ele>822.426</ele>
        <time>2018-08-01T12:35:22Z</time>
      </trkpt>
      <trkpt lat="47.26102" lon="6.93276">
        <ele>821.781</ele>
        <time>2018-08-01T12:35:23Z</time>
      </trkpt>
      <trkpt lat="47.26108" lon="6.93279">
        <ele>820.985</ele>
        <time>2018-08-01T12:35:24Z</time>
      </trkpt>
      <trkpt lat="47.26118" lon="6.93283">
        <ele>820.437</ele>
        <time>2018-08-01T12:35:25Z</time>
      </trkpt>
      <trkpt lat="47.26122" lon="6.93287">
        <ele>819.883</ele>
        <time>2018-08-01T12:35:26Z</time>
      </trkpt>
      <trkpt lat="47.2613" lon="6.93293">
        <ele>819.06</ele>
        <time>2018-08-01T12:35:27Z</time>
      </trkpt>
      <trkpt lat="47.26135" lon="6.93301">
        <ele>818.365</ele>
        <time>2018-08-01T12:35:28Z</time>
      </trkpt>
      <trkpt lat="47.26143" lon="6.93305">
        <ele>817.834</ele>
        <time>2018-08-01T12:35:29Z</time>
      </trkpt>
      <trkpt lat="47.26152" lon="6.9331">
        <ele>817.161</ele>
        <time>2018-08-01T12:35:30Z</time>
      </trkpt>
      <trkpt lat="47.2616" lon="6.93316">
        <ele>816.621</ele>
        <time>2018-08-01T12:35:31Z</time>
      </trkpt>
      <trkpt lat="47.26166" lon="6.93322">
        <ele>816.413</ele>
        <time>2018-08-01T12:35:32Z</time>
      </trkpt>
      <trkpt lat="47.26171" lon="6.93329">
        <ele>815.908</ele>
        <time>2018-08-01T12:35:33Z</time>
      </trkpt>
      <trkpt lat="47.26178" lon="6.93336">
        <ele>815.318</ele>
        <time>2018-08-01T12:35:34Z</time>
      </trkpt>
      <trkpt lat="47.26185" lon="6.93341">
        <ele>814.883</ele>
        <time>2018-08-01T12:35:35Z</time>
      </trkpt>
      <trkpt lat="47.26192" lon="6.93345">
        <ele>814.187</ele>
        <time>2018-08-01T12:35:36Z</time>
      </trkpt>
      <trkpt lat="47.26198" lon="6.93353">
        <ele>813.439</ele>
        <time>2018-08-01T12:35:37Z</time>
      </trkpt>
      <trkpt lat="47.26202" lon="6.93362">
        <ele>813.025</ele>
        <time>2018-08-01T12:35:38Z</time>
      </trkpt>
      <trkpt lat="47.26207" lon="6.93368">
        <ele>812.762</ele>
        <time>2018-08-01T12:35:39Z</time>
      </trkpt>
      <trkpt lat="47.26213" lon="6.93377">
        <ele>812.227</ele>
        <time>2018-08-01T12:35:40Z</time>
      </trkpt>
      <trkpt lat="47.26218" lon="6.93382">
        <ele>811.956</ele>
        <time>2018-08-01T12:35:41Z</time>
      </trkpt>
      <trkpt lat="47.26224" lon="6.93388">
        <ele>811.456</ele>
        <time>2018-08-01T12:35:42Z</time>
      </trkpt>
      <trkpt lat="47.26228" lon="6.93395">
        <ele>810.859</ele>
        <time>2018-08-01T12:35:43Z</time>
      </trkpt>
      <trkpt lat="47.26233" lon="6.93404">
        <ele>810.814</ele>
        <time>2018-08-01T12:35:44Z</time>
      </trkpt>
      <trkpt lat="47.26237" lon="6.93412">
        <ele>810.408</ele>
        <time>2018-08-01T12:35:45Z</time>
      </trkpt>
      <trkpt lat="47.26242" lon="6.93421">
        <ele>810.247</ele>
        <time>2018-08-01T12:35:46Z</time>
      </trkpt>
      <trkpt lat="47.26246" lon="6.93429">
        <ele>809.882</ele>
        <time>2018-08-01T12:35:47Z</time>
      </trkpt>
      <trkpt lat="47.2625" lon="6.93436">
        <ele>809.716</ele>
        <time>2018-08-01T12:35:48Z</time>
      </trkpt>
      <trkpt lat="47.26253" lon="6.93443">
        <ele>809.588</ele>
        <time>2018-08-01T12:35:49Z</time>
      </trkpt>
      <trkpt lat="47.26257" lon="6.93451">
        <ele>808.874</ele>
        <time>2018-08-01T12:35:51Z</time>
      </trkpt>
      <trkpt lat="47.26262" lon="6.93449">
        <ele>806.831</ele>
        <time>2018-08-01T12:36:06Z</time>
      </trkpt>
      <trkpt lat="47.26264" lon="6.93457">
        <ele>806.576</ele>
        <time>2018-08-01T12:36:12Z</time>
      </trkpt>
      <trkpt lat="47.26267" lon="6.93462">
        <ele>805.925</ele>
        <time>2018-08-01T12:36:21Z</time>
      </trkpt>
      <trkpt lat="47.26269" lon="6.93469">
        <ele>805.232</ele>
        <time>2018-08-01T12:36:24Z</time>
      </trkpt>
      <trkpt lat="47.26271" lon="6.93477">
        <ele>803.492</ele>
        <time>2018-08-01T12:36:28Z</time>
      </trkpt>
      <trkpt lat="47.26273" lon="6.93483">
        <ele>801.811</ele>
        <time>2018-08-01T12:36:31Z</time>
      </trkpt>
      <trkpt lat="47.26276" lon="6.93491">
        <ele>800.208</ele>
        <time>2018-08-01T12:36:34Z</time>
      </trkpt>
      <trkpt lat="47.26278" lon="6.93497">
        <ele>798.245</ele>
        <time>2018-08-01T12:36:40Z</time>
      </trkpt>
      <trkpt lat="47.26282" lon="6.93502">
        <ele>797.86</ele>
        <time>2018-08-01T12:36:43Z</time>
      </trkpt>
      <trkpt lat="47.26285" lon="6.93508">
        <ele>797.344</ele>
        <time>2018-08-01T12:36:45Z</time>
      </trkpt>
      <trkpt lat="47.26287" lon="6.93515">
        <ele>796.086</ele>
        <time>2018-08-01T12:36:48Z</time>
      </trkpt>
      <trkpt lat="47.2629" lon="6.93521">
        <ele>794.982</ele>
        <time>2018-08-01T12:36:51Z</time>
      </trkpt>
      <trkpt lat="47.26292" lon="6.93527">
        <ele>794.369</ele>
        <time>2018-08-01T12:36:53Z</time>
      </trkpt>
      <trkpt lat="47.26294" lon="6.93535">
        <ele>793.624</ele>
        <time>2018-08-01T12:36:55Z</time>
      </trkpt>
      <trkpt lat="47.26295" lon="6.93542">
        <ele>792.773</ele>
        <time>2018-08-01T12:36:57Z</time>
      </trkpt>
      <trkpt lat="47.26298" lon="6.9355">
        <ele>791.852</ele>
        <time>2018-08-01T12:36:59Z</time>
      </trkpt>
      <trkpt lat="47.26301" lon="6.93557">
        <ele>791.053</ele>
        <time>2018-08-01T12:37:01Z</time>
      </trkpt>
      <trkpt lat="47.26304" lon="6.93565">
        <ele>789.808</ele>
        <time>2018-08-01T12:37:04Z</time>
      </trkpt>
      <trkpt lat="47.26306" lon="6.93571">
        <ele>789.108</ele>
        <time>2018-08-01T12:37:06Z</time>
      </trkpt>
      <trkpt lat="47.26309" lon="6.93577">
        <ele>788.867</ele>
        <time>2018-08-01T12:37:08Z</time>
      </trkpt>
      <trkpt lat="47.26312" lon="6.93584">
        <ele>788.042</ele>
        <time>2018-08-01T12:37:10Z</time>
      </trkpt>
      <trkpt lat="47.26316" lon="6.93592">
        <ele>786.986</ele>
        <time>2018-08-01T12:37:12Z</time>
      </trkpt>
      <trkpt lat="47.26321" lon="6.93603">
        <ele>785.768</ele>
        <time>2018-08-01T12:37:14Z</time>
      </trkpt>
      <trkpt lat="47.26324" lon="6.93612">
        <ele>784.594</ele>
        <time>2018-08-01T12:37:16Z</time>
      </trkpt>
      <trkpt lat="47.26327" lon="6.93622">
        <ele>783.451</ele>
        <time>2018-08-01T12:37:18Z</time>
      </trkpt>
      <trkpt lat="47.2633" lon="6.93629">
        <ele>782.666</ele>
        <time>2018-08-01T12:37:20Z</time>
      </trkpt>
      <trkpt lat="47.26333" lon="6.93636">
        <ele>781.975</ele>
        <time>2018-08-01T12:37:22Z</time>
      </trkpt>
      <trkpt lat="47.26336" lon="6.93643">
        <ele>780.988</ele>
        <time>2018-08-01T12:37:24Z</time>
      </trkpt>
      <trkpt lat="47.26339" lon="6.9365">
        <ele>780.024</ele>
        <time>2018-08-01T12:37:26Z</time>
      </trkpt>
      <trkpt lat="47.26341" lon="6.93658">
        <ele>779.026</ele>
        <time>2018-08-01T12:37:28Z</time>
      </trkpt>
      <trkpt lat="47.26343" lon="6.93667">
        <ele>777.908</ele>
        <time>2018-08-01T12:37:30Z</time>
      </trkpt>
      <trkpt lat="47.26345" lon="6.93676">
        <ele>776.53</ele>
        <time>2018-08-01T12:37:32Z</time>
      </trkpt>
      <trkpt lat="47.26346" lon="6.93685">
        <ele>774.965</ele>
        <time>2018-08-01T12:37:34Z</time>
      </trkpt>
      <trkpt lat="47.2634" lon="6.93685">
        <ele>772.559</ele>
        <time>2018-08-01T12:37:50Z</time>
      </trkpt>
      <trkpt lat="47.26342" lon="6.93692">
        <ele>772.361</ele>
        <time>2018-08-01T12:37:55Z</time>
      </trkpt>
      <trkpt lat="47.26342" lon="6.93708">
        <ele>771.977</ele>
        <time>2018-08-01T12:37:57Z</time>
      </trkpt>
      <trkpt lat="47.26341" lon="6.93717">
        <ele>771.634</ele>
        <time>2018-08-01T12:37:58Z</time>
      </trkpt>
      <trkpt lat="47.2634" lon="6.93726">
        <ele>771.059</ele>
        <time>2018-08-01T12:37:59Z</time>
      </trkpt>
      <trkpt lat="47.2634" lon="6.93734">
        <ele>770.498</ele>
        <time>2018-08-01T12:38:00Z</time>
      </trkpt>
      <trkpt lat="47.26339" lon="6.93742">
        <ele>769.587</ele>
        <time>2018-08-01T12:38:01Z</time>
      </trkpt>
      <trkpt lat="47.26339" lon="6.93749">
        <ele>769.542</ele>
        <time>2018-08-01T12:38:02Z</time>
      </trkpt>
      <trkpt lat="47.26341" lon="6.93763">
        <ele>767.426</ele>
        <time>2018-08-01T12:38:04Z</time>
      </trkpt>
      <trkpt lat="47.26344" lon="6.93771">
        <ele>766.208</ele>
        <time>2018-08-01T12:38:05Z</time>
      </trkpt>
      <trkpt lat="47.26348" lon="6.93779">
        <ele>765.18</ele>
        <time>2018-08-01T12:38:06Z</time>
      </trkpt>
      <trkpt lat="47.26352" lon="6.93786">
        <ele>764.125</ele>
        <time>2018-08-01T12:38:07Z</time>
      </trkpt>
      <trkpt lat="47.26356" lon="6.93793">
        <ele>763.039</ele>
        <time>2018-08-01T12:38:08Z</time>
      </trkpt>
      <trkpt lat="47.26359" lon="6.93801">
        <ele>762.051</ele>
        <time>2018-08-01T12:38:09Z</time>
      </trkpt>
      <trkpt lat="47.26363" lon="6.93809">
        <ele>761.177</ele>
        <time>2018-08-01T12:38:10Z</time>
      </trkpt>
      <trkpt lat="47.26365" lon="6.93816">
        <ele>760.124</ele>
        <time>2018-08-01T12:38:11Z</time>
      </trkpt>
      <trkpt lat="47.26369" lon="6.93824">
        <ele>759.359</ele>
        <time>2018-08-01T12:38:12Z</time>
      </trkpt>
      <trkpt lat="47.26373" lon="6.93831">
        <ele>758.558</ele>
        <time>2018-08-01T12:38:13Z</time>
      </trkpt>
      <trkpt lat="47.26377" lon="6.93838">
        <ele>757.827</ele>
        <time>2018-08-01T12:38:14Z</time>
      </trkpt>
      <trkpt lat="47.2638" lon="6.93846">
        <ele>757.168</ele>
        <time>2018-08-01T12:38:15Z</time>
      </trkpt>
      <trkpt lat="47.26385" lon="6.93855">
        <ele>756.314</ele>
        <time>2018-08-01T12:38:16Z</time>
      </trkpt>
      <trkpt lat="47.26391" lon="6.93862">
        <ele>755.508</ele>
        <time>2018-08-01T12:38:17Z</time>
      </trkpt>
      <trkpt lat="47.26397" lon="6.93869">
        <ele>754.894</ele>
        <time>2018-08-01T12:38:18Z</time>
      </trkpt>
      <trkpt lat="47.26402" lon="6.93874">
        <ele>753.989</ele>
        <time>2018-08-01T12:38:19Z</time>
      </trkpt>
      <trkpt lat="47.26407" lon="6.93879">
        <ele>752.983</ele>
        <time>2018-08-01T12:38:20Z</time>
      </trkpt>
      <trkpt lat="47.26411" lon="6.93883">
        <ele>751.865</ele>
        <time>2018-08-01T12:38:21Z</time>
      </trkpt>
      <trkpt lat="47.26416" lon="6.93887">
        <ele>750.831</ele>
        <time>2018-08-01T12:38:22Z</time>
      </trkpt>
      <trkpt lat="47.2642" lon="6.9389">
        <ele>749.898</ele>
        <time>2018-08-01T12:38:23Z</time>
      </trkpt>
      <trkpt lat="47.26427" lon="6.93893">
        <ele>747.773</ele>
        <time>2018-08-01T12:38:26Z</time>
      </trkpt>
      <trkpt lat="47.26431" lon="6.93899">
        <ele>746.992</ele>
        <time>2018-08-01T12:38:28Z</time>
      </trkpt>
      <trkpt lat="47.26431" lon="6.93906">
        <ele>746.266</ele>
        <time>2018-08-01T12:38:31Z</time>
      </trkpt>
      <trkpt lat="47.26426" lon="6.9391">
        <ele>745.429</ele>
        <time>2018-08-01T12:38:34Z</time>
      </trkpt>
      <trkpt lat="47.2642" lon="6.9391">
        <ele>744.921</ele>
        <time>2018-08-01T12:38:37Z</time>
      </trkpt>
      <trkpt lat="47.26413" lon="6.9391">
        <ele>744.608</ele>
        <time>2018-08-01T12:38:39Z</time>
      </trkpt>
      <trkpt lat="47.26405" lon="6.93908">
        <ele>744.438</ele>
        <time>2018-08-01T12:38:41Z</time>
      </trkpt>
      <trkpt lat="47.26396" lon="6.93906">
        <ele>744.223</ele>
        <time>2018-08-01T12:38:43Z</time>
      </trkpt>
      <trkpt lat="47.26388" lon="6.93903">
        <ele>743.797</ele>
        <time>2018-08-01T12:38:45Z</time>
      </trkpt>
      <trkpt lat="47.26382" lon="6.939">
        <ele>743.559</ele>
        <time>2018-08-01T12:38:47Z</time>
      </trkpt>
      <trkpt lat="47.26378" lon="6.93896">
        <ele>743.485</ele>
        <time>2018-08-01T12:38:49Z</time>
      </trkpt>
      <trkpt lat="47.26375" lon="6.9389">
        <ele>743.622</ele>
        <time>2018-08-01T12:38:51Z</time>
      </trkpt>
      <trkpt lat="47.2637" lon="6.93884">
        <ele>743.637</ele>
        <time>2018-08-01T12:38:53Z</time>
      </trkpt>
      <trkpt lat="47.26365" lon="6.93877">
        <ele>743.646</ele>
        <time>2018-08-01T12:38:55Z</time>
      </trkpt>
      <trkpt lat="47.2636" lon="6.93871">
        <ele>743.552</ele>
        <time>2018-08-01T12:38:57Z</time>
      </trkpt>
      <trkpt lat="47.26354" lon="6.93864">
        <ele>743.453</ele>
        <time>2018-08-01T12:38:59Z</time>
      </trkpt>
      <trkpt lat="47.26348" lon="6.93857">
        <ele>743.008</ele>
        <time>2018-08-01T12:39:01Z</time>
      </trkpt>
      <trkpt lat="47.26342" lon="6.93849">
        <ele>742.708</ele>
        <time>2018-08-01T12:39:03Z</time>
      </trkpt>
      <trkpt lat="47.26336" lon="6.93842">
        <ele>742.637</ele>
        <time>2018-08-01T12:39:05Z</time>
      </trkpt>
      <trkpt lat="47.26332" lon="6.93846">
        <ele>742.722</ele>
        <time>2018-08-01T12:39:08Z</time>
      </trkpt>
      <trkpt lat="47.26335" lon="6.93853">
        <ele>742.416</ele>
        <time>2018-08-01T12:39:10Z</time>
      </trkpt>
      <trkpt lat="47.26339" lon="6.93861">
        <ele>741.878</ele>
        <time>2018-08-01T12:39:12Z</time>
      </trkpt>
      <trkpt lat="47.26343" lon="6.93869">
        <ele>740.884</ele>
        <time>2018-08-01T12:39:14Z</time>
      </trkpt>
      <trkpt lat="47.26348" lon="6.93884">
        <ele>739.881</ele>
        <time>2018-08-01T12:39:16Z</time>
      </trkpt>
      <trkpt lat="47.26352" lon="6.93896">
        <ele>738.726</ele>
        <time>2018-08-01T12:39:18Z</time>
      </trkpt>
      <trkpt lat="47.26356" lon="6.93907">
        <ele>737.555</ele>
        <time>2018-08-01T12:39:20Z</time>
      </trkpt>
      <trkpt lat="47.26358" lon="6.93914">
        <ele>736.938</ele>
        <time>2018-08-01T12:39:21Z</time>
      </trkpt>
      <trkpt lat="47.2636" lon="6.93922">
        <ele>736.47</ele>
        <time>2018-08-01T12:39:22Z</time>
      </trkpt>
      <trkpt lat="47.26365" lon="6.9393">
        <ele>735.417</ele>
        <time>2018-08-01T12:39:24Z</time>
      </trkpt>
      <trkpt lat="47.26366" lon="6.9394">
        <ele>734.208</ele>
        <time>2018-08-01T12:39:26Z</time>
      </trkpt>
      <trkpt lat="47.26369" lon="6.93944">
        <ele>733.675</ele>
        <time>2018-08-01T12:39:28Z</time>
      </trkpt>
      <trkpt lat="47.26372" lon="6.93953">
        <ele>732.16</ele>
        <time>2018-08-01T12:39:30Z</time>
      </trkpt>
      <trkpt lat="47.26374" lon="6.9396">
        <ele>730.674</ele>
        <time>2018-08-01T12:39:32Z</time>
      </trkpt>
      <trkpt lat="47.26377" lon="6.93968">
        <ele>728.496</ele>
        <time>2018-08-01T12:39:35Z</time>
      </trkpt>
      <trkpt lat="47.2638" lon="6.93974">
        <ele>726.732</ele>
        <time>2018-08-01T12:39:38Z</time>
      </trkpt>
      <trkpt lat="47.26384" lon="6.9398">
        <ele>725.239</ele>
        <time>2018-08-01T12:39:56Z</time>
      </trkpt>
      <trkpt lat="47.26386" lon="6.93987">
        <ele>723.764</ele>
        <time>2018-08-01T12:40:14Z</time>
      </trkpt>
      <trkpt lat="47.26392" lon="6.93989">
        <ele>722.953</ele>
        <time>2018-08-01T12:40:46Z</time>
      </trkpt>
      <trkpt lat="47.26396" lon="6.93995">
        <ele>722.559</ele>
        <time>2018-08-01T12:40:48Z</time>
      </trkpt>
      <trkpt lat="47.26399" lon="6.94001">
        <ele>721.303</ele>
        <time>2018-08-01T12:40:50Z</time>
      </trkpt>
      <trkpt lat="47.26403" lon="6.94008">
        <ele>719.123</ele>
        <time>2018-08-01T12:40:53Z</time>
      </trkpt>
      <trkpt lat="47.26406" lon="6.94017">
        <ele>717.608</ele>
        <time>2018-08-01T12:40:55Z</time>
      </trkpt>
      <trkpt lat="47.26413" lon="6.94031">
        <ele>715.967</ele>
        <time>2018-08-01T12:40:57Z</time>
      </trkpt>
      <trkpt lat="47.26417" lon="6.94039">
        <ele>715.082</ele>
        <time>2018-08-01T12:40:58Z</time>
      </trkpt>
      <trkpt lat="47.26421" lon="6.9405">
        <ele>713.246</ele>
        <time>2018-08-01T12:41:00Z</time>
      </trkpt>
      <trkpt lat="47.26423" lon="6.94059">
        <ele>712.318</ele>
        <time>2018-08-01T12:41:01Z</time>
      </trkpt>
      <trkpt lat="47.26428" lon="6.94069">
        <ele>710.414</ele>
        <time>2018-08-01T12:41:03Z</time>
      </trkpt>
      <trkpt lat="47.26432" lon="6.94076">
        <ele>709.561</ele>
        <time>2018-08-01T12:41:04Z</time>
      </trkpt>
      <trkpt lat="47.26436" lon="6.94082">
        <ele>708.566</ele>
        <time>2018-08-01T12:41:05Z</time>
      </trkpt>
      <trkpt lat="47.2644" lon="6.94088">
        <ele>707.615</ele>
        <time>2018-08-01T12:41:06Z</time>
      </trkpt>
      <trkpt lat="47.26443" lon="6.94094">
        <ele>706.836</ele>
        <time>2018-08-01T12:41:07Z</time>
      </trkpt>
      <trkpt lat="47.26445" lon="6.94102">
        <ele>705.917</ele>
        <time>2018-08-01T12:41:08Z</time>
      </trkpt>
      <trkpt lat="47.26448" lon="6.94112">
        <ele>704.318</ele>
        <time>2018-08-01T12:41:10Z</time>
      </trkpt>
      <trkpt lat="47.26451" lon="6.94116">
        <ele>703.508</ele>
        <time>2018-08-01T12:41:11Z</time>
      </trkpt>
      <trkpt lat="47.26455" lon="6.94125">
        <ele>702.035</ele>
        <time>2018-08-01T12:41:13Z</time>
      </trkpt>
      <trkpt lat="47.26455" lon="6.94133">
        <ele>701.05</ele>
        <time>2018-08-01T12:41:14Z</time>
      </trkpt>
      <trkpt lat="47.26455" lon="6.9414">
        <ele>700.054</ele>
        <time>2018-08-01T12:41:15Z</time>
      </trkpt>
      <trkpt lat="47.26457" lon="6.94146">
        <ele>699.246</ele>
        <time>2018-08-01T12:41:16Z</time>
      </trkpt>
      <trkpt lat="47.26459" lon="6.94154">
        <ele>699.292</ele>
        <time>2018-08-01T12:41:17Z</time>
      </trkpt>
      <trkpt lat="47.26461" lon="6.94167">
        <ele>697.379</ele>
        <time>2018-08-01T12:41:19Z</time>
      </trkpt>
      <trkpt lat="47.26466" lon="6.94173">
        <ele>696.594</ele>
        <time>2018-08-01T12:41:20Z</time>
      </trkpt>
      <trkpt lat="47.26468" lon="6.94182">
        <ele>695.723</ele>
        <time>2018-08-01T12:41:21Z</time>
      </trkpt>
      <trkpt lat="47.2647" lon="6.94188">
        <ele>694.755</ele>
        <time>2018-08-01T12:41:22Z</time>
      </trkpt>
      <trkpt lat="47.26471" lon="6.94195">
        <ele>693.907</ele>
        <time>2018-08-01T12:41:23Z</time>
      </trkpt>
      <trkpt lat="47.26474" lon="6.94205">
        <ele>692.017</ele>
        <time>2018-08-01T12:41:25Z</time>
      </trkpt>
      <trkpt lat="47.26476" lon="6.94217">
        <ele>690.308</ele>
        <time>2018-08-01T12:41:27Z</time>
      </trkpt>
      <trkpt lat="47.26479" lon="6.94222">
        <ele>688.717</ele>
        <time>2018-08-01T12:41:29Z</time>
      </trkpt>
      <trkpt lat="47.26481" lon="6.94235">
        <ele>687.332</ele>
        <time>2018-08-01T12:41:31Z</time>
      </trkpt>
      <trkpt lat="47.26483" lon="6.94249">
        <ele>685.766</ele>
        <time>2018-08-01T12:41:33Z</time>
      </trkpt>
      <trkpt lat="47.26484" lon="6.94256">
        <ele>684.978</ele>
        <time>2018-08-01T12:41:34Z</time>
      </trkpt>
      <trkpt lat="47.26483" lon="6.94263">
        <ele>684.054</ele>
        <time>2018-08-01T12:41:35Z</time>
      </trkpt>
      <trkpt lat="47.26483" lon="6.94269">
        <ele>683.221</ele>
        <time>2018-08-01T12:41:36Z</time>
      </trkpt>
      <trkpt lat="47.26486" lon="6.94279">
        <ele>681.756</ele>
        <time>2018-08-01T12:41:38Z</time>
      </trkpt>
      <trkpt lat="47.26488" lon="6.94288">
        <ele>680.365</ele>
        <time>2018-08-01T12:41:40Z</time>
      </trkpt>
      <trkpt lat="47.26492" lon="6.94297">
        <ele>678.963</ele>
        <time>2018-08-01T12:41:42Z</time>
      </trkpt>
      <trkpt lat="47.26496" lon="6.94307">
        <ele>677.344</ele>
        <time>2018-08-01T12:41:44Z</time>
      </trkpt>
      <trkpt lat="47.265" lon="6.94316">
        <ele>676.618</ele>
        <time>2018-08-01T12:41:46Z</time>
      </trkpt>
      <trkpt lat="47.26498" lon="6.94326">
        <ele>675.608</ele>
        <time>2018-08-01T12:41:47Z</time>
      </trkpt>
      <trkpt lat="47.26497" lon="6.94333">
        <ele>674.778</ele>
        <time>2018-08-01T12:41:48Z</time>
      </trkpt>
      <trkpt lat="47.26502" lon="6.94336">
        <ele>673.123</ele>
        <time>2018-08-01T12:41:50Z</time>
      </trkpt>
      <trkpt lat="47.26504" lon="6.94342">
        <ele>671.087</ele>
        <time>2018-08-01T12:41:53Z</time>
      </trkpt>
      <trkpt lat="47.26498" lon="6.94345">
        <ele>669.169</ele>
        <time>2018-08-01T12:41:57Z</time>
      </trkpt>
      <trkpt lat="47.26491" lon="6.94342">
        <ele>667.855</ele>
        <time>2018-08-01T12:42:00Z</time>
      </trkpt>
      <trkpt lat="47.26484" lon="6.94339">
        <ele>666.982</ele>
        <time>2018-08-01T12:42:02Z</time>
      </trkpt>
      <trkpt lat="47.26477" lon="6.94339">
        <ele>666.217</ele>
        <time>2018-08-01T12:42:04Z</time>
      </trkpt>
      <trkpt lat="47.26471" lon="6.94339">
        <ele>665.526</ele>
        <time>2018-08-01T12:42:06Z</time>
      </trkpt>
      <trkpt lat="47.26465" lon="6.94336">
        <ele>664.715</ele>
        <time>2018-08-01T12:42:08Z</time>
      </trkpt>
      <trkpt lat="47.26461" lon="6.94332">
        <ele>663.765</ele>
        <time>2018-08-01T12:42:11Z</time>
      </trkpt>
      <trkpt lat="47.26456" lon="6.94329">
        <ele>663.111</ele>
        <time>2018-08-01T12:42:15Z</time>
      </trkpt>
      <trkpt lat="47.26451" lon="6.94328">
        <ele>661.908</ele>
        <time>2018-08-01T12:42:19Z</time>
      </trkpt>
      <trkpt lat="47.26445" lon="6.94329">
        <ele>660.943</ele>
        <time>2018-08-01T12:42:21Z</time>
      </trkpt>
      <trkpt lat="47.26438" lon="6.94331">
        <ele>659.588</ele>
        <time>2018-08-01T12:42:23Z</time>
      </trkpt>
      <trkpt lat="47.26433" lon="6.94333">
        <ele>658.042</ele>
        <time>2018-08-01T12:42:25Z</time>
      </trkpt>
      <trkpt lat="47.26428" lon="6.94334">
        <ele>656.724</ele>
        <time>2018-08-01T12:42:27Z</time>
      </trkpt>
      <trkpt lat="47.26423" lon="6.94338">
        <ele>655.76</ele>
        <time>2018-08-01T12:42:29Z</time>
      </trkpt>
      <trkpt lat="47.26419" lon="6.94341">
        <ele>654.887</ele>
        <time>2018-08-01T12:42:31Z</time>
      </trkpt>
      <trkpt lat="47.26417" lon="6.9435">
        <ele>653.442</ele>
        <time>2018-08-01T12:42:34Z</time>
      </trkpt>
      <trkpt lat="47.26418" lon="6.94359">
        <ele>651.931</ele>
        <time>2018-08-01T12:42:37Z</time>
      </trkpt>
      <trkpt lat="47.26421" lon="6.94367">
        <ele>650.848</ele>
        <time>2018-08-01T12:42:39Z</time>
      </trkpt>
      <trkpt lat="47.26425" lon="6.94377">
        <ele>650.261</ele>
        <time>2018-08-01T12:42:41Z</time>
      </trkpt>
      <trkpt lat="47.26429" lon="6.94387">
        <ele>648.817</ele>
        <time>2018-08-01T12:42:43Z</time>
      </trkpt>
      <trkpt lat="47.26433" lon="6.94397">
        <ele>647.208</ele>
        <time>2018-08-01T12:42:45Z</time>
      </trkpt>
      <trkpt lat="47.26436" lon="6.94406">
        <ele>645.546</ele>
        <time>2018-08-01T12:42:47Z</time>
      </trkpt>
      <trkpt lat="47.2644" lon="6.94415">
        <ele>644.161</ele>
        <time>2018-08-01T12:42:49Z</time>
      </trkpt>
      <trkpt lat="47.26444" lon="6.94425">
        <ele>642.765</ele>
        <time>2018-08-01T12:42:51Z</time>
      </trkpt>
      <trkpt lat="47.26449" lon="6.94434">
        <ele>641.337</ele>
        <time>2018-08-01T12:42:53Z</time>
      </trkpt>
      <trkpt lat="47.26454" lon="6.9444">
        <ele>639.843</ele>
        <time>2018-08-01T12:42:55Z</time>
      </trkpt>
      <trkpt lat="47.26458" lon="6.94445">
        <ele>638.46</ele>
        <time>2018-08-01T12:42:57Z</time>
      </trkpt>
      <trkpt lat="47.26464" lon="6.9445">
        <ele>637.185</ele>
        <time>2018-08-01T12:42:59Z</time>
      </trkpt>
      <trkpt lat="47.2647" lon="6.94455">
        <ele>635.874</ele>
        <time>2018-08-01T12:43:01Z</time>
      </trkpt>
      <trkpt lat="47.26476" lon="6.9446">
        <ele>634.255</ele>
        <time>2018-08-01T12:43:03Z</time>
      </trkpt>
      <trkpt lat="47.26483" lon="6.94464">
        <ele>632.507</ele>
        <time>2018-08-01T12:43:05Z</time>
      </trkpt>
      <trkpt lat="47.26489" lon="6.94469">
        <ele>630.917</ele>
        <time>2018-08-01T12:43:07Z</time>
      </trkpt>
      <trkpt lat="47.26495" lon="6.94474">
        <ele>630.208</ele>
        <time>2018-08-01T12:43:09Z</time>
      </trkpt>
      <trkpt lat="47.26501" lon="6.9448">
        <ele>628.717</ele>
        <time>2018-08-01T12:43:11Z</time>
      </trkpt>
      <trkpt lat="47.26507" lon="6.94485">
        <ele>627.242</ele>
        <time>2018-08-01T12:43:13Z</time>
      </trkpt>
      <trkpt lat="47.26513" lon="6.94488">
        <ele>625.786</ele>
        <time>2018-08-01T12:43:15Z</time>
      </trkpt>
      <trkpt lat="47.2652" lon="6.94491">
        <ele>624.458</ele>
        <time>2018-08-01T12:43:17Z</time>
      </trkpt>
      <trkpt lat="47.26527" lon="6.94498">
        <ele>623.224</ele>
        <time>2018-08-01T12:43:19Z</time>
      </trkpt>
      <trkpt lat="47.26534" lon="6.94506">
        <ele>621.991</ele>
        <time>2018-08-01T12:43:21Z</time>
      </trkpt>
      <trkpt lat="47.2654" lon="6.94515">
        <ele>620.586</ele>
        <time>2018-08-01T12:43:23Z</time>
      </trkpt>
      <trkpt lat="47.26545" lon="6.94525">
        <ele>619.345</ele>
        <time>2018-08-01T12:43:25Z</time>
      </trkpt>
      <trkpt lat="47.26552" lon="6.94534">
        <ele>618.063</ele>
        <time>2018-08-01T12:43:27Z</time>
      </trkpt>
      <trkpt lat="47.26557" lon="6.94542">
        <ele>616.844</ele>
        <time>2018-08-01T12:43:29Z</time>
      </trkpt>
      <trkpt lat="47.26562" lon="6.94549">
        <ele>615.618</ele>
        <time>2018-08-01T12:43:31Z</time>
      </trkpt>
      <trkpt lat="47.26567" lon="6.94556">
        <ele>614.408</ele>
        <time>2018-08-01T12:43:33Z</time>
      </trkpt>
      <trkpt lat="47.26571" lon="6.94565">
        <ele>613.878</ele>
        <time>2018-08-01T12:43:35Z</time>
      </trkpt>
      <trkpt lat="47.26571" lon="6.94574">
        <ele>613.173</ele>
        <time>2018-08-01T12:43:36Z</time>
      </trkpt>
      <trkpt lat="47.26571" lon="6.94584">
        <ele>612.467</ele>
        <time>2018-08-01T12:43:37Z</time>
      </trkpt>
      <trkpt lat="47.26569" lon="6.94602">
        <ele>610.859</ele>
        <time>2018-08-01T12:43:39Z</time>
      </trkpt>
      <trkpt lat="47.26568" lon="6.94609">
        <ele>610.045</ele>
        <time>2018-08-01T12:43:40Z</time>
      </trkpt>
      <trkpt lat="47.26566" lon="6.94615">
        <ele>609.382</ele>
        <time>2018-08-01T12:43:41Z</time>
      </trkpt>
      <trkpt lat="47.26569" lon="6.9461">
        <ele>608.157</ele>
        <time>2018-08-01T12:43:43Z</time>
      </trkpt>
      <trkpt lat="47.26566" lon="6.94616">
        <ele>606.776</ele>
        <time>2018-08-01T12:43:56Z</time>
      </trkpt>
      <trkpt lat="47.26563" lon="6.9461">
        <ele>606.556</ele>
        <time>2018-08-01T12:43:59Z</time>
      </trkpt>
      <trkpt lat="47.26564" lon="6.94602">
        <ele>606.459</ele>
        <time>2018-08-01T12:44:01Z</time>
      </trkpt>
      <trkpt lat="47.26562" lon="6.94596">
        <ele>606.414</ele>
        <time>2018-08-01T12:44:03Z</time>
      </trkpt>
      <trkpt lat="47.26557" lon="6.9459">
        <ele>606.308</ele>
        <time>2018-08-01T12:44:05Z</time>
      </trkpt>
      <trkpt lat="47.2655" lon="6.94584">
        <ele>605.927</ele>
        <time>2018-08-01T12:44:07Z</time>
      </trkpt>
      <trkpt lat="47.26543" lon="6.94577">
        <ele>605.382</ele>
        <time>2018-08-01T12:44:09Z</time>
      </trkpt>
      <trkpt lat="47.26539" lon="6.94574">
        <ele>605.276</ele>
        <time>2018-08-01T12:44:10Z</time>
      </trkpt>
      <trkpt lat="47.26529" lon="6.94571">
        <ele>604.788</ele>
        <time>2018-08-01T12:44:12Z</time>
      </trkpt>
      <trkpt lat="47.2652" lon="6.9457">
        <ele>604.314</ele>
        <time>2018-08-01T12:44:14Z</time>
      </trkpt>
      <trkpt lat="47.26513" lon="6.94572">
        <ele>604.011</ele>
        <time>2018-08-01T12:44:15Z</time>
      </trkpt>
      <trkpt lat="47.26507" lon="6.94572">
        <ele>603.746</ele>
        <time>2018-08-01T12:44:16Z</time>
      </trkpt>
      <trkpt lat="47.26502" lon="6.94573">
        <ele>603.575</ele>
        <time>2018-08-01T12:44:17Z</time>
      </trkpt>
      <trkpt lat="47.26496" lon="6.94576">
        <ele>603.278</ele>
        <time>2018-08-01T12:44:18Z</time>
      </trkpt>
      <trkpt lat="47.26491" lon="6.94579">
        <ele>602.933</ele>
        <time>2018-08-01T12:44:19Z</time>
      </trkpt>
      <trkpt lat="47.26486" lon="6.94583">
        <ele>602.626</ele>
        <time>2018-08-01T12:44:20Z</time>
      </trkpt>
      <trkpt lat="47.2648" lon="6.94586">
        <ele>602.408</ele>
        <time>2018-08-01T12:44:21Z</time>
      </trkpt>
      <trkpt lat="47.26471" lon="6.94589">
        <ele>602.279</ele>
        <time>2018-08-01T12:44:22Z</time>
      </trkpt>
      <trkpt lat="47.26463" lon="6.9459">
        <ele>601.824</ele>
        <time>2018-08-01T12:44:23Z</time>
      </trkpt>
      <trkpt lat="47.26455" lon="6.94593">
        <ele>601.498</ele>
        <time>2018-08-01T12:44:24Z</time>
      </trkpt>
      <trkpt lat="47.26447" lon="6.94595">
        <ele>600.95</ele>
        <time>2018-08-01T12:44:25Z</time>
      </trkpt>
      <trkpt lat="47.26441" lon="6.94594">
        <ele>600.246</ele>
        <time>2018-08-01T12:44:26Z</time>
      </trkpt>
      <trkpt lat="47.26434" lon="6.94595">
        <ele>599.563</ele>
        <time>2018-08-01T12:44:27Z</time>
      </trkpt>
      <trkpt lat="47.26428" lon="6.94599">
        <ele>598.828</ele>
        <time>2018-08-01T12:44:28Z</time>
      </trkpt>
      <trkpt lat="47.26421" lon="6.94602">
        <ele>598.237</ele>
        <time>2018-08-01T12:44:29Z</time>
      </trkpt>
      <trkpt lat="47.26413" lon="6.94605">
        <ele>597.785</ele>
        <time>2018-08-01T12:44:30Z</time>
      </trkpt>
      <trkpt lat="47.26406" lon="6.9461">
        <ele>597.389</ele>
        <time>2018-08-01T12:44:31Z</time>
      </trkpt>
      <trkpt lat="47.26399" lon="6.94614">
        <ele>597.317</ele>
        <time>2018-08-01T12:44:32Z</time>
      </trkpt>
      <trkpt lat="47.2639" lon="6.94618">
        <ele>596.908</ele>
        <time>2018-08-01T12:44:33Z</time>
      </trkpt>
      <trkpt lat="47.26381" lon="6.94623">
        <ele>596.54</ele>
        <time>2018-08-01T12:44:34Z</time>
      </trkpt>
      <trkpt lat="47.26373" lon="6.94626">
        <ele>596.155</ele>
        <time>2018-08-01T12:44:35Z</time>
      </trkpt>
      <trkpt lat="47.26364" lon="6.94627">
        <ele>595.769</ele>
        <time>2018-08-01T12:44:36Z</time>
      </trkpt>
      <trkpt lat="47.26353" lon="6.94626">
        <ele>595.371</ele>
        <time>2018-08-01T12:44:37Z</time>
      </trkpt>
      <trkpt lat="47.26345" lon="6.94623">
        <ele>595.157</ele>
        <time>2018-08-01T12:44:38Z</time>
      </trkpt>
      <trkpt lat="47.26334" lon="6.94622">
        <ele>594.924</ele>
        <time>2018-08-01T12:44:39Z</time>
      </trkpt>
      <trkpt lat="47.26324" lon="6.94619">
        <ele>594.589</ele>
        <time>2018-08-01T12:44:40Z</time>
      </trkpt>
      <trkpt lat="47.26313" lon="6.94618">
        <ele>594.088</ele>
        <time>2018-08-01T12:44:41Z</time>
      </trkpt>
      <trkpt lat="47.26303" lon="6.94616">
        <ele>593.464</ele>
        <time>2018-08-01T12:44:42Z</time>
      </trkpt>
      <trkpt lat="47.26293" lon="6.94612">
        <ele>592.706</ele>
        <time>2018-08-01T12:44:43Z</time>
      </trkpt>
      <trkpt lat="47.26282" lon="6.94608">
        <ele>592.316</ele>
        <time>2018-08-01T12:44:44Z</time>
      </trkpt>
      <trkpt lat="47.26272" lon="6.94603">
        <ele>592.008</ele>
        <time>2018-08-01T12:44:45Z</time>
      </trkpt>
      <trkpt lat="47.26262" lon="6.94595">
        <ele>591.798</ele>
        <time>2018-08-01T12:44:46Z</time>
      </trkpt>
      <trkpt lat="47.26253" lon="6.94588">
        <ele>591.483</ele>
        <time>2018-08-01T12:44:47Z</time>
      </trkpt>
      <trkpt lat="47.26244" lon="6.9458">
        <ele>591.127</ele>
        <time>2018-08-01T12:44:48Z</time>
      </trkpt>
      <trkpt lat="47.26235" lon="6.94575">
        <ele>590.499</ele>
        <time>2018-08-01T12:44:49Z</time>
      </trkpt>
      <trkpt lat="47.26226" lon="6.9457">
        <ele>589.775</ele>
        <time>2018-08-01T12:44:50Z</time>
      </trkpt>
      <trkpt lat="47.26219" lon="6.94563">
        <ele>589.022</ele>
        <time>2018-08-01T12:44:51Z</time>
      </trkpt>
      <trkpt lat="47.26209" lon="6.94562">
        <ele>588.577</ele>
        <time>2018-08-01T12:44:52Z</time>
      </trkpt>
      <trkpt lat="47.26201" lon="6.94564">
        <ele>587.886</ele>
        <time>2018-08-01T12:44:53Z</time>
      </trkpt>
      <trkpt lat="47.26191" lon="6.9457">
        <ele>587.144</ele>
        <time>2018-08-01T12:44:54Z</time>
      </trkpt>
      <trkpt lat="47.26183" lon="6.94576">
        <ele>586.405</ele>
        <time>2018-08-01T12:44:55Z</time>
      </trkpt>
      <trkpt lat="47.26173" lon="6.94584">
        <ele>585.515</ele>
        <time>2018-08-01T12:44:56Z</time>
      </trkpt>
      <trkpt lat="47.26166" lon="6.9459">
        <ele>584.608</ele>
        <time>2018-08-01T12:44:57Z</time>
      </trkpt>
      <trkpt lat="47.2616" lon="6.94595">
        <ele>584.156</ele>
        <time>2018-08-01T12:44:58Z</time>
      </trkpt>
      <trkpt lat="47.26154" lon="6.94597">
        <ele>583.721</ele>
        <time>2018-08-01T12:44:59Z</time>
      </trkpt>
      <trkpt lat="47.26145" lon="6.94599">
        <ele>583.415</ele>
        <time>2018-08-01T12:45:01Z</time>
      </trkpt>
      <trkpt lat="47.26138" lon="6.94597">
        <ele>583.057</ele>
        <time>2018-08-01T12:45:03Z</time>
      </trkpt>
      <trkpt lat="47.26132" lon="6.94595">
        <ele>582.363</ele>
        <time>2018-08-01T12:45:05Z</time>
      </trkpt>
      <trkpt lat="47.26132" lon="6.94602">
        <ele>581.57</ele>
        <time>2018-08-01T12:45:17Z</time>
      </trkpt>
      <trkpt lat="47.2614" lon="6.94604">
        <ele>581.655</ele>
        <time>2018-08-01T12:45:19Z</time>
      </trkpt>
      <trkpt lat="47.26145" lon="6.94607">
        <ele>581.984</ele>
        <time>2018-08-01T12:45:21Z</time>
      </trkpt>
      <trkpt lat="47.26149" lon="6.94612">
        <ele>582.044</ele>
        <time>2018-08-01T12:45:23Z</time>
      </trkpt>
      <trkpt lat="47.26154" lon="6.9462">
        <ele>581.805</ele>
        <time>2018-08-01T12:45:25Z</time>
      </trkpt>
      <trkpt lat="47.2616" lon="6.94629">
        <ele>581.515</ele>
        <time>2018-08-01T12:45:27Z</time>
      </trkpt>
      <trkpt lat="47.26165" lon="6.94629">
        <ele>581.508</ele>
        <time>2018-08-01T12:45:28Z</time>
      </trkpt>
      <trkpt lat="47.26169" lon="6.94632">
        <ele>581.136</ele>
        <time>2018-08-01T12:45:29Z</time>
      </trkpt>
      <trkpt lat="47.26177" lon="6.94639">
        <ele>579.831</ele>
        <time>2018-08-01T12:45:31Z</time>
      </trkpt>
      <trkpt lat="47.26183" lon="6.94646">
        <ele>578.185</ele>
        <time>2018-08-01T12:45:33Z</time>
      </trkpt>
      <trkpt lat="47.26187" lon="6.9465">
        <ele>577.247</ele>
        <time>2018-08-01T12:45:34Z</time>
      </trkpt>
      <trkpt lat="47.26188" lon="6.94657">
        <ele>576.323</ele>
        <time>2018-08-01T12:45:35Z</time>
      </trkpt>
      <trkpt lat="47.26191" lon="6.94665">
        <ele>575.68</ele>
        <time>2018-08-01T12:45:36Z</time>
      </trkpt>
      <trkpt lat="47.26193" lon="6.94674">
        <ele>574.815</ele>
        <time>2018-08-01T12:45:37Z</time>
      </trkpt>
      <trkpt lat="47.26195" lon="6.94681">
        <ele>574.164</ele>
        <time>2018-08-01T12:45:38Z</time>
      </trkpt>
      <trkpt lat="47.26197" lon="6.94689">
        <ele>573.456</ele>
        <time>2018-08-01T12:45:39Z</time>
      </trkpt>
      <trkpt lat="47.26196" lon="6.94699">
        <ele>572.059</ele>
        <time>2018-08-01T12:45:41Z</time>
      </trkpt>
      <trkpt lat="47.26192" lon="6.94709">
        <ele>570.514</ele>
        <time>2018-08-01T12:45:43Z</time>
      </trkpt>
      <trkpt lat="47.26188" lon="6.94711">
        <ele>569.708</ele>
        <time>2018-08-01T12:45:44Z</time>
      </trkpt>
      <trkpt lat="47.26183" lon="6.94711">
        <ele>569.067</ele>
        <time>2018-08-01T12:45:45Z</time>
      </trkpt>
      <trkpt lat="47.26176" lon="6.94712">
        <ele>568.312</ele>
        <time>2018-08-01T12:45:46Z</time>
      </trkpt>
      <trkpt lat="47.26169" lon="6.94713">
        <ele>567.656</ele>
        <time>2018-08-01T12:45:47Z</time>
      </trkpt>
      <trkpt lat="47.26162" lon="6.94715">
        <ele>566.888</ele>
        <time>2018-08-01T12:45:48Z</time>
      </trkpt>
      <trkpt lat="47.26155" lon="6.94716">
        <ele>566.034</ele>
        <time>2018-08-01T12:45:49Z</time>
      </trkpt>
      <trkpt lat="47.26148" lon="6.9472">
        <ele>565.121</ele>
        <time>2018-08-01T12:45:50Z</time>
      </trkpt>
      <trkpt lat="47.26143" lon="6.94723">
        <ele>564.356</ele>
        <time>2018-08-01T12:45:51Z</time>
      </trkpt>
      <trkpt lat="47.26137" lon="6.94725">
        <ele>563.515</ele>
        <time>2018-08-01T12:45:52Z</time>
      </trkpt>
      <trkpt lat="47.26132" lon="6.94727">
        <ele>562.788</ele>
        <time>2018-08-01T12:45:53Z</time>
      </trkpt>
      <trkpt lat="47.26123" lon="6.94729">
        <ele>561.824</ele>
        <time>2018-08-01T12:45:55Z</time>
      </trkpt>
      <trkpt lat="47.26116" lon="6.94734">
        <ele>560.126</ele>
        <time>2018-08-01T12:45:57Z</time>
      </trkpt>
      <trkpt lat="47.26115" lon="6.94745">
        <ele>558.308</ele>
        <time>2018-08-01T12:45:59Z</time>
      </trkpt>
      <trkpt lat="47.26121" lon="6.94754">
        <ele>556.85</ele>
        <time>2018-08-01T12:46:01Z</time>
      </trkpt>
      <trkpt lat="47.26126" lon="6.94759">
        <ele>556.125</ele>
        <time>2018-08-01T12:46:02Z</time>
      </trkpt>
      <trkpt lat="47.2613" lon="6.94763">
        <ele>555.589</ele>
        <time>2018-08-01T12:46:03Z</time>
      </trkpt>
      <trkpt lat="47.26134" lon="6.94769">
        <ele>554.741</ele>
        <time>2018-08-01T12:46:04Z</time>
      </trkpt>
      <trkpt lat="47.26136" lon="6.94775">
        <ele>554.067</ele>
        <time>2018-08-01T12:46:05Z</time>
      </trkpt>
      <trkpt lat="47.26141" lon="6.94785">
        <ele>552.744</ele>
        <time>2018-08-01T12:46:07Z</time>
      </trkpt>
      <trkpt lat="47.26143" lon="6.94792">
        <ele>551.729</ele>
        <time>2018-08-01T12:46:08Z</time>
      </trkpt>
      <trkpt lat="47.26142" lon="6.94801">
        <ele>551.058</ele>
        <time>2018-08-01T12:46:09Z</time>
      </trkpt>
      <trkpt lat="47.26141" lon="6.94808">
        <ele>550.289</ele>
        <time>2018-08-01T12:46:10Z</time>
      </trkpt>
      <trkpt lat="47.26136" lon="6.94813">
        <ele>549.306</ele>
        <time>2018-08-01T12:46:11Z</time>
      </trkpt>
      <trkpt lat="47.26131" lon="6.94816">
        <ele>548.326</ele>
        <time>2018-08-01T12:46:12Z</time>
      </trkpt>
      <trkpt lat="47.26126" lon="6.94823">
        <ele>546.808</ele>
        <time>2018-08-01T12:46:14Z</time>
      </trkpt>
      <trkpt lat="47.26126" lon="6.94832">
        <ele>544.72</ele>
        <time>2018-08-01T12:46:24Z</time>
      </trkpt>
      <trkpt lat="47.26124" lon="6.94839">
        <ele>544.655</ele>
        <time>2018-08-01T12:46:26Z</time>
      </trkpt>
      <trkpt lat="47.26124" lon="6.9485">
        <ele>544.349</ele>
        <time>2018-08-01T12:46:28Z</time>
      </trkpt>
      <trkpt lat="47.26125" lon="6.94857">
        <ele>544.141</ele>
        <time>2018-08-01T12:46:29Z</time>
      </trkpt>
      <trkpt lat="47.26126" lon="6.94863">
        <ele>543.797</ele>
        <time>2018-08-01T12:46:30Z</time>
      </trkpt>
      <trkpt lat="47.2613" lon="6.9487">
        <ele>543.374</ele>
        <time>2018-08-01T12:46:31Z</time>
      </trkpt>
      <trkpt lat="47.26134" lon="6.94879">
        <ele>542.289</ele>
        <time>2018-08-01T12:46:33Z</time>
      </trkpt>
      <trkpt lat="47.26137" lon="6.9489">
        <ele>540.788</ele>
        <time>2018-08-01T12:46:35Z</time>
      </trkpt>
      <trkpt lat="47.26142" lon="6.94895">
        <ele>539.054</ele>
        <time>2018-08-01T12:46:37Z</time>
      </trkpt>
      <trkpt lat="47.26144" lon="6.94901">
        <ele>536.956</ele>
        <time>2018-08-01T12:46:40Z</time>
      </trkpt>
      <trkpt lat="47.26146" lon="6.94908">
        <ele>536.211</ele>
        <time>2018-08-01T12:46:53Z</time>
      </trkpt>
      <trkpt lat="47.26149" lon="6.94918">
        <ele>536.008</ele>
        <time>2018-08-01T12:46:55Z</time>
      </trkpt>
      <trkpt lat="47.26151" lon="6.94926">
        <ele>535.327</ele>
        <time>2018-08-01T12:46:57Z</time>
      </trkpt>
      <trkpt lat="47.26154" lon="6.94935">
        <ele>534.172</ele>
        <time>2018-08-01T12:46:59Z</time>
      </trkpt>
      <trkpt lat="47.26159" lon="6.94942">
        <ele>533.486</ele>
        <time>2018-08-01T12:47:00Z</time>
      </trkpt>
      <trkpt lat="47.26164" lon="6.94946">
        <ele>532.728</ele>
        <time>2018-08-01T12:47:01Z</time>
      </trkpt>
      <trkpt lat="47.26169" lon="6.94951">
        <ele>531.974</ele>
        <time>2018-08-01T12:47:02Z</time>
      </trkpt>
      <trkpt lat="47.26173" lon="6.94956">
        <ele>531.061</ele>
        <time>2018-08-01T12:47:03Z</time>
      </trkpt>
      <trkpt lat="47.26178" lon="6.94958">
        <ele>530.146</ele>
        <time>2018-08-01T12:47:04Z</time>
      </trkpt>
      <trkpt lat="47.26182" lon="6.94965">
        <ele>528.285</ele>
        <time>2018-08-01T12:47:06Z</time>
      </trkpt>
      <trkpt lat="47.26183" lon="6.94972">
        <ele>526.374</ele>
        <time>2018-08-01T12:47:08Z</time>
      </trkpt>
      <trkpt lat="47.26183" lon="6.9498">
        <ele>524.556</ele>
        <time>2018-08-01T12:47:10Z</time>
      </trkpt>
      <trkpt lat="47.26178" lon="6.94989">
        <ele>523.021</ele>
        <time>2018-08-01T12:47:12Z</time>
      </trkpt>
      <trkpt lat="47.26172" lon="6.94991">
        <ele>521.308</ele>
        <time>2018-08-01T12:47:15Z</time>
      </trkpt>
      <trkpt lat="47.2617" lon="6.95">
        <ele>520.689</ele>
        <time>2018-08-01T12:47:20Z</time>
      </trkpt>
      <trkpt lat="47.26171" lon="6.95008">
        <ele>520.554</ele>
        <time>2018-08-01T12:47:22Z</time>
      </trkpt>
      <trkpt lat="47.26172" lon="6.95016">
        <ele>520.388</ele>
        <time>2018-08-01T12:47:24Z</time>
      </trkpt>
      <trkpt lat="47.26172" lon="6.95023">
        <ele>519.87</ele>
        <time>2018-08-01T12:47:27Z</time>
      </trkpt>
      <trkpt lat="47.26176" lon="6.95026">
        <ele>519.076</ele>
        <time>2018-08-01T12:47:32Z</time>
      </trkpt>
      <trkpt lat="47.2618" lon="6.95022">
        <ele>519.063</ele>
        <time>2018-08-01T12:47:35Z</time>
      </trkpt>
      <trkpt lat="47.26178" lon="6.95014">
        <ele>519.268</ele>
        <time>2018-08-01T12:47:39Z</time>
      </trkpt>
      <trkpt lat="47.26175" lon="6.95008">
        <ele>519.527</ele>
        <time>2018-08-01T12:47:42Z</time>
      </trkpt>
      <trkpt lat="47.26174" lon="6.95001">
        <ele>519.842</ele>
        <time>2018-08-01T12:47:46Z</time>
      </trkpt>
      <trkpt lat="47.26176" lon="6.94994">
        <ele>520.322</ele>
        <time>2018-08-01T12:47:50Z</time>
      </trkpt>
      <trkpt lat="47.2618" lon="6.94994">
        <ele>520.614</ele>
        <time>2018-08-01T12:48:07Z</time>
      </trkpt>
      <trkpt lat="47.26176" lon="6.94993">
        <ele>520.608</ele>
        <time>2018-08-01T12:48:17Z</time>
      </trkpt>
      <trkpt lat="47.26171" lon="6.94993">
        <ele>520.656</ele>
        <time>2018-08-01T12:48:43Z</time>
      </trkpt>
      <trkpt lat="47.26175" lon="6.94993">
        <ele>520.621</ele>
        <time>2018-08-01T12:49:28Z</time>
      </trkpt>
      <trkpt lat="47.26174" lon="6.94999">
        <ele>520.485</ele>
        <time>2018-08-01T12:49:42Z</time>
      </trkpt>
      <trkpt lat="47.26174" lon="6.95006">
        <ele>519.997</ele>
        <time>2018-08-01T12:49:51Z</time>
      </trkpt>
      <trkpt lat="47.26171" lon="6.94995">
        <ele>518.983</ele>
        <time>2018-08-01T13:05:05Z</time>
      </trkpt>
      <trkpt lat="47.2617" lon="6.95003">
        <ele>519.75</ele>
        <time>2018-08-01T13:05:12Z</time>
      </trkpt>
      <trkpt lat="47.2617" lon="6.95011">
        <ele>519.745</ele>
        <time>2018-08-01T13:05:14Z</time>
      </trkpt>
      <trkpt lat="47.2617" lon="6.95022">
        <ele>519.874</ele>
        <time>2018-08-01T13:05:16Z</time>
      </trkpt>
      <trkpt lat="47.26171" lon="6.95036">
        <ele>519.737</ele>
        <time>2018-08-01T13:05:18Z</time>
      </trkpt>
      <trkpt lat="47.26171" lon="6.95044">
        <ele>519.649</ele>
        <time>2018-08-01T13:05:19Z</time>
      </trkpt>
      <trkpt lat="47.2617" lon="6.95054">
        <ele>519.413</ele>
        <time>2018-08-01T13:05:20Z</time>
      </trkpt>
      <trkpt lat="47.26169" lon="6.95062">
        <ele>519.008</ele>
        <time>2018-08-01T13:05:21Z</time>
      </trkpt>
      <trkpt lat="47.26169" lon="6.95071">
        <ele>518.585</ele>
        <time>2018-08-01T13:05:22Z</time>
      </trkpt>
      <trkpt lat="47.26169" lon="6.95081">
        <ele>518.18</ele>
        <time>2018-08-01T13:05:23Z</time>
      </trkpt>
      <trkpt lat="47.26168" lon="6.95092">
        <ele>517.734</ele>
        <time>2018-08-01T13:05:24Z</time>
      </trkpt>
      <trkpt lat="47.26168" lon="6.95101">
        <ele>517.336</ele>
        <time>2018-08-01T13:05:25Z</time>
      </trkpt>
      <trkpt lat="47.26166" lon="6.95111">
        <ele>517.092</ele>
        <time>2018-08-01T13:05:26Z</time>
      </trkpt>
      <trkpt lat="47.26166" lon="6.95122">
        <ele>516.929</ele>
        <time>2018-08-01T13:05:27Z</time>
      </trkpt>
      <trkpt lat="47.26168" lon="6.95131">
        <ele>516.764</ele>
        <time>2018-08-01T13:05:28Z</time>
      </trkpt>
      <trkpt lat="47.26167" lon="6.95141">
        <ele>516.733</ele>
        <time>2018-08-01T13:05:29Z</time>
      </trkpt>
      <trkpt lat="47.26167" lon="6.9515">
        <ele>516.658</ele>
        <time>2018-08-01T13:05:30Z</time>
      </trkpt>
      <trkpt lat="47.26166" lon="6.95159">
        <ele>516.652</ele>
        <time>2018-08-01T13:05:31Z</time>
      </trkpt>
      <trkpt lat="47.26164" lon="6.95168">
        <ele>516.417</ele>
        <time>2018-08-01T13:05:32Z</time>
      </trkpt>
      <trkpt lat="47.26161" lon="6.95177">
        <ele>516.308</ele>
        <time>2018-08-01T13:05:33Z</time>
      </trkpt>
      <trkpt lat="47.26155" lon="6.95185">
        <ele>516.177</ele>
        <time>2018-08-01T13:05:34Z</time>
      </trkpt>
      <trkpt lat="47.26151" lon="6.95191">
        <ele>516.032</ele>
        <time>2018-08-01T13:05:35Z</time>
      </trkpt>
      <trkpt lat="47.26148" lon="6.95196">
        <ele>515.886</ele>
        <time>2018-08-01T13:05:36Z</time>
      </trkpt>
      <trkpt lat="47.26143" lon="6.95202">
        <ele>515.668</ele>
        <time>2018-08-01T13:05:37Z</time>
      </trkpt>
      <trkpt lat="47.26136" lon="6.95207">
        <ele>515.464</ele>
        <time>2018-08-01T13:05:38Z</time>
      </trkpt>
      <trkpt lat="47.26132" lon="6.95206">
        <ele>515.331</ele>
        <time>2018-08-01T13:05:39Z</time>
      </trkpt>
      <trkpt lat="47.26125" lon="6.95209">
        <ele>515.176</ele>
        <time>2018-08-01T13:05:40Z</time>
      </trkpt>
      <trkpt lat="47.26118" lon="6.95204">
        <ele>514.935</ele>
        <time>2018-08-01T13:05:42Z</time>
      </trkpt>
      <trkpt lat="47.26113" lon="6.95202">
        <ele>514.975</ele>
        <time>2018-08-01T13:05:43Z</time>
      </trkpt>
      <trkpt lat="47.26107" lon="6.95197">
        <ele>515.128</ele>
        <time>2018-08-01T13:05:45Z</time>
      </trkpt>
      <trkpt lat="47.261" lon="6.95193">
        <ele>515.42</ele>
        <time>2018-08-01T13:05:48Z</time>
      </trkpt>
      <trkpt lat="47.26095" lon="6.95188">
        <ele>515.508</ele>
        <time>2018-08-01T13:05:50Z</time>
      </trkpt>
      <trkpt lat="47.26089" lon="6.95183">
        <ele>515.669</ele>
        <time>2018-08-01T13:05:52Z</time>
      </trkpt>
      <trkpt lat="47.26083" lon="6.95178">
        <ele>515.974</ele>
        <time>2018-08-01T13:05:54Z</time>
      </trkpt>
      <trkpt lat="47.26076" lon="6.95174">
        <ele>516.138</ele>
        <time>2018-08-01T13:05:56Z</time>
      </trkpt>
      <trkpt lat="47.2607" lon="6.95169">
        <ele>516.43</ele>
        <time>2018-08-01T13:05:58Z</time>
      </trkpt>
      <trkpt lat="47.26063" lon="6.95166">
        <ele>516.656</ele>
        <time>2018-08-01T13:06:00Z</time>
      </trkpt>
      <trkpt lat="47.26056" lon="6.95164">
        <ele>516.833</ele>
        <time>2018-08-01T13:06:02Z</time>
      </trkpt>
      <trkpt lat="47.26049" lon="6.95162">
        <ele>517.288</ele>
        <time>2018-08-01T13:06:04Z</time>
      </trkpt>
      <trkpt lat="47.26044" lon="6.95159">
        <ele>517.857</ele>
        <time>2018-08-01T13:06:06Z</time>
      </trkpt>
      <trkpt lat="47.26038" lon="6.95159">
        <ele>518.342</ele>
        <time>2018-08-01T13:06:08Z</time>
      </trkpt>
      <trkpt lat="47.26031" lon="6.95158">
        <ele>518.722</ele>
        <time>2018-08-01T13:06:10Z</time>
      </trkpt>
      <trkpt lat="47.26024" lon="6.95157">
        <ele>519.214</ele>
        <time>2018-08-01T13:06:12Z</time>
      </trkpt>
      <trkpt lat="47.26017" lon="6.95154">
        <ele>519.608</ele>
        <time>2018-08-01T13:06:14Z</time>
      </trkpt>
      <trkpt lat="47.2601" lon="6.95151">
        <ele>519.976</ele>
        <time>2018-08-01T13:06:16Z</time>
      </trkpt>
      <trkpt lat="47.26003" lon="6.95149">
        <ele>520.451</ele>
        <time>2018-08-01T13:06:18Z</time>
      </trkpt>
      <trkpt lat="47.25996" lon="6.95148">
        <ele>521.165</ele>
        <time>2018-08-01T13:06:20Z</time>
      </trkpt>
      <trkpt lat="47.25989" lon="6.95146">
        <ele>521.887</ele>
        <time>2018-08-01T13:06:22Z</time>
      </trkpt>
      <trkpt lat="47.25983" lon="6.95144">
        <ele>522.193</ele>
        <time>2018-08-01T13:06:24Z</time>
      </trkpt>
      <trkpt lat="47.25975" lon="6.95143">
        <ele>522.54</ele>
        <time>2018-08-01T13:06:26Z</time>
      </trkpt>
      <trkpt lat="47.25968" lon="6.95141">
        <ele>523.035</ele>
        <time>2018-08-01T13:06:28Z</time>
      </trkpt>
      <trkpt lat="47.25961" lon="6.95139">
        <ele>523.684</ele>
        <time>2018-08-01T13:06:30Z</time>
      </trkpt>
      <trkpt lat="47.25954" lon="6.95137">
        <ele>524.163</ele>
        <time>2018-08-01T13:06:32Z</time>
      </trkpt>
      <trkpt lat="47.25947" lon="6.95134">
        <ele>524.544</ele>
        <time>2018-08-01T13:06:34Z</time>
      </trkpt>
      <trkpt lat="47.2594" lon="6.95132">
        <ele>525.018</ele>
        <time>2018-08-01T13:06:36Z</time>
      </trkpt>
      <trkpt lat="47.25933" lon="6.9513">
        <ele>525.508</ele>
        <time>2018-08-01T13:06:38Z</time>
      </trkpt>
      <trkpt lat="47.25926" lon="6.95129">
        <ele>526.038</ele>
        <time>2018-08-01T13:06:40Z</time>
      </trkpt>
      <trkpt lat="47.25918" lon="6.95128">
        <ele>526.663</ele>
        <time>2018-08-01T13:06:42Z</time>
      </trkpt>
      <trkpt lat="47.25911" lon="6.95125">
        <ele>527.147</ele>
        <time>2018-08-01T13:06:44Z</time>
      </trkpt>
      <trkpt lat="47.25905" lon="6.95122">
        <ele>527.679</ele>
        <time>2018-08-01T13:06:46Z</time>
      </trkpt>
      <trkpt lat="47.25898" lon="6.95119">
        <ele>528.175</ele>
        <time>2018-08-01T13:06:48Z</time>
      </trkpt>
      <trkpt lat="47.25892" lon="6.95116">
        <ele>528.732</ele>
        <time>2018-08-01T13:06:50Z</time>
      </trkpt>
      <trkpt lat="47.25885" lon="6.95114">
        <ele>529.077</ele>
        <time>2018-08-01T13:06:52Z</time>
      </trkpt>
      <trkpt lat="47.25878" lon="6.9511">
        <ele>529.626</ele>
        <time>2018-08-01T13:06:54Z</time>
      </trkpt>
      <trkpt lat="47.25871" lon="6.95108">
        <ele>530.198</ele>
        <time>2018-08-01T13:06:56Z</time>
      </trkpt>
      <trkpt lat="47.25864" lon="6.95105">
        <ele>530.715</ele>
        <time>2018-08-01T13:06:58Z</time>
      </trkpt>
      <trkpt lat="47.25857" lon="6.95102">
        <ele>531.226</ele>
        <time>2018-08-01T13:07:00Z</time>
      </trkpt>
      <trkpt lat="47.2585" lon="6.95099">
        <ele>531.708</ele>
        <time>2018-08-01T13:07:02Z</time>
      </trkpt>
      <trkpt lat="47.25844" lon="6.95098">
        <ele>532.161</ele>
        <time>2018-08-01T13:07:04Z</time>
      </trkpt>
      <trkpt lat="47.25837" lon="6.95095">
        <ele>532.676</ele>
        <time>2018-08-01T13:07:06Z</time>
      </trkpt>
      <trkpt lat="47.2583" lon="6.95094">
        <ele>533.23</ele>
        <time>2018-08-01T13:07:08Z</time>
      </trkpt>
      <trkpt lat="47.25824" lon="6.95092">
        <ele>533.682</ele>
        <time>2018-08-01T13:07:10Z</time>
      </trkpt>
      <trkpt lat="47.25818" lon="6.95088">
        <ele>534.268</ele>
        <time>2018-08-01T13:07:12Z</time>
      </trkpt>
      <trkpt lat="47.25812" lon="6.95084">
        <ele>534.735</ele>
        <time>2018-08-01T13:07:14Z</time>
      </trkpt>
      <trkpt lat="47.25806" lon="6.95083">
        <ele>535.36</ele>
        <time>2018-08-01T13:07:16Z</time>
      </trkpt>
      <trkpt lat="47.25799" lon="6.95081">
        <ele>536.079</ele>
        <time>2018-08-01T13:07:18Z</time>
      </trkpt>
      <trkpt lat="47.25792" lon="6.95079">
        <ele>536.456</ele>
        <time>2018-08-01T13:07:20Z</time>
      </trkpt>
      <trkpt lat="47.25784" lon="6.95078">
        <ele>537.159</ele>
        <time>2018-08-01T13:07:22Z</time>
      </trkpt>
      <trkpt lat="47.25778" lon="6.95076">
        <ele>537.714</ele>
        <time>2018-08-01T13:07:24Z</time>
      </trkpt>
      <trkpt lat="47.25771" lon="6.95075">
        <ele>538.308</ele>
        <time>2018-08-01T13:07:26Z</time>
      </trkpt>
      <trkpt lat="47.25764" lon="6.95075">
        <ele>538.997</ele>
        <time>2018-08-01T13:07:28Z</time>
      </trkpt>
      <trkpt lat="47.25758" lon="6.95074">
        <ele>539.482</ele>
        <time>2018-08-01T13:07:30Z</time>
      </trkpt>
      <trkpt lat="47.25751" lon="6.95074">
        <ele>540.026</ele>
        <time>2018-08-01T13:07:32Z</time>
      </trkpt>
      <trkpt lat="47.25745" lon="6.95072">
        <ele>540.568</ele>
        <time>2018-08-01T13:07:34Z</time>
      </trkpt>
      <trkpt lat="47.25738" lon="6.95068">
        <ele>541.024</ele>
        <time>2018-08-01T13:07:36Z</time>
      </trkpt>
      <trkpt lat="47.2573" lon="6.95063">
        <ele>541.461</ele>
        <time>2018-08-01T13:07:38Z</time>
      </trkpt>
      <trkpt lat="47.25722" lon="6.95062">
        <ele>541.986</ele>
        <time>2018-08-01T13:07:40Z</time>
      </trkpt>
      <trkpt lat="47.25715" lon="6.95063">
        <ele>542.575</ele>
        <time>2018-08-01T13:07:42Z</time>
      </trkpt>
      <trkpt lat="47.25709" lon="6.95065">
        <ele>543.064</ele>
        <time>2018-08-01T13:07:44Z</time>
      </trkpt>
      <trkpt lat="47.25703" lon="6.95064">
        <ele>543.206</ele>
        <time>2018-08-01T13:07:46Z</time>
      </trkpt>
      <trkpt lat="47.25696" lon="6.95061">
        <ele>543.416</ele>
        <time>2018-08-01T13:07:48Z</time>
      </trkpt>
      <trkpt lat="47.25688" lon="6.95056">
        <ele>543.508</ele>
        <time>2018-08-01T13:07:50Z</time>
      </trkpt>
      <trkpt lat="47.25681" lon="6.9505">
        <ele>543.578</ele>
        <time>2018-08-01T13:07:52Z</time>
      </trkpt>
      <trkpt lat="47.25673" lon="6.95046">
        <ele>543.653</ele>
        <time>2018-08-01T13:07:54Z</time>
      </trkpt>
      <trkpt lat="47.25665" lon="6.95044">
        <ele>543.877</ele>
        <time>2018-08-01T13:07:56Z</time>
      </trkpt>
      <trkpt lat="47.25657" lon="6.95043">
        <ele>544.029</ele>
        <time>2018-08-01T13:07:58Z</time>
      </trkpt>
      <trkpt lat="47.25647" lon="6.95038">
        <ele>544.165</ele>
        <time>2018-08-01T13:08:00Z</time>
      </trkpt>
      <trkpt lat="47.2564" lon="6.95033">
        <ele>544.382</ele>
        <time>2018-08-01T13:08:02Z</time>
      </trkpt>
      <trkpt lat="47.25634" lon="6.95029">
        <ele>544.517</ele>
        <time>2018-08-01T13:08:04Z</time>
      </trkpt>
      <trkpt lat="47.25626" lon="6.95024">
        <ele>544.886</ele>
        <time>2018-08-01T13:08:06Z</time>
      </trkpt>
      <trkpt lat="47.25621" lon="6.95023">
        <ele>544.893</ele>
        <time>2018-08-01T13:08:07Z</time>
      </trkpt>
      <trkpt lat="47.25613" lon="6.95019">
        <ele>544.965</ele>
        <time>2018-08-01T13:08:09Z</time>
      </trkpt>
      <trkpt lat="47.25608" lon="6.95015">
        <ele>544.921</ele>
        <time>2018-08-01T13:08:10Z</time>
      </trkpt>
      <trkpt lat="47.25601" lon="6.95008">
        <ele>545.008</ele>
        <time>2018-08-01T13:08:12Z</time>
      </trkpt>
      <trkpt lat="47.25594" lon="6.95003">
        <ele>545.111</ele>
        <time>2018-08-01T13:08:14Z</time>
      </trkpt>
      <trkpt lat="47.25586" lon="6.94999">
        <ele>545.476</ele>
        <time>2018-08-01T13:08:16Z</time>
      </trkpt>
      <trkpt lat="47.25579" lon="6.94998">
        <ele>545.88</ele>
        <time>2018-08-01T13:08:18Z</time>
      </trkpt>
      <trkpt lat="47.25572" lon="6.94999">
        <ele>546.372</ele>
        <time>2018-08-01T13:08:20Z</time>
      </trkpt>
      <trkpt lat="47.25564" lon="6.94999">
        <ele>546.748</ele>
        <time>2018-08-01T13:08:22Z</time>
      </trkpt>
      <trkpt lat="47.25556" lon="6.94997">
        <ele>547.075</ele>
        <time>2018-08-01T13:08:24Z</time>
      </trkpt>
      <trkpt lat="47.25549" lon="6.94993">
        <ele>547.34</ele>
        <time>2018-08-01T13:08:26Z</time>
      </trkpt>
      <trkpt lat="47.25542" lon="6.94989">
        <ele>547.679</ele>
        <time>2018-08-01T13:08:28Z</time>
      </trkpt>
      <trkpt lat="47.25536" lon="6.94984">
        <ele>548.025</ele>
        <time>2018-08-01T13:08:30Z</time>
      </trkpt>
      <trkpt lat="47.25529" lon="6.94979">
        <ele>548.226</ele>
        <time>2018-08-01T13:08:32Z</time>
      </trkpt>
      <trkpt lat="47.25522" lon="6.94975">
        <ele>548.608</ele>
        <time>2018-08-01T13:08:34Z</time>
      </trkpt>
      <trkpt lat="47.25515" lon="6.9497">
        <ele>549.008</ele>
        <time>2018-08-01T13:08:36Z</time>
      </trkpt>
      <trkpt lat="47.25508" lon="6.94966">
        <ele>549.364</ele>
        <time>2018-08-01T13:08:38Z</time>
      </trkpt>
      <trkpt lat="47.25501" lon="6.94962">
        <ele>549.869</ele>
        <time>2018-08-01T13:08:40Z</time>
      </trkpt>
      <trkpt lat="47.25495" lon="6.94955">
        <ele>550.083</ele>
        <time>2018-08-01T13:08:42Z</time>
      </trkpt>
      <trkpt lat="47.2549" lon="6.94947">
        <ele>550.425</ele>
        <time>2018-08-01T13:08:44Z</time>
      </trkpt>
      <trkpt lat="47.25486" lon="6.94938">
        <ele>550.691</ele>
        <time>2018-08-01T13:08:46Z</time>
      </trkpt>
      <trkpt lat="47.25484" lon="6.94931">
        <ele>550.848</ele>
        <time>2018-08-01T13:08:48Z</time>
      </trkpt>
      <trkpt lat="47.25481" lon="6.94922">
        <ele>551.163</ele>
        <time>2018-08-01T13:08:51Z</time>
      </trkpt>
      <trkpt lat="47.25479" lon="6.94916">
        <ele>551.272</ele>
        <time>2018-08-01T13:08:53Z</time>
      </trkpt>
      <trkpt lat="47.25475" lon="6.94909">
        <ele>551.283</ele>
        <time>2018-08-01T13:08:55Z</time>
      </trkpt>
      <trkpt lat="47.25471" lon="6.94902">
        <ele>551.225</ele>
        <time>2018-08-01T13:08:57Z</time>
      </trkpt>
      <trkpt lat="47.25467" lon="6.94894">
        <ele>551.117</ele>
        <time>2018-08-01T13:08:59Z</time>
      </trkpt>
      <trkpt lat="47.25463" lon="6.94886">
        <ele>551.108</ele>
        <time>2018-08-01T13:09:01Z</time>
      </trkpt>
      <trkpt lat="47.25459" lon="6.94879">
        <ele>551.16</ele>
        <time>2018-08-01T13:09:03Z</time>
      </trkpt>
      <trkpt lat="47.25454" lon="6.94873">
        <ele>551.155</ele>
        <time>2018-08-01T13:09:05Z</time>
      </trkpt>
      <trkpt lat="47.25447" lon="6.94867">
        <ele>551.179</ele>
        <time>2018-08-01T13:09:07Z</time>
      </trkpt>
      <trkpt lat="47.25441" lon="6.94862">
        <ele>551.181</ele>
        <time>2018-08-01T13:09:09Z</time>
      </trkpt>
      <trkpt lat="47.25433" lon="6.94858">
        <ele>551.047</ele>
        <time>2018-08-01T13:09:11Z</time>
      </trkpt>
      <trkpt lat="47.25426" lon="6.94854">
        <ele>551.044</ele>
        <time>2018-08-01T13:09:13Z</time>
      </trkpt>
      <trkpt lat="47.25419" lon="6.94849">
        <ele>551.089</ele>
        <time>2018-08-01T13:09:15Z</time>
      </trkpt>
      <trkpt lat="47.25415" lon="6.94846">
        <ele>551.028</ele>
        <time>2018-08-01T13:09:16Z</time>
      </trkpt>
      <trkpt lat="47.25411" lon="6.9484">
        <ele>550.981</ele>
        <time>2018-08-01T13:09:17Z</time>
      </trkpt>
      <trkpt lat="47.25406" lon="6.94838">
        <ele>550.761</ele>
        <time>2018-08-01T13:09:18Z</time>
      </trkpt>
      <trkpt lat="47.254" lon="6.94836">
        <ele>550.617</ele>
        <time>2018-08-01T13:09:19Z</time>
      </trkpt>
      <trkpt lat="47.25395" lon="6.94834">
        <ele>550.508</ele>
        <time>2018-08-01T13:09:20Z</time>
      </trkpt>
      <trkpt lat="47.25386" lon="6.94832">
        <ele>550.13</ele>
        <time>2018-08-01T13:09:22Z</time>
      </trkpt>
      <trkpt lat="47.25381" lon="6.94831">
        <ele>550.125</ele>
        <time>2018-08-01T13:09:23Z</time>
      </trkpt>
      <trkpt lat="47.25375" lon="6.9483">
        <ele>549.959</ele>
        <time>2018-08-01T13:09:24Z</time>
      </trkpt>
      <trkpt lat="47.25369" lon="6.94831">
        <ele>549.761</ele>
        <time>2018-08-01T13:09:25Z</time>
      </trkpt>
      <trkpt lat="47.25364" lon="6.94831">
        <ele>549.677</ele>
        <time>2018-08-01T13:09:26Z</time>
      </trkpt>
      <trkpt lat="47.25358" lon="6.9483">
        <ele>549.544</ele>
        <time>2018-08-01T13:09:27Z</time>
      </trkpt>
      <trkpt lat="47.25351" lon="6.94826">
        <ele>549.339</ele>
        <time>2018-08-01T13:09:28Z</time>
      </trkpt>
      <trkpt lat="47.25344" lon="6.94822">
        <ele>549.048</ele>
        <time>2018-08-01T13:09:30Z</time>
      </trkpt>
      <trkpt lat="47.25339" lon="6.94821">
        <ele>548.828</ele>
        <time>2018-08-01T13:09:31Z</time>
      </trkpt>
      <trkpt lat="47.25332" lon="6.94821">
        <ele>548.689</ele>
        <time>2018-08-01T13:09:33Z</time>
      </trkpt>
      <trkpt lat="47.25326" lon="6.94826">
        <ele>548.517</ele>
        <time>2018-08-01T13:09:35Z</time>
      </trkpt>
      <trkpt lat="47.25317" lon="6.94831">
        <ele>548.408</ele>
        <time>2018-08-01T13:09:37Z</time>
      </trkpt>
      <trkpt lat="47.25309" lon="6.94833">
        <ele>548.214</ele>
        <time>2018-08-01T13:09:39Z</time>
      </trkpt>
      <trkpt lat="47.25304" lon="6.94831">
        <ele>547.989</ele>
        <time>2018-08-01T13:09:40Z</time>
      </trkpt>
      <trkpt lat="47.253" lon="6.94829">
        <ele>547.633</ele>
        <time>2018-08-01T13:09:41Z</time>
      </trkpt>
      <trkpt lat="47.25292" lon="6.94825">
        <ele>547.225</ele>
        <time>2018-08-01T13:09:43Z</time>
      </trkpt>
      <trkpt lat="47.25282" lon="6.94822">
        <ele>546.751</ele>
        <time>2018-08-01T13:09:45Z</time>
      </trkpt>
      <trkpt lat="47.25276" lon="6.94819">
        <ele>546.448</ele>
        <time>2018-08-01T13:09:46Z</time>
      </trkpt>
      <trkpt lat="47.25273" lon="6.94816">
        <ele>546.273</ele>
        <time>2018-08-01T13:09:47Z</time>
      </trkpt>
      <trkpt lat="47.25267" lon="6.94813">
        <ele>545.942</ele>
        <time>2018-08-01T13:09:48Z</time>
      </trkpt>
      <trkpt lat="47.25262" lon="6.94812">
        <ele>545.645</ele>
        <time>2018-08-01T13:09:49Z</time>
      </trkpt>
      <trkpt lat="47.25253" lon="6.9481">
        <ele>545.247</ele>
        <time>2018-08-01T13:09:51Z</time>
      </trkpt>
      <trkpt lat="47.25245" lon="6.94813">
        <ele>544.211</ele>
        <time>2018-08-01T13:09:54Z</time>
      </trkpt>
      <trkpt lat="47.25238" lon="6.94815">
        <ele>543.408</ele>
        <time>2018-08-01T13:09:56Z</time>
      </trkpt>
      <trkpt lat="47.25234" lon="6.94819">
        <ele>542.626</ele>
        <time>2018-08-01T13:09:58Z</time>
      </trkpt>
      <trkpt lat="47.25228" lon="6.94818">
        <ele>542.261</ele>
        <time>2018-08-01T13:09:59Z</time>
      </trkpt>
      <trkpt lat="47.25224" lon="6.94818">
        <ele>542.035</ele>
        <time>2018-08-01T13:10:00Z</time>
      </trkpt>
      <trkpt lat="47.25217" lon="6.94814">
        <ele>541.147</ele>
        <time>2018-08-01T13:10:02Z</time>
      </trkpt>
      <trkpt lat="47.25211" lon="6.94808">
        <ele>540.483</ele>
        <time>2018-08-01T13:10:05Z</time>
      </trkpt>
      <trkpt lat="47.25207" lon="6.94802">
        <ele>539.23</ele>
        <time>2018-08-01T13:10:07Z</time>
      </trkpt>
      <trkpt lat="47.25202" lon="6.94798">
        <ele>538.795</ele>
        <time>2018-08-01T13:10:08Z</time>
      </trkpt>
      <trkpt lat="47.25198" lon="6.94794">
        <ele>538.254</ele>
        <time>2018-08-01T13:10:09Z</time>
      </trkpt>
      <trkpt lat="47.25189" lon="6.94789">
        <ele>537.153</ele>
        <time>2018-08-01T13:10:11Z</time>
      </trkpt>
      <trkpt lat="47.25185" lon="6.94786">
        <ele>536.504</ele>
        <time>2018-08-01T13:10:12Z</time>
      </trkpt>
      <trkpt lat="47.25179" lon="6.94786">
        <ele>536.214</ele>
        <time>2018-08-01T13:10:13Z</time>
      </trkpt>
      <trkpt lat="47.25175" lon="6.94785">
        <ele>535.608</ele>
        <time>2018-08-01T13:10:14Z</time>
      </trkpt>
      <trkpt lat="47.25171" lon="6.94793">
        <ele>535.017</ele>
        <time>2018-08-01T13:10:15Z</time>
      </trkpt>
      <trkpt lat="47.25166" lon="6.94797">
        <ele>534.562</ele>
        <time>2018-08-01T13:10:16Z</time>
      </trkpt>
      <trkpt lat="47.25161" lon="6.94801">
        <ele>534.146</ele>
        <time>2018-08-01T13:10:17Z</time>
      </trkpt>
      <trkpt lat="47.25155" lon="6.94803">
        <ele>533.758</ele>
        <time>2018-08-01T13:10:18Z</time>
      </trkpt>
      <trkpt lat="47.25148" lon="6.94801">
        <ele>533.334</ele>
        <time>2018-08-01T13:10:19Z</time>
      </trkpt>
      <trkpt lat="47.25142" lon="6.94801">
        <ele>533.161</ele>
        <time>2018-08-01T13:10:20Z</time>
      </trkpt>
      <trkpt lat="47.25135" lon="6.94799">
        <ele>532.776</ele>
        <time>2018-08-01T13:10:21Z</time>
      </trkpt>
      <trkpt lat="47.25129" lon="6.94796">
        <ele>532.255</ele>
        <time>2018-08-01T13:10:22Z</time>
      </trkpt>
      <trkpt lat="47.25124" lon="6.94792">
        <ele>531.778</ele>
        <time>2018-08-01T13:10:23Z</time>
      </trkpt>
      <trkpt lat="47.25119" lon="6.94782">
        <ele>530.433</ele>
        <time>2018-08-01T13:10:25Z</time>
      </trkpt>
      <trkpt lat="47.25113" lon="6.94776">
        <ele>529.126</ele>
        <time>2018-08-01T13:10:27Z</time>
      </trkpt>
      <trkpt lat="47.25109" lon="6.94772">
        <ele>527.808</ele>
        <time>2018-08-01T13:10:29Z</time>
      </trkpt>
      <trkpt lat="47.25104" lon="6.94768">
        <ele>527.339</ele>
        <time>2018-08-01T13:10:31Z</time>
      </trkpt>
      <trkpt lat="47.25096" lon="6.94763">
        <ele>526.764</ele>
        <time>2018-08-01T13:10:33Z</time>
      </trkpt>
      <trkpt lat="47.25091" lon="6.94762">
        <ele>526.328</ele>
        <time>2018-08-01T13:10:34Z</time>
      </trkpt>
      <trkpt lat="47.25085" lon="6.94762">
        <ele>525.71</ele>
        <time>2018-08-01T13:10:36Z</time>
      </trkpt>
      <trkpt lat="47.2508" lon="6.94761">
        <ele>524.416</ele>
        <time>2018-08-01T13:10:39Z</time>
      </trkpt>
      <trkpt lat="47.25075" lon="6.94762">
        <ele>523.393</ele>
        <time>2018-08-01T13:10:46Z</time>
      </trkpt>
      <trkpt lat="47.25068" lon="6.94763">
        <ele>522.768</ele>
        <time>2018-08-01T13:10:49Z</time>
      </trkpt>
      <trkpt lat="47.25064" lon="6.94764">
        <ele>521.887</ele>
        <time>2018-08-01T13:10:52Z</time>
      </trkpt>
      <trkpt lat="47.25059" lon="6.94765">
        <ele>521.075</ele>
        <time>2018-08-01T13:10:57Z</time>
      </trkpt>
      <trkpt lat="47.25053" lon="6.94765">
        <ele>520.928</ele>
        <time>2018-08-01T13:11:19Z</time>
      </trkpt>
      <trkpt lat="47.2505" lon="6.94771">
        <ele>521.42</ele>
        <time>2018-08-01T13:11:22Z</time>
      </trkpt>
      <trkpt lat="47.25044" lon="6.94775">
        <ele>521.908</ele>
        <time>2018-08-01T13:11:24Z</time>
      </trkpt>
      <trkpt lat="47.25039" lon="6.94777">
        <ele>522.269</ele>
        <time>2018-08-01T13:11:26Z</time>
      </trkpt>
      <trkpt lat="47.25033" lon="6.9478">
        <ele>522.264</ele>
        <time>2018-08-01T13:11:28Z</time>
      </trkpt>
      <trkpt lat="47.25025" lon="6.94787">
        <ele>522.278</ele>
        <time>2018-08-01T13:11:30Z</time>
      </trkpt>
      <trkpt lat="47.25019" lon="6.94795">
        <ele>522.16</ele>
        <time>2018-08-01T13:11:32Z</time>
      </trkpt>
      <trkpt lat="47.25016" lon="6.94802">
        <ele>522.056</ele>
        <time>2018-08-01T13:11:34Z</time>
      </trkpt>
      <trkpt lat="47.25012" lon="6.94811">
        <ele>522.053</ele>
        <time>2018-08-01T13:11:36Z</time>
      </trkpt>
      <trkpt lat="47.25008" lon="6.94821">
        <ele>521.918</ele>
        <time>2018-08-01T13:11:38Z</time>
      </trkpt>
      <trkpt lat="47.24999" lon="6.94834">
        <ele>521.487</ele>
        <time>2018-08-01T13:11:40Z</time>
      </trkpt>
      <trkpt lat="47.24993" lon="6.94838">
        <ele>520.983</ele>
        <time>2018-08-01T13:11:41Z</time>
      </trkpt>
      <trkpt lat="47.24981" lon="6.94846">
        <ele>520.125</ele>
        <time>2018-08-01T13:11:43Z</time>
      </trkpt>
      <trkpt lat="47.24977" lon="6.94851">
        <ele>519.817</ele>
        <time>2018-08-01T13:11:44Z</time>
      </trkpt>
      <trkpt lat="47.24972" lon="6.94856">
        <ele>519.608</ele>
        <time>2018-08-01T13:11:45Z</time>
      </trkpt>
      <trkpt lat="47.24967" lon="6.94858">
        <ele>519.72</ele>
        <time>2018-08-01T13:11:47Z</time>
      </trkpt>
      <trkpt lat="47.24963" lon="6.94861">
        <ele>519.735</ele>
        <time>2018-08-01T13:11:48Z</time>
      </trkpt>
      <trkpt lat="47.24956" lon="6.94864">
        <ele>519.889</ele>
        <time>2018-08-01T13:11:49Z</time>
      </trkpt>
      <trkpt lat="47.24953" lon="6.9487">
        <ele>520.271</ele>
        <time>2018-08-01T13:11:51Z</time>
      </trkpt>
      <trkpt lat="47.24949" lon="6.94875">
        <ele>520.787</ele>
        <time>2018-08-01T13:11:54Z</time>
      </trkpt>
      <trkpt lat="47.24944" lon="6.94878">
        <ele>521.054</ele>
        <time>2018-08-01T13:11:58Z</time>
      </trkpt>
      <trkpt lat="47.24939" lon="6.94883">
        <ele>520.839</ele>
        <time>2018-08-01T13:12:01Z</time>
      </trkpt>
      <trkpt lat="47.24933" lon="6.9489">
        <ele>520.558</ele>
        <time>2018-08-01T13:12:04Z</time>
      </trkpt>
      <trkpt lat="47.24929" lon="6.94893">
        <ele>520.458</ele>
        <time>2018-08-01T13:12:05Z</time>
      </trkpt>
      <trkpt lat="47.24924" lon="6.94898">
        <ele>520.252</ele>
        <time>2018-08-01T13:12:07Z</time>
      </trkpt>
      <trkpt lat="47.24919" lon="6.94903">
        <ele>520.017</ele>
        <time>2018-08-01T13:12:09Z</time>
      </trkpt>
      <trkpt lat="47.24914" lon="6.94909">
        <ele>520.008</ele>
        <time>2018-08-01T13:12:11Z</time>
      </trkpt>
      <trkpt lat="47.2491" lon="6.94915">
        <ele>520.117</ele>
        <time>2018-08-01T13:12:13Z</time>
      </trkpt>
      <trkpt lat="47.24905" lon="6.94922">
        <ele>520.272</ele>
        <time>2018-08-01T13:12:15Z</time>
      </trkpt>
      <trkpt lat="47.24901" lon="6.94928">
        <ele>520.266</ele>
        <time>2018-08-01T13:12:17Z</time>
      </trkpt>
      <trkpt lat="47.24897" lon="6.94935">
        <ele>520.248</ele>
        <time>2018-08-01T13:12:19Z</time>
      </trkpt>
      <trkpt lat="47.24893" lon="6.94943">
        <ele>520.274</ele>
        <time>2018-08-01T13:12:21Z</time>
      </trkpt>
      <trkpt lat="47.24892" lon="6.94952">
        <ele>520.281</ele>
        <time>2018-08-01T13:12:23Z</time>
      </trkpt>
      <trkpt lat="47.24893" lon="6.94963">
        <ele>520.356</ele>
        <time>2018-08-01T13:12:25Z</time>
      </trkpt>
      <trkpt lat="47.24893" lon="6.94971">
        <ele>520.585</ele>
        <time>2018-08-01T13:12:27Z</time>
      </trkpt>
      <trkpt lat="47.24894" lon="6.94978">
        <ele>520.665</ele>
        <time>2018-08-01T13:12:29Z</time>
      </trkpt>
      <trkpt lat="47.24895" lon="6.94985">
        <ele>521.068</ele>
        <time>2018-08-01T13:12:31Z</time>
      </trkpt>
      <trkpt lat="47.24894" lon="6.94993">
        <ele>521.614</ele>
        <time>2018-08-01T13:12:33Z</time>
      </trkpt>
      <trkpt lat="47.24895" lon="6.94999">
        <ele>522.508</ele>
        <time>2018-08-01T13:12:35Z</time>
      </trkpt>
      <trkpt lat="47.24896" lon="6.95009">
        <ele>523.938</ele>
        <time>2018-08-01T13:12:38Z</time>
      </trkpt>
      <trkpt lat="47.24897" lon="6.95016">
        <ele>524.723</ele>
        <time>2018-08-01T13:12:40Z</time>
      </trkpt>
      <trkpt lat="47.24896" lon="6.95023">
        <ele>525.367</ele>
        <time>2018-08-01T13:12:42Z</time>
      </trkpt>
      <trkpt lat="47.24896" lon="6.95031">
        <ele>525.779</ele>
        <time>2018-08-01T13:12:44Z</time>
      </trkpt>
      <trkpt lat="47.24896" lon="6.95039">
        <ele>526.125</ele>
        <time>2018-08-01T13:12:46Z</time>
      </trkpt>
      <trkpt lat="47.24897" lon="6.95047">
        <ele>526.432</ele>
        <time>2018-08-01T13:12:48Z</time>
      </trkpt>
      <trkpt lat="47.24895" lon="6.95055">
        <ele>526.687</ele>
        <time>2018-08-01T13:12:51Z</time>
      </trkpt>
      <trkpt lat="47.24891" lon="6.95059">
        <ele>526.746</ele>
        <time>2018-08-01T13:12:54Z</time>
      </trkpt>
      <trkpt lat="47.24886" lon="6.95063">
        <ele>527.068</ele>
        <time>2018-08-01T13:12:57Z</time>
      </trkpt>
      <trkpt lat="47.24884" lon="6.9507">
        <ele>527.342</ele>
        <time>2018-08-01T13:13:00Z</time>
      </trkpt>
      <trkpt lat="47.24884" lon="6.95078">
        <ele>527.426</ele>
        <time>2018-08-01T13:13:03Z</time>
      </trkpt>
      <trkpt lat="47.24881" lon="6.95085">
        <ele>527.408</ele>
        <time>2018-08-01T13:13:06Z</time>
      </trkpt>
      <trkpt lat="47.24877" lon="6.95091">
        <ele>527.548</ele>
        <time>2018-08-01T13:13:09Z</time>
      </trkpt>
      <trkpt lat="47.24872" lon="6.95097">
        <ele>527.553</ele>
        <time>2018-08-01T13:13:12Z</time>
      </trkpt>
      <trkpt lat="47.24868" lon="6.95102">
        <ele>527.577</ele>
        <time>2018-08-01T13:13:14Z</time>
      </trkpt>
      <trkpt lat="47.24863" lon="6.95106">
        <ele>527.599</ele>
        <time>2018-08-01T13:13:16Z</time>
      </trkpt>
      <trkpt lat="47.24858" lon="6.9511">
        <ele>527.535</ele>
        <time>2018-08-01T13:13:18Z</time>
      </trkpt>
      <trkpt lat="47.24853" lon="6.95113">
        <ele>527.512</ele>
        <time>2018-08-01T13:13:20Z</time>
      </trkpt>
      <trkpt lat="47.24848" lon="6.95116">
        <ele>527.677</ele>
        <time>2018-08-01T13:13:22Z</time>
      </trkpt>
      <trkpt lat="47.24845" lon="6.95122">
        <ele>527.876</ele>
        <time>2018-08-01T13:13:24Z</time>
      </trkpt>
      <trkpt lat="47.24841" lon="6.95129">
        <ele>528.136</ele>
        <time>2018-08-01T13:13:26Z</time>
      </trkpt>
      <trkpt lat="47.24837" lon="6.95136">
        <ele>528.417</ele>
        <time>2018-08-01T13:13:28Z</time>
      </trkpt>
      <trkpt lat="47.24833" lon="6.95143">
        <ele>528.818</ele>
        <time>2018-08-01T13:13:30Z</time>
      </trkpt>
      <trkpt lat="47.24829" lon="6.9515">
        <ele>529.208</ele>
        <time>2018-08-01T13:13:32Z</time>
      </trkpt>
      <trkpt lat="47.24825" lon="6.95157">
        <ele>529.625</ele>
        <time>2018-08-01T13:13:34Z</time>
      </trkpt>
      <trkpt lat="47.24819" lon="6.95165">
        <ele>529.92</ele>
        <time>2018-08-01T13:13:36Z</time>
      </trkpt>
      <trkpt lat="47.24815" lon="6.95172">
        <ele>530.434</ele>
        <time>2018-08-01T13:13:38Z</time>
      </trkpt>
      <trkpt lat="47.24812" lon="6.9518">
        <ele>531.056</ele>
        <time>2018-08-01T13:13:40Z</time>
      </trkpt>
      <trkpt lat="47.2481" lon="6.95189">
        <ele>531.882</ele>
        <time>2018-08-01T13:13:43Z</time>
      </trkpt>
      <trkpt lat="47.24809" lon="6.95196">
        <ele>532.119</ele>
        <time>2018-08-01T13:13:45Z</time>
      </trkpt>
      <trkpt lat="47.24807" lon="6.95206">
        <ele>533.034</ele>
        <time>2018-08-01T13:13:48Z</time>
      </trkpt>
      <trkpt lat="47.24805" lon="6.95215">
        <ele>534.133</ele>
        <time>2018-08-01T13:13:51Z</time>
      </trkpt>
      <trkpt lat="47.24802" lon="6.95224">
        <ele>535.273</ele>
        <time>2018-08-01T13:13:54Z</time>
      </trkpt>
      <trkpt lat="47.24797" lon="6.95229">
        <ele>535.785</ele>
        <time>2018-08-01T13:13:56Z</time>
      </trkpt>
      <trkpt lat="47.24791" lon="6.95233">
        <ele>536.013</ele>
        <time>2018-08-01T13:13:58Z</time>
      </trkpt>
      <trkpt lat="47.24786" lon="6.95237">
        <ele>536.308</ele>
        <time>2018-08-01T13:14:00Z</time>
      </trkpt>
      <trkpt lat="47.24783" lon="6.95242">
        <ele>536.649</ele>
        <time>2018-08-01T13:14:02Z</time>
      </trkpt>
      <trkpt lat="47.24777" lon="6.95247">
        <ele>537.144</ele>
        <time>2018-08-01T13:14:05Z</time>
      </trkpt>
      <trkpt lat="47.24774" lon="6.95252">
        <ele>537.688</ele>
        <time>2018-08-01T13:14:08Z</time>
      </trkpt>
      <trkpt lat="47.24769" lon="6.95256">
        <ele>537.89</ele>
        <time>2018-08-01T13:14:12Z</time>
      </trkpt>
      <trkpt lat="47.24764" lon="6.95261">
        <ele>537.746</ele>
        <time>2018-08-01T13:14:14Z</time>
      </trkpt>
      <trkpt lat="47.24759" lon="6.95265">
        <ele>537.653</ele>
        <time>2018-08-01T13:14:16Z</time>
      </trkpt>
      <trkpt lat="47.2475" lon="6.95269">
        <ele>537.568</ele>
        <time>2018-08-01T13:14:18Z</time>
      </trkpt>
      <trkpt lat="47.24746" lon="6.95272">
        <ele>537.467</ele>
        <time>2018-08-01T13:14:19Z</time>
      </trkpt>
      <trkpt lat="47.24734" lon="6.9528">
        <ele>537.222</ele>
        <time>2018-08-01T13:14:21Z</time>
      </trkpt>
      <trkpt lat="47.24729" lon="6.95282">
        <ele>537.062</ele>
        <time>2018-08-01T13:14:22Z</time>
      </trkpt>
      <trkpt lat="47.24723" lon="6.95285">
        <ele>536.908</ele>
        <time>2018-08-01T13:14:23Z</time>
      </trkpt>
      <trkpt lat="47.24718" lon="6.95291">
        <ele>536.808</ele>
        <time>2018-08-01T13:14:24Z</time>
      </trkpt>
      <trkpt lat="47.24713" lon="6.95295">
        <ele>536.734</ele>
        <time>2018-08-01T13:14:25Z</time>
      </trkpt>
      <trkpt lat="47.24708" lon="6.95299">
        <ele>536.639</ele>
        <time>2018-08-01T13:14:26Z</time>
      </trkpt>
      <trkpt lat="47.24702" lon="6.95302">
        <ele>536.663</ele>
        <time>2018-08-01T13:14:27Z</time>
      </trkpt>
      <trkpt lat="47.24697" lon="6.95306">
        <ele>536.445</ele>
        <time>2018-08-01T13:14:28Z</time>
      </trkpt>
      <trkpt lat="47.24693" lon="6.95309">
        <ele>536.231</ele>
        <time>2018-08-01T13:14:29Z</time>
      </trkpt>
      <trkpt lat="47.2469" lon="6.95314">
        <ele>536.148</ele>
        <time>2018-08-01T13:14:30Z</time>
      </trkpt>
      <trkpt lat="47.24681" lon="6.9532">
        <ele>535.863</ele>
        <time>2018-08-01T13:14:32Z</time>
      </trkpt>
      <trkpt lat="47.24676" lon="6.95323">
        <ele>535.792</ele>
        <time>2018-08-01T13:14:33Z</time>
      </trkpt>
      <trkpt lat="47.24669" lon="6.95327">
        <ele>535.736</ele>
        <time>2018-08-01T13:14:34Z</time>
      </trkpt>
      <trkpt lat="47.24662" lon="6.95333">
        <ele>535.717</ele>
        <time>2018-08-01T13:14:36Z</time>
      </trkpt>
      <trkpt lat="47.24656" lon="6.95338">
        <ele>535.818</ele>
        <time>2018-08-01T13:14:38Z</time>
      </trkpt>
      <trkpt lat="47.24652" lon="6.95344">
        <ele>535.908</ele>
        <time>2018-08-01T13:14:39Z</time>
      </trkpt>
      <trkpt lat="47.24645" lon="6.95345">
        <ele>535.985</ele>
        <time>2018-08-01T13:14:40Z</time>
      </trkpt>
      <trkpt lat="47.24634" lon="6.95344">
        <ele>536.07</ele>
        <time>2018-08-01T13:14:42Z</time>
      </trkpt>
      <trkpt lat="47.24625" lon="6.95346">
        <ele>536.044</ele>
        <time>2018-08-01T13:14:44Z</time>
      </trkpt>
      <trkpt lat="47.24616" lon="6.95349">
        <ele>536.096</ele>
        <time>2018-08-01T13:14:46Z</time>
      </trkpt>
      <trkpt lat="47.24612" lon="6.95353">
        <ele>536.132</ele>
        <time>2018-08-01T13:14:47Z</time>
      </trkpt>
      <trkpt lat="47.24608" lon="6.95357">
        <ele>536.259</ele>
        <time>2018-08-01T13:14:48Z</time>
      </trkpt>
      <trkpt lat="47.24605" lon="6.95363">
        <ele>536.284</ele>
        <time>2018-08-01T13:14:49Z</time>
      </trkpt>
      <trkpt lat="47.24601" lon="6.95369">
        <ele>536.223</ele>
        <time>2018-08-01T13:14:50Z</time>
      </trkpt>
      <trkpt lat="47.24597" lon="6.95375">
        <ele>536.254</ele>
        <time>2018-08-01T13:14:51Z</time>
      </trkpt>
      <trkpt lat="47.2459" lon="6.95381">
        <ele>536.256</ele>
        <time>2018-08-01T13:14:53Z</time>
      </trkpt>
      <trkpt lat="47.24584" lon="6.95388">
        <ele>536.211</ele>
        <time>2018-08-01T13:14:55Z</time>
      </trkpt>
      <trkpt lat="47.24579" lon="6.95392">
        <ele>536.208</ele>
        <time>2018-08-01T13:14:56Z</time>
      </trkpt>
      <trkpt lat="47.2457" lon="6.95399">
        <ele>536.147</ele>
        <time>2018-08-01T13:14:58Z</time>
      </trkpt>
      <trkpt lat="47.24563" lon="6.95409">
        <ele>536.062</ele>
        <time>2018-08-01T13:15:00Z</time>
      </trkpt>
      <trkpt lat="47.24557" lon="6.95412">
        <ele>535.966</ele>
        <time>2018-08-01T13:15:01Z</time>
      </trkpt>
      <trkpt lat="47.24553" lon="6.95416">
        <ele>535.868</ele>
        <time>2018-08-01T13:15:02Z</time>
      </trkpt>
      <trkpt lat="47.24549" lon="6.95422">
        <ele>535.844</ele>
        <time>2018-08-01T13:15:03Z</time>
      </trkpt>
      <trkpt lat="47.24545" lon="6.95427">
        <ele>535.841</ele>
        <time>2018-08-01T13:15:04Z</time>
      </trkpt>
      <trkpt lat="47.2454" lon="6.95434">
        <ele>535.986</ele>
        <time>2018-08-01T13:15:05Z</time>
      </trkpt>
      <trkpt lat="47.24536" lon="6.95441">
        <ele>535.965</ele>
        <time>2018-08-01T13:15:06Z</time>
      </trkpt>
      <trkpt lat="47.24528" lon="6.95452">
        <ele>536.117</ele>
        <time>2018-08-01T13:15:08Z</time>
      </trkpt>
      <trkpt lat="47.24523" lon="6.95452">
        <ele>536.187</ele>
        <time>2018-08-01T13:15:09Z</time>
      </trkpt>
      <trkpt lat="47.24515" lon="6.9546">
        <ele>536.315</ele>
        <time>2018-08-01T13:15:11Z</time>
      </trkpt>
      <trkpt lat="47.24508" lon="6.95468">
        <ele>536.408</ele>
        <time>2018-08-01T13:15:13Z</time>
      </trkpt>
      <trkpt lat="47.24502" lon="6.9547">
        <ele>536.583</ele>
        <time>2018-08-01T13:15:14Z</time>
      </trkpt>
      <trkpt lat="47.24497" lon="6.95472">
        <ele>536.628</ele>
        <time>2018-08-01T13:15:15Z</time>
      </trkpt>
      <trkpt lat="47.24491" lon="6.95474">
        <ele>536.622</ele>
        <time>2018-08-01T13:15:16Z</time>
      </trkpt>
      <trkpt lat="47.24486" lon="6.95476">
        <ele>536.664</ele>
        <time>2018-08-01T13:15:17Z</time>
      </trkpt>
      <trkpt lat="47.24484" lon="6.95483">
        <ele>536.67</ele>
        <time>2018-08-01T13:15:18Z</time>
      </trkpt>
      <trkpt lat="47.24478" lon="6.95496">
        <ele>536.457</ele>
        <time>2018-08-01T13:15:20Z</time>
      </trkpt>
      <trkpt lat="47.24476" lon="6.95502">
        <ele>536.422</ele>
        <time>2018-08-01T13:15:21Z</time>
      </trkpt>
      <trkpt lat="47.24477" lon="6.95514">
        <ele>536.461</ele>
        <time>2018-08-01T13:15:23Z</time>
      </trkpt>
      <trkpt lat="47.24476" lon="6.95522">
        <ele>536.438</ele>
        <time>2018-08-01T13:15:24Z</time>
      </trkpt>
      <trkpt lat="47.24476" lon="6.9553">
        <ele>536.47</ele>
        <time>2018-08-01T13:15:25Z</time>
      </trkpt>
      <trkpt lat="47.24473" lon="6.95538">
        <ele>536.417</ele>
        <time>2018-08-01T13:15:26Z</time>
      </trkpt>
      <trkpt lat="47.2447" lon="6.95544">
        <ele>536.408</ele>
        <time>2018-08-01T13:15:27Z</time>
      </trkpt>
      <trkpt lat="47.24464" lon="6.95551">
        <ele>536.315</ele>
        <time>2018-08-01T13:15:28Z</time>
      </trkpt>
      <trkpt lat="47.24465" lon="6.95558">
        <ele>536.38</ele>
        <time>2018-08-01T13:15:29Z</time>
      </trkpt>
      <trkpt lat="47.2446" lon="6.95567">
        <ele>536.264</ele>
        <time>2018-08-01T13:15:31Z</time>
      </trkpt>
      <trkpt lat="47.24456" lon="6.95572">
        <ele>536.126</ele>
        <time>2018-08-01T13:15:32Z</time>
      </trkpt>
      <trkpt lat="47.24451" lon="6.95579">
        <ele>536.162</ele>
        <time>2018-08-01T13:15:33Z</time>
      </trkpt>
      <trkpt lat="47.24448" lon="6.95585">
        <ele>536.149</ele>
        <time>2018-08-01T13:15:34Z</time>
      </trkpt>
      <trkpt lat="47.24443" lon="6.95591">
        <ele>536.024</ele>
        <time>2018-08-01T13:15:35Z</time>
      </trkpt>
      <trkpt lat="47.2444" lon="6.95596">
        <ele>536.073</ele>
        <time>2018-08-01T13:15:36Z</time>
      </trkpt>
      <trkpt lat="47.24435" lon="6.95599">
        <ele>535.954</ele>
        <time>2018-08-01T13:15:37Z</time>
      </trkpt>
      <trkpt lat="47.24427" lon="6.95606">
        <ele>535.756</ele>
        <time>2018-08-01T13:15:39Z</time>
      </trkpt>
      <trkpt lat="47.24422" lon="6.95613">
        <ele>535.611</ele>
        <time>2018-08-01T13:15:40Z</time>
      </trkpt>
      <trkpt lat="47.24414" lon="6.95617">
        <ele>535.508</ele>
        <time>2018-08-01T13:15:41Z</time>
      </trkpt>
      <trkpt lat="47.24407" lon="6.95622">
        <ele>535.337</ele>
        <time>2018-08-01T13:15:43Z</time>
      </trkpt>
      <trkpt lat="47.24401" lon="6.95624">
        <ele>535.152</ele>
        <time>2018-08-01T13:15:44Z</time>
      </trkpt>
      <trkpt lat="47.24394" lon="6.95627">
        <ele>534.896</ele>
        <time>2018-08-01T13:15:45Z</time>
      </trkpt>
      <trkpt lat="47.24389" lon="6.9563">
        <ele>534.428</ele>
        <time>2018-08-01T13:15:46Z</time>
      </trkpt>
      <trkpt lat="47.2438" lon="6.95634">
        <ele>533.464</ele>
        <time>2018-08-01T13:15:48Z</time>
      </trkpt>
      <trkpt lat="47.24375" lon="6.95634">
        <ele>532.931</ele>
        <time>2018-08-01T13:15:49Z</time>
      </trkpt>
      <trkpt lat="47.24368" lon="6.95637">
        <ele>532.176</ele>
        <time>2018-08-01T13:15:51Z</time>
      </trkpt>
      <trkpt lat="47.24358" lon="6.95635">
        <ele>531.775</ele>
        <time>2018-08-01T13:15:53Z</time>
      </trkpt>
      <trkpt lat="47.24354" lon="6.95632">
        <ele>531.645</ele>
        <time>2018-08-01T13:15:54Z</time>
      </trkpt>
      <trkpt lat="47.24345" lon="6.95629">
        <ele>531.547</ele>
        <time>2018-08-01T13:15:55Z</time>
      </trkpt>
      <trkpt lat="47.2434" lon="6.95623">
        <ele>531.411</ele>
        <time>2018-08-01T13:15:56Z</time>
      </trkpt>
      <trkpt lat="47.24335" lon="6.9562">
        <ele>531.308</ele>
        <time>2018-08-01T13:15:57Z</time>
      </trkpt>
      <trkpt lat="47.2433" lon="6.95615">
        <ele>531.156</ele>
        <time>2018-08-01T13:15:58Z</time>
      </trkpt>
      <trkpt lat="47.24319" lon="6.95607">
        <ele>530.941</ele>
        <time>2018-08-01T13:15:59Z</time>
      </trkpt>
      <trkpt lat="47.24313" lon="6.95602">
        <ele>530.785</ele>
        <time>2018-08-01T13:16:00Z</time>
      </trkpt>
      <trkpt lat="47.24309" lon="6.95597">
        <ele>530.667</ele>
        <time>2018-08-01T13:16:01Z</time>
      </trkpt>
      <trkpt lat="47.24304" lon="6.9559">
        <ele>530.523</ele>
        <time>2018-08-01T13:16:02Z</time>
      </trkpt>
      <trkpt lat="47.24298" lon="6.95583">
        <ele>530.41</ele>
        <time>2018-08-01T13:16:03Z</time>
      </trkpt>
      <trkpt lat="47.24292" lon="6.95576">
        <ele>530.335</ele>
        <time>2018-08-01T13:16:04Z</time>
      </trkpt>
      <trkpt lat="47.24288" lon="6.95567">
        <ele>530.344</ele>
        <time>2018-08-01T13:16:05Z</time>
      </trkpt>
      <trkpt lat="47.24284" lon="6.95559">
        <ele>530.122</ele>
        <time>2018-08-01T13:16:06Z</time>
      </trkpt>
      <trkpt lat="47.2428" lon="6.95552">
        <ele>529.962</ele>
        <time>2018-08-01T13:16:07Z</time>
      </trkpt>
      <trkpt lat="47.24276" lon="6.95546">
        <ele>529.608</ele>
        <time>2018-08-01T13:16:08Z</time>
      </trkpt>
      <trkpt lat="47.24271" lon="6.95541">
        <ele>529.308</ele>
        <time>2018-08-01T13:16:09Z</time>
      </trkpt>
      <trkpt lat="47.24266" lon="6.95536">
        <ele>529.024</ele>
        <time>2018-08-01T13:16:10Z</time>
      </trkpt>
      <trkpt lat="47.24262" lon="6.95532">
        <ele>528.719</ele>
        <time>2018-08-01T13:16:11Z</time>
      </trkpt>
      <trkpt lat="47.24258" lon="6.95528">
        <ele>528.633</ele>
        <time>2018-08-01T13:16:12Z</time>
      </trkpt>
      <trkpt lat="47.24251" lon="6.9552">
        <ele>528.275</ele>
        <time>2018-08-01T13:16:14Z</time>
      </trkpt>
      <trkpt lat="47.24249" lon="6.95512">
        <ele>527.981</ele>
        <time>2018-08-01T13:16:16Z</time>
      </trkpt>
      <trkpt lat="47.24246" lon="6.95504">
        <ele>527.658</ele>
        <time>2018-08-01T13:16:18Z</time>
      </trkpt>
      <trkpt lat="47.24245" lon="6.95494">
        <ele>527.443</ele>
        <time>2018-08-01T13:16:21Z</time>
      </trkpt>
      <trkpt lat="47.24245" lon="6.95486">
        <ele>527.372</ele>
        <time>2018-08-01T13:16:24Z</time>
      </trkpt>
      <trkpt lat="47.24245" lon="6.95478">
        <ele>527.272</ele>
        <time>2018-08-01T13:16:27Z</time>
      </trkpt>
      <trkpt lat="47.24244" lon="6.95471">
        <ele>527.113</ele>
        <time>2018-08-01T13:16:30Z</time>
      </trkpt>
      <trkpt lat="47.24242" lon="6.95464">
        <ele>527.214</ele>
        <time>2018-08-01T13:16:34Z</time>
      </trkpt>
      <trkpt lat="47.2424" lon="6.95458">
        <ele>527.308</ele>
        <time>2018-08-01T13:16:37Z</time>
      </trkpt>
      <trkpt lat="47.24238" lon="6.95451">
        <ele>527.379</ele>
        <time>2018-08-01T13:16:40Z</time>
      </trkpt>
      <trkpt lat="47.24237" lon="6.95443">
        <ele>527.244</ele>
        <time>2018-08-01T13:16:44Z</time>
      </trkpt>
      <trkpt lat="47.24237" lon="6.95437">
        <ele>527.228</ele>
        <time>2018-08-01T13:16:47Z</time>
      </trkpt>
      <trkpt lat="47.24235" lon="6.95427">
        <ele>527.28</ele>
        <time>2018-08-01T13:16:50Z</time>
      </trkpt>
      <trkpt lat="47.24232" lon="6.95421">
        <ele>527.116</ele>
        <time>2018-08-01T13:16:52Z</time>
      </trkpt>
      <trkpt lat="47.24229" lon="6.95412">
        <ele>526.973</ele>
        <time>2018-08-01T13:16:55Z</time>
      </trkpt>
      <trkpt lat="47.24226" lon="6.95405">
        <ele>526.628</ele>
        <time>2018-08-01T13:16:58Z</time>
      </trkpt>
      <trkpt lat="47.24223" lon="6.95399">
        <ele>526.577</ele>
        <time>2018-08-01T13:17:01Z</time>
      </trkpt>
      <trkpt lat="47.24219" lon="6.95394">
        <ele>526.636</ele>
        <time>2018-08-01T13:17:04Z</time>
      </trkpt>
      <trkpt lat="47.24217" lon="6.95385">
        <ele>526.717</ele>
        <time>2018-08-01T13:17:07Z</time>
      </trkpt>
      <trkpt lat="47.24216" lon="6.95375">
        <ele>526.818</ele>
        <time>2018-08-01T13:17:10Z</time>
      </trkpt>
      <trkpt lat="47.24215" lon="6.95369">
        <ele>526.908</ele>
        <time>2018-08-01T13:17:12Z</time>
      </trkpt>
      <trkpt lat="47.24213" lon="6.95362">
        <ele>527.025</ele>
        <time>2018-08-01T13:17:14Z</time>
      </trkpt>
      <trkpt lat="47.24213" lon="6.95353">
        <ele>527.15</ele>
        <time>2018-08-01T13:17:17Z</time>
      </trkpt>
      <trkpt lat="47.24213" lon="6.95346">
        <ele>527.344</ele>
        <time>2018-08-01T13:17:19Z</time>
      </trkpt>
      <trkpt lat="47.2421" lon="6.9534">
        <ele>527.476</ele>
        <time>2018-08-01T13:17:21Z</time>
      </trkpt>
      <trkpt lat="47.24207" lon="6.95334">
        <ele>527.552</ele>
        <time>2018-08-01T13:17:23Z</time>
      </trkpt>
      <trkpt lat="47.24206" lon="6.95327">
        <ele>527.559</ele>
        <time>2018-08-01T13:17:25Z</time>
      </trkpt>
      <trkpt lat="47.24206" lon="6.95319">
        <ele>527.544</ele>
        <time>2018-08-01T13:17:27Z</time>
      </trkpt>
      <trkpt lat="47.24203" lon="6.95311">
        <ele>527.553</ele>
        <time>2018-08-01T13:17:29Z</time>
      </trkpt>
      <trkpt lat="47.24199" lon="6.95302">
        <ele>527.681</ele>
        <time>2018-08-01T13:17:31Z</time>
      </trkpt>
      <trkpt lat="47.24197" lon="6.95293">
        <ele>527.861</ele>
        <time>2018-08-01T13:17:33Z</time>
      </trkpt>
      <trkpt lat="47.24196" lon="6.95284">
        <ele>528.017</ele>
        <time>2018-08-01T13:17:35Z</time>
      </trkpt>
      <trkpt lat="47.24194" lon="6.95275">
        <ele>528.108</ele>
        <time>2018-08-01T13:17:37Z</time>
      </trkpt>
      <trkpt lat="47.24192" lon="6.95266">
        <ele>528.26</ele>
        <time>2018-08-01T13:17:39Z</time>
      </trkpt>
      <trkpt lat="47.24189" lon="6.95258">
        <ele>528.155</ele>
        <time>2018-08-01T13:17:41Z</time>
      </trkpt>
      <trkpt lat="47.24186" lon="6.9525">
        <ele>528.069</ele>
        <time>2018-08-01T13:17:43Z</time>
      </trkpt>
      <trkpt lat="47.24182" lon="6.95242">
        <ele>528.061</ele>
        <time>2018-08-01T13:17:45Z</time>
      </trkpt>
      <trkpt lat="47.24179" lon="6.95234">
        <ele>528.267</ele>
        <time>2018-08-01T13:17:47Z</time>
      </trkpt>
      <trkpt lat="47.24176" lon="6.95225">
        <ele>528.254</ele>
        <time>2018-08-01T13:17:49Z</time>
      </trkpt>
      <trkpt lat="47.24175" lon="6.95217">
        <ele>528.379</ele>
        <time>2018-08-01T13:17:51Z</time>
      </trkpt>
      <trkpt lat="47.24175" lon="6.95209">
        <ele>528.388</ele>
        <time>2018-08-01T13:17:53Z</time>
      </trkpt>
      <trkpt lat="47.24172" lon="6.95201">
        <ele>528.316</ele>
        <time>2018-08-01T13:17:55Z</time>
      </trkpt>
      <trkpt lat="47.24167" lon="6.95193">
        <ele>528.376</ele>
        <time>2018-08-01T13:17:57Z</time>
      </trkpt>
      <trkpt lat="47.24164" lon="6.95187">
        <ele>528.313</ele>
        <time>2018-08-01T13:17:59Z</time>
      </trkpt>
      <trkpt lat="47.24161" lon="6.95178">
        <ele>528.308</ele>
        <time>2018-08-01T13:18:01Z</time>
      </trkpt>
      <trkpt lat="47.24158" lon="6.95171">
        <ele>528.363</ele>
        <time>2018-08-01T13:18:03Z</time>
      </trkpt>
      <trkpt lat="47.24156" lon="6.95163">
        <ele>528.468</ele>
        <time>2018-08-01T13:18:05Z</time>
      </trkpt>
      <trkpt lat="47.24154" lon="6.95156">
        <ele>528.382</ele>
        <time>2018-08-01T13:18:07Z</time>
      </trkpt>
      <trkpt lat="47.24149" lon="6.95151">
        <ele>528.294</ele>
        <time>2018-08-01T13:18:09Z</time>
      </trkpt>
      <trkpt lat="47.24144" lon="6.95146">
        <ele>528.32</ele>
        <time>2018-08-01T13:18:11Z</time>
      </trkpt>
      <trkpt lat="47.24139" lon="6.95139">
        <ele>528.437</ele>
        <time>2018-08-01T13:18:13Z</time>
      </trkpt>
      <trkpt lat="47.24134" lon="6.9513">
        <ele>528.542</ele>
        <time>2018-08-01T13:18:15Z</time>
      </trkpt>
      <trkpt lat="47.24131" lon="6.95125">
        <ele>528.611</ele>
        <time>2018-08-01T13:18:17Z</time>
      </trkpt>
      <trkpt lat="47.24127" lon="6.95117">
        <ele>528.724</ele>
        <time>2018-08-01T13:18:19Z</time>
      </trkpt>
      <trkpt lat="47.24123" lon="6.95109">
        <ele>528.704</ele>
        <time>2018-08-01T13:18:21Z</time>
      </trkpt>
      <trkpt lat="47.24118" lon="6.951">
        <ele>528.614</ele>
        <time>2018-08-01T13:18:23Z</time>
      </trkpt>
      <trkpt lat="47.24113" lon="6.95093">
        <ele>528.608</ele>
        <time>2018-08-01T13:18:25Z</time>
      </trkpt>
      <trkpt lat="47.24108" lon="6.95087">
        <ele>528.614</ele>
        <time>2018-08-01T13:18:27Z</time>
      </trkpt>
      <trkpt lat="47.24103" lon="6.95081">
        <ele>528.639</ele>
        <time>2018-08-01T13:18:29Z</time>
      </trkpt>
      <trkpt lat="47.24099" lon="6.95076">
        <ele>528.583</ele>
        <time>2018-08-01T13:18:31Z</time>
      </trkpt>
      <trkpt lat="47.24094" lon="6.9507">
        <ele>528.395</ele>
        <time>2018-08-01T13:18:34Z</time>
      </trkpt>
      <trkpt lat="47.24087" lon="6.95062">
        <ele>528.261</ele>
        <time>2018-08-01T13:18:36Z</time>
      </trkpt>
      <trkpt lat="47.2408" lon="6.95054">
        <ele>528.058</ele>
        <time>2018-08-01T13:18:38Z</time>
      </trkpt>
      <trkpt lat="47.24074" lon="6.95046">
        <ele>527.843</ele>
        <time>2018-08-01T13:18:40Z</time>
      </trkpt>
      <trkpt lat="47.24069" lon="6.95039">
        <ele>527.742</ele>
        <time>2018-08-01T13:18:42Z</time>
      </trkpt>
      <trkpt lat="47.24066" lon="6.95031">
        <ele>527.593</ele>
        <time>2018-08-01T13:18:44Z</time>
      </trkpt>
      <trkpt lat="47.24062" lon="6.95024">
        <ele>527.465</ele>
        <time>2018-08-01T13:18:46Z</time>
      </trkpt>
      <trkpt lat="47.24056" lon="6.95019">
        <ele>527.521</ele>
        <time>2018-08-01T13:18:48Z</time>
      </trkpt>
      <trkpt lat="47.2405" lon="6.95012">
        <ele>527.608</ele>
        <time>2018-08-01T13:18:50Z</time>
      </trkpt>
      <trkpt lat="47.24045" lon="6.95006">
        <ele>527.761</ele>
        <time>2018-08-01T13:18:52Z</time>
      </trkpt>
      <trkpt lat="47.24041" lon="6.94999">
        <ele>527.796</ele>
        <time>2018-08-01T13:18:54Z</time>
      </trkpt>
      <trkpt lat="47.24033" lon="6.94993">
        <ele>527.94</ele>
        <time>2018-08-01T13:18:56Z</time>
      </trkpt>
      <trkpt lat="47.24026" lon="6.94987">
        <ele>528.082</ele>
        <time>2018-08-01T13:18:58Z</time>
      </trkpt>
      <trkpt lat="47.24021" lon="6.94981">
        <ele>528.148</ele>
        <time>2018-08-01T13:19:00Z</time>
      </trkpt>
      <trkpt lat="47.24018" lon="6.94975">
        <ele>528.115</ele>
        <time>2018-08-01T13:19:02Z</time>
      </trkpt>
      <trkpt lat="47.24014" lon="6.9497">
        <ele>528.35</ele>
        <time>2018-08-01T13:19:04Z</time>
      </trkpt>
      <trkpt lat="47.24009" lon="6.94966">
        <ele>528.459</ele>
        <time>2018-08-01T13:19:06Z</time>
      </trkpt>
      <trkpt lat="47.24001" lon="6.9496">
        <ele>528.535</ele>
        <time>2018-08-01T13:19:08Z</time>
      </trkpt>
      <trkpt lat="47.23997" lon="6.94953">
        <ele>528.586</ele>
        <time>2018-08-01T13:19:10Z</time>
      </trkpt>
      <trkpt lat="47.23995" lon="6.94946">
        <ele>528.514</ele>
        <time>2018-08-01T13:19:12Z</time>
      </trkpt>
      <trkpt lat="47.23991" lon="6.94941">
        <ele>528.308</ele>
        <time>2018-08-01T13:19:14Z</time>
      </trkpt>
      <trkpt lat="47.23986" lon="6.94936">
        <ele>528.325</ele>
        <time>2018-08-01T13:19:16Z</time>
      </trkpt>
      <trkpt lat="47.23981" lon="6.94929">
        <ele>528.32</ele>
        <time>2018-08-01T13:19:18Z</time>
      </trkpt>
      <trkpt lat="47.23978" lon="6.94918">
        <ele>528.384</ele>
        <time>2018-08-01T13:19:20Z</time>
      </trkpt>
      <trkpt lat="47.23974" lon="6.94908">
        <ele>528.476</ele>
        <time>2018-08-01T13:19:22Z</time>
      </trkpt>
      <trkpt lat="47.23968" lon="6.94898">
        <ele>528.642</ele>
        <time>2018-08-01T13:19:24Z</time>
      </trkpt>
      <trkpt lat="47.23963" lon="6.94889">
        <ele>528.989</ele>
        <time>2018-08-01T13:19:26Z</time>
      </trkpt>
      <trkpt lat="47.23959" lon="6.94885">
        <ele>528.924</ele>
        <time>2018-08-01T13:19:27Z</time>
      </trkpt>
      <trkpt lat="47.23954" lon="6.94876">
        <ele>529.023</ele>
        <time>2018-08-01T13:19:29Z</time>
      </trkpt>
      <trkpt lat="47.2395" lon="6.94869">
        <ele>529.185</ele>
        <time>2018-08-01T13:19:31Z</time>
      </trkpt>
      <trkpt lat="47.23946" lon="6.94863">
        <ele>529.289</ele>
        <time>2018-08-01T13:19:33Z</time>
      </trkpt>
      <trkpt lat="47.23942" lon="6.94855">
        <ele>529.217</ele>
        <time>2018-08-01T13:19:35Z</time>
      </trkpt>
      <trkpt lat="47.23938" lon="6.94846">
        <ele>529.008</ele>
        <time>2018-08-01T13:19:37Z</time>
      </trkpt>
      <trkpt lat="47.23935" lon="6.94837">
        <ele>529.04</ele>
        <time>2018-08-01T13:19:39Z</time>
      </trkpt>
      <trkpt lat="47.23933" lon="6.94831">
        <ele>529.135</ele>
        <time>2018-08-01T13:19:41Z</time>
      </trkpt>
      <trkpt lat="47.23931" lon="6.94823">
        <ele>529.479</ele>
        <time>2018-08-01T13:19:44Z</time>
      </trkpt>
      <trkpt lat="47.2393" lon="6.94816">
        <ele>529.581</ele>
        <time>2018-08-01T13:19:46Z</time>
      </trkpt>
      <trkpt lat="47.23929" lon="6.94807">
        <ele>529.717</ele>
        <time>2018-08-01T13:19:48Z</time>
      </trkpt>
      <trkpt lat="47.23927" lon="6.948">
        <ele>529.954</ele>
        <time>2018-08-01T13:19:50Z</time>
      </trkpt>
      <trkpt lat="47.23924" lon="6.94794">
        <ele>530.249</ele>
        <time>2018-08-01T13:19:52Z</time>
      </trkpt>
      <trkpt lat="47.23919" lon="6.94788">
        <ele>530.778</ele>
        <time>2018-08-01T13:19:55Z</time>
      </trkpt>
      <trkpt lat="47.23916" lon="6.94782">
        <ele>531.335</ele>
        <time>2018-08-01T13:19:58Z</time>
      </trkpt>
      <trkpt lat="47.23911" lon="6.94776">
        <ele>531.986</ele>
        <time>2018-08-01T13:20:00Z</time>
      </trkpt>
      <trkpt lat="47.23905" lon="6.94769">
        <ele>532.714</ele>
        <time>2018-08-01T13:20:02Z</time>
      </trkpt>
      <trkpt lat="47.23901" lon="6.94764">
        <ele>533.708</ele>
        <time>2018-08-01T13:20:04Z</time>
      </trkpt>
      <trkpt lat="47.23898" lon="6.94758">
        <ele>534.645</ele>
        <time>2018-08-01T13:20:06Z</time>
      </trkpt>
      <trkpt lat="47.23895" lon="6.9475">
        <ele>535.93</ele>
        <time>2018-08-01T13:20:09Z</time>
      </trkpt>
      <trkpt lat="47.23894" lon="6.94741">
        <ele>537.154</ele>
        <time>2018-08-01T13:20:12Z</time>
      </trkpt>
      <trkpt lat="47.23892" lon="6.94733">
        <ele>537.966</ele>
        <time>2018-08-01T13:20:15Z</time>
      </trkpt>
      <trkpt lat="47.2389" lon="6.94725">
        <ele>538.952</ele>
        <time>2018-08-01T13:20:18Z</time>
      </trkpt>
      <trkpt lat="47.23888" lon="6.94719">
        <ele>539.679</ele>
        <time>2018-08-01T13:20:20Z</time>
      </trkpt>
      <trkpt lat="47.23885" lon="6.94713">
        <ele>540.434</ele>
        <time>2018-08-01T13:20:22Z</time>
      </trkpt>
      <trkpt lat="47.23881" lon="6.94708">
        <ele>541.283</ele>
        <time>2018-08-01T13:20:24Z</time>
      </trkpt>
      <trkpt lat="47.23875" lon="6.94704">
        <ele>542.091</ele>
        <time>2018-08-01T13:20:26Z</time>
      </trkpt>
      <trkpt lat="47.23872" lon="6.94699">
        <ele>542.881</ele>
        <time>2018-08-01T13:20:28Z</time>
      </trkpt>
      <trkpt lat="47.2387" lon="6.94689">
        <ele>544.119</ele>
        <time>2018-08-01T13:20:31Z</time>
      </trkpt>
      <trkpt lat="47.23869" lon="6.94681">
        <ele>545.308</ele>
        <time>2018-08-01T13:20:34Z</time>
      </trkpt>
      <trkpt lat="47.23868" lon="6.94674">
        <ele>546.761</ele>
        <time>2018-08-01T13:20:37Z</time>
      </trkpt>
      <trkpt lat="47.23866" lon="6.94665">
        <ele>548.126</ele>
        <time>2018-08-01T13:20:40Z</time>
      </trkpt>
      <trkpt lat="47.23863" lon="6.9466">
        <ele>548.57</ele>
        <time>2018-08-01T13:20:42Z</time>
      </trkpt>
      <trkpt lat="47.23859" lon="6.94651">
        <ele>549.732</ele>
        <time>2018-08-01T13:20:45Z</time>
      </trkpt>
      <trkpt lat="47.23857" lon="6.94643">
        <ele>550.448</ele>
        <time>2018-08-01T13:20:47Z</time>
      </trkpt>
      <trkpt lat="47.23854" lon="6.94635">
        <ele>550.815</ele>
        <time>2018-08-01T13:20:49Z</time>
      </trkpt>
      <trkpt lat="47.23852" lon="6.94627">
        <ele>550.93</ele>
        <time>2018-08-01T13:20:51Z</time>
      </trkpt>
      <trkpt lat="47.23848" lon="6.94618">
        <ele>551.049</ele>
        <time>2018-08-01T13:20:53Z</time>
      </trkpt>
      <trkpt lat="47.23844" lon="6.94611">
        <ele>551.187</ele>
        <time>2018-08-01T13:20:55Z</time>
      </trkpt>
      <trkpt lat="47.23841" lon="6.94604">
        <ele>551.342</ele>
        <time>2018-08-01T13:20:57Z</time>
      </trkpt>
      <trkpt lat="47.23839" lon="6.94595">
        <ele>551.626</ele>
        <time>2018-08-01T13:20:59Z</time>
      </trkpt>
      <trkpt lat="47.23837" lon="6.94586">
        <ele>551.908</ele>
        <time>2018-08-01T13:21:01Z</time>
      </trkpt>
      <trkpt lat="47.23834" lon="6.94576">
        <ele>552.11</ele>
        <time>2018-08-01T13:21:03Z</time>
      </trkpt>
      <trkpt lat="47.23831" lon="6.94567">
        <ele>552.245</ele>
        <time>2018-08-01T13:21:05Z</time>
      </trkpt>
      <trkpt lat="47.23828" lon="6.94558">
        <ele>552.399</ele>
        <time>2018-08-01T13:21:07Z</time>
      </trkpt>
      <trkpt lat="47.23825" lon="6.94547">
        <ele>552.481</ele>
        <time>2018-08-01T13:21:09Z</time>
      </trkpt>
      <trkpt lat="47.23823" lon="6.94537">
        <ele>552.587</ele>
        <time>2018-08-01T13:21:11Z</time>
      </trkpt>
      <trkpt lat="47.23822" lon="6.94527">
        <ele>552.764</ele>
        <time>2018-08-01T13:21:13Z</time>
      </trkpt>
      <trkpt lat="47.2382" lon="6.94517">
        <ele>552.959</ele>
        <time>2018-08-01T13:21:15Z</time>
      </trkpt>
      <trkpt lat="47.23819" lon="6.94507">
        <ele>553.088</ele>
        <time>2018-08-01T13:21:17Z</time>
      </trkpt>
      <trkpt lat="47.23818" lon="6.94498">
        <ele>553.235</ele>
        <time>2018-08-01T13:21:19Z</time>
      </trkpt>
      <trkpt lat="47.23817" lon="6.94488">
        <ele>553.586</ele>
        <time>2018-08-01T13:21:21Z</time>
      </trkpt>
      <trkpt lat="47.23816" lon="6.94479">
        <ele>553.714</ele>
        <time>2018-08-01T13:21:23Z</time>
      </trkpt>
      <trkpt lat="47.23815" lon="6.94469">
        <ele>553.908</ele>
        <time>2018-08-01T13:21:25Z</time>
      </trkpt>
      <trkpt lat="47.23814" lon="6.94459">
        <ele>554.155</ele>
        <time>2018-08-01T13:21:27Z</time>
      </trkpt>
      <trkpt lat="47.23813" lon="6.9445">
        <ele>554.29</ele>
        <time>2018-08-01T13:21:29Z</time>
      </trkpt>
      <trkpt lat="47.2381" lon="6.94442">
        <ele>554.134</ele>
        <time>2018-08-01T13:21:31Z</time>
      </trkpt>
      <trkpt lat="47.23805" lon="6.94434">
        <ele>553.956</ele>
        <time>2018-08-01T13:21:34Z</time>
      </trkpt>
      <trkpt lat="47.238" lon="6.94428">
        <ele>553.882</ele>
        <time>2018-08-01T13:21:36Z</time>
      </trkpt>
      <trkpt lat="47.23796" lon="6.94422">
        <ele>553.749</ele>
        <time>2018-08-01T13:21:38Z</time>
      </trkpt>
      <trkpt lat="47.23793" lon="6.94416">
        <ele>553.514</ele>
        <time>2018-08-01T13:21:40Z</time>
      </trkpt>
      <trkpt lat="47.2379" lon="6.94409">
        <ele>553.243</ele>
        <time>2018-08-01T13:21:42Z</time>
      </trkpt>
      <trkpt lat="47.23786" lon="6.944">
        <ele>553.185</ele>
        <time>2018-08-01T13:21:44Z</time>
      </trkpt>
      <trkpt lat="47.23779" lon="6.94392">
        <ele>552.989</ele>
        <time>2018-08-01T13:21:46Z</time>
      </trkpt>
      <trkpt lat="47.23775" lon="6.94388">
        <ele>552.917</ele>
        <time>2018-08-01T13:21:47Z</time>
      </trkpt>
      <trkpt lat="47.23772" lon="6.94383">
        <ele>552.908</ele>
        <time>2018-08-01T13:21:48Z</time>
      </trkpt>
      <trkpt lat="47.23767" lon="6.94373">
        <ele>552.51</ele>
        <time>2018-08-01T13:21:50Z</time>
      </trkpt>
      <trkpt lat="47.23765" lon="6.94367">
        <ele>552.115</ele>
        <time>2018-08-01T13:21:52Z</time>
      </trkpt>
      <trkpt lat="47.23759" lon="6.94361">
        <ele>551.859</ele>
        <time>2018-08-01T13:21:54Z</time>
      </trkpt>
      <trkpt lat="47.23752" lon="6.94358">
        <ele>551.561</ele>
        <time>2018-08-01T13:21:56Z</time>
      </trkpt>
      <trkpt lat="47.23745" lon="6.94353">
        <ele>551.027</ele>
        <time>2018-08-01T13:21:58Z</time>
      </trkpt>
      <trkpt lat="47.23738" lon="6.94347">
        <ele>550.194</ele>
        <time>2018-08-01T13:22:00Z</time>
      </trkpt>
      <trkpt lat="47.23734" lon="6.94345">
        <ele>549.699</ele>
        <time>2018-08-01T13:22:01Z</time>
      </trkpt>
      <trkpt lat="47.2372" lon="6.94341">
        <ele>549.358</ele>
        <time>2018-08-01T13:22:02Z</time>
      </trkpt>
      <trkpt lat="47.23716" lon="6.94341">
        <ele>548.525</ele>
        <time>2018-08-01T13:22:04Z</time>
      </trkpt>
      <trkpt lat="47.23711" lon="6.94339">
        <ele>548.526</ele>
        <time>2018-08-01T13:22:05Z</time>
      </trkpt>
      <trkpt lat="47.23704" lon="6.94338">
        <ele>548.008</ele>
        <time>2018-08-01T13:22:06Z</time>
      </trkpt>
      <trkpt lat="47.23697" lon="6.94338">
        <ele>547.508</ele>
        <time>2018-08-01T13:22:07Z</time>
      </trkpt>
      <trkpt lat="47.23686" lon="6.94335">
        <ele>547.194</ele>
        <time>2018-08-01T13:22:08Z</time>
      </trkpt>
      <trkpt lat="47.23675" lon="6.94333">
        <ele>546.749</ele>
        <time>2018-08-01T13:22:09Z</time>
      </trkpt>
      <trkpt lat="47.23669" lon="6.9433">
        <ele>546.223</ele>
        <time>2018-08-01T13:22:10Z</time>
      </trkpt>
      <trkpt lat="47.23664" lon="6.94327">
        <ele>545.755</ele>
        <time>2018-08-01T13:22:11Z</time>
      </trkpt>
      <trkpt lat="47.23654" lon="6.94325">
        <ele>545.151</ele>
        <time>2018-08-01T13:22:12Z</time>
      </trkpt>
      <trkpt lat="47.23649" lon="6.94323">
        <ele>544.648</ele>
        <time>2018-08-01T13:22:13Z</time>
      </trkpt>
      <trkpt lat="47.23642" lon="6.9433">
        <ele>543.343</ele>
        <time>2018-08-01T13:22:15Z</time>
      </trkpt>
      <trkpt lat="47.23636" lon="6.94331">
        <ele>542.882</ele>
        <time>2018-08-01T13:22:16Z</time>
      </trkpt>
      <trkpt lat="47.2363" lon="6.94328">
        <ele>542.483</ele>
        <time>2018-08-01T13:22:17Z</time>
      </trkpt>
      <trkpt lat="47.23625" lon="6.94326">
        <ele>541.925</ele>
        <time>2018-08-01T13:22:18Z</time>
      </trkpt>
      <trkpt lat="47.23619" lon="6.94327">
        <ele>540.817</ele>
        <time>2018-08-01T13:22:20Z</time>
      </trkpt>
      <trkpt lat="47.23611" lon="6.94324">
        <ele>539.608</ele>
        <time>2018-08-01T13:22:22Z</time>
      </trkpt>
      <trkpt lat="47.23607" lon="6.94324">
        <ele>539.03</ele>
        <time>2018-08-01T13:22:23Z</time>
      </trkpt>
      <trkpt lat="47.23597" lon="6.9432">
        <ele>537.865</ele>
        <time>2018-08-01T13:22:25Z</time>
      </trkpt>
      <trkpt lat="47.23591" lon="6.94321">
        <ele>537.219</ele>
        <time>2018-08-01T13:22:26Z</time>
      </trkpt>
      <trkpt lat="47.23586" lon="6.94321">
        <ele>536.531</ele>
        <time>2018-08-01T13:22:27Z</time>
      </trkpt>
      <trkpt lat="47.2358" lon="6.94313">
        <ele>535.947</ele>
        <time>2018-08-01T13:22:28Z</time>
      </trkpt>
      <trkpt lat="47.23576" lon="6.94311">
        <ele>535.584</ele>
        <time>2018-08-01T13:22:29Z</time>
      </trkpt>
      <trkpt lat="47.23568" lon="6.94309">
        <ele>534.439</ele>
        <time>2018-08-01T13:22:31Z</time>
      </trkpt>
      <trkpt lat="47.2356" lon="6.94309">
        <ele>533.918</ele>
        <time>2018-08-01T13:22:33Z</time>
      </trkpt>
      <trkpt lat="47.23552" lon="6.94308">
        <ele>532.612</ele>
        <time>2018-08-01T13:22:35Z</time>
      </trkpt>
      <trkpt lat="47.23547" lon="6.94308">
        <ele>532.232</ele>
        <time>2018-08-01T13:22:36Z</time>
      </trkpt>
      <trkpt lat="47.23543" lon="6.94308">
        <ele>531.705</ele>
        <time>2018-08-01T13:22:37Z</time>
      </trkpt>
      <trkpt lat="47.23538" lon="6.94307">
        <ele>530.308</ele>
        <time>2018-08-01T13:22:40Z</time>
      </trkpt>
      <trkpt lat="47.23532" lon="6.94306">
        <ele>528.843</ele>
        <time>2018-08-01T13:22:43Z</time>
      </trkpt>
      <trkpt lat="47.23523" lon="6.94304">
        <ele>528.228</ele>
        <time>2018-08-01T13:22:46Z</time>
      </trkpt>
      <trkpt lat="47.23516" lon="6.94302">
        <ele>528.192</ele>
        <time>2018-08-01T13:22:48Z</time>
      </trkpt>
      <trkpt lat="47.23509" lon="6.94298">
        <ele>528.214</ele>
        <time>2018-08-01T13:22:50Z</time>
      </trkpt>
      <trkpt lat="47.23502" lon="6.94296">
        <ele>528.35</ele>
        <time>2018-08-01T13:22:52Z</time>
      </trkpt>
      <trkpt lat="47.23495" lon="6.94295">
        <ele>528.387</ele>
        <time>2018-08-01T13:22:54Z</time>
      </trkpt>
      <trkpt lat="47.23489" lon="6.94294">
        <ele>528.472</ele>
        <time>2018-08-01T13:22:56Z</time>
      </trkpt>
      <trkpt lat="47.23483" lon="6.94292">
        <ele>528.671</ele>
        <time>2018-08-01T13:22:58Z</time>
      </trkpt>
      <trkpt lat="47.23478" lon="6.94291">
        <ele>528.631</ele>
        <time>2018-08-01T13:23:00Z</time>
      </trkpt>
      <trkpt lat="47.23472" lon="6.94291">
        <ele>528.661</ele>
        <time>2018-08-01T13:23:03Z</time>
      </trkpt>
      <trkpt lat="47.23468" lon="6.94292">
        <ele>528.607</ele>
        <time>2018-08-01T13:23:06Z</time>
      </trkpt>
      <trkpt lat="47.23462" lon="6.9429">
        <ele>528.808</ele>
        <time>2018-08-01T13:23:10Z</time>
      </trkpt>
      <trkpt lat="47.2346" lon="6.94284">
        <ele>529.045</ele>
        <time>2018-08-01T13:23:14Z</time>
      </trkpt>
      <trkpt lat="47.23454" lon="6.94279">
        <ele>529.13</ele>
        <time>2018-08-01T13:23:17Z</time>
      </trkpt>
      <trkpt lat="47.23449" lon="6.94275">
        <ele>529.314</ele>
        <time>2018-08-01T13:23:19Z</time>
      </trkpt>
      <trkpt lat="47.23441" lon="6.94267">
        <ele>529.426</ele>
        <time>2018-08-01T13:23:21Z</time>
      </trkpt>
      <trkpt lat="47.23437" lon="6.94262">
        <ele>529.312</ele>
        <time>2018-08-01T13:23:22Z</time>
      </trkpt>
      <trkpt lat="47.2343" lon="6.94258">
        <ele>529.189</ele>
        <time>2018-08-01T13:23:24Z</time>
      </trkpt>
      <trkpt lat="47.23423" lon="6.94255">
        <ele>528.984</ele>
        <time>2018-08-01T13:23:26Z</time>
      </trkpt>
      <trkpt lat="47.23417" lon="6.94253">
        <ele>528.983</ele>
        <time>2018-08-01T13:23:28Z</time>
      </trkpt>
      <trkpt lat="47.23411" lon="6.94251">
        <ele>528.911</ele>
        <time>2018-08-01T13:23:30Z</time>
      </trkpt>
      <trkpt lat="47.23402" lon="6.94247">
        <ele>528.821</ele>
        <time>2018-08-01T13:23:32Z</time>
      </trkpt>
      <trkpt lat="47.23398" lon="6.94246">
        <ele>528.703</ele>
        <time>2018-08-01T13:23:33Z</time>
      </trkpt>
      <trkpt lat="47.23393" lon="6.94245">
        <ele>528.708</ele>
        <time>2018-08-01T13:23:34Z</time>
      </trkpt>
      <trkpt lat="47.23381" lon="6.94243">
        <ele>528.783</ele>
        <time>2018-08-01T13:23:36Z</time>
      </trkpt>
      <trkpt lat="47.23376" lon="6.94239">
        <ele>528.768</ele>
        <time>2018-08-01T13:23:38Z</time>
      </trkpt>
      <trkpt lat="47.23371" lon="6.94235">
        <ele>528.792</ele>
        <time>2018-08-01T13:23:41Z</time>
      </trkpt>
      <trkpt lat="47.23364" lon="6.94225">
        <ele>528.924</ele>
        <time>2018-08-01T13:23:44Z</time>
      </trkpt>
      <trkpt lat="47.23354" lon="6.94229">
        <ele>529.12</ele>
        <time>2018-08-01T13:23:46Z</time>
      </trkpt>
      <trkpt lat="47.23346" lon="6.9423">
        <ele>529.337</ele>
        <time>2018-08-01T13:23:48Z</time>
      </trkpt>
      <trkpt lat="47.23338" lon="6.94228">
        <ele>529.362</ele>
        <time>2018-08-01T13:23:50Z</time>
      </trkpt>
      <trkpt lat="47.23331" lon="6.94227">
        <ele>529.391</ele>
        <time>2018-08-01T13:23:51Z</time>
      </trkpt>
      <trkpt lat="47.23315" lon="6.94218">
        <ele>529.394</ele>
        <time>2018-08-01T13:23:52Z</time>
      </trkpt>
      <trkpt lat="47.2331" lon="6.9421">
        <ele>529.757</ele>
        <time>2018-08-01T13:23:55Z</time>
      </trkpt>
      <trkpt lat="47.23304" lon="6.94209">
        <ele>529.822</ele>
        <time>2018-08-01T13:23:57Z</time>
      </trkpt>
      <trkpt lat="47.23299" lon="6.94208">
        <ele>529.908</ele>
        <time>2018-08-01T13:23:58Z</time>
      </trkpt>
      <trkpt lat="47.2329" lon="6.94206">
        <ele>529.981</ele>
        <time>2018-08-01T13:23:59Z</time>
      </trkpt>
      <trkpt lat="47.23286" lon="6.942">
        <ele>529.876</ele>
        <time>2018-08-01T13:24:02Z</time>
      </trkpt>
      <trkpt lat="47.23282" lon="6.94197">
        <ele>529.73</ele>
        <time>2018-08-01T13:24:03Z</time>
      </trkpt>
      <trkpt lat="47.23276" lon="6.94193">
        <ele>529.652</ele>
        <time>2018-08-01T13:24:05Z</time>
      </trkpt>
      <trkpt lat="47.23266" lon="6.94184">
        <ele>529.488</ele>
        <time>2018-08-01T13:24:07Z</time>
      </trkpt>
      <trkpt lat="47.2326" lon="6.94179">
        <ele>529.485</ele>
        <time>2018-08-01T13:24:08Z</time>
      </trkpt>
      <trkpt lat="47.23255" lon="6.94176">
        <ele>529.48</ele>
        <time>2018-08-01T13:24:09Z</time>
      </trkpt>
      <trkpt lat="47.23249" lon="6.94174">
        <ele>529.469</ele>
        <time>2018-08-01T13:24:11Z</time>
      </trkpt>
      <trkpt lat="47.23242" lon="6.94172">
        <ele>529.348</ele>
        <time>2018-08-01T13:24:13Z</time>
      </trkpt>
      <trkpt lat="47.23236" lon="6.94166">
        <ele>529.361</ele>
        <time>2018-08-01T13:24:15Z</time>
      </trkpt>
      <trkpt lat="47.23233" lon="6.94161">
        <ele>529.317</ele>
        <time>2018-08-01T13:24:16Z</time>
      </trkpt>
      <trkpt lat="47.23229" lon="6.94157">
        <ele>529.408</ele>
        <time>2018-08-01T13:24:17Z</time>
      </trkpt>
      <trkpt lat="47.23223" lon="6.94149">
        <ele>529.426</ele>
        <time>2018-08-01T13:24:19Z</time>
      </trkpt>
      <trkpt lat="47.23218" lon="6.94142">
        <ele>529.561</ele>
        <time>2018-08-01T13:24:22Z</time>
      </trkpt>
      <trkpt lat="47.23213" lon="6.94137">
        <ele>529.525</ele>
        <time>2018-08-01T13:24:24Z</time>
      </trkpt>
      <trkpt lat="47.2321" lon="6.94131">
        <ele>529.667</ele>
        <time>2018-08-01T13:24:26Z</time>
      </trkpt>
      <trkpt lat="47.23205" lon="6.94124">
        <ele>529.683</ele>
        <time>2018-08-01T13:24:28Z</time>
      </trkpt>
      <trkpt lat="47.23201" lon="6.94118">
        <ele>529.79</ele>
        <time>2018-08-01T13:24:30Z</time>
      </trkpt>
      <trkpt lat="47.23196" lon="6.94113">
        <ele>529.745</ele>
        <time>2018-08-01T13:24:32Z</time>
      </trkpt>
      <trkpt lat="47.23191" lon="6.9411">
        <ele>529.784</ele>
        <time>2018-08-01T13:24:33Z</time>
      </trkpt>
      <trkpt lat="47.23185" lon="6.94108">
        <ele>529.674</ele>
        <time>2018-08-01T13:24:34Z</time>
      </trkpt>
      <trkpt lat="47.2318" lon="6.94106">
        <ele>529.656</ele>
        <time>2018-08-01T13:24:35Z</time>
      </trkpt>
      <trkpt lat="47.23169" lon="6.94101">
        <ele>529.621</ele>
        <time>2018-08-01T13:24:36Z</time>
      </trkpt>
      <trkpt lat="47.23164" lon="6.94097">
        <ele>529.908</ele>
        <time>2018-08-01T13:24:38Z</time>
      </trkpt>
      <trkpt lat="47.23158" lon="6.94092">
        <ele>530.369</ele>
        <time>2018-08-01T13:24:40Z</time>
      </trkpt>
      <trkpt lat="47.2315" lon="6.94082">
        <ele>530.444</ele>
        <time>2018-08-01T13:24:41Z</time>
      </trkpt>
      <trkpt lat="47.23149" lon="6.94069">
        <ele>530.528</ele>
        <time>2018-08-01T13:24:43Z</time>
      </trkpt>
      <trkpt lat="47.23151" lon="6.94062">
        <ele>530.58</ele>
        <time>2018-08-01T13:24:45Z</time>
      </trkpt>
      <trkpt lat="47.23144" lon="6.94059">
        <ele>530.466</ele>
        <time>2018-08-01T13:24:47Z</time>
      </trkpt>
      <trkpt lat="47.23139" lon="6.9405">
        <ele>530.293</ele>
        <time>2018-08-01T13:24:50Z</time>
      </trkpt>
      <trkpt lat="47.23135" lon="6.94046">
        <ele>530.278</ele>
        <time>2018-08-01T13:24:51Z</time>
      </trkpt>
      <trkpt lat="47.2313" lon="6.94042">
        <ele>530.257</ele>
        <time>2018-08-01T13:24:52Z</time>
      </trkpt>
      <trkpt lat="47.23127" lon="6.94035">
        <ele>530.342</ele>
        <time>2018-08-01T13:24:54Z</time>
      </trkpt>
      <trkpt lat="47.23121" lon="6.94028">
        <ele>530.422</ele>
        <time>2018-08-01T13:24:56Z</time>
      </trkpt>
      <trkpt lat="47.23115" lon="6.9402">
        <ele>530.614</ele>
        <time>2018-08-01T13:24:58Z</time>
      </trkpt>
      <trkpt lat="47.23108" lon="6.94011">
        <ele>530.708</ele>
        <time>2018-08-01T13:25:00Z</time>
      </trkpt>
      <trkpt lat="47.23105" lon="6.94006">
        <ele>530.776</ele>
        <time>2018-08-01T13:25:01Z</time>
      </trkpt>
      <trkpt lat="47.23094" lon="6.93999">
        <ele>530.691</ele>
        <time>2018-08-01T13:25:02Z</time>
      </trkpt>
      <trkpt lat="47.23091" lon="6.93993">
        <ele>530.545</ele>
        <time>2018-08-01T13:25:03Z</time>
      </trkpt>
      <trkpt lat="47.23091" lon="6.93985">
        <ele>530.417</ele>
        <time>2018-08-01T13:25:04Z</time>
      </trkpt>
      <trkpt lat="47.2309" lon="6.93977">
        <ele>530.323</ele>
        <time>2018-08-01T13:25:05Z</time>
      </trkpt>
      <trkpt lat="47.23085" lon="6.93971">
        <ele>530.29</ele>
        <time>2018-08-01T13:25:06Z</time>
      </trkpt>
      <trkpt lat="47.23085" lon="6.93964">
        <ele>530.145</ele>
        <time>2018-08-01T13:25:07Z</time>
      </trkpt>
      <trkpt lat="47.23082" lon="6.93957">
        <ele>530.054</ele>
        <time>2018-08-01T13:25:08Z</time>
      </trkpt>
      <trkpt lat="47.23079" lon="6.93952">
        <ele>529.977</ele>
        <time>2018-08-01T13:25:09Z</time>
      </trkpt>
      <trkpt lat="47.23078" lon="6.93944">
        <ele>529.861</ele>
        <time>2018-08-01T13:25:10Z</time>
      </trkpt>
      <trkpt lat="47.23082" lon="6.93934">
        <ele>529.727</ele>
        <time>2018-08-01T13:25:11Z</time>
      </trkpt>
      <trkpt lat="47.23082" lon="6.93926">
        <ele>529.508</ele>
        <time>2018-08-01T13:25:12Z</time>
      </trkpt>
      <trkpt lat="47.23082" lon="6.93917">
        <ele>529.479</ele>
        <time>2018-08-01T13:25:13Z</time>
      </trkpt>
      <trkpt lat="47.2308" lon="6.9391">
        <ele>529.384</ele>
        <time>2018-08-01T13:25:14Z</time>
      </trkpt>
      <trkpt lat="47.23079" lon="6.93903">
        <ele>529.278</ele>
        <time>2018-08-01T13:25:15Z</time>
      </trkpt>
      <trkpt lat="47.2308" lon="6.93896">
        <ele>529.17</ele>
        <time>2018-08-01T13:25:16Z</time>
      </trkpt>
      <trkpt lat="47.23078" lon="6.9389">
        <ele>529.196</ele>
        <time>2018-08-01T13:25:17Z</time>
      </trkpt>
      <trkpt lat="47.23076" lon="6.93883">
        <ele>529.173</ele>
        <time>2018-08-01T13:25:18Z</time>
      </trkpt>
      <trkpt lat="47.23074" lon="6.9387">
        <ele>529.098</ele>
        <time>2018-08-01T13:25:20Z</time>
      </trkpt>
      <trkpt lat="47.23071" lon="6.93864">
        <ele>528.997</ele>
        <time>2018-08-01T13:25:21Z</time>
      </trkpt>
      <trkpt lat="47.23068" lon="6.93858">
        <ele>528.875</ele>
        <time>2018-08-01T13:25:22Z</time>
      </trkpt>
      <trkpt lat="47.23066" lon="6.93852">
        <ele>528.728</ele>
        <time>2018-08-01T13:25:23Z</time>
      </trkpt>
      <trkpt lat="47.23063" lon="6.9384">
        <ele>528.62</ele>
        <time>2018-08-01T13:25:25Z</time>
      </trkpt>
      <trkpt lat="47.23061" lon="6.93827">
        <ele>528.708</ele>
        <time>2018-08-01T13:25:27Z</time>
      </trkpt>
      <trkpt lat="47.23062" lon="6.9382">
        <ele>528.889</ele>
        <time>2018-08-01T13:25:28Z</time>
      </trkpt>
      <trkpt lat="47.23061" lon="6.93813">
        <ele>529.084</ele>
        <time>2018-08-01T13:25:29Z</time>
      </trkpt>
      <trkpt lat="47.23061" lon="6.93805">
        <ele>529.138</ele>
        <time>2018-08-01T13:25:30Z</time>
      </trkpt>
      <trkpt lat="47.2306" lon="6.93799">
        <ele>529.39</ele>
        <time>2018-08-01T13:25:31Z</time>
      </trkpt>
      <trkpt lat="47.23059" lon="6.93786">
        <ele>529.636</ele>
        <time>2018-08-01T13:25:33Z</time>
      </trkpt>
      <trkpt lat="47.23059" lon="6.93779">
        <ele>529.723</ele>
        <time>2018-08-01T13:25:34Z</time>
      </trkpt>
      <trkpt lat="47.23059" lon="6.93772">
        <ele>529.788</ele>
        <time>2018-08-01T13:25:35Z</time>
      </trkpt>
      <trkpt lat="47.23059" lon="6.93759">
        <ele>529.737</ele>
        <time>2018-08-01T13:25:37Z</time>
      </trkpt>
      <trkpt lat="47.23058" lon="6.93752">
        <ele>529.732</ele>
        <time>2018-08-01T13:25:38Z</time>
      </trkpt>
      <trkpt lat="47.23059" lon="6.93744">
        <ele>529.792</ele>
        <time>2018-08-01T13:25:39Z</time>
      </trkpt>
      <trkpt lat="47.23058" lon="6.93737">
        <ele>529.711</ele>
        <time>2018-08-01T13:25:40Z</time>
      </trkpt>
      <trkpt lat="47.23059" lon="6.93729">
        <ele>529.708</ele>
        <time>2018-08-01T13:25:41Z</time>
      </trkpt>
      <trkpt lat="47.23059" lon="6.93722">
        <ele>529.645</ele>
        <time>2018-08-01T13:25:42Z</time>
      </trkpt>
      <trkpt lat="47.2306" lon="6.93708">
        <ele>529.62</ele>
        <time>2018-08-01T13:25:44Z</time>
      </trkpt>
      <trkpt lat="47.23061" lon="6.937">
        <ele>529.624</ele>
        <time>2018-08-01T13:25:45Z</time>
      </trkpt>
      <trkpt lat="47.23061" lon="6.93692">
        <ele>529.686</ele>
        <time>2018-08-01T13:25:46Z</time>
      </trkpt>
      <trkpt lat="47.2306" lon="6.93684">
        <ele>529.662</ele>
        <time>2018-08-01T13:25:47Z</time>
      </trkpt>
      <trkpt lat="47.2306" lon="6.93677">
        <ele>529.699</ele>
        <time>2018-08-01T13:25:48Z</time>
      </trkpt>
      <trkpt lat="47.23058" lon="6.93669">
        <ele>529.624</ele>
        <time>2018-08-01T13:25:49Z</time>
      </trkpt>
      <trkpt lat="47.2306" lon="6.93661">
        <ele>529.623</ele>
        <time>2018-08-01T13:25:50Z</time>
      </trkpt>
      <trkpt lat="47.23059" lon="6.93653">
        <ele>529.657</ele>
        <time>2018-08-01T13:25:51Z</time>
      </trkpt>
      <trkpt lat="47.2306" lon="6.93644">
        <ele>529.6</ele>
        <time>2018-08-01T13:25:52Z</time>
      </trkpt>
      <trkpt lat="47.2306" lon="6.93631">
        <ele>529.92</ele>
        <time>2018-08-01T13:25:54Z</time>
      </trkpt>
      <trkpt lat="47.2306" lon="6.93619">
        <ele>530.008</ele>
        <time>2018-08-01T13:25:56Z</time>
      </trkpt>
      <trkpt lat="47.23059" lon="6.93609">
        <ele>530.157</ele>
        <time>2018-08-01T13:25:58Z</time>
      </trkpt>
      <trkpt lat="47.2306" lon="6.93602">
        <ele>530.192</ele>
        <time>2018-08-01T13:25:59Z</time>
      </trkpt>
      <trkpt lat="47.23061" lon="6.9359">
        <ele>530.226</ele>
        <time>2018-08-01T13:26:01Z</time>
      </trkpt>
      <trkpt lat="47.23061" lon="6.93583">
        <ele>530.238</ele>
        <time>2018-08-01T13:26:02Z</time>
      </trkpt>
      <trkpt lat="47.23062" lon="6.93573">
        <ele>530.334</ele>
        <time>2018-08-01T13:26:04Z</time>
      </trkpt>
      <trkpt lat="47.23062" lon="6.93564">
        <ele>530.451</ele>
        <time>2018-08-01T13:26:06Z</time>
      </trkpt>
      <trkpt lat="47.23063" lon="6.93553">
        <ele>530.476</ele>
        <time>2018-08-01T13:26:08Z</time>
      </trkpt>
      <trkpt lat="47.23069" lon="6.93541">
        <ele>530.455</ele>
        <time>2018-08-01T13:26:10Z</time>
      </trkpt>
      <trkpt lat="47.23071" lon="6.93529">
        <ele>530.537</ele>
        <time>2018-08-01T13:26:12Z</time>
      </trkpt>
      <trkpt lat="47.23071" lon="6.93515">
        <ele>530.649</ele>
        <time>2018-08-01T13:26:14Z</time>
      </trkpt>
      <trkpt lat="47.2307" lon="6.93502">
        <ele>530.813</ele>
        <time>2018-08-01T13:26:16Z</time>
      </trkpt>
      <trkpt lat="47.2307" lon="6.93495">
        <ele>530.908</ele>
        <time>2018-08-01T13:26:17Z</time>
      </trkpt>
      <trkpt lat="47.23068" lon="6.93483">
        <ele>531.125</ele>
        <time>2018-08-01T13:26:19Z</time>
      </trkpt>
      <trkpt lat="47.23066" lon="6.93473">
        <ele>531.33</ele>
        <time>2018-08-01T13:26:21Z</time>
      </trkpt>
      <trkpt lat="47.23063" lon="6.93463">
        <ele>531.634</ele>
        <time>2018-08-01T13:26:23Z</time>
      </trkpt>
      <trkpt lat="47.23064" lon="6.93451">
        <ele>532.226</ele>
        <time>2018-08-01T13:26:25Z</time>
      </trkpt>
      <trkpt lat="47.23063" lon="6.93444">
        <ele>532.572</ele>
        <time>2018-08-01T13:26:26Z</time>
      </trkpt>
      <trkpt lat="47.23062" lon="6.93432">
        <ele>533.249</ele>
        <time>2018-08-01T13:26:28Z</time>
      </trkpt>
      <trkpt lat="47.23061" lon="6.9342">
        <ele>533.754</ele>
        <time>2018-08-01T13:26:30Z</time>
      </trkpt>
      <trkpt lat="47.23061" lon="6.93408">
        <ele>534.353</ele>
        <time>2018-08-01T13:26:32Z</time>
      </trkpt>
      <trkpt lat="47.23059" lon="6.93398">
        <ele>534.736</ele>
        <time>2018-08-01T13:26:34Z</time>
      </trkpt>
      <trkpt lat="47.23056" lon="6.9339">
        <ele>535.217</ele>
        <time>2018-08-01T13:26:36Z</time>
      </trkpt>
      <trkpt lat="47.23053" lon="6.9338">
        <ele>535.718</ele>
        <time>2018-08-01T13:26:38Z</time>
      </trkpt>
      <trkpt lat="47.23055" lon="6.93373">
        <ele>536.008</ele>
        <time>2018-08-01T13:26:39Z</time>
      </trkpt>
      <trkpt lat="47.23052" lon="6.93362">
        <ele>536.535</ele>
        <time>2018-08-01T13:26:41Z</time>
      </trkpt>
      <trkpt lat="47.23054" lon="6.93357">
        <ele>536.55</ele>
        <time>2018-08-01T13:26:42Z</time>
      </trkpt>
      <trkpt lat="47.23054" lon="6.93347">
        <ele>536.924</ele>
        <time>2018-08-01T13:26:44Z</time>
      </trkpt>
      <trkpt lat="47.23054" lon="6.93335">
        <ele>537.116</ele>
        <time>2018-08-01T13:26:46Z</time>
      </trkpt>
      <trkpt lat="47.23055" lon="6.93324">
        <ele>537.352</ele>
        <time>2018-08-01T13:26:48Z</time>
      </trkpt>
      <trkpt lat="47.23058" lon="6.93313">
        <ele>537.499</ele>
        <time>2018-08-01T13:26:50Z</time>
      </trkpt>
      <trkpt lat="47.23058" lon="6.93305">
        <ele>537.494</ele>
        <time>2018-08-01T13:26:51Z</time>
      </trkpt>
      <trkpt lat="47.23058" lon="6.93298">
        <ele>537.433</ele>
        <time>2018-08-01T13:26:52Z</time>
      </trkpt>
      <trkpt lat="47.23056" lon="6.93285">
        <ele>537.485</ele>
        <time>2018-08-01T13:26:54Z</time>
      </trkpt>
      <trkpt lat="47.23054" lon="6.93278">
        <ele>537.389</ele>
        <time>2018-08-01T13:26:55Z</time>
      </trkpt>
      <trkpt lat="47.23051" lon="6.93272">
        <ele>537.317</ele>
        <time>2018-08-01T13:26:56Z</time>
      </trkpt>
      <trkpt lat="47.23048" lon="6.93264">
        <ele>537.208</ele>
        <time>2018-08-01T13:26:57Z</time>
      </trkpt>
      <trkpt lat="47.23046" lon="6.93257">
        <ele>537.18</ele>
        <time>2018-08-01T13:26:58Z</time>
      </trkpt>
      <trkpt lat="47.23044" lon="6.93251">
        <ele>537.165</ele>
        <time>2018-08-01T13:26:59Z</time>
      </trkpt>
      <trkpt lat="47.23041" lon="6.93244">
        <ele>537.069</ele>
        <time>2018-08-01T13:27:00Z</time>
      </trkpt>
      <trkpt lat="47.23039" lon="6.93236">
        <ele>536.971</ele>
        <time>2018-08-01T13:27:01Z</time>
      </trkpt>
      <trkpt lat="47.23036" lon="6.93229">
        <ele>536.947</ele>
        <time>2018-08-01T13:27:02Z</time>
      </trkpt>
      <trkpt lat="47.23032" lon="6.9322">
        <ele>536.754</ele>
        <time>2018-08-01T13:27:04Z</time>
      </trkpt>
      <trkpt lat="47.2303" lon="6.9321">
        <ele>536.479</ele>
        <time>2018-08-01T13:27:06Z</time>
      </trkpt>
      <trkpt lat="47.23026" lon="6.93203">
        <ele>536.248</ele>
        <time>2018-08-01T13:27:07Z</time>
      </trkpt>
      <trkpt lat="47.23022" lon="6.93196">
        <ele>536.166</ele>
        <time>2018-08-01T13:27:08Z</time>
      </trkpt>
      <trkpt lat="47.2302" lon="6.93189">
        <ele>536.129</ele>
        <time>2018-08-01T13:27:09Z</time>
      </trkpt>
      <trkpt lat="47.23013" lon="6.93178">
        <ele>535.921</ele>
        <time>2018-08-01T13:27:11Z</time>
      </trkpt>
      <trkpt lat="47.23012" lon="6.93166">
        <ele>535.708</ele>
        <time>2018-08-01T13:27:13Z</time>
      </trkpt>
      <trkpt lat="47.23008" lon="6.9316">
        <ele>535.658</ele>
        <time>2018-08-01T13:27:14Z</time>
      </trkpt>
      <trkpt lat="47.23006" lon="6.93151">
        <ele>535.353</ele>
        <time>2018-08-01T13:27:16Z</time>
      </trkpt>
      <trkpt lat="47.23005" lon="6.93144">
        <ele>535.297</ele>
        <time>2018-08-01T13:27:17Z</time>
      </trkpt>
      <trkpt lat="47.22999" lon="6.93134">
        <ele>535.139</ele>
        <time>2018-08-01T13:27:19Z</time>
      </trkpt>
      <trkpt lat="47.22993" lon="6.93124">
        <ele>535.175</ele>
        <time>2018-08-01T13:27:21Z</time>
      </trkpt>
      <trkpt lat="47.2299" lon="6.93113">
        <ele>535.022</ele>
        <time>2018-08-01T13:27:23Z</time>
      </trkpt>
      <trkpt lat="47.22987" lon="6.93101">
        <ele>535.057</ele>
        <time>2018-08-01T13:27:25Z</time>
      </trkpt>
      <trkpt lat="47.22986" lon="6.93094">
        <ele>535.046</ele>
        <time>2018-08-01T13:27:26Z</time>
      </trkpt>
      <trkpt lat="47.22984" lon="6.93083">
        <ele>535.025</ele>
        <time>2018-08-01T13:27:28Z</time>
      </trkpt>
      <trkpt lat="47.22981" lon="6.93072">
        <ele>535.026</ele>
        <time>2018-08-01T13:27:30Z</time>
      </trkpt>
      <trkpt lat="47.22974" lon="6.93067">
        <ele>535.008</ele>
        <time>2018-08-01T13:27:31Z</time>
      </trkpt>
      <trkpt lat="47.22973" lon="6.9306">
        <ele>535.008</ele>
        <time>2018-08-01T13:27:32Z</time>
      </trkpt>
      <trkpt lat="47.22969" lon="6.93055">
        <ele>535.084</ele>
        <time>2018-08-01T13:27:33Z</time>
      </trkpt>
      <trkpt lat="47.22965" lon="6.93049">
        <ele>535.039</ele>
        <time>2018-08-01T13:27:34Z</time>
      </trkpt>
      <trkpt lat="47.22962" lon="6.93038">
        <ele>535.183</ele>
        <time>2018-08-01T13:27:36Z</time>
      </trkpt>
      <trkpt lat="47.22957" lon="6.93027">
        <ele>535.135</ele>
        <time>2018-08-01T13:27:38Z</time>
      </trkpt>
      <trkpt lat="47.22954" lon="6.93015">
        <ele>535.171</ele>
        <time>2018-08-01T13:27:40Z</time>
      </trkpt>
      <trkpt lat="47.22947" lon="6.93007">
        <ele>535.188</ele>
        <time>2018-08-01T13:27:42Z</time>
      </trkpt>
      <trkpt lat="47.22943" lon="6.93004">
        <ele>535.263</ele>
        <time>2018-08-01T13:27:43Z</time>
      </trkpt>
      <trkpt lat="47.22939" lon="6.92999">
        <ele>535.552</ele>
        <time>2018-08-01T13:27:45Z</time>
      </trkpt>
      <trkpt lat="47.22934" lon="6.92993">
        <ele>535.834</ele>
        <time>2018-08-01T13:27:47Z</time>
      </trkpt>
      <trkpt lat="47.22929" lon="6.92989">
        <ele>536.355</ele>
        <time>2018-08-01T13:27:49Z</time>
      </trkpt>
      <trkpt lat="47.22924" lon="6.92984">
        <ele>537.01</ele>
        <time>2018-08-01T13:27:51Z</time>
      </trkpt>
      <trkpt lat="47.22919" lon="6.92978">
        <ele>537.908</ele>
        <time>2018-08-01T13:27:53Z</time>
      </trkpt>
      <trkpt lat="47.22913" lon="6.92973">
        <ele>538.895</ele>
        <time>2018-08-01T13:27:55Z</time>
      </trkpt>
      <trkpt lat="47.22909" lon="6.92969">
        <ele>539.87</ele>
        <time>2018-08-01T13:27:57Z</time>
      </trkpt>
      <trkpt lat="47.22905" lon="6.92963">
        <ele>542.024</ele>
        <time>2018-08-01T13:28:01Z</time>
      </trkpt>
      <trkpt lat="47.229" lon="6.92962">
        <ele>542.036</ele>
        <time>2018-08-01T13:28:08Z</time>
      </trkpt>
      <trkpt lat="47.22894" lon="6.92967">
        <ele>541.942</ele>
        <time>2018-08-01T13:28:34Z</time>
      </trkpt>
      <trkpt lat="47.22888" lon="6.92964">
        <ele>542.779</ele>
        <time>2018-08-01T13:28:37Z</time>
      </trkpt>
      <trkpt lat="47.22884" lon="6.9296">
        <ele>543.224</ele>
        <time>2018-08-01T13:28:39Z</time>
      </trkpt>
      <trkpt lat="47.2288" lon="6.92956">
        <ele>543.773</ele>
        <time>2018-08-01T13:28:41Z</time>
      </trkpt>
      <trkpt lat="47.22876" lon="6.92952">
        <ele>544.449</ele>
        <time>2018-08-01T13:28:43Z</time>
      </trkpt>
      <trkpt lat="47.22872" lon="6.92948">
        <ele>545.002</ele>
        <time>2018-08-01T13:28:45Z</time>
      </trkpt>
      <trkpt lat="47.22867" lon="6.92943">
        <ele>545.522</ele>
        <time>2018-08-01T13:28:47Z</time>
      </trkpt>
      <trkpt lat="47.22864" lon="6.92937">
        <ele>546.008</ele>
        <time>2018-08-01T13:28:49Z</time>
      </trkpt>
      <trkpt lat="47.2286" lon="6.92932">
        <ele>546.666</ele>
        <time>2018-08-01T13:28:51Z</time>
      </trkpt>
      <trkpt lat="47.22857" lon="6.92927">
        <ele>547.221</ele>
        <time>2018-08-01T13:28:53Z</time>
      </trkpt>
      <trkpt lat="47.22853" lon="6.92921">
        <ele>547.865</ele>
        <time>2018-08-01T13:28:55Z</time>
      </trkpt>
      <trkpt lat="47.22849" lon="6.92917">
        <ele>548.477</ele>
        <time>2018-08-01T13:28:57Z</time>
      </trkpt>
      <trkpt lat="47.22845" lon="6.92909">
        <ele>549.453</ele>
        <time>2018-08-01T13:29:00Z</time>
      </trkpt>
      <trkpt lat="47.2284" lon="6.92904">
        <ele>550.14</ele>
        <time>2018-08-01T13:29:03Z</time>
      </trkpt>
      <trkpt lat="47.22835" lon="6.929">
        <ele>551.275</ele>
        <time>2018-08-01T13:29:06Z</time>
      </trkpt>
      <trkpt lat="47.2283" lon="6.92895">
        <ele>552.334</ele>
        <time>2018-08-01T13:29:09Z</time>
      </trkpt>
      <trkpt lat="47.22825" lon="6.9289">
        <ele>553.246</ele>
        <time>2018-08-01T13:29:12Z</time>
      </trkpt>
      <trkpt lat="47.2282" lon="6.92883">
        <ele>554.088</ele>
        <time>2018-08-01T13:29:15Z</time>
      </trkpt>
      <trkpt lat="47.22815" lon="6.9288">
        <ele>554.616</ele>
        <time>2018-08-01T13:29:17Z</time>
      </trkpt>
      <trkpt lat="47.2281" lon="6.92878">
        <ele>555.208</ele>
        <time>2018-08-01T13:29:19Z</time>
      </trkpt>
      <trkpt lat="47.22805" lon="6.92876">
        <ele>555.936</ele>
        <time>2018-08-01T13:29:21Z</time>
      </trkpt>
      <trkpt lat="47.22801" lon="6.92872">
        <ele>556.431</ele>
        <time>2018-08-01T13:29:23Z</time>
      </trkpt>
      <trkpt lat="47.22797" lon="6.92866">
        <ele>557.155</ele>
        <time>2018-08-01T13:29:26Z</time>
      </trkpt>
      <trkpt lat="47.22793" lon="6.92863">
        <ele>557.627</ele>
        <time>2018-08-01T13:29:28Z</time>
      </trkpt>
      <trkpt lat="47.22788" lon="6.92859">
        <ele>557.813</ele>
        <time>2018-08-01T13:29:30Z</time>
      </trkpt>
      <trkpt lat="47.22783" lon="6.92854">
        <ele>558.44</ele>
        <time>2018-08-01T13:29:33Z</time>
      </trkpt>
      <trkpt lat="47.22779" lon="6.9285">
        <ele>558.835</ele>
        <time>2018-08-01T13:29:35Z</time>
      </trkpt>
      <trkpt lat="47.22775" lon="6.92844">
        <ele>559.464</ele>
        <time>2018-08-01T13:29:38Z</time>
      </trkpt>
      <trkpt lat="47.22771" lon="6.92836">
        <ele>560.163</ele>
        <time>2018-08-01T13:29:41Z</time>
      </trkpt>
      <trkpt lat="47.22767" lon="6.92831">
        <ele>560.644</ele>
        <time>2018-08-01T13:29:43Z</time>
      </trkpt>
      <trkpt lat="47.22762" lon="6.92826">
        <ele>561.418</ele>
        <time>2018-08-01T13:29:46Z</time>
      </trkpt>
      <trkpt lat="47.22758" lon="6.92819">
        <ele>562.608</ele>
        <time>2018-08-01T13:29:50Z</time>
      </trkpt>
      <trkpt lat="47.22754" lon="6.92814">
        <ele>563.298</ele>
        <time>2018-08-01T13:29:52Z</time>
      </trkpt>
      <trkpt lat="47.22748" lon="6.92811">
        <ele>563.823</ele>
        <time>2018-08-01T13:29:54Z</time>
      </trkpt>
      <trkpt lat="47.22743" lon="6.92808">
        <ele>564.467</ele>
        <time>2018-08-01T13:29:56Z</time>
      </trkpt>
      <trkpt lat="47.22737" lon="6.92802">
        <ele>565.089</ele>
        <time>2018-08-01T13:29:59Z</time>
      </trkpt>
      <trkpt lat="47.22732" lon="6.92798">
        <ele>565.575</ele>
        <time>2018-08-01T13:30:01Z</time>
      </trkpt>
      <trkpt lat="47.22728" lon="6.92794">
        <ele>566.032</ele>
        <time>2018-08-01T13:30:03Z</time>
      </trkpt>
      <trkpt lat="47.22724" lon="6.9279">
        <ele>566.577</ele>
        <time>2018-08-01T13:30:05Z</time>
      </trkpt>
      <trkpt lat="47.2272" lon="6.92786">
        <ele>567.016</ele>
        <time>2018-08-01T13:30:07Z</time>
      </trkpt>
      <trkpt lat="47.22715" lon="6.92782">
        <ele>567.531</ele>
        <time>2018-08-01T13:30:09Z</time>
      </trkpt>
      <trkpt lat="47.22709" lon="6.92778">
        <ele>568.261</ele>
        <time>2018-08-01T13:30:12Z</time>
      </trkpt>
      <trkpt lat="47.22704" lon="6.92777">
        <ele>568.707</ele>
        <time>2018-08-01T13:30:14Z</time>
      </trkpt>
      <trkpt lat="47.22699" lon="6.92777">
        <ele>569.608</ele>
        <time>2018-08-01T13:30:17Z</time>
      </trkpt>
      <trkpt lat="47.22693" lon="6.92776">
        <ele>570.755</ele>
        <time>2018-08-01T13:30:21Z</time>
      </trkpt>
      <trkpt lat="47.22686" lon="6.92777">
        <ele>571.24</ele>
        <time>2018-08-01T13:30:23Z</time>
      </trkpt>
      <trkpt lat="47.22677" lon="6.92776">
        <ele>571.414</ele>
        <time>2018-08-01T13:30:25Z</time>
      </trkpt>
      <trkpt lat="47.22671" lon="6.92776">
        <ele>571.976</ele>
        <time>2018-08-01T13:30:27Z</time>
      </trkpt>
      <trkpt lat="47.22664" lon="6.92775">
        <ele>572.462</ele>
        <time>2018-08-01T13:30:29Z</time>
      </trkpt>
      <trkpt lat="47.22659" lon="6.92774">
        <ele>573.069</ele>
        <time>2018-08-01T13:30:31Z</time>
      </trkpt>
      <trkpt lat="47.22653" lon="6.92771">
        <ele>573.664</ele>
        <time>2018-08-01T13:30:33Z</time>
      </trkpt>
      <trkpt lat="47.22647" lon="6.92768">
        <ele>574.153</ele>
        <time>2018-08-01T13:30:35Z</time>
      </trkpt>
      <trkpt lat="47.22641" lon="6.92767">
        <ele>574.962</ele>
        <time>2018-08-01T13:30:38Z</time>
      </trkpt>
      <trkpt lat="47.22637" lon="6.92765">
        <ele>575.483</ele>
        <time>2018-08-01T13:30:40Z</time>
      </trkpt>
      <trkpt lat="47.22632" lon="6.92765">
        <ele>576.011</ele>
        <time>2018-08-01T13:30:42Z</time>
      </trkpt>
      <trkpt lat="47.22626" lon="6.92764">
        <ele>576.608</ele>
        <time>2018-08-01T13:30:44Z</time>
      </trkpt>
      <trkpt lat="47.22621" lon="6.92765">
        <ele>577.238</ele>
        <time>2018-08-01T13:30:46Z</time>
      </trkpt>
      <trkpt lat="47.22616" lon="6.92766">
        <ele>577.663</ele>
        <time>2018-08-01T13:30:48Z</time>
      </trkpt>
      <trkpt lat="47.2261" lon="6.92767">
        <ele>577.957</ele>
        <time>2018-08-01T13:30:50Z</time>
      </trkpt>
      <trkpt lat="47.22606" lon="6.92767">
        <ele>578.069</ele>
        <time>2018-08-01T13:30:52Z</time>
      </trkpt>
      <trkpt lat="47.226" lon="6.92765">
        <ele>578.235</ele>
        <time>2018-08-01T13:30:55Z</time>
      </trkpt>
      <trkpt lat="47.22594" lon="6.92761">
        <ele>578.372</ele>
        <time>2018-08-01T13:30:58Z</time>
      </trkpt>
      <trkpt lat="47.22588" lon="6.92758">
        <ele>578.357</ele>
        <time>2018-08-01T13:31:00Z</time>
      </trkpt>
      <trkpt lat="47.22582" lon="6.92753">
        <ele>578.286</ele>
        <time>2018-08-01T13:31:02Z</time>
      </trkpt>
      <trkpt lat="47.22576" lon="6.9275">
        <ele>578.047</ele>
        <time>2018-08-01T13:31:04Z</time>
      </trkpt>
      <trkpt lat="47.2257" lon="6.92748">
        <ele>577.829</ele>
        <time>2018-08-01T13:31:06Z</time>
      </trkpt>
      <trkpt lat="47.22565" lon="6.92745">
        <ele>577.721</ele>
        <time>2018-08-01T13:31:08Z</time>
      </trkpt>
      <trkpt lat="47.2256" lon="6.92742">
        <ele>577.608</ele>
        <time>2018-08-01T13:31:10Z</time>
      </trkpt>
      <trkpt lat="47.22554" lon="6.9274">
        <ele>577.686</ele>
        <time>2018-08-01T13:31:12Z</time>
      </trkpt>
      <trkpt lat="47.2255" lon="6.92735">
        <ele>577.231</ele>
        <time>2018-08-01T13:31:15Z</time>
      </trkpt>
      <trkpt lat="47.22548" lon="6.92729">
        <ele>576.765</ele>
        <time>2018-08-01T13:31:17Z</time>
      </trkpt>
      <trkpt lat="47.22544" lon="6.92722">
        <ele>576.527</ele>
        <time>2018-08-01T13:31:19Z</time>
      </trkpt>
      <trkpt lat="47.22541" lon="6.92716">
        <ele>576.293</ele>
        <time>2018-08-01T13:31:21Z</time>
      </trkpt>
      <trkpt lat="47.22536" lon="6.92711">
        <ele>575.87</ele>
        <time>2018-08-01T13:31:23Z</time>
      </trkpt>
      <trkpt lat="47.22531" lon="6.92707">
        <ele>575.435</ele>
        <time>2018-08-01T13:31:25Z</time>
      </trkpt>
      <trkpt lat="47.22527" lon="6.92703">
        <ele>575.254</ele>
        <time>2018-08-01T13:31:27Z</time>
      </trkpt>
      <trkpt lat="47.22523" lon="6.927">
        <ele>575.096</ele>
        <time>2018-08-01T13:31:31Z</time>
      </trkpt>
      <trkpt lat="47.22518" lon="6.92697">
        <ele>575.031</ele>
        <time>2018-08-01T13:31:34Z</time>
      </trkpt>
      <trkpt lat="47.22514" lon="6.92694">
        <ele>575.024</ele>
        <time>2018-08-01T13:31:36Z</time>
      </trkpt>
      <trkpt lat="47.22508" lon="6.92689">
        <ele>574.808</ele>
        <time>2018-08-01T13:31:38Z</time>
      </trkpt>
      <trkpt lat="47.22503" lon="6.92687">
        <ele>574.741</ele>
        <time>2018-08-01T13:31:39Z</time>
      </trkpt>
      <trkpt lat="47.22498" lon="6.92685">
        <ele>574.676</ele>
        <time>2018-08-01T13:31:40Z</time>
      </trkpt>
      <trkpt lat="47.22492" lon="6.92683">
        <ele>574.56</ele>
        <time>2018-08-01T13:31:41Z</time>
      </trkpt>
      <trkpt lat="47.22483" lon="6.92679">
        <ele>574.322</ele>
        <time>2018-08-01T13:31:42Z</time>
      </trkpt>
      <trkpt lat="47.22475" lon="6.92673">
        <ele>574.188</ele>
        <time>2018-08-01T13:31:43Z</time>
      </trkpt>
      <trkpt lat="47.22471" lon="6.9267">
        <ele>573.865</ele>
        <time>2018-08-01T13:31:44Z</time>
      </trkpt>
      <trkpt lat="47.22464" lon="6.92662">
        <ele>573.41</ele>
        <time>2018-08-01T13:31:46Z</time>
      </trkpt>
      <trkpt lat="47.22461" lon="6.92656">
        <ele>573.059</ele>
        <time>2018-08-01T13:31:47Z</time>
      </trkpt>
      <trkpt lat="47.22455" lon="6.92654">
        <ele>572.625</ele>
        <time>2018-08-01T13:31:48Z</time>
      </trkpt>
      <trkpt lat="47.22445" lon="6.92646">
        <ele>571.626</ele>
        <time>2018-08-01T13:31:50Z</time>
      </trkpt>
      <trkpt lat="47.2244" lon="6.92642">
        <ele>571.108</ele>
        <time>2018-08-01T13:31:51Z</time>
      </trkpt>
      <trkpt lat="47.22434" lon="6.92635">
        <ele>570.608</ele>
        <time>2018-08-01T13:31:52Z</time>
      </trkpt>
      <trkpt lat="47.22429" lon="6.9263">
        <ele>570.044</ele>
        <time>2018-08-01T13:31:53Z</time>
      </trkpt>
      <trkpt lat="47.22425" lon="6.92625">
        <ele>569.529</ele>
        <time>2018-08-01T13:31:54Z</time>
      </trkpt>
      <trkpt lat="47.2242" lon="6.92621">
        <ele>569.033</ele>
        <time>2018-08-01T13:31:55Z</time>
      </trkpt>
      <trkpt lat="47.22415" lon="6.92617">
        <ele>568.565</ele>
        <time>2018-08-01T13:31:56Z</time>
      </trkpt>
      <trkpt lat="47.22411" lon="6.92614">
        <ele>567.911</ele>
        <time>2018-08-01T13:31:57Z</time>
      </trkpt>
      <trkpt lat="47.22406" lon="6.92608">
        <ele>566.688</ele>
        <time>2018-08-01T13:31:59Z</time>
      </trkpt>
      <trkpt lat="47.224" lon="6.92608">
        <ele>565.073</ele>
        <time>2018-08-01T13:32:02Z</time>
      </trkpt>
      <trkpt lat="47.22396" lon="6.92604">
        <ele>564.622</ele>
        <time>2018-08-01T13:32:05Z</time>
      </trkpt>
      <trkpt lat="47.22391" lon="6.926">
        <ele>564.732</ele>
        <time>2018-08-01T13:32:07Z</time>
      </trkpt>
      <trkpt lat="47.22395" lon="6.92601">
        <ele>564.692</ele>
        <time>2018-08-01T13:32:39Z</time>
      </trkpt>
      <trkpt lat="47.22399" lon="6.92608">
        <ele>564.411</ele>
        <time>2018-08-01T13:32:42Z</time>
      </trkpt>
      <trkpt lat="47.22406" lon="6.9261">
        <ele>564.108</ele>
        <time>2018-08-01T13:32:45Z</time>
      </trkpt>
      <trkpt lat="47.22412" lon="6.92605">
        <ele>564.045</ele>
        <time>2018-08-01T13:32:47Z</time>
      </trkpt>
      <trkpt lat="47.22415" lon="6.92598">
        <ele>563.89</ele>
        <time>2018-08-01T13:32:49Z</time>
      </trkpt>
      <trkpt lat="47.22419" lon="6.92589">
        <ele>563.444</ele>
        <time>2018-08-01T13:32:51Z</time>
      </trkpt>
      <trkpt lat="47.22423" lon="6.9258">
        <ele>563.026</ele>
        <time>2018-08-01T13:32:53Z</time>
      </trkpt>
      <trkpt lat="47.22424" lon="6.92573">
        <ele>562.842</ele>
        <time>2018-08-01T13:32:55Z</time>
      </trkpt>
      <trkpt lat="47.22424" lon="6.92566">
        <ele>562.869</ele>
        <time>2018-08-01T13:33:23Z</time>
      </trkpt>
      <trkpt lat="47.22426" lon="6.9256">
        <ele>563.054</ele>
        <time>2018-08-01T13:33:27Z</time>
      </trkpt>
      <trkpt lat="47.22427" lon="6.92552">
        <ele>563.023</ele>
        <time>2018-08-01T13:33:31Z</time>
      </trkpt>
      <trkpt lat="47.22428" lon="6.92546">
        <ele>562.815</ele>
        <time>2018-08-01T13:33:36Z</time>
      </trkpt>
      <trkpt lat="47.22422" lon="6.92545">
        <ele>562.865</ele>
        <time>2018-08-01T13:33:40Z</time>
      </trkpt>
      <trkpt lat="47.22419" lon="6.92552">
        <ele>562.711</ele>
        <time>2018-08-01T13:33:43Z</time>
      </trkpt>
      <trkpt lat="47.22416" lon="6.92559">
        <ele>562.608</ele>
        <time>2018-08-01T13:33:46Z</time>
      </trkpt>
      <trkpt lat="47.22414" lon="6.92566">
        <ele>562.753</ele>
        <time>2018-08-01T13:33:51Z</time>
      </trkpt>
      <trkpt lat="47.22412" lon="6.92572">
        <ele>562.888</ele>
        <time>2018-08-01T13:33:54Z</time>
      </trkpt>
      <trkpt lat="47.2241" lon="6.92578">
        <ele>562.982</ele>
        <time>2018-08-01T13:33:57Z</time>
      </trkpt>
      <trkpt lat="47.22408" lon="6.92584">
        <ele>563.054</ele>
        <time>2018-08-01T13:34:00Z</time>
      </trkpt>
      <trkpt lat="47.22405" lon="6.92591">
        <ele>563.23</ele>
        <time>2018-08-01T13:34:03Z</time>
      </trkpt>
      <trkpt lat="47.22402" lon="6.92596">
        <ele>563.487</ele>
        <time>2018-08-01T13:34:06Z</time>
      </trkpt>
      <trkpt lat="47.22396" lon="6.92596">
        <ele>563.692</ele>
        <time>2018-08-01T13:34:09Z</time>
      </trkpt>
      <trkpt lat="47.22392" lon="6.92592">
        <ele>563.841</ele>
        <time>2018-08-01T13:34:11Z</time>
      </trkpt>
      <trkpt lat="47.22388" lon="6.92587">
        <ele>564.062</ele>
        <time>2018-08-01T13:34:13Z</time>
      </trkpt>
      <trkpt lat="47.22384" lon="6.92583">
        <ele>564.083</ele>
        <time>2018-08-01T13:34:15Z</time>
      </trkpt>
      <trkpt lat="47.2238" lon="6.92578">
        <ele>563.911</ele>
        <time>2018-08-01T13:34:17Z</time>
      </trkpt>
      <trkpt lat="47.22376" lon="6.92572">
        <ele>563.908</ele>
        <time>2018-08-01T13:34:19Z</time>
      </trkpt>
      <trkpt lat="47.2237" lon="6.92566">
        <ele>563.958</ele>
        <time>2018-08-01T13:34:21Z</time>
      </trkpt>
      <trkpt lat="47.22363" lon="6.92562">
        <ele>563.943</ele>
        <time>2018-08-01T13:34:23Z</time>
      </trkpt>
      <trkpt lat="47.22356" lon="6.9256">
        <ele>563.897</ele>
        <time>2018-08-01T13:34:25Z</time>
      </trkpt>
      <trkpt lat="47.22351" lon="6.92557">
        <ele>563.889</ele>
        <time>2018-08-01T13:34:27Z</time>
      </trkpt>
      <trkpt lat="47.22344" lon="6.92554">
        <ele>563.935</ele>
        <time>2018-08-01T13:34:29Z</time>
      </trkpt>
      <trkpt lat="47.22333" lon="6.92553">
        <ele>563.862</ele>
        <time>2018-08-01T13:34:31Z</time>
      </trkpt>
      <trkpt lat="47.22328" lon="6.92548">
        <ele>563.827</ele>
        <time>2018-08-01T13:34:32Z</time>
      </trkpt>
      <trkpt lat="47.22323" lon="6.92543">
        <ele>563.786</ele>
        <time>2018-08-01T13:34:33Z</time>
      </trkpt>
      <trkpt lat="47.22319" lon="6.92538">
        <ele>563.697</ele>
        <time>2018-08-01T13:34:34Z</time>
      </trkpt>
      <trkpt lat="47.22313" lon="6.92533">
        <ele>563.423</ele>
        <time>2018-08-01T13:34:35Z</time>
      </trkpt>
      <trkpt lat="47.2231" lon="6.92526">
        <ele>563.225</ele>
        <time>2018-08-01T13:34:36Z</time>
      </trkpt>
      <trkpt lat="47.22307" lon="6.92519">
        <ele>563.108</ele>
        <time>2018-08-01T13:34:37Z</time>
      </trkpt>
      <trkpt lat="47.22303" lon="6.92513">
        <ele>563.151</ele>
        <time>2018-08-01T13:34:38Z</time>
      </trkpt>
      <trkpt lat="47.22298" lon="6.92506">
        <ele>563.076</ele>
        <time>2018-08-01T13:34:39Z</time>
      </trkpt>
      <trkpt lat="47.22294" lon="6.92494">
        <ele>562.78</ele>
        <time>2018-08-01T13:34:41Z</time>
      </trkpt>
      <trkpt lat="47.22291" lon="6.92488">
        <ele>562.692</ele>
        <time>2018-08-01T13:34:42Z</time>
      </trkpt>
      <trkpt lat="47.22287" lon="6.92483">
        <ele>562.598</ele>
        <time>2018-08-01T13:34:43Z</time>
      </trkpt>
      <trkpt lat="47.22279" lon="6.92474">
        <ele>562.575</ele>
        <time>2018-08-01T13:34:45Z</time>
      </trkpt>
      <trkpt lat="47.22275" lon="6.9247">
        <ele>562.62</ele>
        <time>2018-08-01T13:34:46Z</time>
      </trkpt>
      <trkpt lat="47.2227" lon="6.92462">
        <ele>562.879</ele>
        <time>2018-08-01T13:34:48Z</time>
      </trkpt>
      <trkpt lat="47.22262" lon="6.92457">
        <ele>562.936</ele>
        <time>2018-08-01T13:34:50Z</time>
      </trkpt>
      <trkpt lat="47.22258" lon="6.9245">
        <ele>562.917</ele>
        <time>2018-08-01T13:34:52Z</time>
      </trkpt>
      <trkpt lat="47.22252" lon="6.92443">
        <ele>562.918</ele>
        <time>2018-08-01T13:34:54Z</time>
      </trkpt>
      <trkpt lat="47.22247" lon="6.92438">
        <ele>562.908</ele>
        <time>2018-08-01T13:34:55Z</time>
      </trkpt>
      <trkpt lat="47.22241" lon="6.92435">
        <ele>562.975</ele>
        <time>2018-08-01T13:34:56Z</time>
      </trkpt>
      <trkpt lat="47.22237" lon="6.92431">
        <ele>562.95</ele>
        <time>2018-08-01T13:34:57Z</time>
      </trkpt>
      <trkpt lat="47.22233" lon="6.92426">
        <ele>563.044</ele>
        <time>2018-08-01T13:34:58Z</time>
      </trkpt>
      <trkpt lat="47.22226" lon="6.92423">
        <ele>563.186</ele>
        <time>2018-08-01T13:34:59Z</time>
      </trkpt>
      <trkpt lat="47.22221" lon="6.92415">
        <ele>563.142</ele>
        <time>2018-08-01T13:35:00Z</time>
      </trkpt>
      <trkpt lat="47.22219" lon="6.92406">
        <ele>563.189</ele>
        <time>2018-08-01T13:35:01Z</time>
      </trkpt>
      <trkpt lat="47.22216" lon="6.92397">
        <ele>563.114</ele>
        <time>2018-08-01T13:35:02Z</time>
      </trkpt>
      <trkpt lat="47.22208" lon="6.92392">
        <ele>563.073</ele>
        <time>2018-08-01T13:35:03Z</time>
      </trkpt>
      <trkpt lat="47.22203" lon="6.92385">
        <ele>562.869</ele>
        <time>2018-08-01T13:35:04Z</time>
      </trkpt>
      <trkpt lat="47.22198" lon="6.92375">
        <ele>562.504</ele>
        <time>2018-08-01T13:35:05Z</time>
      </trkpt>
      <trkpt lat="47.22195" lon="6.92365">
        <ele>562.024</ele>
        <time>2018-08-01T13:35:06Z</time>
      </trkpt>
      <trkpt lat="47.22191" lon="6.9236">
        <ele>561.608</ele>
        <time>2018-08-01T13:35:07Z</time>
      </trkpt>
      <trkpt lat="47.22184" lon="6.9235">
        <ele>561.358</ele>
        <time>2018-08-01T13:35:08Z</time>
      </trkpt>
      <trkpt lat="47.22176" lon="6.92338">
        <ele>560.743</ele>
        <time>2018-08-01T13:35:10Z</time>
      </trkpt>
      <trkpt lat="47.22176" lon="6.92331">
        <ele>560.717</ele>
        <time>2018-08-01T13:35:11Z</time>
      </trkpt>
      <trkpt lat="47.22176" lon="6.92323">
        <ele>560.889</ele>
        <time>2018-08-01T13:35:12Z</time>
      </trkpt>
      <trkpt lat="47.22171" lon="6.92313">
        <ele>560.925</ele>
        <time>2018-08-01T13:35:14Z</time>
      </trkpt>
      <trkpt lat="47.22164" lon="6.92306">
        <ele>561.442</ele>
        <time>2018-08-01T13:35:16Z</time>
      </trkpt>
      <trkpt lat="47.22157" lon="6.92299">
        <ele>561.957</ele>
        <time>2018-08-01T13:35:18Z</time>
      </trkpt>
      <trkpt lat="47.2215" lon="6.9229">
        <ele>562.266</ele>
        <time>2018-08-01T13:35:20Z</time>
      </trkpt>
      <trkpt lat="47.22146" lon="6.92286">
        <ele>562.318</ele>
        <time>2018-08-01T13:35:21Z</time>
      </trkpt>
      <trkpt lat="47.22143" lon="6.9228">
        <ele>562.498</ele>
        <time>2018-08-01T13:35:22Z</time>
      </trkpt>
      <trkpt lat="47.2214" lon="6.92273">
        <ele>562.517</ele>
        <time>2018-08-01T13:35:23Z</time>
      </trkpt>
      <trkpt lat="47.22138" lon="6.92267">
        <ele>562.508</ele>
        <time>2018-08-01T13:35:24Z</time>
      </trkpt>
      <trkpt lat="47.22135" lon="6.92262">
        <ele>562.463</ele>
        <time>2018-08-01T13:35:25Z</time>
      </trkpt>
      <trkpt lat="47.22131" lon="6.92257">
        <ele>562.218</ele>
        <time>2018-08-01T13:35:26Z</time>
      </trkpt>
      <trkpt lat="47.22124" lon="6.92247">
        <ele>561.962</ele>
        <time>2018-08-01T13:35:28Z</time>
      </trkpt>
      <trkpt lat="47.22118" lon="6.92236">
        <ele>561.354</ele>
        <time>2018-08-01T13:35:30Z</time>
      </trkpt>
      <trkpt lat="47.22115" lon="6.9223">
        <ele>561.23</ele>
        <time>2018-08-01T13:35:31Z</time>
      </trkpt>
      <trkpt lat="47.2211" lon="6.92226">
        <ele>561.247</ele>
        <time>2018-08-01T13:35:32Z</time>
      </trkpt>
      <trkpt lat="47.22104" lon="6.92217">
        <ele>561.422</ele>
        <time>2018-08-01T13:35:34Z</time>
      </trkpt>
      <trkpt lat="47.22097" lon="6.92208">
        <ele>561.771</ele>
        <time>2018-08-01T13:35:36Z</time>
      </trkpt>
      <trkpt lat="47.2209" lon="6.922">
        <ele>561.831</ele>
        <time>2018-08-01T13:35:38Z</time>
      </trkpt>
      <trkpt lat="47.22086" lon="6.92195">
        <ele>561.861</ele>
        <time>2018-08-01T13:35:39Z</time>
      </trkpt>
      <trkpt lat="47.22082" lon="6.92191">
        <ele>561.807</ele>
        <time>2018-08-01T13:35:40Z</time>
      </trkpt>
      <trkpt lat="47.22073" lon="6.92185">
        <ele>561.708</ele>
        <time>2018-08-01T13:35:42Z</time>
      </trkpt>
      <trkpt lat="47.22066" lon="6.92182">
        <ele>561.685</ele>
        <time>2018-08-01T13:35:43Z</time>
      </trkpt>
      <trkpt lat="47.22064" lon="6.92173">
        <ele>561.48</ele>
        <time>2018-08-01T13:35:45Z</time>
      </trkpt>
      <trkpt lat="47.22061" lon="6.92164">
        <ele>561.484</ele>
        <time>2018-08-01T13:35:47Z</time>
      </trkpt>
      <trkpt lat="47.2206" lon="6.92155">
        <ele>561.456</ele>
        <time>2018-08-01T13:35:48Z</time>
      </trkpt>
      <trkpt lat="47.22056" lon="6.9215">
        <ele>561.422</ele>
        <time>2018-08-01T13:35:49Z</time>
      </trkpt>
      <trkpt lat="47.22054" lon="6.92138">
        <ele>561.459</ele>
        <time>2018-08-01T13:35:51Z</time>
      </trkpt>
      <trkpt lat="47.22051" lon="6.92131">
        <ele>561.434</ele>
        <time>2018-08-01T13:35:52Z</time>
      </trkpt>
      <trkpt lat="47.22051" lon="6.92122">
        <ele>561.313</ele>
        <time>2018-08-01T13:35:53Z</time>
      </trkpt>
      <trkpt lat="47.22051" lon="6.92113">
        <ele>561.259</ele>
        <time>2018-08-01T13:35:54Z</time>
      </trkpt>
      <trkpt lat="47.22051" lon="6.92105">
        <ele>561.203</ele>
        <time>2018-08-01T13:35:55Z</time>
      </trkpt>
      <trkpt lat="47.2205" lon="6.92094">
        <ele>561.123</ele>
        <time>2018-08-01T13:35:56Z</time>
      </trkpt>
      <trkpt lat="47.2205" lon="6.92087">
        <ele>560.908</ele>
        <time>2018-08-01T13:35:57Z</time>
      </trkpt>
      <trkpt lat="47.22049" lon="6.92076">
        <ele>560.837</ele>
        <time>2018-08-01T13:35:59Z</time>
      </trkpt>
      <trkpt lat="47.22052" lon="6.92069">
        <ele>560.812</ele>
        <time>2018-08-01T13:36:00Z</time>
      </trkpt>
      <trkpt lat="47.22051" lon="6.92058">
        <ele>560.986</ele>
        <time>2018-08-01T13:36:02Z</time>
      </trkpt>
      <trkpt lat="47.22048" lon="6.92051">
        <ele>561.238</ele>
        <time>2018-08-01T13:36:04Z</time>
      </trkpt>
      <trkpt lat="47.22046" lon="6.92043">
        <ele>561.764</ele>
        <time>2018-08-01T13:36:06Z</time>
      </trkpt>
      <trkpt lat="47.22042" lon="6.92031">
        <ele>562.061</ele>
        <time>2018-08-01T13:36:08Z</time>
      </trkpt>
      <trkpt lat="47.2204" lon="6.92025">
        <ele>562.286</ele>
        <time>2018-08-01T13:36:09Z</time>
      </trkpt>
      <trkpt lat="47.22036" lon="6.92014">
        <ele>562.435</ele>
        <time>2018-08-01T13:36:11Z</time>
      </trkpt>
      <trkpt lat="47.22034" lon="6.92008">
        <ele>562.578</ele>
        <time>2018-08-01T13:36:12Z</time>
      </trkpt>
      <trkpt lat="47.22033" lon="6.92001">
        <ele>562.533</ele>
        <time>2018-08-01T13:36:13Z</time>
      </trkpt>
      <trkpt lat="47.22031" lon="6.91992">
        <ele>562.526</ele>
        <time>2018-08-01T13:36:14Z</time>
      </trkpt>
      <trkpt lat="47.22028" lon="6.91985">
        <ele>562.508</ele>
        <time>2018-08-01T13:36:15Z</time>
      </trkpt>
      <trkpt lat="47.22027" lon="6.91979">
        <ele>562.539</ele>
        <time>2018-08-01T13:36:16Z</time>
      </trkpt>
      <trkpt lat="47.22026" lon="6.91967">
        <ele>562.474</ele>
        <time>2018-08-01T13:36:18Z</time>
      </trkpt>
      <trkpt lat="47.22024" lon="6.91961">
        <ele>562.338</ele>
        <time>2018-08-01T13:36:19Z</time>
      </trkpt>
      <trkpt lat="47.2202" lon="6.91949">
        <ele>562.32</ele>
        <time>2018-08-01T13:36:21Z</time>
      </trkpt>
      <trkpt lat="47.22018" lon="6.91942">
        <ele>562.356</ele>
        <time>2018-08-01T13:36:22Z</time>
      </trkpt>
      <trkpt lat="47.22015" lon="6.91936">
        <ele>562.283</ele>
        <time>2018-08-01T13:36:23Z</time>
      </trkpt>
      <trkpt lat="47.22013" lon="6.91929">
        <ele>562.258</ele>
        <time>2018-08-01T13:36:24Z</time>
      </trkpt>
      <trkpt lat="47.22011" lon="6.91923">
        <ele>562.247</ele>
        <time>2018-08-01T13:36:25Z</time>
      </trkpt>
      <trkpt lat="47.22009" lon="6.91916">
        <ele>562.298</ele>
        <time>2018-08-01T13:36:26Z</time>
      </trkpt>
      <trkpt lat="47.22007" lon="6.9191">
        <ele>562.115</ele>
        <time>2018-08-01T13:36:27Z</time>
      </trkpt>
      <trkpt lat="47.22005" lon="6.91903">
        <ele>562.126</ele>
        <time>2018-08-01T13:36:28Z</time>
      </trkpt>
      <trkpt lat="47.22004" lon="6.91896">
        <ele>562.008</ele>
        <time>2018-08-01T13:36:29Z</time>
      </trkpt>
      <trkpt lat="47.22004" lon="6.91889">
        <ele>561.951</ele>
        <time>2018-08-01T13:36:30Z</time>
      </trkpt>
      <trkpt lat="47.22003" lon="6.91882">
        <ele>561.786</ele>
        <time>2018-08-01T13:36:31Z</time>
      </trkpt>
      <trkpt lat="47.22" lon="6.9187">
        <ele>561.67</ele>
        <time>2018-08-01T13:36:33Z</time>
      </trkpt>
      <trkpt lat="47.21997" lon="6.91863">
        <ele>561.552</ele>
        <time>2018-08-01T13:36:34Z</time>
      </trkpt>
      <trkpt lat="47.21995" lon="6.91857">
        <ele>561.498</ele>
        <time>2018-08-01T13:36:35Z</time>
      </trkpt>
      <trkpt lat="47.21993" lon="6.91851">
        <ele>561.325</ele>
        <time>2018-08-01T13:36:36Z</time>
      </trkpt>
      <trkpt lat="47.2199" lon="6.91844">
        <ele>561.12</ele>
        <time>2018-08-01T13:36:37Z</time>
      </trkpt>
      <trkpt lat="47.21985" lon="6.91834">
        <ele>560.959</ele>
        <time>2018-08-01T13:36:39Z</time>
      </trkpt>
      <trkpt lat="47.21982" lon="6.91829">
        <ele>560.951</ele>
        <time>2018-08-01T13:36:40Z</time>
      </trkpt>
      <trkpt lat="47.2198" lon="6.91821">
        <ele>560.901</ele>
        <time>2018-08-01T13:36:41Z</time>
      </trkpt>
      <trkpt lat="47.21978" lon="6.91816">
        <ele>560.911</ele>
        <time>2018-08-01T13:36:42Z</time>
      </trkpt>
      <trkpt lat="47.21974" lon="6.91806">
        <ele>560.908</ele>
        <time>2018-08-01T13:36:44Z</time>
      </trkpt>
      <trkpt lat="47.2197" lon="6.91798">
        <ele>560.987</ele>
        <time>2018-08-01T13:36:46Z</time>
      </trkpt>
      <trkpt lat="47.21967" lon="6.91793">
        <ele>561.032</ele>
        <time>2018-08-01T13:36:47Z</time>
      </trkpt>
      <trkpt lat="47.21959" lon="6.91786">
        <ele>561.156</ele>
        <time>2018-08-01T13:36:49Z</time>
      </trkpt>
      <trkpt lat="47.21954" lon="6.91776">
        <ele>561.288</ele>
        <time>2018-08-01T13:36:51Z</time>
      </trkpt>
      <trkpt lat="47.21949" lon="6.91769">
        <ele>561.334</ele>
        <time>2018-08-01T13:36:53Z</time>
      </trkpt>
      <trkpt lat="47.21948" lon="6.91762">
        <ele>561.421</ele>
        <time>2018-08-01T13:36:55Z</time>
      </trkpt>
      <trkpt lat="47.21946" lon="6.91752">
        <ele>561.546</ele>
        <time>2018-08-01T13:36:57Z</time>
      </trkpt>
      <trkpt lat="47.21942" lon="6.91741">
        <ele>561.785</ele>
        <time>2018-08-01T13:36:59Z</time>
      </trkpt>
      <trkpt lat="47.21938" lon="6.91732">
        <ele>561.834</ele>
        <time>2018-08-01T13:37:00Z</time>
      </trkpt>
      <trkpt lat="47.21935" lon="6.91725">
        <ele>561.855</ele>
        <time>2018-08-01T13:37:01Z</time>
      </trkpt>
      <trkpt lat="47.21932" lon="6.91717">
        <ele>561.81</ele>
        <time>2018-08-01T13:37:02Z</time>
      </trkpt>
      <trkpt lat="47.2193" lon="6.91709">
        <ele>561.808</ele>
        <time>2018-08-01T13:37:03Z</time>
      </trkpt>
      <trkpt lat="47.21926" lon="6.91701">
        <ele>561.745</ele>
        <time>2018-08-01T13:37:04Z</time>
      </trkpt>
      <trkpt lat="47.21925" lon="6.91692">
        <ele>561.78</ele>
        <time>2018-08-01T13:37:05Z</time>
      </trkpt>
      <trkpt lat="47.21922" lon="6.91684">
        <ele>561.674</ele>
        <time>2018-08-01T13:37:06Z</time>
      </trkpt>
      <trkpt lat="47.21918" lon="6.91677">
        <ele>561.576</ele>
        <time>2018-08-01T13:37:07Z</time>
      </trkpt>
      <trkpt lat="47.21917" lon="6.91669">
        <ele>561.512</ele>
        <time>2018-08-01T13:37:08Z</time>
      </trkpt>
      <trkpt lat="47.21915" lon="6.91662">
        <ele>561.529</ele>
        <time>2018-08-01T13:37:09Z</time>
      </trkpt>
      <trkpt lat="47.2191" lon="6.91651">
        <ele>561.254</ele>
        <time>2018-08-01T13:37:11Z</time>
      </trkpt>
      <trkpt lat="47.21906" lon="6.91644">
        <ele>560.963</ele>
        <time>2018-08-01T13:37:13Z</time>
      </trkpt>
      <trkpt lat="47.21898" lon="6.91636">
        <ele>560.781</ele>
        <time>2018-08-01T13:37:15Z</time>
      </trkpt>
      <trkpt lat="47.21894" lon="6.91625">
        <ele>560.761</ele>
        <time>2018-08-01T13:37:17Z</time>
      </trkpt>
      <trkpt lat="47.2189" lon="6.91614">
        <ele>560.817</ele>
        <time>2018-08-01T13:37:19Z</time>
      </trkpt>
      <trkpt lat="47.21886" lon="6.91602">
        <ele>560.908</ele>
        <time>2018-08-01T13:37:21Z</time>
      </trkpt>
      <trkpt lat="47.21885" lon="6.91594">
        <ele>560.95</ele>
        <time>2018-08-01T13:37:22Z</time>
      </trkpt>
      <trkpt lat="47.21882" lon="6.91588">
        <ele>560.975</ele>
        <time>2018-08-01T13:37:23Z</time>
      </trkpt>
      <trkpt lat="47.21882" lon="6.9158">
        <ele>560.929</ele>
        <time>2018-08-01T13:37:24Z</time>
      </trkpt>
      <trkpt lat="47.21881" lon="6.91572">
        <ele>560.941</ele>
        <time>2018-08-01T13:37:25Z</time>
      </trkpt>
      <trkpt lat="47.21879" lon="6.91564">
        <ele>560.947</ele>
        <time>2018-08-01T13:37:26Z</time>
      </trkpt>
      <trkpt lat="47.21878" lon="6.91556">
        <ele>560.954</ele>
        <time>2018-08-01T13:37:27Z</time>
      </trkpt>
      <trkpt lat="47.21876" lon="6.91548">
        <ele>560.829</ele>
        <time>2018-08-01T13:37:28Z</time>
      </trkpt>
      <trkpt lat="47.21875" lon="6.9154">
        <ele>560.738</ele>
        <time>2018-08-01T13:37:29Z</time>
      </trkpt>
      <trkpt lat="47.21873" lon="6.91532">
        <ele>560.739</ele>
        <time>2018-08-01T13:37:30Z</time>
      </trkpt>
      <trkpt lat="47.21871" lon="6.91525">
        <ele>560.501</ele>
        <time>2018-08-01T13:37:31Z</time>
      </trkpt>
      <trkpt lat="47.21869" lon="6.91518">
        <ele>560.421</ele>
        <time>2018-08-01T13:37:32Z</time>
      </trkpt>
      <trkpt lat="47.21868" lon="6.91511">
        <ele>560.408</ele>
        <time>2018-08-01T13:37:33Z</time>
      </trkpt>
      <trkpt lat="47.21862" lon="6.915">
        <ele>560.535</ele>
        <time>2018-08-01T13:37:35Z</time>
      </trkpt>
      <trkpt lat="47.21859" lon="6.91493">
        <ele>560.69</ele>
        <time>2018-08-01T13:37:36Z</time>
      </trkpt>
      <trkpt lat="47.21856" lon="6.91486">
        <ele>560.774</ele>
        <time>2018-08-01T13:37:37Z</time>
      </trkpt>
      <trkpt lat="47.21853" lon="6.9148">
        <ele>560.846</ele>
        <time>2018-08-01T13:37:38Z</time>
      </trkpt>
      <trkpt lat="47.21851" lon="6.91474">
        <ele>560.962</ele>
        <time>2018-08-01T13:37:39Z</time>
      </trkpt>
      <trkpt lat="47.21849" lon="6.91468">
        <ele>561.159</ele>
        <time>2018-08-01T13:37:40Z</time>
      </trkpt>
      <trkpt lat="47.21843" lon="6.91458">
        <ele>561.534</ele>
        <time>2018-08-01T13:37:42Z</time>
      </trkpt>
      <trkpt lat="47.2184" lon="6.91453">
        <ele>561.723</ele>
        <time>2018-08-01T13:37:43Z</time>
      </trkpt>
      <trkpt lat="47.21837" lon="6.91446">
        <ele>561.913</ele>
        <time>2018-08-01T13:37:44Z</time>
      </trkpt>
      <trkpt lat="47.2183" lon="6.91433">
        <ele>562.043</ele>
        <time>2018-08-01T13:37:46Z</time>
      </trkpt>
      <trkpt lat="47.21829" lon="6.91427">
        <ele>562.007</ele>
        <time>2018-08-01T13:37:47Z</time>
      </trkpt>
      <trkpt lat="47.21826" lon="6.9142">
        <ele>562.008</ele>
        <time>2018-08-01T13:37:48Z</time>
      </trkpt>
      <trkpt lat="47.21826" lon="6.91413">
        <ele>562.033</ele>
        <time>2018-08-01T13:37:49Z</time>
      </trkpt>
      <trkpt lat="47.21825" lon="6.91406">
        <ele>562.038</ele>
        <time>2018-08-01T13:37:50Z</time>
      </trkpt>
      <trkpt lat="47.21822" lon="6.914">
        <ele>562.072</ele>
        <time>2018-08-01T13:37:51Z</time>
      </trkpt>
      <trkpt lat="47.21819" lon="6.91393">
        <ele>562.074</ele>
        <time>2018-08-01T13:37:52Z</time>
      </trkpt>
      <trkpt lat="47.21818" lon="6.91386">
        <ele>562.18</ele>
        <time>2018-08-01T13:37:53Z</time>
      </trkpt>
      <trkpt lat="47.21819" lon="6.91378">
        <ele>562.157</ele>
        <time>2018-08-01T13:37:54Z</time>
      </trkpt>
      <trkpt lat="47.21817" lon="6.91371">
        <ele>562.232</ele>
        <time>2018-08-01T13:37:55Z</time>
      </trkpt>
      <trkpt lat="47.21816" lon="6.91364">
        <ele>562.371</ele>
        <time>2018-08-01T13:37:56Z</time>
      </trkpt>
      <trkpt lat="47.21815" lon="6.91356">
        <ele>562.473</ele>
        <time>2018-08-01T13:37:57Z</time>
      </trkpt>
      <trkpt lat="47.21814" lon="6.9135">
        <ele>562.485</ele>
        <time>2018-08-01T13:37:58Z</time>
      </trkpt>
      <trkpt lat="47.21813" lon="6.91342">
        <ele>562.413</ele>
        <time>2018-08-01T13:37:59Z</time>
      </trkpt>
      <trkpt lat="47.21812" lon="6.91335">
        <ele>562.408</ele>
        <time>2018-08-01T13:38:00Z</time>
      </trkpt>
      <trkpt lat="47.21808" lon="6.91329">
        <ele>562.499</ele>
        <time>2018-08-01T13:38:01Z</time>
      </trkpt>
      <trkpt lat="47.21806" lon="6.91322">
        <ele>562.474</ele>
        <time>2018-08-01T13:38:02Z</time>
      </trkpt>
      <trkpt lat="47.21804" lon="6.91316">
        <ele>562.488</ele>
        <time>2018-08-01T13:38:03Z</time>
      </trkpt>
      <trkpt lat="47.21803" lon="6.9131">
        <ele>562.48</ele>
        <time>2018-08-01T13:38:04Z</time>
      </trkpt>
      <trkpt lat="47.21801" lon="6.91304">
        <ele>562.496</ele>
        <time>2018-08-01T13:38:05Z</time>
      </trkpt>
      <trkpt lat="47.21802" lon="6.91296">
        <ele>562.433</ele>
        <time>2018-08-01T13:38:06Z</time>
      </trkpt>
      <trkpt lat="47.218" lon="6.91289">
        <ele>562.438</ele>
        <time>2018-08-01T13:38:07Z</time>
      </trkpt>
      <trkpt lat="47.21798" lon="6.91283">
        <ele>562.577</ele>
        <time>2018-08-01T13:38:08Z</time>
      </trkpt>
      <trkpt lat="47.21796" lon="6.91271">
        <ele>562.875</ele>
        <time>2018-08-01T13:38:10Z</time>
      </trkpt>
      <trkpt lat="47.21793" lon="6.91266">
        <ele>563.028</ele>
        <time>2018-08-01T13:38:11Z</time>
      </trkpt>
      <trkpt lat="47.21789" lon="6.91256">
        <ele>563.22</ele>
        <time>2018-08-01T13:38:13Z</time>
      </trkpt>
      <trkpt lat="47.21786" lon="6.91246">
        <ele>563.608</ele>
        <time>2018-08-01T13:38:15Z</time>
      </trkpt>
      <trkpt lat="47.21785" lon="6.91239">
        <ele>563.739</ele>
        <time>2018-08-01T13:38:16Z</time>
      </trkpt>
      <trkpt lat="47.21783" lon="6.91228">
        <ele>564.094</ele>
        <time>2018-08-01T13:38:18Z</time>
      </trkpt>
      <trkpt lat="47.2178" lon="6.91222">
        <ele>564.128</ele>
        <time>2018-08-01T13:38:19Z</time>
      </trkpt>
      <trkpt lat="47.21779" lon="6.91214">
        <ele>564.23</ele>
        <time>2018-08-01T13:38:20Z</time>
      </trkpt>
      <trkpt lat="47.21778" lon="6.91202">
        <ele>564.566</ele>
        <time>2018-08-01T13:38:22Z</time>
      </trkpt>
      <trkpt lat="47.21777" lon="6.91194">
        <ele>564.683</ele>
        <time>2018-08-01T13:38:23Z</time>
      </trkpt>
      <trkpt lat="47.21773" lon="6.91187">
        <ele>564.718</ele>
        <time>2018-08-01T13:38:24Z</time>
      </trkpt>
      <trkpt lat="47.21772" lon="6.91179">
        <ele>564.817</ele>
        <time>2018-08-01T13:38:25Z</time>
      </trkpt>
      <trkpt lat="47.21771" lon="6.91171">
        <ele>564.886</ele>
        <time>2018-08-01T13:38:26Z</time>
      </trkpt>
      <trkpt lat="47.21769" lon="6.91164">
        <ele>564.86</ele>
        <time>2018-08-01T13:38:27Z</time>
      </trkpt>
      <trkpt lat="47.21767" lon="6.91155">
        <ele>564.826</ele>
        <time>2018-08-01T13:38:28Z</time>
      </trkpt>
      <trkpt lat="47.21767" lon="6.91147">
        <ele>564.808</ele>
        <time>2018-08-01T13:38:29Z</time>
      </trkpt>
      <trkpt lat="47.21767" lon="6.91139">
        <ele>564.88</ele>
        <time>2018-08-01T13:38:30Z</time>
      </trkpt>
      <trkpt lat="47.21765" lon="6.91131">
        <ele>564.885</ele>
        <time>2018-08-01T13:38:31Z</time>
      </trkpt>
      <trkpt lat="47.21763" lon="6.91124">
        <ele>564.859</ele>
        <time>2018-08-01T13:38:32Z</time>
      </trkpt>
      <trkpt lat="47.21759" lon="6.91116">
        <ele>564.721</ele>
        <time>2018-08-01T13:38:33Z</time>
      </trkpt>
      <trkpt lat="47.21759" lon="6.91107">
        <ele>564.787</ele>
        <time>2018-08-01T13:38:34Z</time>
      </trkpt>
      <trkpt lat="47.21758" lon="6.91099">
        <ele>564.684</ele>
        <time>2018-08-01T13:38:35Z</time>
      </trkpt>
      <trkpt lat="47.21759" lon="6.9109">
        <ele>564.569</ele>
        <time>2018-08-01T13:38:36Z</time>
      </trkpt>
      <trkpt lat="47.21756" lon="6.91082">
        <ele>564.458</ele>
        <time>2018-08-01T13:38:37Z</time>
      </trkpt>
      <trkpt lat="47.21753" lon="6.91075">
        <ele>564.435</ele>
        <time>2018-08-01T13:38:38Z</time>
      </trkpt>
      <trkpt lat="47.21752" lon="6.91067">
        <ele>564.486</ele>
        <time>2018-08-01T13:38:39Z</time>
      </trkpt>
      <trkpt lat="47.21751" lon="6.91059">
        <ele>564.514</ele>
        <time>2018-08-01T13:38:40Z</time>
      </trkpt>
      <trkpt lat="47.2175" lon="6.91052">
        <ele>564.508</ele>
        <time>2018-08-01T13:38:41Z</time>
      </trkpt>
      <trkpt lat="47.21747" lon="6.91046">
        <ele>564.625</ele>
        <time>2018-08-01T13:38:42Z</time>
      </trkpt>
      <trkpt lat="47.21745" lon="6.91039">
        <ele>564.73</ele>
        <time>2018-08-01T13:38:43Z</time>
      </trkpt>
      <trkpt lat="47.21738" lon="6.91037">
        <ele>564.834</ele>
        <time>2018-08-01T13:38:44Z</time>
      </trkpt>
      <trkpt lat="47.21735" lon="6.91031">
        <ele>564.936</ele>
        <time>2018-08-01T13:38:45Z</time>
      </trkpt>
      <trkpt lat="47.2173" lon="6.91019">
        <ele>565.222</ele>
        <time>2018-08-01T13:38:47Z</time>
      </trkpt>
      <trkpt lat="47.21727" lon="6.91013">
        <ele>565.339</ele>
        <time>2018-08-01T13:38:48Z</time>
      </trkpt>
      <trkpt lat="47.21723" lon="6.91001">
        <ele>565.684</ele>
        <time>2018-08-01T13:38:50Z</time>
      </trkpt>
      <trkpt lat="47.21721" lon="6.90995">
        <ele>565.713</ele>
        <time>2018-08-01T13:38:51Z</time>
      </trkpt>
      <trkpt lat="47.2172" lon="6.90987">
        <ele>565.832</ele>
        <time>2018-08-01T13:38:52Z</time>
      </trkpt>
      <trkpt lat="47.21718" lon="6.90981">
        <ele>565.992</ele>
        <time>2018-08-01T13:38:53Z</time>
      </trkpt>
      <trkpt lat="47.21714" lon="6.90974">
        <ele>566.011</ele>
        <time>2018-08-01T13:38:54Z</time>
      </trkpt>
      <trkpt lat="47.21711" lon="6.90968">
        <ele>566.008</ele>
        <time>2018-08-01T13:38:55Z</time>
      </trkpt>
      <trkpt lat="47.21707" lon="6.90955">
        <ele>566.025</ele>
        <time>2018-08-01T13:38:57Z</time>
      </trkpt>
      <trkpt lat="47.21702" lon="6.9095">
        <ele>566.06</ele>
        <time>2018-08-01T13:38:58Z</time>
      </trkpt>
      <trkpt lat="47.217" lon="6.90944">
        <ele>566.034</ele>
        <time>2018-08-01T13:38:59Z</time>
      </trkpt>
      <trkpt lat="47.21696" lon="6.90937">
        <ele>566.096</ele>
        <time>2018-08-01T13:39:00Z</time>
      </trkpt>
      <trkpt lat="47.21693" lon="6.90931">
        <ele>566.132</ele>
        <time>2018-08-01T13:39:01Z</time>
      </trkpt>
      <trkpt lat="47.21689" lon="6.90921">
        <ele>566.329</ele>
        <time>2018-08-01T13:39:03Z</time>
      </trkpt>
      <trkpt lat="47.21684" lon="6.90909">
        <ele>566.624</ele>
        <time>2018-08-01T13:39:05Z</time>
      </trkpt>
      <trkpt lat="47.2168" lon="6.90904">
        <ele>566.783</ele>
        <time>2018-08-01T13:39:06Z</time>
      </trkpt>
      <trkpt lat="47.21677" lon="6.90899">
        <ele>566.844</ele>
        <time>2018-08-01T13:39:07Z</time>
      </trkpt>
      <trkpt lat="47.21673" lon="6.90894">
        <ele>566.805</ele>
        <time>2018-08-01T13:39:08Z</time>
      </trkpt>
      <trkpt lat="47.21667" lon="6.90889">
        <ele>566.815</ele>
        <time>2018-08-01T13:39:09Z</time>
      </trkpt>
      <trkpt lat="47.21662" lon="6.90885">
        <ele>566.808</ele>
        <time>2018-08-01T13:39:10Z</time>
      </trkpt>
      <trkpt lat="47.21656" lon="6.90878">
        <ele>566.786</ele>
        <time>2018-08-01T13:39:12Z</time>
      </trkpt>
      <trkpt lat="47.2165" lon="6.90868">
        <ele>566.631</ele>
        <time>2018-08-01T13:39:14Z</time>
      </trkpt>
      <trkpt lat="47.21642" lon="6.90862">
        <ele>566.495</ele>
        <time>2018-08-01T13:39:16Z</time>
      </trkpt>
      <trkpt lat="47.2164" lon="6.9085">
        <ele>566.027</ele>
        <time>2018-08-01T13:39:18Z</time>
      </trkpt>
      <trkpt lat="47.21634" lon="6.90843">
        <ele>565.733</ele>
        <time>2018-08-01T13:39:19Z</time>
      </trkpt>
      <trkpt lat="47.2163" lon="6.90836">
        <ele>565.45</ele>
        <time>2018-08-01T13:39:20Z</time>
      </trkpt>
      <trkpt lat="47.21626" lon="6.90828">
        <ele>565.085</ele>
        <time>2018-08-01T13:39:21Z</time>
      </trkpt>
      <trkpt lat="47.21618" lon="6.90822">
        <ele>564.874</ele>
        <time>2018-08-01T13:39:22Z</time>
      </trkpt>
      <trkpt lat="47.21612" lon="6.90816">
        <ele>564.628</ele>
        <time>2018-08-01T13:39:23Z</time>
      </trkpt>
      <trkpt lat="47.21604" lon="6.9081">
        <ele>564.389</ele>
        <time>2018-08-01T13:39:24Z</time>
      </trkpt>
      <trkpt lat="47.21597" lon="6.90807">
        <ele>564.017</ele>
        <time>2018-08-01T13:39:25Z</time>
      </trkpt>
      <trkpt lat="47.21589" lon="6.90805">
        <ele>563.808</ele>
        <time>2018-08-01T13:39:26Z</time>
      </trkpt>
      <trkpt lat="47.21584" lon="6.90804">
        <ele>563.624</ele>
        <time>2018-08-01T13:39:27Z</time>
      </trkpt>
      <trkpt lat="47.21575" lon="6.90802">
        <ele>563.339</ele>
        <time>2018-08-01T13:39:30Z</time>
      </trkpt>
      <trkpt lat="47.21569" lon="6.90801">
        <ele>563.333</ele>
        <time>2018-08-01T13:39:31Z</time>
      </trkpt>
      <trkpt lat="47.21562" lon="6.90798">
        <ele>563.425</ele>
        <time>2018-08-01T13:39:32Z</time>
      </trkpt>
      <trkpt lat="47.21554" lon="6.90791">
        <ele>563.641</ele>
        <time>2018-08-01T13:39:34Z</time>
      </trkpt>
      <trkpt lat="47.21548" lon="6.9079">
        <ele>563.688</ele>
        <time>2018-08-01T13:39:35Z</time>
      </trkpt>
      <trkpt lat="47.21538" lon="6.9079">
        <ele>564.073</ele>
        <time>2018-08-01T13:39:37Z</time>
      </trkpt>
      <trkpt lat="47.2153" lon="6.90785">
        <ele>564.132</ele>
        <time>2018-08-01T13:39:38Z</time>
      </trkpt>
      <trkpt lat="47.21525" lon="6.90784">
        <ele>564.232</ele>
        <time>2018-08-01T13:39:40Z</time>
      </trkpt>
      <trkpt lat="47.21516" lon="6.90779">
        <ele>564.292</ele>
        <time>2018-08-01T13:39:43Z</time>
      </trkpt>
      <trkpt lat="47.21509" lon="6.90772">
        <ele>564.111</ele>
        <time>2018-08-01T13:39:46Z</time>
      </trkpt>
      <trkpt lat="47.21505" lon="6.90763">
        <ele>564.208</ele>
        <time>2018-08-01T13:39:48Z</time>
      </trkpt>
      <trkpt lat="47.21501" lon="6.9076">
        <ele>564.265</ele>
        <time>2018-08-01T13:39:49Z</time>
      </trkpt>
      <trkpt lat="47.21494" lon="6.90752">
        <ele>564.09</ele>
        <time>2018-08-01T13:39:51Z</time>
      </trkpt>
      <trkpt lat="47.21486" lon="6.90748">
        <ele>563.964</ele>
        <time>2018-08-01T13:39:52Z</time>
      </trkpt>
      <trkpt lat="47.2148" lon="6.90744">
        <ele>563.666</ele>
        <time>2018-08-01T13:39:53Z</time>
      </trkpt>
      <trkpt lat="47.21475" lon="6.9074">
        <ele>563.442</ele>
        <time>2018-08-01T13:39:54Z</time>
      </trkpt>
      <trkpt lat="47.21472" lon="6.90736">
        <ele>563.339</ele>
        <time>2018-08-01T13:39:55Z</time>
      </trkpt>
      <trkpt lat="47.21466" lon="6.90734">
        <ele>563.284</ele>
        <time>2018-08-01T13:39:56Z</time>
      </trkpt>
      <trkpt lat="47.2146" lon="6.90733">
        <ele>563.143</ele>
        <time>2018-08-01T13:39:57Z</time>
      </trkpt>
      <trkpt lat="47.21452" lon="6.90734">
        <ele>563.044</ele>
        <time>2018-08-01T13:39:59Z</time>
      </trkpt>
      <trkpt lat="47.21445" lon="6.90731">
        <ele>563.005</ele>
        <time>2018-08-01T13:40:00Z</time>
      </trkpt>
      <trkpt lat="47.21436" lon="6.90729">
        <ele>563.015</ele>
        <time>2018-08-01T13:40:02Z</time>
      </trkpt>
      <trkpt lat="47.21429" lon="6.90727">
        <ele>563.108</ele>
        <time>2018-08-01T13:40:03Z</time>
      </trkpt>
      <trkpt lat="47.21424" lon="6.90723">
        <ele>563.266</ele>
        <time>2018-08-01T13:40:04Z</time>
      </trkpt>
      <trkpt lat="47.2142" lon="6.90721">
        <ele>563.341</ele>
        <time>2018-08-01T13:40:05Z</time>
      </trkpt>
      <trkpt lat="47.21413" lon="6.90714">
        <ele>563.525</ele>
        <time>2018-08-01T13:40:07Z</time>
      </trkpt>
      <trkpt lat="47.21409" lon="6.90711">
        <ele>563.627</ele>
        <time>2018-08-01T13:40:08Z</time>
      </trkpt>
      <trkpt lat="47.21405" lon="6.90707">
        <ele>563.753</ele>
        <time>2018-08-01T13:40:09Z</time>
      </trkpt>
      <trkpt lat="47.21398" lon="6.90703">
        <ele>563.95</ele>
        <time>2018-08-01T13:40:11Z</time>
      </trkpt>
      <trkpt lat="47.21391" lon="6.90699">
        <ele>564.385</ele>
        <time>2018-08-01T13:40:13Z</time>
      </trkpt>
      <trkpt lat="47.21385" lon="6.90698">
        <ele>564.474</ele>
        <time>2018-08-01T13:40:15Z</time>
      </trkpt>
      <trkpt lat="47.21373" lon="6.90693">
        <ele>564.563</ele>
        <time>2018-08-01T13:40:17Z</time>
      </trkpt>
      <trkpt lat="47.2137" lon="6.90686">
        <ele>564.544</ele>
        <time>2018-08-01T13:40:18Z</time>
      </trkpt>
      <trkpt lat="47.21364" lon="6.9068">
        <ele>564.518</ele>
        <time>2018-08-01T13:40:20Z</time>
      </trkpt>
      <trkpt lat="47.21358" lon="6.90673">
        <ele>564.308</ele>
        <time>2018-08-01T13:40:22Z</time>
      </trkpt>
      <trkpt lat="47.21357" lon="6.90665">
        <ele>564.348</ele>
        <time>2018-08-01T13:40:23Z</time>
      </trkpt>
      <trkpt lat="47.2135" lon="6.90654">
        <ele>564.553</ele>
        <time>2018-08-01T13:40:25Z</time>
      </trkpt>
      <trkpt lat="47.21347" lon="6.90647">
        <ele>564.777</ele>
        <time>2018-08-01T13:40:26Z</time>
      </trkpt>
      <trkpt lat="47.21342" lon="6.90643">
        <ele>564.869</ele>
        <time>2018-08-01T13:40:27Z</time>
      </trkpt>
      <trkpt lat="47.21337" lon="6.90633">
        <ele>564.915</ele>
        <time>2018-08-01T13:40:29Z</time>
      </trkpt>
      <trkpt lat="47.21336" lon="6.90625">
        <ele>564.972</ele>
        <time>2018-08-01T13:40:30Z</time>
      </trkpt>
      <trkpt lat="47.21333" lon="6.90614">
        <ele>564.867</ele>
        <time>2018-08-01T13:40:31Z</time>
      </trkpt>
      <trkpt lat="47.21332" lon="6.90607">
        <ele>564.786</ele>
        <time>2018-08-01T13:40:32Z</time>
      </trkpt>
      <trkpt lat="47.2133" lon="6.906">
        <ele>564.624</ele>
        <time>2018-08-01T13:40:33Z</time>
      </trkpt>
      <trkpt lat="47.2133" lon="6.90592">
        <ele>564.404</ele>
        <time>2018-08-01T13:40:34Z</time>
      </trkpt>
      <trkpt lat="47.21329" lon="6.90583">
        <ele>564.114</ele>
        <time>2018-08-01T13:40:35Z</time>
      </trkpt>
      <trkpt lat="47.21328" lon="6.90575">
        <ele>563.808</ele>
        <time>2018-08-01T13:40:36Z</time>
      </trkpt>
      <trkpt lat="47.21324" lon="6.90567">
        <ele>563.524</ele>
        <time>2018-08-01T13:40:37Z</time>
      </trkpt>
      <trkpt lat="47.21321" lon="6.90558">
        <ele>563.189</ele>
        <time>2018-08-01T13:40:38Z</time>
      </trkpt>
      <trkpt lat="47.2132" lon="6.90549">
        <ele>562.753</ele>
        <time>2018-08-01T13:40:39Z</time>
      </trkpt>
      <trkpt lat="47.21317" lon="6.90541">
        <ele>562.345</ele>
        <time>2018-08-01T13:40:40Z</time>
      </trkpt>
      <trkpt lat="47.21314" lon="6.90532">
        <ele>561.911</ele>
        <time>2018-08-01T13:40:41Z</time>
      </trkpt>
      <trkpt lat="47.21311" lon="6.90523">
        <ele>561.558</ele>
        <time>2018-08-01T13:40:42Z</time>
      </trkpt>
      <trkpt lat="47.21307" lon="6.90516">
        <ele>561.163</ele>
        <time>2018-08-01T13:40:43Z</time>
      </trkpt>
      <trkpt lat="47.21304" lon="6.90507">
        <ele>560.952</ele>
        <time>2018-08-01T13:40:44Z</time>
      </trkpt>
      <trkpt lat="47.21301" lon="6.90499">
        <ele>560.814</ele>
        <time>2018-08-01T13:40:45Z</time>
      </trkpt>
      <trkpt lat="47.21297" lon="6.90492">
        <ele>560.754</ele>
        <time>2018-08-01T13:40:46Z</time>
      </trkpt>
      <trkpt lat="47.21294" lon="6.90484">
        <ele>560.709</ele>
        <time>2018-08-01T13:40:47Z</time>
      </trkpt>
      <trkpt lat="47.2129" lon="6.90478">
        <ele>560.708</ele>
        <time>2018-08-01T13:40:48Z</time>
      </trkpt>
      <trkpt lat="47.21287" lon="6.9047">
        <ele>560.863</ele>
        <time>2018-08-01T13:40:49Z</time>
      </trkpt>
      <trkpt lat="47.21284" lon="6.90463">
        <ele>560.878</ele>
        <time>2018-08-01T13:40:50Z</time>
      </trkpt>
      <trkpt lat="47.21279" lon="6.90457">
        <ele>560.822</ele>
        <time>2018-08-01T13:40:51Z</time>
      </trkpt>
      <trkpt lat="47.21275" lon="6.9045">
        <ele>560.994</ele>
        <time>2018-08-01T13:40:52Z</time>
      </trkpt>
      <trkpt lat="47.21273" lon="6.90442">
        <ele>560.97</ele>
        <time>2018-08-01T13:40:53Z</time>
      </trkpt>
      <trkpt lat="47.21272" lon="6.90435">
        <ele>560.827</ele>
        <time>2018-08-01T13:40:54Z</time>
      </trkpt>
      <trkpt lat="47.21269" lon="6.90428">
        <ele>560.842</ele>
        <time>2018-08-01T13:40:55Z</time>
      </trkpt>
      <trkpt lat="47.21267" lon="6.9042">
        <ele>560.711</ele>
        <time>2018-08-01T13:40:56Z</time>
      </trkpt>
      <trkpt lat="47.21262" lon="6.90414">
        <ele>560.717</ele>
        <time>2018-08-01T13:40:57Z</time>
      </trkpt>
      <trkpt lat="47.21261" lon="6.90405">
        <ele>560.787</ele>
        <time>2018-08-01T13:40:58Z</time>
      </trkpt>
      <trkpt lat="47.21258" lon="6.90398">
        <ele>560.715</ele>
        <time>2018-08-01T13:40:59Z</time>
      </trkpt>
      <trkpt lat="47.21257" lon="6.90389">
        <ele>560.808</ele>
        <time>2018-08-01T13:41:00Z</time>
      </trkpt>
      <trkpt lat="47.21257" lon="6.9038">
        <ele>560.883</ele>
        <time>2018-08-01T13:41:01Z</time>
      </trkpt>
      <trkpt lat="47.21256" lon="6.90373">
        <ele>560.888</ele>
        <time>2018-08-01T13:41:02Z</time>
      </trkpt>
      <trkpt lat="47.21254" lon="6.90365">
        <ele>560.982</ele>
        <time>2018-08-01T13:41:03Z</time>
      </trkpt>
      <trkpt lat="47.21252" lon="6.90357">
        <ele>560.984</ele>
        <time>2018-08-01T13:41:04Z</time>
      </trkpt>
      <trkpt lat="47.2125" lon="6.90349">
        <ele>561.03</ele>
        <time>2018-08-01T13:41:05Z</time>
      </trkpt>
      <trkpt lat="47.21247" lon="6.90336">
        <ele>561.587</ele>
        <time>2018-08-01T13:41:07Z</time>
      </trkpt>
      <trkpt lat="47.21247" lon="6.90328">
        <ele>561.612</ele>
        <time>2018-08-01T13:41:08Z</time>
      </trkpt>
      <trkpt lat="47.21246" lon="6.9032">
        <ele>561.741</ele>
        <time>2018-08-01T13:41:09Z</time>
      </trkpt>
      <trkpt lat="47.21249" lon="6.9031">
        <ele>561.754</ele>
        <time>2018-08-01T13:41:10Z</time>
      </trkpt>
      <trkpt lat="47.21248" lon="6.90301">
        <ele>561.756</ele>
        <time>2018-08-01T13:41:11Z</time>
      </trkpt>
      <trkpt lat="47.21244" lon="6.90293">
        <ele>561.611</ele>
        <time>2018-08-01T13:41:12Z</time>
      </trkpt>
      <trkpt lat="47.21244" lon="6.90283">
        <ele>561.608</ele>
        <time>2018-08-01T13:41:13Z</time>
      </trkpt>
      <trkpt lat="47.21242" lon="6.90275">
        <ele>561.667</ele>
        <time>2018-08-01T13:41:14Z</time>
      </trkpt>
      <trkpt lat="47.2124" lon="6.90266">
        <ele>561.662</ele>
        <time>2018-08-01T13:41:15Z</time>
      </trkpt>
      <trkpt lat="47.21239" lon="6.90257">
        <ele>561.676</ele>
        <time>2018-08-01T13:41:16Z</time>
      </trkpt>
      <trkpt lat="47.21235" lon="6.90249">
        <ele>561.658</ele>
        <time>2018-08-01T13:41:17Z</time>
      </trkpt>
      <trkpt lat="47.21233" lon="6.90242">
        <ele>561.774</ele>
        <time>2018-08-01T13:41:18Z</time>
      </trkpt>
      <trkpt lat="47.21231" lon="6.90235">
        <ele>561.721</ele>
        <time>2018-08-01T13:41:19Z</time>
      </trkpt>
      <trkpt lat="47.21223" lon="6.90225">
        <ele>561.856</ele>
        <time>2018-08-01T13:41:21Z</time>
      </trkpt>
      <trkpt lat="47.2122" lon="6.90218">
        <ele>561.945</ele>
        <time>2018-08-01T13:41:22Z</time>
      </trkpt>
      <trkpt lat="47.21216" lon="6.90211">
        <ele>562.047</ele>
        <time>2018-08-01T13:41:23Z</time>
      </trkpt>
      <trkpt lat="47.21214" lon="6.90203">
        <ele>562.229</ele>
        <time>2018-08-01T13:41:24Z</time>
      </trkpt>
      <trkpt lat="47.21211" lon="6.90196">
        <ele>562.221</ele>
        <time>2018-08-01T13:41:25Z</time>
      </trkpt>
      <trkpt lat="47.21209" lon="6.90187">
        <ele>562.508</ele>
        <time>2018-08-01T13:41:26Z</time>
      </trkpt>
      <trkpt lat="47.21206" lon="6.9018">
        <ele>562.656</ele>
        <time>2018-08-01T13:41:27Z</time>
      </trkpt>
      <trkpt lat="47.21198" lon="6.90172">
        <ele>562.661</ele>
        <time>2018-08-01T13:41:29Z</time>
      </trkpt>
      <trkpt lat="47.21195" lon="6.90165">
        <ele>562.695</ele>
        <time>2018-08-01T13:41:30Z</time>
      </trkpt>
      <trkpt lat="47.21192" lon="6.9016">
        <ele>562.557</ele>
        <time>2018-08-01T13:41:31Z</time>
      </trkpt>
      <trkpt lat="47.21189" lon="6.90154">
        <ele>562.553</ele>
        <time>2018-08-01T13:41:32Z</time>
      </trkpt>
      <trkpt lat="47.21191" lon="6.90148">
        <ele>562.68</ele>
        <time>2018-08-01T13:41:33Z</time>
      </trkpt>
      <trkpt lat="47.21185" lon="6.90141">
        <ele>562.835</ele>
        <time>2018-08-01T13:41:35Z</time>
      </trkpt>
      <trkpt lat="47.21183" lon="6.90134">
        <ele>563.254</ele>
        <time>2018-08-01T13:41:37Z</time>
      </trkpt>
      <trkpt lat="47.21178" lon="6.90129">
        <ele>563.485</ele>
        <time>2018-08-01T13:41:38Z</time>
      </trkpt>
      <trkpt lat="47.21176" lon="6.90119">
        <ele>563.889</ele>
        <time>2018-08-01T13:41:40Z</time>
      </trkpt>
      <trkpt lat="47.21177" lon="6.9011">
        <ele>563.917</ele>
        <time>2018-08-01T13:41:41Z</time>
      </trkpt>
      <trkpt lat="47.21177" lon="6.90102">
        <ele>564.008</ele>
        <time>2018-08-01T13:41:42Z</time>
      </trkpt>
      <trkpt lat="47.21175" lon="6.90092">
        <ele>564.26</ele>
        <time>2018-08-01T13:41:44Z</time>
      </trkpt>
      <trkpt lat="47.21171" lon="6.90086">
        <ele>564.245</ele>
        <time>2018-08-01T13:41:46Z</time>
      </trkpt>
      <trkpt lat="47.21162" lon="6.90081">
        <ele>564.359</ele>
        <time>2018-08-01T13:41:48Z</time>
      </trkpt>
      <trkpt lat="47.21158" lon="6.90079">
        <ele>564.331</ele>
        <time>2018-08-01T13:41:49Z</time>
      </trkpt>
      <trkpt lat="47.21152" lon="6.90077">
        <ele>564.357</ele>
        <time>2018-08-01T13:41:51Z</time>
      </trkpt>
      <trkpt lat="47.21146" lon="6.90075">
        <ele>564.144</ele>
        <time>2018-08-01T13:41:54Z</time>
      </trkpt>
      <trkpt lat="47.2114" lon="6.9007">
        <ele>564.119</ele>
        <time>2018-08-01T13:41:56Z</time>
      </trkpt>
      <trkpt lat="47.21133" lon="6.90065">
        <ele>564.428</ele>
        <time>2018-08-01T13:41:58Z</time>
      </trkpt>
      <trkpt lat="47.21126" lon="6.90061">
        <ele>564.886</ele>
        <time>2018-08-01T13:42:00Z</time>
      </trkpt>
      <trkpt lat="47.2112" lon="6.90057">
        <ele>565.36</ele>
        <time>2018-08-01T13:42:02Z</time>
      </trkpt>
      <trkpt lat="47.21115" lon="6.90051">
        <ele>565.926</ele>
        <time>2018-08-01T13:42:04Z</time>
      </trkpt>
      <trkpt lat="47.21112" lon="6.90043">
        <ele>566.408</ele>
        <time>2018-08-01T13:42:06Z</time>
      </trkpt>
      <trkpt lat="47.21108" lon="6.90034">
        <ele>566.96</ele>
        <time>2018-08-01T13:42:08Z</time>
      </trkpt>
      <trkpt lat="47.21104" lon="6.90025">
        <ele>567.355</ele>
        <time>2018-08-01T13:42:10Z</time>
      </trkpt>
      <trkpt lat="47.21099" lon="6.90015">
        <ele>567.479</ele>
        <time>2018-08-01T13:42:12Z</time>
      </trkpt>
      <trkpt lat="47.21094" lon="6.90006">
        <ele>567.471</ele>
        <time>2018-08-01T13:42:14Z</time>
      </trkpt>
      <trkpt lat="47.2109" lon="6.89997">
        <ele>567.357</ele>
        <time>2018-08-01T13:42:16Z</time>
      </trkpt>
      <trkpt lat="47.21089" lon="6.89989">
        <ele>567.394</ele>
        <time>2018-08-01T13:42:18Z</time>
      </trkpt>
      <trkpt lat="47.21084" lon="6.8998">
        <ele>567.379</ele>
        <time>2018-08-01T13:42:20Z</time>
      </trkpt>
      <trkpt lat="47.2108" lon="6.89976">
        <ele>567.358</ele>
        <time>2018-08-01T13:42:21Z</time>
      </trkpt>
      <trkpt lat="47.21069" lon="6.89975">
        <ele>567.363</ele>
        <time>2018-08-01T13:42:22Z</time>
      </trkpt>
      <trkpt lat="47.21063" lon="6.89972">
        <ele>567.344</ele>
        <time>2018-08-01T13:42:23Z</time>
      </trkpt>
      <trkpt lat="47.21058" lon="6.89968">
        <ele>567.318</ele>
        <time>2018-08-01T13:42:24Z</time>
      </trkpt>
      <trkpt lat="47.21055" lon="6.89963">
        <ele>567.208</ele>
        <time>2018-08-01T13:42:25Z</time>
      </trkpt>
      <trkpt lat="47.2105" lon="6.8996">
        <ele>567.128</ele>
        <time>2018-08-01T13:42:26Z</time>
      </trkpt>
      <trkpt lat="47.21046" lon="6.89955">
        <ele>567.043</ele>
        <time>2018-08-01T13:42:27Z</time>
      </trkpt>
      <trkpt lat="47.2104" lon="6.89952">
        <ele>566.927</ele>
        <time>2018-08-01T13:42:28Z</time>
      </trkpt>
      <trkpt lat="47.21035" lon="6.89943">
        <ele>566.549</ele>
        <time>2018-08-01T13:42:30Z</time>
      </trkpt>
      <trkpt lat="47.2103" lon="6.89939">
        <ele>566.315</ele>
        <time>2018-08-01T13:42:31Z</time>
      </trkpt>
      <trkpt lat="47.21026" lon="6.89936">
        <ele>566.242</ele>
        <time>2018-08-01T13:42:32Z</time>
      </trkpt>
      <trkpt lat="47.21021" lon="6.89934">
        <ele>566.237</ele>
        <time>2018-08-01T13:42:34Z</time>
      </trkpt>
      <trkpt lat="47.21018" lon="6.89928">
        <ele>566.596</ele>
        <time>2018-08-01T13:42:36Z</time>
      </trkpt>
      <trkpt lat="47.21012" lon="6.8992">
        <ele>567.022</ele>
        <time>2018-08-01T13:42:38Z</time>
      </trkpt>
      <trkpt lat="47.21008" lon="6.89915">
        <ele>567.262</ele>
        <time>2018-08-01T13:42:39Z</time>
      </trkpt>
      <trkpt lat="47.21002" lon="6.89905">
        <ele>567.808</ele>
        <time>2018-08-01T13:42:41Z</time>
      </trkpt>
      <trkpt lat="47.20997" lon="6.89896">
        <ele>568.308</ele>
        <time>2018-08-01T13:42:43Z</time>
      </trkpt>
      <trkpt lat="47.20992" lon="6.8989">
        <ele>568.784</ele>
        <time>2018-08-01T13:42:45Z</time>
      </trkpt>
      <trkpt lat="47.20988" lon="6.89882">
        <ele>569.189</ele>
        <time>2018-08-01T13:42:48Z</time>
      </trkpt>
      <trkpt lat="47.20983" lon="6.89876">
        <ele>569.943</ele>
        <time>2018-08-01T13:42:51Z</time>
      </trkpt>
      <trkpt lat="47.20979" lon="6.89869">
        <ele>570.675</ele>
        <time>2018-08-01T13:42:54Z</time>
      </trkpt>
      <trkpt lat="47.20976" lon="6.89865">
        <ele>570.961</ele>
        <time>2018-08-01T13:42:56Z</time>
      </trkpt>
      <trkpt lat="47.20975" lon="6.89855">
        <ele>570.948</ele>
        <time>2018-08-01T13:42:57Z</time>
      </trkpt>
      <trkpt lat="47.20974" lon="6.89848">
        <ele>570.873</ele>
        <time>2018-08-01T13:42:58Z</time>
      </trkpt>
      <trkpt lat="47.20969" lon="6.89842">
        <ele>570.782</ele>
        <time>2018-08-01T13:42:59Z</time>
      </trkpt>
      <trkpt lat="47.20964" lon="6.89837">
        <ele>570.666</ele>
        <time>2018-08-01T13:43:00Z</time>
      </trkpt>
      <trkpt lat="47.20961" lon="6.89832">
        <ele>570.729</ele>
        <time>2018-08-01T13:43:04Z</time>
      </trkpt>
      <trkpt lat="47.20955" lon="6.89829">
        <ele>571.621</ele>
        <time>2018-08-01T13:43:07Z</time>
      </trkpt>
      <trkpt lat="47.2095" lon="6.89826">
        <ele>572.308</ele>
        <time>2018-08-01T13:43:09Z</time>
      </trkpt>
      <trkpt lat="47.20944" lon="6.89822">
        <ele>573.288</ele>
        <time>2018-08-01T13:43:12Z</time>
      </trkpt>
      <trkpt lat="47.20943" lon="6.89815">
        <ele>574.073</ele>
        <time>2018-08-01T13:43:15Z</time>
      </trkpt>
      <trkpt lat="47.20941" lon="6.89809">
        <ele>574.267</ele>
        <time>2018-08-01T13:43:17Z</time>
      </trkpt>
      <trkpt lat="47.20938" lon="6.89803">
        <ele>574.549</ele>
        <time>2018-08-01T13:43:19Z</time>
      </trkpt>
      <trkpt lat="47.20935" lon="6.89797">
        <ele>574.785</ele>
        <time>2018-08-01T13:43:21Z</time>
      </trkpt>
      <trkpt lat="47.20931" lon="6.89789">
        <ele>575.132</ele>
        <time>2018-08-01T13:43:24Z</time>
      </trkpt>
      <trkpt lat="47.2093" lon="6.89782">
        <ele>575.447</ele>
        <time>2018-08-01T13:43:26Z</time>
      </trkpt>
      <trkpt lat="47.20929" lon="6.89776">
        <ele>575.836</ele>
        <time>2018-08-01T13:43:28Z</time>
      </trkpt>
      <trkpt lat="47.20926" lon="6.89767">
        <ele>576.627</ele>
        <time>2018-08-01T13:43:31Z</time>
      </trkpt>
      <trkpt lat="47.20921" lon="6.89763">
        <ele>577.268</ele>
        <time>2018-08-01T13:43:33Z</time>
      </trkpt>
      <trkpt lat="47.20916" lon="6.89759">
        <ele>577.814</ele>
        <time>2018-08-01T13:43:35Z</time>
      </trkpt>
      <trkpt lat="47.20912" lon="6.89757">
        <ele>578.508</ele>
        <time>2018-08-01T13:43:37Z</time>
      </trkpt>
      <trkpt lat="47.20906" lon="6.89752">
        <ele>580.064</ele>
        <time>2018-08-01T13:43:41Z</time>
      </trkpt>
      <trkpt lat="47.20901" lon="6.89748">
        <ele>580.959</ele>
        <time>2018-08-01T13:43:44Z</time>
      </trkpt>
      <trkpt lat="47.20897" lon="6.89746">
        <ele>581.223</ele>
        <time>2018-08-01T13:43:46Z</time>
      </trkpt>
      <trkpt lat="47.20891" lon="6.89741">
        <ele>582.685</ele>
        <time>2018-08-01T13:43:50Z</time>
      </trkpt>
      <trkpt lat="47.20889" lon="6.89734">
        <ele>584.521</ele>
        <time>2018-08-01T13:43:55Z</time>
      </trkpt>
      <trkpt lat="47.20886" lon="6.89728">
        <ele>585.438</ele>
        <time>2018-08-01T13:43:58Z</time>
      </trkpt>
      <trkpt lat="47.20881" lon="6.89723">
        <ele>586.673</ele>
        <time>2018-08-01T13:44:02Z</time>
      </trkpt>
      <trkpt lat="47.20876" lon="6.8972">
        <ele>587.682</ele>
        <time>2018-08-01T13:44:05Z</time>
      </trkpt>
      <trkpt lat="47.20872" lon="6.89717">
        <ele>588.353</ele>
        <time>2018-08-01T13:44:07Z</time>
      </trkpt>
      <trkpt lat="47.20868" lon="6.8971">
        <ele>589.204</ele>
        <time>2018-08-01T13:44:10Z</time>
      </trkpt>
      <trkpt lat="47.20864" lon="6.89705">
        <ele>589.514</ele>
        <time>2018-08-01T13:44:12Z</time>
      </trkpt>
      <trkpt lat="47.20861" lon="6.89698">
        <ele>590.408</ele>
        <time>2018-08-01T13:44:15Z</time>
      </trkpt>
      <trkpt lat="47.20858" lon="6.89691">
        <ele>591.667</ele>
        <time>2018-08-01T13:44:19Z</time>
      </trkpt>
      <trkpt lat="47.20851" lon="6.89689">
        <ele>592.472</ele>
        <time>2018-08-01T13:44:22Z</time>
      </trkpt>
      <trkpt lat="47.20847" lon="6.89686">
        <ele>592.966</ele>
        <time>2018-08-01T13:44:24Z</time>
      </trkpt>
      <trkpt lat="47.20844" lon="6.89682">
        <ele>593.348</ele>
        <time>2018-08-01T13:44:26Z</time>
      </trkpt>
      <trkpt lat="47.20839" lon="6.89674">
        <ele>593.914</ele>
        <time>2018-08-01T13:44:29Z</time>
      </trkpt>
      <trkpt lat="47.20834" lon="6.89671">
        <ele>594.441</ele>
        <time>2018-08-01T13:44:31Z</time>
      </trkpt>
      <trkpt lat="47.20829" lon="6.89667">
        <ele>594.936</ele>
        <time>2018-08-01T13:44:33Z</time>
      </trkpt>
      <trkpt lat="47.20824" lon="6.89663">
        <ele>595.595</ele>
        <time>2018-08-01T13:44:35Z</time>
      </trkpt>
      <trkpt lat="47.20819" lon="6.89658">
        <ele>596.235</ele>
        <time>2018-08-01T13:44:37Z</time>
      </trkpt>
      <trkpt lat="47.20816" lon="6.89653">
        <ele>596.986</ele>
        <time>2018-08-01T13:44:39Z</time>
      </trkpt>
      <trkpt lat="47.20812" lon="6.89645">
        <ele>597.514</ele>
        <time>2018-08-01T13:44:42Z</time>
      </trkpt>
      <trkpt lat="47.20809" lon="6.89637">
        <ele>598.508</ele>
        <time>2018-08-01T13:44:45Z</time>
      </trkpt>
      <trkpt lat="47.20811" lon="6.89628">
        <ele>599.685</ele>
        <time>2018-08-01T13:44:48Z</time>
      </trkpt>
      <trkpt lat="47.20812" lon="6.8962">
        <ele>600.76</ele>
        <time>2018-08-01T13:44:51Z</time>
      </trkpt>
      <trkpt lat="47.20813" lon="6.89611">
        <ele>601.834</ele>
        <time>2018-08-01T13:44:54Z</time>
      </trkpt>
      <trkpt lat="47.20815" lon="6.89603">
        <ele>602.426</ele>
        <time>2018-08-01T13:44:56Z</time>
      </trkpt>
      <trkpt lat="47.20817" lon="6.89593">
        <ele>603.452</ele>
        <time>2018-08-01T13:44:59Z</time>
      </trkpt>
      <trkpt lat="47.20813" lon="6.89588">
        <ele>604.169</ele>
        <time>2018-08-01T13:45:01Z</time>
      </trkpt>
      <trkpt lat="47.20808" lon="6.89584">
        <ele>604.924</ele>
        <time>2018-08-01T13:45:03Z</time>
      </trkpt>
      <trkpt lat="47.20805" lon="6.89577">
        <ele>606.523</ele>
        <time>2018-08-01T13:45:07Z</time>
      </trkpt>
      <trkpt lat="47.20803" lon="6.89571">
        <ele>607.344</ele>
        <time>2018-08-01T13:45:10Z</time>
      </trkpt>
      <trkpt lat="47.208" lon="6.89564">
        <ele>608.405</ele>
        <time>2018-08-01T13:45:13Z</time>
      </trkpt>
      <trkpt lat="47.20796" lon="6.89558">
        <ele>609.415</ele>
        <time>2018-08-01T13:45:16Z</time>
      </trkpt>
      <trkpt lat="47.20792" lon="6.89554">
        <ele>610.008</ele>
        <time>2018-08-01T13:45:18Z</time>
      </trkpt>
      <trkpt lat="47.20787" lon="6.8955">
        <ele>610.666</ele>
        <time>2018-08-01T13:45:20Z</time>
      </trkpt>
      <trkpt lat="47.20784" lon="6.89545">
        <ele>611.271</ele>
        <time>2018-08-01T13:45:22Z</time>
      </trkpt>
      <trkpt lat="47.20782" lon="6.89539">
        <ele>612.165</ele>
        <time>2018-08-01T13:45:25Z</time>
      </trkpt>
      <trkpt lat="47.20779" lon="6.89532">
        <ele>613.157</ele>
        <time>2018-08-01T13:45:28Z</time>
      </trkpt>
      <trkpt lat="47.20777" lon="6.89526">
        <ele>613.743</ele>
        <time>2018-08-01T13:45:30Z</time>
      </trkpt>
      <trkpt lat="47.20774" lon="6.89521">
        <ele>614.48</ele>
        <time>2018-08-01T13:45:32Z</time>
      </trkpt>
      <trkpt lat="47.2077" lon="6.89513">
        <ele>615.415</ele>
        <time>2018-08-01T13:45:35Z</time>
      </trkpt>
      <trkpt lat="47.20767" lon="6.89508">
        <ele>615.844</ele>
        <time>2018-08-01T13:45:37Z</time>
      </trkpt>
      <trkpt lat="47.20763" lon="6.89503">
        <ele>616.557</ele>
        <time>2018-08-01T13:45:39Z</time>
      </trkpt>
      <trkpt lat="47.20758" lon="6.89499">
        <ele>617.5</ele>
        <time>2018-08-01T13:45:42Z</time>
      </trkpt>
      <trkpt lat="47.20753" lon="6.89495">
        <ele>618.62</ele>
        <time>2018-08-01T13:45:45Z</time>
      </trkpt>
      <trkpt lat="47.20749" lon="6.8949">
        <ele>620.008</ele>
        <time>2018-08-01T13:45:49Z</time>
      </trkpt>
      <trkpt lat="47.20744" lon="6.89484">
        <ele>621.257</ele>
        <time>2018-08-01T13:45:52Z</time>
      </trkpt>
      <trkpt lat="47.20741" lon="6.89479">
        <ele>621.952</ele>
        <time>2018-08-01T13:45:54Z</time>
      </trkpt>
      <trkpt lat="47.20737" lon="6.89475">
        <ele>622.656</ele>
        <time>2018-08-01T13:45:56Z</time>
      </trkpt>
      <trkpt lat="47.20733" lon="6.89472">
        <ele>623.328</ele>
        <time>2018-08-01T13:45:58Z</time>
      </trkpt>
      <trkpt lat="47.20727" lon="6.89468">
        <ele>624.454</ele>
        <time>2018-08-01T13:46:01Z</time>
      </trkpt>
      <trkpt lat="47.20722" lon="6.89464">
        <ele>625.121</ele>
        <time>2018-08-01T13:46:04Z</time>
      </trkpt>
      <trkpt lat="47.20717" lon="6.8946">
        <ele>625.986</ele>
        <time>2018-08-01T13:46:07Z</time>
      </trkpt>
      <trkpt lat="47.20711" lon="6.89457">
        <ele>626.735</ele>
        <time>2018-08-01T13:46:10Z</time>
      </trkpt>
      <trkpt lat="47.20705" lon="6.89454">
        <ele>627.657</ele>
        <time>2018-08-01T13:46:13Z</time>
      </trkpt>
      <trkpt lat="47.20701" lon="6.89451">
        <ele>628.3</ele>
        <time>2018-08-01T13:46:15Z</time>
      </trkpt>
      <trkpt lat="47.20696" lon="6.89447">
        <ele>629.02</ele>
        <time>2018-08-01T13:46:17Z</time>
      </trkpt>
      <trkpt lat="47.20691" lon="6.89442">
        <ele>629.808</ele>
        <time>2018-08-01T13:46:20Z</time>
      </trkpt>
      <trkpt lat="47.20687" lon="6.89438">
        <ele>630.247</ele>
        <time>2018-08-01T13:46:23Z</time>
      </trkpt>
      <trkpt lat="47.20683" lon="6.89432">
        <ele>630.442</ele>
        <time>2018-08-01T13:46:26Z</time>
      </trkpt>
      <trkpt lat="47.2068" lon="6.89427">
        <ele>630.466</ele>
        <time>2018-08-01T13:46:29Z</time>
      </trkpt>
      <trkpt lat="47.20676" lon="6.89422">
        <ele>630.468</ele>
        <time>2018-08-01T13:46:33Z</time>
      </trkpt>
      <trkpt lat="47.20672" lon="6.89418">
        <ele>630.474</ele>
        <time>2018-08-01T13:46:35Z</time>
      </trkpt>
      <trkpt lat="47.20667" lon="6.89415">
        <ele>630.581</ele>
        <time>2018-08-01T13:46:37Z</time>
      </trkpt>
      <trkpt lat="47.20664" lon="6.89408">
        <ele>630.516</ele>
        <time>2018-08-01T13:46:42Z</time>
      </trkpt>
      <trkpt lat="47.20659" lon="6.89401">
        <ele>630.545</ele>
        <time>2018-08-01T13:46:45Z</time>
      </trkpt>
      <trkpt lat="47.20656" lon="6.89397">
        <ele>630.547</ele>
        <time>2018-08-01T13:46:47Z</time>
      </trkpt>
      <trkpt lat="47.20652" lon="6.89389">
        <ele>630.729</ele>
        <time>2018-08-01T13:46:50Z</time>
      </trkpt>
      <trkpt lat="47.20648" lon="6.89383">
        <ele>630.921</ele>
        <time>2018-08-01T13:46:52Z</time>
      </trkpt>
      <trkpt lat="47.20644" lon="6.89377">
        <ele>631.008</ele>
        <time>2018-08-01T13:46:54Z</time>
      </trkpt>
      <trkpt lat="47.2064" lon="6.89371">
        <ele>631.186</ele>
        <time>2018-08-01T13:46:56Z</time>
      </trkpt>
      <trkpt lat="47.20637" lon="6.89365">
        <ele>631.121</ele>
        <time>2018-08-01T13:46:58Z</time>
      </trkpt>
      <trkpt lat="47.20634" lon="6.89358">
        <ele>631.285</ele>
        <time>2018-08-01T13:47:00Z</time>
      </trkpt>
      <trkpt lat="47.2063" lon="6.89353">
        <ele>631.347</ele>
        <time>2018-08-01T13:47:02Z</time>
      </trkpt>
      <trkpt lat="47.20626" lon="6.89347">
        <ele>631.373</ele>
        <time>2018-08-01T13:47:04Z</time>
      </trkpt>
      <trkpt lat="47.20623" lon="6.89341">
        <ele>631.38</ele>
        <time>2018-08-01T13:47:06Z</time>
      </trkpt>
      <trkpt lat="47.20619" lon="6.89334">
        <ele>631.385</ele>
        <time>2018-08-01T13:47:08Z</time>
      </trkpt>
      <trkpt lat="47.20615" lon="6.89327">
        <ele>631.364</ele>
        <time>2018-08-01T13:47:10Z</time>
      </trkpt>
      <trkpt lat="47.2061" lon="6.89318">
        <ele>631.393</ele>
        <time>2018-08-01T13:47:12Z</time>
      </trkpt>
      <trkpt lat="47.20606" lon="6.89311">
        <ele>631.365</ele>
        <time>2018-08-01T13:47:14Z</time>
      </trkpt>
      <trkpt lat="47.20605" lon="6.89304">
        <ele>631.321</ele>
        <time>2018-08-01T13:47:16Z</time>
      </trkpt>
      <trkpt lat="47.20603" lon="6.89296">
        <ele>631.208</ele>
        <time>2018-08-01T13:47:18Z</time>
      </trkpt>
      <trkpt lat="47.20599" lon="6.89289">
        <ele>631.221</ele>
        <time>2018-08-01T13:47:20Z</time>
      </trkpt>
      <trkpt lat="47.20594" lon="6.89281">
        <ele>631.366</ele>
        <time>2018-08-01T13:47:22Z</time>
      </trkpt>
      <trkpt lat="47.2059" lon="6.89273">
        <ele>631.42</ele>
        <time>2018-08-01T13:47:24Z</time>
      </trkpt>
      <trkpt lat="47.20586" lon="6.89266">
        <ele>631.452</ele>
        <time>2018-08-01T13:47:26Z</time>
      </trkpt>
      <trkpt lat="47.20583" lon="6.8926">
        <ele>631.368</ele>
        <time>2018-08-01T13:47:28Z</time>
      </trkpt>
      <trkpt lat="47.20579" lon="6.89252">
        <ele>631.135</ele>
        <time>2018-08-01T13:47:30Z</time>
      </trkpt>
      <trkpt lat="47.20576" lon="6.89243">
        <ele>630.98</ele>
        <time>2018-08-01T13:47:32Z</time>
      </trkpt>
      <trkpt lat="47.20574" lon="6.89236">
        <ele>630.749</ele>
        <time>2018-08-01T13:47:34Z</time>
      </trkpt>
      <trkpt lat="47.2057" lon="6.8923">
        <ele>630.555</ele>
        <time>2018-08-01T13:47:36Z</time>
      </trkpt>
      <trkpt lat="47.20566" lon="6.89225">
        <ele>630.407</ele>
        <time>2018-08-01T13:47:38Z</time>
      </trkpt>
      <trkpt lat="47.20561" lon="6.89219">
        <ele>630.217</ele>
        <time>2018-08-01T13:47:40Z</time>
      </trkpt>
      <trkpt lat="47.20556" lon="6.89211">
        <ele>629.808</ele>
        <time>2018-08-01T13:47:43Z</time>
      </trkpt>
      <trkpt lat="47.2055" lon="6.89205">
        <ele>629.537</ele>
        <time>2018-08-01T13:47:45Z</time>
      </trkpt>
      <trkpt lat="47.20544" lon="6.892">
        <ele>629.232</ele>
        <time>2018-08-01T13:47:47Z</time>
      </trkpt>
      <trkpt lat="47.20538" lon="6.89193">
        <ele>629.066</ele>
        <time>2018-08-01T13:47:49Z</time>
      </trkpt>
      <trkpt lat="47.20534" lon="6.8919">
        <ele>628.948</ele>
        <time>2018-08-01T13:47:50Z</time>
      </trkpt>
      <trkpt lat="47.20529" lon="6.89187">
        <ele>628.834</ele>
        <time>2018-08-01T13:47:51Z</time>
      </trkpt>
      <trkpt lat="47.20524" lon="6.89185">
        <ele>628.831</ele>
        <time>2018-08-01T13:47:52Z</time>
      </trkpt>
      <trkpt lat="47.20516" lon="6.89185">
        <ele>628.836</ele>
        <time>2018-08-01T13:47:53Z</time>
      </trkpt>
      <trkpt lat="47.20509" lon="6.89186">
        <ele>628.735</ele>
        <time>2018-08-01T13:47:55Z</time>
      </trkpt>
      <trkpt lat="47.20502" lon="6.89186">
        <ele>628.275</ele>
        <time>2018-08-01T13:47:58Z</time>
      </trkpt>
      <trkpt lat="47.20496" lon="6.89186">
        <ele>627.528</ele>
        <time>2018-08-01T13:48:00Z</time>
      </trkpt>
      <trkpt lat="47.2049" lon="6.89184">
        <ele>627.12</ele>
        <time>2018-08-01T13:48:01Z</time>
      </trkpt>
      <trkpt lat="47.20486" lon="6.89184">
        <ele>626.708</ele>
        <time>2018-08-01T13:48:02Z</time>
      </trkpt>
      <trkpt lat="47.20481" lon="6.89183">
        <ele>626.359</ele>
        <time>2018-08-01T13:48:03Z</time>
      </trkpt>
      <trkpt lat="47.20472" lon="6.89184">
        <ele>625.974</ele>
        <time>2018-08-01T13:48:04Z</time>
      </trkpt>
      <trkpt lat="47.20467" lon="6.89185">
        <ele>625.578</ele>
        <time>2018-08-01T13:48:05Z</time>
      </trkpt>
      <trkpt lat="47.20454" lon="6.89187">
        <ele>623.97</ele>
        <time>2018-08-01T13:48:08Z</time>
      </trkpt>
      <trkpt lat="47.20442" lon="6.89191">
        <ele>623.526</ele>
        <time>2018-08-01T13:48:09Z</time>
      </trkpt>
      <trkpt lat="47.20438" lon="6.89197">
        <ele>622.993</ele>
        <time>2018-08-01T13:48:10Z</time>
      </trkpt>
      <trkpt lat="47.20429" lon="6.892">
        <ele>622.018</ele>
        <time>2018-08-01T13:48:11Z</time>
      </trkpt>
      <trkpt lat="47.20422" lon="6.89205">
        <ele>621.257</ele>
        <time>2018-08-01T13:48:12Z</time>
      </trkpt>
      <trkpt lat="47.20418" lon="6.89209">
        <ele>620.553</ele>
        <time>2018-08-01T13:48:13Z</time>
      </trkpt>
      <trkpt lat="47.20411" lon="6.89211">
        <ele>619.604</ele>
        <time>2018-08-01T13:48:14Z</time>
      </trkpt>
      <trkpt lat="47.20403" lon="6.89215">
        <ele>618.914</ele>
        <time>2018-08-01T13:48:15Z</time>
      </trkpt>
      <trkpt lat="47.20396" lon="6.89218">
        <ele>618.308</ele>
        <time>2018-08-01T13:48:16Z</time>
      </trkpt>
      <trkpt lat="47.20388" lon="6.89219">
        <ele>617.917</ele>
        <time>2018-08-01T13:48:17Z</time>
      </trkpt>
      <trkpt lat="47.2038" lon="6.89221">
        <ele>617.582</ele>
        <time>2018-08-01T13:48:18Z</time>
      </trkpt>
      <trkpt lat="47.20372" lon="6.89223">
        <ele>617.266</ele>
        <time>2018-08-01T13:48:19Z</time>
      </trkpt>
      <trkpt lat="47.20366" lon="6.89226">
        <ele>617.078</ele>
        <time>2018-08-01T13:48:20Z</time>
      </trkpt>
      <trkpt lat="47.2036" lon="6.89232">
        <ele>616.964</ele>
        <time>2018-08-01T13:48:22Z</time>
      </trkpt>
      <trkpt lat="47.20352" lon="6.89231">
        <ele>616.741</ele>
        <time>2018-08-01T13:48:24Z</time>
      </trkpt>
      <trkpt lat="47.20347" lon="6.89229">
        <ele>616.556</ele>
        <time>2018-08-01T13:48:27Z</time>
      </trkpt>
      <trkpt lat="47.20343" lon="6.89225">
        <ele>616.555</ele>
        <time>2018-08-01T13:48:29Z</time>
      </trkpt>
      <trkpt lat="47.2034" lon="6.89218">
        <ele>616.597</ele>
        <time>2018-08-01T13:48:31Z</time>
      </trkpt>
      <trkpt lat="47.20338" lon="6.89209">
        <ele>616.423</ele>
        <time>2018-08-01T13:48:33Z</time>
      </trkpt>
      <trkpt lat="47.20337" lon="6.89202">
        <ele>616.225</ele>
        <time>2018-08-01T13:48:35Z</time>
      </trkpt>
      <trkpt lat="47.20337" lon="6.89193">
        <ele>616.108</ele>
        <time>2018-08-01T13:48:37Z</time>
      </trkpt>
      <trkpt lat="47.20339" lon="6.89186">
        <ele>616.271</ele>
        <time>2018-08-01T13:48:39Z</time>
      </trkpt>
      <trkpt lat="47.20343" lon="6.8918">
        <ele>616.446</ele>
        <time>2018-08-01T13:48:42Z</time>
      </trkpt>
      <trkpt lat="47.20346" lon="6.89174">
        <ele>616.57</ele>
        <time>2018-08-01T13:48:44Z</time>
      </trkpt>
      <trkpt lat="47.20349" lon="6.89167">
        <ele>616.632</ele>
        <time>2018-08-01T13:48:46Z</time>
      </trkpt>
      <trkpt lat="47.20352" lon="6.8916">
        <ele>616.748</ele>
        <time>2018-08-01T13:48:48Z</time>
      </trkpt>
      <trkpt lat="47.20354" lon="6.89155">
        <ele>616.825</ele>
        <time>2018-08-01T13:48:50Z</time>
      </trkpt>
      <trkpt lat="47.20359" lon="6.8915">
        <ele>616.91</ele>
        <time>2018-08-01T13:48:52Z</time>
      </trkpt>
      <trkpt lat="47.20363" lon="6.89148">
        <ele>617.039</ele>
        <time>2018-08-01T13:48:53Z</time>
      </trkpt>
      <trkpt lat="47.20368" lon="6.89146">
        <ele>617.117</ele>
        <time>2018-08-01T13:48:54Z</time>
      </trkpt>
      <trkpt lat="47.20372" lon="6.89143">
        <ele>617.287</ele>
        <time>2018-08-01T13:48:55Z</time>
      </trkpt>
      <trkpt lat="47.20377" lon="6.89138">
        <ele>617.315</ele>
        <time>2018-08-01T13:48:57Z</time>
      </trkpt>
      <trkpt lat="47.2038" lon="6.89132">
        <ele>617.608</ele>
        <time>2018-08-01T13:49:00Z</time>
      </trkpt>
      <trkpt lat="47.20381" lon="6.89124">
        <ele>617.833</ele>
        <time>2018-08-01T13:49:03Z</time>
      </trkpt>
      <trkpt lat="47.20382" lon="6.89118">
        <ele>618.078</ele>
        <time>2018-08-01T13:49:05Z</time>
      </trkpt>
      <trkpt lat="47.20383" lon="6.89109">
        <ele>618.462</ele>
        <time>2018-08-01T13:49:08Z</time>
      </trkpt>
      <trkpt lat="47.20385" lon="6.89101">
        <ele>618.664</ele>
        <time>2018-08-01T13:49:10Z</time>
      </trkpt>
      <trkpt lat="47.20388" lon="6.89095">
        <ele>618.85</ele>
        <time>2018-08-01T13:49:12Z</time>
      </trkpt>
      <trkpt lat="47.20391" lon="6.89087">
        <ele>619.067</ele>
        <time>2018-08-01T13:49:14Z</time>
      </trkpt>
      <trkpt lat="47.20393" lon="6.8908">
        <ele>619.242</ele>
        <time>2018-08-01T13:49:16Z</time>
      </trkpt>
      <trkpt lat="47.20394" lon="6.89071">
        <ele>619.341</ele>
        <time>2018-08-01T13:49:19Z</time>
      </trkpt>
      <trkpt lat="47.20395" lon="6.89064">
        <ele>619.415</ele>
        <time>2018-08-01T13:49:21Z</time>
      </trkpt>
      <trkpt lat="47.20397" lon="6.89055">
        <ele>619.665</ele>
        <time>2018-08-01T13:49:23Z</time>
      </trkpt>
      <trkpt lat="47.20398" lon="6.89044">
        <ele>619.811</ele>
        <time>2018-08-01T13:49:25Z</time>
      </trkpt>
      <trkpt lat="47.20402" lon="6.89033">
        <ele>620.008</ele>
        <time>2018-08-01T13:49:27Z</time>
      </trkpt>
      <trkpt lat="47.20407" lon="6.89022">
        <ele>620.363</ele>
        <time>2018-08-01T13:49:29Z</time>
      </trkpt>
      <trkpt lat="47.20411" lon="6.89015">
        <ele>620.548</ele>
        <time>2018-08-01T13:49:31Z</time>
      </trkpt>
      <trkpt lat="47.20414" lon="6.89007">
        <ele>620.792</ele>
        <time>2018-08-01T13:49:33Z</time>
      </trkpt>
      <trkpt lat="47.20417" lon="6.88998">
        <ele>620.984</ele>
        <time>2018-08-01T13:49:35Z</time>
      </trkpt>
      <trkpt lat="47.2042" lon="6.8899">
        <ele>621.04</ele>
        <time>2018-08-01T13:49:37Z</time>
      </trkpt>
      <trkpt lat="47.20422" lon="6.88981">
        <ele>621.297</ele>
        <time>2018-08-01T13:49:39Z</time>
      </trkpt>
      <trkpt lat="47.20422" lon="6.88973">
        <ele>621.422</ele>
        <time>2018-08-01T13:49:41Z</time>
      </trkpt>
      <trkpt lat="47.20421" lon="6.88966">
        <ele>621.681</ele>
        <time>2018-08-01T13:49:43Z</time>
      </trkpt>
      <trkpt lat="47.20418" lon="6.88958">
        <ele>621.753</ele>
        <time>2018-08-01T13:49:45Z</time>
      </trkpt>
      <trkpt lat="47.20415" lon="6.88949">
        <ele>622.004</ele>
        <time>2018-08-01T13:49:47Z</time>
      </trkpt>
      <trkpt lat="47.20412" lon="6.88942">
        <ele>622.414</ele>
        <time>2018-08-01T13:49:49Z</time>
      </trkpt>
      <trkpt lat="47.20407" lon="6.88934">
        <ele>622.708</ele>
        <time>2018-08-01T13:49:51Z</time>
      </trkpt>
      <trkpt lat="47.20403" lon="6.88927">
        <ele>623.037</ele>
        <time>2018-08-01T13:49:53Z</time>
      </trkpt>
      <trkpt lat="47.204" lon="6.88918">
        <ele>623.242</ele>
        <time>2018-08-01T13:49:55Z</time>
      </trkpt>
      <trkpt lat="47.20398" lon="6.88911">
        <ele>623.486</ele>
        <time>2018-08-01T13:49:57Z</time>
      </trkpt>
      <trkpt lat="47.20394" lon="6.88904">
        <ele>623.618</ele>
        <time>2018-08-01T13:49:59Z</time>
      </trkpt>
      <trkpt lat="47.20391" lon="6.88898">
        <ele>623.864</ele>
        <time>2018-08-01T13:50:01Z</time>
      </trkpt>
      <trkpt lat="47.20386" lon="6.88892">
        <ele>624.191</ele>
        <time>2018-08-01T13:50:03Z</time>
      </trkpt>
      <trkpt lat="47.2038" lon="6.88888">
        <ele>624.426</ele>
        <time>2018-08-01T13:50:05Z</time>
      </trkpt>
      <trkpt lat="47.20375" lon="6.88883">
        <ele>624.965</ele>
        <time>2018-08-01T13:50:08Z</time>
      </trkpt>
      <trkpt lat="47.20369" lon="6.88877">
        <ele>625.376</ele>
        <time>2018-08-01T13:50:11Z</time>
      </trkpt>
      <trkpt lat="47.20365" lon="6.88873">
        <ele>625.49</ele>
        <time>2018-08-01T13:50:13Z</time>
      </trkpt>
      <trkpt lat="47.20359" lon="6.88867">
        <ele>625.719</ele>
        <time>2018-08-01T13:50:15Z</time>
      </trkpt>
      <trkpt lat="47.20355" lon="6.8886">
        <ele>626.008</ele>
        <time>2018-08-01T13:50:17Z</time>
      </trkpt>
      <trkpt lat="47.20352" lon="6.88852">
        <ele>626.369</ele>
        <time>2018-08-01T13:50:19Z</time>
      </trkpt>
      <trkpt lat="47.20349" lon="6.88842">
        <ele>626.674</ele>
        <time>2018-08-01T13:50:21Z</time>
      </trkpt>
      <trkpt lat="47.20347" lon="6.88833">
        <ele>626.928</ele>
        <time>2018-08-01T13:50:23Z</time>
      </trkpt>
      <trkpt lat="47.20344" lon="6.88825">
        <ele>627.25</ele>
        <time>2018-08-01T13:50:25Z</time>
      </trkpt>
      <trkpt lat="47.20342" lon="6.88819">
        <ele>627.676</ele>
        <time>2018-08-01T13:50:27Z</time>
      </trkpt>
      <trkpt lat="47.2034" lon="6.88811">
        <ele>628.063</ele>
        <time>2018-08-01T13:50:29Z</time>
      </trkpt>
      <trkpt lat="47.20338" lon="6.88802">
        <ele>628.378</ele>
        <time>2018-08-01T13:50:31Z</time>
      </trkpt>
      <trkpt lat="47.20337" lon="6.88793">
        <ele>628.637</ele>
        <time>2018-08-01T13:50:33Z</time>
      </trkpt>
      <trkpt lat="47.20337" lon="6.88785">
        <ele>628.926</ele>
        <time>2018-08-01T13:50:35Z</time>
      </trkpt>
      <trkpt lat="47.20336" lon="6.88775">
        <ele>629.247</ele>
        <time>2018-08-01T13:50:37Z</time>
      </trkpt>
      <trkpt lat="47.20336" lon="6.88766">
        <ele>629.511</ele>
        <time>2018-08-01T13:50:39Z</time>
      </trkpt>
      <trkpt lat="47.20336" lon="6.88757">
        <ele>629.708</ele>
        <time>2018-08-01T13:50:41Z</time>
      </trkpt>
      <trkpt lat="47.20334" lon="6.88748">
        <ele>629.954</ele>
        <time>2018-08-01T13:50:43Z</time>
      </trkpt>
      <trkpt lat="47.20331" lon="6.88743">
        <ele>630.269</ele>
        <time>2018-08-01T13:50:45Z</time>
      </trkpt>
      <trkpt lat="47.20327" lon="6.88735">
        <ele>630.633</ele>
        <time>2018-08-01T13:50:48Z</time>
      </trkpt>
      <trkpt lat="47.20324" lon="6.88727">
        <ele>630.865</ele>
        <time>2018-08-01T13:50:50Z</time>
      </trkpt>
      <trkpt lat="47.2032" lon="6.88719">
        <ele>631.081</ele>
        <time>2018-08-01T13:50:52Z</time>
      </trkpt>
      <trkpt lat="47.20318" lon="6.8871">
        <ele>631.188</ele>
        <time>2018-08-01T13:50:54Z</time>
      </trkpt>
      <trkpt lat="47.20317" lon="6.887">
        <ele>631.273</ele>
        <time>2018-08-01T13:50:56Z</time>
      </trkpt>
      <trkpt lat="47.20315" lon="6.88692">
        <ele>631.412</ele>
        <time>2018-08-01T13:50:58Z</time>
      </trkpt>
      <trkpt lat="47.2031" lon="6.88685">
        <ele>631.758</ele>
        <time>2018-08-01T13:51:00Z</time>
      </trkpt>
      <trkpt lat="47.20306" lon="6.88678">
        <ele>632.052</ele>
        <time>2018-08-01T13:51:02Z</time>
      </trkpt>
      <trkpt lat="47.20305" lon="6.8867">
        <ele>632.317</ele>
        <time>2018-08-01T13:51:04Z</time>
      </trkpt>
      <trkpt lat="47.20304" lon="6.88662">
        <ele>632.608</ele>
        <time>2018-08-01T13:51:06Z</time>
      </trkpt>
      <trkpt lat="47.20304" lon="6.88654">
        <ele>632.757</ele>
        <time>2018-08-01T13:51:08Z</time>
      </trkpt>
      <trkpt lat="47.20305" lon="6.88645">
        <ele>633.072</ele>
        <time>2018-08-01T13:51:10Z</time>
      </trkpt>
      <trkpt lat="47.20308" lon="6.88635">
        <ele>633.356</ele>
        <time>2018-08-01T13:51:12Z</time>
      </trkpt>
      <trkpt lat="47.20307" lon="6.88626">
        <ele>633.648</ele>
        <time>2018-08-01T13:51:14Z</time>
      </trkpt>
      <trkpt lat="47.20304" lon="6.88617">
        <ele>634.094</ele>
        <time>2018-08-01T13:51:16Z</time>
      </trkpt>
      <trkpt lat="47.20303" lon="6.8861">
        <ele>634.361</ele>
        <time>2018-08-01T13:51:18Z</time>
      </trkpt>
      <trkpt lat="47.20302" lon="6.88601">
        <ele>634.626</ele>
        <time>2018-08-01T13:51:20Z</time>
      </trkpt>
      <trkpt lat="47.20298" lon="6.88594">
        <ele>635.055</ele>
        <time>2018-08-01T13:51:22Z</time>
      </trkpt>
      <trkpt lat="47.20292" lon="6.88587">
        <ele>635.467</ele>
        <time>2018-08-01T13:51:24Z</time>
      </trkpt>
      <trkpt lat="47.20287" lon="6.88582">
        <ele>635.781</ele>
        <time>2018-08-01T13:51:26Z</time>
      </trkpt>
      <trkpt lat="47.20282" lon="6.88577">
        <ele>636.019</ele>
        <time>2018-08-01T13:51:28Z</time>
      </trkpt>
      <trkpt lat="47.20279" lon="6.88571">
        <ele>636.308</ele>
        <time>2018-08-01T13:51:30Z</time>
      </trkpt>
      <trkpt lat="47.20276" lon="6.88565">
        <ele>636.658</ele>
        <time>2018-08-01T13:51:32Z</time>
      </trkpt>
      <trkpt lat="47.20272" lon="6.88561">
        <ele>636.743</ele>
        <time>2018-08-01T13:51:34Z</time>
      </trkpt>
      <trkpt lat="47.20267" lon="6.88557">
        <ele>636.927</ele>
        <time>2018-08-01T13:51:36Z</time>
      </trkpt>
      <trkpt lat="47.20263" lon="6.88549">
        <ele>637.489</ele>
        <time>2018-08-01T13:51:39Z</time>
      </trkpt>
      <trkpt lat="47.20259" lon="6.88543">
        <ele>637.855</ele>
        <time>2018-08-01T13:51:41Z</time>
      </trkpt>
      <trkpt lat="47.20253" lon="6.88538">
        <ele>638.242</ele>
        <time>2018-08-01T13:51:43Z</time>
      </trkpt>
      <trkpt lat="47.20248" lon="6.88532">
        <ele>638.667</ele>
        <time>2018-08-01T13:51:45Z</time>
      </trkpt>
      <trkpt lat="47.20243" lon="6.88526">
        <ele>639.056</ele>
        <time>2018-08-01T13:51:47Z</time>
      </trkpt>
      <trkpt lat="47.20237" lon="6.88522">
        <ele>639.398</ele>
        <time>2018-08-01T13:51:49Z</time>
      </trkpt>
      <trkpt lat="47.20233" lon="6.88517">
        <ele>639.715</ele>
        <time>2018-08-01T13:51:52Z</time>
      </trkpt>
      <trkpt lat="47.20227" lon="6.88513">
        <ele>639.926</ele>
        <time>2018-08-01T13:51:54Z</time>
      </trkpt>
      <trkpt lat="47.20223" lon="6.88509">
        <ele>640.208</ele>
        <time>2018-08-01T13:51:56Z</time>
      </trkpt>
      <trkpt lat="47.20219" lon="6.88504">
        <ele>640.511</ele>
        <time>2018-08-01T13:51:58Z</time>
      </trkpt>
      <trkpt lat="47.20215" lon="6.885">
        <ele>640.866</ele>
        <time>2018-08-01T13:52:00Z</time>
      </trkpt>
      <trkpt lat="47.20209" lon="6.88499">
        <ele>641.02</ele>
        <time>2018-08-01T13:52:03Z</time>
      </trkpt>
      <trkpt lat="47.20204" lon="6.88496">
        <ele>641.482</ele>
        <time>2018-08-01T13:52:06Z</time>
      </trkpt>
      <trkpt lat="47.20199" lon="6.88496">
        <ele>641.968</ele>
        <time>2018-08-01T13:52:09Z</time>
      </trkpt>
      <trkpt lat="47.20193" lon="6.88495">
        <ele>642.415</ele>
        <time>2018-08-01T13:52:12Z</time>
      </trkpt>
      <trkpt lat="47.20188" lon="6.88495">
        <ele>642.77</ele>
        <time>2018-08-01T13:52:14Z</time>
      </trkpt>
      <trkpt lat="47.20183" lon="6.88495">
        <ele>643.049</ele>
        <time>2018-08-01T13:52:16Z</time>
      </trkpt>
      <trkpt lat="47.20178" lon="6.88496">
        <ele>643.361</ele>
        <time>2018-08-01T13:52:18Z</time>
      </trkpt>
      <trkpt lat="47.20173" lon="6.88501">
        <ele>643.621</ele>
        <time>2018-08-01T13:52:21Z</time>
      </trkpt>
      <trkpt lat="47.2017" lon="6.88505">
        <ele>643.913</ele>
        <time>2018-08-01T13:52:24Z</time>
      </trkpt>
      <trkpt lat="47.20164" lon="6.88509">
        <ele>644.308</ele>
        <time>2018-08-01T13:52:27Z</time>
      </trkpt>
      <trkpt lat="47.20159" lon="6.88512">
        <ele>644.788</ele>
        <time>2018-08-01T13:53:32Z</time>
      </trkpt>
      <trkpt lat="47.20152" lon="6.88513">
        <ele>645.173</ele>
        <time>2018-08-01T13:53:35Z</time>
      </trkpt>
      <trkpt lat="47.20146" lon="6.88513">
        <ele>645.457</ele>
        <time>2018-08-01T13:53:37Z</time>
      </trkpt>
      <trkpt lat="47.20141" lon="6.88513">
        <ele>645.879</ele>
        <time>2018-08-01T13:53:41Z</time>
      </trkpt>
      <trkpt lat="47.20137" lon="6.88508">
        <ele>646.385</ele>
        <time>2018-08-01T13:53:45Z</time>
      </trkpt>
      <trkpt lat="47.20136" lon="6.88502">
        <ele>646.672</ele>
        <time>2018-08-01T13:53:48Z</time>
      </trkpt>
      <trkpt lat="47.20133" lon="6.88493">
        <ele>646.897</ele>
        <time>2018-08-01T13:53:51Z</time>
      </trkpt>
      <trkpt lat="47.20132" lon="6.88486">
        <ele>647.026</ele>
        <time>2018-08-01T13:53:53Z</time>
      </trkpt>
      <trkpt lat="47.20129" lon="6.88479">
        <ele>647.255</ele>
        <time>2018-08-01T13:53:55Z</time>
      </trkpt>
      <trkpt lat="47.20126" lon="6.88473">
        <ele>647.407</ele>
        <time>2018-08-01T13:53:57Z</time>
      </trkpt>
      <trkpt lat="47.20123" lon="6.88467">
        <ele>647.617</ele>
        <time>2018-08-01T13:53:59Z</time>
      </trkpt>
      <trkpt lat="47.2012" lon="6.8846">
        <ele>647.808</ele>
        <time>2018-08-01T13:54:01Z</time>
      </trkpt>
      <trkpt lat="47.20118" lon="6.88454">
        <ele>648.077</ele>
        <time>2018-08-01T13:54:03Z</time>
      </trkpt>
      <trkpt lat="47.20116" lon="6.88445">
        <ele>648.372</ele>
        <time>2018-08-01T13:54:06Z</time>
      </trkpt>
      <trkpt lat="47.20113" lon="6.88436">
        <ele>648.646</ele>
        <time>2018-08-01T13:54:09Z</time>
      </trkpt>
      <trkpt lat="47.2011" lon="6.88428">
        <ele>649.078</ele>
        <time>2018-08-01T13:54:12Z</time>
      </trkpt>
      <trkpt lat="47.20105" lon="6.88423">
        <ele>649.484</ele>
        <time>2018-08-01T13:54:15Z</time>
      </trkpt>
      <trkpt lat="47.20101" lon="6.88416">
        <ele>649.781</ele>
        <time>2018-08-01T13:54:18Z</time>
      </trkpt>
      <trkpt lat="47.20098" lon="6.88408">
        <ele>650.056</ele>
        <time>2018-08-01T13:54:22Z</time>
      </trkpt>
      <trkpt lat="47.20094" lon="6.88403">
        <ele>650.455</ele>
        <time>2018-08-01T13:54:25Z</time>
      </trkpt>
      <trkpt lat="47.2009" lon="6.88398">
        <ele>650.871</ele>
        <time>2018-08-01T13:54:28Z</time>
      </trkpt>
      <trkpt lat="47.20084" lon="6.88393">
        <ele>651.241</ele>
        <time>2018-08-01T13:54:31Z</time>
      </trkpt>
      <trkpt lat="47.2008" lon="6.88391">
        <ele>651.515</ele>
        <time>2018-08-01T13:54:33Z</time>
      </trkpt>
      <trkpt lat="47.20074" lon="6.88387">
        <ele>652.008</ele>
        <time>2018-08-01T13:54:37Z</time>
      </trkpt>
      <trkpt lat="47.20068" lon="6.88385">
        <ele>652.459</ele>
        <time>2018-08-01T13:54:41Z</time>
      </trkpt>
      <trkpt lat="47.20064" lon="6.88383">
        <ele>652.714</ele>
        <time>2018-08-01T13:54:43Z</time>
      </trkpt>
      <trkpt lat="47.20059" lon="6.88379">
        <ele>653.048</ele>
        <time>2018-08-01T13:54:45Z</time>
      </trkpt>
      <trkpt lat="47.20055" lon="6.88376">
        <ele>653.15</ele>
        <time>2018-08-01T13:54:47Z</time>
      </trkpt>
      <trkpt lat="47.2005" lon="6.88373">
        <ele>653.436</ele>
        <time>2018-08-01T13:54:49Z</time>
      </trkpt>
      <trkpt lat="47.20045" lon="6.88371">
        <ele>653.763</ele>
        <time>2018-08-01T13:54:51Z</time>
      </trkpt>
      <trkpt lat="47.20039" lon="6.88368">
        <ele>654.038</ele>
        <time>2018-08-01T13:54:54Z</time>
      </trkpt>
      <trkpt lat="47.20032" lon="6.88367">
        <ele>654.227</ele>
        <time>2018-08-01T13:54:57Z</time>
      </trkpt>
      <trkpt lat="47.20027" lon="6.88366">
        <ele>654.545</ele>
        <time>2018-08-01T13:55:00Z</time>
      </trkpt>
      <trkpt lat="47.20021" lon="6.88366">
        <ele>654.947</ele>
        <time>2018-08-01T13:55:03Z</time>
      </trkpt>
      <trkpt lat="47.20016" lon="6.88367">
        <ele>655.211</ele>
        <time>2018-08-01T13:55:05Z</time>
      </trkpt>
      <trkpt lat="47.2001" lon="6.88367">
        <ele>655.608</ele>
        <time>2018-08-01T13:55:08Z</time>
      </trkpt>
      <trkpt lat="47.20004" lon="6.88363">
        <ele>655.946</ele>
        <time>2018-08-01T13:55:11Z</time>
      </trkpt>
      <trkpt lat="47.19999" lon="6.88362">
        <ele>656.281</ele>
        <time>2018-08-01T13:55:15Z</time>
      </trkpt>
      <trkpt lat="47.19997" lon="6.88356">
        <ele>656.315</ele>
        <time>2018-08-01T13:55:18Z</time>
      </trkpt>
      <trkpt lat="47.19992" lon="6.8835">
        <ele>656.577</ele>
        <time>2018-08-01T13:55:21Z</time>
      </trkpt>
      <trkpt lat="47.19988" lon="6.88343">
        <ele>656.783</ele>
        <time>2018-08-01T13:55:24Z</time>
      </trkpt>
      <trkpt lat="47.19985" lon="6.88337">
        <ele>656.84</ele>
        <time>2018-08-01T13:55:26Z</time>
      </trkpt>
      <trkpt lat="47.19981" lon="6.88332">
        <ele>656.915</ele>
        <time>2018-08-01T13:55:28Z</time>
      </trkpt>
      <trkpt lat="47.19978" lon="6.88325">
        <ele>657.184</ele>
        <time>2018-08-01T13:55:30Z</time>
      </trkpt>
      <trkpt lat="47.19975" lon="6.8832">
        <ele>657.283</ele>
        <time>2018-08-01T13:55:32Z</time>
      </trkpt>
      <trkpt lat="47.19971" lon="6.88315">
        <ele>657.425</ele>
        <time>2018-08-01T13:55:34Z</time>
      </trkpt>
      <trkpt lat="47.19968" lon="6.88307">
        <ele>657.717</ele>
        <time>2018-08-01T13:55:37Z</time>
      </trkpt>
      <trkpt lat="47.19966" lon="6.88298">
        <ele>658.008</ele>
        <time>2018-08-01T13:55:40Z</time>
      </trkpt>
      <trkpt lat="47.19965" lon="6.8829">
        <ele>658.13</ele>
        <time>2018-08-01T13:55:42Z</time>
      </trkpt>
      <trkpt lat="47.19964" lon="6.88281">
        <ele>658.465</ele>
        <time>2018-08-01T13:55:45Z</time>
      </trkpt>
      <trkpt lat="47.19963" lon="6.88274">
        <ele>658.769</ele>
        <time>2018-08-01T13:55:48Z</time>
      </trkpt>
      <trkpt lat="47.19962" lon="6.88266">
        <ele>659.111</ele>
        <time>2018-08-01T13:55:51Z</time>
      </trkpt>
      <trkpt lat="47.1996" lon="6.88258">
        <ele>659.547</ele>
        <time>2018-08-01T13:55:54Z</time>
      </trkpt>
      <trkpt lat="47.19958" lon="6.8825">
        <ele>659.874</ele>
        <time>2018-08-01T13:55:57Z</time>
      </trkpt>
      <trkpt lat="47.19956" lon="6.88244">
        <ele>660.029</ele>
        <time>2018-08-01T13:55:59Z</time>
      </trkpt>
      <trkpt lat="47.19954" lon="6.88238">
        <ele>660.228</ele>
        <time>2018-08-01T13:56:01Z</time>
      </trkpt>
      <trkpt lat="47.19954" lon="6.88231">
        <ele>660.485</ele>
        <time>2018-08-01T13:56:03Z</time>
      </trkpt>
      <trkpt lat="47.19953" lon="6.88223">
        <ele>660.589</ele>
        <time>2018-08-01T13:56:05Z</time>
      </trkpt>
      <trkpt lat="47.19952" lon="6.88216">
        <ele>660.617</ele>
        <time>2018-08-01T13:56:07Z</time>
      </trkpt>
      <trkpt lat="47.19952" lon="6.88208">
        <ele>660.708</ele>
        <time>2018-08-01T13:56:09Z</time>
      </trkpt>
      <trkpt lat="47.19952" lon="6.88198">
        <ele>660.96</ele>
        <time>2018-08-01T13:56:12Z</time>
      </trkpt>
      <trkpt lat="47.19951" lon="6.88189">
        <ele>661.115</ele>
        <time>2018-08-01T13:56:15Z</time>
      </trkpt>
      <trkpt lat="47.1995" lon="6.88182">
        <ele>661.379</ele>
        <time>2018-08-01T13:56:19Z</time>
      </trkpt>
      <trkpt lat="47.19946" lon="6.88178">
        <ele>661.551</ele>
        <time>2018-08-01T13:56:22Z</time>
      </trkpt>
      <trkpt lat="47.1994" lon="6.88177">
        <ele>661.937</ele>
        <time>2018-08-01T13:56:25Z</time>
      </trkpt>
      <trkpt lat="47.19935" lon="6.88178">
        <ele>662.464</ele>
        <time>2018-08-01T13:56:28Z</time>
      </trkpt>
      <trkpt lat="47.1993" lon="6.88181">
        <ele>663.059</ele>
        <time>2018-08-01T13:56:32Z</time>
      </trkpt>
      <trkpt lat="47.19933" lon="6.88188">
        <ele>663.868</ele>
        <time>2018-08-01T13:57:49Z</time>
      </trkpt>
      <trkpt lat="47.19937" lon="6.88192">
        <ele>664.231</ele>
        <time>2018-08-01T13:57:52Z</time>
      </trkpt>
      <trkpt lat="47.19939" lon="6.88198">
        <ele>664.561</ele>
        <time>2018-08-01T13:57:56Z</time>
      </trkpt>
      <trkpt lat="47.1993" lon="6.88204">
        <ele>663.207</ele>
        <time>2018-08-01T14:12:49Z</time>
      </trkpt>
      <trkpt lat="47.19933" lon="6.88199">
        <ele>664.708</ele>
        <time>2018-08-01T14:13:07Z</time>
      </trkpt>
      <trkpt lat="47.19931" lon="6.88192">
        <ele>664.155</ele>
        <time>2018-08-01T14:13:29Z</time>
      </trkpt>
      <trkpt lat="47.19926" lon="6.8819">
        <ele>663.87</ele>
        <time>2018-08-01T14:13:32Z</time>
      </trkpt>
      <trkpt lat="47.1992" lon="6.88186">
        <ele>663.544</ele>
        <time>2018-08-01T14:13:35Z</time>
      </trkpt>
      <trkpt lat="47.19916" lon="6.88182">
        <ele>663.426</ele>
        <time>2018-08-01T14:13:38Z</time>
      </trkpt>
      <trkpt lat="47.19912" lon="6.8818">
        <ele>663.342</ele>
        <time>2018-08-01T14:13:40Z</time>
      </trkpt>
      <trkpt lat="47.19909" lon="6.88173">
        <ele>663.179</ele>
        <time>2018-08-01T14:13:44Z</time>
      </trkpt>
      <trkpt lat="47.19905" lon="6.88166">
        <ele>662.744</ele>
        <time>2018-08-01T14:13:47Z</time>
      </trkpt>
      <trkpt lat="47.19901" lon="6.88161">
        <ele>662.363</ele>
        <time>2018-08-01T14:13:50Z</time>
      </trkpt>
      <trkpt lat="47.19896" lon="6.88157">
        <ele>662.075</ele>
        <time>2018-08-01T14:13:52Z</time>
      </trkpt>
      <trkpt lat="47.19892" lon="6.88153">
        <ele>661.728</ele>
        <time>2018-08-01T14:13:54Z</time>
      </trkpt>
      <trkpt lat="47.19889" lon="6.88148">
        <ele>661.42</ele>
        <time>2018-08-01T14:13:56Z</time>
      </trkpt>
      <trkpt lat="47.19884" lon="6.88141">
        <ele>660.908</ele>
        <time>2018-08-01T14:13:59Z</time>
      </trkpt>
      <trkpt lat="47.1988" lon="6.88135">
        <ele>660.459</ele>
        <time>2018-08-01T14:14:01Z</time>
      </trkpt>
      <trkpt lat="47.19877" lon="6.88129">
        <ele>660.034</ele>
        <time>2018-08-01T14:14:03Z</time>
      </trkpt>
      <trkpt lat="47.19873" lon="6.88124">
        <ele>659.448</ele>
        <time>2018-08-01T14:14:06Z</time>
      </trkpt>
      <trkpt lat="47.19868" lon="6.88123">
        <ele>659.15</ele>
        <time>2018-08-01T14:14:08Z</time>
      </trkpt>
      <trkpt lat="47.19861" lon="6.8812">
        <ele>658.656</ele>
        <time>2018-08-01T14:14:10Z</time>
      </trkpt>
      <trkpt lat="47.19855" lon="6.88118">
        <ele>658.263</ele>
        <time>2018-08-01T14:14:12Z</time>
      </trkpt>
      <trkpt lat="47.19849" lon="6.88119">
        <ele>657.968</ele>
        <time>2018-08-01T14:14:14Z</time>
      </trkpt>
      <trkpt lat="47.19844" lon="6.88118">
        <ele>657.227</ele>
        <time>2018-08-01T14:14:18Z</time>
      </trkpt>
      <trkpt lat="47.19837" lon="6.88117">
        <ele>656.877</ele>
        <time>2018-08-01T14:14:21Z</time>
      </trkpt>
      <trkpt lat="47.19831" lon="6.88119">
        <ele>656.661</ele>
        <time>2018-08-01T14:14:23Z</time>
      </trkpt>
      <trkpt lat="47.19824" lon="6.8812">
        <ele>656.427</ele>
        <time>2018-08-01T14:14:25Z</time>
      </trkpt>
      <trkpt lat="47.19816" lon="6.88121">
        <ele>656.108</ele>
        <time>2018-08-01T14:14:27Z</time>
      </trkpt>
      <trkpt lat="47.19808" lon="6.88122">
        <ele>655.839</ele>
        <time>2018-08-01T14:14:29Z</time>
      </trkpt>
      <trkpt lat="47.19801" lon="6.88124">
        <ele>655.544</ele>
        <time>2018-08-01T14:14:31Z</time>
      </trkpt>
      <trkpt lat="47.19794" lon="6.88125">
        <ele>655.118</ele>
        <time>2018-08-01T14:14:33Z</time>
      </trkpt>
      <trkpt lat="47.19786" lon="6.88124">
        <ele>654.62</ele>
        <time>2018-08-01T14:14:35Z</time>
      </trkpt>
      <trkpt lat="47.19781" lon="6.88123">
        <ele>654.636</ele>
        <time>2018-08-01T14:14:36Z</time>
      </trkpt>
      <trkpt lat="47.19776" lon="6.88121">
        <ele>654.433</ele>
        <time>2018-08-01T14:14:37Z</time>
      </trkpt>
      <trkpt lat="47.19771" lon="6.88119">
        <ele>654.278</ele>
        <time>2018-08-01T14:14:38Z</time>
      </trkpt>
      <trkpt lat="47.19767" lon="6.88116">
        <ele>654.097</ele>
        <time>2018-08-01T14:14:39Z</time>
      </trkpt>
      <trkpt lat="47.19763" lon="6.88112">
        <ele>653.857</ele>
        <time>2018-08-01T14:14:40Z</time>
      </trkpt>
      <trkpt lat="47.19758" lon="6.88107">
        <ele>653.7</ele>
        <time>2018-08-01T14:14:41Z</time>
      </trkpt>
      <trkpt lat="47.19751" lon="6.88094">
        <ele>653.52</ele>
        <time>2018-08-01T14:14:42Z</time>
      </trkpt>
      <trkpt lat="47.19742" lon="6.88091">
        <ele>653.208</ele>
        <time>2018-08-01T14:14:44Z</time>
      </trkpt>
      <trkpt lat="47.19733" lon="6.88084">
        <ele>653.047</ele>
        <time>2018-08-01T14:14:46Z</time>
      </trkpt>
      <trkpt lat="47.19729" lon="6.88081">
        <ele>653.022</ele>
        <time>2018-08-01T14:14:47Z</time>
      </trkpt>
      <trkpt lat="47.19725" lon="6.88079">
        <ele>652.956</ele>
        <time>2018-08-01T14:14:48Z</time>
      </trkpt>
      <trkpt lat="47.19719" lon="6.88078">
        <ele>652.858</ele>
        <time>2018-08-01T14:14:49Z</time>
      </trkpt>
      <trkpt lat="47.19714" lon="6.88073">
        <ele>652.644</ele>
        <time>2018-08-01T14:14:51Z</time>
      </trkpt>
      <trkpt lat="47.1971" lon="6.88071">
        <ele>652.561</ele>
        <time>2018-08-01T14:14:53Z</time>
      </trkpt>
      <trkpt lat="47.19706" lon="6.88067">
        <ele>652.526</ele>
        <time>2018-08-01T14:14:54Z</time>
      </trkpt>
      <trkpt lat="47.197" lon="6.8806">
        <ele>652.545</ele>
        <time>2018-08-01T14:14:56Z</time>
      </trkpt>
      <trkpt lat="47.19693" lon="6.88052">
        <ele>652.468</ele>
        <time>2018-08-01T14:14:58Z</time>
      </trkpt>
      <trkpt lat="47.19688" lon="6.88043">
        <ele>652.342</ele>
        <time>2018-08-01T14:15:00Z</time>
      </trkpt>
      <trkpt lat="47.19682" lon="6.88037">
        <ele>652.126</ele>
        <time>2018-08-01T14:15:02Z</time>
      </trkpt>
      <trkpt lat="47.19677" lon="6.88034">
        <ele>652.008</ele>
        <time>2018-08-01T14:15:03Z</time>
      </trkpt>
      <trkpt lat="47.19668" lon="6.88029">
        <ele>651.868</ele>
        <time>2018-08-01T14:15:04Z</time>
      </trkpt>
      <trkpt lat="47.19661" lon="6.88024">
        <ele>651.643</ele>
        <time>2018-08-01T14:15:06Z</time>
      </trkpt>
      <trkpt lat="47.19653" lon="6.88026">
        <ele>651.267</ele>
        <time>2018-08-01T14:15:08Z</time>
      </trkpt>
      <trkpt lat="47.19647" lon="6.88029">
        <ele>650.839</ele>
        <time>2018-08-01T14:15:10Z</time>
      </trkpt>
      <trkpt lat="47.1964" lon="6.88033">
        <ele>650.455</ele>
        <time>2018-08-01T14:15:12Z</time>
      </trkpt>
      <trkpt lat="47.19633" lon="6.88035">
        <ele>650.072</ele>
        <time>2018-08-01T14:15:14Z</time>
      </trkpt>
      <trkpt lat="47.19629" lon="6.88037">
        <ele>649.847</ele>
        <time>2018-08-01T14:15:15Z</time>
      </trkpt>
      <trkpt lat="47.19622" lon="6.88035">
        <ele>649.636</ele>
        <time>2018-08-01T14:15:16Z</time>
      </trkpt>
      <trkpt lat="47.19612" lon="6.88028">
        <ele>649.446</ele>
        <time>2018-08-01T14:15:17Z</time>
      </trkpt>
      <trkpt lat="47.19605" lon="6.88026">
        <ele>649.288</ele>
        <time>2018-08-01T14:15:18Z</time>
      </trkpt>
      <trkpt lat="47.19598" lon="6.88022">
        <ele>649.116</ele>
        <time>2018-08-01T14:15:19Z</time>
      </trkpt>
      <trkpt lat="47.19593" lon="6.88015">
        <ele>649.108</ele>
        <time>2018-08-01T14:15:20Z</time>
      </trkpt>
      <trkpt lat="47.19587" lon="6.88011">
        <ele>649.056</ele>
        <time>2018-08-01T14:15:21Z</time>
      </trkpt>
      <trkpt lat="47.19583" lon="6.88006">
        <ele>648.981</ele>
        <time>2018-08-01T14:15:22Z</time>
      </trkpt>
      <trkpt lat="47.19579" lon="6.88001">
        <ele>648.855</ele>
        <time>2018-08-01T14:15:23Z</time>
      </trkpt>
      <trkpt lat="47.19573" lon="6.8799">
        <ele>648.627</ele>
        <time>2018-08-01T14:15:25Z</time>
      </trkpt>
      <trkpt lat="47.19571" lon="6.87981">
        <ele>648.463</ele>
        <time>2018-08-01T14:15:26Z</time>
      </trkpt>
      <trkpt lat="47.19567" lon="6.87977">
        <ele>648.26</ele>
        <time>2018-08-01T14:15:27Z</time>
      </trkpt>
      <trkpt lat="47.19561" lon="6.87974">
        <ele>647.975</ele>
        <time>2018-08-01T14:15:28Z</time>
      </trkpt>
      <trkpt lat="47.19556" lon="6.8797">
        <ele>647.644</ele>
        <time>2018-08-01T14:15:29Z</time>
      </trkpt>
      <trkpt lat="47.19546" lon="6.87969">
        <ele>647.116</ele>
        <time>2018-08-01T14:15:31Z</time>
      </trkpt>
      <trkpt lat="47.19541" lon="6.87968">
        <ele>647.076</ele>
        <time>2018-08-01T14:15:32Z</time>
      </trkpt>
      <trkpt lat="47.19536" lon="6.87967">
        <ele>647.013</ele>
        <time>2018-08-01T14:15:33Z</time>
      </trkpt>
      <trkpt lat="47.19531" lon="6.87967">
        <ele>646.808</ele>
        <time>2018-08-01T14:15:34Z</time>
      </trkpt>
      <trkpt lat="47.19526" lon="6.87965">
        <ele>646.883</ele>
        <time>2018-08-01T14:15:35Z</time>
      </trkpt>
      <trkpt lat="47.19521" lon="6.8796">
        <ele>646.658</ele>
        <time>2018-08-01T14:15:37Z</time>
      </trkpt>
      <trkpt lat="47.19515" lon="6.87962">
        <ele>646.562</ele>
        <time>2018-08-01T14:15:38Z</time>
      </trkpt>
      <trkpt lat="47.19508" lon="6.87963">
        <ele>646.274</ele>
        <time>2018-08-01T14:15:40Z</time>
      </trkpt>
      <trkpt lat="47.19503" lon="6.87964">
        <ele>646.15</ele>
        <time>2018-08-01T14:15:41Z</time>
      </trkpt>
      <trkpt lat="47.19496" lon="6.87965">
        <ele>646.017</ele>
        <time>2018-08-01T14:15:42Z</time>
      </trkpt>
      <trkpt lat="47.19491" lon="6.87968">
        <ele>645.822</ele>
        <time>2018-08-01T14:15:43Z</time>
      </trkpt>
      <trkpt lat="47.19483" lon="6.87971">
        <ele>645.371</ele>
        <time>2018-08-01T14:15:45Z</time>
      </trkpt>
      <trkpt lat="47.19477" lon="6.87974">
        <ele>645.052</ele>
        <time>2018-08-01T14:15:46Z</time>
      </trkpt>
      <trkpt lat="47.1947" lon="6.87975">
        <ele>644.553</ele>
        <time>2018-08-01T14:15:48Z</time>
      </trkpt>
      <trkpt lat="47.19465" lon="6.87975">
        <ele>644.208</ele>
        <time>2018-08-01T14:15:49Z</time>
      </trkpt>
      <trkpt lat="47.1946" lon="6.87977">
        <ele>643.908</ele>
        <time>2018-08-01T14:15:50Z</time>
      </trkpt>
      <trkpt lat="47.1945" lon="6.87984">
        <ele>643.487</ele>
        <time>2018-08-01T14:15:52Z</time>
      </trkpt>
      <trkpt lat="47.19444" lon="6.87988">
        <ele>643.282</ele>
        <time>2018-08-01T14:15:53Z</time>
      </trkpt>
      <trkpt lat="47.19439" lon="6.87991">
        <ele>643.076</ele>
        <time>2018-08-01T14:15:54Z</time>
      </trkpt>
      <trkpt lat="47.19433" lon="6.87997">
        <ele>642.668</ele>
        <time>2018-08-01T14:15:56Z</time>
      </trkpt>
      <trkpt lat="47.19428" lon="6.87998">
        <ele>642.324</ele>
        <time>2018-08-01T14:15:57Z</time>
      </trkpt>
      <trkpt lat="47.19426" lon="6.88006">
        <ele>641.761</ele>
        <time>2018-08-01T14:15:59Z</time>
      </trkpt>
      <trkpt lat="47.19423" lon="6.87999">
        <ele>641.366</ele>
        <time>2018-08-01T14:16:01Z</time>
      </trkpt>
      <trkpt lat="47.19422" lon="6.87993">
        <ele>641.155</ele>
        <time>2018-08-01T14:16:02Z</time>
      </trkpt>
      <trkpt lat="47.19419" lon="6.87985">
        <ele>640.941</ele>
        <time>2018-08-01T14:16:03Z</time>
      </trkpt>
      <trkpt lat="47.19412" lon="6.87974">
        <ele>640.781</ele>
        <time>2018-08-01T14:16:04Z</time>
      </trkpt>
      <trkpt lat="47.19411" lon="6.87967">
        <ele>640.609</ele>
        <time>2018-08-01T14:16:05Z</time>
      </trkpt>
      <trkpt lat="47.19409" lon="6.87957">
        <ele>640.308</ele>
        <time>2018-08-01T14:16:07Z</time>
      </trkpt>
      <trkpt lat="47.19408" lon="6.87947">
        <ele>639.846</ele>
        <time>2018-08-01T14:16:09Z</time>
      </trkpt>
      <trkpt lat="47.1941" lon="6.87939">
        <ele>639.491</ele>
        <time>2018-08-01T14:16:11Z</time>
      </trkpt>
      <trkpt lat="47.19412" lon="6.87931">
        <ele>639.235</ele>
        <time>2018-08-01T14:16:13Z</time>
      </trkpt>
      <trkpt lat="47.19414" lon="6.87923">
        <ele>638.957</ele>
        <time>2018-08-01T14:16:16Z</time>
      </trkpt>
      <trkpt lat="47.19417" lon="6.87915">
        <ele>638.753</ele>
        <time>2018-08-01T14:16:18Z</time>
      </trkpt>
      <trkpt lat="47.1942" lon="6.87906">
        <ele>638.76</ele>
        <time>2018-08-01T14:16:20Z</time>
      </trkpt>
      <trkpt lat="47.1942" lon="6.87897">
        <ele>638.765</ele>
        <time>2018-08-01T14:16:22Z</time>
      </trkpt>
      <trkpt lat="47.19418" lon="6.87887">
        <ele>638.654</ele>
        <time>2018-08-01T14:16:24Z</time>
      </trkpt>
      <trkpt lat="47.1942" lon="6.87877">
        <ele>638.637</ele>
        <time>2018-08-01T14:16:26Z</time>
      </trkpt>
      <trkpt lat="47.19423" lon="6.87867">
        <ele>638.749</ele>
        <time>2018-08-01T14:16:28Z</time>
      </trkpt>
      <trkpt lat="47.19426" lon="6.87858">
        <ele>638.713</ele>
        <time>2018-08-01T14:16:30Z</time>
      </trkpt>
      <trkpt lat="47.19427" lon="6.87848">
        <ele>638.908</ele>
        <time>2018-08-01T14:16:32Z</time>
      </trkpt>
      <trkpt lat="47.19427" lon="6.87838">
        <ele>639.055</ele>
        <time>2018-08-01T14:16:34Z</time>
      </trkpt>
      <trkpt lat="47.19422" lon="6.87827">
        <ele>639.15</ele>
        <time>2018-08-01T14:16:36Z</time>
      </trkpt>
      <trkpt lat="47.19418" lon="6.87823">
        <ele>639.234</ele>
        <time>2018-08-01T14:16:37Z</time>
      </trkpt>
      <trkpt lat="47.19412" lon="6.87816">
        <ele>639.456</ele>
        <time>2018-08-01T14:16:39Z</time>
      </trkpt>
      <trkpt lat="47.19404" lon="6.87813">
        <ele>639.732</ele>
        <time>2018-08-01T14:16:41Z</time>
      </trkpt>
      <trkpt lat="47.19398" lon="6.87811">
        <ele>640.079</ele>
        <time>2018-08-01T14:16:43Z</time>
      </trkpt>
      <trkpt lat="47.19392" lon="6.87811">
        <ele>640.434</ele>
        <time>2018-08-01T14:16:45Z</time>
      </trkpt>
      <trkpt lat="47.19387" lon="6.87809">
        <ele>640.923</ele>
        <time>2018-08-01T14:16:47Z</time>
      </trkpt>
      <trkpt lat="47.19381" lon="6.87808">
        <ele>641.489</ele>
        <time>2018-08-01T14:16:49Z</time>
      </trkpt>
      <trkpt lat="47.19376" lon="6.87807">
        <ele>641.806</ele>
        <time>2018-08-01T14:16:51Z</time>
      </trkpt>
      <trkpt lat="47.19371" lon="6.87807">
        <ele>642.326</ele>
        <time>2018-08-01T14:16:53Z</time>
      </trkpt>
      <trkpt lat="47.19366" lon="6.87806">
        <ele>642.808</ele>
        <time>2018-08-01T14:16:55Z</time>
      </trkpt>
      <trkpt lat="47.19361" lon="6.87804">
        <ele>643.01</ele>
        <time>2018-08-01T14:16:57Z</time>
      </trkpt>
      <trkpt lat="47.19355" lon="6.87802">
        <ele>643.525</ele>
        <time>2018-08-01T14:17:00Z</time>
      </trkpt>
      <trkpt lat="47.19351" lon="6.87799">
        <ele>644.039</ele>
        <time>2018-08-01T14:17:03Z</time>
      </trkpt>
      <trkpt lat="47.19348" lon="6.87792">
        <ele>644.621</ele>
        <time>2018-08-01T14:17:06Z</time>
      </trkpt>
      <trkpt lat="47.19345" lon="6.87787">
        <ele>644.977</ele>
        <time>2018-08-01T14:17:08Z</time>
      </trkpt>
      <trkpt lat="47.19341" lon="6.8778">
        <ele>645.224</ele>
        <time>2018-08-01T14:17:10Z</time>
      </trkpt>
      <trkpt lat="47.19336" lon="6.87772">
        <ele>645.469</ele>
        <time>2018-08-01T14:17:12Z</time>
      </trkpt>
      <trkpt lat="47.19332" lon="6.87768">
        <ele>646.048</ele>
        <time>2018-08-01T14:17:16Z</time>
      </trkpt>
      <trkpt lat="47.19325" lon="6.87764">
        <ele>646.471</ele>
        <time>2018-08-01T14:17:19Z</time>
      </trkpt>
      <trkpt lat="47.19318" lon="6.87762">
        <ele>646.741</ele>
        <time>2018-08-01T14:17:21Z</time>
      </trkpt>
      <trkpt lat="47.19312" lon="6.87756">
        <ele>647.115</ele>
        <time>2018-08-01T14:17:23Z</time>
      </trkpt>
      <trkpt lat="47.19308" lon="6.87752">
        <ele>647.308</ele>
        <time>2018-08-01T14:17:24Z</time>
      </trkpt>
      <trkpt lat="47.19304" lon="6.87744">
        <ele>647.579</ele>
        <time>2018-08-01T14:17:26Z</time>
      </trkpt>
      <trkpt lat="47.19302" lon="6.87738">
        <ele>647.924</ele>
        <time>2018-08-01T14:17:28Z</time>
      </trkpt>
      <trkpt lat="47.19298" lon="6.87731">
        <ele>648.388</ele>
        <time>2018-08-01T14:17:30Z</time>
      </trkpt>
      <trkpt lat="47.19293" lon="6.87725">
        <ele>648.85</ele>
        <time>2018-08-01T14:17:33Z</time>
      </trkpt>
      <trkpt lat="47.19289" lon="6.87719">
        <ele>649.016</ele>
        <time>2018-08-01T14:17:35Z</time>
      </trkpt>
      <trkpt lat="47.19285" lon="6.87712">
        <ele>649.383</ele>
        <time>2018-08-01T14:17:37Z</time>
      </trkpt>
      <trkpt lat="47.19282" lon="6.87704">
        <ele>649.858</ele>
        <time>2018-08-01T14:17:39Z</time>
      </trkpt>
      <trkpt lat="47.19279" lon="6.87695">
        <ele>650.387</ele>
        <time>2018-08-01T14:17:41Z</time>
      </trkpt>
      <trkpt lat="47.19276" lon="6.87689">
        <ele>650.646</ele>
        <time>2018-08-01T14:17:43Z</time>
      </trkpt>
      <trkpt lat="47.19273" lon="6.87683">
        <ele>651.088</ele>
        <time>2018-08-01T14:17:45Z</time>
      </trkpt>
      <trkpt lat="47.19269" lon="6.87679">
        <ele>651.616</ele>
        <time>2018-08-01T14:17:47Z</time>
      </trkpt>
      <trkpt lat="47.19265" lon="6.87675">
        <ele>652.208</ele>
        <time>2018-08-01T14:17:49Z</time>
      </trkpt>
      <trkpt lat="47.19261" lon="6.8767">
        <ele>652.846</ele>
        <time>2018-08-01T14:17:51Z</time>
      </trkpt>
      <trkpt lat="47.19259" lon="6.87663">
        <ele>653.361</ele>
        <time>2018-08-01T14:17:53Z</time>
      </trkpt>
      <trkpt lat="47.19256" lon="6.87653">
        <ele>653.875</ele>
        <time>2018-08-01T14:17:56Z</time>
      </trkpt>
      <trkpt lat="47.19254" lon="6.87646">
        <ele>654.427</ele>
        <time>2018-08-01T14:17:59Z</time>
      </trkpt>
      <trkpt lat="47.1925" lon="6.87638">
        <ele>654.813</ele>
        <time>2018-08-01T14:18:02Z</time>
      </trkpt>
      <trkpt lat="47.19245" lon="6.87636">
        <ele>655.14</ele>
        <time>2018-08-01T14:18:04Z</time>
      </trkpt>
      <trkpt lat="47.19238" lon="6.87635">
        <ele>655.515</ele>
        <time>2018-08-01T14:18:06Z</time>
      </trkpt>
      <trkpt lat="47.19231" lon="6.87636">
        <ele>655.954</ele>
        <time>2018-08-01T14:18:08Z</time>
      </trkpt>
      <trkpt lat="47.19225" lon="6.87636">
        <ele>656.325</ele>
        <time>2018-08-01T14:18:10Z</time>
      </trkpt>
      <trkpt lat="47.19218" lon="6.87635">
        <ele>656.926</ele>
        <time>2018-08-01T14:18:13Z</time>
      </trkpt>
      <trkpt lat="47.19213" lon="6.87633">
        <ele>657.308</ele>
        <time>2018-08-01T14:18:15Z</time>
      </trkpt>
      <trkpt lat="47.19207" lon="6.87633">
        <ele>657.708</ele>
        <time>2018-08-01T14:18:17Z</time>
      </trkpt>
      <trkpt lat="47.19202" lon="6.87633">
        <ele>658.134</ele>
        <time>2018-08-01T14:18:19Z</time>
      </trkpt>
      <trkpt lat="47.19197" lon="6.87632">
        <ele>658.579</ele>
        <time>2018-08-01T14:18:21Z</time>
      </trkpt>
      <trkpt lat="47.19192" lon="6.87633">
        <ele>658.933</ele>
        <time>2018-08-01T14:18:24Z</time>
      </trkpt>
      <trkpt lat="47.19187" lon="6.87635">
        <ele>659.345</ele>
        <time>2018-08-01T14:18:27Z</time>
      </trkpt>
      <trkpt lat="47.19182" lon="6.87637">
        <ele>659.751</ele>
        <time>2018-08-01T14:18:29Z</time>
      </trkpt>
      <trkpt lat="47.19176" lon="6.87639">
        <ele>660.148</ele>
        <time>2018-08-01T14:18:31Z</time>
      </trkpt>
      <trkpt lat="47.19168" lon="6.8764">
        <ele>660.583</ele>
        <time>2018-08-01T14:18:33Z</time>
      </trkpt>
      <trkpt lat="47.19161" lon="6.87641">
        <ele>660.922</ele>
        <time>2018-08-01T14:18:35Z</time>
      </trkpt>
      <trkpt lat="47.19155" lon="6.87639">
        <ele>661.298</ele>
        <time>2018-08-01T14:18:37Z</time>
      </trkpt>
      <trkpt lat="47.1915" lon="6.87635">
        <ele>661.515</ele>
        <time>2018-08-01T14:18:39Z</time>
      </trkpt>
      <trkpt lat="47.19145" lon="6.87631">
        <ele>661.926</ele>
        <time>2018-08-01T14:18:41Z</time>
      </trkpt>
      <trkpt lat="47.1914" lon="6.87628">
        <ele>662.208</ele>
        <time>2018-08-01T14:18:43Z</time>
      </trkpt>
      <trkpt lat="47.19136" lon="6.87623">
        <ele>662.591</ele>
        <time>2018-08-01T14:18:46Z</time>
      </trkpt>
      <trkpt lat="47.19133" lon="6.87614">
        <ele>662.746</ele>
        <time>2018-08-01T14:18:49Z</time>
      </trkpt>
      <trkpt lat="47.19131" lon="6.87606">
        <ele>663.08</ele>
        <time>2018-08-01T14:18:51Z</time>
      </trkpt>
      <trkpt lat="47.19129" lon="6.87597">
        <ele>663.332</ele>
        <time>2018-08-01T14:18:53Z</time>
      </trkpt>
      <trkpt lat="47.19126" lon="6.87588">
        <ele>663.658</ele>
        <time>2018-08-01T14:18:55Z</time>
      </trkpt>
      <trkpt lat="47.19122" lon="6.87582">
        <ele>663.825</ele>
        <time>2018-08-01T14:18:57Z</time>
      </trkpt>
      <trkpt lat="47.19116" lon="6.87577">
        <ele>664.04</ele>
        <time>2018-08-01T14:18:59Z</time>
      </trkpt>
      <trkpt lat="47.1911" lon="6.87576">
        <ele>664.239</ele>
        <time>2018-08-01T14:19:01Z</time>
      </trkpt>
      <trkpt lat="47.19104" lon="6.87575">
        <ele>664.664</ele>
        <time>2018-08-01T14:19:04Z</time>
      </trkpt>
      <trkpt lat="47.19097" lon="6.87574">
        <ele>664.906</ele>
        <time>2018-08-01T14:19:06Z</time>
      </trkpt>
      <trkpt lat="47.19091" lon="6.87572">
        <ele>665.216</ele>
        <time>2018-08-01T14:19:08Z</time>
      </trkpt>
      <trkpt lat="47.19085" lon="6.8757">
        <ele>665.508</ele>
        <time>2018-08-01T14:19:10Z</time>
      </trkpt>
      <trkpt lat="47.19079" lon="6.87568">
        <ele>665.878</ele>
        <time>2018-08-01T14:19:12Z</time>
      </trkpt>
      <trkpt lat="47.19071" lon="6.87566">
        <ele>666.183</ele>
        <time>2018-08-01T14:19:14Z</time>
      </trkpt>
      <trkpt lat="47.19064" lon="6.87565">
        <ele>666.477</ele>
        <time>2018-08-01T14:19:16Z</time>
      </trkpt>
      <trkpt lat="47.19058" lon="6.87565">
        <ele>666.639</ele>
        <time>2018-08-01T14:19:18Z</time>
      </trkpt>
      <trkpt lat="47.19051" lon="6.87566">
        <ele>667.075</ele>
        <time>2018-08-01T14:19:20Z</time>
      </trkpt>
      <trkpt lat="47.19044" lon="6.87566">
        <ele>667.432</ele>
        <time>2018-08-01T14:19:22Z</time>
      </trkpt>
      <trkpt lat="47.19038" lon="6.87567">
        <ele>667.757</ele>
        <time>2018-08-01T14:19:24Z</time>
      </trkpt>
      <trkpt lat="47.1903" lon="6.87569">
        <ele>668.126</ele>
        <time>2018-08-01T14:19:26Z</time>
      </trkpt>
      <trkpt lat="47.19024" lon="6.87568">
        <ele>668.572</ele>
        <time>2018-08-01T14:19:28Z</time>
      </trkpt>
      <trkpt lat="47.19019" lon="6.87568">
        <ele>668.913</ele>
        <time>2018-08-01T14:19:30Z</time>
      </trkpt>
      <trkpt lat="47.19014" lon="6.87569">
        <ele>669.314</ele>
        <time>2018-08-01T14:19:32Z</time>
      </trkpt>
      <trkpt lat="47.19009" lon="6.8757">
        <ele>669.608</ele>
        <time>2018-08-01T14:19:34Z</time>
      </trkpt>
      <trkpt lat="47.19004" lon="6.8757">
        <ele>670.049</ele>
        <time>2018-08-01T14:19:36Z</time>
      </trkpt>
      <trkpt lat="47.18997" lon="6.8757">
        <ele>670.584</ele>
        <time>2018-08-01T14:19:39Z</time>
      </trkpt>
      <trkpt lat="47.18992" lon="6.87568">
        <ele>670.728</ele>
        <time>2018-08-01T14:19:41Z</time>
      </trkpt>
      <trkpt lat="47.18988" lon="6.87564">
        <ele>670.98</ele>
        <time>2018-08-01T14:19:43Z</time>
      </trkpt>
      <trkpt lat="47.18983" lon="6.87562">
        <ele>671.086</ele>
        <time>2018-08-01T14:19:45Z</time>
      </trkpt>
      <trkpt lat="47.18977" lon="6.87561">
        <ele>671.363</ele>
        <time>2018-08-01T14:19:47Z</time>
      </trkpt>
      <trkpt lat="47.18971" lon="6.87562">
        <ele>671.698</ele>
        <time>2018-08-01T14:19:49Z</time>
      </trkpt>
      <trkpt lat="47.18966" lon="6.87563">
        <ele>672.057</ele>
        <time>2018-08-01T14:19:51Z</time>
      </trkpt>
      <trkpt lat="47.1896" lon="6.87564">
        <ele>672.356</ele>
        <time>2018-08-01T14:19:53Z</time>
      </trkpt>
      <trkpt lat="47.18954" lon="6.87566">
        <ele>672.659</ele>
        <time>2018-08-01T14:19:55Z</time>
      </trkpt>
      <trkpt lat="47.18949" lon="6.87567">
        <ele>672.914</ele>
        <time>2018-08-01T14:19:57Z</time>
      </trkpt>
      <trkpt lat="47.18944" lon="6.87566">
        <ele>673.208</ele>
        <time>2018-08-01T14:19:59Z</time>
      </trkpt>
      <trkpt lat="47.18939" lon="6.87562">
        <ele>673.427</ele>
        <time>2018-08-01T14:20:02Z</time>
      </trkpt>
      <trkpt lat="47.18934" lon="6.87559">
        <ele>673.552</ele>
        <time>2018-08-01T14:20:04Z</time>
      </trkpt>
      <trkpt lat="47.18928" lon="6.87557">
        <ele>673.776</ele>
        <time>2018-08-01T14:20:06Z</time>
      </trkpt>
      <trkpt lat="47.18922" lon="6.87557">
        <ele>674.058</ele>
        <time>2018-08-01T14:20:08Z</time>
      </trkpt>
      <trkpt lat="47.18916" lon="6.87555">
        <ele>674.134</ele>
        <time>2018-08-01T14:20:10Z</time>
      </trkpt>
      <trkpt lat="47.18911" lon="6.87553">
        <ele>674.031</ele>
        <time>2018-08-01T14:20:12Z</time>
      </trkpt>
      <trkpt lat="47.18905" lon="6.87549">
        <ele>673.926</ele>
        <time>2018-08-01T14:20:14Z</time>
      </trkpt>
      <trkpt lat="47.18899" lon="6.87545">
        <ele>673.825</ele>
        <time>2018-08-01T14:20:16Z</time>
      </trkpt>
      <trkpt lat="47.18894" lon="6.87541">
        <ele>673.741</ele>
        <time>2018-08-01T14:20:18Z</time>
      </trkpt>
      <trkpt lat="47.18888" lon="6.87538">
        <ele>673.781</ele>
        <time>2018-08-01T14:20:20Z</time>
      </trkpt>
      <trkpt lat="47.18882" lon="6.87533">
        <ele>673.809</ele>
        <time>2018-08-01T14:20:22Z</time>
      </trkpt>
      <trkpt lat="47.18876" lon="6.87531">
        <ele>673.908</ele>
        <time>2018-08-01T14:20:24Z</time>
      </trkpt>
      <trkpt lat="47.18871" lon="6.87531">
        <ele>673.936</ele>
        <time>2018-08-01T14:20:26Z</time>
      </trkpt>
      <trkpt lat="47.18865" lon="6.87533">
        <ele>673.941</ele>
        <time>2018-08-01T14:20:28Z</time>
      </trkpt>
      <trkpt lat="47.1886" lon="6.87536">
        <ele>673.815</ele>
        <time>2018-08-01T14:20:30Z</time>
      </trkpt>
      <trkpt lat="47.18853" lon="6.87541">
        <ele>673.627</ele>
        <time>2018-08-01T14:20:32Z</time>
      </trkpt>
      <trkpt lat="47.18847" lon="6.87544">
        <ele>673.453</ele>
        <time>2018-08-01T14:20:34Z</time>
      </trkpt>
      <trkpt lat="47.18841" lon="6.87544">
        <ele>673.24</ele>
        <time>2018-08-01T14:20:36Z</time>
      </trkpt>
      <trkpt lat="47.18836" lon="6.87543">
        <ele>672.975</ele>
        <time>2018-08-01T14:20:38Z</time>
      </trkpt>
      <trkpt lat="47.18831" lon="6.87547">
        <ele>672.724</ele>
        <time>2018-08-01T14:20:41Z</time>
      </trkpt>
      <trkpt lat="47.18824" lon="6.8755">
        <ele>673.047</ele>
        <time>2018-08-01T14:20:44Z</time>
      </trkpt>
      <trkpt lat="47.18819" lon="6.87548">
        <ele>673.429</ele>
        <time>2018-08-01T14:20:46Z</time>
      </trkpt>
      <trkpt lat="47.18813" lon="6.87546">
        <ele>673.721</ele>
        <time>2018-08-01T14:20:48Z</time>
      </trkpt>
      <trkpt lat="47.18808" lon="6.87544">
        <ele>673.708</ele>
        <time>2018-08-01T14:20:50Z</time>
      </trkpt>
      <trkpt lat="47.18799" lon="6.87539">
        <ele>673.786</ele>
        <time>2018-08-01T14:20:52Z</time>
      </trkpt>
      <trkpt lat="47.18792" lon="6.87537">
        <ele>673.741</ele>
        <time>2018-08-01T14:20:54Z</time>
      </trkpt>
      <trkpt lat="47.18785" lon="6.87535">
        <ele>673.985</ele>
        <time>2018-08-01T14:20:56Z</time>
      </trkpt>
      <trkpt lat="47.1878" lon="6.87532">
        <ele>674.137</ele>
        <time>2018-08-01T14:20:58Z</time>
      </trkpt>
      <trkpt lat="47.18772" lon="6.8753">
        <ele>674.153</ele>
        <time>2018-08-01T14:21:00Z</time>
      </trkpt>
      <trkpt lat="47.18767" lon="6.87528">
        <ele>674.05</ele>
        <time>2018-08-01T14:21:01Z</time>
      </trkpt>
      <trkpt lat="47.18762" lon="6.87528">
        <ele>673.825</ele>
        <time>2018-08-01T14:21:02Z</time>
      </trkpt>
      <trkpt lat="47.18754" lon="6.8753">
        <ele>673.464</ele>
        <time>2018-08-01T14:21:04Z</time>
      </trkpt>
      <trkpt lat="47.18747" lon="6.87535">
        <ele>673.126</ele>
        <time>2018-08-01T14:21:06Z</time>
      </trkpt>
      <trkpt lat="47.18739" lon="6.8754">
        <ele>672.847</ele>
        <time>2018-08-01T14:21:08Z</time>
      </trkpt>
      <trkpt lat="47.18732" lon="6.87544">
        <ele>672.711</ele>
        <time>2018-08-01T14:21:10Z</time>
      </trkpt>
      <trkpt lat="47.18723" lon="6.87544">
        <ele>672.508</ele>
        <time>2018-08-01T14:21:12Z</time>
      </trkpt>
      <trkpt lat="47.18717" lon="6.87547">
        <ele>672.354</ele>
        <time>2018-08-01T14:21:14Z</time>
      </trkpt>
      <trkpt lat="47.1871" lon="6.87548">
        <ele>672.149</ele>
        <time>2018-08-01T14:21:16Z</time>
      </trkpt>
      <trkpt lat="47.18705" lon="6.87547">
        <ele>672.073</ele>
        <time>2018-08-01T14:21:18Z</time>
      </trkpt>
      <trkpt lat="47.18698" lon="6.87544">
        <ele>671.855</ele>
        <time>2018-08-01T14:21:20Z</time>
      </trkpt>
      <trkpt lat="47.1869" lon="6.87543">
        <ele>671.881</ele>
        <time>2018-08-01T14:21:22Z</time>
      </trkpt>
      <trkpt lat="47.18683" lon="6.87543">
        <ele>671.718</ele>
        <time>2018-08-01T14:21:24Z</time>
      </trkpt>
      <trkpt lat="47.18676" lon="6.87542">
        <ele>671.633</ele>
        <time>2018-08-01T14:21:26Z</time>
      </trkpt>
      <trkpt lat="47.18671" lon="6.87542">
        <ele>671.442</ele>
        <time>2018-08-01T14:21:28Z</time>
      </trkpt>
      <trkpt lat="47.18667" lon="6.87538">
        <ele>671.176</ele>
        <time>2018-08-01T14:21:37Z</time>
      </trkpt>
      <trkpt lat="47.18662" lon="6.87536">
        <ele>670.89</ele>
        <time>2018-08-01T14:22:00Z</time>
      </trkpt>
      <trkpt lat="47.18657" lon="6.87525">
        <ele>670.719</ele>
        <time>2018-08-01T14:22:11Z</time>
      </trkpt>
      <trkpt lat="47.18651" lon="6.87525">
        <ele>670.508</ele>
        <time>2018-08-01T14:22:42Z</time>
      </trkpt>
      <trkpt lat="47.18645" lon="6.87524">
        <ele>670.039</ele>
        <time>2018-08-01T14:23:04Z</time>
      </trkpt>
      <trkpt lat="47.18639" lon="6.87523">
        <ele>670.074</ele>
        <time>2018-08-01T14:23:06Z</time>
      </trkpt>
      <trkpt lat="47.18631" lon="6.87519">
        <ele>669.978</ele>
        <time>2018-08-01T14:23:08Z</time>
      </trkpt>
      <trkpt lat="47.18624" lon="6.87517">
        <ele>669.88</ele>
        <time>2018-08-01T14:23:10Z</time>
      </trkpt>
      <trkpt lat="47.18617" lon="6.87519">
        <ele>669.756</ele>
        <time>2018-08-01T14:23:12Z</time>
      </trkpt>
      <trkpt lat="47.1861" lon="6.87522">
        <ele>669.553</ele>
        <time>2018-08-01T14:23:14Z</time>
      </trkpt>
      <trkpt lat="47.18603" lon="6.87525">
        <ele>669.358</ele>
        <time>2018-08-01T14:23:16Z</time>
      </trkpt>
      <trkpt lat="47.18596" lon="6.87528">
        <ele>669.147</ele>
        <time>2018-08-01T14:23:18Z</time>
      </trkpt>
      <trkpt lat="47.1859" lon="6.87531">
        <ele>669.033</ele>
        <time>2018-08-01T14:23:20Z</time>
      </trkpt>
      <trkpt lat="47.18585" lon="6.87534">
        <ele>668.923</ele>
        <time>2018-08-01T14:23:22Z</time>
      </trkpt>
      <trkpt lat="47.18579" lon="6.87537">
        <ele>668.715</ele>
        <time>2018-08-01T14:23:24Z</time>
      </trkpt>
      <trkpt lat="47.18571" lon="6.8754">
        <ele>668.508</ele>
        <time>2018-08-01T14:23:26Z</time>
      </trkpt>
      <trkpt lat="47.18564" lon="6.87544">
        <ele>668.335</ele>
        <time>2018-08-01T14:23:28Z</time>
      </trkpt>
      <trkpt lat="47.18558" lon="6.87553">
        <ele>668.13</ele>
        <time>2018-08-01T14:23:30Z</time>
      </trkpt>
      <trkpt lat="47.18553" lon="6.87555">
        <ele>668.194</ele>
        <time>2018-08-01T14:23:31Z</time>
      </trkpt>
      <trkpt lat="47.18547" lon="6.87556">
        <ele>667.936</ele>
        <time>2018-08-01T14:23:32Z</time>
      </trkpt>
      <trkpt lat="47.18542" lon="6.8756">
        <ele>667.762</ele>
        <time>2018-08-01T14:23:33Z</time>
      </trkpt>
      <trkpt lat="47.18538" lon="6.87563">
        <ele>667.579</ele>
        <time>2018-08-01T14:23:34Z</time>
      </trkpt>
      <trkpt lat="47.18534" lon="6.87566">
        <ele>667.284</ele>
        <time>2018-08-01T14:23:35Z</time>
      </trkpt>
      <trkpt lat="47.18527" lon="6.87568">
        <ele>666.953</ele>
        <time>2018-08-01T14:23:36Z</time>
      </trkpt>
      <trkpt lat="47.18521" lon="6.87577">
        <ele>666.336</ele>
        <time>2018-08-01T14:23:38Z</time>
      </trkpt>
      <trkpt lat="47.18514" lon="6.87586">
        <ele>665.617</ele>
        <time>2018-08-01T14:23:40Z</time>
      </trkpt>
      <trkpt lat="47.18508" lon="6.87595">
        <ele>664.818</ele>
        <time>2018-08-01T14:23:42Z</time>
      </trkpt>
      <trkpt lat="47.18506" lon="6.87601">
        <ele>664.308</ele>
        <time>2018-08-01T14:23:43Z</time>
      </trkpt>
      <trkpt lat="47.18501" lon="6.87604">
        <ele>663.045</ele>
        <time>2018-08-01T14:23:45Z</time>
      </trkpt>
      <trkpt lat="47.18494" lon="6.876">
        <ele>661.95</ele>
        <time>2018-08-01T14:23:47Z</time>
      </trkpt>
      <trkpt lat="47.1849" lon="6.87596">
        <ele>661.444</ele>
        <time>2018-08-01T14:23:49Z</time>
      </trkpt>
      <trkpt lat="47.18485" lon="6.8759">
        <ele>661.666</ele>
        <time>2018-08-01T14:23:51Z</time>
      </trkpt>
      <trkpt lat="47.18481" lon="6.87584">
        <ele>662.072</ele>
        <time>2018-08-01T14:23:53Z</time>
      </trkpt>
      <trkpt lat="47.18479" lon="6.87577">
        <ele>662.379</ele>
        <time>2018-08-01T14:23:55Z</time>
      </trkpt>
      <trkpt lat="47.18477" lon="6.87571">
        <ele>662.574</ele>
        <time>2018-08-01T14:23:57Z</time>
      </trkpt>
      <trkpt lat="47.18475" lon="6.87564">
        <ele>662.783</ele>
        <time>2018-08-01T14:23:59Z</time>
      </trkpt>
      <trkpt lat="47.18472" lon="6.87557">
        <ele>663.135</ele>
        <time>2018-08-01T14:24:01Z</time>
      </trkpt>
      <trkpt lat="47.18469" lon="6.8755">
        <ele>663.786</ele>
        <time>2018-08-01T14:24:03Z</time>
      </trkpt>
      <trkpt lat="47.18466" lon="6.87543">
        <ele>664.814</ele>
        <time>2018-08-01T14:24:06Z</time>
      </trkpt>
      <trkpt lat="47.18465" lon="6.87535">
        <ele>666.708</ele>
        <time>2018-08-01T14:24:36Z</time>
      </trkpt>
      <trkpt lat="47.18465" lon="6.87528">
        <ele>667.035</ele>
        <time>2018-08-01T14:24:59Z</time>
      </trkpt>
      <trkpt lat="47.18462" lon="6.87522">
        <ele>667.33</ele>
        <time>2018-08-01T14:25:09Z</time>
      </trkpt>
      <trkpt lat="47.1846" lon="6.87514">
        <ele>667.624</ele>
        <time>2018-08-01T14:25:12Z</time>
      </trkpt>
      <trkpt lat="47.18459" lon="6.87506">
        <ele>667.796</ele>
        <time>2018-08-01T14:25:15Z</time>
      </trkpt>
      <trkpt lat="47.18458" lon="6.87498">
        <ele>667.582</ele>
        <time>2018-08-01T14:25:17Z</time>
      </trkpt>
      <trkpt lat="47.18458" lon="6.87489">
        <ele>667.179</ele>
        <time>2018-08-01T14:25:19Z</time>
      </trkpt>
      <trkpt lat="47.18458" lon="6.87478">
        <ele>666.774</ele>
        <time>2018-08-01T14:25:21Z</time>
      </trkpt>
      <trkpt lat="47.18456" lon="6.87465">
        <ele>666.323</ele>
        <time>2018-08-01T14:25:23Z</time>
      </trkpt>
      <trkpt lat="47.18453" lon="6.87457">
        <ele>666.381</ele>
        <time>2018-08-01T14:25:24Z</time>
      </trkpt>
      <trkpt lat="47.18452" lon="6.8745">
        <ele>666.161</ele>
        <time>2018-08-01T14:25:25Z</time>
      </trkpt>
      <trkpt lat="47.1845" lon="6.87443">
        <ele>666.117</ele>
        <time>2018-08-01T14:25:26Z</time>
      </trkpt>
      <trkpt lat="47.18447" lon="6.8743">
        <ele>665.908</ele>
        <time>2018-08-01T14:25:28Z</time>
      </trkpt>
      <trkpt lat="47.18445" lon="6.87423">
        <ele>665.89</ele>
        <time>2018-08-01T14:25:29Z</time>
      </trkpt>
      <trkpt lat="47.18442" lon="6.87415">
        <ele>665.745</ele>
        <time>2018-08-01T14:25:30Z</time>
      </trkpt>
      <trkpt lat="47.18439" lon="6.8741">
        <ele>665.529</ele>
        <time>2018-08-01T14:25:31Z</time>
      </trkpt>
      <trkpt lat="47.18436" lon="6.87399">
        <ele>665.271</ele>
        <time>2018-08-01T14:25:33Z</time>
      </trkpt>
      <trkpt lat="47.18432" lon="6.8739">
        <ele>665.047</ele>
        <time>2018-08-01T14:25:35Z</time>
      </trkpt>
      <trkpt lat="47.18429" lon="6.87381">
        <ele>664.844</ele>
        <time>2018-08-01T14:25:37Z</time>
      </trkpt>
      <trkpt lat="47.18424" lon="6.87371">
        <ele>664.839</ele>
        <time>2018-08-01T14:25:39Z</time>
      </trkpt>
      <trkpt lat="47.18421" lon="6.87362">
        <ele>665.068</ele>
        <time>2018-08-01T14:25:41Z</time>
      </trkpt>
      <trkpt lat="47.18416" lon="6.87352">
        <ele>665.377</ele>
        <time>2018-08-01T14:25:43Z</time>
      </trkpt>
      <trkpt lat="47.18412" lon="6.87343">
        <ele>665.561</ele>
        <time>2018-08-01T14:25:45Z</time>
      </trkpt>
      <trkpt lat="47.18406" lon="6.87333">
        <ele>665.627</ele>
        <time>2018-08-01T14:25:47Z</time>
      </trkpt>
      <trkpt lat="47.18402" lon="6.87323">
        <ele>665.508</ele>
        <time>2018-08-01T14:25:49Z</time>
      </trkpt>
      <trkpt lat="47.18397" lon="6.87313">
        <ele>665.479</ele>
        <time>2018-08-01T14:25:51Z</time>
      </trkpt>
      <trkpt lat="47.18395" lon="6.873">
        <ele>665.364</ele>
        <time>2018-08-01T14:25:53Z</time>
      </trkpt>
      <trkpt lat="47.18397" lon="6.8729">
        <ele>665.168</ele>
        <time>2018-08-01T14:25:55Z</time>
      </trkpt>
      <trkpt lat="47.18401" lon="6.8728">
        <ele>664.89</ele>
        <time>2018-08-01T14:25:57Z</time>
      </trkpt>
      <trkpt lat="47.18405" lon="6.87275">
        <ele>664.766</ele>
        <time>2018-08-01T14:25:58Z</time>
      </trkpt>
      <trkpt lat="47.18409" lon="6.87267">
        <ele>664.893</ele>
        <time>2018-08-01T14:26:00Z</time>
      </trkpt>
      <trkpt lat="47.18412" lon="6.87256">
        <ele>665.128</ele>
        <time>2018-08-01T14:26:02Z</time>
      </trkpt>
      <trkpt lat="47.18414" lon="6.87247">
        <ele>665.577</ele>
        <time>2018-08-01T14:26:04Z</time>
      </trkpt>
      <trkpt lat="47.18418" lon="6.87238">
        <ele>665.782</ele>
        <time>2018-08-01T14:26:06Z</time>
      </trkpt>
      <trkpt lat="47.1842" lon="6.8723">
        <ele>665.943</ele>
        <time>2018-08-01T14:26:08Z</time>
      </trkpt>
      <trkpt lat="47.18422" lon="6.87221">
        <ele>666.017</ele>
        <time>2018-08-01T14:26:10Z</time>
      </trkpt>
      <trkpt lat="47.18424" lon="6.8721">
        <ele>666.108</ele>
        <time>2018-08-01T14:26:12Z</time>
      </trkpt>
      <trkpt lat="47.18426" lon="6.87203">
        <ele>666.11</ele>
        <time>2018-08-01T14:26:14Z</time>
      </trkpt>
      <trkpt lat="47.18427" lon="6.87193">
        <ele>666.145</ele>
        <time>2018-08-01T14:26:16Z</time>
      </trkpt>
      <trkpt lat="47.18428" lon="6.87181">
        <ele>666.039</ele>
        <time>2018-08-01T14:26:18Z</time>
      </trkpt>
      <trkpt lat="47.18427" lon="6.8717">
        <ele>665.881</ele>
        <time>2018-08-01T14:26:20Z</time>
      </trkpt>
      <trkpt lat="47.18425" lon="6.87163">
        <ele>665.887</ele>
        <time>2018-08-01T14:26:21Z</time>
      </trkpt>
      <trkpt lat="47.18424" lon="6.87156">
        <ele>665.814</ele>
        <time>2018-08-01T14:26:22Z</time>
      </trkpt>
      <trkpt lat="47.18421" lon="6.87146">
        <ele>665.969</ele>
        <time>2018-08-01T14:26:24Z</time>
      </trkpt>
      <trkpt lat="47.18418" lon="6.87133">
        <ele>665.948</ele>
        <time>2018-08-01T14:26:26Z</time>
      </trkpt>
      <trkpt lat="47.18417" lon="6.87127">
        <ele>665.941</ele>
        <time>2018-08-01T14:26:27Z</time>
      </trkpt>
      <trkpt lat="47.18415" lon="6.8712">
        <ele>665.981</ele>
        <time>2018-08-01T14:26:28Z</time>
      </trkpt>
      <trkpt lat="47.18414" lon="6.87113">
        <ele>666.009</ele>
        <time>2018-08-01T14:26:29Z</time>
      </trkpt>
      <trkpt lat="47.18413" lon="6.87101">
        <ele>666.308</ele>
        <time>2018-08-01T14:26:31Z</time>
      </trkpt>
      <trkpt lat="47.18412" lon="6.8709">
        <ele>666.696</ele>
        <time>2018-08-01T14:26:33Z</time>
      </trkpt>
      <trkpt lat="47.18412" lon="6.87079">
        <ele>666.961</ele>
        <time>2018-08-01T14:26:35Z</time>
      </trkpt>
      <trkpt lat="47.18413" lon="6.87068">
        <ele>667.485</ele>
        <time>2018-08-01T14:26:37Z</time>
      </trkpt>
      <trkpt lat="47.18414" lon="6.8706">
        <ele>668.037</ele>
        <time>2018-08-01T14:26:39Z</time>
      </trkpt>
      <trkpt lat="47.18412" lon="6.87052">
        <ele>668.583</ele>
        <time>2018-08-01T14:26:41Z</time>
      </trkpt>
      <trkpt lat="47.18411" lon="6.87043">
        <ele>669.14</ele>
        <time>2018-08-01T14:26:43Z</time>
      </trkpt>
      <trkpt lat="47.18412" lon="6.87032">
        <ele>669.575</ele>
        <time>2018-08-01T14:26:45Z</time>
      </trkpt>
      <trkpt lat="47.18411" lon="6.87022">
        <ele>670.294</ele>
        <time>2018-08-01T14:26:47Z</time>
      </trkpt>
      <trkpt lat="47.18409" lon="6.87013">
        <ele>670.842</ele>
        <time>2018-08-01T14:26:49Z</time>
      </trkpt>
      <trkpt lat="47.18407" lon="6.87004">
        <ele>671.322</ele>
        <time>2018-08-01T14:26:51Z</time>
      </trkpt>
      <trkpt lat="47.18407" lon="6.86993">
        <ele>671.714</ele>
        <time>2018-08-01T14:26:53Z</time>
      </trkpt>
      <trkpt lat="47.18406" lon="6.86985">
        <ele>672.008</ele>
        <time>2018-08-01T14:26:55Z</time>
      </trkpt>
      <trkpt lat="47.18405" lon="6.86977">
        <ele>672.356</ele>
        <time>2018-08-01T14:26:57Z</time>
      </trkpt>
      <trkpt lat="47.18402" lon="6.86967">
        <ele>672.641</ele>
        <time>2018-08-01T14:26:59Z</time>
      </trkpt>
      <trkpt lat="47.184" lon="6.86956">
        <ele>672.825</ele>
        <time>2018-08-01T14:27:01Z</time>
      </trkpt>
      <trkpt lat="47.18398" lon="6.86946">
        <ele>672.917</ele>
        <time>2018-08-01T14:27:03Z</time>
      </trkpt>
      <trkpt lat="47.18397" lon="6.86933">
        <ele>673.063</ele>
        <time>2018-08-01T14:27:05Z</time>
      </trkpt>
      <trkpt lat="47.18397" lon="6.86923">
        <ele>673.02</ele>
        <time>2018-08-01T14:27:06Z</time>
      </trkpt>
      <trkpt lat="47.18397" lon="6.86916">
        <ele>673.065</ele>
        <time>2018-08-01T14:27:07Z</time>
      </trkpt>
      <trkpt lat="47.18395" lon="6.86903">
        <ele>673.054</ele>
        <time>2018-08-01T14:27:09Z</time>
      </trkpt>
      <trkpt lat="47.18394" lon="6.86897">
        <ele>672.947</ele>
        <time>2018-08-01T14:27:10Z</time>
      </trkpt>
      <trkpt lat="47.18391" lon="6.8689">
        <ele>672.929</ele>
        <time>2018-08-01T14:27:11Z</time>
      </trkpt>
      <trkpt lat="47.18389" lon="6.86878">
        <ele>673.021</ele>
        <time>2018-08-01T14:27:13Z</time>
      </trkpt>
      <trkpt lat="47.18388" lon="6.86871">
        <ele>673.008</ele>
        <time>2018-08-01T14:27:14Z</time>
      </trkpt>
      <trkpt lat="47.18385" lon="6.86859">
        <ele>673.396</ele>
        <time>2018-08-01T14:27:16Z</time>
      </trkpt>
      <trkpt lat="47.1838" lon="6.86848">
        <ele>673.671</ele>
        <time>2018-08-01T14:27:18Z</time>
      </trkpt>
      <trkpt lat="47.18377" lon="6.86841">
        <ele>673.845</ele>
        <time>2018-08-01T14:27:20Z</time>
      </trkpt>
      <trkpt lat="47.18372" lon="6.86835">
        <ele>674.477</ele>
        <time>2018-08-01T14:27:23Z</time>
      </trkpt>
      <trkpt lat="47.18368" lon="6.86841">
        <ele>676.063</ele>
        <time>2018-08-01T14:27:28Z</time>
      </trkpt>
      <trkpt lat="47.18365" lon="6.86848">
        <ele>678.05</ele>
        <time>2018-08-01T14:27:36Z</time>
      </trkpt>
      <trkpt lat="47.1836" lon="6.86848">
        <ele>677.815</ele>
        <time>2018-08-01T14:28:22Z</time>
      </trkpt>
      <trkpt lat="47.18355" lon="6.86846">
        <ele>678.134</ele>
        <time>2018-08-01T14:28:28Z</time>
      </trkpt>
      <trkpt lat="47.18351" lon="6.8684">
        <ele>679.065</ele>
        <time>2018-08-01T14:28:32Z</time>
      </trkpt>
      <trkpt lat="47.18347" lon="6.86837">
        <ele>680.468</ele>
        <time>2018-08-01T14:28:35Z</time>
      </trkpt>
      <trkpt lat="47.18342" lon="6.86832">
        <ele>682.114</ele>
        <time>2018-08-01T14:28:39Z</time>
      </trkpt>
      <trkpt lat="47.18338" lon="6.86828">
        <ele>683.208</ele>
        <time>2018-08-01T14:28:41Z</time>
      </trkpt>
      <trkpt lat="47.18334" lon="6.8682">
        <ele>685.078</ele>
        <time>2018-08-01T14:28:44Z</time>
      </trkpt>
      <trkpt lat="47.1833" lon="6.86811">
        <ele>687.083</ele>
        <time>2018-08-01T14:28:47Z</time>
      </trkpt>
      <trkpt lat="47.18326" lon="6.86804">
        <ele>687.987</ele>
        <time>2018-08-01T14:28:49Z</time>
      </trkpt>
      <trkpt lat="47.18322" lon="6.86799">
        <ele>688.499</ele>
        <time>2018-08-01T14:28:51Z</time>
      </trkpt>
      <trkpt lat="47.1832" lon="6.86793">
        <ele>689.135</ele>
        <time>2018-08-01T14:28:54Z</time>
      </trkpt>
      <trkpt lat="47.18319" lon="6.86783">
        <ele>690.122</ele>
        <time>2018-08-01T14:28:57Z</time>
      </trkpt>
      <trkpt lat="47.18319" lon="6.86775">
        <ele>690.637</ele>
        <time>2018-08-01T14:28:59Z</time>
      </trkpt>
      <trkpt lat="47.18319" lon="6.86768">
        <ele>690.856</ele>
        <time>2018-08-01T14:29:01Z</time>
      </trkpt>
      <trkpt lat="47.18317" lon="6.86759">
        <ele>690.952</ele>
        <time>2018-08-01T14:29:04Z</time>
      </trkpt>
      <trkpt lat="47.18314" lon="6.86753">
        <ele>691.053</ele>
        <time>2018-08-01T14:29:07Z</time>
      </trkpt>
      <trkpt lat="47.18309" lon="6.86749">
        <ele>691.508</ele>
        <time>2018-08-01T14:29:10Z</time>
      </trkpt>
      <trkpt lat="47.18303" lon="6.86746">
        <ele>692.208</ele>
        <time>2018-08-01T14:29:13Z</time>
      </trkpt>
      <trkpt lat="47.18299" lon="6.86743">
        <ele>692.627</ele>
        <time>2018-08-01T14:29:16Z</time>
      </trkpt>
      <trkpt lat="47.18294" lon="6.86738">
        <ele>692.662</ele>
        <time>2018-08-01T14:29:19Z</time>
      </trkpt>
      <trkpt lat="47.18289" lon="6.86734">
        <ele>692.566</ele>
        <time>2018-08-01T14:29:22Z</time>
      </trkpt>
      <trkpt lat="47.18284" lon="6.8673">
        <ele>692.458</ele>
        <time>2018-08-01T14:29:24Z</time>
      </trkpt>
      <trkpt lat="47.18279" lon="6.86725">
        <ele>692.194</ele>
        <time>2018-08-01T14:29:26Z</time>
      </trkpt>
      <trkpt lat="47.18271" lon="6.8672">
        <ele>691.821</ele>
        <time>2018-08-01T14:29:28Z</time>
      </trkpt>
      <trkpt lat="47.18267" lon="6.86716">
        <ele>691.656</ele>
        <time>2018-08-01T14:29:29Z</time>
      </trkpt>
      <trkpt lat="47.18263" lon="6.86713">
        <ele>691.455</ele>
        <time>2018-08-01T14:29:30Z</time>
      </trkpt>
      <trkpt lat="47.18255" lon="6.86708">
        <ele>691.125</ele>
        <time>2018-08-01T14:29:32Z</time>
      </trkpt>
      <trkpt lat="47.18248" lon="6.86705">
        <ele>691.026</ele>
        <time>2018-08-01T14:29:34Z</time>
      </trkpt>
      <trkpt lat="47.18244" lon="6.86703">
        <ele>690.908</ele>
        <time>2018-08-01T14:29:36Z</time>
      </trkpt>
      <trkpt lat="47.18236" lon="6.86701">
        <ele>690.908</ele>
        <time>2018-08-01T14:29:38Z</time>
      </trkpt>
      <trkpt lat="47.18231" lon="6.86699">
        <ele>690.964</ele>
        <time>2018-08-01T14:29:39Z</time>
      </trkpt>
      <trkpt lat="47.18227" lon="6.86696">
        <ele>690.949</ele>
        <time>2018-08-01T14:29:40Z</time>
      </trkpt>
      <trkpt lat="47.18219" lon="6.86692">
        <ele>691.283</ele>
        <time>2018-08-01T14:29:42Z</time>
      </trkpt>
      <trkpt lat="47.18213" lon="6.86692">
        <ele>691.655</ele>
        <time>2018-08-01T14:29:44Z</time>
      </trkpt>
      <trkpt lat="47.18208" lon="6.86693">
        <ele>692.071</ele>
        <time>2018-08-01T14:29:47Z</time>
      </trkpt>
      <trkpt lat="47.18203" lon="6.86692">
        <ele>692.388</ele>
        <time>2018-08-01T14:29:49Z</time>
      </trkpt>
      <trkpt lat="47.18197" lon="6.8669">
        <ele>692.933</ele>
        <time>2018-08-01T14:29:52Z</time>
      </trkpt>
      <trkpt lat="47.1819" lon="6.86685">
        <ele>693.042</ele>
        <time>2018-08-01T14:29:54Z</time>
      </trkpt>
      <trkpt lat="47.18182" lon="6.86679">
        <ele>693.022</ele>
        <time>2018-08-01T14:29:56Z</time>
      </trkpt>
      <trkpt lat="47.18177" lon="6.86675">
        <ele>692.862</ele>
        <time>2018-08-01T14:29:57Z</time>
      </trkpt>
      <trkpt lat="47.1817" lon="6.86664">
        <ele>692.608</ele>
        <time>2018-08-01T14:29:58Z</time>
      </trkpt>
      <trkpt lat="47.18166" lon="6.86661">
        <ele>692.508</ele>
        <time>2018-08-01T14:29:59Z</time>
      </trkpt>
      <trkpt lat="47.18161" lon="6.86662">
        <ele>692.264</ele>
        <time>2018-08-01T14:30:02Z</time>
      </trkpt>
      <trkpt lat="47.18156" lon="6.86661">
        <ele>692.249</ele>
        <time>2018-08-01T14:30:03Z</time>
      </trkpt>
      <trkpt lat="47.1815" lon="6.8666">
        <ele>692.543</ele>
        <time>2018-08-01T14:30:05Z</time>
      </trkpt>
      <trkpt lat="47.18145" lon="6.86659">
        <ele>692.735</ele>
        <time>2018-08-01T14:30:06Z</time>
      </trkpt>
      <trkpt lat="47.1814" lon="6.86661">
        <ele>693.021</ele>
        <time>2018-08-01T14:30:07Z</time>
      </trkpt>
      <trkpt lat="47.18134" lon="6.8666">
        <ele>693.288</ele>
        <time>2018-08-01T14:30:08Z</time>
      </trkpt>
      <trkpt lat="47.18129" lon="6.86659">
        <ele>693.423</ele>
        <time>2018-08-01T14:30:09Z</time>
      </trkpt>
      <trkpt lat="47.18124" lon="6.86657">
        <ele>694.072</ele>
        <time>2018-08-01T14:30:11Z</time>
      </trkpt>
      <trkpt lat="47.18119" lon="6.86653">
        <ele>694.897</ele>
        <time>2018-08-01T14:30:13Z</time>
      </trkpt>
      <trkpt lat="47.18114" lon="6.86652">
        <ele>695.623</ele>
        <time>2018-08-01T14:30:15Z</time>
      </trkpt>
      <trkpt lat="47.18107" lon="6.8665">
        <ele>696.225</ele>
        <time>2018-08-01T14:30:17Z</time>
      </trkpt>
      <trkpt lat="47.181" lon="6.86647">
        <ele>696.708</ele>
        <time>2018-08-01T14:30:19Z</time>
      </trkpt>
      <trkpt lat="47.18096" lon="6.86645">
        <ele>697.081</ele>
        <time>2018-08-01T14:30:20Z</time>
      </trkpt>
      <trkpt lat="47.18089" lon="6.86643">
        <ele>697.646</ele>
        <time>2018-08-01T14:30:22Z</time>
      </trkpt>
      <trkpt lat="47.18084" lon="6.86645">
        <ele>698.21</ele>
        <time>2018-08-01T14:30:24Z</time>
      </trkpt>
      <trkpt lat="47.18078" lon="6.86646">
        <ele>698.822</ele>
        <time>2018-08-01T14:30:26Z</time>
      </trkpt>
      <trkpt lat="47.18073" lon="6.86646">
        <ele>699.038</ele>
        <time>2018-08-01T14:30:28Z</time>
      </trkpt>
      <trkpt lat="47.18069" lon="6.86641">
        <ele>698.995</ele>
        <time>2018-08-01T14:30:47Z</time>
      </trkpt>
      <trkpt lat="47.18067" lon="6.86634">
        <ele>698.76</ele>
        <time>2018-08-01T14:30:53Z</time>
      </trkpt>
      <trkpt lat="47.18061" lon="6.86628">
        <ele>697.749</ele>
        <time>2018-08-01T14:30:57Z</time>
      </trkpt>
      <trkpt lat="47.18056" lon="6.86625">
        <ele>696.713</ele>
        <time>2018-08-01T14:30:59Z</time>
      </trkpt>
      <trkpt lat="47.1805" lon="6.86623">
        <ele>695.743</ele>
        <time>2018-08-01T14:31:01Z</time>
      </trkpt>
      <trkpt lat="47.18044" lon="6.86621">
        <ele>694.707</ele>
        <time>2018-08-01T14:31:03Z</time>
      </trkpt>
      <trkpt lat="47.18039" lon="6.86618">
        <ele>693.508</ele>
        <time>2018-08-01T14:31:05Z</time>
      </trkpt>
      <trkpt lat="47.18032" lon="6.86612">
        <ele>692.223</ele>
        <time>2018-08-01T14:31:07Z</time>
      </trkpt>
      <trkpt lat="47.18026" lon="6.86607">
        <ele>690.948</ele>
        <time>2018-08-01T14:31:09Z</time>
      </trkpt>
      <trkpt lat="47.1802" lon="6.86603">
        <ele>689.752</ele>
        <time>2018-08-01T14:31:11Z</time>
      </trkpt>
      <trkpt lat="47.18015" lon="6.86599">
        <ele>688.634</ele>
        <time>2018-08-01T14:31:13Z</time>
      </trkpt>
      <trkpt lat="47.18011" lon="6.86594">
        <ele>687.58</ele>
        <time>2018-08-01T14:31:15Z</time>
      </trkpt>
      <trkpt lat="47.18006" lon="6.86587">
        <ele>686.377</ele>
        <time>2018-08-01T14:31:17Z</time>
      </trkpt>
      <trkpt lat="47.18" lon="6.8658">
        <ele>685.192</ele>
        <time>2018-08-01T14:31:19Z</time>
      </trkpt>
      <trkpt lat="47.17995" lon="6.86574">
        <ele>683.981</ele>
        <time>2018-08-01T14:31:21Z</time>
      </trkpt>
      <trkpt lat="47.1799" lon="6.8657">
        <ele>681.918</ele>
        <time>2018-08-01T14:31:24Z</time>
      </trkpt>
      <trkpt lat="47.17985" lon="6.86567">
        <ele>681.298</ele>
        <time>2018-08-01T14:31:25Z</time>
      </trkpt>
      <trkpt lat="47.1798" lon="6.86565">
        <ele>681.217</ele>
        <time>2018-08-01T14:31:26Z</time>
      </trkpt>
      <trkpt lat="47.17976" lon="6.86563">
        <ele>680.508</ele>
        <time>2018-08-01T14:31:27Z</time>
      </trkpt>
      <trkpt lat="47.17971" lon="6.8656">
        <ele>679.823</ele>
        <time>2018-08-01T14:31:28Z</time>
      </trkpt>
      <trkpt lat="47.17965" lon="6.86555">
        <ele>678.588</ele>
        <time>2018-08-01T14:31:30Z</time>
      </trkpt>
      <trkpt lat="47.1796" lon="6.86551">
        <ele>677.222</ele>
        <time>2018-08-01T14:31:32Z</time>
      </trkpt>
      <trkpt lat="47.17955" lon="6.86546">
        <ele>675.884</ele>
        <time>2018-08-01T14:31:34Z</time>
      </trkpt>
      <trkpt lat="47.17948" lon="6.8654">
        <ele>674.76</ele>
        <time>2018-08-01T14:31:36Z</time>
      </trkpt>
      <trkpt lat="47.17942" lon="6.86534">
        <ele>673.897</ele>
        <time>2018-08-01T14:31:38Z</time>
      </trkpt>
      <trkpt lat="47.17939" lon="6.86529">
        <ele>672.742</ele>
        <time>2018-08-01T14:31:40Z</time>
      </trkpt>
      <trkpt lat="47.17935" lon="6.86525">
        <ele>671.431</ele>
        <time>2018-08-01T14:31:42Z</time>
      </trkpt>
      <trkpt lat="47.17931" lon="6.86522">
        <ele>670.072</ele>
        <time>2018-08-01T14:31:45Z</time>
      </trkpt>
      <trkpt lat="47.17925" lon="6.86518">
        <ele>669.313</ele>
        <time>2018-08-01T14:31:48Z</time>
      </trkpt>
      <trkpt lat="47.17921" lon="6.86516">
        <ele>668.214</ele>
        <time>2018-08-01T14:31:51Z</time>
      </trkpt>
      <trkpt lat="47.17915" lon="6.86512">
        <ele>667.108</ele>
        <time>2018-08-01T14:31:55Z</time>
      </trkpt>
      <trkpt lat="47.1791" lon="6.86512">
        <ele>665.429</ele>
        <time>2018-08-01T14:32:00Z</time>
      </trkpt>
      <trkpt lat="47.17904" lon="6.86513">
        <ele>664.924</ele>
        <time>2018-08-01T14:32:04Z</time>
      </trkpt>
      <trkpt lat="47.17898" lon="6.8651">
        <ele>664.888</ele>
        <time>2018-08-01T14:32:06Z</time>
      </trkpt>
      <trkpt lat="47.17895" lon="6.86506">
        <ele>664.43</ele>
        <time>2018-08-01T14:32:09Z</time>
      </trkpt>
      <trkpt lat="47.17893" lon="6.86499">
        <ele>664.076</ele>
        <time>2018-08-01T14:32:12Z</time>
      </trkpt>
      <trkpt lat="47.1789" lon="6.86494">
        <ele>663.883</ele>
        <time>2018-08-01T14:32:16Z</time>
      </trkpt>
      <trkpt lat="47.17887" lon="6.86483">
        <ele>663.838</ele>
        <time>2018-08-01T14:32:30Z</time>
      </trkpt>
      <trkpt lat="47.17882" lon="6.86481">
        <ele>663.967</ele>
        <time>2018-08-01T14:33:13Z</time>
      </trkpt>
      <trkpt lat="47.17877" lon="6.86482">
        <ele>664.637</ele>
        <time>2018-08-01T14:33:19Z</time>
      </trkpt>
      <trkpt lat="47.17877" lon="6.86475">
        <ele>665.949</ele>
        <time>2018-08-01T14:33:23Z</time>
      </trkpt>
      <trkpt lat="47.17881" lon="6.86469">
        <ele>667.013</ele>
        <time>2018-08-01T14:33:26Z</time>
      </trkpt>
      <trkpt lat="47.17884" lon="6.86465">
        <ele>667.808</ele>
        <time>2018-08-01T14:33:29Z</time>
      </trkpt>
      <trkpt lat="47.1789" lon="6.8646">
        <ele>668.185</ele>
        <time>2018-08-01T14:33:32Z</time>
      </trkpt>
      <trkpt lat="47.17891" lon="6.86451">
        <ele>668.74</ele>
        <time>2018-08-01T14:33:35Z</time>
      </trkpt>
      <trkpt lat="47.17891" lon="6.86441">
        <ele>670.564</ele>
        <time>2018-08-01T14:33:38Z</time>
      </trkpt>
      <trkpt lat="47.17889" lon="6.86433">
        <ele>672.266</ele>
        <time>2018-08-01T14:33:41Z</time>
      </trkpt>
      <trkpt lat="47.17883" lon="6.86427">
        <ele>673.772</ele>
        <time>2018-08-01T14:33:44Z</time>
      </trkpt>
      <trkpt lat="47.17879" lon="6.86422">
        <ele>674.289</ele>
        <time>2018-08-01T14:33:46Z</time>
      </trkpt>
      <trkpt lat="47.17874" lon="6.86415">
        <ele>675.984</ele>
        <time>2018-08-01T14:33:49Z</time>
      </trkpt>
      <trkpt lat="47.17871" lon="6.86409">
        <ele>677.073</ele>
        <time>2018-08-01T14:33:51Z</time>
      </trkpt>
      <trkpt lat="47.17871" lon="6.86402">
        <ele>677.986</ele>
        <time>2018-08-01T14:33:53Z</time>
      </trkpt>
      <trkpt lat="47.17869" lon="6.86393">
        <ele>678.76</ele>
        <time>2018-08-01T14:33:56Z</time>
      </trkpt>
      <trkpt lat="47.17868" lon="6.86385">
        <ele>679.426</ele>
        <time>2018-08-01T14:33:59Z</time>
      </trkpt>
      <trkpt lat="47.17864" lon="6.86379">
        <ele>680.508</ele>
        <time>2018-08-01T14:34:02Z</time>
      </trkpt>
      <trkpt lat="47.1786" lon="6.86375">
        <ele>681.59</ele>
        <time>2018-08-01T14:34:05Z</time>
      </trkpt>
      <trkpt lat="47.17863" lon="6.86369">
        <ele>681.785</ele>
        <time>2018-08-01T14:34:39Z</time>
      </trkpt>
      <trkpt lat="47.17863" lon="6.86362">
        <ele>681.789</ele>
        <time>2018-08-01T14:34:42Z</time>
      </trkpt>
      <trkpt lat="47.17862" lon="6.86355">
        <ele>681.851</ele>
        <time>2018-08-01T14:34:45Z</time>
      </trkpt>
      <trkpt lat="47.17857" lon="6.86348">
        <ele>682.057</ele>
        <time>2018-08-01T14:34:48Z</time>
      </trkpt>
      <trkpt lat="47.17854" lon="6.86342">
        <ele>682.544</ele>
        <time>2018-08-01T14:34:50Z</time>
      </trkpt>
      <trkpt lat="47.1785" lon="6.86336">
        <ele>683.529</ele>
        <time>2018-08-01T14:34:53Z</time>
      </trkpt>
      <trkpt lat="47.17847" lon="6.86331">
        <ele>684.758</ele>
        <time>2018-08-01T14:34:57Z</time>
      </trkpt>
      <trkpt lat="47.17841" lon="6.86326">
        <ele>685.365</ele>
        <time>2018-08-01T14:35:25Z</time>
      </trkpt>
      <trkpt lat="47.17841" lon="6.86318">
        <ele>686.368</ele>
        <time>2018-08-01T14:35:37Z</time>
      </trkpt>
      <trkpt lat="47.17841" lon="6.86312">
        <ele>688.014</ele>
        <time>2018-08-01T14:35:44Z</time>
      </trkpt>
      <trkpt lat="47.17837" lon="6.86305">
        <ele>689.008</ele>
        <time>2018-08-01T14:35:49Z</time>
      </trkpt>
      <trkpt lat="47.17834" lon="6.863">
        <ele>690.188</ele>
        <time>2018-08-01T14:35:54Z</time>
      </trkpt>
      <trkpt lat="47.17832" lon="6.86292">
        <ele>690.913</ele>
        <time>2018-08-01T14:35:59Z</time>
      </trkpt>
      <trkpt lat="47.17829" lon="6.86288">
        <ele>692.137</ele>
        <time>2018-08-01T14:36:05Z</time>
      </trkpt>
      <trkpt lat="47.17825" lon="6.86286">
        <ele>693.759</ele>
        <time>2018-08-01T14:36:12Z</time>
      </trkpt>
      <trkpt lat="47.17823" lon="6.8628">
        <ele>695.835</ele>
        <time>2018-08-01T14:36:21Z</time>
      </trkpt>
      <trkpt lat="47.17823" lon="6.86272">
        <ele>696.392</ele>
        <time>2018-08-01T14:37:08Z</time>
      </trkpt>
      <trkpt lat="47.17819" lon="6.86267">
        <ele>696.627</ele>
        <time>2018-08-01T14:37:12Z</time>
      </trkpt>
      <trkpt lat="47.17816" lon="6.86261">
        <ele>698.826</ele>
        <time>2018-08-01T14:37:22Z</time>
      </trkpt>
      <trkpt lat="47.17811" lon="6.86259">
        <ele>699.774</ele>
        <time>2018-08-01T14:37:25Z</time>
      </trkpt>
      <trkpt lat="47.1781" lon="6.86252">
        <ele>700.656</ele>
        <time>2018-08-01T14:37:34Z</time>
      </trkpt>
      <trkpt lat="47.1781" lon="6.86244">
        <ele>700.721</ele>
        <time>2018-08-01T14:37:43Z</time>
      </trkpt>
      <trkpt lat="47.17807" lon="6.86238">
        <ele>701.608</ele>
        <time>2018-08-01T14:37:47Z</time>
      </trkpt>
      <trkpt lat="47.17804" lon="6.8623">
        <ele>702.119</ele>
        <time>2018-08-01T14:37:50Z</time>
      </trkpt>
      <trkpt lat="47.17804" lon="6.86222">
        <ele>702.494</ele>
        <time>2018-08-01T14:38:21Z</time>
      </trkpt>
      <trkpt lat="47.17804" lon="6.86216">
        <ele>703.568</ele>
        <time>2018-08-01T14:38:29Z</time>
      </trkpt>
      <trkpt lat="47.17802" lon="6.86209">
        <ele>704.64</ele>
        <time>2018-08-01T14:38:35Z</time>
      </trkpt>
      <trkpt lat="47.17802" lon="6.86202">
        <ele>705.796</ele>
        <time>2018-08-01T14:38:52Z</time>
      </trkpt>
      <trkpt lat="47.178" lon="6.86195">
        <ele>706.383</ele>
        <time>2018-08-01T14:38:57Z</time>
      </trkpt>
      <trkpt lat="47.17798" lon="6.86189">
        <ele>707.068</ele>
        <time>2018-08-01T14:39:01Z</time>
      </trkpt>
      <trkpt lat="47.17795" lon="6.86184">
        <ele>708.577</ele>
        <time>2018-08-01T14:39:14Z</time>
      </trkpt>
      <trkpt lat="47.17792" lon="6.8618">
        <ele>710.336</ele>
        <time>2018-08-01T14:39:23Z</time>
      </trkpt>
      <trkpt lat="47.1779" lon="6.86174">
        <ele>711.917</ele>
        <time>2018-08-01T14:39:31Z</time>
      </trkpt>
      <trkpt lat="47.17787" lon="6.86167">
        <ele>713.218</ele>
        <time>2018-08-01T14:39:38Z</time>
      </trkpt>
      <trkpt lat="47.17785" lon="6.86162">
        <ele>714.408</ele>
        <time>2018-08-01T14:39:45Z</time>
      </trkpt>
      <trkpt lat="47.17786" lon="6.86155">
        <ele>715.955</ele>
        <time>2018-08-01T14:39:55Z</time>
      </trkpt>
      <trkpt lat="47.17784" lon="6.86148">
        <ele>716.05</ele>
        <time>2018-08-01T14:41:29Z</time>
      </trkpt>
      <trkpt lat="47.17783" lon="6.86139">
        <ele>717.064</ele>
        <time>2018-08-01T14:41:51Z</time>
      </trkpt>
      <trkpt lat="47.17783" lon="6.86131">
        <ele>717.546</ele>
        <time>2018-08-01T14:41:54Z</time>
      </trkpt>
      <trkpt lat="47.17784" lon="6.86124">
        <ele>717.752</ele>
        <time>2018-08-01T14:41:56Z</time>
      </trkpt>
      <trkpt lat="47.17784" lon="6.86117">
        <ele>717.789</ele>
        <time>2018-08-01T14:41:58Z</time>
      </trkpt>
      <trkpt lat="47.17784" lon="6.86107">
        <ele>717.724</ele>
        <time>2018-08-01T14:42:01Z</time>
      </trkpt>
      <trkpt lat="47.17783" lon="6.86098">
        <ele>717.963</ele>
        <time>2018-08-01T14:42:04Z</time>
      </trkpt>
      <trkpt lat="47.17782" lon="6.8609">
        <ele>718.177</ele>
        <time>2018-08-01T14:42:07Z</time>
      </trkpt>
      <trkpt lat="47.1778" lon="6.86081">
        <ele>718.161</ele>
        <time>2018-08-01T14:42:09Z</time>
      </trkpt>
      <trkpt lat="47.17777" lon="6.86072">
        <ele>717.927</ele>
        <time>2018-08-01T14:42:11Z</time>
      </trkpt>
      <trkpt lat="47.17771" lon="6.86065">
        <ele>717.808</ele>
        <time>2018-08-01T14:42:13Z</time>
      </trkpt>
      <trkpt lat="47.17767" lon="6.86059">
        <ele>717.859</ele>
        <time>2018-08-01T14:42:15Z</time>
      </trkpt>
      <trkpt lat="47.17763" lon="6.86051">
        <ele>718.034</ele>
        <time>2018-08-01T14:42:17Z</time>
      </trkpt>
      <trkpt lat="47.17759" lon="6.86045">
        <ele>718.438</ele>
        <time>2018-08-01T14:42:19Z</time>
      </trkpt>
      <trkpt lat="47.17754" lon="6.86039">
        <ele>718.76</ele>
        <time>2018-08-01T14:42:21Z</time>
      </trkpt>
      <trkpt lat="47.1775" lon="6.86033">
        <ele>719.136</ele>
        <time>2018-08-01T14:42:23Z</time>
      </trkpt>
      <trkpt lat="47.17745" lon="6.86028">
        <ele>719.553</ele>
        <time>2018-08-01T14:42:25Z</time>
      </trkpt>
      <trkpt lat="47.17741" lon="6.86024">
        <ele>720.188</ele>
        <time>2018-08-01T14:42:27Z</time>
      </trkpt>
      <trkpt lat="47.17736" lon="6.86019">
        <ele>721.077</ele>
        <time>2018-08-01T14:42:30Z</time>
      </trkpt>
      <trkpt lat="47.17731" lon="6.86016">
        <ele>721.931</ele>
        <time>2018-08-01T14:42:33Z</time>
      </trkpt>
      <trkpt lat="47.17728" lon="6.86011">
        <ele>722.461</ele>
        <time>2018-08-01T14:42:35Z</time>
      </trkpt>
      <trkpt lat="47.17728" lon="6.86003">
        <ele>722.707</ele>
        <time>2018-08-01T14:42:38Z</time>
      </trkpt>
      <trkpt lat="47.17726" lon="6.85997">
        <ele>722.208</ele>
        <time>2018-08-01T14:43:35Z</time>
      </trkpt>
      <trkpt lat="47.17725" lon="6.85988">
        <ele>721.935</ele>
        <time>2018-08-01T14:43:38Z</time>
      </trkpt>
      <trkpt lat="47.17725" lon="6.85979">
        <ele>721.32</ele>
        <time>2018-08-01T14:43:40Z</time>
      </trkpt>
      <trkpt lat="47.17725" lon="6.8597">
        <ele>720.474</ele>
        <time>2018-08-01T14:43:42Z</time>
      </trkpt>
      <trkpt lat="47.17723" lon="6.85959">
        <ele>719.326</ele>
        <time>2018-08-01T14:43:44Z</time>
      </trkpt>
      <trkpt lat="47.17722" lon="6.85947">
        <ele>718.092</ele>
        <time>2018-08-01T14:43:46Z</time>
      </trkpt>
      <trkpt lat="47.17722" lon="6.85935">
        <ele>716.989</ele>
        <time>2018-08-01T14:43:48Z</time>
      </trkpt>
      <trkpt lat="47.17721" lon="6.85924">
        <ele>715.954</ele>
        <time>2018-08-01T14:43:50Z</time>
      </trkpt>
      <trkpt lat="47.17721" lon="6.85914">
        <ele>715.073</ele>
        <time>2018-08-01T14:43:52Z</time>
      </trkpt>
      <trkpt lat="47.17719" lon="6.85901">
        <ele>714.086</ele>
        <time>2018-08-01T14:43:54Z</time>
      </trkpt>
      <trkpt lat="47.17718" lon="6.8589">
        <ele>713.06</ele>
        <time>2018-08-01T14:43:56Z</time>
      </trkpt>
      <trkpt lat="47.17717" lon="6.8588">
        <ele>712.026</ele>
        <time>2018-08-01T14:43:58Z</time>
      </trkpt>
      <trkpt lat="47.17715" lon="6.8587">
        <ele>711.508</ele>
        <time>2018-08-01T14:44:00Z</time>
      </trkpt>
      <trkpt lat="47.17712" lon="6.8586">
        <ele>710.44</ele>
        <time>2018-08-01T14:44:02Z</time>
      </trkpt>
      <trkpt lat="47.1771" lon="6.85849">
        <ele>709.395</ele>
        <time>2018-08-01T14:44:04Z</time>
      </trkpt>
      <trkpt lat="47.17707" lon="6.85839">
        <ele>708.259</ele>
        <time>2018-08-01T14:44:06Z</time>
      </trkpt>
      <trkpt lat="47.17704" lon="6.8583">
        <ele>707.181</ele>
        <time>2018-08-01T14:44:08Z</time>
      </trkpt>
      <trkpt lat="47.17702" lon="6.85812">
        <ele>706.187</ele>
        <time>2018-08-01T14:44:10Z</time>
      </trkpt>
      <trkpt lat="47.17699" lon="6.85803">
        <ele>705.024</ele>
        <time>2018-08-01T14:44:12Z</time>
      </trkpt>
      <trkpt lat="47.17698" lon="6.85795">
        <ele>704.439</ele>
        <time>2018-08-01T14:44:13Z</time>
      </trkpt>
      <trkpt lat="47.17696" lon="6.85787">
        <ele>703.738</ele>
        <time>2018-08-01T14:44:14Z</time>
      </trkpt>
      <trkpt lat="47.17695" lon="6.8578">
        <ele>703.032</ele>
        <time>2018-08-01T14:44:15Z</time>
      </trkpt>
      <trkpt lat="47.17695" lon="6.85771">
        <ele>702.492</ele>
        <time>2018-08-01T14:44:16Z</time>
      </trkpt>
      <trkpt lat="47.17691" lon="6.85766">
        <ele>701.811</ele>
        <time>2018-08-01T14:44:17Z</time>
      </trkpt>
      <trkpt lat="47.17689" lon="6.85759">
        <ele>701.108</ele>
        <time>2018-08-01T14:44:18Z</time>
      </trkpt>
      <trkpt lat="47.17685" lon="6.85749">
        <ele>700.045</ele>
        <time>2018-08-01T14:44:20Z</time>
      </trkpt>
      <trkpt lat="47.17682" lon="6.85736">
        <ele>698.53</ele>
        <time>2018-08-01T14:44:22Z</time>
      </trkpt>
      <trkpt lat="47.17679" lon="6.85729">
        <ele>697.834</ele>
        <time>2018-08-01T14:44:23Z</time>
      </trkpt>
      <trkpt lat="47.17676" lon="6.8572">
        <ele>697.186</ele>
        <time>2018-08-01T14:44:24Z</time>
      </trkpt>
      <trkpt lat="47.17676" lon="6.85713">
        <ele>696.362</ele>
        <time>2018-08-01T14:44:25Z</time>
      </trkpt>
      <trkpt lat="47.17674" lon="6.85705">
        <ele>695.669</ele>
        <time>2018-08-01T14:44:26Z</time>
      </trkpt>
      <trkpt lat="47.17671" lon="6.85694">
        <ele>695.064</ele>
        <time>2018-08-01T14:44:28Z</time>
      </trkpt>
      <trkpt lat="47.17669" lon="6.85685">
        <ele>694.563</ele>
        <time>2018-08-01T14:44:29Z</time>
      </trkpt>
      <trkpt lat="47.17666" lon="6.8568">
        <ele>693.982</ele>
        <time>2018-08-01T14:44:30Z</time>
      </trkpt>
      <trkpt lat="47.17662" lon="6.85671">
        <ele>693.543</ele>
        <time>2018-08-01T14:44:31Z</time>
      </trkpt>
      <trkpt lat="47.17663" lon="6.85664">
        <ele>693.017</ele>
        <time>2018-08-01T14:44:32Z</time>
      </trkpt>
      <trkpt lat="47.17662" lon="6.85657">
        <ele>692.808</ele>
        <time>2018-08-01T14:44:33Z</time>
      </trkpt>
      <trkpt lat="47.1766" lon="6.85651">
        <ele>692.64</ele>
        <time>2018-08-01T14:44:34Z</time>
      </trkpt>
      <trkpt lat="47.17658" lon="6.85645">
        <ele>692.545</ele>
        <time>2018-08-01T14:44:35Z</time>
      </trkpt>
      <trkpt lat="47.17654" lon="6.85638">
        <ele>692.459</ele>
        <time>2018-08-01T14:44:36Z</time>
      </trkpt>
      <trkpt lat="47.17652" lon="6.85632">
        <ele>692.451</ele>
        <time>2018-08-01T14:44:37Z</time>
      </trkpt>
      <trkpt lat="47.1765" lon="6.85626">
        <ele>692.367</ele>
        <time>2018-08-01T14:44:38Z</time>
      </trkpt>
      <trkpt lat="47.17648" lon="6.85614">
        <ele>691.934</ele>
        <time>2018-08-01T14:44:40Z</time>
      </trkpt>
      <trkpt lat="47.17646" lon="6.85605">
        <ele>691.779</ele>
        <time>2018-08-01T14:44:42Z</time>
      </trkpt>
      <trkpt lat="47.17643" lon="6.85594">
        <ele>691.768</ele>
        <time>2018-08-01T14:44:44Z</time>
      </trkpt>
      <trkpt lat="47.17641" lon="6.85579">
        <ele>691.748</ele>
        <time>2018-08-01T14:44:46Z</time>
      </trkpt>
      <trkpt lat="47.1764" lon="6.8557">
        <ele>691.761</ele>
        <time>2018-08-01T14:44:47Z</time>
      </trkpt>
      <trkpt lat="47.17638" lon="6.85561">
        <ele>691.617</ele>
        <time>2018-08-01T14:44:48Z</time>
      </trkpt>
      <trkpt lat="47.17635" lon="6.85554">
        <ele>691.608</ele>
        <time>2018-08-01T14:44:49Z</time>
      </trkpt>
      <trkpt lat="47.17634" lon="6.85546">
        <ele>691.646</ele>
        <time>2018-08-01T14:44:50Z</time>
      </trkpt>
      <trkpt lat="47.17632" lon="6.85538">
        <ele>691.681</ele>
        <time>2018-08-01T14:44:51Z</time>
      </trkpt>
      <trkpt lat="47.1763" lon="6.85531">
        <ele>691.665</ele>
        <time>2018-08-01T14:44:52Z</time>
      </trkpt>
      <trkpt lat="47.17628" lon="6.85525">
        <ele>691.917</ele>
        <time>2018-08-01T14:44:53Z</time>
      </trkpt>
      <trkpt lat="47.17626" lon="6.85516">
        <ele>692.093</ele>
        <time>2018-08-01T14:44:54Z</time>
      </trkpt>
      <trkpt lat="47.17624" lon="6.8551">
        <ele>692.14</ele>
        <time>2018-08-01T14:44:55Z</time>
      </trkpt>
      <trkpt lat="47.1762" lon="6.85499">
        <ele>692.275</ele>
        <time>2018-08-01T14:44:57Z</time>
      </trkpt>
      <trkpt lat="47.17618" lon="6.85493">
        <ele>692.464</ele>
        <time>2018-08-01T14:44:58Z</time>
      </trkpt>
      <trkpt lat="47.17614" lon="6.85485">
        <ele>692.692</ele>
        <time>2018-08-01T14:45:00Z</time>
      </trkpt>
      <trkpt lat="47.1761" lon="6.85474">
        <ele>693.373</ele>
        <time>2018-08-01T14:45:02Z</time>
      </trkpt>
      <trkpt lat="47.17607" lon="6.85469">
        <ele>693.42</ele>
        <time>2018-08-01T14:45:03Z</time>
      </trkpt>
      <trkpt lat="47.17604" lon="6.85463">
        <ele>693.508</ele>
        <time>2018-08-01T14:45:04Z</time>
      </trkpt>
      <trkpt lat="47.17604" lon="6.85456">
        <ele>693.591</ele>
        <time>2018-08-01T14:45:05Z</time>
      </trkpt>
      <trkpt lat="47.17601" lon="6.85442">
        <ele>692.856</ele>
        <time>2018-08-01T14:45:07Z</time>
      </trkpt>
      <trkpt lat="47.176" lon="6.85435">
        <ele>692.67</ele>
        <time>2018-08-01T14:45:08Z</time>
      </trkpt>
      <trkpt lat="47.176" lon="6.85426">
        <ele>692.192</ele>
        <time>2018-08-01T14:45:09Z</time>
      </trkpt>
      <trkpt lat="47.17599" lon="6.85414">
        <ele>691.488</ele>
        <time>2018-08-01T14:45:11Z</time>
      </trkpt>
      <trkpt lat="47.17599" lon="6.85407">
        <ele>691.295</ele>
        <time>2018-08-01T14:45:12Z</time>
      </trkpt>
      <trkpt lat="47.176" lon="6.85396">
        <ele>690.34</ele>
        <time>2018-08-01T14:45:14Z</time>
      </trkpt>
      <trkpt lat="47.176" lon="6.85386">
        <ele>689.359</ele>
        <time>2018-08-01T14:45:16Z</time>
      </trkpt>
      <trkpt lat="47.17597" lon="6.85376">
        <ele>688.224</ele>
        <time>2018-08-01T14:45:18Z</time>
      </trkpt>
      <trkpt lat="47.17597" lon="6.85369">
        <ele>687.104</ele>
        <time>2018-08-01T14:45:20Z</time>
      </trkpt>
      <trkpt lat="47.17594" lon="6.85362">
        <ele>685.514</ele>
        <time>2018-08-01T14:45:23Z</time>
      </trkpt>
      <trkpt lat="47.17591" lon="6.85356">
        <ele>685.008</ele>
        <time>2018-08-01T14:45:25Z</time>
      </trkpt>
      <trkpt lat="47.17586" lon="6.85348">
        <ele>684.084</ele>
        <time>2018-08-01T14:45:27Z</time>
      </trkpt>
      <trkpt lat="47.17579" lon="6.85338">
        <ele>683.589</ele>
        <time>2018-08-01T14:45:28Z</time>
      </trkpt>
      <trkpt lat="47.17576" lon="6.85331">
        <ele>682.973</ele>
        <time>2018-08-01T14:45:29Z</time>
      </trkpt>
      <trkpt lat="47.17573" lon="6.85325">
        <ele>682.255</ele>
        <time>2018-08-01T14:45:30Z</time>
      </trkpt>
      <trkpt lat="47.17569" lon="6.85317">
        <ele>681.531</ele>
        <time>2018-08-01T14:45:31Z</time>
      </trkpt>
      <trkpt lat="47.17565" lon="6.85309">
        <ele>680.778</ele>
        <time>2018-08-01T14:45:32Z</time>
      </trkpt>
      <trkpt lat="47.17563" lon="6.85303">
        <ele>679.983</ele>
        <time>2018-08-01T14:45:33Z</time>
      </trkpt>
      <trkpt lat="47.17559" lon="6.85293">
        <ele>678.382</ele>
        <time>2018-08-01T14:45:35Z</time>
      </trkpt>
      <trkpt lat="47.17555" lon="6.85286">
        <ele>677.571</ele>
        <time>2018-08-01T14:45:36Z</time>
      </trkpt>
      <trkpt lat="47.17552" lon="6.8528">
        <ele>676.941</ele>
        <time>2018-08-01T14:45:37Z</time>
      </trkpt>
      <trkpt lat="47.17546" lon="6.85271">
        <ele>675.615</ele>
        <time>2018-08-01T14:45:39Z</time>
      </trkpt>
      <trkpt lat="47.17539" lon="6.8527">
        <ele>674.908</ele>
        <time>2018-08-01T14:45:40Z</time>
      </trkpt>
      <trkpt lat="47.17535" lon="6.85263">
        <ele>673.659</ele>
        <time>2018-08-01T14:45:42Z</time>
      </trkpt>
      <trkpt lat="47.17529" lon="6.85253">
        <ele>672.264</ele>
        <time>2018-08-01T14:45:44Z</time>
      </trkpt>
      <trkpt lat="47.17525" lon="6.85244">
        <ele>671.398</ele>
        <time>2018-08-01T14:45:46Z</time>
      </trkpt>
      <trkpt lat="47.17519" lon="6.85235">
        <ele>670.58</ele>
        <time>2018-08-01T14:45:48Z</time>
      </trkpt>
      <trkpt lat="47.17514" lon="6.85231">
        <ele>670.136</ele>
        <time>2018-08-01T14:45:49Z</time>
      </trkpt>
      <trkpt lat="47.17513" lon="6.85223">
        <ele>669.663</ele>
        <time>2018-08-01T14:45:50Z</time>
      </trkpt>
      <trkpt lat="47.1751" lon="6.85212">
        <ele>669.058</ele>
        <time>2018-08-01T14:45:52Z</time>
      </trkpt>
      <trkpt lat="47.17508" lon="6.85205">
        <ele>668.557</ele>
        <time>2018-08-01T14:45:53Z</time>
      </trkpt>
      <trkpt lat="47.17506" lon="6.85199">
        <ele>668.032</ele>
        <time>2018-08-01T14:45:54Z</time>
      </trkpt>
      <trkpt lat="47.17504" lon="6.85192">
        <ele>667.592</ele>
        <time>2018-08-01T14:45:55Z</time>
      </trkpt>
      <trkpt lat="47.17503" lon="6.85186">
        <ele>667.011</ele>
        <time>2018-08-01T14:45:56Z</time>
      </trkpt>
      <trkpt lat="47.17501" lon="6.85179">
        <ele>666.508</ele>
        <time>2018-08-01T14:45:57Z</time>
      </trkpt>
      <trkpt lat="47.17501" lon="6.8517">
        <ele>665.955</ele>
        <time>2018-08-01T14:45:58Z</time>
      </trkpt>
      <trkpt lat="47.17499" lon="6.85162">
        <ele>665.33</ele>
        <time>2018-08-01T14:45:59Z</time>
      </trkpt>
      <trkpt lat="47.17497" lon="6.85153">
        <ele>664.824</ele>
        <time>2018-08-01T14:46:00Z</time>
      </trkpt>
      <trkpt lat="47.17493" lon="6.85148">
        <ele>664.326</ele>
        <time>2018-08-01T14:46:01Z</time>
      </trkpt>
      <trkpt lat="47.17492" lon="6.8514">
        <ele>663.862</ele>
        <time>2018-08-01T14:46:02Z</time>
      </trkpt>
      <trkpt lat="47.17489" lon="6.85134">
        <ele>663.449</ele>
        <time>2018-08-01T14:46:03Z</time>
      </trkpt>
      <trkpt lat="47.17487" lon="6.85127">
        <ele>663.074</ele>
        <time>2018-08-01T14:46:04Z</time>
      </trkpt>
      <trkpt lat="47.17485" lon="6.8512">
        <ele>662.773</ele>
        <time>2018-08-01T14:46:05Z</time>
      </trkpt>
      <trkpt lat="47.17481" lon="6.85115">
        <ele>662.575</ele>
        <time>2018-08-01T14:46:06Z</time>
      </trkpt>
      <trkpt lat="47.17478" lon="6.8511">
        <ele>662.328</ele>
        <time>2018-08-01T14:46:07Z</time>
      </trkpt>
      <trkpt lat="47.17473" lon="6.85103">
        <ele>662.02</ele>
        <time>2018-08-01T14:46:09Z</time>
      </trkpt>
      <trkpt lat="47.17468" lon="6.85095">
        <ele>661.808</ele>
        <time>2018-08-01T14:46:11Z</time>
      </trkpt>
      <trkpt lat="47.17463" lon="6.85086">
        <ele>661.759</ele>
        <time>2018-08-01T14:46:13Z</time>
      </trkpt>
      <trkpt lat="47.17461" lon="6.85078">
        <ele>661.734</ele>
        <time>2018-08-01T14:46:15Z</time>
      </trkpt>
      <trkpt lat="47.17459" lon="6.85069">
        <ele>661.648</ele>
        <time>2018-08-01T14:46:17Z</time>
      </trkpt>
      <trkpt lat="47.17458" lon="6.85059">
        <ele>661.63</ele>
        <time>2018-08-01T14:46:19Z</time>
      </trkpt>
      <trkpt lat="47.17458" lon="6.8505">
        <ele>661.636</ele>
        <time>2018-08-01T14:46:21Z</time>
      </trkpt>
      <trkpt lat="47.17458" lon="6.85043">
        <ele>661.683</ele>
        <time>2018-08-01T14:46:23Z</time>
      </trkpt>
      <trkpt lat="47.17457" lon="6.85035">
        <ele>661.758</ele>
        <time>2018-08-01T14:46:26Z</time>
      </trkpt>
      <trkpt lat="47.17456" lon="6.85028">
        <ele>661.887</ele>
        <time>2018-08-01T14:46:28Z</time>
      </trkpt>
      <trkpt lat="47.17455" lon="6.8502">
        <ele>661.971</ele>
        <time>2018-08-01T14:46:30Z</time>
      </trkpt>
      <trkpt lat="47.17452" lon="6.85011">
        <ele>662.041</ele>
        <time>2018-08-01T14:46:32Z</time>
      </trkpt>
      <trkpt lat="47.1745" lon="6.85003">
        <ele>662.015</ele>
        <time>2018-08-01T14:46:34Z</time>
      </trkpt>
      <trkpt lat="47.17447" lon="6.84994">
        <ele>662.008</ele>
        <time>2018-08-01T14:46:36Z</time>
      </trkpt>
      <trkpt lat="47.17445" lon="6.84986">
        <ele>662.139</ele>
        <time>2018-08-01T14:46:38Z</time>
      </trkpt>
      <trkpt lat="47.17444" lon="6.84977">
        <ele>662.284</ele>
        <time>2018-08-01T14:46:40Z</time>
      </trkpt>
      <trkpt lat="47.17444" lon="6.84967">
        <ele>662.248</ele>
        <time>2018-08-01T14:46:42Z</time>
      </trkpt>
      <trkpt lat="47.17442" lon="6.8496">
        <ele>662.29</ele>
        <time>2018-08-01T14:46:44Z</time>
      </trkpt>
      <trkpt lat="47.17438" lon="6.84953">
        <ele>662.156</ele>
        <time>2018-08-01T14:46:46Z</time>
      </trkpt>
      <trkpt lat="47.17433" lon="6.84946">
        <ele>662.083</ele>
        <time>2018-08-01T14:46:48Z</time>
      </trkpt>
      <trkpt lat="47.17428" lon="6.84941">
        <ele>661.838</ele>
        <time>2018-08-01T14:46:50Z</time>
      </trkpt>
      <trkpt lat="47.17424" lon="6.84938">
        <ele>661.537</ele>
        <time>2018-08-01T14:46:53Z</time>
      </trkpt>
      <trkpt lat="47.1742" lon="6.84934">
        <ele>661.461</ele>
        <time>2018-08-01T14:46:56Z</time>
      </trkpt>
      <trkpt lat="47.17417" lon="6.84928">
        <ele>661.621</ele>
        <time>2018-08-01T14:47:00Z</time>
      </trkpt>
      <trkpt lat="47.17416" lon="6.84921">
        <ele>661.813</ele>
        <time>2018-08-01T14:47:07Z</time>
      </trkpt>
      <trkpt lat="47.17415" lon="6.84914">
        <ele>662.208</ele>
        <time>2018-08-01T14:47:13Z</time>
      </trkpt>
      <trkpt lat="47.17417" lon="6.84907">
        <ele>662.358</ele>
        <time>2018-08-01T14:47:21Z</time>
      </trkpt>
      <trkpt lat="47.17416" lon="6.849">
        <ele>662.443</ele>
        <time>2018-08-01T14:47:23Z</time>
      </trkpt>
      <trkpt lat="47.17417" lon="6.84893">
        <ele>662.567</ele>
        <time>2018-08-01T14:47:25Z</time>
      </trkpt>
      <trkpt lat="47.1742" lon="6.84886">
        <ele>662.869</ele>
        <time>2018-08-01T14:47:27Z</time>
      </trkpt>
      <trkpt lat="47.17423" lon="6.8488">
        <ele>663.075</ele>
        <time>2018-08-01T14:47:29Z</time>
      </trkpt>
      <trkpt lat="47.17427" lon="6.84874">
        <ele>663.262</ele>
        <time>2018-08-01T14:47:31Z</time>
      </trkpt>
      <trkpt lat="47.17431" lon="6.84869">
        <ele>663.447</ele>
        <time>2018-08-01T14:47:33Z</time>
      </trkpt>
      <trkpt lat="47.17435" lon="6.84862">
        <ele>663.986</ele>
        <time>2018-08-01T14:47:36Z</time>
      </trkpt>
      <trkpt lat="47.17435" lon="6.84855">
        <ele>664.344</ele>
        <time>2018-08-01T14:47:38Z</time>
      </trkpt>
      <trkpt lat="47.17434" lon="6.84845">
        <ele>665.005</ele>
        <time>2018-08-01T14:47:41Z</time>
      </trkpt>
      <trkpt lat="47.1743" lon="6.84837">
        <ele>665.615</ele>
        <time>2018-08-01T14:47:44Z</time>
      </trkpt>
      <trkpt lat="47.17426" lon="6.84833">
        <ele>665.708</ele>
        <time>2018-08-01T14:47:46Z</time>
      </trkpt>
      <trkpt lat="47.17422" lon="6.84828">
        <ele>665.966</ele>
        <time>2018-08-01T14:47:48Z</time>
      </trkpt>
      <trkpt lat="47.17417" lon="6.84822">
        <ele>666.191</ele>
        <time>2018-08-01T14:47:50Z</time>
      </trkpt>
      <trkpt lat="47.17412" lon="6.84814">
        <ele>666.265</ele>
        <time>2018-08-01T14:47:52Z</time>
      </trkpt>
      <trkpt lat="47.17409" lon="6.84809">
        <ele>666.277</ele>
        <time>2018-08-01T14:47:53Z</time>
      </trkpt>
      <trkpt lat="47.17405" lon="6.84804">
        <ele>666.163</ele>
        <time>2018-08-01T14:47:54Z</time>
      </trkpt>
      <trkpt lat="47.174" lon="6.84795">
        <ele>665.99</ele>
        <time>2018-08-01T14:47:56Z</time>
      </trkpt>
      <trkpt lat="47.17395" lon="6.8479">
        <ele>665.925</ele>
        <time>2018-08-01T14:47:58Z</time>
      </trkpt>
      <trkpt lat="47.1739" lon="6.84783">
        <ele>666.014</ele>
        <time>2018-08-01T14:48:00Z</time>
      </trkpt>
      <trkpt lat="47.17385" lon="6.84777">
        <ele>666.179</ele>
        <time>2018-08-01T14:48:02Z</time>
      </trkpt>
      <trkpt lat="47.17381" lon="6.84771">
        <ele>666.105</ele>
        <time>2018-08-01T14:48:04Z</time>
      </trkpt>
      <trkpt lat="47.17376" lon="6.84764">
        <ele>666.025</ele>
        <time>2018-08-01T14:48:06Z</time>
      </trkpt>
      <trkpt lat="47.17371" lon="6.84758">
        <ele>666.008</ele>
        <time>2018-08-01T14:48:08Z</time>
      </trkpt>
      <trkpt lat="47.17365" lon="6.84752">
        <ele>666.259</ele>
        <time>2018-08-01T14:48:10Z</time>
      </trkpt>
      <trkpt lat="47.1736" lon="6.84744">
        <ele>666.434</ele>
        <time>2018-08-01T14:48:12Z</time>
      </trkpt>
      <trkpt lat="47.17357" lon="6.84739">
        <ele>666.928</ele>
        <time>2018-08-01T14:48:14Z</time>
      </trkpt>
      <trkpt lat="47.17354" lon="6.84731">
        <ele>667.51</ele>
        <time>2018-08-01T14:48:17Z</time>
      </trkpt>
      <trkpt lat="47.17349" lon="6.84724">
        <ele>667.946</ele>
        <time>2018-08-01T14:48:20Z</time>
      </trkpt>
      <trkpt lat="47.17346" lon="6.84714">
        <ele>668.333</ele>
        <time>2018-08-01T14:48:22Z</time>
      </trkpt>
      <trkpt lat="47.17342" lon="6.84703">
        <ele>668.678</ele>
        <time>2018-08-01T14:48:24Z</time>
      </trkpt>
      <trkpt lat="47.1734" lon="6.84693">
        <ele>668.947</ele>
        <time>2018-08-01T14:48:26Z</time>
      </trkpt>
      <trkpt lat="47.17337" lon="6.84684">
        <ele>669.262</ele>
        <time>2018-08-01T14:48:28Z</time>
      </trkpt>
      <trkpt lat="47.17336" lon="6.84675">
        <ele>669.683</ele>
        <time>2018-08-01T14:48:31Z</time>
      </trkpt>
      <trkpt lat="47.17336" lon="6.84667">
        <ele>669.911</ele>
        <time>2018-08-01T14:48:33Z</time>
      </trkpt>
      <trkpt lat="47.17335" lon="6.84659">
        <ele>670.208</ele>
        <time>2018-08-01T14:48:35Z</time>
      </trkpt>
      <trkpt lat="47.17331" lon="6.84652">
        <ele>670.558</ele>
        <time>2018-08-01T14:48:37Z</time>
      </trkpt>
      <trkpt lat="47.17326" lon="6.84646">
        <ele>670.643</ele>
        <time>2018-08-01T14:48:39Z</time>
      </trkpt>
      <trkpt lat="47.17322" lon="6.84638">
        <ele>671.067</ele>
        <time>2018-08-01T14:48:41Z</time>
      </trkpt>
      <trkpt lat="47.17318" lon="6.84628">
        <ele>671.279</ele>
        <time>2018-08-01T14:48:43Z</time>
      </trkpt>
      <trkpt lat="47.17316" lon="6.84619">
        <ele>671.375</ele>
        <time>2018-08-01T14:48:45Z</time>
      </trkpt>
      <trkpt lat="47.17313" lon="6.84608">
        <ele>671.332</ele>
        <time>2018-08-01T14:48:47Z</time>
      </trkpt>
      <trkpt lat="47.1731" lon="6.84601">
        <ele>671.227</ele>
        <time>2018-08-01T14:48:49Z</time>
      </trkpt>
      <trkpt lat="47.17308" lon="6.84591">
        <ele>670.946</ele>
        <time>2018-08-01T14:48:51Z</time>
      </trkpt>
      <trkpt lat="47.17305" lon="6.84578">
        <ele>670.532</ele>
        <time>2018-08-01T14:48:53Z</time>
      </trkpt>
      <trkpt lat="47.173" lon="6.84566">
        <ele>670.392</ele>
        <time>2018-08-01T14:48:54Z</time>
      </trkpt>
      <trkpt lat="47.17294" lon="6.84555">
        <ele>669.911</ele>
        <time>2018-08-01T14:48:56Z</time>
      </trkpt>
      <trkpt lat="47.17293" lon="6.84548">
        <ele>669.708</ele>
        <time>2018-08-01T14:48:57Z</time>
      </trkpt>
      <trkpt lat="47.17291" lon="6.84541">
        <ele>669.545</ele>
        <time>2018-08-01T14:48:58Z</time>
      </trkpt>
      <trkpt lat="47.17279" lon="6.84535">
        <ele>669.43</ele>
        <time>2018-08-01T14:48:59Z</time>
      </trkpt>
      <trkpt lat="47.17276" lon="6.84528">
        <ele>669.354</ele>
        <time>2018-08-01T14:49:00Z</time>
      </trkpt>
      <trkpt lat="47.17272" lon="6.84519">
        <ele>669.396</ele>
        <time>2018-08-01T14:49:01Z</time>
      </trkpt>
      <trkpt lat="47.17268" lon="6.84512">
        <ele>669.232</ele>
        <time>2018-08-01T14:49:02Z</time>
      </trkpt>
      <trkpt lat="47.17265" lon="6.84506">
        <ele>669.229</ele>
        <time>2018-08-01T14:49:03Z</time>
      </trkpt>
      <trkpt lat="47.1726" lon="6.84502">
        <ele>669.144</ele>
        <time>2018-08-01T14:49:04Z</time>
      </trkpt>
      <trkpt lat="47.17255" lon="6.84498">
        <ele>668.753</ele>
        <time>2018-08-01T14:49:06Z</time>
      </trkpt>
      <trkpt lat="47.17255" lon="6.84491">
        <ele>668.464</ele>
        <time>2018-08-01T14:49:08Z</time>
      </trkpt>
      <trkpt lat="47.17252" lon="6.84484">
        <ele>667.606</ele>
        <time>2018-08-01T14:49:11Z</time>
      </trkpt>
      <trkpt lat="47.17251" lon="6.84477">
        <ele>667.316</ele>
        <time>2018-08-01T14:49:14Z</time>
      </trkpt>
      <trkpt lat="47.17247" lon="6.8447">
        <ele>667.308</ele>
        <time>2018-08-01T14:49:17Z</time>
      </trkpt>
      <trkpt lat="47.17242" lon="6.84464">
        <ele>667.438</ele>
        <time>2018-08-01T14:49:19Z</time>
      </trkpt>
      <trkpt lat="47.17236" lon="6.84455">
        <ele>667.463</ele>
        <time>2018-08-01T14:49:20Z</time>
      </trkpt>
      <trkpt lat="47.17234" lon="6.84448">
        <ele>667.447</ele>
        <time>2018-08-01T14:49:21Z</time>
      </trkpt>
      <trkpt lat="47.17229" lon="6.84439">
        <ele>667.469</ele>
        <time>2018-08-01T14:49:23Z</time>
      </trkpt>
      <trkpt lat="47.17226" lon="6.8443">
        <ele>667.355</ele>
        <time>2018-08-01T14:49:25Z</time>
      </trkpt>
      <trkpt lat="47.17222" lon="6.84426">
        <ele>667.252</ele>
        <time>2018-08-01T14:49:26Z</time>
      </trkpt>
      <trkpt lat="47.17218" lon="6.84421">
        <ele>667.057</ele>
        <time>2018-08-01T14:49:27Z</time>
      </trkpt>
      <trkpt lat="47.17214" lon="6.84416">
        <ele>667.026</ele>
        <time>2018-08-01T14:49:28Z</time>
      </trkpt>
      <trkpt lat="47.17212" lon="6.84408">
        <ele>666.933</ele>
        <time>2018-08-01T14:49:29Z</time>
      </trkpt>
      <trkpt lat="47.17209" lon="6.84402">
        <ele>666.823</ele>
        <time>2018-08-01T14:49:30Z</time>
      </trkpt>
      <trkpt lat="47.17207" lon="6.84394">
        <ele>666.515</ele>
        <time>2018-08-01T14:49:31Z</time>
      </trkpt>
      <trkpt lat="47.17201" lon="6.84388">
        <ele>666.308</ele>
        <time>2018-08-01T14:49:32Z</time>
      </trkpt>
      <trkpt lat="47.17198" lon="6.84382">
        <ele>666.085</ele>
        <time>2018-08-01T14:49:33Z</time>
      </trkpt>
      <trkpt lat="47.17194" lon="6.84374">
        <ele>665.78</ele>
        <time>2018-08-01T14:49:34Z</time>
      </trkpt>
      <trkpt lat="47.17187" lon="6.84365">
        <ele>665.434</ele>
        <time>2018-08-01T14:49:36Z</time>
      </trkpt>
      <trkpt lat="47.17185" lon="6.84358">
        <ele>665.386</ele>
        <time>2018-08-01T14:49:37Z</time>
      </trkpt>
      <trkpt lat="47.17182" lon="6.84353">
        <ele>665.272</ele>
        <time>2018-08-01T14:49:38Z</time>
      </trkpt>
      <trkpt lat="47.17178" lon="6.84341">
        <ele>665.199</ele>
        <time>2018-08-01T14:49:40Z</time>
      </trkpt>
      <trkpt lat="47.17171" lon="6.8433">
        <ele>665.184</ele>
        <time>2018-08-01T14:49:42Z</time>
      </trkpt>
      <trkpt lat="47.17168" lon="6.84323">
        <ele>665.183</ele>
        <time>2018-08-01T14:49:43Z</time>
      </trkpt>
      <trkpt lat="47.17162" lon="6.84319">
        <ele>665.171</ele>
        <time>2018-08-01T14:49:44Z</time>
      </trkpt>
      <trkpt lat="47.17157" lon="6.84314">
        <ele>665.041</ele>
        <time>2018-08-01T14:49:45Z</time>
      </trkpt>
      <trkpt lat="47.17154" lon="6.84307">
        <ele>664.815</ele>
        <time>2018-08-01T14:49:46Z</time>
      </trkpt>
      <trkpt lat="47.17151" lon="6.843">
        <ele>664.608</ele>
        <time>2018-08-01T14:49:47Z</time>
      </trkpt>
      <trkpt lat="47.17143" lon="6.84289">
        <ele>664.369</ele>
        <time>2018-08-01T14:49:49Z</time>
      </trkpt>
      <trkpt lat="47.17138" lon="6.84286">
        <ele>664.124</ele>
        <time>2018-08-01T14:49:50Z</time>
      </trkpt>
      <trkpt lat="47.17133" lon="6.84279">
        <ele>663.978</ele>
        <time>2018-08-01T14:49:51Z</time>
      </trkpt>
      <trkpt lat="47.17127" lon="6.84274">
        <ele>663.88</ele>
        <time>2018-08-01T14:49:52Z</time>
      </trkpt>
      <trkpt lat="47.17123" lon="6.84268">
        <ele>663.646</ele>
        <time>2018-08-01T14:49:53Z</time>
      </trkpt>
      <trkpt lat="47.17119" lon="6.84264">
        <ele>663.353</ele>
        <time>2018-08-01T14:49:54Z</time>
      </trkpt>
      <trkpt lat="47.17114" lon="6.84258">
        <ele>663.158</ele>
        <time>2018-08-01T14:49:55Z</time>
      </trkpt>
      <trkpt lat="47.17107" lon="6.84252">
        <ele>662.987</ele>
        <time>2018-08-01T14:49:56Z</time>
      </trkpt>
      <trkpt lat="47.17101" lon="6.84245">
        <ele>662.678</ele>
        <time>2018-08-01T14:49:57Z</time>
      </trkpt>
      <trkpt lat="47.17095" lon="6.84243">
        <ele>662.233</ele>
        <time>2018-08-01T14:49:58Z</time>
      </trkpt>
      <trkpt lat="47.17089" lon="6.8424">
        <ele>661.926</ele>
        <time>2018-08-01T14:49:59Z</time>
      </trkpt>
      <trkpt lat="47.17084" lon="6.84236">
        <ele>661.608</ele>
        <time>2018-08-01T14:50:00Z</time>
      </trkpt>
      <trkpt lat="47.17078" lon="6.84231">
        <ele>661.239</ele>
        <time>2018-08-01T14:50:01Z</time>
      </trkpt>
      <trkpt lat="47.17071" lon="6.8423">
        <ele>661.264</ele>
        <time>2018-08-01T14:50:02Z</time>
      </trkpt>
      <trkpt lat="47.17066" lon="6.84226">
        <ele>660.928</ele>
        <time>2018-08-01T14:50:03Z</time>
      </trkpt>
      <trkpt lat="47.17061" lon="6.84229">
        <ele>660.68</ele>
        <time>2018-08-01T14:50:04Z</time>
      </trkpt>
      <trkpt lat="47.17055" lon="6.84226">
        <ele>660.426</ele>
        <time>2018-08-01T14:50:05Z</time>
      </trkpt>
      <trkpt lat="47.1705" lon="6.84222">
        <ele>660.183</ele>
        <time>2018-08-01T14:50:06Z</time>
      </trkpt>
      <trkpt lat="47.1704" lon="6.84222">
        <ele>659.418</ele>
        <time>2018-08-01T14:50:08Z</time>
      </trkpt>
      <trkpt lat="47.17032" lon="6.84221">
        <ele>659.237</ele>
        <time>2018-08-01T14:50:09Z</time>
      </trkpt>
      <trkpt lat="47.17028" lon="6.84232">
        <ele>658.846</ele>
        <time>2018-08-01T14:50:10Z</time>
      </trkpt>
      <trkpt lat="47.17021" lon="6.84233">
        <ele>658.488</ele>
        <time>2018-08-01T14:50:11Z</time>
      </trkpt>
      <trkpt lat="47.17016" lon="6.84237">
        <ele>658.216</ele>
        <time>2018-08-01T14:50:12Z</time>
      </trkpt>
      <trkpt lat="47.17007" lon="6.84236">
        <ele>657.808</ele>
        <time>2018-08-01T14:50:13Z</time>
      </trkpt>
      <trkpt lat="47.16997" lon="6.84236">
        <ele>657.476</ele>
        <time>2018-08-01T14:50:14Z</time>
      </trkpt>
      <trkpt lat="47.16993" lon="6.8424">
        <ele>657.071</ele>
        <time>2018-08-01T14:50:15Z</time>
      </trkpt>
      <trkpt lat="47.16987" lon="6.84242">
        <ele>656.755</ele>
        <time>2018-08-01T14:50:16Z</time>
      </trkpt>
      <trkpt lat="47.16979" lon="6.84246">
        <ele>656.337</ele>
        <time>2018-08-01T14:50:17Z</time>
      </trkpt>
      <trkpt lat="47.16969" lon="6.84251">
        <ele>656.073</ele>
        <time>2018-08-01T14:50:18Z</time>
      </trkpt>
      <trkpt lat="47.16963" lon="6.84259">
        <ele>655.56</ele>
        <time>2018-08-01T14:50:19Z</time>
      </trkpt>
      <trkpt lat="47.16959" lon="6.84268">
        <ele>655.065</ele>
        <time>2018-08-01T14:50:20Z</time>
      </trkpt>
      <trkpt lat="47.16952" lon="6.84272">
        <ele>654.584</ele>
        <time>2018-08-01T14:50:21Z</time>
      </trkpt>
      <trkpt lat="47.16946" lon="6.84275">
        <ele>654.258</ele>
        <time>2018-08-01T14:50:22Z</time>
      </trkpt>
      <trkpt lat="47.16942" lon="6.84278">
        <ele>653.852</ele>
        <time>2018-08-01T14:50:23Z</time>
      </trkpt>
      <trkpt lat="47.16936" lon="6.84285">
        <ele>653.517</ele>
        <time>2018-08-01T14:50:24Z</time>
      </trkpt>
      <trkpt lat="47.16932" lon="6.84293">
        <ele>653.408</ele>
        <time>2018-08-01T14:50:25Z</time>
      </trkpt>
      <trkpt lat="47.16927" lon="6.84296">
        <ele>653.227</ele>
        <time>2018-08-01T14:50:26Z</time>
      </trkpt>
      <trkpt lat="47.16924" lon="6.84304">
        <ele>653.192</ele>
        <time>2018-08-01T14:50:27Z</time>
      </trkpt>
      <trkpt lat="47.16919" lon="6.84309">
        <ele>653.126</ele>
        <time>2018-08-01T14:50:28Z</time>
      </trkpt>
      <trkpt lat="47.16915" lon="6.84316">
        <ele>653.178</ele>
        <time>2018-08-01T14:50:29Z</time>
      </trkpt>
      <trkpt lat="47.16909" lon="6.84323">
        <ele>653.154</ele>
        <time>2018-08-01T14:50:30Z</time>
      </trkpt>
      <trkpt lat="47.16907" lon="6.84332">
        <ele>653.261</ele>
        <time>2018-08-01T14:50:31Z</time>
      </trkpt>
      <trkpt lat="47.16898" lon="6.8433">
        <ele>653.246</ele>
        <time>2018-08-01T14:50:32Z</time>
      </trkpt>
      <trkpt lat="47.16891" lon="6.84328">
        <ele>653.435</ele>
        <time>2018-08-01T14:50:33Z</time>
      </trkpt>
      <trkpt lat="47.16887" lon="6.84331">
        <ele>653.677</ele>
        <time>2018-08-01T14:50:34Z</time>
      </trkpt>
      <trkpt lat="47.16882" lon="6.84337">
        <ele>654.161</ele>
        <time>2018-08-01T14:50:36Z</time>
      </trkpt>
      <trkpt lat="47.16882" lon="6.84347">
        <ele>654.427</ele>
        <time>2018-08-01T14:50:37Z</time>
      </trkpt>
      <trkpt lat="47.16877" lon="6.84344">
        <ele>654.808</ele>
        <time>2018-08-01T14:50:38Z</time>
      </trkpt>
      <trkpt lat="47.16872" lon="6.8435">
        <ele>655.769</ele>
        <time>2018-08-01T14:50:40Z</time>
      </trkpt>
      <trkpt lat="47.16866" lon="6.84354">
        <ele>656.674</ele>
        <time>2018-08-01T14:50:42Z</time>
      </trkpt>
      <trkpt lat="47.16859" lon="6.84359">
        <ele>657.548</ele>
        <time>2018-08-01T14:50:44Z</time>
      </trkpt>
      <trkpt lat="47.16855" lon="6.84366">
        <ele>658.38</ele>
        <time>2018-08-01T14:50:46Z</time>
      </trkpt>
      <trkpt lat="47.16854" lon="6.84375">
        <ele>659.156</ele>
        <time>2018-08-01T14:50:48Z</time>
      </trkpt>
      <trkpt lat="47.16852" lon="6.84383">
        <ele>659.733</ele>
        <time>2018-08-01T14:50:50Z</time>
      </trkpt>
      <trkpt lat="47.16846" lon="6.84389">
        <ele>660.288</ele>
        <time>2018-08-01T14:50:52Z</time>
      </trkpt>
      <trkpt lat="47.1684" lon="6.84392">
        <ele>660.667</ele>
        <time>2018-08-01T14:50:54Z</time>
      </trkpt>
      <trkpt lat="47.16834" lon="6.84396">
        <ele>661.136</ele>
        <time>2018-08-01T14:50:56Z</time>
      </trkpt>
      <trkpt lat="47.16829" lon="6.84399">
        <ele>661.317</ele>
        <time>2018-08-01T14:50:58Z</time>
      </trkpt>
      <trkpt lat="47.16823" lon="6.84402">
        <ele>661.918</ele>
        <time>2018-08-01T14:51:00Z</time>
      </trkpt>
      <trkpt lat="47.16817" lon="6.84401">
        <ele>662.508</ele>
        <time>2018-08-01T14:51:03Z</time>
      </trkpt>
      <trkpt lat="47.16811" lon="6.84402">
        <ele>662.695</ele>
        <time>2018-08-01T14:51:06Z</time>
      </trkpt>
      <trkpt lat="47.16807" lon="6.84404">
        <ele>662.55</ele>
        <time>2018-08-01T14:51:08Z</time>
      </trkpt>
      <trkpt lat="47.16801" lon="6.84406">
        <ele>662.314</ele>
        <time>2018-08-01T14:51:10Z</time>
      </trkpt>
      <trkpt lat="47.16796" lon="6.84406">
        <ele>662.266</ele>
        <time>2018-08-01T14:51:11Z</time>
      </trkpt>
      <trkpt lat="47.16792" lon="6.84406">
        <ele>662.122</ele>
        <time>2018-08-01T14:51:12Z</time>
      </trkpt>
      <trkpt lat="47.16785" lon="6.84407">
        <ele>661.629</ele>
        <time>2018-08-01T14:51:14Z</time>
      </trkpt>
      <trkpt lat="47.16777" lon="6.84412">
        <ele>661.084</ele>
        <time>2018-08-01T14:51:16Z</time>
      </trkpt>
      <trkpt lat="47.16771" lon="6.8442">
        <ele>660.353</ele>
        <time>2018-08-01T14:51:18Z</time>
      </trkpt>
      <trkpt lat="47.16764" lon="6.84429">
        <ele>659.642</ele>
        <time>2018-08-01T14:51:20Z</time>
      </trkpt>
      <trkpt lat="47.1676" lon="6.84437">
        <ele>659.222</ele>
        <time>2018-08-01T14:51:21Z</time>
      </trkpt>
      <trkpt lat="47.16759" lon="6.84443">
        <ele>658.814</ele>
        <time>2018-08-01T14:51:22Z</time>
      </trkpt>
      <trkpt lat="47.16752" lon="6.84446">
        <ele>658.408</ele>
        <time>2018-08-01T14:51:23Z</time>
      </trkpt>
      <trkpt lat="47.16752" lon="6.84453">
        <ele>657.986</ele>
        <time>2018-08-01T14:51:24Z</time>
      </trkpt>
      <trkpt lat="47.16746" lon="6.84452">
        <ele>657.911</ele>
        <time>2018-08-01T14:51:25Z</time>
      </trkpt>
      <trkpt lat="47.16748" lon="6.84461">
        <ele>656.635</ele>
        <time>2018-08-01T14:51:28Z</time>
      </trkpt>
      <trkpt lat="47.16748" lon="6.84472">
        <ele>655.857</ele>
        <time>2018-08-01T14:51:30Z</time>
      </trkpt>
      <trkpt lat="47.16747" lon="6.84481">
        <ele>655.493</ele>
        <time>2018-08-01T14:51:31Z</time>
      </trkpt>
      <trkpt lat="47.16744" lon="6.84488">
        <ele>655.08</ele>
        <time>2018-08-01T14:51:32Z</time>
      </trkpt>
      <trkpt lat="47.16744" lon="6.84497">
        <ele>654.525</ele>
        <time>2018-08-01T14:51:33Z</time>
      </trkpt>
      <trkpt lat="47.16739" lon="6.84505">
        <ele>653.534</ele>
        <time>2018-08-01T14:51:35Z</time>
      </trkpt>
      <trkpt lat="47.16736" lon="6.84511">
        <ele>652.381</ele>
        <time>2018-08-01T14:51:37Z</time>
      </trkpt>
      <trkpt lat="47.16736" lon="6.84518">
        <ele>650.361</ele>
        <time>2018-08-01T14:51:40Z</time>
      </trkpt>
      <trkpt lat="47.16735" lon="6.84524">
        <ele>647.517</ele>
        <time>2018-08-01T14:53:04Z</time>
      </trkpt>
      <trkpt lat="47.16731" lon="6.84529">
        <ele>648.008</ele>
        <time>2018-08-01T14:53:34Z</time>
      </trkpt>
      <trkpt lat="47.16728" lon="6.84537">
        <ele>647.55</ele>
        <time>2018-08-01T14:53:37Z</time>
      </trkpt>
      <trkpt lat="47.16724" lon="6.84545">
        <ele>646.425</ele>
        <time>2018-08-01T14:53:40Z</time>
      </trkpt>
      <trkpt lat="47.16718" lon="6.84558">
        <ele>645.449</ele>
        <time>2018-08-01T14:53:42Z</time>
      </trkpt>
      <trkpt lat="47.16715" lon="6.84566">
        <ele>644.891</ele>
        <time>2018-08-01T14:53:43Z</time>
      </trkpt>
      <trkpt lat="47.16712" lon="6.84574">
        <ele>644.227</ele>
        <time>2018-08-01T14:53:44Z</time>
      </trkpt>
      <trkpt lat="47.16705" lon="6.84582">
        <ele>643.444</ele>
        <time>2018-08-01T14:53:45Z</time>
      </trkpt>
      <trkpt lat="47.16702" lon="6.84589">
        <ele>642.679</ele>
        <time>2018-08-01T14:53:46Z</time>
      </trkpt>
      <trkpt lat="47.16698" lon="6.84595">
        <ele>641.768</ele>
        <time>2018-08-01T14:53:47Z</time>
      </trkpt>
      <trkpt lat="47.16695" lon="6.84602">
        <ele>641.745</ele>
        <time>2018-08-01T14:53:48Z</time>
      </trkpt>
      <trkpt lat="47.16692" lon="6.84609">
        <ele>641.047</ele>
        <time>2018-08-01T14:53:49Z</time>
      </trkpt>
      <trkpt lat="47.16689" lon="6.84616">
        <ele>640.211</ele>
        <time>2018-08-01T14:53:50Z</time>
      </trkpt>
      <trkpt lat="47.16685" lon="6.84625">
        <ele>639.508</ele>
        <time>2018-08-01T14:53:51Z</time>
      </trkpt>
      <trkpt lat="47.16681" lon="6.84634">
        <ele>638.876</ele>
        <time>2018-08-01T14:53:52Z</time>
      </trkpt>
      <trkpt lat="47.16679" lon="6.84644">
        <ele>638.151</ele>
        <time>2018-08-01T14:53:53Z</time>
      </trkpt>
      <trkpt lat="47.16677" lon="6.84655">
        <ele>637.385</ele>
        <time>2018-08-01T14:53:54Z</time>
      </trkpt>
      <trkpt lat="47.16675" lon="6.84665">
        <ele>636.727</ele>
        <time>2018-08-01T14:53:55Z</time>
      </trkpt>
      <trkpt lat="47.16672" lon="6.84673">
        <ele>636.243</ele>
        <time>2018-08-01T14:53:56Z</time>
      </trkpt>
      <trkpt lat="47.16671" lon="6.84681">
        <ele>635.78</ele>
        <time>2018-08-01T14:53:57Z</time>
      </trkpt>
      <trkpt lat="47.16668" lon="6.84692">
        <ele>635.175</ele>
        <time>2018-08-01T14:53:59Z</time>
      </trkpt>
      <trkpt lat="47.16666" lon="6.84701">
        <ele>635.144</ele>
        <time>2018-08-01T14:54:01Z</time>
      </trkpt>
      <trkpt lat="47.16665" lon="6.84711">
        <ele>635.461</ele>
        <time>2018-08-01T14:54:03Z</time>
      </trkpt>
      <trkpt lat="47.16663" lon="6.84718">
        <ele>635.921</ele>
        <time>2018-08-01T14:54:05Z</time>
      </trkpt>
      <trkpt lat="47.16662" lon="6.84726">
        <ele>636.413</ele>
        <time>2018-08-01T14:54:07Z</time>
      </trkpt>
      <trkpt lat="47.16661" lon="6.84734">
        <ele>637.008</ele>
        <time>2018-08-01T14:54:09Z</time>
      </trkpt>
      <trkpt lat="47.16659" lon="6.84741">
        <ele>637.798</ele>
        <time>2018-08-01T14:54:11Z</time>
      </trkpt>
      <trkpt lat="47.16658" lon="6.84748">
        <ele>638.543</ele>
        <time>2018-08-01T14:54:13Z</time>
      </trkpt>
      <trkpt lat="47.16657" lon="6.84755">
        <ele>638.927</ele>
        <time>2018-08-01T14:54:15Z</time>
      </trkpt>
      <trkpt lat="47.16655" lon="6.84762">
        <ele>639.789</ele>
        <time>2018-08-01T14:54:17Z</time>
      </trkpt>
      <trkpt lat="47.16653" lon="6.84768">
        <ele>641.015</ele>
        <time>2018-08-01T14:54:20Z</time>
      </trkpt>
      <trkpt lat="47.1665" lon="6.84775">
        <ele>642.122</ele>
        <time>2018-08-01T14:54:23Z</time>
      </trkpt>
      <trkpt lat="47.16649" lon="6.84785">
        <ele>643.237</ele>
        <time>2018-08-01T14:54:26Z</time>
      </trkpt>
      <trkpt lat="47.16648" lon="6.84792">
        <ele>643.926</ele>
        <time>2018-08-01T14:54:28Z</time>
      </trkpt>
      <trkpt lat="47.16647" lon="6.84798">
        <ele>644.511</ele>
        <time>2018-08-01T14:54:30Z</time>
      </trkpt>
      <trkpt lat="47.16647" lon="6.84808">
        <ele>645.421</ele>
        <time>2018-08-01T14:54:33Z</time>
      </trkpt>
      <trkpt lat="47.16648" lon="6.84816">
        <ele>646.203</ele>
        <time>2018-08-01T14:54:36Z</time>
      </trkpt>
      <trkpt lat="47.1665" lon="6.84824">
        <ele>647.108</ele>
        <time>2018-08-01T14:54:39Z</time>
      </trkpt>
      <trkpt lat="47.16652" lon="6.84831">
        <ele>648.033</ele>
        <time>2018-08-01T14:54:42Z</time>
      </trkpt>
      <trkpt lat="47.16655" lon="6.8484">
        <ele>648.578</ele>
        <time>2018-08-01T14:54:45Z</time>
      </trkpt>
      <trkpt lat="47.16657" lon="6.84846">
        <ele>649.082</ele>
        <time>2018-08-01T14:54:47Z</time>
      </trkpt>
      <trkpt lat="47.16659" lon="6.84855">
        <ele>649.684</ele>
        <time>2018-08-01T14:54:50Z</time>
      </trkpt>
      <trkpt lat="47.16662" lon="6.84864">
        <ele>650.15</ele>
        <time>2018-08-01T14:54:53Z</time>
      </trkpt>
      <trkpt lat="47.16664" lon="6.84872">
        <ele>650.557</ele>
        <time>2018-08-01T14:54:56Z</time>
      </trkpt>
      <trkpt lat="47.16667" lon="6.84881">
        <ele>650.732</ele>
        <time>2018-08-01T14:54:59Z</time>
      </trkpt>
      <trkpt lat="47.16668" lon="6.84889">
        <ele>650.841</ele>
        <time>2018-08-01T14:55:02Z</time>
      </trkpt>
      <trkpt lat="47.16668" lon="6.84896">
        <ele>651.357</ele>
        <time>2018-08-01T14:55:17Z</time>
      </trkpt>
      <trkpt lat="47.16669" lon="6.84903">
        <ele>651.6</ele>
        <time>2018-08-01T14:55:39Z</time>
      </trkpt>
      <trkpt lat="47.16671" lon="6.84911">
        <ele>652.32</ele>
        <time>2018-08-01T14:55:42Z</time>
      </trkpt>
      <trkpt lat="47.16671" lon="6.84919">
        <ele>652.908</ele>
        <time>2018-08-01T14:55:45Z</time>
      </trkpt>
      <trkpt lat="47.16672" lon="6.84928">
        <ele>653.347</ele>
        <time>2018-08-01T14:55:48Z</time>
      </trkpt>
      <trkpt lat="47.16674" lon="6.84937">
        <ele>653.952</ele>
        <time>2018-08-01T14:55:51Z</time>
      </trkpt>
      <trkpt lat="47.16676" lon="6.84944">
        <ele>654.336</ele>
        <time>2018-08-01T14:55:53Z</time>
      </trkpt>
      <trkpt lat="47.16678" lon="6.84951">
        <ele>654.648</ele>
        <time>2018-08-01T14:55:55Z</time>
      </trkpt>
      <trkpt lat="47.1668" lon="6.84959">
        <ele>654.944</ele>
        <time>2018-08-01T14:55:57Z</time>
      </trkpt>
      <trkpt lat="47.16684" lon="6.84967">
        <ele>655.221</ele>
        <time>2018-08-01T14:55:59Z</time>
      </trkpt>
      <trkpt lat="47.16687" lon="6.84974">
        <ele>655.656</ele>
        <time>2018-08-01T14:56:01Z</time>
      </trkpt>
      <trkpt lat="47.1669" lon="6.84981">
        <ele>655.915</ele>
        <time>2018-08-01T14:56:03Z</time>
      </trkpt>
      <trkpt lat="47.16694" lon="6.84988">
        <ele>656.119</ele>
        <time>2018-08-01T14:56:05Z</time>
      </trkpt>
      <trkpt lat="47.16697" lon="6.84996">
        <ele>656.209</ele>
        <time>2018-08-01T14:56:07Z</time>
      </trkpt>
      <trkpt lat="47.16701" lon="6.85004">
        <ele>656.319</ele>
        <time>2018-08-01T14:56:09Z</time>
      </trkpt>
      <trkpt lat="47.16704" lon="6.85013">
        <ele>656.308</ele>
        <time>2018-08-01T14:56:11Z</time>
      </trkpt>
      <trkpt lat="47.16707" lon="6.85022">
        <ele>656.323</ele>
        <time>2018-08-01T14:56:13Z</time>
      </trkpt>
      <trkpt lat="47.16708" lon="6.85032">
        <ele>656.448</ele>
        <time>2018-08-01T14:56:15Z</time>
      </trkpt>
      <trkpt lat="47.1671" lon="6.85041">
        <ele>656.682</ele>
        <time>2018-08-01T14:56:17Z</time>
      </trkpt>
      <trkpt lat="47.16711" lon="6.85049">
        <ele>656.864</ele>
        <time>2018-08-01T14:56:19Z</time>
      </trkpt>
      <trkpt lat="47.16712" lon="6.85059">
        <ele>656.81</ele>
        <time>2018-08-01T14:56:21Z</time>
      </trkpt>
      <trkpt lat="47.16713" lon="6.85071">
        <ele>656.677</ele>
        <time>2018-08-01T14:56:23Z</time>
      </trkpt>
      <trkpt lat="47.16713" lon="6.85084">
        <ele>656.392</ele>
        <time>2018-08-01T14:56:25Z</time>
      </trkpt>
      <trkpt lat="47.16713" lon="6.85094">
        <ele>656.131</ele>
        <time>2018-08-01T14:56:27Z</time>
      </trkpt>
      <trkpt lat="47.16713" lon="6.85102">
        <ele>656.385</ele>
        <time>2018-08-01T14:56:30Z</time>
      </trkpt>
      <trkpt lat="47.16713" lon="6.85109">
        <ele>656.789</ele>
        <time>2018-08-01T14:56:33Z</time>
      </trkpt>
      <trkpt lat="47.16711" lon="6.85116">
        <ele>656.317</ele>
        <time>2018-08-01T14:56:44Z</time>
      </trkpt>
      <trkpt lat="47.16713" lon="6.85123">
        <ele>656.108</ele>
        <time>2018-08-01T14:57:10Z</time>
      </trkpt>
      <trkpt lat="47.16715" lon="6.85132">
        <ele>656.27</ele>
        <time>2018-08-01T14:57:13Z</time>
      </trkpt>
      <trkpt lat="47.16716" lon="6.85141">
        <ele>656.275</ele>
        <time>2018-08-01T14:57:16Z</time>
      </trkpt>
      <trkpt lat="47.16717" lon="6.85148">
        <ele>656.259</ele>
        <time>2018-08-01T14:57:18Z</time>
      </trkpt>
      <trkpt lat="47.16718" lon="6.85156">
        <ele>656.221</ele>
        <time>2018-08-01T14:57:20Z</time>
      </trkpt>
      <trkpt lat="47.16719" lon="6.85164">
        <ele>656.357</ele>
        <time>2018-08-01T14:57:22Z</time>
      </trkpt>
      <trkpt lat="47.1672" lon="6.85171">
        <ele>656.464</ele>
        <time>2018-08-01T14:57:24Z</time>
      </trkpt>
      <trkpt lat="47.16721" lon="6.85179">
        <ele>656.789</ele>
        <time>2018-08-01T14:57:26Z</time>
      </trkpt>
      <trkpt lat="47.16722" lon="6.85188">
        <ele>657.068</ele>
        <time>2018-08-01T14:57:28Z</time>
      </trkpt>
      <trkpt lat="47.16723" lon="6.85198">
        <ele>657.375</ele>
        <time>2018-08-01T14:57:30Z</time>
      </trkpt>
      <trkpt lat="47.16724" lon="6.85206">
        <ele>657.428</ele>
        <time>2018-08-01T14:57:32Z</time>
      </trkpt>
      <trkpt lat="47.16725" lon="6.85215">
        <ele>657.72</ele>
        <time>2018-08-01T14:57:34Z</time>
      </trkpt>
      <trkpt lat="47.16726" lon="6.85223">
        <ele>658.108</ele>
        <time>2018-08-01T14:57:36Z</time>
      </trkpt>
      <trkpt lat="47.16727" lon="6.85232">
        <ele>658.459</ele>
        <time>2018-08-01T14:57:38Z</time>
      </trkpt>
      <trkpt lat="47.16729" lon="6.85241">
        <ele>658.634</ele>
        <time>2018-08-01T14:57:40Z</time>
      </trkpt>
      <trkpt lat="47.16732" lon="6.85249">
        <ele>658.748</ele>
        <time>2018-08-01T14:57:42Z</time>
      </trkpt>
      <trkpt lat="47.16735" lon="6.85256">
        <ele>658.86</ele>
        <time>2018-08-01T14:57:44Z</time>
      </trkpt>
      <trkpt lat="47.16738" lon="6.85261">
        <ele>658.876</ele>
        <time>2018-08-01T14:57:46Z</time>
      </trkpt>
      <trkpt lat="47.16741" lon="6.85267">
        <ele>658.843</ele>
        <time>2018-08-01T14:57:48Z</time>
      </trkpt>
      <trkpt lat="47.16742" lon="6.85274">
        <ele>658.758</ele>
        <time>2018-08-01T14:57:50Z</time>
      </trkpt>
      <trkpt lat="47.16744" lon="6.85281">
        <ele>658.647</ele>
        <time>2018-08-01T14:57:52Z</time>
      </trkpt>
      <trkpt lat="47.16745" lon="6.85288">
        <ele>658.441</ele>
        <time>2018-08-01T14:57:54Z</time>
      </trkpt>
      <trkpt lat="47.16747" lon="6.85295">
        <ele>658.281</ele>
        <time>2018-08-01T14:57:56Z</time>
      </trkpt>
      <trkpt lat="47.16749" lon="6.85301">
        <ele>658.009</ele>
        <time>2018-08-01T14:57:59Z</time>
      </trkpt>
      <trkpt lat="47.16749" lon="6.85309">
        <ele>658.008</ele>
        <time>2018-08-01T14:58:34Z</time>
      </trkpt>
      <trkpt lat="47.16751" lon="6.85316">
        <ele>658.346</ele>
        <time>2018-08-01T14:58:37Z</time>
      </trkpt>
      <trkpt lat="47.16753" lon="6.85325">
        <ele>658.851</ele>
        <time>2018-08-01T14:58:40Z</time>
      </trkpt>
      <trkpt lat="47.16755" lon="6.85333">
        <ele>659.345</ele>
        <time>2018-08-01T14:58:43Z</time>
      </trkpt>
      <trkpt lat="47.16757" lon="6.85341">
        <ele>659.897</ele>
        <time>2018-08-01T14:58:46Z</time>
      </trkpt>
      <trkpt lat="47.1676" lon="6.85349">
        <ele>660.593</ele>
        <time>2018-08-01T14:58:49Z</time>
      </trkpt>
      <trkpt lat="47.16763" lon="6.85357">
        <ele>661.29</ele>
        <time>2018-08-01T14:58:52Z</time>
      </trkpt>
      <trkpt lat="47.16766" lon="6.85364">
        <ele>661.635</ele>
        <time>2018-08-01T14:58:54Z</time>
      </trkpt>
      <trkpt lat="47.16768" lon="6.85373">
        <ele>662.134</ele>
        <time>2018-08-01T14:58:57Z</time>
      </trkpt>
      <trkpt lat="47.1677" lon="6.8538">
        <ele>662.676</ele>
        <time>2018-08-01T14:58:59Z</time>
      </trkpt>
      <trkpt lat="47.16772" lon="6.85388">
        <ele>663.19</ele>
        <time>2018-08-01T14:59:01Z</time>
      </trkpt>
      <trkpt lat="47.16775" lon="6.85395">
        <ele>663.719</ele>
        <time>2018-08-01T14:59:03Z</time>
      </trkpt>
      <trkpt lat="47.16778" lon="6.85402">
        <ele>664.308</ele>
        <time>2018-08-01T14:59:05Z</time>
      </trkpt>
      <trkpt lat="47.1678" lon="6.85408">
        <ele>664.899</ele>
        <time>2018-08-01T14:59:07Z</time>
      </trkpt>
      <trkpt lat="47.16782" lon="6.85414">
        <ele>665.384</ele>
        <time>2018-08-01T14:59:09Z</time>
      </trkpt>
      <trkpt lat="47.16785" lon="6.8542">
        <ele>665.978</ele>
        <time>2018-08-01T14:59:11Z</time>
      </trkpt>
      <trkpt lat="47.16787" lon="6.85426">
        <ele>666.55</ele>
        <time>2018-08-01T14:59:13Z</time>
      </trkpt>
      <trkpt lat="47.16789" lon="6.85432">
        <ele>667.086</ele>
        <time>2018-08-01T14:59:15Z</time>
      </trkpt>
      <trkpt lat="47.16793" lon="6.85441">
        <ele>667.953</ele>
        <time>2018-08-01T14:59:18Z</time>
      </trkpt>
      <trkpt lat="47.16796" lon="6.85447">
        <ele>668.458</ele>
        <time>2018-08-01T14:59:20Z</time>
      </trkpt>
      <trkpt lat="47.16799" lon="6.85453">
        <ele>668.887</ele>
        <time>2018-08-01T14:59:22Z</time>
      </trkpt>
      <trkpt lat="47.16801" lon="6.8546">
        <ele>669.351</ele>
        <time>2018-08-01T14:59:25Z</time>
      </trkpt>
      <trkpt lat="47.16802" lon="6.85467">
        <ele>669.901</ele>
        <time>2018-08-01T14:59:28Z</time>
      </trkpt>
      <trkpt lat="47.168" lon="6.85476">
        <ele>670.011</ele>
        <time>2018-08-01T14:59:30Z</time>
      </trkpt>
      <trkpt lat="47.16799" lon="6.85484">
        <ele>670.008</ele>
        <time>2018-08-01T14:59:32Z</time>
      </trkpt>
      <trkpt lat="47.16798" lon="6.85491">
        <ele>667.647</ele>
        <time>2018-08-01T15:01:17Z</time>
      </trkpt>
      <trkpt lat="47.168" lon="6.85502">
        <ele>667.582</ele>
        <time>2018-08-01T15:01:20Z</time>
      </trkpt>
      <trkpt lat="47.16802" lon="6.85513">
        <ele>667.486</ele>
        <time>2018-08-01T15:01:22Z</time>
      </trkpt>
      <trkpt lat="47.16804" lon="6.85519">
        <ele>667.398</ele>
        <time>2018-08-01T15:01:23Z</time>
      </trkpt>
      <trkpt lat="47.16806" lon="6.85526">
        <ele>667.184</ele>
        <time>2018-08-01T15:01:24Z</time>
      </trkpt>
      <trkpt lat="47.16809" lon="6.85532">
        <ele>666.851</ele>
        <time>2018-08-01T15:01:25Z</time>
      </trkpt>
      <trkpt lat="47.16812" lon="6.85539">
        <ele>666.476</ele>
        <time>2018-08-01T15:01:26Z</time>
      </trkpt>
      <trkpt lat="47.16814" lon="6.85544">
        <ele>665.945</ele>
        <time>2018-08-01T15:01:27Z</time>
      </trkpt>
      <trkpt lat="47.16816" lon="6.85551">
        <ele>665.586</ele>
        <time>2018-08-01T15:01:28Z</time>
      </trkpt>
      <trkpt lat="47.16821" lon="6.8556">
        <ele>664.66</ele>
        <time>2018-08-01T15:01:30Z</time>
      </trkpt>
      <trkpt lat="47.16824" lon="6.85572">
        <ele>663.826</ele>
        <time>2018-08-01T15:01:32Z</time>
      </trkpt>
      <trkpt lat="47.16826" lon="6.85584">
        <ele>662.908</ele>
        <time>2018-08-01T15:01:34Z</time>
      </trkpt>
      <trkpt lat="47.16827" lon="6.85591">
        <ele>662.53</ele>
        <time>2018-08-01T15:01:35Z</time>
      </trkpt>
      <trkpt lat="47.16828" lon="6.85598">
        <ele>662.345</ele>
        <time>2018-08-01T15:01:36Z</time>
      </trkpt>
      <trkpt lat="47.16828" lon="6.85607">
        <ele>662.169</ele>
        <time>2018-08-01T15:01:37Z</time>
      </trkpt>
      <trkpt lat="47.16827" lon="6.85616">
        <ele>662.051</ele>
        <time>2018-08-01T15:01:38Z</time>
      </trkpt>
      <trkpt lat="47.16827" lon="6.85626">
        <ele>661.987</ele>
        <time>2018-08-01T15:01:39Z</time>
      </trkpt>
      <trkpt lat="47.16826" lon="6.85637">
        <ele>661.874</ele>
        <time>2018-08-01T15:01:40Z</time>
      </trkpt>
      <trkpt lat="47.16825" lon="6.85649">
        <ele>661.679</ele>
        <time>2018-08-01T15:01:41Z</time>
      </trkpt>
      <trkpt lat="47.16822" lon="6.8566">
        <ele>661.648</ele>
        <time>2018-08-01T15:01:42Z</time>
      </trkpt>
      <trkpt lat="47.16821" lon="6.85674">
        <ele>661.446</ele>
        <time>2018-08-01T15:01:43Z</time>
      </trkpt>
      <trkpt lat="47.16819" lon="6.85687">
        <ele>661.288</ele>
        <time>2018-08-01T15:01:44Z</time>
      </trkpt>
      <trkpt lat="47.16818" lon="6.85701">
        <ele>661.016</ele>
        <time>2018-08-01T15:01:45Z</time>
      </trkpt>
      <trkpt lat="47.16816" lon="6.85714">
        <ele>660.608</ele>
        <time>2018-08-01T15:01:46Z</time>
      </trkpt>
      <trkpt lat="47.16812" lon="6.85727">
        <ele>660.376</ele>
        <time>2018-08-01T15:01:47Z</time>
      </trkpt>
      <trkpt lat="47.16807" lon="6.85739">
        <ele>659.961</ele>
        <time>2018-08-01T15:01:48Z</time>
      </trkpt>
      <trkpt lat="47.16799" lon="6.85749">
        <ele>659.375</ele>
        <time>2018-08-01T15:01:49Z</time>
      </trkpt>
      <trkpt lat="47.16792" lon="6.85757">
        <ele>658.447</ele>
        <time>2018-08-01T15:01:50Z</time>
      </trkpt>
      <trkpt lat="47.16785" lon="6.85765">
        <ele>657.783</ele>
        <time>2018-08-01T15:01:51Z</time>
      </trkpt>
      <trkpt lat="47.16778" lon="6.85772">
        <ele>657.14</ele>
        <time>2018-08-01T15:01:52Z</time>
      </trkpt>
      <trkpt lat="47.16772" lon="6.85779">
        <ele>656.345</ele>
        <time>2018-08-01T15:01:53Z</time>
      </trkpt>
      <trkpt lat="47.16768" lon="6.85788">
        <ele>655.714</ele>
        <time>2018-08-01T15:01:54Z</time>
      </trkpt>
      <trkpt lat="47.16763" lon="6.85797">
        <ele>655.257</ele>
        <time>2018-08-01T15:01:55Z</time>
      </trkpt>
      <trkpt lat="47.16765" lon="6.85807">
        <ele>654.7</ele>
        <time>2018-08-01T15:01:56Z</time>
      </trkpt>
      <trkpt lat="47.16765" lon="6.85817">
        <ele>654.12</ele>
        <time>2018-08-01T15:01:57Z</time>
      </trkpt>
      <trkpt lat="47.16765" lon="6.85828">
        <ele>653.708</ele>
        <time>2018-08-01T15:01:58Z</time>
      </trkpt>
      <trkpt lat="47.16765" lon="6.8584">
        <ele>653.517</ele>
        <time>2018-08-01T15:01:59Z</time>
      </trkpt>
      <trkpt lat="47.16766" lon="6.85852">
        <ele>653.232</ele>
        <time>2018-08-01T15:02:00Z</time>
      </trkpt>
      <trkpt lat="47.16766" lon="6.85864">
        <ele>652.936</ele>
        <time>2018-08-01T15:02:01Z</time>
      </trkpt>
      <trkpt lat="47.16766" lon="6.85877">
        <ele>652.558</ele>
        <time>2018-08-01T15:02:02Z</time>
      </trkpt>
      <trkpt lat="47.16765" lon="6.85889">
        <ele>652.084</ele>
        <time>2018-08-01T15:02:03Z</time>
      </trkpt>
      <trkpt lat="47.16763" lon="6.85902">
        <ele>651.321</ele>
        <time>2018-08-01T15:02:04Z</time>
      </trkpt>
      <trkpt lat="47.16759" lon="6.85913">
        <ele>650.536</ele>
        <time>2018-08-01T15:02:05Z</time>
      </trkpt>
      <trkpt lat="47.16755" lon="6.85923">
        <ele>649.795</ele>
        <time>2018-08-01T15:02:06Z</time>
      </trkpt>
      <trkpt lat="47.16748" lon="6.8593">
        <ele>648.936</ele>
        <time>2018-08-01T15:02:07Z</time>
      </trkpt>
      <trkpt lat="47.16738" lon="6.85936">
        <ele>648.017</ele>
        <time>2018-08-01T15:02:08Z</time>
      </trkpt>
      <trkpt lat="47.1673" lon="6.85941">
        <ele>648.018</ele>
        <time>2018-08-01T15:02:09Z</time>
      </trkpt>
      <trkpt lat="47.16722" lon="6.85947">
        <ele>647.208</ele>
        <time>2018-08-01T15:02:10Z</time>
      </trkpt>
      <trkpt lat="47.16714" lon="6.85951">
        <ele>646.365</ele>
        <time>2018-08-01T15:02:11Z</time>
      </trkpt>
      <trkpt lat="47.16705" lon="6.85955">
        <ele>645.43</ele>
        <time>2018-08-01T15:02:12Z</time>
      </trkpt>
      <trkpt lat="47.16695" lon="6.85962">
        <ele>644.414</ele>
        <time>2018-08-01T15:02:13Z</time>
      </trkpt>
      <trkpt lat="47.16688" lon="6.8597">
        <ele>643.476</ele>
        <time>2018-08-01T15:02:14Z</time>
      </trkpt>
      <trkpt lat="47.16681" lon="6.85976">
        <ele>642.242</ele>
        <time>2018-08-01T15:02:15Z</time>
      </trkpt>
      <trkpt lat="47.16671" lon="6.85978">
        <ele>640.969</ele>
        <time>2018-08-01T15:02:16Z</time>
      </trkpt>
      <trkpt lat="47.16662" lon="6.85982">
        <ele>639.624</ele>
        <time>2018-08-01T15:02:17Z</time>
      </trkpt>
      <trkpt lat="47.16653" lon="6.85982">
        <ele>638.453</ele>
        <time>2018-08-01T15:02:18Z</time>
      </trkpt>
      <trkpt lat="47.16645" lon="6.85989">
        <ele>637.244</ele>
        <time>2018-08-01T15:02:19Z</time>
      </trkpt>
      <trkpt lat="47.16636" lon="6.85995">
        <ele>636.305</ele>
        <time>2018-08-01T15:02:20Z</time>
      </trkpt>
      <trkpt lat="47.16631" lon="6.86004">
        <ele>635.515</ele>
        <time>2018-08-01T15:02:21Z</time>
      </trkpt>
      <trkpt lat="47.16624" lon="6.86011">
        <ele>634.608</ele>
        <time>2018-08-01T15:02:22Z</time>
      </trkpt>
      <trkpt lat="47.16617" lon="6.86017">
        <ele>633.656</ele>
        <time>2018-08-01T15:02:23Z</time>
      </trkpt>
      <trkpt lat="47.16608" lon="6.86015">
        <ele>632.671</ele>
        <time>2018-08-01T15:02:24Z</time>
      </trkpt>
      <trkpt lat="47.16601" lon="6.86016">
        <ele>631.535</ele>
        <time>2018-08-01T15:02:25Z</time>
      </trkpt>
      <trkpt lat="47.16594" lon="6.86012">
        <ele>630.667</ele>
        <time>2018-08-01T15:02:26Z</time>
      </trkpt>
      <trkpt lat="47.16588" lon="6.86007">
        <ele>629.833</ele>
        <time>2018-08-01T15:02:27Z</time>
      </trkpt>
      <trkpt lat="47.16582" lon="6.86001">
        <ele>629.46</ele>
        <time>2018-08-01T15:02:28Z</time>
      </trkpt>
      <trkpt lat="47.16576" lon="6.85993">
        <ele>629.135</ele>
        <time>2018-08-01T15:02:29Z</time>
      </trkpt>
      <trkpt lat="47.16569" lon="6.85986">
        <ele>628.444</ele>
        <time>2018-08-01T15:02:31Z</time>
      </trkpt>
      <trkpt lat="47.16566" lon="6.85978">
        <ele>627.758</ele>
        <time>2018-08-01T15:02:32Z</time>
      </trkpt>
      <trkpt lat="47.16561" lon="6.85968">
        <ele>625.752</ele>
        <time>2018-08-01T15:02:34Z</time>
      </trkpt>
      <trkpt lat="47.16553" lon="6.85963">
        <ele>623.917</ele>
        <time>2018-08-01T15:02:36Z</time>
      </trkpt>
      <trkpt lat="47.16547" lon="6.85962">
        <ele>623.408</ele>
        <time>2018-08-01T15:02:38Z</time>
      </trkpt>
      <trkpt lat="47.16539" lon="6.85961">
        <ele>623.357</ele>
        <time>2018-08-01T15:02:40Z</time>
      </trkpt>
      <trkpt lat="47.16532" lon="6.85963">
        <ele>623.692</ele>
        <time>2018-08-01T15:02:42Z</time>
      </trkpt>
      <trkpt lat="47.16528" lon="6.85966">
        <ele>623.856</ele>
        <time>2018-08-01T15:02:44Z</time>
      </trkpt>
      <trkpt lat="47.16523" lon="6.85966">
        <ele>622.958</ele>
        <time>2018-08-01T15:03:02Z</time>
      </trkpt>
      <trkpt lat="47.16518" lon="6.85967">
        <ele>623.084</ele>
        <time>2018-08-01T15:03:04Z</time>
      </trkpt>
      <trkpt lat="47.16512" lon="6.85967">
        <ele>623.171</ele>
        <time>2018-08-01T15:03:06Z</time>
      </trkpt>
      <trkpt lat="47.16505" lon="6.85966">
        <ele>623.336</ele>
        <time>2018-08-01T15:03:08Z</time>
      </trkpt>
      <trkpt lat="47.16498" lon="6.85965">
        <ele>623.365</ele>
        <time>2018-08-01T15:03:10Z</time>
      </trkpt>
      <trkpt lat="47.16492" lon="6.85961">
        <ele>623.473</ele>
        <time>2018-08-01T15:03:12Z</time>
      </trkpt>
      <trkpt lat="47.16485" lon="6.85958">
        <ele>623.785</ele>
        <time>2018-08-01T15:03:14Z</time>
      </trkpt>
      <trkpt lat="47.16478" lon="6.85956">
        <ele>624.013</ele>
        <time>2018-08-01T15:03:16Z</time>
      </trkpt>
      <trkpt lat="47.16471" lon="6.85958">
        <ele>624.108</ele>
        <time>2018-08-01T15:03:18Z</time>
      </trkpt>
      <trkpt lat="47.16463" lon="6.85961">
        <ele>624.179</ele>
        <time>2018-08-01T15:03:20Z</time>
      </trkpt>
      <trkpt lat="47.16455" lon="6.85961">
        <ele>624.134</ele>
        <time>2018-08-01T15:03:22Z</time>
      </trkpt>
      <trkpt lat="47.16447" lon="6.85956">
        <ele>624.058</ele>
        <time>2018-08-01T15:03:24Z</time>
      </trkpt>
      <trkpt lat="47.16443" lon="6.85952">
        <ele>623.94</ele>
        <time>2018-08-01T15:03:25Z</time>
      </trkpt>
      <trkpt lat="47.1644" lon="6.85947">
        <ele>623.946</ele>
        <time>2018-08-01T15:03:26Z</time>
      </trkpt>
      <trkpt lat="47.16434" lon="6.85938">
        <ele>623.983</ele>
        <time>2018-08-01T15:03:28Z</time>
      </trkpt>
      <trkpt lat="47.16427" lon="6.85928">
        <ele>624.188</ele>
        <time>2018-08-01T15:03:30Z</time>
      </trkpt>
      <trkpt lat="47.16424" lon="6.85923">
        <ele>624.167</ele>
        <time>2018-08-01T15:03:31Z</time>
      </trkpt>
      <trkpt lat="47.16422" lon="6.85918">
        <ele>624.256</ele>
        <time>2018-08-01T15:03:32Z</time>
      </trkpt>
      <trkpt lat="47.16416" lon="6.8591">
        <ele>624.459</ele>
        <time>2018-08-01T15:03:34Z</time>
      </trkpt>
      <trkpt lat="47.16411" lon="6.85901">
        <ele>624.614</ele>
        <time>2018-08-01T15:03:36Z</time>
      </trkpt>
      <trkpt lat="47.16406" lon="6.85892">
        <ele>624.808</ele>
        <time>2018-08-01T15:03:38Z</time>
      </trkpt>
      <trkpt lat="47.16401" lon="6.85885">
        <ele>625.087</ele>
        <time>2018-08-01T15:03:40Z</time>
      </trkpt>
      <trkpt lat="47.16396" lon="6.8588">
        <ele>625.162</ele>
        <time>2018-08-01T15:03:42Z</time>
      </trkpt>
      <trkpt lat="47.1639" lon="6.85874">
        <ele>625.266</ele>
        <time>2018-08-01T15:03:44Z</time>
      </trkpt>
      <trkpt lat="47.16385" lon="6.85867">
        <ele>625.248</ele>
        <time>2018-08-01T15:03:46Z</time>
      </trkpt>
      <trkpt lat="47.16386" lon="6.85858">
        <ele>625.084</ele>
        <time>2018-08-01T15:03:48Z</time>
      </trkpt>
      <trkpt lat="47.16392" lon="6.8585">
        <ele>624.741</ele>
        <time>2018-08-01T15:03:50Z</time>
      </trkpt>
      <trkpt lat="47.16398" lon="6.85842">
        <ele>624.626</ele>
        <time>2018-08-01T15:03:52Z</time>
      </trkpt>
      <trkpt lat="47.16404" lon="6.85833">
        <ele>624.875</ele>
        <time>2018-08-01T15:03:54Z</time>
      </trkpt>
      <trkpt lat="47.1641" lon="6.85825">
        <ele>625.198</ele>
        <time>2018-08-01T15:03:56Z</time>
      </trkpt>
      <trkpt lat="47.16415" lon="6.85816">
        <ele>625.415</ele>
        <time>2018-08-01T15:03:58Z</time>
      </trkpt>
      <trkpt lat="47.16421" lon="6.85807">
        <ele>625.626</ele>
        <time>2018-08-01T15:04:00Z</time>
      </trkpt>
      <trkpt lat="47.16426" lon="6.85799">
        <ele>626.208</ele>
        <time>2018-08-01T15:04:02Z</time>
      </trkpt>
      <trkpt lat="47.16432" lon="6.8579">
        <ele>626.261</ele>
        <time>2018-08-01T15:04:04Z</time>
      </trkpt>
      <trkpt lat="47.16437" lon="6.85782">
        <ele>625.566</ele>
        <time>2018-08-01T15:04:06Z</time>
      </trkpt>
      <trkpt lat="47.16441" lon="6.85773">
        <ele>624.92</ele>
        <time>2018-08-01T15:04:08Z</time>
      </trkpt>
      <trkpt lat="47.16444" lon="6.85764">
        <ele>624.812</ele>
        <time>2018-08-01T15:04:10Z</time>
      </trkpt>
      <trkpt lat="47.16447" lon="6.85755">
        <ele>624.878</ele>
        <time>2018-08-01T15:04:12Z</time>
      </trkpt>
      <trkpt lat="47.1645" lon="6.85747">
        <ele>624.965</ele>
        <time>2018-08-01T15:04:14Z</time>
      </trkpt>
      <trkpt lat="47.16452" lon="6.85738">
        <ele>624.91</ele>
        <time>2018-08-01T15:04:16Z</time>
      </trkpt>
      <trkpt lat="47.16454" lon="6.85726">
        <ele>624.829</ele>
        <time>2018-08-01T15:04:18Z</time>
      </trkpt>
      <trkpt lat="47.16453" lon="6.85716">
        <ele>624.796</ele>
        <time>2018-08-01T15:04:20Z</time>
      </trkpt>
      <trkpt lat="47.16451" lon="6.85708">
        <ele>624.731</ele>
        <time>2018-08-01T15:04:22Z</time>
      </trkpt>
      <trkpt lat="47.16449" lon="6.85702">
        <ele>624.824</ele>
        <time>2018-08-01T15:04:24Z</time>
      </trkpt>
      <trkpt lat="47.16446" lon="6.85695">
        <ele>624.808</ele>
        <time>2018-08-01T15:04:27Z</time>
      </trkpt>
      <trkpt lat="47.16442" lon="6.85691">
        <ele>624.821</ele>
        <time>2018-08-01T15:04:30Z</time>
      </trkpt>
      <trkpt lat="47.16447" lon="6.85689">
        <ele>623.156</ele>
        <time>2018-08-01T15:11:03Z</time>
      </trkpt>
      <trkpt lat="47.16451" lon="6.85693">
        <ele>623.08</ele>
        <time>2018-08-01T15:11:11Z</time>
      </trkpt>
      <trkpt lat="47.16453" lon="6.85701">
        <ele>623.032</ele>
        <time>2018-08-01T15:11:13Z</time>
      </trkpt>
      <trkpt lat="47.16455" lon="6.85709">
        <ele>623.258</ele>
        <time>2018-08-01T15:11:15Z</time>
      </trkpt>
      <trkpt lat="47.16456" lon="6.85716">
        <ele>623.245</ele>
        <time>2018-08-01T15:11:17Z</time>
      </trkpt>
      <trkpt lat="47.16455" lon="6.85723">
        <ele>623.15</ele>
        <time>2018-08-01T15:11:19Z</time>
      </trkpt>
      <trkpt lat="47.16454" lon="6.85732">
        <ele>622.929</ele>
        <time>2018-08-01T15:11:21Z</time>
      </trkpt>
      <trkpt lat="47.16452" lon="6.85739">
        <ele>622.918</ele>
        <time>2018-08-01T15:11:23Z</time>
      </trkpt>
      <trkpt lat="47.1645" lon="6.85746">
        <ele>623.098</ele>
        <time>2018-08-01T15:11:25Z</time>
      </trkpt>
      <trkpt lat="47.16446" lon="6.85751">
        <ele>623.317</ele>
        <time>2018-08-01T15:11:27Z</time>
      </trkpt>
      <trkpt lat="47.16442" lon="6.85759">
        <ele>623.508</ele>
        <time>2018-08-01T15:11:29Z</time>
      </trkpt>
      <trkpt lat="47.16439" lon="6.85768">
        <ele>623.683</ele>
        <time>2018-08-01T15:11:31Z</time>
      </trkpt>
      <trkpt lat="47.16437" lon="6.85779">
        <ele>623.548</ele>
        <time>2018-08-01T15:11:33Z</time>
      </trkpt>
      <trkpt lat="47.16433" lon="6.85788">
        <ele>623.522</ele>
        <time>2018-08-01T15:11:35Z</time>
      </trkpt>
      <trkpt lat="47.16429" lon="6.85796">
        <ele>623.564</ele>
        <time>2018-08-01T15:11:37Z</time>
      </trkpt>
      <trkpt lat="47.16424" lon="6.85804">
        <ele>623.45</ele>
        <time>2018-08-01T15:11:39Z</time>
      </trkpt>
      <trkpt lat="47.1642" lon="6.85812">
        <ele>623.137</ele>
        <time>2018-08-01T15:11:41Z</time>
      </trkpt>
      <trkpt lat="47.16415" lon="6.8582">
        <ele>623.022</ele>
        <time>2018-08-01T15:11:43Z</time>
      </trkpt>
      <trkpt lat="47.16409" lon="6.85828">
        <ele>623.061</ele>
        <time>2018-08-01T15:11:45Z</time>
      </trkpt>
      <trkpt lat="47.16404" lon="6.85838">
        <ele>623.084</ele>
        <time>2018-08-01T15:11:47Z</time>
      </trkpt>
      <trkpt lat="47.16399" lon="6.85843">
        <ele>623.007</ele>
        <time>2018-08-01T15:11:48Z</time>
      </trkpt>
      <trkpt lat="47.16394" lon="6.85846">
        <ele>623.017</ele>
        <time>2018-08-01T15:11:49Z</time>
      </trkpt>
      <trkpt lat="47.1639" lon="6.85848">
        <ele>623.008</ele>
        <time>2018-08-01T15:11:50Z</time>
      </trkpt>
      <trkpt lat="47.16385" lon="6.85849">
        <ele>623.09</ele>
        <time>2018-08-01T15:11:51Z</time>
      </trkpt>
      <trkpt lat="47.16376" lon="6.85846">
        <ele>623.125</ele>
        <time>2018-08-01T15:11:53Z</time>
      </trkpt>
      <trkpt lat="47.16371" lon="6.85842">
        <ele>623.229</ele>
        <time>2018-08-01T15:11:54Z</time>
      </trkpt>
      <trkpt lat="47.16367" lon="6.85839">
        <ele>623.461</ele>
        <time>2018-08-01T15:11:55Z</time>
      </trkpt>
      <trkpt lat="47.16365" lon="6.85833">
        <ele>623.697</ele>
        <time>2018-08-01T15:11:56Z</time>
      </trkpt>
      <trkpt lat="47.16361" lon="6.85828">
        <ele>623.864</ele>
        <time>2018-08-01T15:11:57Z</time>
      </trkpt>
      <trkpt lat="47.16354" lon="6.85819">
        <ele>624.069</ele>
        <time>2018-08-01T15:11:59Z</time>
      </trkpt>
      <trkpt lat="47.1635" lon="6.85812">
        <ele>624.068</ele>
        <time>2018-08-01T15:12:00Z</time>
      </trkpt>
      <trkpt lat="47.16344" lon="6.858">
        <ele>624.122</ele>
        <time>2018-08-01T15:12:02Z</time>
      </trkpt>
      <trkpt lat="47.16341" lon="6.85795">
        <ele>624.262</ele>
        <time>2018-08-01T15:12:03Z</time>
      </trkpt>
      <trkpt lat="47.16336" lon="6.85788">
        <ele>624.308</ele>
        <time>2018-08-01T15:12:04Z</time>
      </trkpt>
      <trkpt lat="47.16333" lon="6.85783">
        <ele>624.408</ele>
        <time>2018-08-01T15:12:05Z</time>
      </trkpt>
      <trkpt lat="47.16328" lon="6.85772">
        <ele>624.564</ele>
        <time>2018-08-01T15:12:08Z</time>
      </trkpt>
      <trkpt lat="47.16324" lon="6.85767">
        <ele>624.579</ele>
        <time>2018-08-01T15:12:10Z</time>
      </trkpt>
      <trkpt lat="47.16319" lon="6.8576">
        <ele>624.623</ele>
        <time>2018-08-01T15:12:11Z</time>
      </trkpt>
      <trkpt lat="47.16316" lon="6.85756">
        <ele>624.645</ele>
        <time>2018-08-01T15:12:12Z</time>
      </trkpt>
      <trkpt lat="47.16311" lon="6.85751">
        <ele>624.771</ele>
        <time>2018-08-01T15:12:13Z</time>
      </trkpt>
      <trkpt lat="47.16307" lon="6.85747">
        <ele>624.778</ele>
        <time>2018-08-01T15:12:14Z</time>
      </trkpt>
      <trkpt lat="47.16302" lon="6.8574">
        <ele>624.753</ele>
        <time>2018-08-01T15:12:15Z</time>
      </trkpt>
      <trkpt lat="47.16295" lon="6.85732">
        <ele>624.772</ele>
        <time>2018-08-01T15:12:17Z</time>
      </trkpt>
      <trkpt lat="47.16289" lon="6.85726">
        <ele>624.854</ele>
        <time>2018-08-01T15:12:18Z</time>
      </trkpt>
      <trkpt lat="47.16285" lon="6.85722">
        <ele>624.856</ele>
        <time>2018-08-01T15:12:19Z</time>
      </trkpt>
      <trkpt lat="47.16281" lon="6.85719">
        <ele>624.811</ele>
        <time>2018-08-01T15:12:20Z</time>
      </trkpt>
      <trkpt lat="47.16277" lon="6.85712">
        <ele>624.908</ele>
        <time>2018-08-01T15:12:21Z</time>
      </trkpt>
      <trkpt lat="47.16273" lon="6.85707">
        <ele>624.937</ele>
        <time>2018-08-01T15:12:22Z</time>
      </trkpt>
      <trkpt lat="47.16269" lon="6.857">
        <ele>624.952</ele>
        <time>2018-08-01T15:12:23Z</time>
      </trkpt>
      <trkpt lat="47.16264" lon="6.85691">
        <ele>624.936</ele>
        <time>2018-08-01T15:12:25Z</time>
      </trkpt>
      <trkpt lat="47.1626" lon="6.85684">
        <ele>625.078</ele>
        <time>2018-08-01T15:12:26Z</time>
      </trkpt>
      <trkpt lat="47.16257" lon="6.85679">
        <ele>625.174</ele>
        <time>2018-08-01T15:12:27Z</time>
      </trkpt>
      <trkpt lat="47.16252" lon="6.85674">
        <ele>625.491</ele>
        <time>2018-08-01T15:12:29Z</time>
      </trkpt>
      <trkpt lat="47.16249" lon="6.85668">
        <ele>625.646</ele>
        <time>2018-08-01T15:12:30Z</time>
      </trkpt>
      <trkpt lat="47.16245" lon="6.85664">
        <ele>625.735</ele>
        <time>2018-08-01T15:12:31Z</time>
      </trkpt>
      <trkpt lat="47.16239" lon="6.85661">
        <ele>625.825</ele>
        <time>2018-08-01T15:12:32Z</time>
      </trkpt>
      <trkpt lat="47.16235" lon="6.85658">
        <ele>625.826</ele>
        <time>2018-08-01T15:12:33Z</time>
      </trkpt>
      <trkpt lat="47.1623" lon="6.85655">
        <ele>625.808</ele>
        <time>2018-08-01T15:12:34Z</time>
      </trkpt>
      <trkpt lat="47.16225" lon="6.85653">
        <ele>625.708</ele>
        <time>2018-08-01T15:12:35Z</time>
      </trkpt>
      <trkpt lat="47.1622" lon="6.8565">
        <ele>625.664</ele>
        <time>2018-08-01T15:12:36Z</time>
      </trkpt>
      <trkpt lat="47.16215" lon="6.85647">
        <ele>625.539</ele>
        <time>2018-08-01T15:12:37Z</time>
      </trkpt>
      <trkpt lat="47.1621" lon="6.85645">
        <ele>625.553</ele>
        <time>2018-08-01T15:12:38Z</time>
      </trkpt>
      <trkpt lat="47.16204" lon="6.85642">
        <ele>625.525</ele>
        <time>2018-08-01T15:12:39Z</time>
      </trkpt>
      <trkpt lat="47.16199" lon="6.85637">
        <ele>625.571</ele>
        <time>2018-08-01T15:12:40Z</time>
      </trkpt>
      <trkpt lat="47.16194" lon="6.85634">
        <ele>625.588</ele>
        <time>2018-08-01T15:12:41Z</time>
      </trkpt>
      <trkpt lat="47.16189" lon="6.8563">
        <ele>625.543</ele>
        <time>2018-08-01T15:12:42Z</time>
      </trkpt>
      <trkpt lat="47.16183" lon="6.85626">
        <ele>625.552</ele>
        <time>2018-08-01T15:12:43Z</time>
      </trkpt>
      <trkpt lat="47.16177" lon="6.85623">
        <ele>625.513</ele>
        <time>2018-08-01T15:12:44Z</time>
      </trkpt>
      <trkpt lat="47.16167" lon="6.85618">
        <ele>625.543</ele>
        <time>2018-08-01T15:12:46Z</time>
      </trkpt>
      <trkpt lat="47.16162" lon="6.85613">
        <ele>625.407</ele>
        <time>2018-08-01T15:12:47Z</time>
      </trkpt>
      <trkpt lat="47.16157" lon="6.8561">
        <ele>625.308</ele>
        <time>2018-08-01T15:12:48Z</time>
      </trkpt>
      <trkpt lat="47.16152" lon="6.85604">
        <ele>625.243</ele>
        <time>2018-08-01T15:12:49Z</time>
      </trkpt>
      <trkpt lat="47.16147" lon="6.85598">
        <ele>625.148</ele>
        <time>2018-08-01T15:12:50Z</time>
      </trkpt>
      <trkpt lat="47.16142" lon="6.85592">
        <ele>625.092</ele>
        <time>2018-08-01T15:12:51Z</time>
      </trkpt>
      <trkpt lat="47.16138" lon="6.85587">
        <ele>625.094</ele>
        <time>2018-08-01T15:12:52Z</time>
      </trkpt>
      <trkpt lat="47.16134" lon="6.85583">
        <ele>625.08</ele>
        <time>2018-08-01T15:12:53Z</time>
      </trkpt>
      <trkpt lat="47.16129" lon="6.85576">
        <ele>625.067</ele>
        <time>2018-08-01T15:12:54Z</time>
      </trkpt>
      <trkpt lat="47.16125" lon="6.85571">
        <ele>625.022</ele>
        <time>2018-08-01T15:12:55Z</time>
      </trkpt>
      <trkpt lat="47.16121" lon="6.85565">
        <ele>625.071</ele>
        <time>2018-08-01T15:12:56Z</time>
      </trkpt>
      <trkpt lat="47.16117" lon="6.8556">
        <ele>625.045</ele>
        <time>2018-08-01T15:12:57Z</time>
      </trkpt>
      <trkpt lat="47.16112" lon="6.85553">
        <ele>625.047</ele>
        <time>2018-08-01T15:12:58Z</time>
      </trkpt>
      <trkpt lat="47.16108" lon="6.85546">
        <ele>625.011</ele>
        <time>2018-08-01T15:12:59Z</time>
      </trkpt>
      <trkpt lat="47.16104" lon="6.85543">
        <ele>625.008</ele>
        <time>2018-08-01T15:13:00Z</time>
      </trkpt>
      <trkpt lat="47.161" lon="6.85536">
        <ele>625.066</ele>
        <time>2018-08-01T15:13:01Z</time>
      </trkpt>
      <trkpt lat="47.16096" lon="6.85531">
        <ele>625.061</ele>
        <time>2018-08-01T15:13:02Z</time>
      </trkpt>
      <trkpt lat="47.16092" lon="6.85525">
        <ele>625.045</ele>
        <time>2018-08-01T15:13:03Z</time>
      </trkpt>
      <trkpt lat="47.16089" lon="6.85519">
        <ele>625.077</ele>
        <time>2018-08-01T15:13:04Z</time>
      </trkpt>
      <trkpt lat="47.16085" lon="6.85512">
        <ele>625.093</ele>
        <time>2018-08-01T15:13:05Z</time>
      </trkpt>
      <trkpt lat="47.16081" lon="6.85506">
        <ele>625.08</ele>
        <time>2018-08-01T15:13:06Z</time>
      </trkpt>
      <trkpt lat="47.16078" lon="6.85501">
        <ele>624.975</ele>
        <time>2018-08-01T15:13:07Z</time>
      </trkpt>
      <trkpt lat="47.16075" lon="6.85492">
        <ele>624.944</ele>
        <time>2018-08-01T15:13:08Z</time>
      </trkpt>
      <trkpt lat="47.16071" lon="6.85485">
        <ele>624.943</ele>
        <time>2018-08-01T15:13:09Z</time>
      </trkpt>
      <trkpt lat="47.16067" lon="6.85477">
        <ele>624.964</ele>
        <time>2018-08-01T15:13:10Z</time>
      </trkpt>
      <trkpt lat="47.16062" lon="6.85471">
        <ele>624.91</ele>
        <time>2018-08-01T15:13:11Z</time>
      </trkpt>
      <trkpt lat="47.16058" lon="6.85465">
        <ele>624.908</ele>
        <time>2018-08-01T15:13:12Z</time>
      </trkpt>
      <trkpt lat="47.16053" lon="6.85458">
        <ele>624.986</ele>
        <time>2018-08-01T15:13:13Z</time>
      </trkpt>
      <trkpt lat="47.1605" lon="6.85452">
        <ele>624.951</ele>
        <time>2018-08-01T15:13:14Z</time>
      </trkpt>
      <trkpt lat="47.16046" lon="6.85446">
        <ele>624.975</ele>
        <time>2018-08-01T15:13:15Z</time>
      </trkpt>
      <trkpt lat="47.1604" lon="6.85437">
        <ele>624.927</ele>
        <time>2018-08-01T15:13:17Z</time>
      </trkpt>
      <trkpt lat="47.16035" lon="6.85431">
        <ele>624.933</ele>
        <time>2018-08-01T15:13:18Z</time>
      </trkpt>
      <trkpt lat="47.16031" lon="6.85425">
        <ele>624.95</ele>
        <time>2018-08-01T15:13:19Z</time>
      </trkpt>
      <trkpt lat="47.16028" lon="6.85419">
        <ele>624.855</ele>
        <time>2018-08-01T15:13:20Z</time>
      </trkpt>
      <trkpt lat="47.16023" lon="6.85413">
        <ele>624.884</ele>
        <time>2018-08-01T15:13:21Z</time>
      </trkpt>
      <trkpt lat="47.1602" lon="6.85406">
        <ele>624.756</ele>
        <time>2018-08-01T15:13:22Z</time>
      </trkpt>
      <trkpt lat="47.16015" lon="6.854">
        <ele>624.659</ele>
        <time>2018-08-01T15:13:23Z</time>
      </trkpt>
      <trkpt lat="47.16011" lon="6.85394">
        <ele>624.514</ele>
        <time>2018-08-01T15:13:24Z</time>
      </trkpt>
      <trkpt lat="47.16007" lon="6.85387">
        <ele>624.508</ele>
        <time>2018-08-01T15:13:25Z</time>
      </trkpt>
      <trkpt lat="47.16003" lon="6.8538">
        <ele>624.587</ele>
        <time>2018-08-01T15:13:26Z</time>
      </trkpt>
      <trkpt lat="47.15999" lon="6.85375">
        <ele>624.552</ele>
        <time>2018-08-01T15:13:27Z</time>
      </trkpt>
      <trkpt lat="47.15994" lon="6.85369">
        <ele>624.636</ele>
        <time>2018-08-01T15:13:28Z</time>
      </trkpt>
      <trkpt lat="47.1599" lon="6.85361">
        <ele>624.678</ele>
        <time>2018-08-01T15:13:29Z</time>
      </trkpt>
      <trkpt lat="47.15986" lon="6.85355">
        <ele>624.674</ele>
        <time>2018-08-01T15:13:30Z</time>
      </trkpt>
      <trkpt lat="47.15982" lon="6.85348">
        <ele>624.641</ele>
        <time>2018-08-01T15:13:31Z</time>
      </trkpt>
      <trkpt lat="47.15978" lon="6.85342">
        <ele>624.616</ele>
        <time>2018-08-01T15:13:32Z</time>
      </trkpt>
      <trkpt lat="47.15973" lon="6.85335">
        <ele>624.645</ele>
        <time>2018-08-01T15:13:33Z</time>
      </trkpt>
      <trkpt lat="47.15969" lon="6.85328">
        <ele>624.786</ele>
        <time>2018-08-01T15:13:34Z</time>
      </trkpt>
      <trkpt lat="47.15965" lon="6.85321">
        <ele>624.86</ele>
        <time>2018-08-01T15:13:35Z</time>
      </trkpt>
      <trkpt lat="47.15961" lon="6.85316">
        <ele>625.026</ele>
        <time>2018-08-01T15:13:36Z</time>
      </trkpt>
      <trkpt lat="47.15957" lon="6.85309">
        <ele>625.208</ele>
        <time>2018-08-01T15:13:37Z</time>
      </trkpt>
      <trkpt lat="47.15952" lon="6.85303">
        <ele>625.38</ele>
        <time>2018-08-01T15:13:38Z</time>
      </trkpt>
      <trkpt lat="47.15949" lon="6.85298">
        <ele>625.395</ele>
        <time>2018-08-01T15:13:39Z</time>
      </trkpt>
      <trkpt lat="47.15945" lon="6.85291">
        <ele>625.329</ele>
        <time>2018-08-01T15:13:40Z</time>
      </trkpt>
      <trkpt lat="47.1594" lon="6.85285">
        <ele>625.351</ele>
        <time>2018-08-01T15:13:41Z</time>
      </trkpt>
      <trkpt lat="47.15935" lon="6.85279">
        <ele>625.327</ele>
        <time>2018-08-01T15:13:42Z</time>
      </trkpt>
      <trkpt lat="47.15931" lon="6.85274">
        <ele>625.324</ele>
        <time>2018-08-01T15:13:43Z</time>
      </trkpt>
      <trkpt lat="47.15927" lon="6.85268">
        <ele>625.229</ele>
        <time>2018-08-01T15:13:44Z</time>
      </trkpt>
      <trkpt lat="47.15923" lon="6.85262">
        <ele>625.158</ele>
        <time>2018-08-01T15:13:45Z</time>
      </trkpt>
      <trkpt lat="47.15919" lon="6.85258">
        <ele>625.056</ele>
        <time>2018-08-01T15:13:46Z</time>
      </trkpt>
      <trkpt lat="47.15914" lon="6.85252">
        <ele>625.059</ele>
        <time>2018-08-01T15:13:47Z</time>
      </trkpt>
      <trkpt lat="47.15911" lon="6.85246">
        <ele>625.014</ele>
        <time>2018-08-01T15:13:48Z</time>
      </trkpt>
      <trkpt lat="47.15906" lon="6.85241">
        <ele>625.108</ele>
        <time>2018-08-01T15:13:49Z</time>
      </trkpt>
      <trkpt lat="47.15902" lon="6.85235">
        <ele>625.187</ele>
        <time>2018-08-01T15:13:50Z</time>
      </trkpt>
      <trkpt lat="47.15897" lon="6.85229">
        <ele>625.262</ele>
        <time>2018-08-01T15:13:51Z</time>
      </trkpt>
      <trkpt lat="47.15893" lon="6.85224">
        <ele>625.246</ele>
        <time>2018-08-01T15:13:52Z</time>
      </trkpt>
      <trkpt lat="47.15889" lon="6.85218">
        <ele>625.298</ele>
        <time>2018-08-01T15:13:53Z</time>
      </trkpt>
      <trkpt lat="47.15883" lon="6.85214">
        <ele>625.124</ele>
        <time>2018-08-01T15:13:54Z</time>
      </trkpt>
      <trkpt lat="47.1588" lon="6.85208">
        <ele>625.031</ele>
        <time>2018-08-01T15:13:55Z</time>
      </trkpt>
      <trkpt lat="47.15875" lon="6.85202">
        <ele>624.926</ele>
        <time>2018-08-01T15:13:56Z</time>
      </trkpt>
      <trkpt lat="47.1587" lon="6.85195">
        <ele>624.935</ele>
        <time>2018-08-01T15:13:57Z</time>
      </trkpt>
      <trkpt lat="47.15864" lon="6.85189">
        <ele>624.972</ele>
        <time>2018-08-01T15:13:58Z</time>
      </trkpt>
      <trkpt lat="47.1586" lon="6.85186">
        <ele>624.913</ele>
        <time>2018-08-01T15:13:59Z</time>
      </trkpt>
      <trkpt lat="47.15855" lon="6.85181">
        <ele>625.014</ele>
        <time>2018-08-01T15:14:00Z</time>
      </trkpt>
      <trkpt lat="47.1585" lon="6.85176">
        <ele>625.008</ele>
        <time>2018-08-01T15:14:01Z</time>
      </trkpt>
      <trkpt lat="47.15844" lon="6.85173">
        <ele>625.059</ele>
        <time>2018-08-01T15:14:02Z</time>
      </trkpt>
      <trkpt lat="47.15838" lon="6.85172">
        <ele>625.034</ele>
        <time>2018-08-01T15:14:03Z</time>
      </trkpt>
      <trkpt lat="47.15833" lon="6.85168">
        <ele>625.028</ele>
        <time>2018-08-01T15:14:04Z</time>
      </trkpt>
      <trkpt lat="47.15823" lon="6.8517">
        <ele>625.02</ele>
        <time>2018-08-01T15:14:06Z</time>
      </trkpt>
      <trkpt lat="47.15817" lon="6.85167">
        <ele>625.066</ele>
        <time>2018-08-01T15:14:07Z</time>
      </trkpt>
      <trkpt lat="47.15811" lon="6.85166">
        <ele>624.943</ele>
        <time>2018-08-01T15:14:08Z</time>
      </trkpt>
      <trkpt lat="47.15806" lon="6.85165">
        <ele>624.968</ele>
        <time>2018-08-01T15:14:09Z</time>
      </trkpt>
      <trkpt lat="47.15797" lon="6.85165">
        <ele>625.137</ele>
        <time>2018-08-01T15:14:11Z</time>
      </trkpt>
      <trkpt lat="47.15791" lon="6.85162">
        <ele>625.264</ele>
        <time>2018-08-01T15:14:12Z</time>
      </trkpt>
      <trkpt lat="47.15786" lon="6.85161">
        <ele>625.506</ele>
        <time>2018-08-01T15:14:13Z</time>
      </trkpt>
      <trkpt lat="47.15781" lon="6.85163">
        <ele>625.816</ele>
        <time>2018-08-01T15:14:14Z</time>
      </trkpt>
      <trkpt lat="47.15774" lon="6.85166">
        <ele>626.108</ele>
        <time>2018-08-01T15:14:15Z</time>
      </trkpt>
      <trkpt lat="47.15768" lon="6.85168">
        <ele>626.358</ele>
        <time>2018-08-01T15:14:16Z</time>
      </trkpt>
      <trkpt lat="47.15753" lon="6.85157">
        <ele>626.643</ele>
        <time>2018-08-01T15:14:19Z</time>
      </trkpt>
      <trkpt lat="47.15749" lon="6.85149">
        <ele>626.647</ele>
        <time>2018-08-01T15:14:20Z</time>
      </trkpt>
      <trkpt lat="47.15744" lon="6.85146">
        <ele>626.779</ele>
        <time>2018-08-01T15:14:21Z</time>
      </trkpt>
      <trkpt lat="47.15739" lon="6.85139">
        <ele>627.035</ele>
        <time>2018-08-01T15:14:22Z</time>
      </trkpt>
      <trkpt lat="47.15735" lon="6.85135">
        <ele>627.132</ele>
        <time>2018-08-01T15:14:23Z</time>
      </trkpt>
      <trkpt lat="47.1573" lon="6.85131">
        <ele>627.227</ele>
        <time>2018-08-01T15:14:24Z</time>
      </trkpt>
      <trkpt lat="47.15726" lon="6.85126">
        <ele>627.396</ele>
        <time>2018-08-01T15:14:25Z</time>
      </trkpt>
      <trkpt lat="47.15721" lon="6.85123">
        <ele>627.345</ele>
        <time>2018-08-01T15:14:26Z</time>
      </trkpt>
      <trkpt lat="47.15717" lon="6.85117">
        <ele>627.247</ele>
        <time>2018-08-01T15:14:27Z</time>
      </trkpt>
      <trkpt lat="47.15713" lon="6.85111">
        <ele>627.211</ele>
        <time>2018-08-01T15:14:28Z</time>
      </trkpt>
      <trkpt lat="47.15709" lon="6.85105">
        <ele>627.208</ele>
        <time>2018-08-01T15:14:29Z</time>
      </trkpt>
      <trkpt lat="47.15705" lon="6.85099">
        <ele>627.256</ele>
        <time>2018-08-01T15:14:30Z</time>
      </trkpt>
      <trkpt lat="47.15694" lon="6.85094">
        <ele>627.371</ele>
        <time>2018-08-01T15:14:32Z</time>
      </trkpt>
      <trkpt lat="47.15684" lon="6.85096">
        <ele>627.355</ele>
        <time>2018-08-01T15:14:34Z</time>
      </trkpt>
      <trkpt lat="47.15675" lon="6.85098">
        <ele>627.567</ele>
        <time>2018-08-01T15:14:36Z</time>
      </trkpt>
      <trkpt lat="47.15669" lon="6.851">
        <ele>627.673</ele>
        <time>2018-08-01T15:14:37Z</time>
      </trkpt>
      <trkpt lat="47.15664" lon="6.85101">
        <ele>627.72</ele>
        <time>2018-08-01T15:14:38Z</time>
      </trkpt>
      <trkpt lat="47.15659" lon="6.85099">
        <ele>627.875</ele>
        <time>2018-08-01T15:14:39Z</time>
      </trkpt>
      <trkpt lat="47.15655" lon="6.85096">
        <ele>628.044</ele>
        <time>2018-08-01T15:14:40Z</time>
      </trkpt>
      <trkpt lat="47.15649" lon="6.85091">
        <ele>628.232</ele>
        <time>2018-08-01T15:14:41Z</time>
      </trkpt>
      <trkpt lat="47.15644" lon="6.85087">
        <ele>628.492</ele>
        <time>2018-08-01T15:14:42Z</time>
      </trkpt>
      <trkpt lat="47.1564" lon="6.85083">
        <ele>628.611</ele>
        <time>2018-08-01T15:14:43Z</time>
      </trkpt>
      <trkpt lat="47.15635" lon="6.85077">
        <ele>628.808</ele>
        <time>2018-08-01T15:14:44Z</time>
      </trkpt>
      <trkpt lat="47.15631" lon="6.85074">
        <ele>629.065</ele>
        <time>2018-08-01T15:14:45Z</time>
      </trkpt>
      <trkpt lat="47.15626" lon="6.85071">
        <ele>629.13</ele>
        <time>2018-08-01T15:14:46Z</time>
      </trkpt>
      <trkpt lat="47.15622" lon="6.85068">
        <ele>629.244</ele>
        <time>2018-08-01T15:14:47Z</time>
      </trkpt>
      <trkpt lat="47.15617" lon="6.85065">
        <ele>629.336</ele>
        <time>2018-08-01T15:14:48Z</time>
      </trkpt>
      <trkpt lat="47.15613" lon="6.85061">
        <ele>629.472</ele>
        <time>2018-08-01T15:14:49Z</time>
      </trkpt>
      <trkpt lat="47.15609" lon="6.85057">
        <ele>629.529</ele>
        <time>2018-08-01T15:14:50Z</time>
      </trkpt>
      <trkpt lat="47.156" lon="6.85052">
        <ele>629.854</ele>
        <time>2018-08-01T15:14:52Z</time>
      </trkpt>
      <trkpt lat="47.15595" lon="6.8505">
        <ele>629.923</ele>
        <time>2018-08-01T15:14:53Z</time>
      </trkpt>
      <trkpt lat="47.15588" lon="6.85044">
        <ele>630.071</ele>
        <time>2018-08-01T15:14:55Z</time>
      </trkpt>
      <trkpt lat="47.15583" lon="6.85041">
        <ele>630.141</ele>
        <time>2018-08-01T15:14:56Z</time>
      </trkpt>
      <trkpt lat="47.15579" lon="6.85038">
        <ele>630.115</ele>
        <time>2018-08-01T15:14:57Z</time>
      </trkpt>
      <trkpt lat="47.15574" lon="6.85033">
        <ele>630.108</ele>
        <time>2018-08-01T15:14:58Z</time>
      </trkpt>
      <trkpt lat="47.1557" lon="6.85027">
        <ele>630.169</ele>
        <time>2018-08-01T15:14:59Z</time>
      </trkpt>
      <trkpt lat="47.15565" lon="6.85023">
        <ele>630.194</ele>
        <time>2018-08-01T15:15:00Z</time>
      </trkpt>
      <trkpt lat="47.15562" lon="6.85014">
        <ele>630.168</ele>
        <time>2018-08-01T15:15:01Z</time>
      </trkpt>
      <trkpt lat="47.15557" lon="6.85011">
        <ele>630.11</ele>
        <time>2018-08-01T15:15:02Z</time>
      </trkpt>
      <trkpt lat="47.15553" lon="6.85003">
        <ele>630.226</ele>
        <time>2018-08-01T15:15:03Z</time>
      </trkpt>
      <trkpt lat="47.1555" lon="6.84997">
        <ele>630.333</ele>
        <time>2018-08-01T15:15:04Z</time>
      </trkpt>
      <trkpt lat="47.15548" lon="6.8499">
        <ele>630.598</ele>
        <time>2018-08-01T15:15:05Z</time>
      </trkpt>
      <trkpt lat="47.15545" lon="6.84984">
        <ele>630.757</ele>
        <time>2018-08-01T15:15:06Z</time>
      </trkpt>
      <trkpt lat="47.15542" lon="6.84976">
        <ele>630.918</ele>
        <time>2018-08-01T15:15:08Z</time>
      </trkpt>
      <trkpt lat="47.1554" lon="6.8497">
        <ele>630.998</ele>
        <time>2018-08-01T15:15:09Z</time>
      </trkpt>
      <trkpt lat="47.15536" lon="6.84956">
        <ele>630.917</ele>
        <time>2018-08-01T15:15:11Z</time>
      </trkpt>
      <trkpt lat="47.15534" lon="6.84945">
        <ele>631.008</ele>
        <time>2018-08-01T15:15:13Z</time>
      </trkpt>
      <trkpt lat="47.15532" lon="6.84939">
        <ele>631.063</ele>
        <time>2018-08-01T15:15:14Z</time>
      </trkpt>
      <trkpt lat="47.15528" lon="6.8493">
        <ele>631.058</ele>
        <time>2018-08-01T15:15:15Z</time>
      </trkpt>
      <trkpt lat="47.15526" lon="6.84923">
        <ele>631.032</ele>
        <time>2018-08-01T15:15:16Z</time>
      </trkpt>
      <trkpt lat="47.15525" lon="6.84915">
        <ele>631.084</ele>
        <time>2018-08-01T15:15:17Z</time>
      </trkpt>
      <trkpt lat="47.15523" lon="6.84908">
        <ele>631.07</ele>
        <time>2018-08-01T15:15:18Z</time>
      </trkpt>
      <trkpt lat="47.15523" lon="6.84901">
        <ele>631.057</ele>
        <time>2018-08-01T15:15:19Z</time>
      </trkpt>
      <trkpt lat="47.15523" lon="6.84891">
        <ele>631.172</ele>
        <time>2018-08-01T15:15:20Z</time>
      </trkpt>
      <trkpt lat="47.15523" lon="6.84882">
        <ele>631.261</ele>
        <time>2018-08-01T15:15:21Z</time>
      </trkpt>
      <trkpt lat="47.15524" lon="6.84873">
        <ele>631.275</ele>
        <time>2018-08-01T15:15:22Z</time>
      </trkpt>
      <trkpt lat="47.15523" lon="6.84862">
        <ele>631.428</ele>
        <time>2018-08-01T15:15:23Z</time>
      </trkpt>
      <trkpt lat="47.15523" lon="6.84855">
        <ele>631.52</ele>
        <time>2018-08-01T15:15:24Z</time>
      </trkpt>
      <trkpt lat="47.15522" lon="6.84846">
        <ele>631.708</ele>
        <time>2018-08-01T15:15:25Z</time>
      </trkpt>
      <trkpt lat="47.15521" lon="6.84838">
        <ele>631.939</ele>
        <time>2018-08-01T15:15:26Z</time>
      </trkpt>
      <trkpt lat="47.15519" lon="6.84831">
        <ele>632.064</ele>
        <time>2018-08-01T15:15:27Z</time>
      </trkpt>
      <trkpt lat="47.15517" lon="6.84823">
        <ele>632.248</ele>
        <time>2018-08-01T15:15:28Z</time>
      </trkpt>
      <trkpt lat="47.15516" lon="6.84815">
        <ele>632.26</ele>
        <time>2018-08-01T15:15:29Z</time>
      </trkpt>
      <trkpt lat="47.15515" lon="6.84807">
        <ele>632.366</ele>
        <time>2018-08-01T15:15:30Z</time>
      </trkpt>
      <trkpt lat="47.15513" lon="6.84799">
        <ele>632.473</ele>
        <time>2018-08-01T15:15:31Z</time>
      </trkpt>
      <trkpt lat="47.15511" lon="6.84791">
        <ele>632.588</ele>
        <time>2018-08-01T15:15:32Z</time>
      </trkpt>
      <trkpt lat="47.1551" lon="6.84783">
        <ele>632.657</ele>
        <time>2018-08-01T15:15:33Z</time>
      </trkpt>
      <trkpt lat="47.15508" lon="6.84776">
        <ele>632.735</ele>
        <time>2018-08-01T15:15:34Z</time>
      </trkpt>
      <trkpt lat="47.15507" lon="6.8477">
        <ele>632.886</ele>
        <time>2018-08-01T15:15:35Z</time>
      </trkpt>
      <trkpt lat="47.15503" lon="6.84762">
        <ele>632.914</ele>
        <time>2018-08-01T15:15:36Z</time>
      </trkpt>
      <trkpt lat="47.15501" lon="6.84755">
        <ele>633.008</ele>
        <time>2018-08-01T15:15:37Z</time>
      </trkpt>
      <trkpt lat="47.155" lon="6.8474">
        <ele>633.385</ele>
        <time>2018-08-01T15:15:39Z</time>
      </trkpt>
      <trkpt lat="47.15497" lon="6.84733">
        <ele>633.59</ele>
        <time>2018-08-01T15:15:40Z</time>
      </trkpt>
      <trkpt lat="47.15496" lon="6.84726">
        <ele>633.754</ele>
        <time>2018-08-01T15:15:41Z</time>
      </trkpt>
      <trkpt lat="47.15494" lon="6.84717">
        <ele>633.846</ele>
        <time>2018-08-01T15:15:42Z</time>
      </trkpt>
      <trkpt lat="47.15494" lon="6.84709">
        <ele>633.932</ele>
        <time>2018-08-01T15:15:43Z</time>
      </trkpt>
      <trkpt lat="47.15493" lon="6.84702">
        <ele>634.089</ele>
        <time>2018-08-01T15:15:44Z</time>
      </trkpt>
      <trkpt lat="47.15495" lon="6.84694">
        <ele>634.184</ele>
        <time>2018-08-01T15:15:45Z</time>
      </trkpt>
      <trkpt lat="47.15495" lon="6.84685">
        <ele>634.233</ele>
        <time>2018-08-01T15:15:46Z</time>
      </trkpt>
      <trkpt lat="47.15494" lon="6.84676">
        <ele>634.386</ele>
        <time>2018-08-01T15:15:47Z</time>
      </trkpt>
      <trkpt lat="47.15494" lon="6.84669">
        <ele>634.56</ele>
        <time>2018-08-01T15:15:48Z</time>
      </trkpt>
      <trkpt lat="47.15494" lon="6.8466">
        <ele>634.726</ele>
        <time>2018-08-01T15:15:49Z</time>
      </trkpt>
      <trkpt lat="47.15493" lon="6.84652">
        <ele>634.808</ele>
        <time>2018-08-01T15:15:50Z</time>
      </trkpt>
      <trkpt lat="47.15494" lon="6.84645">
        <ele>634.95</ele>
        <time>2018-08-01T15:15:51Z</time>
      </trkpt>
      <trkpt lat="47.15494" lon="6.84635">
        <ele>635.145</ele>
        <time>2018-08-01T15:15:52Z</time>
      </trkpt>
      <trkpt lat="47.15495" lon="6.84627">
        <ele>635.299</ele>
        <time>2018-08-01T15:15:53Z</time>
      </trkpt>
      <trkpt lat="47.15495" lon="6.84621">
        <ele>635.211</ele>
        <time>2018-08-01T15:15:54Z</time>
      </trkpt>
      <trkpt lat="47.15495" lon="6.84613">
        <ele>635.357</ele>
        <time>2018-08-01T15:15:55Z</time>
      </trkpt>
      <trkpt lat="47.15496" lon="6.84604">
        <ele>635.314</ele>
        <time>2018-08-01T15:15:56Z</time>
      </trkpt>
      <trkpt lat="47.15496" lon="6.84596">
        <ele>635.359</ele>
        <time>2018-08-01T15:15:57Z</time>
      </trkpt>
      <trkpt lat="47.15496" lon="6.84584">
        <ele>635.478</ele>
        <time>2018-08-01T15:15:59Z</time>
      </trkpt>
      <trkpt lat="47.15497" lon="6.84576">
        <ele>635.572</ele>
        <time>2018-08-01T15:16:00Z</time>
      </trkpt>
      <trkpt lat="47.15496" lon="6.84568">
        <ele>635.613</ele>
        <time>2018-08-01T15:16:01Z</time>
      </trkpt>
      <trkpt lat="47.15494" lon="6.84562">
        <ele>635.714</ele>
        <time>2018-08-01T15:16:02Z</time>
      </trkpt>
      <trkpt lat="47.15493" lon="6.84554">
        <ele>635.808</ele>
        <time>2018-08-01T15:16:03Z</time>
      </trkpt>
      <trkpt lat="47.15493" lon="6.84545">
        <ele>635.949</ele>
        <time>2018-08-01T15:16:04Z</time>
      </trkpt>
      <trkpt lat="47.15492" lon="6.84537">
        <ele>636.064</ele>
        <time>2018-08-01T15:16:05Z</time>
      </trkpt>
      <trkpt lat="47.15492" lon="6.84529">
        <ele>636.138</ele>
        <time>2018-08-01T15:16:06Z</time>
      </trkpt>
      <trkpt lat="47.15491" lon="6.84522">
        <ele>636.39</ele>
        <time>2018-08-01T15:16:07Z</time>
      </trkpt>
      <trkpt lat="47.1549" lon="6.84515">
        <ele>636.456</ele>
        <time>2018-08-01T15:16:08Z</time>
      </trkpt>
      <trkpt lat="47.15489" lon="6.84507">
        <ele>636.513</ele>
        <time>2018-08-01T15:16:09Z</time>
      </trkpt>
      <trkpt lat="47.15489" lon="6.84499">
        <ele>636.648</ele>
        <time>2018-08-01T15:16:10Z</time>
      </trkpt>
      <trkpt lat="47.15486" lon="6.84491">
        <ele>636.897</ele>
        <time>2018-08-01T15:16:11Z</time>
      </trkpt>
      <trkpt lat="47.15486" lon="6.84483">
        <ele>636.944</ele>
        <time>2018-08-01T15:16:12Z</time>
      </trkpt>
      <trkpt lat="47.15483" lon="6.84476">
        <ele>637.005</ele>
        <time>2018-08-01T15:16:13Z</time>
      </trkpt>
      <trkpt lat="47.15481" lon="6.84469">
        <ele>637.115</ele>
        <time>2018-08-01T15:16:14Z</time>
      </trkpt>
      <trkpt lat="47.15478" lon="6.84463">
        <ele>637.208</ele>
        <time>2018-08-01T15:16:15Z</time>
      </trkpt>
      <trkpt lat="47.15474" lon="6.84455">
        <ele>637.276</ele>
        <time>2018-08-01T15:16:16Z</time>
      </trkpt>
      <trkpt lat="47.15469" lon="6.84442">
        <ele>637.341</ele>
        <time>2018-08-01T15:16:18Z</time>
      </trkpt>
      <trkpt lat="47.15466" lon="6.84434">
        <ele>637.465</ele>
        <time>2018-08-01T15:16:19Z</time>
      </trkpt>
      <trkpt lat="47.15464" lon="6.84427">
        <ele>637.567</ele>
        <time>2018-08-01T15:16:20Z</time>
      </trkpt>
      <trkpt lat="47.1546" lon="6.84419">
        <ele>637.643</ele>
        <time>2018-08-01T15:16:21Z</time>
      </trkpt>
      <trkpt lat="47.15457" lon="6.84412">
        <ele>637.84</ele>
        <time>2018-08-01T15:16:22Z</time>
      </trkpt>
      <trkpt lat="47.15453" lon="6.84405">
        <ele>637.935</ele>
        <time>2018-08-01T15:16:23Z</time>
      </trkpt>
      <trkpt lat="47.15449" lon="6.84398">
        <ele>637.934</ele>
        <time>2018-08-01T15:16:24Z</time>
      </trkpt>
      <trkpt lat="47.15446" lon="6.84393">
        <ele>638.063</ele>
        <time>2018-08-01T15:16:25Z</time>
      </trkpt>
      <trkpt lat="47.15442" lon="6.84387">
        <ele>638.144</ele>
        <time>2018-08-01T15:16:26Z</time>
      </trkpt>
      <trkpt lat="47.15441" lon="6.8438">
        <ele>638.218</ele>
        <time>2018-08-01T15:16:27Z</time>
      </trkpt>
      <trkpt lat="47.15439" lon="6.84373">
        <ele>638.308</ele>
        <time>2018-08-01T15:16:28Z</time>
      </trkpt>
      <trkpt lat="47.15436" lon="6.84367">
        <ele>638.448</ele>
        <time>2018-08-01T15:16:29Z</time>
      </trkpt>
      <trkpt lat="47.15433" lon="6.84361">
        <ele>638.873</ele>
        <time>2018-08-01T15:16:31Z</time>
      </trkpt>
      <trkpt lat="47.15427" lon="6.84347">
        <ele>639.247</ele>
        <time>2018-08-01T15:16:33Z</time>
      </trkpt>
      <trkpt lat="47.15425" lon="6.84341">
        <ele>639.439</ele>
        <time>2018-08-01T15:16:34Z</time>
      </trkpt>
      <trkpt lat="47.15421" lon="6.84335">
        <ele>639.655</ele>
        <time>2018-08-01T15:16:35Z</time>
      </trkpt>
      <trkpt lat="47.15418" lon="6.84329">
        <ele>639.832</ele>
        <time>2018-08-01T15:16:36Z</time>
      </trkpt>
      <trkpt lat="47.15415" lon="6.84321">
        <ele>640.087</ele>
        <time>2018-08-01T15:16:37Z</time>
      </trkpt>
      <trkpt lat="47.15412" lon="6.84315">
        <ele>640.246</ele>
        <time>2018-08-01T15:16:38Z</time>
      </trkpt>
      <trkpt lat="47.15409" lon="6.84306">
        <ele>640.467</ele>
        <time>2018-08-01T15:16:39Z</time>
      </trkpt>
      <trkpt lat="47.15405" lon="6.84293">
        <ele>640.881</ele>
        <time>2018-08-01T15:16:41Z</time>
      </trkpt>
      <trkpt lat="47.15402" lon="6.84282">
        <ele>641.219</ele>
        <time>2018-08-01T15:16:43Z</time>
      </trkpt>
      <trkpt lat="47.15399" lon="6.84276">
        <ele>641.408</ele>
        <time>2018-08-01T15:16:44Z</time>
      </trkpt>
      <trkpt lat="47.15397" lon="6.8427">
        <ele>641.638</ele>
        <time>2018-08-01T15:16:45Z</time>
      </trkpt>
      <trkpt lat="47.15394" lon="6.84264">
        <ele>641.883</ele>
        <time>2018-08-01T15:16:46Z</time>
      </trkpt>
      <trkpt lat="47.15391" lon="6.84258">
        <ele>642.067</ele>
        <time>2018-08-01T15:16:47Z</time>
      </trkpt>
      <trkpt lat="47.15382" lon="6.84254">
        <ele>642.479</ele>
        <time>2018-08-01T15:16:49Z</time>
      </trkpt>
      <trkpt lat="47.15377" lon="6.84247">
        <ele>642.685</ele>
        <time>2018-08-01T15:16:51Z</time>
      </trkpt>
      <trkpt lat="47.15373" lon="6.8424">
        <ele>642.862</ele>
        <time>2018-08-01T15:16:52Z</time>
      </trkpt>
      <trkpt lat="47.15367" lon="6.84231">
        <ele>643.277</ele>
        <time>2018-08-01T15:16:54Z</time>
      </trkpt>
      <trkpt lat="47.15362" lon="6.84221">
        <ele>643.556</ele>
        <time>2018-08-01T15:16:56Z</time>
      </trkpt>
      <trkpt lat="47.15356" lon="6.84213">
        <ele>643.973</ele>
        <time>2018-08-01T15:16:58Z</time>
      </trkpt>
      <trkpt lat="47.15353" lon="6.84207">
        <ele>644.185</ele>
        <time>2018-08-01T15:16:59Z</time>
      </trkpt>
      <trkpt lat="47.1535" lon="6.84201">
        <ele>644.313</ele>
        <time>2018-08-01T15:17:00Z</time>
      </trkpt>
      <trkpt lat="47.15344" lon="6.84198">
        <ele>644.708</ele>
        <time>2018-08-01T15:17:02Z</time>
      </trkpt>
      <trkpt lat="47.15337" lon="6.84188">
        <ele>645.279</ele>
        <time>2018-08-01T15:17:04Z</time>
      </trkpt>
      <trkpt lat="47.15335" lon="6.8418">
        <ele>645.474</ele>
        <time>2018-08-01T15:17:05Z</time>
      </trkpt>
      <trkpt lat="47.15333" lon="6.84175">
        <ele>645.658</ele>
        <time>2018-08-01T15:17:06Z</time>
      </trkpt>
      <trkpt lat="47.15327" lon="6.84166">
        <ele>646.07</ele>
        <time>2018-08-01T15:17:08Z</time>
      </trkpt>
      <trkpt lat="47.15322" lon="6.84156">
        <ele>646.386</ele>
        <time>2018-08-01T15:17:10Z</time>
      </trkpt>
      <trkpt lat="47.15318" lon="6.8415">
        <ele>646.553</ele>
        <time>2018-08-01T15:17:11Z</time>
      </trkpt>
      <trkpt lat="47.15315" lon="6.84146">
        <ele>646.768</ele>
        <time>2018-08-01T15:17:12Z</time>
      </trkpt>
      <trkpt lat="47.1531" lon="6.84137">
        <ele>647.047</ele>
        <time>2018-08-01T15:17:14Z</time>
      </trkpt>
      <trkpt lat="47.15308" lon="6.8413">
        <ele>647.345</ele>
        <time>2018-08-01T15:17:15Z</time>
      </trkpt>
      <trkpt lat="47.15305" lon="6.84124">
        <ele>647.747</ele>
        <time>2018-08-01T15:17:17Z</time>
      </trkpt>
      <trkpt lat="47.15299" lon="6.84114">
        <ele>648.211</ele>
        <time>2018-08-01T15:17:19Z</time>
      </trkpt>
      <trkpt lat="47.15295" lon="6.8411">
        <ele>648.208</ele>
        <time>2018-08-01T15:17:20Z</time>
      </trkpt>
      <trkpt lat="47.15292" lon="6.84105">
        <ele>648.426</ele>
        <time>2018-08-01T15:17:21Z</time>
      </trkpt>
      <trkpt lat="47.15288" lon="6.84099">
        <ele>648.641</ele>
        <time>2018-08-01T15:17:22Z</time>
      </trkpt>
      <trkpt lat="47.15284" lon="6.84093">
        <ele>648.865</ele>
        <time>2018-08-01T15:17:23Z</time>
      </trkpt>
      <trkpt lat="47.1528" lon="6.84086">
        <ele>649.057</ele>
        <time>2018-08-01T15:17:24Z</time>
      </trkpt>
      <trkpt lat="47.15277" lon="6.84079">
        <ele>649.283</ele>
        <time>2018-08-01T15:17:25Z</time>
      </trkpt>
      <trkpt lat="47.15274" lon="6.84075">
        <ele>649.48</ele>
        <time>2018-08-01T15:17:26Z</time>
      </trkpt>
      <trkpt lat="47.15269" lon="6.84069">
        <ele>649.575</ele>
        <time>2018-08-01T15:17:27Z</time>
      </trkpt>
      <trkpt lat="47.15265" lon="6.84065">
        <ele>649.654</ele>
        <time>2018-08-01T15:17:28Z</time>
      </trkpt>
      <trkpt lat="47.1526" lon="6.84058">
        <ele>649.645</ele>
        <time>2018-08-01T15:17:29Z</time>
      </trkpt>
      <trkpt lat="47.15256" lon="6.84054">
        <ele>649.747</ele>
        <time>2018-08-01T15:17:30Z</time>
      </trkpt>
      <trkpt lat="47.15251" lon="6.84051">
        <ele>649.811</ele>
        <time>2018-08-01T15:17:31Z</time>
      </trkpt>
      <trkpt lat="47.15246" lon="6.84048">
        <ele>649.908</ele>
        <time>2018-08-01T15:17:32Z</time>
      </trkpt>
      <trkpt lat="47.15242" lon="6.84043">
        <ele>650.176</ele>
        <time>2018-08-01T15:17:33Z</time>
      </trkpt>
      <trkpt lat="47.15236" lon="6.84036">
        <ele>650.221</ele>
        <time>2018-08-01T15:17:34Z</time>
      </trkpt>
      <trkpt lat="47.1523" lon="6.84033">
        <ele>650.245</ele>
        <time>2018-08-01T15:17:36Z</time>
      </trkpt>
      <trkpt lat="47.15226" lon="6.84031">
        <ele>650.297</ele>
        <time>2018-08-01T15:17:37Z</time>
      </trkpt>
      <trkpt lat="47.1522" lon="6.8403">
        <ele>650.153</ele>
        <time>2018-08-01T15:17:38Z</time>
      </trkpt>
      <trkpt lat="47.15215" lon="6.84028">
        <ele>650.14</ele>
        <time>2018-08-01T15:17:39Z</time>
      </trkpt>
      <trkpt lat="47.15209" lon="6.84028">
        <ele>650.185</ele>
        <time>2018-08-01T15:17:40Z</time>
      </trkpt>
      <trkpt lat="47.15204" lon="6.84028">
        <ele>650.124</ele>
        <time>2018-08-01T15:17:41Z</time>
      </trkpt>
      <trkpt lat="47.15199" lon="6.84031">
        <ele>650.266</ele>
        <time>2018-08-01T15:17:42Z</time>
      </trkpt>
      <trkpt lat="47.15193" lon="6.84032">
        <ele>650.229</ele>
        <time>2018-08-01T15:17:43Z</time>
      </trkpt>
      <trkpt lat="47.15186" lon="6.84036">
        <ele>650.421</ele>
        <time>2018-08-01T15:17:45Z</time>
      </trkpt>
      <trkpt lat="47.15182" lon="6.84039">
        <ele>650.508</ele>
        <time>2018-08-01T15:17:46Z</time>
      </trkpt>
      <trkpt lat="47.15169" lon="6.84061">
        <ele>650.868</ele>
        <time>2018-08-01T15:17:51Z</time>
      </trkpt>
      <trkpt lat="47.15165" lon="6.84065">
        <ele>650.913</ele>
        <time>2018-08-01T15:17:52Z</time>
      </trkpt>
      <trkpt lat="47.15158" lon="6.84069">
        <ele>651.017</ele>
        <time>2018-08-01T15:17:53Z</time>
      </trkpt>
      <trkpt lat="47.15154" lon="6.84072">
        <ele>651.139</ele>
        <time>2018-08-01T15:17:54Z</time>
      </trkpt>
      <trkpt lat="47.15148" lon="6.84075">
        <ele>651.275</ele>
        <time>2018-08-01T15:17:55Z</time>
      </trkpt>
      <trkpt lat="47.15143" lon="6.84079">
        <ele>651.422</ele>
        <time>2018-08-01T15:17:56Z</time>
      </trkpt>
      <trkpt lat="47.15137" lon="6.84084">
        <ele>651.637</ele>
        <time>2018-08-01T15:17:57Z</time>
      </trkpt>
      <trkpt lat="47.15132" lon="6.84087">
        <ele>651.956</ele>
        <time>2018-08-01T15:17:58Z</time>
      </trkpt>
      <trkpt lat="47.15127" lon="6.84091">
        <ele>652.286</ele>
        <time>2018-08-01T15:17:59Z</time>
      </trkpt>
      <trkpt lat="47.15118" lon="6.84097">
        <ele>652.76</ele>
        <time>2018-08-01T15:18:01Z</time>
      </trkpt>
      <trkpt lat="47.15114" lon="6.841">
        <ele>653.026</ele>
        <time>2018-08-01T15:18:02Z</time>
      </trkpt>
      <trkpt lat="47.1511" lon="6.8411">
        <ele>653.208</ele>
        <time>2018-08-01T15:18:03Z</time>
      </trkpt>
      <trkpt lat="47.15103" lon="6.84111">
        <ele>653.45</ele>
        <time>2018-08-01T15:18:04Z</time>
      </trkpt>
      <trkpt lat="47.15101" lon="6.84117">
        <ele>653.655</ele>
        <time>2018-08-01T15:18:05Z</time>
      </trkpt>
      <trkpt lat="47.15094" lon="6.84114">
        <ele>653.949</ele>
        <time>2018-08-01T15:18:06Z</time>
      </trkpt>
      <trkpt lat="47.15089" lon="6.84112">
        <ele>654.251</ele>
        <time>2018-08-01T15:18:07Z</time>
      </trkpt>
      <trkpt lat="47.1508" lon="6.84112">
        <ele>654.587</ele>
        <time>2018-08-01T15:18:09Z</time>
      </trkpt>
      <trkpt lat="47.15072" lon="6.84117">
        <ele>654.954</ele>
        <time>2018-08-01T15:18:11Z</time>
      </trkpt>
      <trkpt lat="47.15067" lon="6.84117">
        <ele>655.049</ele>
        <time>2018-08-01T15:18:12Z</time>
      </trkpt>
      <trkpt lat="47.1506" lon="6.84117">
        <ele>655.538</ele>
        <time>2018-08-01T15:18:14Z</time>
      </trkpt>
      <trkpt lat="47.15053" lon="6.8412">
        <ele>655.751</ele>
        <time>2018-08-01T15:18:16Z</time>
      </trkpt>
      <trkpt lat="47.15047" lon="6.84125">
        <ele>656.101</ele>
        <time>2018-08-01T15:18:18Z</time>
      </trkpt>
      <trkpt lat="47.1504" lon="6.84129">
        <ele>656.511</ele>
        <time>2018-08-01T15:18:20Z</time>
      </trkpt>
      <trkpt lat="47.15035" lon="6.84134">
        <ele>656.908</ele>
        <time>2018-08-01T15:18:22Z</time>
      </trkpt>
      <trkpt lat="47.1503" lon="6.84141">
        <ele>657.367</ele>
        <time>2018-08-01T15:18:24Z</time>
      </trkpt>
      <trkpt lat="47.15024" lon="6.84149">
        <ele>657.842</ele>
        <time>2018-08-01T15:18:26Z</time>
      </trkpt>
      <trkpt lat="47.15019" lon="6.84155">
        <ele>658.336</ele>
        <time>2018-08-01T15:18:28Z</time>
      </trkpt>
      <trkpt lat="47.15012" lon="6.84159">
        <ele>658.868</ele>
        <time>2018-08-01T15:18:30Z</time>
      </trkpt>
      <trkpt lat="47.15005" lon="6.84163">
        <ele>659.234</ele>
        <time>2018-08-01T15:18:32Z</time>
      </trkpt>
      <trkpt lat="47.14998" lon="6.84163">
        <ele>659.621</ele>
        <time>2018-08-01T15:18:34Z</time>
      </trkpt>
      <trkpt lat="47.14989" lon="6.84163">
        <ele>660.036</ele>
        <time>2018-08-01T15:18:36Z</time>
      </trkpt>
      <trkpt lat="47.14981" lon="6.84164">
        <ele>660.435</ele>
        <time>2018-08-01T15:18:38Z</time>
      </trkpt>
      <trkpt lat="47.14975" lon="6.84166">
        <ele>660.991</ele>
        <time>2018-08-01T15:18:40Z</time>
      </trkpt>
      <trkpt lat="47.14968" lon="6.84166">
        <ele>661.381</ele>
        <time>2018-08-01T15:18:42Z</time>
      </trkpt>
      <trkpt lat="47.14961" lon="6.84164">
        <ele>661.519</ele>
        <time>2018-08-01T15:18:44Z</time>
      </trkpt>
      <trkpt lat="47.14956" lon="6.84157">
        <ele>661.908</ele>
        <time>2018-08-01T15:18:46Z</time>
      </trkpt>
      <trkpt lat="47.1495" lon="6.84148">
        <ele>662.521</ele>
        <time>2018-08-01T15:18:48Z</time>
      </trkpt>
      <trkpt lat="47.14946" lon="6.84139">
        <ele>663.136</ele>
        <time>2018-08-01T15:18:50Z</time>
      </trkpt>
      <trkpt lat="47.14941" lon="6.84129">
        <ele>663.76</ele>
        <time>2018-08-01T15:18:52Z</time>
      </trkpt>
      <trkpt lat="47.14938" lon="6.84122">
        <ele>664.072</ele>
        <time>2018-08-01T15:18:53Z</time>
      </trkpt>
      <trkpt lat="47.14933" lon="6.84113">
        <ele>664.668</ele>
        <time>2018-08-01T15:18:55Z</time>
      </trkpt>
      <trkpt lat="47.1493" lon="6.84107">
        <ele>665.095</ele>
        <time>2018-08-01T15:18:56Z</time>
      </trkpt>
      <trkpt lat="47.14925" lon="6.84101">
        <ele>665.76</ele>
        <time>2018-08-01T15:18:58Z</time>
      </trkpt>
      <trkpt lat="47.1492" lon="6.84093">
        <ele>666.329</ele>
        <time>2018-08-01T15:19:00Z</time>
      </trkpt>
      <trkpt lat="47.14916" lon="6.84089">
        <ele>666.588</ele>
        <time>2018-08-01T15:19:01Z</time>
      </trkpt>
      <trkpt lat="47.14909" lon="6.84084">
        <ele>666.924</ele>
        <time>2018-08-01T15:19:03Z</time>
      </trkpt>
      <trkpt lat="47.14901" lon="6.84081">
        <ele>667.226</ele>
        <time>2018-08-01T15:19:05Z</time>
      </trkpt>
      <trkpt lat="47.14894" lon="6.84083">
        <ele>667.708</ele>
        <time>2018-08-01T15:19:07Z</time>
      </trkpt>
      <trkpt lat="47.14888" lon="6.84086">
        <ele>668.06</ele>
        <time>2018-08-01T15:19:09Z</time>
      </trkpt>
      <trkpt lat="47.14881" lon="6.84088">
        <ele>668.185</ele>
        <time>2018-08-01T15:19:11Z</time>
      </trkpt>
      <trkpt lat="47.14874" lon="6.84089">
        <ele>668.449</ele>
        <time>2018-08-01T15:19:13Z</time>
      </trkpt>
      <trkpt lat="47.14867" lon="6.84092">
        <ele>668.691</ele>
        <time>2018-08-01T15:19:15Z</time>
      </trkpt>
      <trkpt lat="47.1486" lon="6.84093">
        <ele>669.177</ele>
        <time>2018-08-01T15:19:17Z</time>
      </trkpt>
      <trkpt lat="47.14853" lon="6.84088">
        <ele>669.644</ele>
        <time>2018-08-01T15:19:19Z</time>
      </trkpt>
      <trkpt lat="47.14847" lon="6.84088">
        <ele>670.229</ele>
        <time>2018-08-01T15:19:21Z</time>
      </trkpt>
      <trkpt lat="47.14842" lon="6.84081">
        <ele>670.758</ele>
        <time>2018-08-01T15:19:23Z</time>
      </trkpt>
      <trkpt lat="47.1484" lon="6.8407">
        <ele>671.295</ele>
        <time>2018-08-01T15:19:25Z</time>
      </trkpt>
      <trkpt lat="47.14835" lon="6.84052">
        <ele>671.949</ele>
        <time>2018-08-01T15:19:28Z</time>
      </trkpt>
      <trkpt lat="47.14834" lon="6.84035">
        <ele>672.423</ele>
        <time>2018-08-01T15:19:30Z</time>
      </trkpt>
      <trkpt lat="47.14833" lon="6.84028">
        <ele>672.608</ele>
        <time>2018-08-01T15:19:31Z</time>
      </trkpt>
      <trkpt lat="47.14832" lon="6.84016">
        <ele>673.191</ele>
        <time>2018-08-01T15:19:33Z</time>
      </trkpt>
      <trkpt lat="47.14833" lon="6.84006">
        <ele>673.756</ele>
        <time>2018-08-01T15:19:35Z</time>
      </trkpt>
      <trkpt lat="47.14836" lon="6.83995">
        <ele>674.34</ele>
        <time>2018-08-01T15:19:37Z</time>
      </trkpt>
      <trkpt lat="47.14839" lon="6.83989">
        <ele>674.672</ele>
        <time>2018-08-01T15:19:39Z</time>
      </trkpt>
      <trkpt lat="47.1484" lon="6.83975">
        <ele>674.928</ele>
        <time>2018-08-01T15:19:40Z</time>
      </trkpt>
      <trkpt lat="47.14837" lon="6.83965">
        <ele>675.485</ele>
        <time>2018-08-01T15:19:42Z</time>
      </trkpt>
      <trkpt lat="47.14836" lon="6.83956">
        <ele>675.97</ele>
        <time>2018-08-01T15:19:44Z</time>
      </trkpt>
      <trkpt lat="47.14831" lon="6.83952">
        <ele>676.159</ele>
        <time>2018-08-01T15:19:45Z</time>
      </trkpt>
      <trkpt lat="47.14827" lon="6.83945">
        <ele>676.521</ele>
        <time>2018-08-01T15:19:47Z</time>
      </trkpt>
      <trkpt lat="47.14824" lon="6.83936">
        <ele>676.941</ele>
        <time>2018-08-01T15:19:49Z</time>
      </trkpt>
      <trkpt lat="47.14822" lon="6.83924">
        <ele>677.305</ele>
        <time>2018-08-01T15:19:51Z</time>
      </trkpt>
      <trkpt lat="47.14816" lon="6.83913">
        <ele>677.708</ele>
        <time>2018-08-01T15:19:53Z</time>
      </trkpt>
      <trkpt lat="47.14813" lon="6.83904">
        <ele>678.174</ele>
        <time>2018-08-01T15:19:55Z</time>
      </trkpt>
      <trkpt lat="47.1481" lon="6.83899">
        <ele>678.559</ele>
        <time>2018-08-01T15:19:57Z</time>
      </trkpt>
      <trkpt lat="47.14811" lon="6.83888">
        <ele>678.713</ele>
        <time>2018-08-01T15:19:58Z</time>
      </trkpt>
      <trkpt lat="47.1481" lon="6.83878">
        <ele>679.155</ele>
        <time>2018-08-01T15:20:00Z</time>
      </trkpt>
      <trkpt lat="47.14808" lon="6.83868">
        <ele>679.531</ele>
        <time>2018-08-01T15:20:02Z</time>
      </trkpt>
      <trkpt lat="47.14807" lon="6.8386">
        <ele>680.058</ele>
        <time>2018-08-01T15:20:04Z</time>
      </trkpt>
      <trkpt lat="47.14806" lon="6.83851">
        <ele>680.573</ele>
        <time>2018-08-01T15:20:06Z</time>
      </trkpt>
      <trkpt lat="47.148" lon="6.83845">
        <ele>680.732</ele>
        <time>2018-08-01T15:20:08Z</time>
      </trkpt>
      <trkpt lat="47.14797" lon="6.83839">
        <ele>680.983</ele>
        <time>2018-08-01T15:20:09Z</time>
      </trkpt>
      <trkpt lat="47.14795" lon="6.8383">
        <ele>681.425</ele>
        <time>2018-08-01T15:20:11Z</time>
      </trkpt>
      <trkpt lat="47.14795" lon="6.83821">
        <ele>681.917</ele>
        <time>2018-08-01T15:20:13Z</time>
      </trkpt>
      <trkpt lat="47.14796" lon="6.83813">
        <ele>682.408</ele>
        <time>2018-08-01T15:20:15Z</time>
      </trkpt>
      <trkpt lat="47.14792" lon="6.83799">
        <ele>683.03</ele>
        <time>2018-08-01T15:20:17Z</time>
      </trkpt>
      <trkpt lat="47.14789" lon="6.83793">
        <ele>683.455</ele>
        <time>2018-08-01T15:20:19Z</time>
      </trkpt>
      <trkpt lat="47.14788" lon="6.83783">
        <ele>684.339</ele>
        <time>2018-08-01T15:20:23Z</time>
      </trkpt>
      <trkpt lat="47.14788" lon="6.8377">
        <ele>684.821</ele>
        <time>2018-08-01T15:20:25Z</time>
      </trkpt>
      <trkpt lat="47.14787" lon="6.83763">
        <ele>685.017</ele>
        <time>2018-08-01T15:20:26Z</time>
      </trkpt>
      <trkpt lat="47.14785" lon="6.83755">
        <ele>685.344</ele>
        <time>2018-08-01T15:20:27Z</time>
      </trkpt>
      <trkpt lat="47.14782" lon="6.83748">
        <ele>685.649</ele>
        <time>2018-08-01T15:20:28Z</time>
      </trkpt>
      <trkpt lat="47.14779" lon="6.83743">
        <ele>685.978</ele>
        <time>2018-08-01T15:20:29Z</time>
      </trkpt>
      <trkpt lat="47.14772" lon="6.83739">
        <ele>686.514</ele>
        <time>2018-08-01T15:20:31Z</time>
      </trkpt>
      <trkpt lat="47.14772" lon="6.83728">
        <ele>686.854</ele>
        <time>2018-08-01T15:20:32Z</time>
      </trkpt>
      <trkpt lat="47.14771" lon="6.83719">
        <ele>687.409</ele>
        <time>2018-08-01T15:20:35Z</time>
      </trkpt>
      <trkpt lat="47.14769" lon="6.83707">
        <ele>688.008</ele>
        <time>2018-08-01T15:20:37Z</time>
      </trkpt>
      <trkpt lat="47.14767" lon="6.83701">
        <ele>688.323</ele>
        <time>2018-08-01T15:20:38Z</time>
      </trkpt>
      <trkpt lat="47.14763" lon="6.83696">
        <ele>688.678</ele>
        <time>2018-08-01T15:20:39Z</time>
      </trkpt>
      <trkpt lat="47.14757" lon="6.8369">
        <ele>689.182</ele>
        <time>2018-08-01T15:20:41Z</time>
      </trkpt>
      <trkpt lat="47.14754" lon="6.83684">
        <ele>689.314</ele>
        <time>2018-08-01T15:20:42Z</time>
      </trkpt>
      <trkpt lat="47.14746" lon="6.83669">
        <ele>689.99</ele>
        <time>2018-08-01T15:20:45Z</time>
      </trkpt>
      <trkpt lat="47.14742" lon="6.83665">
        <ele>690.127</ele>
        <time>2018-08-01T15:20:46Z</time>
      </trkpt>
      <trkpt lat="47.14736" lon="6.83658">
        <ele>690.642</ele>
        <time>2018-08-01T15:20:48Z</time>
      </trkpt>
      <trkpt lat="47.14732" lon="6.83653">
        <ele>691.111</ele>
        <time>2018-08-01T15:20:50Z</time>
      </trkpt>
      <trkpt lat="47.14728" lon="6.83647">
        <ele>691.737</ele>
        <time>2018-08-01T15:20:52Z</time>
      </trkpt>
      <trkpt lat="47.14723" lon="6.83641">
        <ele>692.249</ele>
        <time>2018-08-01T15:20:54Z</time>
      </trkpt>
      <trkpt lat="47.14719" lon="6.83637">
        <ele>692.713</ele>
        <time>2018-08-01T15:20:56Z</time>
      </trkpt>
      <trkpt lat="47.14718" lon="6.83628">
        <ele>693.308</ele>
        <time>2018-08-01T15:20:59Z</time>
      </trkpt>
      <trkpt lat="47.14711" lon="6.83618">
        <ele>693.445</ele>
        <time>2018-08-01T15:21:00Z</time>
      </trkpt>
      <trkpt lat="47.14708" lon="6.83609">
        <ele>693.76</ele>
        <time>2018-08-01T15:21:02Z</time>
      </trkpt>
      <trkpt lat="47.14705" lon="6.836">
        <ele>693.974</ele>
        <time>2018-08-01T15:21:04Z</time>
      </trkpt>
      <trkpt lat="47.14703" lon="6.83591">
        <ele>694.486</ele>
        <time>2018-08-01T15:21:06Z</time>
      </trkpt>
      <trkpt lat="47.14701" lon="6.83579">
        <ele>695.052</ele>
        <time>2018-08-01T15:21:08Z</time>
      </trkpt>
      <trkpt lat="47.14698" lon="6.83568">
        <ele>695.569</ele>
        <time>2018-08-01T15:21:10Z</time>
      </trkpt>
      <trkpt lat="47.14695" lon="6.83559">
        <ele>696.164</ele>
        <time>2018-08-01T15:21:12Z</time>
      </trkpt>
      <trkpt lat="47.14692" lon="6.83554">
        <ele>696.433</ele>
        <time>2018-08-01T15:21:13Z</time>
      </trkpt>
      <trkpt lat="47.14688" lon="6.83546">
        <ele>696.924</ele>
        <time>2018-08-01T15:21:15Z</time>
      </trkpt>
      <trkpt lat="47.14684" lon="6.8354">
        <ele>697.604</ele>
        <time>2018-08-01T15:21:18Z</time>
      </trkpt>
      <trkpt lat="47.14682" lon="6.83531">
        <ele>698.014</ele>
        <time>2018-08-01T15:21:20Z</time>
      </trkpt>
      <trkpt lat="47.14679" lon="6.83519">
        <ele>698.208</ele>
        <time>2018-08-01T15:21:21Z</time>
      </trkpt>
      <trkpt lat="47.14677" lon="6.8351">
        <ele>698.784</ele>
        <time>2018-08-01T15:21:23Z</time>
      </trkpt>
      <trkpt lat="47.14673" lon="6.83502">
        <ele>699.119</ele>
        <time>2018-08-01T15:21:25Z</time>
      </trkpt>
      <trkpt lat="47.14669" lon="6.83496">
        <ele>699.543</ele>
        <time>2018-08-01T15:21:27Z</time>
      </trkpt>
      <trkpt lat="47.14665" lon="6.83489">
        <ele>699.945</ele>
        <time>2018-08-01T15:21:29Z</time>
      </trkpt>
      <trkpt lat="47.14667" lon="6.8348">
        <ele>700.261</ele>
        <time>2018-08-01T15:21:30Z</time>
      </trkpt>
      <trkpt lat="47.1466" lon="6.83466">
        <ele>700.728</ele>
        <time>2018-08-01T15:21:33Z</time>
      </trkpt>
      <trkpt lat="47.14654" lon="6.83463">
        <ele>701.233</ele>
        <time>2018-08-01T15:21:35Z</time>
      </trkpt>
      <trkpt lat="47.14648" lon="6.83467">
        <ele>701.722</ele>
        <time>2018-08-01T15:21:37Z</time>
      </trkpt>
      <trkpt lat="47.14644" lon="6.83478">
        <ele>702.227</ele>
        <time>2018-08-01T15:21:40Z</time>
      </trkpt>
      <trkpt lat="47.14644" lon="6.83494">
        <ele>702.568</ele>
        <time>2018-08-01T15:21:43Z</time>
      </trkpt>
      <trkpt lat="47.14646" lon="6.83503">
        <ele>702.814</ele>
        <time>2018-08-01T15:21:45Z</time>
      </trkpt>
      <trkpt lat="47.14652" lon="6.83512">
        <ele>703.108</ele>
        <time>2018-08-01T15:21:47Z</time>
      </trkpt>
      <trkpt lat="47.14657" lon="6.83518">
        <ele>703.484</ele>
        <time>2018-08-01T15:21:49Z</time>
      </trkpt>
      <trkpt lat="47.14659" lon="6.83529">
        <ele>703.699</ele>
        <time>2018-08-01T15:21:50Z</time>
      </trkpt>
      <trkpt lat="47.14661" lon="6.83535">
        <ele>703.863</ele>
        <time>2018-08-01T15:21:51Z</time>
      </trkpt>
      <trkpt lat="47.14665" lon="6.8354">
        <ele>704.255</ele>
        <time>2018-08-01T15:21:53Z</time>
      </trkpt>
      <trkpt lat="47.14671" lon="6.83549">
        <ele>704.721</ele>
        <time>2018-08-01T15:21:55Z</time>
      </trkpt>
      <trkpt lat="47.14674" lon="6.83557">
        <ele>705.218</ele>
        <time>2018-08-01T15:21:57Z</time>
      </trkpt>
      <trkpt lat="47.14676" lon="6.83567">
        <ele>705.513</ele>
        <time>2018-08-01T15:21:59Z</time>
      </trkpt>
      <trkpt lat="47.14679" lon="6.83575">
        <ele>706.082</ele>
        <time>2018-08-01T15:22:01Z</time>
      </trkpt>
      <trkpt lat="47.14678" lon="6.83584">
        <ele>706.687</ele>
        <time>2018-08-01T15:22:03Z</time>
      </trkpt>
      <trkpt lat="47.14676" lon="6.83593">
        <ele>706.942</ele>
        <time>2018-08-01T15:22:04Z</time>
      </trkpt>
      <trkpt lat="47.14676" lon="6.83602">
        <ele>707.526</ele>
        <time>2018-08-01T15:22:06Z</time>
      </trkpt>
      <trkpt lat="47.14676" lon="6.83612">
        <ele>708.008</ele>
        <time>2018-08-01T15:22:08Z</time>
      </trkpt>
      <trkpt lat="47.14678" lon="6.83623">
        <ele>708.46</ele>
        <time>2018-08-01T15:22:10Z</time>
      </trkpt>
      <trkpt lat="47.14678" lon="6.83633">
        <ele>708.855</ele>
        <time>2018-08-01T15:22:12Z</time>
      </trkpt>
      <trkpt lat="47.14678" lon="6.83644">
        <ele>709.389</ele>
        <time>2018-08-01T15:22:14Z</time>
      </trkpt>
      <trkpt lat="47.1468" lon="6.83652">
        <ele>709.811</ele>
        <time>2018-08-01T15:22:16Z</time>
      </trkpt>
      <trkpt lat="47.14681" lon="6.8366">
        <ele>710.037</ele>
        <time>2018-08-01T15:22:17Z</time>
      </trkpt>
      <trkpt lat="47.14683" lon="6.8367">
        <ele>710.564</ele>
        <time>2018-08-01T15:22:19Z</time>
      </trkpt>
      <trkpt lat="47.14686" lon="6.83681">
        <ele>710.929</ele>
        <time>2018-08-01T15:22:21Z</time>
      </trkpt>
      <trkpt lat="47.1469" lon="6.8369">
        <ele>711.378</ele>
        <time>2018-08-01T15:22:23Z</time>
      </trkpt>
      <trkpt lat="47.14692" lon="6.83697">
        <ele>711.585</ele>
        <time>2018-08-01T15:22:24Z</time>
      </trkpt>
      <trkpt lat="47.14696" lon="6.83704">
        <ele>711.989</ele>
        <time>2018-08-01T15:22:26Z</time>
      </trkpt>
      <trkpt lat="47.14701" lon="6.83714">
        <ele>712.117</ele>
        <time>2018-08-01T15:22:28Z</time>
      </trkpt>
      <trkpt lat="47.14705" lon="6.83723">
        <ele>712.508</ele>
        <time>2018-08-01T15:22:30Z</time>
      </trkpt>
      <trkpt lat="47.14709" lon="6.8373">
        <ele>713.09</ele>
        <time>2018-08-01T15:22:32Z</time>
      </trkpt>
      <trkpt lat="47.14714" lon="6.83738">
        <ele>713.485</ele>
        <time>2018-08-01T15:22:34Z</time>
      </trkpt>
      <trkpt lat="47.1472" lon="6.83746">
        <ele>713.989</ele>
        <time>2018-08-01T15:22:36Z</time>
      </trkpt>
      <trkpt lat="47.14724" lon="6.83755">
        <ele>714.371</ele>
        <time>2018-08-01T15:22:38Z</time>
      </trkpt>
      <trkpt lat="47.14724" lon="6.83762">
        <ele>714.587</ele>
        <time>2018-08-01T15:22:39Z</time>
      </trkpt>
      <trkpt lat="47.14726" lon="6.83768">
        <ele>715.044</ele>
        <time>2018-08-01T15:22:41Z</time>
      </trkpt>
      <trkpt lat="47.14729" lon="6.83777">
        <ele>715.589</ele>
        <time>2018-08-01T15:22:43Z</time>
      </trkpt>
      <trkpt lat="47.14731" lon="6.83786">
        <ele>715.948</ele>
        <time>2018-08-01T15:22:45Z</time>
      </trkpt>
      <trkpt lat="47.14734" lon="6.83795">
        <ele>716.357</ele>
        <time>2018-08-01T15:22:47Z</time>
      </trkpt>
      <trkpt lat="47.14734" lon="6.83806">
        <ele>716.7</ele>
        <time>2018-08-01T15:22:49Z</time>
      </trkpt>
      <trkpt lat="47.14734" lon="6.83814">
        <ele>717.12</ele>
        <time>2018-08-01T15:22:51Z</time>
      </trkpt>
      <trkpt lat="47.14735" lon="6.83824">
        <ele>717.508</ele>
        <time>2018-08-01T15:22:53Z</time>
      </trkpt>
      <trkpt lat="47.14738" lon="6.83833">
        <ele>717.987</ele>
        <time>2018-08-01T15:22:55Z</time>
      </trkpt>
      <trkpt lat="47.14737" lon="6.83842">
        <ele>718.282</ele>
        <time>2018-08-01T15:22:57Z</time>
      </trkpt>
      <trkpt lat="47.14736" lon="6.83852">
        <ele>718.816</ele>
        <time>2018-08-01T15:22:59Z</time>
      </trkpt>
      <trkpt lat="47.14737" lon="6.83863">
        <ele>719.488</ele>
        <time>2018-08-01T15:23:01Z</time>
      </trkpt>
      <trkpt lat="47.14739" lon="6.83873">
        <ele>720.044</ele>
        <time>2018-08-01T15:23:03Z</time>
      </trkpt>
      <trkpt lat="47.14742" lon="6.83884">
        <ele>720.671</ele>
        <time>2018-08-01T15:23:05Z</time>
      </trkpt>
      <trkpt lat="47.14745" lon="6.83888">
        <ele>720.926</ele>
        <time>2018-08-01T15:23:06Z</time>
      </trkpt>
      <trkpt lat="47.14747" lon="6.83894">
        <ele>721.585</ele>
        <time>2018-08-01T15:23:08Z</time>
      </trkpt>
      <trkpt lat="47.14748" lon="6.83903">
        <ele>722.085</ele>
        <time>2018-08-01T15:23:10Z</time>
      </trkpt>
      <trkpt lat="47.14749" lon="6.83911">
        <ele>722.489</ele>
        <time>2018-08-01T15:23:12Z</time>
      </trkpt>
      <trkpt lat="47.14752" lon="6.8392">
        <ele>722.917</ele>
        <time>2018-08-01T15:23:14Z</time>
      </trkpt>
      <trkpt lat="47.14754" lon="6.83929">
        <ele>723.308</ele>
        <time>2018-08-01T15:23:16Z</time>
      </trkpt>
      <trkpt lat="47.14758" lon="6.83937">
        <ele>723.75</ele>
        <time>2018-08-01T15:23:18Z</time>
      </trkpt>
      <trkpt lat="47.1476" lon="6.83946">
        <ele>724.245</ele>
        <time>2018-08-01T15:23:20Z</time>
      </trkpt>
      <trkpt lat="47.14761" lon="6.83956">
        <ele>724.749</ele>
        <time>2018-08-01T15:23:22Z</time>
      </trkpt>
      <trkpt lat="47.14756" lon="6.83965">
        <ele>725.051</ele>
        <time>2018-08-01T15:23:23Z</time>
      </trkpt>
      <trkpt lat="47.14755" lon="6.83975">
        <ele>725.357</ele>
        <time>2018-08-01T15:23:25Z</time>
      </trkpt>
      <trkpt lat="47.14755" lon="6.83984">
        <ele>725.814</ele>
        <time>2018-08-01T15:23:27Z</time>
      </trkpt>
      <trkpt lat="47.14752" lon="6.83994">
        <ele>726.339</ele>
        <time>2018-08-01T15:23:29Z</time>
      </trkpt>
      <trkpt lat="47.14751" lon="6.84005">
        <ele>726.838</ele>
        <time>2018-08-01T15:23:31Z</time>
      </trkpt>
      <trkpt lat="47.14747" lon="6.84015">
        <ele>727.377</ele>
        <time>2018-08-01T15:23:33Z</time>
      </trkpt>
      <trkpt lat="47.14745" lon="6.84025">
        <ele>727.861</ele>
        <time>2018-08-01T15:23:35Z</time>
      </trkpt>
      <trkpt lat="47.14744" lon="6.84036">
        <ele>728.327</ele>
        <time>2018-08-01T15:23:37Z</time>
      </trkpt>
      <trkpt lat="47.14745" lon="6.84046">
        <ele>728.708</ele>
        <time>2018-08-01T15:23:39Z</time>
      </trkpt>
      <trkpt lat="47.14741" lon="6.84051">
        <ele>728.959</ele>
        <time>2018-08-01T15:23:40Z</time>
      </trkpt>
      <trkpt lat="47.1474" lon="6.84061">
        <ele>729.334</ele>
        <time>2018-08-01T15:23:42Z</time>
      </trkpt>
      <trkpt lat="47.14739" lon="6.84071">
        <ele>729.828</ele>
        <time>2018-08-01T15:23:44Z</time>
      </trkpt>
      <trkpt lat="47.14734" lon="6.84075">
        <ele>730.11</ele>
        <time>2018-08-01T15:23:45Z</time>
      </trkpt>
      <trkpt lat="47.14731" lon="6.84084">
        <ele>730.656</ele>
        <time>2018-08-01T15:23:47Z</time>
      </trkpt>
      <trkpt lat="47.14726" lon="6.84093">
        <ele>731.183</ele>
        <time>2018-08-01T15:23:49Z</time>
      </trkpt>
      <trkpt lat="47.14726" lon="6.84103">
        <ele>731.368</ele>
        <time>2018-08-01T15:23:51Z</time>
      </trkpt>
      <trkpt lat="47.14722" lon="6.84107">
        <ele>731.537</ele>
        <time>2018-08-01T15:23:52Z</time>
      </trkpt>
      <trkpt lat="47.14721" lon="6.84116">
        <ele>732.099</ele>
        <time>2018-08-01T15:23:54Z</time>
      </trkpt>
      <trkpt lat="47.14718" lon="6.84127">
        <ele>732.507</ele>
        <time>2018-08-01T15:23:56Z</time>
      </trkpt>
      <trkpt lat="47.14719" lon="6.84138">
        <ele>733.027</ele>
        <time>2018-08-01T15:23:58Z</time>
      </trkpt>
      <trkpt lat="47.14719" lon="6.84148">
        <ele>733.608</ele>
        <time>2018-08-01T15:24:00Z</time>
      </trkpt>
      <trkpt lat="47.14717" lon="6.84156">
        <ele>734.151</ele>
        <time>2018-08-01T15:24:02Z</time>
      </trkpt>
      <trkpt lat="47.14721" lon="6.84163">
        <ele>734.676</ele>
        <time>2018-08-01T15:24:04Z</time>
      </trkpt>
      <trkpt lat="47.14725" lon="6.84174">
        <ele>735.14</ele>
        <time>2018-08-01T15:24:06Z</time>
      </trkpt>
      <trkpt lat="47.14729" lon="6.84178">
        <ele>735.622</ele>
        <time>2018-08-01T15:24:08Z</time>
      </trkpt>
      <trkpt lat="47.14733" lon="6.84183">
        <ele>736.128</ele>
        <time>2018-08-01T15:24:10Z</time>
      </trkpt>
      <trkpt lat="47.14739" lon="6.84188">
        <ele>736.545</ele>
        <time>2018-08-01T15:24:12Z</time>
      </trkpt>
      <trkpt lat="47.14742" lon="6.84194">
        <ele>737.13</ele>
        <time>2018-08-01T15:24:15Z</time>
      </trkpt>
      <trkpt lat="47.14748" lon="6.84194">
        <ele>737.669</ele>
        <time>2018-08-01T15:24:17Z</time>
      </trkpt>
      <trkpt lat="47.14755" lon="6.84193">
        <ele>738.223</ele>
        <time>2018-08-01T15:24:19Z</time>
      </trkpt>
      <trkpt lat="47.1476" lon="6.842">
        <ele>738.283</ele>
        <time>2018-08-01T15:24:20Z</time>
      </trkpt>
      <trkpt lat="47.14767" lon="6.84204">
        <ele>738.711</ele>
        <time>2018-08-01T15:24:22Z</time>
      </trkpt>
      <trkpt lat="47.14774" lon="6.84199">
        <ele>739.208</ele>
        <time>2018-08-01T15:24:24Z</time>
      </trkpt>
      <trkpt lat="47.14781" lon="6.84201">
        <ele>739.784</ele>
        <time>2018-08-01T15:24:26Z</time>
      </trkpt>
      <trkpt lat="47.1479" lon="6.84201">
        <ele>740.279</ele>
        <time>2018-08-01T15:24:28Z</time>
      </trkpt>
      <trkpt lat="47.14799" lon="6.842">
        <ele>740.733</ele>
        <time>2018-08-01T15:24:30Z</time>
      </trkpt>
      <trkpt lat="47.14801" lon="6.8421">
        <ele>741.295</ele>
        <time>2018-08-01T15:24:32Z</time>
      </trkpt>
      <trkpt lat="47.14798" lon="6.84223">
        <ele>741.881</ele>
        <time>2018-08-01T15:24:34Z</time>
      </trkpt>
      <trkpt lat="47.14792" lon="6.84225">
        <ele>742.458</ele>
        <time>2018-08-01T15:24:36Z</time>
      </trkpt>
      <trkpt lat="47.14786" lon="6.84228">
        <ele>743.023</ele>
        <time>2018-08-01T15:24:38Z</time>
      </trkpt>
      <trkpt lat="47.1478" lon="6.84233">
        <ele>743.692</ele>
        <time>2018-08-01T15:24:40Z</time>
      </trkpt>
      <trkpt lat="47.14775" lon="6.84231">
        <ele>743.973</ele>
        <time>2018-08-01T15:24:41Z</time>
      </trkpt>
      <trkpt lat="47.14769" lon="6.84234">
        <ele>744.485</ele>
        <time>2018-08-01T15:24:43Z</time>
      </trkpt>
      <trkpt lat="47.14762" lon="6.84234">
        <ele>745.013</ele>
        <time>2018-08-01T15:24:45Z</time>
      </trkpt>
      <trkpt lat="47.14755" lon="6.8423">
        <ele>745.608</ele>
        <time>2018-08-01T15:24:47Z</time>
      </trkpt>
      <trkpt lat="47.14751" lon="6.84229">
        <ele>745.959</ele>
        <time>2018-08-01T15:24:49Z</time>
      </trkpt>
      <trkpt lat="47.14745" lon="6.84232">
        <ele>746.474</ele>
        <time>2018-08-01T15:24:51Z</time>
      </trkpt>
      <trkpt lat="47.14738" lon="6.84229">
        <ele>747.038</ele>
        <time>2018-08-01T15:24:53Z</time>
      </trkpt>
      <trkpt lat="47.1473" lon="6.84226">
        <ele>747.67</ele>
        <time>2018-08-01T15:24:55Z</time>
      </trkpt>
      <trkpt lat="47.14726" lon="6.84223">
        <ele>747.976</ele>
        <time>2018-08-01T15:24:56Z</time>
      </trkpt>
      <trkpt lat="47.14719" lon="6.84219">
        <ele>748.593</ele>
        <time>2018-08-01T15:24:58Z</time>
      </trkpt>
      <trkpt lat="47.14715" lon="6.84209">
        <ele>749.388</ele>
        <time>2018-08-01T15:25:00Z</time>
      </trkpt>
      <trkpt lat="47.14709" lon="6.84202">
        <ele>750.187</ele>
        <time>2018-08-01T15:25:02Z</time>
      </trkpt>
      <trkpt lat="47.14704" lon="6.84195">
        <ele>750.964</ele>
        <time>2018-08-01T15:25:04Z</time>
      </trkpt>
      <trkpt lat="47.14699" lon="6.84189">
        <ele>751.606</ele>
        <time>2018-08-01T15:25:06Z</time>
      </trkpt>
      <trkpt lat="47.14695" lon="6.84181">
        <ele>752.416</ele>
        <time>2018-08-01T15:25:08Z</time>
      </trkpt>
      <trkpt lat="47.14691" lon="6.84173">
        <ele>753.208</ele>
        <time>2018-08-01T15:25:10Z</time>
      </trkpt>
      <trkpt lat="47.14687" lon="6.84164">
        <ele>753.758</ele>
        <time>2018-08-01T15:25:12Z</time>
      </trkpt>
      <trkpt lat="47.14684" lon="6.84154">
        <ele>753.983</ele>
        <time>2018-08-01T15:25:14Z</time>
      </trkpt>
      <trkpt lat="47.14681" lon="6.84146">
        <ele>754.227</ele>
        <time>2018-08-01T15:25:16Z</time>
      </trkpt>
      <trkpt lat="47.14678" lon="6.84136">
        <ele>754.459</ele>
        <time>2018-08-01T15:25:18Z</time>
      </trkpt>
      <trkpt lat="47.14676" lon="6.84127">
        <ele>755.055</ele>
        <time>2018-08-01T15:25:20Z</time>
      </trkpt>
      <trkpt lat="47.14674" lon="6.84117">
        <ele>755.752</ele>
        <time>2018-08-01T15:25:22Z</time>
      </trkpt>
      <trkpt lat="47.14673" lon="6.84107">
        <ele>756.437</ele>
        <time>2018-08-01T15:25:24Z</time>
      </trkpt>
      <trkpt lat="47.14672" lon="6.84098">
        <ele>757.126</ele>
        <time>2018-08-01T15:25:26Z</time>
      </trkpt>
      <trkpt lat="47.14673" lon="6.84087">
        <ele>757.842</ele>
        <time>2018-08-01T15:25:28Z</time>
      </trkpt>
      <trkpt lat="47.14671" lon="6.84078">
        <ele>758.522</ele>
        <time>2018-08-01T15:25:30Z</time>
      </trkpt>
      <trkpt lat="47.14673" lon="6.84066">
        <ele>759.214</ele>
        <time>2018-08-01T15:25:32Z</time>
      </trkpt>
      <trkpt lat="47.14676" lon="6.84055">
        <ele>760.008</ele>
        <time>2018-08-01T15:25:34Z</time>
      </trkpt>
      <trkpt lat="47.14673" lon="6.84044">
        <ele>760.786</ele>
        <time>2018-08-01T15:25:36Z</time>
      </trkpt>
      <trkpt lat="47.14668" lon="6.84037">
        <ele>761.391</ele>
        <time>2018-08-01T15:25:38Z</time>
      </trkpt>
      <trkpt lat="47.14662" lon="6.84036">
        <ele>761.775</ele>
        <time>2018-08-01T15:25:40Z</time>
      </trkpt>
      <trkpt lat="47.14657" lon="6.84041">
        <ele>762.167</ele>
        <time>2018-08-01T15:25:42Z</time>
      </trkpt>
      <trkpt lat="47.14653" lon="6.84045">
        <ele>762.643</ele>
        <time>2018-08-01T15:25:44Z</time>
      </trkpt>
      <trkpt lat="47.14652" lon="6.84054">
        <ele>762.86</ele>
        <time>2018-08-01T15:25:46Z</time>
      </trkpt>
      <trkpt lat="47.1465" lon="6.84061">
        <ele>763.065</ele>
        <time>2018-08-01T15:25:47Z</time>
      </trkpt>
      <trkpt lat="47.14649" lon="6.84073">
        <ele>763.334</ele>
        <time>2018-08-01T15:25:49Z</time>
      </trkpt>
      <trkpt lat="47.14651" lon="6.84083">
        <ele>763.667</ele>
        <time>2018-08-01T15:25:51Z</time>
      </trkpt>
      <trkpt lat="47.14652" lon="6.84093">
        <ele>764.081</ele>
        <time>2018-08-01T15:25:53Z</time>
      </trkpt>
      <trkpt lat="47.14654" lon="6.84102">
        <ele>764.419</ele>
        <time>2018-08-01T15:25:55Z</time>
      </trkpt>
      <trkpt lat="47.14654" lon="6.84112">
        <ele>764.908</ele>
        <time>2018-08-01T15:25:57Z</time>
      </trkpt>
      <trkpt lat="47.14655" lon="6.84123">
        <ele>765.548</ele>
        <time>2018-08-01T15:25:59Z</time>
      </trkpt>
      <trkpt lat="47.14654" lon="6.84134">
        <ele>766.123</ele>
        <time>2018-08-01T15:26:01Z</time>
      </trkpt>
      <trkpt lat="47.14655" lon="6.84144">
        <ele>766.737</ele>
        <time>2018-08-01T15:26:03Z</time>
      </trkpt>
      <trkpt lat="47.14657" lon="6.84153">
        <ele>767.329</ele>
        <time>2018-08-01T15:26:05Z</time>
      </trkpt>
      <trkpt lat="47.14658" lon="6.84163">
        <ele>767.995</ele>
        <time>2018-08-01T15:26:07Z</time>
      </trkpt>
      <trkpt lat="47.14658" lon="6.84173">
        <ele>768.562</ele>
        <time>2018-08-01T15:26:09Z</time>
      </trkpt>
      <trkpt lat="47.14662" lon="6.84185">
        <ele>769.117</ele>
        <time>2018-08-01T15:26:11Z</time>
      </trkpt>
      <trkpt lat="47.14662" lon="6.84195">
        <ele>769.416</ele>
        <time>2018-08-01T15:26:12Z</time>
      </trkpt>
      <trkpt lat="47.14666" lon="6.84205">
        <ele>769.773</ele>
        <time>2018-08-01T15:26:14Z</time>
      </trkpt>
      <trkpt lat="47.14666" lon="6.84219">
        <ele>770.385</ele>
        <time>2018-08-01T15:26:16Z</time>
      </trkpt>
      <trkpt lat="47.14667" lon="6.84231">
        <ele>770.913</ele>
        <time>2018-08-01T15:26:18Z</time>
      </trkpt>
      <trkpt lat="47.14672" lon="6.84239">
        <ele>771.508</ele>
        <time>2018-08-01T15:26:20Z</time>
      </trkpt>
      <trkpt lat="47.14674" lon="6.84247">
        <ele>771.829</ele>
        <time>2018-08-01T15:26:21Z</time>
      </trkpt>
      <trkpt lat="47.1468" lon="6.84254">
        <ele>772.774</ele>
        <time>2018-08-01T15:26:24Z</time>
      </trkpt>
      <trkpt lat="47.14685" lon="6.84259">
        <ele>773.228</ele>
        <time>2018-08-01T15:26:26Z</time>
      </trkpt>
      <trkpt lat="47.1469" lon="6.84264">
        <ele>773.77</ele>
        <time>2018-08-01T15:26:28Z</time>
      </trkpt>
      <trkpt lat="47.14694" lon="6.84267">
        <ele>773.956</ele>
        <time>2018-08-01T15:26:29Z</time>
      </trkpt>
      <trkpt lat="47.14701" lon="6.84279">
        <ele>774.373</ele>
        <time>2018-08-01T15:26:31Z</time>
      </trkpt>
      <trkpt lat="47.14709" lon="6.84282">
        <ele>774.728</ele>
        <time>2018-08-01T15:26:33Z</time>
      </trkpt>
      <trkpt lat="47.14713" lon="6.84289">
        <ele>775.217</ele>
        <time>2018-08-01T15:26:35Z</time>
      </trkpt>
      <trkpt lat="47.14719" lon="6.84295">
        <ele>775.743</ele>
        <time>2018-08-01T15:26:37Z</time>
      </trkpt>
      <trkpt lat="47.14727" lon="6.84296">
        <ele>776.264</ele>
        <time>2018-08-01T15:26:39Z</time>
      </trkpt>
      <trkpt lat="47.14733" lon="6.843">
        <ele>776.51</ele>
        <time>2018-08-01T15:26:40Z</time>
      </trkpt>
      <trkpt lat="47.14737" lon="6.84304">
        <ele>776.508</ele>
        <time>2018-08-01T15:26:41Z</time>
      </trkpt>
      <trkpt lat="47.14744" lon="6.84306">
        <ele>777.156</ele>
        <time>2018-08-01T15:26:43Z</time>
      </trkpt>
      <trkpt lat="47.14751" lon="6.84313">
        <ele>777.771</ele>
        <time>2018-08-01T15:26:45Z</time>
      </trkpt>
      <trkpt lat="47.14758" lon="6.84315">
        <ele>778.415</ele>
        <time>2018-08-01T15:26:47Z</time>
      </trkpt>
      <trkpt lat="47.14765" lon="6.8432">
        <ele>779.047</ele>
        <time>2018-08-01T15:26:49Z</time>
      </trkpt>
      <trkpt lat="47.14772" lon="6.84323">
        <ele>779.553</ele>
        <time>2018-08-01T15:26:51Z</time>
      </trkpt>
      <trkpt lat="47.14779" lon="6.84327">
        <ele>779.93</ele>
        <time>2018-08-01T15:26:53Z</time>
      </trkpt>
      <trkpt lat="47.14784" lon="6.84333">
        <ele>780.465</ele>
        <time>2018-08-01T15:26:55Z</time>
      </trkpt>
      <trkpt lat="47.14791" lon="6.84335">
        <ele>781.084</ele>
        <time>2018-08-01T15:26:57Z</time>
      </trkpt>
      <trkpt lat="47.148" lon="6.84336">
        <ele>781.542</ele>
        <time>2018-08-01T15:26:59Z</time>
      </trkpt>
      <trkpt lat="47.14804" lon="6.84342">
        <ele>781.822</ele>
        <time>2018-08-01T15:27:00Z</time>
      </trkpt>
      <trkpt lat="47.14812" lon="6.84346">
        <ele>782.314</ele>
        <time>2018-08-01T15:27:02Z</time>
      </trkpt>
      <trkpt lat="47.14819" lon="6.84352">
        <ele>782.908</ele>
        <time>2018-08-01T15:27:04Z</time>
      </trkpt>
      <trkpt lat="47.14826" lon="6.84354">
        <ele>783.486</ele>
        <time>2018-08-01T15:27:06Z</time>
      </trkpt>
      <trkpt lat="47.14833" lon="6.84356">
        <ele>783.991</ele>
        <time>2018-08-01T15:27:08Z</time>
      </trkpt>
      <trkpt lat="47.14836" lon="6.84364">
        <ele>783.985</ele>
        <time>2018-08-01T15:27:09Z</time>
      </trkpt>
      <trkpt lat="47.14842" lon="6.84366">
        <ele>784.437</ele>
        <time>2018-08-01T15:27:11Z</time>
      </trkpt>
      <trkpt lat="47.14848" lon="6.84368">
        <ele>784.933</ele>
        <time>2018-08-01T15:27:13Z</time>
      </trkpt>
      <trkpt lat="47.14852" lon="6.84377">
        <ele>785.28</ele>
        <time>2018-08-01T15:27:14Z</time>
      </trkpt>
      <trkpt lat="47.1486" lon="6.84382">
        <ele>785.765</ele>
        <time>2018-08-01T15:27:16Z</time>
      </trkpt>
      <trkpt lat="47.14867" lon="6.84389">
        <ele>786.144</ele>
        <time>2018-08-01T15:27:18Z</time>
      </trkpt>
      <trkpt lat="47.14874" lon="6.84393">
        <ele>786.536</ele>
        <time>2018-08-01T15:27:20Z</time>
      </trkpt>
      <trkpt lat="47.14882" lon="6.84397">
        <ele>787.017</ele>
        <time>2018-08-01T15:27:22Z</time>
      </trkpt>
      <trkpt lat="47.1489" lon="6.84399">
        <ele>787.618</ele>
        <time>2018-08-01T15:27:24Z</time>
      </trkpt>
      <trkpt lat="47.14894" lon="6.84404">
        <ele>787.908</ele>
        <time>2018-08-01T15:27:25Z</time>
      </trkpt>
      <trkpt lat="47.14901" lon="6.84404">
        <ele>788.535</ele>
        <time>2018-08-01T15:27:27Z</time>
      </trkpt>
      <trkpt lat="47.14908" lon="6.844">
        <ele>789.02</ele>
        <time>2018-08-01T15:27:29Z</time>
      </trkpt>
      <trkpt lat="47.14914" lon="6.84401">
        <ele>789.224</ele>
        <time>2018-08-01T15:27:30Z</time>
      </trkpt>
      <trkpt lat="47.14919" lon="6.84401">
        <ele>789.436</ele>
        <time>2018-08-01T15:27:31Z</time>
      </trkpt>
      <trkpt lat="47.14924" lon="6.844">
        <ele>789.522</ele>
        <time>2018-08-01T15:27:32Z</time>
      </trkpt>
      <trkpt lat="47.14927" lon="6.84404">
        <ele>789.729</ele>
        <time>2018-08-01T15:27:33Z</time>
      </trkpt>
      <trkpt lat="47.14929" lon="6.84414">
        <ele>790.174</ele>
        <time>2018-08-01T15:27:35Z</time>
      </trkpt>
      <trkpt lat="47.14925" lon="6.84422">
        <ele>790.513</ele>
        <time>2018-08-01T15:27:37Z</time>
      </trkpt>
      <trkpt lat="47.14916" lon="6.8442">
        <ele>790.792</ele>
        <time>2018-08-01T15:27:39Z</time>
      </trkpt>
      <trkpt lat="47.14909" lon="6.84419">
        <ele>791.273</ele>
        <time>2018-08-01T15:27:41Z</time>
      </trkpt>
      <trkpt lat="47.14901" lon="6.84414">
        <ele>791.72</ele>
        <time>2018-08-01T15:27:43Z</time>
      </trkpt>
      <trkpt lat="47.14894" lon="6.84413">
        <ele>792.208</ele>
        <time>2018-08-01T15:27:45Z</time>
      </trkpt>
      <trkpt lat="47.14886" lon="6.84411">
        <ele>792.741</ele>
        <time>2018-08-01T15:27:47Z</time>
      </trkpt>
      <trkpt lat="47.1488" lon="6.84408">
        <ele>793.346</ele>
        <time>2018-08-01T15:27:49Z</time>
      </trkpt>
      <trkpt lat="47.14871" lon="6.84404">
        <ele>793.98</ele>
        <time>2018-08-01T15:27:51Z</time>
      </trkpt>
      <trkpt lat="47.14864" lon="6.84402">
        <ele>794.582</ele>
        <time>2018-08-01T15:27:53Z</time>
      </trkpt>
      <trkpt lat="47.14856" lon="6.84401">
        <ele>795.178</ele>
        <time>2018-08-01T15:27:55Z</time>
      </trkpt>
      <trkpt lat="47.14846" lon="6.84398">
        <ele>795.795</ele>
        <time>2018-08-01T15:27:57Z</time>
      </trkpt>
      <trkpt lat="47.14838" lon="6.84398">
        <ele>796.35</ele>
        <time>2018-08-01T15:27:59Z</time>
      </trkpt>
      <trkpt lat="47.14833" lon="6.84398">
        <ele>796.629</ele>
        <time>2018-08-01T15:28:00Z</time>
      </trkpt>
      <trkpt lat="47.14825" lon="6.84399">
        <ele>797.137</ele>
        <time>2018-08-01T15:28:02Z</time>
      </trkpt>
      <trkpt lat="47.14817" lon="6.84401">
        <ele>797.649</ele>
        <time>2018-08-01T15:28:04Z</time>
      </trkpt>
      <trkpt lat="47.1481" lon="6.84402">
        <ele>797.913</ele>
        <time>2018-08-01T15:28:06Z</time>
      </trkpt>
      <trkpt lat="47.14803" lon="6.84403">
        <ele>798.408</ele>
        <time>2018-08-01T15:28:08Z</time>
      </trkpt>
      <trkpt lat="47.14795" lon="6.84405">
        <ele>798.915</ele>
        <time>2018-08-01T15:28:10Z</time>
      </trkpt>
      <trkpt lat="47.14788" lon="6.84407">
        <ele>799.49</ele>
        <time>2018-08-01T15:28:12Z</time>
      </trkpt>
      <trkpt lat="47.1478" lon="6.84409">
        <ele>799.974</ele>
        <time>2018-08-01T15:28:14Z</time>
      </trkpt>
      <trkpt lat="47.14771" lon="6.8441">
        <ele>800.436</ele>
        <time>2018-08-01T15:28:16Z</time>
      </trkpt>
      <trkpt lat="47.14763" lon="6.84409">
        <ele>800.982</ele>
        <time>2018-08-01T15:28:18Z</time>
      </trkpt>
      <trkpt lat="47.14755" lon="6.84408">
        <ele>801.319</ele>
        <time>2018-08-01T15:28:20Z</time>
      </trkpt>
      <trkpt lat="47.14748" lon="6.8441">
        <ele>801.864</ele>
        <time>2018-08-01T15:28:22Z</time>
      </trkpt>
      <trkpt lat="47.14743" lon="6.84411">
        <ele>802.073</ele>
        <time>2018-08-01T15:28:23Z</time>
      </trkpt>
      <trkpt lat="47.14735" lon="6.84409">
        <ele>802.537</ele>
        <time>2018-08-01T15:28:25Z</time>
      </trkpt>
      <trkpt lat="47.14727" lon="6.84409">
        <ele>802.949</ele>
        <time>2018-08-01T15:28:27Z</time>
      </trkpt>
      <trkpt lat="47.14721" lon="6.84409">
        <ele>803.313</ele>
        <time>2018-08-01T15:28:29Z</time>
      </trkpt>
      <trkpt lat="47.14712" lon="6.84407">
        <ele>803.808</ele>
        <time>2018-08-01T15:28:31Z</time>
      </trkpt>
      <trkpt lat="47.14708" lon="6.84405">
        <ele>804.065</ele>
        <time>2018-08-01T15:28:32Z</time>
      </trkpt>
      <trkpt lat="47.14701" lon="6.84401">
        <ele>804.23</ele>
        <time>2018-08-01T15:28:34Z</time>
      </trkpt>
      <trkpt lat="47.14694" lon="6.84398">
        <ele>804.734</ele>
        <time>2018-08-01T15:28:36Z</time>
      </trkpt>
      <trkpt lat="47.14686" lon="6.84391">
        <ele>805.346</ele>
        <time>2018-08-01T15:28:38Z</time>
      </trkpt>
      <trkpt lat="47.14682" lon="6.84386">
        <ele>806.082</ele>
        <time>2018-08-01T15:28:40Z</time>
      </trkpt>
      <trkpt lat="47.14676" lon="6.84381">
        <ele>806.899</ele>
        <time>2018-08-01T15:28:42Z</time>
      </trkpt>
      <trkpt lat="47.14669" lon="6.84376">
        <ele>807.544</ele>
        <time>2018-08-01T15:28:44Z</time>
      </trkpt>
      <trkpt lat="47.14665" lon="6.84373">
        <ele>807.853</ele>
        <time>2018-08-01T15:28:45Z</time>
      </trkpt>
      <trkpt lat="47.14659" lon="6.84369">
        <ele>808.332</ele>
        <time>2018-08-01T15:28:47Z</time>
      </trkpt>
      <trkpt lat="47.14654" lon="6.84365">
        <ele>808.592</ele>
        <time>2018-08-01T15:28:48Z</time>
      </trkpt>
      <trkpt lat="47.14648" lon="6.8436">
        <ele>809.111</ele>
        <time>2018-08-01T15:28:50Z</time>
      </trkpt>
      <trkpt lat="47.14644" lon="6.84355">
        <ele>809.408</ele>
        <time>2018-08-01T15:28:51Z</time>
      </trkpt>
      <trkpt lat="47.14639" lon="6.84353">
        <ele>809.745</ele>
        <time>2018-08-01T15:28:52Z</time>
      </trkpt>
      <trkpt lat="47.14635" lon="6.8435">
        <ele>810.04</ele>
        <time>2018-08-01T15:28:53Z</time>
      </trkpt>
      <trkpt lat="47.14628" lon="6.84344">
        <ele>810.554</ele>
        <time>2018-08-01T15:28:55Z</time>
      </trkpt>
      <trkpt lat="47.14622" lon="6.84341">
        <ele>810.946</ele>
        <time>2018-08-01T15:28:57Z</time>
      </trkpt>
      <trkpt lat="47.14614" lon="6.84335">
        <ele>811.352</ele>
        <time>2018-08-01T15:28:59Z</time>
      </trkpt>
      <trkpt lat="47.14608" lon="6.84331">
        <ele>811.859</ele>
        <time>2018-08-01T15:29:01Z</time>
      </trkpt>
      <trkpt lat="47.14604" lon="6.84326">
        <ele>812.154</ele>
        <time>2018-08-01T15:29:02Z</time>
      </trkpt>
      <trkpt lat="47.146" lon="6.84321">
        <ele>812.153</ele>
        <time>2018-08-01T15:29:03Z</time>
      </trkpt>
      <trkpt lat="47.14596" lon="6.84315">
        <ele>812.589</ele>
        <time>2018-08-01T15:29:04Z</time>
      </trkpt>
      <trkpt lat="47.14591" lon="6.84311">
        <ele>812.806</ele>
        <time>2018-08-01T15:29:05Z</time>
      </trkpt>
      <trkpt lat="47.14584" lon="6.84304">
        <ele>813.326</ele>
        <time>2018-08-01T15:29:07Z</time>
      </trkpt>
      <trkpt lat="47.14577" lon="6.84297">
        <ele>813.808</ele>
        <time>2018-08-01T15:29:09Z</time>
      </trkpt>
      <trkpt lat="47.14573" lon="6.84293">
        <ele>814.03</ele>
        <time>2018-08-01T15:29:10Z</time>
      </trkpt>
      <trkpt lat="47.14569" lon="6.8429">
        <ele>814.245</ele>
        <time>2018-08-01T15:29:11Z</time>
      </trkpt>
      <trkpt lat="47.14562" lon="6.84282">
        <ele>814.759</ele>
        <time>2018-08-01T15:29:13Z</time>
      </trkpt>
      <trkpt lat="47.14556" lon="6.84275">
        <ele>815.141</ele>
        <time>2018-08-01T15:29:15Z</time>
      </trkpt>
      <trkpt lat="47.1455" lon="6.84267">
        <ele>815.667</ele>
        <time>2018-08-01T15:29:17Z</time>
      </trkpt>
      <trkpt lat="47.14545" lon="6.84257">
        <ele>816.274</ele>
        <time>2018-08-01T15:29:19Z</time>
      </trkpt>
      <trkpt lat="47.1454" lon="6.84248">
        <ele>816.729</ele>
        <time>2018-08-01T15:29:21Z</time>
      </trkpt>
      <trkpt lat="47.14537" lon="6.84239">
        <ele>817.148</ele>
        <time>2018-08-01T15:29:23Z</time>
      </trkpt>
      <trkpt lat="47.14538" lon="6.84227">
        <ele>817.646</ele>
        <time>2018-08-01T15:29:25Z</time>
      </trkpt>
      <trkpt lat="47.14536" lon="6.84216">
        <ele>818.188</ele>
        <time>2018-08-01T15:29:27Z</time>
      </trkpt>
      <trkpt lat="47.14535" lon="6.84203">
        <ele>818.616</ele>
        <time>2018-08-01T15:29:29Z</time>
      </trkpt>
      <trkpt lat="47.14533" lon="6.84192">
        <ele>818.908</ele>
        <time>2018-08-01T15:29:31Z</time>
      </trkpt>
      <trkpt lat="47.14532" lon="6.84182">
        <ele>819.596</ele>
        <time>2018-08-01T15:29:33Z</time>
      </trkpt>
      <trkpt lat="47.14532" lon="6.84175">
        <ele>819.861</ele>
        <time>2018-08-01T15:29:34Z</time>
      </trkpt>
      <trkpt lat="47.14534" lon="6.84161">
        <ele>820.625</ele>
        <time>2018-08-01T15:29:36Z</time>
      </trkpt>
      <trkpt lat="47.14533" lon="6.84149">
        <ele>821.257</ele>
        <time>2018-08-01T15:29:38Z</time>
      </trkpt>
      <trkpt lat="47.14531" lon="6.84137">
        <ele>821.673</ele>
        <time>2018-08-01T15:29:40Z</time>
      </trkpt>
      <trkpt lat="47.14532" lon="6.84125">
        <ele>822.05</ele>
        <time>2018-08-01T15:29:42Z</time>
      </trkpt>
      <trkpt lat="47.1453" lon="6.84114">
        <ele>822.555</ele>
        <time>2018-08-01T15:29:44Z</time>
      </trkpt>
      <trkpt lat="47.14526" lon="6.84104">
        <ele>823.144</ele>
        <time>2018-08-01T15:29:46Z</time>
      </trkpt>
      <trkpt lat="47.14522" lon="6.84099">
        <ele>823.495</ele>
        <time>2018-08-01T15:29:47Z</time>
      </trkpt>
      <trkpt lat="47.14518" lon="6.84088">
        <ele>824.049</ele>
        <time>2018-08-01T15:29:49Z</time>
      </trkpt>
      <trkpt lat="47.14515" lon="6.84077">
        <ele>824.623</ele>
        <time>2018-08-01T15:29:51Z</time>
      </trkpt>
      <trkpt lat="47.14512" lon="6.84067">
        <ele>825.108</ele>
        <time>2018-08-01T15:29:53Z</time>
      </trkpt>
      <trkpt lat="47.1451" lon="6.8406">
        <ele>825.381</ele>
        <time>2018-08-01T15:29:54Z</time>
      </trkpt>
      <trkpt lat="47.14507" lon="6.84054">
        <ele>825.556</ele>
        <time>2018-08-01T15:29:55Z</time>
      </trkpt>
      <trkpt lat="47.14505" lon="6.84045">
        <ele>826.03</ele>
        <time>2018-08-01T15:29:57Z</time>
      </trkpt>
      <trkpt lat="47.14499" lon="6.84036">
        <ele>826.272</ele>
        <time>2018-08-01T15:29:59Z</time>
      </trkpt>
      <trkpt lat="47.14494" lon="6.84027">
        <ele>826.768</ele>
        <time>2018-08-01T15:30:01Z</time>
      </trkpt>
      <trkpt lat="47.14491" lon="6.84017">
        <ele>827.335</ele>
        <time>2018-08-01T15:30:03Z</time>
      </trkpt>
      <trkpt lat="47.14488" lon="6.8401">
        <ele>827.63</ele>
        <time>2018-08-01T15:30:04Z</time>
      </trkpt>
      <trkpt lat="47.14485" lon="6.84005">
        <ele>827.989</ele>
        <time>2018-08-01T15:30:05Z</time>
      </trkpt>
      <trkpt lat="47.14481" lon="6.83997">
        <ele>828.554</ele>
        <time>2018-08-01T15:30:07Z</time>
      </trkpt>
      <trkpt lat="47.14477" lon="6.8399">
        <ele>829.156</ele>
        <time>2018-08-01T15:30:09Z</time>
      </trkpt>
      <trkpt lat="47.14479" lon="6.83982">
        <ele>829.411</ele>
        <time>2018-08-01T15:30:10Z</time>
      </trkpt>
      <trkpt lat="47.14473" lon="6.83976">
        <ele>830.008</ele>
        <time>2018-08-01T15:30:12Z</time>
      </trkpt>
      <trkpt lat="47.14466" lon="6.83971">
        <ele>830.567</ele>
        <time>2018-08-01T15:30:14Z</time>
      </trkpt>
      <trkpt lat="47.14459" lon="6.83965">
        <ele>831.032</ele>
        <time>2018-08-01T15:30:16Z</time>
      </trkpt>
      <trkpt lat="47.14455" lon="6.83961">
        <ele>831.456</ele>
        <time>2018-08-01T15:30:18Z</time>
      </trkpt>
      <trkpt lat="47.14448" lon="6.83952">
        <ele>831.628</ele>
        <time>2018-08-01T15:30:19Z</time>
      </trkpt>
      <trkpt lat="47.14443" lon="6.83947">
        <ele>831.854</ele>
        <time>2018-08-01T15:30:20Z</time>
      </trkpt>
      <trkpt lat="47.14439" lon="6.83942">
        <ele>832.011</ele>
        <time>2018-08-01T15:30:21Z</time>
      </trkpt>
      <trkpt lat="47.14435" lon="6.83939">
        <ele>832.246</ele>
        <time>2018-08-01T15:30:22Z</time>
      </trkpt>
      <trkpt lat="47.14429" lon="6.83931">
        <ele>832.735</ele>
        <time>2018-08-01T15:30:24Z</time>
      </trkpt>
      <trkpt lat="47.14424" lon="6.83918">
        <ele>833.286</ele>
        <time>2018-08-01T15:30:26Z</time>
      </trkpt>
      <trkpt lat="47.14419" lon="6.83911">
        <ele>833.56</ele>
        <time>2018-08-01T15:30:28Z</time>
      </trkpt>
      <trkpt lat="47.14414" lon="6.839">
        <ele>834.126</ele>
        <time>2018-08-01T15:30:30Z</time>
      </trkpt>
      <trkpt lat="47.14412" lon="6.83891">
        <ele>834.408</ele>
        <time>2018-08-01T15:30:31Z</time>
      </trkpt>
      <trkpt lat="47.14405" lon="6.83884">
        <ele>835.05</ele>
        <time>2018-08-01T15:30:33Z</time>
      </trkpt>
      <trkpt lat="47.14399" lon="6.83876">
        <ele>835.535</ele>
        <time>2018-08-01T15:30:35Z</time>
      </trkpt>
      <trkpt lat="47.14394" lon="6.83869">
        <ele>836.069</ele>
        <time>2018-08-01T15:30:37Z</time>
      </trkpt>
      <trkpt lat="47.14391" lon="6.83857">
        <ele>836.531</ele>
        <time>2018-08-01T15:30:39Z</time>
      </trkpt>
      <trkpt lat="47.14389" lon="6.83841">
        <ele>837.047</ele>
        <time>2018-08-01T15:30:41Z</time>
      </trkpt>
      <trkpt lat="47.14386" lon="6.8383">
        <ele>837.664</ele>
        <time>2018-08-01T15:30:43Z</time>
      </trkpt>
      <trkpt lat="47.14389" lon="6.83822">
        <ele>837.979</ele>
        <time>2018-08-01T15:30:44Z</time>
      </trkpt>
      <trkpt lat="47.14386" lon="6.83811">
        <ele>838.628</ele>
        <time>2018-08-01T15:30:46Z</time>
      </trkpt>
      <trkpt lat="47.14388" lon="6.83796">
        <ele>839.239</ele>
        <time>2018-08-01T15:30:48Z</time>
      </trkpt>
      <trkpt lat="47.14387" lon="6.83789">
        <ele>839.501</ele>
        <time>2018-08-01T15:30:49Z</time>
      </trkpt>
      <trkpt lat="47.14387" lon="6.83778">
        <ele>840.121</ele>
        <time>2018-08-01T15:30:51Z</time>
      </trkpt>
      <trkpt lat="47.14391" lon="6.83765">
        <ele>840.608</ele>
        <time>2018-08-01T15:30:53Z</time>
      </trkpt>
      <trkpt lat="47.14393" lon="6.83759">
        <ele>840.675</ele>
        <time>2018-08-01T15:30:54Z</time>
      </trkpt>
      <trkpt lat="47.14393" lon="6.83747">
        <ele>841.12</ele>
        <time>2018-08-01T15:30:56Z</time>
      </trkpt>
      <trkpt lat="47.14396" lon="6.83739">
        <ele>841.324</ele>
        <time>2018-08-01T15:30:57Z</time>
      </trkpt>
      <trkpt lat="47.14399" lon="6.83733">
        <ele>841.546</ele>
        <time>2018-08-01T15:30:58Z</time>
      </trkpt>
      <trkpt lat="47.14401" lon="6.83723">
        <ele>841.792</ele>
        <time>2018-08-01T15:31:00Z</time>
      </trkpt>
      <trkpt lat="47.14405" lon="6.83714">
        <ele>842.129</ele>
        <time>2018-08-01T15:31:02Z</time>
      </trkpt>
      <trkpt lat="47.14409" lon="6.83704">
        <ele>842.534</ele>
        <time>2018-08-01T15:31:04Z</time>
      </trkpt>
      <trkpt lat="47.14414" lon="6.83695">
        <ele>842.973</ele>
        <time>2018-08-01T15:31:06Z</time>
      </trkpt>
      <trkpt lat="47.1442" lon="6.83687">
        <ele>843.484</ele>
        <time>2018-08-01T15:31:08Z</time>
      </trkpt>
      <trkpt lat="47.14424" lon="6.83683">
        <ele>843.707</ele>
        <time>2018-08-01T15:31:09Z</time>
      </trkpt>
      <trkpt lat="47.14427" lon="6.83671">
        <ele>844.317</ele>
        <time>2018-08-01T15:31:11Z</time>
      </trkpt>
      <trkpt lat="47.14433" lon="6.83661">
        <ele>845.008</ele>
        <time>2018-08-01T15:31:13Z</time>
      </trkpt>
      <trkpt lat="47.14436" lon="6.83651">
        <ele>845.64</ele>
        <time>2018-08-01T15:31:15Z</time>
      </trkpt>
      <trkpt lat="47.14438" lon="6.83641">
        <ele>846.225</ele>
        <time>2018-08-01T15:31:17Z</time>
      </trkpt>
      <trkpt lat="47.14442" lon="6.83629">
        <ele>847.029</ele>
        <time>2018-08-01T15:31:19Z</time>
      </trkpt>
      <trkpt lat="47.14442" lon="6.83619">
        <ele>847.871</ele>
        <time>2018-08-01T15:31:21Z</time>
      </trkpt>
      <trkpt lat="47.14443" lon="6.83607">
        <ele>848.267</ele>
        <time>2018-08-01T15:31:23Z</time>
      </trkpt>
      <trkpt lat="47.14443" lon="6.83595">
        <ele>849.064</ele>
        <time>2018-08-01T15:31:25Z</time>
      </trkpt>
      <trkpt lat="47.14442" lon="6.83584">
        <ele>849.889</ele>
        <time>2018-08-01T15:31:27Z</time>
      </trkpt>
      <trkpt lat="47.14439" lon="6.83573">
        <ele>850.698</ele>
        <time>2018-08-01T15:31:29Z</time>
      </trkpt>
      <trkpt lat="47.14437" lon="6.83562">
        <ele>851.374</ele>
        <time>2018-08-01T15:31:31Z</time>
      </trkpt>
      <trkpt lat="47.14433" lon="6.83551">
        <ele>851.956</ele>
        <time>2018-08-01T15:31:33Z</time>
      </trkpt>
      <trkpt lat="47.14429" lon="6.83541">
        <ele>852.521</ele>
        <time>2018-08-01T15:31:35Z</time>
      </trkpt>
      <trkpt lat="47.14425" lon="6.8353">
        <ele>853.008</ele>
        <time>2018-08-01T15:31:37Z</time>
      </trkpt>
      <trkpt lat="47.14422" lon="6.83524">
        <ele>853.379</ele>
        <time>2018-08-01T15:31:38Z</time>
      </trkpt>
      <trkpt lat="47.14417" lon="6.83515">
        <ele>853.954</ele>
        <time>2018-08-01T15:31:40Z</time>
      </trkpt>
      <trkpt lat="47.14411" lon="6.83508">
        <ele>854.588</ele>
        <time>2018-08-01T15:31:42Z</time>
      </trkpt>
      <trkpt lat="47.14408" lon="6.83495">
        <ele>855.06</ele>
        <time>2018-08-01T15:31:44Z</time>
      </trkpt>
      <trkpt lat="47.14404" lon="6.8349">
        <ele>855.266</ele>
        <time>2018-08-01T15:31:45Z</time>
      </trkpt>
      <trkpt lat="47.14398" lon="6.83483">
        <ele>855.763</ele>
        <time>2018-08-01T15:31:47Z</time>
      </trkpt>
      <trkpt lat="47.14393" lon="6.83475">
        <ele>856.368</ele>
        <time>2018-08-01T15:31:49Z</time>
      </trkpt>
      <trkpt lat="47.14386" lon="6.83469">
        <ele>856.687</ele>
        <time>2018-08-01T15:31:51Z</time>
      </trkpt>
      <trkpt lat="47.14382" lon="6.83466">
        <ele>856.889</ele>
        <time>2018-08-01T15:31:52Z</time>
      </trkpt>
      <trkpt lat="47.14376" lon="6.83461">
        <ele>857.306</ele>
        <time>2018-08-01T15:31:54Z</time>
      </trkpt>
      <trkpt lat="47.1437" lon="6.83451">
        <ele>857.826</ele>
        <time>2018-08-01T15:31:56Z</time>
      </trkpt>
      <trkpt lat="47.14366" lon="6.83448">
        <ele>858.008</ele>
        <time>2018-08-01T15:31:57Z</time>
      </trkpt>
      <trkpt lat="47.1436" lon="6.8344">
        <ele>858.58</ele>
        <time>2018-08-01T15:31:59Z</time>
      </trkpt>
      <trkpt lat="47.14354" lon="6.83434">
        <ele>859.115</ele>
        <time>2018-08-01T15:32:01Z</time>
      </trkpt>
      <trkpt lat="47.14351" lon="6.83429">
        <ele>859.429</ele>
        <time>2018-08-01T15:32:02Z</time>
      </trkpt>
      <trkpt lat="47.14343" lon="6.83423">
        <ele>860.041</ele>
        <time>2018-08-01T15:32:04Z</time>
      </trkpt>
      <trkpt lat="47.1434" lon="6.83416">
        <ele>860.367</ele>
        <time>2018-08-01T15:32:05Z</time>
      </trkpt>
      <trkpt lat="47.14332" lon="6.83411">
        <ele>860.854</ele>
        <time>2018-08-01T15:32:07Z</time>
      </trkpt>
      <trkpt lat="47.14326" lon="6.83405">
        <ele>861.469</ele>
        <time>2018-08-01T15:32:09Z</time>
      </trkpt>
      <trkpt lat="47.14323" lon="6.83397">
        <ele>862.168</ele>
        <time>2018-08-01T15:32:11Z</time>
      </trkpt>
      <trkpt lat="47.14318" lon="6.83392">
        <ele>862.418</ele>
        <time>2018-08-01T15:32:12Z</time>
      </trkpt>
      <trkpt lat="47.14311" lon="6.83385">
        <ele>862.998</ele>
        <time>2018-08-01T15:32:14Z</time>
      </trkpt>
      <trkpt lat="47.14305" lon="6.83375">
        <ele>863.317</ele>
        <time>2018-08-01T15:32:16Z</time>
      </trkpt>
      <trkpt lat="47.143" lon="6.83371">
        <ele>863.508</ele>
        <time>2018-08-01T15:32:17Z</time>
      </trkpt>
      <trkpt lat="47.14294" lon="6.83362">
        <ele>864.173</ele>
        <time>2018-08-01T15:32:19Z</time>
      </trkpt>
      <trkpt lat="47.14292" lon="6.83357">
        <ele>864.168</ele>
        <time>2018-08-01T15:32:20Z</time>
      </trkpt>
      <trkpt lat="47.1429" lon="6.83351">
        <ele>864.412</ele>
        <time>2018-08-01T15:32:21Z</time>
      </trkpt>
      <trkpt lat="47.14283" lon="6.8334">
        <ele>865.154</ele>
        <time>2018-08-01T15:32:23Z</time>
      </trkpt>
      <trkpt lat="47.14278" lon="6.83329">
        <ele>865.64</ele>
        <time>2018-08-01T15:32:25Z</time>
      </trkpt>
      <trkpt lat="47.14275" lon="6.8332">
        <ele>866.187</ele>
        <time>2018-08-01T15:32:27Z</time>
      </trkpt>
      <trkpt lat="47.14272" lon="6.83309">
        <ele>866.612</ele>
        <time>2018-08-01T15:32:29Z</time>
      </trkpt>
      <trkpt lat="47.14271" lon="6.83303">
        <ele>866.941</ele>
        <time>2018-08-01T15:32:30Z</time>
      </trkpt>
      <trkpt lat="47.14271" lon="6.83296">
        <ele>867.258</ele>
        <time>2018-08-01T15:32:31Z</time>
      </trkpt>
      <trkpt lat="47.14271" lon="6.83289">
        <ele>867.552</ele>
        <time>2018-08-01T15:32:32Z</time>
      </trkpt>
      <trkpt lat="47.14271" lon="6.83277">
        <ele>868.017</ele>
        <time>2018-08-01T15:32:34Z</time>
      </trkpt>
      <trkpt lat="47.14275" lon="6.83268">
        <ele>868.308</ele>
        <time>2018-08-01T15:32:35Z</time>
      </trkpt>
      <trkpt lat="47.14275" lon="6.83257">
        <ele>868.837</ele>
        <time>2018-08-01T15:32:37Z</time>
      </trkpt>
      <trkpt lat="47.14273" lon="6.83243">
        <ele>869.442</ele>
        <time>2018-08-01T15:32:39Z</time>
      </trkpt>
      <trkpt lat="47.14273" lon="6.83229">
        <ele>869.936</ele>
        <time>2018-08-01T15:32:41Z</time>
      </trkpt>
      <trkpt lat="47.14272" lon="6.83222">
        <ele>870.248</ele>
        <time>2018-08-01T15:32:42Z</time>
      </trkpt>
      <trkpt lat="47.1427" lon="6.83211">
        <ele>870.714</ele>
        <time>2018-08-01T15:32:44Z</time>
      </trkpt>
      <trkpt lat="47.14271" lon="6.832">
        <ele>871.221</ele>
        <time>2018-08-01T15:32:46Z</time>
      </trkpt>
      <trkpt lat="47.14268" lon="6.83188">
        <ele>871.576</ele>
        <time>2018-08-01T15:32:48Z</time>
      </trkpt>
      <trkpt lat="47.14268" lon="6.83181">
        <ele>871.855</ele>
        <time>2018-08-01T15:32:49Z</time>
      </trkpt>
      <trkpt lat="47.14268" lon="6.83174">
        <ele>872.175</ele>
        <time>2018-08-01T15:32:50Z</time>
      </trkpt>
      <trkpt lat="47.14267" lon="6.83162">
        <ele>872.828</ele>
        <time>2018-08-01T15:32:52Z</time>
      </trkpt>
      <trkpt lat="47.14264" lon="6.83151">
        <ele>873.42</ele>
        <time>2018-08-01T15:32:54Z</time>
      </trkpt>
      <trkpt lat="47.14264" lon="6.83144">
        <ele>873.808</ele>
        <time>2018-08-01T15:32:55Z</time>
      </trkpt>
      <trkpt lat="47.14262" lon="6.83138">
        <ele>874.219</ele>
        <time>2018-08-01T15:32:56Z</time>
      </trkpt>
      <trkpt lat="47.14256" lon="6.83127">
        <ele>874.864</ele>
        <time>2018-08-01T15:32:58Z</time>
      </trkpt>
      <trkpt lat="47.14253" lon="6.83123">
        <ele>875.158</ele>
        <time>2018-08-01T15:32:59Z</time>
      </trkpt>
      <trkpt lat="47.14248" lon="6.8312">
        <ele>875.37</ele>
        <time>2018-08-01T15:33:00Z</time>
      </trkpt>
      <trkpt lat="47.14242" lon="6.83113">
        <ele>875.936</ele>
        <time>2018-08-01T15:33:02Z</time>
      </trkpt>
      <trkpt lat="47.14235" lon="6.83107">
        <ele>876.533</ele>
        <time>2018-08-01T15:33:04Z</time>
      </trkpt>
      <trkpt lat="47.14227" lon="6.83102">
        <ele>877.038</ele>
        <time>2018-08-01T15:33:06Z</time>
      </trkpt>
      <trkpt lat="47.1422" lon="6.83095">
        <ele>877.457</ele>
        <time>2018-08-01T15:33:08Z</time>
      </trkpt>
      <trkpt lat="47.14217" lon="6.83091">
        <ele>877.773</ele>
        <time>2018-08-01T15:33:09Z</time>
      </trkpt>
      <trkpt lat="47.14213" lon="6.83087">
        <ele>877.985</ele>
        <time>2018-08-01T15:33:10Z</time>
      </trkpt>
      <trkpt lat="47.14206" lon="6.83082">
        <ele>878.513</ele>
        <time>2018-08-01T15:33:12Z</time>
      </trkpt>
      <trkpt lat="47.142" lon="6.83077">
        <ele>879.108</ele>
        <time>2018-08-01T15:33:14Z</time>
      </trkpt>
      <trkpt lat="47.14194" lon="6.83073">
        <ele>879.779</ele>
        <time>2018-08-01T15:33:16Z</time>
      </trkpt>
      <trkpt lat="47.14186" lon="6.83068">
        <ele>880.054</ele>
        <time>2018-08-01T15:33:18Z</time>
      </trkpt>
      <trkpt lat="47.14181" lon="6.83063">
        <ele>880.358</ele>
        <time>2018-08-01T15:33:19Z</time>
      </trkpt>
      <trkpt lat="47.14175" lon="6.83057">
        <ele>881.02</ele>
        <time>2018-08-01T15:33:21Z</time>
      </trkpt>
      <trkpt lat="47.14167" lon="6.83053">
        <ele>881.656</ele>
        <time>2018-08-01T15:33:23Z</time>
      </trkpt>
      <trkpt lat="47.1416" lon="6.83049">
        <ele>882.243</ele>
        <time>2018-08-01T15:33:25Z</time>
      </trkpt>
      <trkpt lat="47.14153" lon="6.83046">
        <ele>882.958</ele>
        <time>2018-08-01T15:33:27Z</time>
      </trkpt>
      <trkpt lat="47.14147" lon="6.83042">
        <ele>883.667</ele>
        <time>2018-08-01T15:33:29Z</time>
      </trkpt>
      <trkpt lat="47.14139" lon="6.83036">
        <ele>884.234</ele>
        <time>2018-08-01T15:33:31Z</time>
      </trkpt>
      <trkpt lat="47.14131" lon="6.83035">
        <ele>884.755</ele>
        <time>2018-08-01T15:33:33Z</time>
      </trkpt>
      <trkpt lat="47.14127" lon="6.83029">
        <ele>885.01</ele>
        <time>2018-08-01T15:33:34Z</time>
      </trkpt>
      <trkpt lat="47.14118" lon="6.83028">
        <ele>885.508</ele>
        <time>2018-08-01T15:33:36Z</time>
      </trkpt>
      <trkpt lat="47.14112" lon="6.83026">
        <ele>886.245</ele>
        <time>2018-08-01T15:33:38Z</time>
      </trkpt>
      <trkpt lat="47.14104" lon="6.83025">
        <ele>886.98</ele>
        <time>2018-08-01T15:33:40Z</time>
      </trkpt>
      <trkpt lat="47.14096" lon="6.83023">
        <ele>887.664</ele>
        <time>2018-08-01T15:33:42Z</time>
      </trkpt>
      <trkpt lat="47.14092" lon="6.83023">
        <ele>887.936</ele>
        <time>2018-08-01T15:33:43Z</time>
      </trkpt>
      <trkpt lat="47.14084" lon="6.83023">
        <ele>888.282</ele>
        <time>2018-08-01T15:33:45Z</time>
      </trkpt>
      <trkpt lat="47.14076" lon="6.83023">
        <ele>888.759</ele>
        <time>2018-08-01T15:33:47Z</time>
      </trkpt>
      <trkpt lat="47.1407" lon="6.83026">
        <ele>889.184</ele>
        <time>2018-08-01T15:33:49Z</time>
      </trkpt>
      <trkpt lat="47.14064" lon="6.83022">
        <ele>889.323</ele>
        <time>2018-08-01T15:33:50Z</time>
      </trkpt>
      <trkpt lat="47.14056" lon="6.83025">
        <ele>889.833</ele>
        <time>2018-08-01T15:33:52Z</time>
      </trkpt>
      <trkpt lat="47.14048" lon="6.83029">
        <ele>890.523</ele>
        <time>2018-08-01T15:33:54Z</time>
      </trkpt>
      <trkpt lat="47.14041" lon="6.83033">
        <ele>891.015</ele>
        <time>2018-08-01T15:33:56Z</time>
      </trkpt>
      <trkpt lat="47.14033" lon="6.83036">
        <ele>891.508</ele>
        <time>2018-08-01T15:33:58Z</time>
      </trkpt>
      <trkpt lat="47.14025" lon="6.83039">
        <ele>891.935</ele>
        <time>2018-08-01T15:34:00Z</time>
      </trkpt>
      <trkpt lat="47.14019" lon="6.83039">
        <ele>892.36</ele>
        <time>2018-08-01T15:34:02Z</time>
      </trkpt>
      <trkpt lat="47.14012" lon="6.83042">
        <ele>892.784</ele>
        <time>2018-08-01T15:34:04Z</time>
      </trkpt>
      <trkpt lat="47.14006" lon="6.83039">
        <ele>892.936</ele>
        <time>2018-08-01T15:34:05Z</time>
      </trkpt>
      <trkpt lat="47.13997" lon="6.83041">
        <ele>893.642</ele>
        <time>2018-08-01T15:34:07Z</time>
      </trkpt>
      <trkpt lat="47.13992" lon="6.83041">
        <ele>893.969</ele>
        <time>2018-08-01T15:34:08Z</time>
      </trkpt>
      <trkpt lat="47.13988" lon="6.83039">
        <ele>894.234</ele>
        <time>2018-08-01T15:34:09Z</time>
      </trkpt>
      <trkpt lat="47.13983" lon="6.83037">
        <ele>894.523</ele>
        <time>2018-08-01T15:34:10Z</time>
      </trkpt>
      <trkpt lat="47.13975" lon="6.83034">
        <ele>894.713</ele>
        <time>2018-08-01T15:34:12Z</time>
      </trkpt>
      <trkpt lat="47.13967" lon="6.83034">
        <ele>895.143</ele>
        <time>2018-08-01T15:34:14Z</time>
      </trkpt>
      <trkpt lat="47.13959" lon="6.83033">
        <ele>895.707</ele>
        <time>2018-08-01T15:34:16Z</time>
      </trkpt>
      <trkpt lat="47.13951" lon="6.83031">
        <ele>896.408</ele>
        <time>2018-08-01T15:34:18Z</time>
      </trkpt>
      <trkpt lat="47.13943" lon="6.83029">
        <ele>897.163</ele>
        <time>2018-08-01T15:34:20Z</time>
      </trkpt>
      <trkpt lat="47.13938" lon="6.83023">
        <ele>897.438</ele>
        <time>2018-08-01T15:34:21Z</time>
      </trkpt>
      <trkpt lat="47.13932" lon="6.83023">
        <ele>897.742</ele>
        <time>2018-08-01T15:34:22Z</time>
      </trkpt>
      <trkpt lat="47.13928" lon="6.83022">
        <ele>897.934</ele>
        <time>2018-08-01T15:34:23Z</time>
      </trkpt>
      <trkpt lat="47.13921" lon="6.83019">
        <ele>898.45</ele>
        <time>2018-08-01T15:34:25Z</time>
      </trkpt>
      <trkpt lat="47.13913" lon="6.83015">
        <ele>899.037</ele>
        <time>2018-08-01T15:34:27Z</time>
      </trkpt>
      <trkpt lat="47.13905" lon="6.83012">
        <ele>899.542</ele>
        <time>2018-08-01T15:34:29Z</time>
      </trkpt>
      <trkpt lat="47.13898" lon="6.83006">
        <ele>900.141</ele>
        <time>2018-08-01T15:34:31Z</time>
      </trkpt>
      <trkpt lat="47.13892" lon="6.83002">
        <ele>900.667</ele>
        <time>2018-08-01T15:34:33Z</time>
      </trkpt>
      <trkpt lat="47.13884" lon="6.82996">
        <ele>901.081</ele>
        <time>2018-08-01T15:34:35Z</time>
      </trkpt>
      <trkpt lat="47.13876" lon="6.82995">
        <ele>901.419</ele>
        <time>2018-08-01T15:34:37Z</time>
      </trkpt>
      <trkpt lat="47.13868" lon="6.82992">
        <ele>901.908</ele>
        <time>2018-08-01T15:34:39Z</time>
      </trkpt>
      <trkpt lat="47.13858" lon="6.82986">
        <ele>902.278</ele>
        <time>2018-08-01T15:34:41Z</time>
      </trkpt>
      <trkpt lat="47.1385" lon="6.82985">
        <ele>902.653</ele>
        <time>2018-08-01T15:34:43Z</time>
      </trkpt>
      <trkpt lat="47.13843" lon="6.82984">
        <ele>903.087</ele>
        <time>2018-08-01T15:34:45Z</time>
      </trkpt>
      <trkpt lat="47.13839" lon="6.82981">
        <ele>903.299</ele>
        <time>2018-08-01T15:34:46Z</time>
      </trkpt>
      <trkpt lat="47.13831" lon="6.82979">
        <ele>903.845</ele>
        <time>2018-08-01T15:34:48Z</time>
      </trkpt>
      <trkpt lat="47.13826" lon="6.82975">
        <ele>904.182</ele>
        <time>2018-08-01T15:34:49Z</time>
      </trkpt>
      <trkpt lat="47.13819" lon="6.82972">
        <ele>904.737</ele>
        <time>2018-08-01T15:34:51Z</time>
      </trkpt>
      <trkpt lat="47.13811" lon="6.82969">
        <ele>905.376</ele>
        <time>2018-08-01T15:34:53Z</time>
      </trkpt>
      <trkpt lat="47.13803" lon="6.82966">
        <ele>905.972</ele>
        <time>2018-08-01T15:34:55Z</time>
      </trkpt>
      <trkpt lat="47.13795" lon="6.82963">
        <ele>906.513</ele>
        <time>2018-08-01T15:34:57Z</time>
      </trkpt>
      <trkpt lat="47.13787" lon="6.8296">
        <ele>907.014</ele>
        <time>2018-08-01T15:34:59Z</time>
      </trkpt>
      <trkpt lat="47.13783" lon="6.82956">
        <ele>907.208</ele>
        <time>2018-08-01T15:35:00Z</time>
      </trkpt>
      <trkpt lat="47.13775" lon="6.82953">
        <ele>907.619</ele>
        <time>2018-08-01T15:35:02Z</time>
      </trkpt>
      <trkpt lat="47.13768" lon="6.8295">
        <ele>908.064</ele>
        <time>2018-08-01T15:35:04Z</time>
      </trkpt>
      <trkpt lat="47.1376" lon="6.82943">
        <ele>908.638</ele>
        <time>2018-08-01T15:35:06Z</time>
      </trkpt>
      <trkpt lat="47.13752" lon="6.82939">
        <ele>908.96</ele>
        <time>2018-08-01T15:35:08Z</time>
      </trkpt>
      <trkpt lat="47.13744" lon="6.82937">
        <ele>909.656</ele>
        <time>2018-08-01T15:35:10Z</time>
      </trkpt>
      <trkpt lat="47.13737" lon="6.82936">
        <ele>910.263</ele>
        <time>2018-08-01T15:35:12Z</time>
      </trkpt>
      <trkpt lat="47.13729" lon="6.82937">
        <ele>910.878</ele>
        <time>2018-08-01T15:35:14Z</time>
      </trkpt>
      <trkpt lat="47.13721" lon="6.82935">
        <ele>911.447</ele>
        <time>2018-08-01T15:35:16Z</time>
      </trkpt>
      <trkpt lat="47.13716" lon="6.82933">
        <ele>911.783</ele>
        <time>2018-08-01T15:35:17Z</time>
      </trkpt>
      <trkpt lat="47.13709" lon="6.8293">
        <ele>912.225</ele>
        <time>2018-08-01T15:35:19Z</time>
      </trkpt>
      <trkpt lat="47.13701" lon="6.82926">
        <ele>912.717</ele>
        <time>2018-08-01T15:35:21Z</time>
      </trkpt>
      <trkpt lat="47.13693" lon="6.82922">
        <ele>913.208</ele>
        <time>2018-08-01T15:35:23Z</time>
      </trkpt>
      <trkpt lat="47.13685" lon="6.82916">
        <ele>913.75</ele>
        <time>2018-08-01T15:35:25Z</time>
      </trkpt>
      <trkpt lat="47.13681" lon="6.82912">
        <ele>913.945</ele>
        <time>2018-08-01T15:35:26Z</time>
      </trkpt>
      <trkpt lat="47.13678" lon="6.82908">
        <ele>914.169</ele>
        <time>2018-08-01T15:35:27Z</time>
      </trkpt>
      <trkpt lat="47.13674" lon="6.82901">
        <ele>914.581</ele>
        <time>2018-08-01T15:35:28Z</time>
      </trkpt>
      <trkpt lat="47.1367" lon="6.82897">
        <ele>914.547</ele>
        <time>2018-08-01T15:35:29Z</time>
      </trkpt>
      <trkpt lat="47.13664" lon="6.82888">
        <ele>915.064</ele>
        <time>2018-08-01T15:35:31Z</time>
      </trkpt>
      <trkpt lat="47.13662" lon="6.82881">
        <ele>915.359</ele>
        <time>2018-08-01T15:35:32Z</time>
      </trkpt>
      <trkpt lat="47.13658" lon="6.82871">
        <ele>915.978</ele>
        <time>2018-08-01T15:35:34Z</time>
      </trkpt>
      <trkpt lat="47.13655" lon="6.82863">
        <ele>916.233</ele>
        <time>2018-08-01T15:35:36Z</time>
      </trkpt>
      <trkpt lat="47.13651" lon="6.82854">
        <ele>916.923</ele>
        <time>2018-08-01T15:35:38Z</time>
      </trkpt>
      <trkpt lat="47.13646" lon="6.82843">
        <ele>917.615</ele>
        <time>2018-08-01T15:35:40Z</time>
      </trkpt>
      <trkpt lat="47.13642" lon="6.82832">
        <ele>918.208</ele>
        <time>2018-08-01T15:35:42Z</time>
      </trkpt>
      <trkpt lat="47.1364" lon="6.82819">
        <ele>918.815</ele>
        <time>2018-08-01T15:35:44Z</time>
      </trkpt>
      <trkpt lat="47.13638" lon="6.82813">
        <ele>919.19</ele>
        <time>2018-08-01T15:35:45Z</time>
      </trkpt>
      <trkpt lat="47.13633" lon="6.82802">
        <ele>919.754</ele>
        <time>2018-08-01T15:35:47Z</time>
      </trkpt>
      <trkpt lat="47.1363" lon="6.82797">
        <ele>920.066</ele>
        <time>2018-08-01T15:35:48Z</time>
      </trkpt>
      <trkpt lat="47.13628" lon="6.82791">
        <ele>920.322</ele>
        <time>2018-08-01T15:35:49Z</time>
      </trkpt>
      <trkpt lat="47.13624" lon="6.82777">
        <ele>920.869</ele>
        <time>2018-08-01T15:35:51Z</time>
      </trkpt>
      <trkpt lat="47.13622" lon="6.82766">
        <ele>921.384</ele>
        <time>2018-08-01T15:35:53Z</time>
      </trkpt>
      <trkpt lat="47.13618" lon="6.82757">
        <ele>921.743</ele>
        <time>2018-08-01T15:35:55Z</time>
      </trkpt>
      <trkpt lat="47.13616" lon="6.82746">
        <ele>922.175</ele>
        <time>2018-08-01T15:35:57Z</time>
      </trkpt>
      <trkpt lat="47.13614" lon="6.82733">
        <ele>922.628</ele>
        <time>2018-08-01T15:35:59Z</time>
      </trkpt>
      <trkpt lat="47.13615" lon="6.82718">
        <ele>923.12</ele>
        <time>2018-08-01T15:36:01Z</time>
      </trkpt>
      <trkpt lat="47.13613" lon="6.82708">
        <ele>923.608</ele>
        <time>2018-08-01T15:36:03Z</time>
      </trkpt>
      <trkpt lat="47.13611" lon="6.82695">
        <ele>923.929</ele>
        <time>2018-08-01T15:36:05Z</time>
      </trkpt>
      <trkpt lat="47.13611" lon="6.82683">
        <ele>924.454</ele>
        <time>2018-08-01T15:36:07Z</time>
      </trkpt>
      <trkpt lat="47.13611" lon="6.82672">
        <ele>925.048</ele>
        <time>2018-08-01T15:36:09Z</time>
      </trkpt>
      <trkpt lat="47.1361" lon="6.82665">
        <ele>925.26</ele>
        <time>2018-08-01T15:36:10Z</time>
      </trkpt>
      <trkpt lat="47.13609" lon="6.82653">
        <ele>925.776</ele>
        <time>2018-08-01T15:36:12Z</time>
      </trkpt>
      <trkpt lat="47.13611" lon="6.82646">
        <ele>926.053</ele>
        <time>2018-08-01T15:36:13Z</time>
      </trkpt>
      <trkpt lat="47.1361" lon="6.82635">
        <ele>926.538</ele>
        <time>2018-08-01T15:36:15Z</time>
      </trkpt>
      <trkpt lat="47.13612" lon="6.82629">
        <ele>926.877</ele>
        <time>2018-08-01T15:36:16Z</time>
      </trkpt>
      <trkpt lat="47.13613" lon="6.82617">
        <ele>927.578</ele>
        <time>2018-08-01T15:36:18Z</time>
      </trkpt>
      <trkpt lat="47.13616" lon="6.82604">
        <ele>928.233</ele>
        <time>2018-08-01T15:36:20Z</time>
      </trkpt>
      <trkpt lat="47.13618" lon="6.82591">
        <ele>928.926</ele>
        <time>2018-08-01T15:36:22Z</time>
      </trkpt>
      <trkpt lat="47.13621" lon="6.82582">
        <ele>929.208</ele>
        <time>2018-08-01T15:36:23Z</time>
      </trkpt>
      <trkpt lat="47.13625" lon="6.82573">
        <ele>929.819</ele>
        <time>2018-08-01T15:36:25Z</time>
      </trkpt>
      <trkpt lat="47.13626" lon="6.82564">
        <ele>930.464</ele>
        <time>2018-08-01T15:36:27Z</time>
      </trkpt>
      <trkpt lat="47.13629" lon="6.82556">
        <ele>930.758</ele>
        <time>2018-08-01T15:36:28Z</time>
      </trkpt>
      <trkpt lat="47.13631" lon="6.8255">
        <ele>931.06</ele>
        <time>2018-08-01T15:36:29Z</time>
      </trkpt>
      <trkpt lat="47.13635" lon="6.82542">
        <ele>931.356</ele>
        <time>2018-08-01T15:36:30Z</time>
      </trkpt>
      <trkpt lat="47.13638" lon="6.82536">
        <ele>931.663</ele>
        <time>2018-08-01T15:36:31Z</time>
      </trkpt>
      <trkpt lat="47.13643" lon="6.82526">
        <ele>931.828</ele>
        <time>2018-08-01T15:36:33Z</time>
      </trkpt>
      <trkpt lat="47.13647" lon="6.8252">
        <ele>932.147</ele>
        <time>2018-08-01T15:36:34Z</time>
      </trkpt>
      <trkpt lat="47.13649" lon="6.82509">
        <ele>932.789</ele>
        <time>2018-08-01T15:36:36Z</time>
      </trkpt>
      <trkpt lat="47.1365" lon="6.82497">
        <ele>933.406</ele>
        <time>2018-08-01T15:36:38Z</time>
      </trkpt>
      <trkpt lat="47.1365" lon="6.82484">
        <ele>934.026</ele>
        <time>2018-08-01T15:36:40Z</time>
      </trkpt>
      <trkpt lat="47.1365" lon="6.82472">
        <ele>934.508</ele>
        <time>2018-08-01T15:36:42Z</time>
      </trkpt>
      <trkpt lat="47.13648" lon="6.8246">
        <ele>935.03</ele>
        <time>2018-08-01T15:36:44Z</time>
      </trkpt>
      <trkpt lat="47.13643" lon="6.82452">
        <ele>935.465</ele>
        <time>2018-08-01T15:36:46Z</time>
      </trkpt>
      <trkpt lat="47.13637" lon="6.82444">
        <ele>935.929</ele>
        <time>2018-08-01T15:36:48Z</time>
      </trkpt>
      <trkpt lat="47.13632" lon="6.82437">
        <ele>936.511</ele>
        <time>2018-08-01T15:36:50Z</time>
      </trkpt>
      <trkpt lat="47.13626" lon="6.8243">
        <ele>937.277</ele>
        <time>2018-08-01T15:36:52Z</time>
      </trkpt>
      <trkpt lat="47.13622" lon="6.82424">
        <ele>937.534</ele>
        <time>2018-08-01T15:36:53Z</time>
      </trkpt>
      <trkpt lat="47.13617" lon="6.82417">
        <ele>937.879</ele>
        <time>2018-08-01T15:36:54Z</time>
      </trkpt>
      <trkpt lat="47.13615" lon="6.8241">
        <ele>938.168</ele>
        <time>2018-08-01T15:36:55Z</time>
      </trkpt>
      <trkpt lat="47.1361" lon="6.82403">
        <ele>938.683</ele>
        <time>2018-08-01T15:36:57Z</time>
      </trkpt>
      <trkpt lat="47.13605" lon="6.82396">
        <ele>939.125</ele>
        <time>2018-08-01T15:36:59Z</time>
      </trkpt>
      <trkpt lat="47.13598" lon="6.82389">
        <ele>939.417</ele>
        <time>2018-08-01T15:37:01Z</time>
      </trkpt>
      <trkpt lat="47.13593" lon="6.8238">
        <ele>940.108</ele>
        <time>2018-08-01T15:37:03Z</time>
      </trkpt>
      <trkpt lat="47.13586" lon="6.82374">
        <ele>940.86</ele>
        <time>2018-08-01T15:37:05Z</time>
      </trkpt>
      <trkpt lat="47.13581" lon="6.82365">
        <ele>941.385</ele>
        <time>2018-08-01T15:37:07Z</time>
      </trkpt>
      <trkpt lat="47.13574" lon="6.82359">
        <ele>941.859</ele>
        <time>2018-08-01T15:37:09Z</time>
      </trkpt>
      <trkpt lat="47.13568" lon="6.82352">
        <ele>942.371</ele>
        <time>2018-08-01T15:37:11Z</time>
      </trkpt>
      <trkpt lat="47.13566" lon="6.82345">
        <ele>942.557</ele>
        <time>2018-08-01T15:37:12Z</time>
      </trkpt>
      <trkpt lat="47.13561" lon="6.82341">
        <ele>942.774</ele>
        <time>2018-08-01T15:37:13Z</time>
      </trkpt>
      <trkpt lat="47.13555" lon="6.82333">
        <ele>942.889</ele>
        <time>2018-08-01T15:37:15Z</time>
      </trkpt>
      <trkpt lat="47.13551" lon="6.82326">
        <ele>943.288</ele>
        <time>2018-08-01T15:37:17Z</time>
      </trkpt>
      <trkpt lat="47.13547" lon="6.82323">
        <ele>943.545</ele>
        <time>2018-08-01T15:37:18Z</time>
      </trkpt>
      <trkpt lat="47.13541" lon="6.82317">
        <ele>944.147</ele>
        <time>2018-08-01T15:37:20Z</time>
      </trkpt>
      <trkpt lat="47.13534" lon="6.82312">
        <ele>944.711</ele>
        <time>2018-08-01T15:37:22Z</time>
      </trkpt>
      <trkpt lat="47.13526" lon="6.82307">
        <ele>945.308</ele>
        <time>2018-08-01T15:37:24Z</time>
      </trkpt>
      <trkpt lat="47.13522" lon="6.82301">
        <ele>945.646</ele>
        <time>2018-08-01T15:37:25Z</time>
      </trkpt>
      <trkpt lat="47.13517" lon="6.82301">
        <ele>945.981</ele>
        <time>2018-08-01T15:37:26Z</time>
      </trkpt>
      <trkpt lat="47.13512" lon="6.823">
        <ele>946.395</ele>
        <time>2018-08-01T15:37:27Z</time>
      </trkpt>
      <trkpt lat="47.13507" lon="6.82302">
        <ele>946.627</ele>
        <time>2018-08-01T15:37:28Z</time>
      </trkpt>
      <trkpt lat="47.13502" lon="6.82303">
        <ele>946.663</ele>
        <time>2018-08-01T15:37:29Z</time>
      </trkpt>
      <trkpt lat="47.13498" lon="6.82308">
        <ele>946.92</ele>
        <time>2018-08-01T15:37:30Z</time>
      </trkpt>
      <trkpt lat="47.13494" lon="6.82311">
        <ele>947.295</ele>
        <time>2018-08-01T15:37:31Z</time>
      </trkpt>
      <trkpt lat="47.1349" lon="6.82314">
        <ele>947.574</ele>
        <time>2018-08-01T15:37:32Z</time>
      </trkpt>
      <trkpt lat="47.13486" lon="6.82322">
        <ele>947.872</ele>
        <time>2018-08-01T15:37:33Z</time>
      </trkpt>
      <trkpt lat="47.13479" lon="6.82328">
        <ele>948.413</ele>
        <time>2018-08-01T15:37:35Z</time>
      </trkpt>
      <trkpt lat="47.13472" lon="6.82337">
        <ele>949.014</ele>
        <time>2018-08-01T15:37:37Z</time>
      </trkpt>
      <trkpt lat="47.1347" lon="6.82344">
        <ele>949.308</ele>
        <time>2018-08-01T15:37:38Z</time>
      </trkpt>
      <trkpt lat="47.13465" lon="6.82354">
        <ele>950.039</ele>
        <time>2018-08-01T15:37:40Z</time>
      </trkpt>
      <trkpt lat="47.13461" lon="6.82359">
        <ele>950.324</ele>
        <time>2018-08-01T15:37:41Z</time>
      </trkpt>
      <trkpt lat="47.13456" lon="6.82371">
        <ele>950.988</ele>
        <time>2018-08-01T15:37:43Z</time>
      </trkpt>
      <trkpt lat="47.13451" lon="6.82377">
        <ele>951.62</ele>
        <time>2018-08-01T15:37:45Z</time>
      </trkpt>
      <trkpt lat="47.13444" lon="6.82387">
        <ele>952.356</ele>
        <time>2018-08-01T15:37:47Z</time>
      </trkpt>
      <trkpt lat="47.13437" lon="6.82391">
        <ele>952.953</ele>
        <time>2018-08-01T15:37:49Z</time>
      </trkpt>
      <trkpt lat="47.1343" lon="6.82401">
        <ele>953.638</ele>
        <time>2018-08-01T15:37:51Z</time>
      </trkpt>
      <trkpt lat="47.13423" lon="6.82406">
        <ele>954.317</ele>
        <time>2018-08-01T15:37:53Z</time>
      </trkpt>
      <trkpt lat="47.1342" lon="6.82412">
        <ele>954.696</ele>
        <time>2018-08-01T15:37:54Z</time>
      </trkpt>
      <trkpt lat="47.13416" lon="6.82415">
        <ele>954.931</ele>
        <time>2018-08-01T15:37:55Z</time>
      </trkpt>
      <trkpt lat="47.13412" lon="6.82421">
        <ele>954.924</ele>
        <time>2018-08-01T15:37:56Z</time>
      </trkpt>
      <trkpt lat="47.13409" lon="6.82427">
        <ele>955.308</ele>
        <time>2018-08-01T15:37:57Z</time>
      </trkpt>
      <trkpt lat="47.13402" lon="6.82435">
        <ele>956.061</ele>
        <time>2018-08-01T15:37:59Z</time>
      </trkpt>
      <trkpt lat="47.13397" lon="6.82439">
        <ele>956.316</ele>
        <time>2018-08-01T15:38:00Z</time>
      </trkpt>
      <trkpt lat="47.13392" lon="6.82442">
        <ele>956.66</ele>
        <time>2018-08-01T15:38:01Z</time>
      </trkpt>
      <trkpt lat="47.13388" lon="6.82447">
        <ele>956.882</ele>
        <time>2018-08-01T15:38:02Z</time>
      </trkpt>
      <trkpt lat="47.13385" lon="6.82452">
        <ele>957.018</ele>
        <time>2018-08-01T15:38:03Z</time>
      </trkpt>
      <trkpt lat="47.13381" lon="6.82455">
        <ele>957.295</ele>
        <time>2018-08-01T15:38:04Z</time>
      </trkpt>
      <trkpt lat="47.13378" lon="6.82462">
        <ele>957.48</ele>
        <time>2018-08-01T15:38:05Z</time>
      </trkpt>
      <trkpt lat="47.13375" lon="6.82466">
        <ele>957.629</ele>
        <time>2018-08-01T15:38:06Z</time>
      </trkpt>
      <trkpt lat="47.13368" lon="6.82463">
        <ele>957.928</ele>
        <time>2018-08-01T15:38:07Z</time>
      </trkpt>
      <trkpt lat="47.13362" lon="6.8247">
        <ele>958.489</ele>
        <time>2018-08-01T15:38:09Z</time>
      </trkpt>
      <trkpt lat="47.13354" lon="6.82473">
        <ele>959.017</ele>
        <time>2018-08-01T15:38:11Z</time>
      </trkpt>
      <trkpt lat="47.13346" lon="6.82476">
        <ele>959.508</ele>
        <time>2018-08-01T15:38:13Z</time>
      </trkpt>
      <trkpt lat="47.13343" lon="6.82482">
        <ele>959.814</ele>
        <time>2018-08-01T15:38:14Z</time>
      </trkpt>
      <trkpt lat="47.13339" lon="6.82487">
        <ele>960.119</ele>
        <time>2018-08-01T15:38:15Z</time>
      </trkpt>
      <trkpt lat="47.13335" lon="6.82492">
        <ele>960.473</ele>
        <time>2018-08-01T15:38:16Z</time>
      </trkpt>
      <trkpt lat="47.13327" lon="6.82501">
        <ele>961.195</ele>
        <time>2018-08-01T15:38:18Z</time>
      </trkpt>
      <trkpt lat="47.13322" lon="6.82504">
        <ele>961.571</ele>
        <time>2018-08-01T15:38:19Z</time>
      </trkpt>
      <trkpt lat="47.13316" lon="6.82509">
        <ele>962.238</ele>
        <time>2018-08-01T15:38:21Z</time>
      </trkpt>
      <trkpt lat="47.13307" lon="6.82513">
        <ele>962.963</ele>
        <time>2018-08-01T15:38:23Z</time>
      </trkpt>
      <trkpt lat="47.13302" lon="6.82515">
        <ele>962.982</ele>
        <time>2018-08-01T15:38:24Z</time>
      </trkpt>
      <trkpt lat="47.13296" lon="6.82522">
        <ele>963.292</ele>
        <time>2018-08-01T15:38:25Z</time>
      </trkpt>
      <trkpt lat="47.13291" lon="6.82522">
        <ele>963.573</ele>
        <time>2018-08-01T15:38:26Z</time>
      </trkpt>
      <trkpt lat="47.13286" lon="6.82528">
        <ele>963.82</ele>
        <time>2018-08-01T15:38:27Z</time>
      </trkpt>
      <trkpt lat="47.13282" lon="6.82528">
        <ele>964.108</ele>
        <time>2018-08-01T15:38:28Z</time>
      </trkpt>
      <trkpt lat="47.13276" lon="6.82527">
        <ele>964.541</ele>
        <time>2018-08-01T15:38:29Z</time>
      </trkpt>
      <trkpt lat="47.13268" lon="6.82526">
        <ele>965.226</ele>
        <time>2018-08-01T15:38:31Z</time>
      </trkpt>
      <trkpt lat="47.13263" lon="6.82527">
        <ele>965.65</ele>
        <time>2018-08-01T15:38:32Z</time>
      </trkpt>
      <trkpt lat="47.13258" lon="6.82525">
        <ele>965.942</ele>
        <time>2018-08-01T15:38:33Z</time>
      </trkpt>
      <trkpt lat="47.13253" lon="6.82525">
        <ele>966.228</ele>
        <time>2018-08-01T15:38:34Z</time>
      </trkpt>
      <trkpt lat="47.13247" lon="6.82524">
        <ele>966.575</ele>
        <time>2018-08-01T15:38:35Z</time>
      </trkpt>
      <trkpt lat="47.13237" lon="6.82524">
        <ele>967.09</ele>
        <time>2018-08-01T15:38:37Z</time>
      </trkpt>
      <trkpt lat="47.13229" lon="6.82527">
        <ele>967.749</ele>
        <time>2018-08-01T15:38:39Z</time>
      </trkpt>
      <trkpt lat="47.13222" lon="6.82533">
        <ele>968.473</ele>
        <time>2018-08-01T15:38:41Z</time>
      </trkpt>
      <trkpt lat="47.13214" lon="6.82539">
        <ele>969.185</ele>
        <time>2018-08-01T15:38:43Z</time>
      </trkpt>
      <trkpt lat="47.13209" lon="6.82551">
        <ele>969.813</ele>
        <time>2018-08-01T15:38:45Z</time>
      </trkpt>
      <trkpt lat="47.13203" lon="6.82562">
        <ele>970.408</ele>
        <time>2018-08-01T15:38:47Z</time>
      </trkpt>
      <trkpt lat="47.13201" lon="6.82569">
        <ele>970.749</ele>
        <time>2018-08-01T15:38:48Z</time>
      </trkpt>
      <trkpt lat="47.13197" lon="6.82573">
        <ele>971.064</ele>
        <time>2018-08-01T15:38:49Z</time>
      </trkpt>
      <trkpt lat="47.13194" lon="6.82579">
        <ele>971.368</ele>
        <time>2018-08-01T15:38:50Z</time>
      </trkpt>
      <trkpt lat="47.13188" lon="6.82587">
        <ele>971.95</ele>
        <time>2018-08-01T15:38:52Z</time>
      </trkpt>
      <trkpt lat="47.13184" lon="6.82597">
        <ele>972.286</ele>
        <time>2018-08-01T15:38:54Z</time>
      </trkpt>
      <trkpt lat="47.13179" lon="6.82601">
        <ele>972.453</ele>
        <time>2018-08-01T15:38:55Z</time>
      </trkpt>
      <trkpt lat="47.13176" lon="6.82608">
        <ele>972.638</ele>
        <time>2018-08-01T15:38:56Z</time>
      </trkpt>
      <trkpt lat="47.13172" lon="6.82612">
        <ele>972.857</ele>
        <time>2018-08-01T15:38:57Z</time>
      </trkpt>
      <trkpt lat="47.13165" lon="6.82616">
        <ele>973.275</ele>
        <time>2018-08-01T15:38:59Z</time>
      </trkpt>
      <trkpt lat="47.13161" lon="6.82614">
        <ele>973.428</ele>
        <time>2018-08-01T15:39:00Z</time>
      </trkpt>
      <trkpt lat="47.13154" lon="6.82608">
        <ele>973.82</ele>
        <time>2018-08-01T15:39:02Z</time>
      </trkpt>
      <trkpt lat="47.13151" lon="6.82603">
        <ele>974.108</ele>
        <time>2018-08-01T15:39:03Z</time>
      </trkpt>
      <trkpt lat="47.13146" lon="6.82594">
        <ele>974.789</ele>
        <time>2018-08-01T15:39:05Z</time>
      </trkpt>
      <trkpt lat="47.13141" lon="6.82586">
        <ele>975.564</ele>
        <time>2018-08-01T15:39:07Z</time>
      </trkpt>
      <trkpt lat="47.13136" lon="6.82574">
        <ele>976.128</ele>
        <time>2018-08-01T15:39:09Z</time>
      </trkpt>
      <trkpt lat="47.13133" lon="6.82567">
        <ele>976.45</ele>
        <time>2018-08-01T15:39:10Z</time>
      </trkpt>
      <trkpt lat="47.13131" lon="6.82561">
        <ele>976.776</ele>
        <time>2018-08-01T15:39:11Z</time>
      </trkpt>
      <trkpt lat="47.13127" lon="6.82549">
        <ele>977.373</ele>
        <time>2018-08-01T15:39:13Z</time>
      </trkpt>
      <trkpt lat="47.13123" lon="6.82539">
        <ele>977.928</ele>
        <time>2018-08-01T15:39:15Z</time>
      </trkpt>
      <trkpt lat="47.13117" lon="6.82528">
        <ele>978.597</ele>
        <time>2018-08-01T15:39:17Z</time>
      </trkpt>
      <trkpt lat="47.13113" lon="6.82519">
        <ele>979.363</ele>
        <time>2018-08-01T15:39:19Z</time>
      </trkpt>
      <trkpt lat="47.13111" lon="6.82513">
        <ele>979.344</ele>
        <time>2018-08-01T15:39:20Z</time>
      </trkpt>
      <trkpt lat="47.13108" lon="6.82507">
        <ele>979.618</ele>
        <time>2018-08-01T15:39:21Z</time>
      </trkpt>
      <trkpt lat="47.13104" lon="6.82502">
        <ele>979.908</ele>
        <time>2018-08-01T15:39:22Z</time>
      </trkpt>
      <trkpt lat="47.131" lon="6.82497">
        <ele>980.248</ele>
        <time>2018-08-01T15:39:23Z</time>
      </trkpt>
      <trkpt lat="47.13096" lon="6.82491">
        <ele>980.473</ele>
        <time>2018-08-01T15:39:24Z</time>
      </trkpt>
      <trkpt lat="47.1309" lon="6.82487">
        <ele>980.647</ele>
        <time>2018-08-01T15:39:25Z</time>
      </trkpt>
      <trkpt lat="47.13086" lon="6.82476">
        <ele>981.179</ele>
        <time>2018-08-01T15:39:27Z</time>
      </trkpt>
      <trkpt lat="47.13085" lon="6.82468">
        <ele>981.435</ele>
        <time>2018-08-01T15:39:28Z</time>
      </trkpt>
      <trkpt lat="47.13078" lon="6.82464">
        <ele>981.762</ele>
        <time>2018-08-01T15:39:29Z</time>
      </trkpt>
      <trkpt lat="47.13074" lon="6.82458">
        <ele>982.477</ele>
        <time>2018-08-01T15:39:31Z</time>
      </trkpt>
      <trkpt lat="47.13067" lon="6.82451">
        <ele>983.146</ele>
        <time>2018-08-01T15:39:33Z</time>
      </trkpt>
      <trkpt lat="47.1306" lon="6.82445">
        <ele>983.746</ele>
        <time>2018-08-01T15:39:35Z</time>
      </trkpt>
      <trkpt lat="47.13056" lon="6.82442">
        <ele>984.088</ele>
        <time>2018-08-01T15:39:36Z</time>
      </trkpt>
      <trkpt lat="47.13052" lon="6.8244">
        <ele>984.316</ele>
        <time>2018-08-01T15:39:37Z</time>
      </trkpt>
      <trkpt lat="47.13044" lon="6.82435">
        <ele>984.808</ele>
        <time>2018-08-01T15:39:39Z</time>
      </trkpt>
      <trkpt lat="47.13039" lon="6.82433">
        <ele>985.176</ele>
        <time>2018-08-01T15:39:40Z</time>
      </trkpt>
      <trkpt lat="47.13035" lon="6.8243">
        <ele>985.421</ele>
        <time>2018-08-01T15:39:41Z</time>
      </trkpt>
      <trkpt lat="47.13026" lon="6.8243">
        <ele>986.055</ele>
        <time>2018-08-01T15:39:43Z</time>
      </trkpt>
      <trkpt lat="47.13018" lon="6.82428">
        <ele>986.627</ele>
        <time>2018-08-01T15:39:45Z</time>
      </trkpt>
      <trkpt lat="47.1301" lon="6.8243">
        <ele>987.213</ele>
        <time>2018-08-01T15:39:47Z</time>
      </trkpt>
      <trkpt lat="47.13004" lon="6.82433">
        <ele>987.57</ele>
        <time>2018-08-01T15:39:49Z</time>
      </trkpt>
      <trkpt lat="47.12998" lon="6.82439">
        <ele>988.195</ele>
        <time>2018-08-01T15:39:51Z</time>
      </trkpt>
      <trkpt lat="47.12994" lon="6.8245">
        <ele>988.774</ele>
        <time>2018-08-01T15:39:53Z</time>
      </trkpt>
      <trkpt lat="47.1299" lon="6.82462">
        <ele>989.417</ele>
        <time>2018-08-01T15:39:55Z</time>
      </trkpt>
      <trkpt lat="47.12992" lon="6.82471">
        <ele>989.787</ele>
        <time>2018-08-01T15:39:56Z</time>
      </trkpt>
      <trkpt lat="47.12994" lon="6.82482">
        <ele>990.215</ele>
        <time>2018-08-01T15:39:58Z</time>
      </trkpt>
      <trkpt lat="47.12995" lon="6.82492">
        <ele>990.408</ele>
        <time>2018-08-01T15:40:00Z</time>
      </trkpt>
      <trkpt lat="47.12996" lon="6.82504">
        <ele>990.623</ele>
        <time>2018-08-01T15:40:02Z</time>
      </trkpt>
      <trkpt lat="47.12998" lon="6.82516">
        <ele>991.078</ele>
        <time>2018-08-01T15:40:04Z</time>
      </trkpt>
      <trkpt lat="47.13003" lon="6.82526">
        <ele>991.732</ele>
        <time>2018-08-01T15:40:06Z</time>
      </trkpt>
      <trkpt lat="47.13005" lon="6.82537">
        <ele>992.454</ele>
        <time>2018-08-01T15:40:08Z</time>
      </trkpt>
      <trkpt lat="47.13007" lon="6.82549">
        <ele>992.96</ele>
        <time>2018-08-01T15:40:10Z</time>
      </trkpt>
      <trkpt lat="47.13007" lon="6.8256">
        <ele>993.137</ele>
        <time>2018-08-01T15:40:12Z</time>
      </trkpt>
      <trkpt lat="47.13004" lon="6.82572">
        <ele>993.362</ele>
        <time>2018-08-01T15:40:14Z</time>
      </trkpt>
      <trkpt lat="47.12999" lon="6.82581">
        <ele>993.581</ele>
        <time>2018-08-01T15:40:16Z</time>
      </trkpt>
      <trkpt lat="47.12993" lon="6.82583">
        <ele>993.839</ele>
        <time>2018-08-01T15:40:17Z</time>
      </trkpt>
      <trkpt lat="47.12987" lon="6.82586">
        <ele>994.101</ele>
        <time>2018-08-01T15:40:18Z</time>
      </trkpt>
      <trkpt lat="47.1298" lon="6.82591">
        <ele>994.521</ele>
        <time>2018-08-01T15:40:20Z</time>
      </trkpt>
      <trkpt lat="47.12974" lon="6.82593">
        <ele>994.908</ele>
        <time>2018-08-01T15:40:22Z</time>
      </trkpt>
      <trkpt lat="47.12969" lon="6.82594">
        <ele>995.195</ele>
        <time>2018-08-01T15:40:23Z</time>
      </trkpt>
      <trkpt lat="47.12964" lon="6.82595">
        <ele>995.47</ele>
        <time>2018-08-01T15:40:24Z</time>
      </trkpt>
      <trkpt lat="47.12956" lon="6.82598">
        <ele>996.054</ele>
        <time>2018-08-01T15:40:26Z</time>
      </trkpt>
      <trkpt lat="47.12951" lon="6.826">
        <ele>996.576</ele>
        <time>2018-08-01T15:40:28Z</time>
      </trkpt>
      <trkpt lat="47.12944" lon="6.82603">
        <ele>996.962</ele>
        <time>2018-08-01T15:40:30Z</time>
      </trkpt>
      <trkpt lat="47.12936" lon="6.82605">
        <ele>997.649</ele>
        <time>2018-08-01T15:40:32Z</time>
      </trkpt>
      <trkpt lat="47.12927" lon="6.82608">
        <ele>998.254</ele>
        <time>2018-08-01T15:40:34Z</time>
      </trkpt>
      <trkpt lat="47.12922" lon="6.82608">
        <ele>998.573</ele>
        <time>2018-08-01T15:40:35Z</time>
      </trkpt>
      <trkpt lat="47.12918" lon="6.82609">
        <ele>998.893</ele>
        <time>2018-08-01T15:40:36Z</time>
      </trkpt>
      <trkpt lat="47.12913" lon="6.8261">
        <ele>999.065</ele>
        <time>2018-08-01T15:40:37Z</time>
      </trkpt>
      <trkpt lat="47.12905" lon="6.82612">
        <ele>999.621</ele>
        <time>2018-08-01T15:40:39Z</time>
      </trkpt>
      <trkpt lat="47.12895" lon="6.82612">
        <ele>1000.208</ele>
        <time>2018-08-01T15:40:41Z</time>
      </trkpt>
      <trkpt lat="47.12887" lon="6.82611">
        <ele>1000.521</ele>
        <time>2018-08-01T15:40:43Z</time>
      </trkpt>
      <trkpt lat="47.12878" lon="6.82611">
        <ele>1001.086</ele>
        <time>2018-08-01T15:40:45Z</time>
      </trkpt>
      <trkpt lat="47.12869" lon="6.82609">
        <ele>1001.44</ele>
        <time>2018-08-01T15:40:47Z</time>
      </trkpt>
      <trkpt lat="47.12861" lon="6.82608">
        <ele>1001.932</ele>
        <time>2018-08-01T15:40:49Z</time>
      </trkpt>
      <trkpt lat="47.12854" lon="6.82605">
        <ele>1002.568</ele>
        <time>2018-08-01T15:40:51Z</time>
      </trkpt>
      <trkpt lat="47.12848" lon="6.82602">
        <ele>1003.175</ele>
        <time>2018-08-01T15:40:53Z</time>
      </trkpt>
      <trkpt lat="47.12842" lon="6.82599">
        <ele>1003.62</ele>
        <time>2018-08-01T15:40:55Z</time>
      </trkpt>
      <trkpt lat="47.12836" lon="6.82593">
        <ele>1004.129</ele>
        <time>2018-08-01T15:40:57Z</time>
      </trkpt>
      <trkpt lat="47.1283" lon="6.82589">
        <ele>1004.724</ele>
        <time>2018-08-01T15:40:59Z</time>
      </trkpt>
      <trkpt lat="47.12823" lon="6.82583">
        <ele>1005.304</ele>
        <time>2018-08-01T15:41:01Z</time>
      </trkpt>
      <trkpt lat="47.12821" lon="6.82572">
        <ele>1005.614</ele>
        <time>2018-08-01T15:41:02Z</time>
      </trkpt>
      <trkpt lat="47.12815" lon="6.82563">
        <ele>1006.108</ele>
        <time>2018-08-01T15:41:04Z</time>
      </trkpt>
      <trkpt lat="47.12809" lon="6.82551">
        <ele>1006.724</ele>
        <time>2018-08-01T15:41:06Z</time>
      </trkpt>
      <trkpt lat="47.12803" lon="6.82542">
        <ele>1007.489</ele>
        <time>2018-08-01T15:41:08Z</time>
      </trkpt>
      <trkpt lat="47.12796" lon="6.82535">
        <ele>1008.023</ele>
        <time>2018-08-01T15:41:10Z</time>
      </trkpt>
      <trkpt lat="47.12792" lon="6.82529">
        <ele>1008.045</ele>
        <time>2018-08-01T15:41:11Z</time>
      </trkpt>
      <trkpt lat="47.12787" lon="6.82517">
        <ele>1008.681</ele>
        <time>2018-08-01T15:41:13Z</time>
      </trkpt>
      <trkpt lat="47.1278" lon="6.8251">
        <ele>1009.348</ele>
        <time>2018-08-01T15:41:15Z</time>
      </trkpt>
      <trkpt lat="47.12778" lon="6.82504">
        <ele>1009.673</ele>
        <time>2018-08-01T15:41:16Z</time>
      </trkpt>
      <trkpt lat="47.12772" lon="6.82497">
        <ele>1010.272</ele>
        <time>2018-08-01T15:41:18Z</time>
      </trkpt>
      <trkpt lat="47.12765" lon="6.82491">
        <ele>1010.828</ele>
        <time>2018-08-01T15:41:20Z</time>
      </trkpt>
      <trkpt lat="47.12759" lon="6.82485">
        <ele>1011.389</ele>
        <time>2018-08-01T15:41:22Z</time>
      </trkpt>
      <trkpt lat="47.12751" lon="6.82478">
        <ele>1011.917</ele>
        <time>2018-08-01T15:41:24Z</time>
      </trkpt>
      <trkpt lat="47.12749" lon="6.82472">
        <ele>1012.208</ele>
        <time>2018-08-01T15:41:25Z</time>
      </trkpt>
      <trkpt lat="47.12745" lon="6.82467">
        <ele>1012.534</ele>
        <time>2018-08-01T15:41:26Z</time>
      </trkpt>
      <trkpt lat="47.12739" lon="6.82461">
        <ele>1013.299</ele>
        <time>2018-08-01T15:41:28Z</time>
      </trkpt>
      <trkpt lat="47.12731" lon="6.82456">
        <ele>1013.943</ele>
        <time>2018-08-01T15:41:30Z</time>
      </trkpt>
      <trkpt lat="47.12723" lon="6.82453">
        <ele>1014.615</ele>
        <time>2018-08-01T15:41:32Z</time>
      </trkpt>
      <trkpt lat="47.12714" lon="6.82451">
        <ele>1015.091</ele>
        <time>2018-08-01T15:41:34Z</time>
      </trkpt>
      <trkpt lat="47.12706" lon="6.82448">
        <ele>1015.428</ele>
        <time>2018-08-01T15:41:36Z</time>
      </trkpt>
      <trkpt lat="47.12697" lon="6.82445">
        <ele>1015.983</ele>
        <time>2018-08-01T15:41:38Z</time>
      </trkpt>
      <trkpt lat="47.12692" lon="6.82443">
        <ele>1016.272</ele>
        <time>2018-08-01T15:41:39Z</time>
      </trkpt>
      <trkpt lat="47.12684" lon="6.82441">
        <ele>1016.545</ele>
        <time>2018-08-01T15:41:41Z</time>
      </trkpt>
      <trkpt lat="47.12679" lon="6.82439">
        <ele>1016.847</ele>
        <time>2018-08-01T15:41:42Z</time>
      </trkpt>
      <trkpt lat="47.12675" lon="6.82437">
        <ele>1017.111</ele>
        <time>2018-08-01T15:41:43Z</time>
      </trkpt>
      <trkpt lat="47.12671" lon="6.82434">
        <ele>1017.408</ele>
        <time>2018-08-01T15:41:44Z</time>
      </trkpt>
      <trkpt lat="47.12666" lon="6.82431">
        <ele>1017.766</ele>
        <time>2018-08-01T15:41:45Z</time>
      </trkpt>
      <trkpt lat="47.12659" lon="6.82424">
        <ele>1018.311</ele>
        <time>2018-08-01T15:41:47Z</time>
      </trkpt>
      <trkpt lat="47.12652" lon="6.82417">
        <ele>1018.935</ele>
        <time>2018-08-01T15:41:49Z</time>
      </trkpt>
      <trkpt lat="47.12646" lon="6.8241">
        <ele>1019.557</ele>
        <time>2018-08-01T15:41:51Z</time>
      </trkpt>
      <trkpt lat="47.12639" lon="6.82403">
        <ele>1020.023</ele>
        <time>2018-08-01T15:41:53Z</time>
      </trkpt>
      <trkpt lat="47.12636" lon="6.82399">
        <ele>1020.38</ele>
        <time>2018-08-01T15:41:54Z</time>
      </trkpt>
      <trkpt lat="47.1263" lon="6.82391">
        <ele>1020.865</ele>
        <time>2018-08-01T15:41:56Z</time>
      </trkpt>
      <trkpt lat="47.12623" lon="6.82385">
        <ele>1021.314</ele>
        <time>2018-08-01T15:41:58Z</time>
      </trkpt>
      <trkpt lat="47.12616" lon="6.8238">
        <ele>1021.812</ele>
        <time>2018-08-01T15:42:00Z</time>
      </trkpt>
      <trkpt lat="47.12608" lon="6.82377">
        <ele>1022.132</ele>
        <time>2018-08-01T15:42:02Z</time>
      </trkpt>
      <trkpt lat="47.12603" lon="6.82378">
        <ele>1022.305</ele>
        <time>2018-08-01T15:42:03Z</time>
      </trkpt>
      <trkpt lat="47.12599" lon="6.82381">
        <ele>1022.508</ele>
        <time>2018-08-01T15:42:04Z</time>
      </trkpt>
      <trkpt lat="47.12591" lon="6.82387">
        <ele>1022.953</ele>
        <time>2018-08-01T15:42:06Z</time>
      </trkpt>
      <trkpt lat="47.12585" lon="6.82397">
        <ele>1023.168</ele>
        <time>2018-08-01T15:42:08Z</time>
      </trkpt>
      <trkpt lat="47.12583" lon="6.82409">
        <ele>1023.452</ele>
        <time>2018-08-01T15:42:10Z</time>
      </trkpt>
      <trkpt lat="47.12582" lon="6.82415">
        <ele>1023.664</ele>
        <time>2018-08-01T15:42:11Z</time>
      </trkpt>
      <trkpt lat="47.12583" lon="6.82428">
        <ele>1024.02</ele>
        <time>2018-08-01T15:42:13Z</time>
      </trkpt>
      <trkpt lat="47.12585" lon="6.82434">
        <ele>1024.377</ele>
        <time>2018-08-01T15:42:14Z</time>
      </trkpt>
      <trkpt lat="47.12587" lon="6.82441">
        <ele>1024.762</ele>
        <time>2018-08-01T15:42:15Z</time>
      </trkpt>
      <trkpt lat="47.12592" lon="6.82451">
        <ele>1025.171</ele>
        <time>2018-08-01T15:42:17Z</time>
      </trkpt>
      <trkpt lat="47.12598" lon="6.82459">
        <ele>1025.597</ele>
        <time>2018-08-01T15:42:19Z</time>
      </trkpt>
      <trkpt lat="47.12603" lon="6.82465">
        <ele>1025.623</ele>
        <time>2018-08-01T15:42:20Z</time>
      </trkpt>
      <trkpt lat="47.12607" lon="6.82471">
        <ele>1025.725</ele>
        <time>2018-08-01T15:42:21Z</time>
      </trkpt>
      <trkpt lat="47.12611" lon="6.82475">
        <ele>1025.908</ele>
        <time>2018-08-01T15:42:22Z</time>
      </trkpt>
      <trkpt lat="47.12615" lon="6.8248">
        <ele>1026.011</ele>
        <time>2018-08-01T15:42:23Z</time>
      </trkpt>
      <trkpt lat="47.12618" lon="6.82486">
        <ele>1026.126</ele>
        <time>2018-08-01T15:42:24Z</time>
      </trkpt>
      <trkpt lat="47.12622" lon="6.82492">
        <ele>1026.25</ele>
        <time>2018-08-01T15:42:25Z</time>
      </trkpt>
      <trkpt lat="47.12624" lon="6.82499">
        <ele>1026.552</ele>
        <time>2018-08-01T15:42:26Z</time>
      </trkpt>
      <trkpt lat="47.12626" lon="6.82505">
        <ele>1026.788</ele>
        <time>2018-08-01T15:42:27Z</time>
      </trkpt>
      <trkpt lat="47.12628" lon="6.82511">
        <ele>1026.955</ele>
        <time>2018-08-01T15:42:28Z</time>
      </trkpt>
      <trkpt lat="47.12629" lon="6.82517">
        <ele>1027.17</ele>
        <time>2018-08-01T15:42:29Z</time>
      </trkpt>
      <trkpt lat="47.12629" lon="6.82524">
        <ele>1027.489</ele>
        <time>2018-08-01T15:42:30Z</time>
      </trkpt>
      <trkpt lat="47.12629" lon="6.82531">
        <ele>1027.656</ele>
        <time>2018-08-01T15:42:31Z</time>
      </trkpt>
      <trkpt lat="47.12629" lon="6.82538">
        <ele>1027.959</ele>
        <time>2018-08-01T15:42:32Z</time>
      </trkpt>
      <trkpt lat="47.12628" lon="6.82545">
        <ele>1028.214</ele>
        <time>2018-08-01T15:42:33Z</time>
      </trkpt>
      <trkpt lat="47.12627" lon="6.82552">
        <ele>1028.608</ele>
        <time>2018-08-01T15:42:34Z</time>
      </trkpt>
      <trkpt lat="47.12626" lon="6.82559">
        <ele>1029.057</ele>
        <time>2018-08-01T15:42:35Z</time>
      </trkpt>
      <trkpt lat="47.12623" lon="6.82565">
        <ele>1029.052</ele>
        <time>2018-08-01T15:42:36Z</time>
      </trkpt>
      <trkpt lat="47.12619" lon="6.82577">
        <ele>1029.746</ele>
        <time>2018-08-01T15:42:38Z</time>
      </trkpt>
      <trkpt lat="47.12614" lon="6.82587">
        <ele>1030.358</ele>
        <time>2018-08-01T15:42:40Z</time>
      </trkpt>
      <trkpt lat="47.1261" lon="6.82593">
        <ele>1030.584</ele>
        <time>2018-08-01T15:42:41Z</time>
      </trkpt>
      <trkpt lat="47.12603" lon="6.82601">
        <ele>1030.931</ele>
        <time>2018-08-01T15:42:43Z</time>
      </trkpt>
      <trkpt lat="47.12599" lon="6.82607">
        <ele>1031.196</ele>
        <time>2018-08-01T15:42:44Z</time>
      </trkpt>
      <trkpt lat="47.12596" lon="6.82612">
        <ele>1031.335</ele>
        <time>2018-08-01T15:42:45Z</time>
      </trkpt>
      <trkpt lat="47.12592" lon="6.82618">
        <ele>1031.533</ele>
        <time>2018-08-01T15:42:46Z</time>
      </trkpt>
      <trkpt lat="47.12585" lon="6.82628">
        <ele>1032.023</ele>
        <time>2018-08-01T15:42:48Z</time>
      </trkpt>
      <trkpt lat="47.12583" lon="6.82635">
        <ele>1032.315</ele>
        <time>2018-08-01T15:42:49Z</time>
      </trkpt>
      <trkpt lat="47.12578" lon="6.82643">
        <ele>1032.808</ele>
        <time>2018-08-01T15:42:51Z</time>
      </trkpt>
      <trkpt lat="47.12576" lon="6.82649">
        <ele>1033.175</ele>
        <time>2018-08-01T15:42:52Z</time>
      </trkpt>
      <trkpt lat="47.12575" lon="6.82656">
        <ele>1033.32</ele>
        <time>2018-08-01T15:42:53Z</time>
      </trkpt>
      <trkpt lat="47.12578" lon="6.82664">
        <ele>1033.694</ele>
        <time>2018-08-01T15:42:54Z</time>
      </trkpt>
      <trkpt lat="47.12575" lon="6.82675">
        <ele>1034.156</ele>
        <time>2018-08-01T15:42:56Z</time>
      </trkpt>
      <trkpt lat="47.12573" lon="6.82682">
        <ele>1034.372</ele>
        <time>2018-08-01T15:42:57Z</time>
      </trkpt>
      <trkpt lat="47.12571" lon="6.82694">
        <ele>1034.859</ele>
        <time>2018-08-01T15:42:59Z</time>
      </trkpt>
      <trkpt lat="47.12566" lon="6.82704">
        <ele>1035.424</ele>
        <time>2018-08-01T15:43:01Z</time>
      </trkpt>
      <trkpt lat="47.12561" lon="6.82716">
        <ele>1036.123</ele>
        <time>2018-08-01T15:43:03Z</time>
      </trkpt>
      <trkpt lat="47.12558" lon="6.82723">
        <ele>1036.429</ele>
        <time>2018-08-01T15:43:04Z</time>
      </trkpt>
      <trkpt lat="47.12556" lon="6.8273">
        <ele>1036.4</ele>
        <time>2018-08-01T15:43:05Z</time>
      </trkpt>
      <trkpt lat="47.12553" lon="6.82736">
        <ele>1036.62</ele>
        <time>2018-08-01T15:43:06Z</time>
      </trkpt>
      <trkpt lat="47.1255" lon="6.82742">
        <ele>1036.908</ele>
        <time>2018-08-01T15:43:07Z</time>
      </trkpt>
      <trkpt lat="47.12546" lon="6.82746">
        <ele>1037.274</ele>
        <time>2018-08-01T15:43:08Z</time>
      </trkpt>
      <trkpt lat="47.12542" lon="6.82751">
        <ele>1037.479</ele>
        <time>2018-08-01T15:43:09Z</time>
      </trkpt>
      <trkpt lat="47.1254" lon="6.82757">
        <ele>1037.623</ele>
        <time>2018-08-01T15:43:10Z</time>
      </trkpt>
      <trkpt lat="47.12537" lon="6.82764">
        <ele>1037.925</ele>
        <time>2018-08-01T15:43:11Z</time>
      </trkpt>
      <trkpt lat="47.12534" lon="6.8277">
        <ele>1038.121</ele>
        <time>2018-08-01T15:43:12Z</time>
      </trkpt>
      <trkpt lat="47.1253" lon="6.82775">
        <ele>1038.388</ele>
        <time>2018-08-01T15:43:13Z</time>
      </trkpt>
      <trkpt lat="47.12526" lon="6.8278">
        <ele>1038.663</ele>
        <time>2018-08-01T15:43:14Z</time>
      </trkpt>
      <trkpt lat="47.12522" lon="6.82784">
        <ele>1039.042</ele>
        <time>2018-08-01T15:43:15Z</time>
      </trkpt>
      <trkpt lat="47.12519" lon="6.8279">
        <ele>1039.283</ele>
        <time>2018-08-01T15:43:16Z</time>
      </trkpt>
      <trkpt lat="47.12515" lon="6.82794">
        <ele>1039.525</ele>
        <time>2018-08-01T15:43:17Z</time>
      </trkpt>
      <trkpt lat="47.12511" lon="6.82798">
        <ele>1039.817</ele>
        <time>2018-08-01T15:43:18Z</time>
      </trkpt>
      <trkpt lat="47.12507" lon="6.82803">
        <ele>1040.008</ele>
        <time>2018-08-01T15:43:19Z</time>
      </trkpt>
      <trkpt lat="47.12503" lon="6.82809">
        <ele>1040.17</ele>
        <time>2018-08-01T15:43:20Z</time>
      </trkpt>
      <trkpt lat="47.12499" lon="6.82814">
        <ele>1040.525</ele>
        <time>2018-08-01T15:43:21Z</time>
      </trkpt>
      <trkpt lat="47.12495" lon="6.82819">
        <ele>1041.039</ele>
        <time>2018-08-01T15:43:22Z</time>
      </trkpt>
      <trkpt lat="47.12491" lon="6.82823">
        <ele>1041.331</ele>
        <time>2018-08-01T15:43:23Z</time>
      </trkpt>
      <trkpt lat="47.12487" lon="6.82828">
        <ele>1041.627</ele>
        <time>2018-08-01T15:43:24Z</time>
      </trkpt>
      <trkpt lat="47.12484" lon="6.82834">
        <ele>1042.034</ele>
        <time>2018-08-01T15:43:25Z</time>
      </trkpt>
      <trkpt lat="47.12481" lon="6.82839">
        <ele>1042.189</ele>
        <time>2018-08-01T15:43:26Z</time>
      </trkpt>
      <trkpt lat="47.12478" lon="6.82846">
        <ele>1042.168</ele>
        <time>2018-08-01T15:43:27Z</time>
      </trkpt>
      <trkpt lat="47.12475" lon="6.82851">
        <ele>1042.357</ele>
        <time>2018-08-01T15:43:28Z</time>
      </trkpt>
      <trkpt lat="47.12472" lon="6.82857">
        <ele>1042.6</ele>
        <time>2018-08-01T15:43:29Z</time>
      </trkpt>
      <trkpt lat="47.12468" lon="6.82864">
        <ele>1042.82</ele>
        <time>2018-08-01T15:43:30Z</time>
      </trkpt>
      <trkpt lat="47.12465" lon="6.82876">
        <ele>1043.608</ele>
        <time>2018-08-01T15:43:32Z</time>
      </trkpt>
      <trkpt lat="47.12461" lon="6.82887">
        <ele>1044.167</ele>
        <time>2018-08-01T15:43:34Z</time>
      </trkpt>
      <trkpt lat="47.12459" lon="6.82894">
        <ele>1044.662</ele>
        <time>2018-08-01T15:43:35Z</time>
      </trkpt>
      <trkpt lat="47.12457" lon="6.829">
        <ele>1045.156</ele>
        <time>2018-08-01T15:43:36Z</time>
      </trkpt>
      <trkpt lat="47.12454" lon="6.82906">
        <ele>1045.528</ele>
        <time>2018-08-01T15:43:37Z</time>
      </trkpt>
      <trkpt lat="47.12453" lon="6.82913">
        <ele>1045.884</ele>
        <time>2018-08-01T15:43:38Z</time>
      </trkpt>
      <trkpt lat="47.12453" lon="6.82921">
        <ele>1046.061</ele>
        <time>2018-08-01T15:43:39Z</time>
      </trkpt>
      <trkpt lat="47.12452" lon="6.82929">
        <ele>1046.226</ele>
        <time>2018-08-01T15:43:40Z</time>
      </trkpt>
      <trkpt lat="47.12452" lon="6.82936">
        <ele>1046.345</ele>
        <time>2018-08-01T15:43:41Z</time>
      </trkpt>
      <trkpt lat="47.12451" lon="6.82943">
        <ele>1046.671</ele>
        <time>2018-08-01T15:43:42Z</time>
      </trkpt>
      <trkpt lat="47.12449" lon="6.8295">
        <ele>1046.941</ele>
        <time>2018-08-01T15:43:43Z</time>
      </trkpt>
      <trkpt lat="47.12447" lon="6.82956">
        <ele>1047.315</ele>
        <time>2018-08-01T15:43:44Z</time>
      </trkpt>
      <trkpt lat="47.12446" lon="6.82963">
        <ele>1047.708</ele>
        <time>2018-08-01T15:43:45Z</time>
      </trkpt>
      <trkpt lat="47.12444" lon="6.82969">
        <ele>1048.159</ele>
        <time>2018-08-01T15:43:46Z</time>
      </trkpt>
      <trkpt lat="47.12442" lon="6.82976">
        <ele>1048.584</ele>
        <time>2018-08-01T15:43:47Z</time>
      </trkpt>
      <trkpt lat="47.1244" lon="6.82984">
        <ele>1048.738</ele>
        <time>2018-08-01T15:43:48Z</time>
      </trkpt>
      <trkpt lat="47.12439" lon="6.82991">
        <ele>1049.03</ele>
        <time>2018-08-01T15:43:49Z</time>
      </trkpt>
      <trkpt lat="47.12437" lon="6.82997">
        <ele>1049.126</ele>
        <time>2018-08-01T15:43:50Z</time>
      </trkpt>
      <trkpt lat="47.12435" lon="6.83004">
        <ele>1049.183</ele>
        <time>2018-08-01T15:43:51Z</time>
      </trkpt>
      <trkpt lat="47.12434" lon="6.83016">
        <ele>1049.168</ele>
        <time>2018-08-01T15:43:53Z</time>
      </trkpt>
      <trkpt lat="47.1243" lon="6.83028">
        <ele>1048.567</ele>
        <time>2018-08-01T15:43:55Z</time>
      </trkpt>
      <trkpt lat="47.12428" lon="6.83035">
        <ele>1048.348</ele>
        <time>2018-08-01T15:43:56Z</time>
      </trkpt>
      <trkpt lat="47.12425" lon="6.83042">
        <ele>1048.061</ele>
        <time>2018-08-01T15:43:57Z</time>
      </trkpt>
      <trkpt lat="47.12422" lon="6.83048">
        <ele>1047.717</ele>
        <time>2018-08-01T15:43:58Z</time>
      </trkpt>
      <trkpt lat="47.12419" lon="6.83054">
        <ele>1047.608</ele>
        <time>2018-08-01T15:43:59Z</time>
      </trkpt>
      <trkpt lat="47.12416" lon="6.83061">
        <ele>1047.626</ele>
        <time>2018-08-01T15:44:00Z</time>
      </trkpt>
      <trkpt lat="47.12415" lon="6.83068">
        <ele>1047.571</ele>
        <time>2018-08-01T15:44:01Z</time>
      </trkpt>
      <trkpt lat="47.12411" lon="6.83074">
        <ele>1047.555</ele>
        <time>2018-08-01T15:44:02Z</time>
      </trkpt>
      <trkpt lat="47.12407" lon="6.8308">
        <ele>1047.527</ele>
        <time>2018-08-01T15:44:03Z</time>
      </trkpt>
      <trkpt lat="47.12403" lon="6.83087">
        <ele>1047.533</ele>
        <time>2018-08-01T15:44:04Z</time>
      </trkpt>
      <trkpt lat="47.124" lon="6.83093">
        <ele>1047.52</ele>
        <time>2018-08-01T15:44:05Z</time>
      </trkpt>
      <trkpt lat="47.12396" lon="6.831">
        <ele>1047.755</ele>
        <time>2018-08-01T15:44:06Z</time>
      </trkpt>
      <trkpt lat="47.12393" lon="6.83105">
        <ele>1047.774</ele>
        <time>2018-08-01T15:44:07Z</time>
      </trkpt>
      <trkpt lat="47.1239" lon="6.8311">
        <ele>1047.564</ele>
        <time>2018-08-01T15:44:08Z</time>
      </trkpt>
      <trkpt lat="47.12387" lon="6.83116">
        <ele>1047.206</ele>
        <time>2018-08-01T15:44:09Z</time>
      </trkpt>
      <trkpt lat="47.12383" lon="6.83122">
        <ele>1047.016</ele>
        <time>2018-08-01T15:44:10Z</time>
      </trkpt>
      <trkpt lat="47.1238" lon="6.83128">
        <ele>1046.708</ele>
        <time>2018-08-01T15:44:11Z</time>
      </trkpt>
      <trkpt lat="47.12377" lon="6.83133">
        <ele>1046.748</ele>
        <time>2018-08-01T15:44:12Z</time>
      </trkpt>
      <trkpt lat="47.12374" lon="6.83139">
        <ele>1046.743</ele>
        <time>2018-08-01T15:44:13Z</time>
      </trkpt>
      <trkpt lat="47.1237" lon="6.83145">
        <ele>1047.157</ele>
        <time>2018-08-01T15:44:14Z</time>
      </trkpt>
      <trkpt lat="47.12366" lon="6.83151">
        <ele>1047.579</ele>
        <time>2018-08-01T15:44:15Z</time>
      </trkpt>
      <trkpt lat="47.12363" lon="6.83157">
        <ele>1047.765</ele>
        <time>2018-08-01T15:44:16Z</time>
      </trkpt>
      <trkpt lat="47.12359" lon="6.83163">
        <ele>1047.842</ele>
        <time>2018-08-01T15:44:17Z</time>
      </trkpt>
      <trkpt lat="47.12356" lon="6.8317">
        <ele>1048.077</ele>
        <time>2018-08-01T15:44:18Z</time>
      </trkpt>
      <trkpt lat="47.12352" lon="6.83176">
        <ele>1048.276</ele>
        <time>2018-08-01T15:44:19Z</time>
      </trkpt>
      <trkpt lat="47.12348" lon="6.83182">
        <ele>1048.223</ele>
        <time>2018-08-01T15:44:20Z</time>
      </trkpt>
      <trkpt lat="47.12343" lon="6.83189">
        <ele>1048.283</ele>
        <time>2018-08-01T15:44:21Z</time>
      </trkpt>
      <trkpt lat="47.12339" lon="6.83195">
        <ele>1048.211</ele>
        <time>2018-08-01T15:44:22Z</time>
      </trkpt>
      <trkpt lat="47.12334" lon="6.832">
        <ele>1048.008</ele>
        <time>2018-08-01T15:44:23Z</time>
      </trkpt>
      <trkpt lat="47.12331" lon="6.83207">
        <ele>1047.834</ele>
        <time>2018-08-01T15:44:24Z</time>
      </trkpt>
      <trkpt lat="47.12328" lon="6.83214">
        <ele>1047.699</ele>
        <time>2018-08-01T15:44:25Z</time>
      </trkpt>
      <trkpt lat="47.12323" lon="6.8322">
        <ele>1047.463</ele>
        <time>2018-08-01T15:44:26Z</time>
      </trkpt>
      <trkpt lat="47.12319" lon="6.83226">
        <ele>1047.325</ele>
        <time>2018-08-01T15:44:27Z</time>
      </trkpt>
      <trkpt lat="47.12313" lon="6.83231">
        <ele>1047.281</ele>
        <time>2018-08-01T15:44:28Z</time>
      </trkpt>
      <trkpt lat="47.1231" lon="6.83237">
        <ele>1046.968</ele>
        <time>2018-08-01T15:44:29Z</time>
      </trkpt>
      <trkpt lat="47.12307" lon="6.83243">
        <ele>1046.953</ele>
        <time>2018-08-01T15:44:30Z</time>
      </trkpt>
      <trkpt lat="47.12304" lon="6.83248">
        <ele>1046.672</ele>
        <time>2018-08-01T15:44:31Z</time>
      </trkpt>
      <trkpt lat="47.12301" lon="6.83254">
        <ele>1046.472</ele>
        <time>2018-08-01T15:44:32Z</time>
      </trkpt>
      <trkpt lat="47.12298" lon="6.83262">
        <ele>1046.213</ele>
        <time>2018-08-01T15:44:33Z</time>
      </trkpt>
      <trkpt lat="47.12294" lon="6.83267">
        <ele>1046.114</ele>
        <time>2018-08-01T15:44:34Z</time>
      </trkpt>
      <trkpt lat="47.12291" lon="6.83276">
        <ele>1046.208</ele>
        <time>2018-08-01T15:44:36Z</time>
      </trkpt>
      <trkpt lat="47.12287" lon="6.83286">
        <ele>1046.289</ele>
        <time>2018-08-01T15:44:38Z</time>
      </trkpt>
      <trkpt lat="47.12283" lon="6.83296">
        <ele>1046.184</ele>
        <time>2018-08-01T15:44:40Z</time>
      </trkpt>
      <trkpt lat="47.1228" lon="6.83306">
        <ele>1045.958</ele>
        <time>2018-08-01T15:44:42Z</time>
      </trkpt>
      <trkpt lat="47.12276" lon="6.83318">
        <ele>1046.15</ele>
        <time>2018-08-01T15:44:44Z</time>
      </trkpt>
      <trkpt lat="47.12275" lon="6.83325">
        <ele>1046.416</ele>
        <time>2018-08-01T15:44:45Z</time>
      </trkpt>
      <trkpt lat="47.12273" lon="6.83333">
        <ele>1046.823</ele>
        <time>2018-08-01T15:44:46Z</time>
      </trkpt>
      <trkpt lat="47.1227" lon="6.8334">
        <ele>1047.118</ele>
        <time>2018-08-01T15:44:47Z</time>
      </trkpt>
      <trkpt lat="47.12267" lon="6.83347">
        <ele>1047.487</ele>
        <time>2018-08-01T15:44:48Z</time>
      </trkpt>
      <trkpt lat="47.12264" lon="6.83355">
        <ele>1047.434</ele>
        <time>2018-08-01T15:44:49Z</time>
      </trkpt>
      <trkpt lat="47.12261" lon="6.83363">
        <ele>1047.355</ele>
        <time>2018-08-01T15:44:50Z</time>
      </trkpt>
      <trkpt lat="47.12258" lon="6.83371">
        <ele>1046.91</ele>
        <time>2018-08-01T15:44:51Z</time>
      </trkpt>
      <trkpt lat="47.12256" lon="6.83378">
        <ele>1046.608</ele>
        <time>2018-08-01T15:44:52Z</time>
      </trkpt>
      <trkpt lat="47.12253" lon="6.83386">
        <ele>1046.425</ele>
        <time>2018-08-01T15:44:53Z</time>
      </trkpt>
      <trkpt lat="47.12249" lon="6.83393">
        <ele>1046.14</ele>
        <time>2018-08-01T15:44:54Z</time>
      </trkpt>
      <trkpt lat="47.12246" lon="6.83401">
        <ele>1045.924</ele>
        <time>2018-08-01T15:44:55Z</time>
      </trkpt>
      <trkpt lat="47.12242" lon="6.83409">
        <ele>1045.956</ele>
        <time>2018-08-01T15:44:56Z</time>
      </trkpt>
      <trkpt lat="47.12238" lon="6.83415">
        <ele>1045.932</ele>
        <time>2018-08-01T15:44:57Z</time>
      </trkpt>
      <trkpt lat="47.12235" lon="6.83422">
        <ele>1045.879</ele>
        <time>2018-08-01T15:44:58Z</time>
      </trkpt>
      <trkpt lat="47.1223" lon="6.83429">
        <ele>1045.774</ele>
        <time>2018-08-01T15:44:59Z</time>
      </trkpt>
      <trkpt lat="47.12226" lon="6.83436">
        <ele>1045.683</ele>
        <time>2018-08-01T15:45:00Z</time>
      </trkpt>
      <trkpt lat="47.12219" lon="6.83442">
        <ele>1045.638</ele>
        <time>2018-08-01T15:45:01Z</time>
      </trkpt>
      <trkpt lat="47.12214" lon="6.83445">
        <ele>1045.67</ele>
        <time>2018-08-01T15:45:02Z</time>
      </trkpt>
      <trkpt lat="47.12208" lon="6.8345">
        <ele>1045.617</ele>
        <time>2018-08-01T15:45:03Z</time>
      </trkpt>
      <trkpt lat="47.12203" lon="6.83456">
        <ele>1045.608</ele>
        <time>2018-08-01T15:45:04Z</time>
      </trkpt>
      <trkpt lat="47.12198" lon="6.83461">
        <ele>1045.665</ele>
        <time>2018-08-01T15:45:05Z</time>
      </trkpt>
      <trkpt lat="47.12192" lon="6.83466">
        <ele>1045.51</ele>
        <time>2018-08-01T15:45:06Z</time>
      </trkpt>
      <trkpt lat="47.12188" lon="6.83471">
        <ele>1045.574</ele>
        <time>2018-08-01T15:45:07Z</time>
      </trkpt>
      <trkpt lat="47.12183" lon="6.83475">
        <ele>1045.556</ele>
        <time>2018-08-01T15:45:08Z</time>
      </trkpt>
      <trkpt lat="47.12178" lon="6.8348">
        <ele>1045.512</ele>
        <time>2018-08-01T15:45:09Z</time>
      </trkpt>
      <trkpt lat="47.12174" lon="6.83485">
        <ele>1045.549</ele>
        <time>2018-08-01T15:45:10Z</time>
      </trkpt>
      <trkpt lat="47.1217" lon="6.8349">
        <ele>1045.644</ele>
        <time>2018-08-01T15:45:11Z</time>
      </trkpt>
      <trkpt lat="47.12165" lon="6.83496">
        <ele>1045.723</ele>
        <time>2018-08-01T15:45:12Z</time>
      </trkpt>
      <trkpt lat="47.12159" lon="6.835">
        <ele>1045.745</ele>
        <time>2018-08-01T15:45:13Z</time>
      </trkpt>
      <trkpt lat="47.12154" lon="6.83506">
        <ele>1045.847</ele>
        <time>2018-08-01T15:45:14Z</time>
      </trkpt>
      <trkpt lat="47.1215" lon="6.83513">
        <ele>1045.911</ele>
        <time>2018-08-01T15:45:15Z</time>
      </trkpt>
      <trkpt lat="47.12145" lon="6.83519">
        <ele>1046.008</ele>
        <time>2018-08-01T15:45:16Z</time>
      </trkpt>
      <trkpt lat="47.12138" lon="6.83528">
        <ele>1046.236</ele>
        <time>2018-08-01T15:45:17Z</time>
      </trkpt>
      <trkpt lat="47.12133" lon="6.83536">
        <ele>1046.431</ele>
        <time>2018-08-01T15:45:18Z</time>
      </trkpt>
      <trkpt lat="47.12129" lon="6.83541">
        <ele>1046.645</ele>
        <time>2018-08-01T15:45:19Z</time>
      </trkpt>
      <trkpt lat="47.12124" lon="6.83548">
        <ele>1046.857</ele>
        <time>2018-08-01T15:45:20Z</time>
      </trkpt>
      <trkpt lat="47.1212" lon="6.83555">
        <ele>1046.923</ele>
        <time>2018-08-01T15:45:21Z</time>
      </trkpt>
      <trkpt lat="47.12117" lon="6.83562">
        <ele>1046.98</ele>
        <time>2018-08-01T15:45:22Z</time>
      </trkpt>
      <trkpt lat="47.12114" lon="6.83568">
        <ele>1046.835</ele>
        <time>2018-08-01T15:45:23Z</time>
      </trkpt>
      <trkpt lat="47.1211" lon="6.83575">
        <ele>1046.724</ele>
        <time>2018-08-01T15:45:24Z</time>
      </trkpt>
      <trkpt lat="47.12106" lon="6.83582">
        <ele>1046.688</ele>
        <time>2018-08-01T15:45:25Z</time>
      </trkpt>
      <trkpt lat="47.12103" lon="6.83589">
        <ele>1046.524</ele>
        <time>2018-08-01T15:45:26Z</time>
      </trkpt>
      <trkpt lat="47.12099" lon="6.83595">
        <ele>1046.526</ele>
        <time>2018-08-01T15:45:27Z</time>
      </trkpt>
      <trkpt lat="47.12095" lon="6.83602">
        <ele>1046.408</ele>
        <time>2018-08-01T15:45:28Z</time>
      </trkpt>
      <trkpt lat="47.1209" lon="6.83609">
        <ele>1046.34</ele>
        <time>2018-08-01T15:45:29Z</time>
      </trkpt>
      <trkpt lat="47.12085" lon="6.83616">
        <ele>1046.225</ele>
        <time>2018-08-01T15:45:30Z</time>
      </trkpt>
      <trkpt lat="47.1208" lon="6.83622">
        <ele>1046.279</ele>
        <time>2018-08-01T15:45:31Z</time>
      </trkpt>
      <trkpt lat="47.12075" lon="6.83627">
        <ele>1046.271</ele>
        <time>2018-08-01T15:45:32Z</time>
      </trkpt>
      <trkpt lat="47.12069" lon="6.83632">
        <ele>1046.357</ele>
        <time>2018-08-01T15:45:33Z</time>
      </trkpt>
      <trkpt lat="47.12063" lon="6.83638">
        <ele>1046.364</ele>
        <time>2018-08-01T15:45:34Z</time>
      </trkpt>
      <trkpt lat="47.12056" lon="6.83641">
        <ele>1046.399</ele>
        <time>2018-08-01T15:45:35Z</time>
      </trkpt>
      <trkpt lat="47.12049" lon="6.83645">
        <ele>1046.278</ele>
        <time>2018-08-01T15:45:36Z</time>
      </trkpt>
      <trkpt lat="47.12041" lon="6.83648">
        <ele>1046.055</ele>
        <time>2018-08-01T15:45:37Z</time>
      </trkpt>
      <trkpt lat="47.12033" lon="6.83651">
        <ele>1045.407</ele>
        <time>2018-08-01T15:45:38Z</time>
      </trkpt>
      <trkpt lat="47.12024" lon="6.83652">
        <ele>1044.717</ele>
        <time>2018-08-01T15:45:39Z</time>
      </trkpt>
      <trkpt lat="47.12014" lon="6.83652">
        <ele>1044.208</ele>
        <time>2018-08-01T15:45:40Z</time>
      </trkpt>
      <trkpt lat="47.12005" lon="6.8365">
        <ele>1043.657</ele>
        <time>2018-08-01T15:45:41Z</time>
      </trkpt>
      <trkpt lat="47.11995" lon="6.83648">
        <ele>1042.942</ele>
        <time>2018-08-01T15:45:42Z</time>
      </trkpt>
      <trkpt lat="47.11986" lon="6.83644">
        <ele>1042.316</ele>
        <time>2018-08-01T15:45:43Z</time>
      </trkpt>
      <trkpt lat="47.11976" lon="6.8364">
        <ele>1041.818</ele>
        <time>2018-08-01T15:45:44Z</time>
      </trkpt>
      <trkpt lat="47.11967" lon="6.83636">
        <ele>1041.124</ele>
        <time>2018-08-01T15:45:45Z</time>
      </trkpt>
      <trkpt lat="47.11957" lon="6.83632">
        <ele>1040.461</ele>
        <time>2018-08-01T15:45:46Z</time>
      </trkpt>
      <trkpt lat="47.11946" lon="6.83627">
        <ele>1039.726</ele>
        <time>2018-08-01T15:45:47Z</time>
      </trkpt>
      <trkpt lat="47.11936" lon="6.83621">
        <ele>1039.055</ele>
        <time>2018-08-01T15:45:48Z</time>
      </trkpt>
      <trkpt lat="47.11926" lon="6.83615">
        <ele>1038.411</ele>
        <time>2018-08-01T15:45:49Z</time>
      </trkpt>
      <trkpt lat="47.11916" lon="6.83609">
        <ele>1038.021</ele>
        <time>2018-08-01T15:45:50Z</time>
      </trkpt>
      <trkpt lat="47.11905" lon="6.83601">
        <ele>1037.803</ele>
        <time>2018-08-01T15:45:51Z</time>
      </trkpt>
      <trkpt lat="47.11896" lon="6.83594">
        <ele>1037.508</ele>
        <time>2018-08-01T15:45:52Z</time>
      </trkpt>
      <trkpt lat="47.11885" lon="6.83584">
        <ele>1037.563</ele>
        <time>2018-08-01T15:45:53Z</time>
      </trkpt>
      <trkpt lat="47.11876" lon="6.83575">
        <ele>1037.248</ele>
        <time>2018-08-01T15:45:54Z</time>
      </trkpt>
      <trkpt lat="47.11866" lon="6.83566">
        <ele>1036.782</ele>
        <time>2018-08-01T15:45:55Z</time>
      </trkpt>
      <trkpt lat="47.11856" lon="6.83556">
        <ele>1035.974</ele>
        <time>2018-08-01T15:45:56Z</time>
      </trkpt>
      <trkpt lat="47.11847" lon="6.83546">
        <ele>1034.92</ele>
        <time>2018-08-01T15:45:57Z</time>
      </trkpt>
      <trkpt lat="47.11836" lon="6.83535">
        <ele>1033.897</ele>
        <time>2018-08-01T15:45:58Z</time>
      </trkpt>
      <trkpt lat="47.11826" lon="6.83524">
        <ele>1032.862</ele>
        <time>2018-08-01T15:45:59Z</time>
      </trkpt>
      <trkpt lat="47.11816" lon="6.83514">
        <ele>1032.051</ele>
        <time>2018-08-01T15:46:00Z</time>
      </trkpt>
      <trkpt lat="47.11805" lon="6.83502">
        <ele>1031.337</ele>
        <time>2018-08-01T15:46:01Z</time>
      </trkpt>
      <trkpt lat="47.11795" lon="6.83492">
        <ele>1030.749</ele>
        <time>2018-08-01T15:46:02Z</time>
      </trkpt>
      <trkpt lat="47.11784" lon="6.83484">
        <ele>1030.113</ele>
        <time>2018-08-01T15:46:03Z</time>
      </trkpt>
      <trkpt lat="47.11772" lon="6.83473">
        <ele>1029.508</ele>
        <time>2018-08-01T15:46:04Z</time>
      </trkpt>
      <trkpt lat="47.1176" lon="6.83466">
        <ele>1028.785</ele>
        <time>2018-08-01T15:46:05Z</time>
      </trkpt>
      <trkpt lat="47.11748" lon="6.83461">
        <ele>1027.83</ele>
        <time>2018-08-01T15:46:06Z</time>
      </trkpt>
      <trkpt lat="47.11736" lon="6.83459">
        <ele>1027.034</ele>
        <time>2018-08-01T15:46:07Z</time>
      </trkpt>
      <trkpt lat="47.11724" lon="6.8346">
        <ele>1026.456</ele>
        <time>2018-08-01T15:46:08Z</time>
      </trkpt>
      <trkpt lat="47.11713" lon="6.83462">
        <ele>1025.912</ele>
        <time>2018-08-01T15:46:09Z</time>
      </trkpt>
      <trkpt lat="47.11704" lon="6.83466">
        <ele>1025.619</ele>
        <time>2018-08-01T15:46:10Z</time>
      </trkpt>
      <trkpt lat="47.11694" lon="6.8347">
        <ele>1025.444</ele>
        <time>2018-08-01T15:46:11Z</time>
      </trkpt>
      <trkpt lat="47.11685" lon="6.83478">
        <ele>1025.463</ele>
        <time>2018-08-01T15:46:12Z</time>
      </trkpt>
      <trkpt lat="47.11678" lon="6.83486">
        <ele>1025.579</ele>
        <time>2018-08-01T15:46:13Z</time>
      </trkpt>
      <trkpt lat="47.11671" lon="6.83494">
        <ele>1025.505</ele>
        <time>2018-08-01T15:46:14Z</time>
      </trkpt>
      <trkpt lat="47.11665" lon="6.83504">
        <ele>1025.525</ele>
        <time>2018-08-01T15:46:15Z</time>
      </trkpt>
      <trkpt lat="47.11659" lon="6.83514">
        <ele>1025.308</ele>
        <time>2018-08-01T15:46:16Z</time>
      </trkpt>
      <trkpt lat="47.11654" lon="6.83523">
        <ele>1025.319</ele>
        <time>2018-08-01T15:46:17Z</time>
      </trkpt>
      <trkpt lat="47.11649" lon="6.83534">
        <ele>1024.934</ele>
        <time>2018-08-01T15:46:18Z</time>
      </trkpt>
      <trkpt lat="47.11646" lon="6.83545">
        <ele>1024.568</ele>
        <time>2018-08-01T15:46:19Z</time>
      </trkpt>
      <trkpt lat="47.11644" lon="6.83555">
        <ele>1024.33</ele>
        <time>2018-08-01T15:46:20Z</time>
      </trkpt>
      <trkpt lat="47.11642" lon="6.83565">
        <ele>1024.366</ele>
        <time>2018-08-01T15:46:21Z</time>
      </trkpt>
      <trkpt lat="47.11641" lon="6.83576">
        <ele>1024.233</ele>
        <time>2018-08-01T15:46:22Z</time>
      </trkpt>
      <trkpt lat="47.11641" lon="6.83587">
        <ele>1024.168</ele>
        <time>2018-08-01T15:46:23Z</time>
      </trkpt>
      <trkpt lat="47.11641" lon="6.83597">
        <ele>1024.177</ele>
        <time>2018-08-01T15:46:24Z</time>
      </trkpt>
      <trkpt lat="47.11641" lon="6.83608">
        <ele>1024.274</ele>
        <time>2018-08-01T15:46:25Z</time>
      </trkpt>
      <trkpt lat="47.1164" lon="6.83619">
        <ele>1024.356</ele>
        <time>2018-08-01T15:46:26Z</time>
      </trkpt>
      <trkpt lat="47.11641" lon="6.83629">
        <ele>1024.421</ele>
        <time>2018-08-01T15:46:27Z</time>
      </trkpt>
      <trkpt lat="47.11642" lon="6.83639">
        <ele>1024.408</ele>
        <time>2018-08-01T15:46:28Z</time>
      </trkpt>
      <trkpt lat="47.11643" lon="6.83649">
        <ele>1024.469</ele>
        <time>2018-08-01T15:46:29Z</time>
      </trkpt>
      <trkpt lat="47.11643" lon="6.83659">
        <ele>1024.494</ele>
        <time>2018-08-01T15:46:30Z</time>
      </trkpt>
      <trkpt lat="47.11644" lon="6.83669">
        <ele>1024.238</ele>
        <time>2018-08-01T15:46:31Z</time>
      </trkpt>
      <trkpt lat="47.11646" lon="6.8368">
        <ele>1024.14</ele>
        <time>2018-08-01T15:46:32Z</time>
      </trkpt>
      <trkpt lat="47.11648" lon="6.8369">
        <ele>1023.986</ele>
        <time>2018-08-01T15:46:33Z</time>
      </trkpt>
      <trkpt lat="47.1165" lon="6.83699">
        <ele>1023.763</ele>
        <time>2018-08-01T15:46:34Z</time>
      </trkpt>
      <trkpt lat="47.1165" lon="6.83708">
        <ele>1023.528</ele>
        <time>2018-08-01T15:46:35Z</time>
      </trkpt>
      <trkpt lat="47.11651" lon="6.83717">
        <ele>1023.437</ele>
        <time>2018-08-01T15:46:36Z</time>
      </trkpt>
      <trkpt lat="47.11652" lon="6.83726">
        <ele>1023.367</ele>
        <time>2018-08-01T15:46:37Z</time>
      </trkpt>
      <trkpt lat="47.11653" lon="6.83735">
        <ele>1023.381</ele>
        <time>2018-08-01T15:46:38Z</time>
      </trkpt>
      <trkpt lat="47.11655" lon="6.83744">
        <ele>1023.519</ele>
        <time>2018-08-01T15:46:39Z</time>
      </trkpt>
      <trkpt lat="47.11658" lon="6.83752">
        <ele>1023.908</ele>
        <time>2018-08-01T15:46:40Z</time>
      </trkpt>
      <trkpt lat="47.11659" lon="6.8376">
        <ele>1024.248</ele>
        <time>2018-08-01T15:46:41Z</time>
      </trkpt>
      <trkpt lat="47.11661" lon="6.8377">
        <ele>1024.373</ele>
        <time>2018-08-01T15:46:42Z</time>
      </trkpt>
      <trkpt lat="47.11663" lon="6.83779">
        <ele>1024.347</ele>
        <time>2018-08-01T15:46:43Z</time>
      </trkpt>
      <trkpt lat="47.11665" lon="6.83788">
        <ele>1024.279</ele>
        <time>2018-08-01T15:46:44Z</time>
      </trkpt>
      <trkpt lat="47.11666" lon="6.83795">
        <ele>1023.995</ele>
        <time>2018-08-01T15:46:45Z</time>
      </trkpt>
      <trkpt lat="47.11667" lon="6.83804">
        <ele>1023.682</ele>
        <time>2018-08-01T15:46:46Z</time>
      </trkpt>
      <trkpt lat="47.11667" lon="6.83813">
        <ele>1023.697</ele>
        <time>2018-08-01T15:46:47Z</time>
      </trkpt>
      <trkpt lat="47.11669" lon="6.83822">
        <ele>1023.666</ele>
        <time>2018-08-01T15:46:48Z</time>
      </trkpt>
      <trkpt lat="47.11672" lon="6.8383">
        <ele>1023.697</ele>
        <time>2018-08-01T15:46:49Z</time>
      </trkpt>
      <trkpt lat="47.11673" lon="6.8384">
        <ele>1023.523</ele>
        <time>2018-08-01T15:46:50Z</time>
      </trkpt>
      <trkpt lat="47.11676" lon="6.83849">
        <ele>1023.425</ele>
        <time>2018-08-01T15:46:51Z</time>
      </trkpt>
      <trkpt lat="47.1168" lon="6.83857">
        <ele>1023.308</ele>
        <time>2018-08-01T15:46:52Z</time>
      </trkpt>
      <trkpt lat="47.11683" lon="6.83865">
        <ele>1023.211</ele>
        <time>2018-08-01T15:46:53Z</time>
      </trkpt>
      <trkpt lat="47.11687" lon="6.83875">
        <ele>1023.266</ele>
        <time>2018-08-01T15:46:54Z</time>
      </trkpt>
      <trkpt lat="47.11691" lon="6.83884">
        <ele>1023.26</ele>
        <time>2018-08-01T15:46:55Z</time>
      </trkpt>
      <trkpt lat="47.11695" lon="6.83892">
        <ele>1023.352</ele>
        <time>2018-08-01T15:46:56Z</time>
      </trkpt>
      <trkpt lat="47.11696" lon="6.83899">
        <ele>1023.528</ele>
        <time>2018-08-01T15:46:57Z</time>
      </trkpt>
      <trkpt lat="47.11697" lon="6.83906">
        <ele>1023.895</ele>
        <time>2018-08-01T15:46:58Z</time>
      </trkpt>
      <trkpt lat="47.11698" lon="6.83914">
        <ele>1023.95</ele>
        <time>2018-08-01T15:46:59Z</time>
      </trkpt>
      <trkpt lat="47.11698" lon="6.83923">
        <ele>1023.989</ele>
        <time>2018-08-01T15:47:00Z</time>
      </trkpt>
      <trkpt lat="47.117" lon="6.83931">
        <ele>1023.933</ele>
        <time>2018-08-01T15:47:01Z</time>
      </trkpt>
      <trkpt lat="47.117" lon="6.83939">
        <ele>1023.823</ele>
        <time>2018-08-01T15:47:02Z</time>
      </trkpt>
      <trkpt lat="47.11701" lon="6.83948">
        <ele>1023.615</ele>
        <time>2018-08-01T15:47:03Z</time>
      </trkpt>
      <trkpt lat="47.11702" lon="6.83957">
        <ele>1023.408</ele>
        <time>2018-08-01T15:47:04Z</time>
      </trkpt>
      <trkpt lat="47.11701" lon="6.83966">
        <ele>1023.345</ele>
        <time>2018-08-01T15:47:05Z</time>
      </trkpt>
      <trkpt lat="47.117" lon="6.83975">
        <ele>1023.27</ele>
        <time>2018-08-01T15:47:06Z</time>
      </trkpt>
      <trkpt lat="47.11698" lon="6.83984">
        <ele>1023.134</ele>
        <time>2018-08-01T15:47:07Z</time>
      </trkpt>
      <trkpt lat="47.11697" lon="6.83992">
        <ele>1022.976</ele>
        <time>2018-08-01T15:47:08Z</time>
      </trkpt>
      <trkpt lat="47.11694" lon="6.84">
        <ele>1022.762</ele>
        <time>2018-08-01T15:47:09Z</time>
      </trkpt>
      <trkpt lat="47.11691" lon="6.84007">
        <ele>1022.549</ele>
        <time>2018-08-01T15:47:10Z</time>
      </trkpt>
      <trkpt lat="47.11687" lon="6.84016">
        <ele>1022.394</ele>
        <time>2018-08-01T15:47:11Z</time>
      </trkpt>
      <trkpt lat="47.11683" lon="6.84023">
        <ele>1022.173</ele>
        <time>2018-08-01T15:47:12Z</time>
      </trkpt>
      <trkpt lat="47.11678" lon="6.84028">
        <ele>1022.016</ele>
        <time>2018-08-01T15:47:13Z</time>
      </trkpt>
      <trkpt lat="47.11673" lon="6.84033">
        <ele>1021.976</ele>
        <time>2018-08-01T15:47:14Z</time>
      </trkpt>
      <trkpt lat="47.11667" lon="6.84037">
        <ele>1021.913</ele>
        <time>2018-08-01T15:47:15Z</time>
      </trkpt>
      <trkpt lat="47.11662" lon="6.84042">
        <ele>1021.908</ele>
        <time>2018-08-01T15:47:16Z</time>
      </trkpt>
      <trkpt lat="47.11656" lon="6.84044">
        <ele>1021.853</ele>
        <time>2018-08-01T15:47:17Z</time>
      </trkpt>
      <trkpt lat="47.1165" lon="6.84046">
        <ele>1021.848</ele>
        <time>2018-08-01T15:47:18Z</time>
      </trkpt>
      <trkpt lat="47.11643" lon="6.84049">
        <ele>1021.762</ele>
        <time>2018-08-01T15:47:19Z</time>
      </trkpt>
      <trkpt lat="47.11636" lon="6.84051">
        <ele>1021.674</ele>
        <time>2018-08-01T15:47:20Z</time>
      </trkpt>
      <trkpt lat="47.11629" lon="6.84053">
        <ele>1021.45</ele>
        <time>2018-08-01T15:47:21Z</time>
      </trkpt>
      <trkpt lat="47.11622" lon="6.84054">
        <ele>1021.387</ele>
        <time>2018-08-01T15:47:22Z</time>
      </trkpt>
      <trkpt lat="47.11615" lon="6.84055">
        <ele>1021.112</ele>
        <time>2018-08-01T15:47:23Z</time>
      </trkpt>
      <trkpt lat="47.11608" lon="6.84054">
        <ele>1020.981</ele>
        <time>2018-08-01T15:47:24Z</time>
      </trkpt>
      <trkpt lat="47.116" lon="6.84054">
        <ele>1020.741</ele>
        <time>2018-08-01T15:47:25Z</time>
      </trkpt>
      <trkpt lat="47.11593" lon="6.84053">
        <ele>1020.481</ele>
        <time>2018-08-01T15:47:26Z</time>
      </trkpt>
      <trkpt lat="47.11584" lon="6.84052">
        <ele>1019.909</ele>
        <time>2018-08-01T15:47:27Z</time>
      </trkpt>
      <trkpt lat="47.11577" lon="6.8405">
        <ele>1019.608</ele>
        <time>2018-08-01T15:47:28Z</time>
      </trkpt>
      <trkpt lat="47.11569" lon="6.84048">
        <ele>1018.856</ele>
        <time>2018-08-01T15:47:29Z</time>
      </trkpt>
      <trkpt lat="47.11561" lon="6.84046">
        <ele>1018.821</ele>
        <time>2018-08-01T15:47:30Z</time>
      </trkpt>
      <trkpt lat="47.11552" lon="6.84042">
        <ele>1018.235</ele>
        <time>2018-08-01T15:47:31Z</time>
      </trkpt>
      <trkpt lat="47.11543" lon="6.84038">
        <ele>1017.777</ele>
        <time>2018-08-01T15:47:32Z</time>
      </trkpt>
      <trkpt lat="47.11535" lon="6.84034">
        <ele>1017.373</ele>
        <time>2018-08-01T15:47:33Z</time>
      </trkpt>
      <trkpt lat="47.11525" lon="6.84029">
        <ele>1016.84</ele>
        <time>2018-08-01T15:47:34Z</time>
      </trkpt>
      <trkpt lat="47.11516" lon="6.84023">
        <ele>1016.575</ele>
        <time>2018-08-01T15:47:35Z</time>
      </trkpt>
      <trkpt lat="47.11508" lon="6.84018">
        <ele>1016.364</ele>
        <time>2018-08-01T15:47:36Z</time>
      </trkpt>
      <trkpt lat="47.11499" lon="6.84011">
        <ele>1016.022</ele>
        <time>2018-08-01T15:47:37Z</time>
      </trkpt>
      <trkpt lat="47.1149" lon="6.84003">
        <ele>1015.662</ele>
        <time>2018-08-01T15:47:38Z</time>
      </trkpt>
      <trkpt lat="47.11482" lon="6.83996">
        <ele>1015.208</ele>
        <time>2018-08-01T15:47:39Z</time>
      </trkpt>
      <trkpt lat="47.11475" lon="6.83987">
        <ele>1014.208</ele>
        <time>2018-08-01T15:47:40Z</time>
      </trkpt>
      <trkpt lat="47.11467" lon="6.83978">
        <ele>1014.224</ele>
        <time>2018-08-01T15:47:41Z</time>
      </trkpt>
      <trkpt lat="47.11459" lon="6.83968">
        <ele>1013.769</ele>
        <time>2018-08-01T15:47:42Z</time>
      </trkpt>
      <trkpt lat="47.11451" lon="6.83958">
        <ele>1013.273</ele>
        <time>2018-08-01T15:47:43Z</time>
      </trkpt>
      <trkpt lat="47.11443" lon="6.83946">
        <ele>1012.735</ele>
        <time>2018-08-01T15:47:44Z</time>
      </trkpt>
      <trkpt lat="47.11436" lon="6.83934">
        <ele>1012.771</ele>
        <time>2018-08-01T15:47:45Z</time>
      </trkpt>
      <trkpt lat="47.11429" lon="6.83925">
        <ele>1012.498</ele>
        <time>2018-08-01T15:47:46Z</time>
      </trkpt>
      <trkpt lat="47.11422" lon="6.8391">
        <ele>1012.153</ele>
        <time>2018-08-01T15:47:47Z</time>
      </trkpt>
      <trkpt lat="47.11415" lon="6.83897">
        <ele>1011.882</ele>
        <time>2018-08-01T15:47:48Z</time>
      </trkpt>
      <trkpt lat="47.11409" lon="6.83883">
        <ele>1011.889</ele>
        <time>2018-08-01T15:47:49Z</time>
      </trkpt>
      <trkpt lat="47.11404" lon="6.83868">
        <ele>1011.606</ele>
        <time>2018-08-01T15:47:50Z</time>
      </trkpt>
      <trkpt lat="47.11399" lon="6.83854">
        <ele>1011.326</ele>
        <time>2018-08-01T15:47:51Z</time>
      </trkpt>
      <trkpt lat="47.11394" lon="6.8384">
        <ele>1010.808</ele>
        <time>2018-08-01T15:47:52Z</time>
      </trkpt>
      <trkpt lat="47.11389" lon="6.83828">
        <ele>1010.35</ele>
        <time>2018-08-01T15:47:53Z</time>
      </trkpt>
      <trkpt lat="47.11383" lon="6.83813">
        <ele>1009.735</ele>
        <time>2018-08-01T15:47:54Z</time>
      </trkpt>
      <trkpt lat="47.11377" lon="6.83799">
        <ele>1009.049</ele>
        <time>2018-08-01T15:47:55Z</time>
      </trkpt>
      <trkpt lat="47.1137" lon="6.83784">
        <ele>1008.441</ele>
        <time>2018-08-01T15:47:56Z</time>
      </trkpt>
      <trkpt lat="47.11365" lon="6.83769">
        <ele>1007.847</ele>
        <time>2018-08-01T15:47:57Z</time>
      </trkpt>
      <trkpt lat="47.1136" lon="6.83755">
        <ele>1007.264</ele>
        <time>2018-08-01T15:47:58Z</time>
      </trkpt>
      <trkpt lat="47.11355" lon="6.83741">
        <ele>1006.719</ele>
        <time>2018-08-01T15:47:59Z</time>
      </trkpt>
      <trkpt lat="47.11348" lon="6.83726">
        <ele>1006.158</ele>
        <time>2018-08-01T15:48:00Z</time>
      </trkpt>
      <trkpt lat="47.11343" lon="6.83713">
        <ele>1005.576</ele>
        <time>2018-08-01T15:48:01Z</time>
      </trkpt>
      <trkpt lat="47.11335" lon="6.83702">
        <ele>1005.29</ele>
        <time>2018-08-01T15:48:02Z</time>
      </trkpt>
      <trkpt lat="47.11327" lon="6.83688">
        <ele>1004.919</ele>
        <time>2018-08-01T15:48:03Z</time>
      </trkpt>
      <trkpt lat="47.11319" lon="6.83676">
        <ele>1004.508</ele>
        <time>2018-08-01T15:48:04Z</time>
      </trkpt>
      <trkpt lat="47.11312" lon="6.83664">
        <ele>1004.169</ele>
        <time>2018-08-01T15:48:05Z</time>
      </trkpt>
      <trkpt lat="47.11304" lon="6.83651">
        <ele>1003.814</ele>
        <time>2018-08-01T15:48:06Z</time>
      </trkpt>
      <trkpt lat="47.11295" lon="6.83638">
        <ele>1003.218</ele>
        <time>2018-08-01T15:48:07Z</time>
      </trkpt>
      <trkpt lat="47.11288" lon="6.83627">
        <ele>1002.65</ele>
        <time>2018-08-01T15:48:08Z</time>
      </trkpt>
      <trkpt lat="47.1128" lon="6.83615">
        <ele>1002.086</ele>
        <time>2018-08-01T15:48:09Z</time>
      </trkpt>
      <trkpt lat="47.11272" lon="6.83604">
        <ele>1001.343</ele>
        <time>2018-08-01T15:48:10Z</time>
      </trkpt>
      <trkpt lat="47.11266" lon="6.83595">
        <ele>1000.598</ele>
        <time>2018-08-01T15:48:11Z</time>
      </trkpt>
      <trkpt lat="47.11258" lon="6.83583">
        <ele>1000.077</ele>
        <time>2018-08-01T15:48:12Z</time>
      </trkpt>
      <trkpt lat="47.1125" lon="6.83572">
        <ele>999.585</ele>
        <time>2018-08-01T15:48:13Z</time>
      </trkpt>
      <trkpt lat="47.11242" lon="6.83558">
        <ele>999.589</ele>
        <time>2018-08-01T15:48:14Z</time>
      </trkpt>
      <trkpt lat="47.11235" lon="6.83548">
        <ele>999.017</ele>
        <time>2018-08-01T15:48:15Z</time>
      </trkpt>
      <trkpt lat="47.11228" lon="6.83537">
        <ele>998.608</ele>
        <time>2018-08-01T15:48:16Z</time>
      </trkpt>
      <trkpt lat="47.1122" lon="6.83526">
        <ele>998.13</ele>
        <time>2018-08-01T15:48:17Z</time>
      </trkpt>
      <trkpt lat="47.11212" lon="6.83514">
        <ele>997.645</ele>
        <time>2018-08-01T15:48:18Z</time>
      </trkpt>
      <trkpt lat="47.11205" lon="6.83502">
        <ele>997.299</ele>
        <time>2018-08-01T15:48:19Z</time>
      </trkpt>
      <trkpt lat="47.11197" lon="6.83489">
        <ele>996.411</ele>
        <time>2018-08-01T15:48:20Z</time>
      </trkpt>
      <trkpt lat="47.11189" lon="6.83477">
        <ele>995.567</ele>
        <time>2018-08-01T15:48:21Z</time>
      </trkpt>
      <trkpt lat="47.11182" lon="6.83466">
        <ele>995.084</ele>
        <time>2018-08-01T15:48:22Z</time>
      </trkpt>
      <trkpt lat="47.11175" lon="6.83456">
        <ele>994.679</ele>
        <time>2018-08-01T15:48:23Z</time>
      </trkpt>
      <trkpt lat="47.11168" lon="6.83444">
        <ele>993.868</ele>
        <time>2018-08-01T15:48:24Z</time>
      </trkpt>
      <trkpt lat="47.11162" lon="6.83434">
        <ele>993.549</ele>
        <time>2018-08-01T15:48:25Z</time>
      </trkpt>
      <trkpt lat="47.11155" lon="6.83424">
        <ele>992.902</ele>
        <time>2018-08-01T15:48:26Z</time>
      </trkpt>
      <trkpt lat="47.11146" lon="6.83415">
        <ele>992.322</ele>
        <time>2018-08-01T15:48:27Z</time>
      </trkpt>
      <trkpt lat="47.1114" lon="6.83405">
        <ele>991.608</ele>
        <time>2018-08-01T15:48:28Z</time>
      </trkpt>
      <trkpt lat="47.11134" lon="6.83395">
        <ele>991.216</ele>
        <time>2018-08-01T15:48:29Z</time>
      </trkpt>
      <trkpt lat="47.11128" lon="6.83386">
        <ele>990.761</ele>
        <time>2018-08-01T15:48:30Z</time>
      </trkpt>
      <trkpt lat="47.11122" lon="6.83378">
        <ele>990.745</ele>
        <time>2018-08-01T15:48:31Z</time>
      </trkpt>
      <trkpt lat="47.11116" lon="6.83369">
        <ele>990.857</ele>
        <time>2018-08-01T15:48:32Z</time>
      </trkpt>
      <trkpt lat="47.11108" lon="6.83366">
        <ele>990.843</ele>
        <time>2018-08-01T15:48:33Z</time>
      </trkpt>
      <trkpt lat="47.11102" lon="6.8336">
        <ele>990.77</ele>
        <time>2018-08-01T15:48:34Z</time>
      </trkpt>
      <trkpt lat="47.11095" lon="6.83355">
        <ele>990.615</ele>
        <time>2018-08-01T15:48:35Z</time>
      </trkpt>
      <trkpt lat="47.11089" lon="6.83349">
        <ele>990.574</ele>
        <time>2018-08-01T15:48:36Z</time>
      </trkpt>
      <trkpt lat="47.11084" lon="6.83346">
        <ele>990.471</ele>
        <time>2018-08-01T15:48:37Z</time>
      </trkpt>
      <trkpt lat="47.11078" lon="6.83339">
        <ele>990.241</ele>
        <time>2018-08-01T15:48:38Z</time>
      </trkpt>
      <trkpt lat="47.11072" lon="6.83333">
        <ele>990.215</ele>
        <time>2018-08-01T15:48:39Z</time>
      </trkpt>
      <trkpt lat="47.11067" lon="6.83325">
        <ele>990.108</ele>
        <time>2018-08-01T15:48:40Z</time>
      </trkpt>
      <trkpt lat="47.11062" lon="6.83319">
        <ele>989.939</ele>
        <time>2018-08-01T15:48:41Z</time>
      </trkpt>
      <trkpt lat="47.11057" lon="6.83311">
        <ele>989.964</ele>
        <time>2018-08-01T15:48:42Z</time>
      </trkpt>
      <trkpt lat="47.11051" lon="6.83304">
        <ele>989.728</ele>
        <time>2018-08-01T15:48:43Z</time>
      </trkpt>
      <trkpt lat="47.11044" lon="6.83296">
        <ele>989.75</ele>
        <time>2018-08-01T15:48:44Z</time>
      </trkpt>
      <trkpt lat="47.11039" lon="6.8329">
        <ele>989.776</ele>
        <time>2018-08-01T15:48:45Z</time>
      </trkpt>
      <trkpt lat="47.11033" lon="6.83283">
        <ele>989.723</ele>
        <time>2018-08-01T15:48:46Z</time>
      </trkpt>
      <trkpt lat="47.11027" lon="6.83276">
        <ele>989.758</ele>
        <time>2018-08-01T15:48:47Z</time>
      </trkpt>
      <trkpt lat="47.11022" lon="6.8327">
        <ele>989.747</ele>
        <time>2018-08-01T15:48:48Z</time>
      </trkpt>
      <trkpt lat="47.11016" lon="6.83264">
        <ele>989.662</ele>
        <time>2018-08-01T15:48:49Z</time>
      </trkpt>
      <trkpt lat="47.11011" lon="6.8326">
        <ele>989.583</ele>
        <time>2018-08-01T15:48:50Z</time>
      </trkpt>
      <trkpt lat="47.11005" lon="6.83254">
        <ele>989.511</ele>
        <time>2018-08-01T15:48:51Z</time>
      </trkpt>
      <trkpt lat="47.11" lon="6.83248">
        <ele>989.508</ele>
        <time>2018-08-01T15:48:52Z</time>
      </trkpt>
      <trkpt lat="47.10995" lon="6.83243">
        <ele>989.598</ele>
        <time>2018-08-01T15:48:53Z</time>
      </trkpt>
      <trkpt lat="47.10989" lon="6.83236">
        <ele>989.623</ele>
        <time>2018-08-01T15:48:54Z</time>
      </trkpt>
      <trkpt lat="47.10984" lon="6.83231">
        <ele>989.787</ele>
        <time>2018-08-01T15:48:55Z</time>
      </trkpt>
      <trkpt lat="47.10978" lon="6.83226">
        <ele>989.869</ele>
        <time>2018-08-01T15:48:56Z</time>
      </trkpt>
      <trkpt lat="47.10972" lon="6.8322">
        <ele>989.895</ele>
        <time>2018-08-01T15:48:57Z</time>
      </trkpt>
      <trkpt lat="47.10966" lon="6.83215">
        <ele>989.862</ele>
        <time>2018-08-01T15:48:58Z</time>
      </trkpt>
      <trkpt lat="47.10961" lon="6.8321">
        <ele>989.777</ele>
        <time>2018-08-01T15:48:59Z</time>
      </trkpt>
      <trkpt lat="47.10956" lon="6.83205">
        <ele>989.546</ele>
        <time>2018-08-01T15:49:00Z</time>
      </trkpt>
      <trkpt lat="47.1095" lon="6.83198">
        <ele>989.395</ele>
        <time>2018-08-01T15:49:01Z</time>
      </trkpt>
      <trkpt lat="47.10944" lon="6.83195">
        <ele>989.249</ele>
        <time>2018-08-01T15:49:02Z</time>
      </trkpt>
      <trkpt lat="47.10939" lon="6.83191">
        <ele>989.123</ele>
        <time>2018-08-01T15:49:03Z</time>
      </trkpt>
      <trkpt lat="47.10933" lon="6.83186">
        <ele>989.108</ele>
        <time>2018-08-01T15:49:04Z</time>
      </trkpt>
      <trkpt lat="47.10927" lon="6.83182">
        <ele>989.021</ele>
        <time>2018-08-01T15:49:05Z</time>
      </trkpt>
      <trkpt lat="47.10922" lon="6.83178">
        <ele>989.066</ele>
        <time>2018-08-01T15:49:06Z</time>
      </trkpt>
      <trkpt lat="47.10917" lon="6.83173">
        <ele>989.01</ele>
        <time>2018-08-01T15:49:07Z</time>
      </trkpt>
      <trkpt lat="47.1091" lon="6.83169">
        <ele>989.182</ele>
        <time>2018-08-01T15:49:08Z</time>
      </trkpt>
      <trkpt lat="47.10904" lon="6.83166">
        <ele>989.128</ele>
        <time>2018-08-01T15:49:09Z</time>
      </trkpt>
      <trkpt lat="47.10898" lon="6.83163">
        <ele>989.275</ele>
        <time>2018-08-01T15:49:10Z</time>
      </trkpt>
      <trkpt lat="47.10892" lon="6.83159">
        <ele>989.26</ele>
        <time>2018-08-01T15:49:11Z</time>
      </trkpt>
      <trkpt lat="47.10886" lon="6.83154">
        <ele>989.219</ele>
        <time>2018-08-01T15:49:12Z</time>
      </trkpt>
      <trkpt lat="47.10881" lon="6.8315">
        <ele>989.262</ele>
        <time>2018-08-01T15:49:13Z</time>
      </trkpt>
      <trkpt lat="47.10874" lon="6.83145">
        <ele>989.183</ele>
        <time>2018-08-01T15:49:14Z</time>
      </trkpt>
      <trkpt lat="47.10868" lon="6.83142">
        <ele>989.111</ele>
        <time>2018-08-01T15:49:15Z</time>
      </trkpt>
      <trkpt lat="47.10861" lon="6.83138">
        <ele>989.108</ele>
        <time>2018-08-01T15:49:16Z</time>
      </trkpt>
      <trkpt lat="47.10854" lon="6.83134">
        <ele>989.178</ele>
        <time>2018-08-01T15:49:17Z</time>
      </trkpt>
      <trkpt lat="47.10848" lon="6.83131">
        <ele>989.263</ele>
        <time>2018-08-01T15:49:18Z</time>
      </trkpt>
      <trkpt lat="47.10842" lon="6.83126">
        <ele>989.387</ele>
        <time>2018-08-01T15:49:19Z</time>
      </trkpt>
      <trkpt lat="47.10836" lon="6.83123">
        <ele>989.359</ele>
        <time>2018-08-01T15:49:20Z</time>
      </trkpt>
      <trkpt lat="47.10831" lon="6.83119">
        <ele>989.385</ele>
        <time>2018-08-01T15:49:21Z</time>
      </trkpt>
      <trkpt lat="47.10825" lon="6.83113">
        <ele>989.322</ele>
        <time>2018-08-01T15:49:22Z</time>
      </trkpt>
      <trkpt lat="47.10818" lon="6.83109">
        <ele>989.267</ele>
        <time>2018-08-01T15:49:23Z</time>
      </trkpt>
      <trkpt lat="47.10812" lon="6.83104">
        <ele>989.156</ele>
        <time>2018-08-01T15:49:24Z</time>
      </trkpt>
      <trkpt lat="47.10806" lon="6.83102">
        <ele>989.032</ele>
        <time>2018-08-01T15:49:25Z</time>
      </trkpt>
      <trkpt lat="47.108" lon="6.831">
        <ele>988.992</ele>
        <time>2018-08-01T15:49:26Z</time>
      </trkpt>
      <trkpt lat="47.10795" lon="6.83099">
        <ele>988.911</ele>
        <time>2018-08-01T15:49:27Z</time>
      </trkpt>
      <trkpt lat="47.10788" lon="6.831">
        <ele>988.908</ele>
        <time>2018-08-01T15:49:28Z</time>
      </trkpt>
      <trkpt lat="47.10781" lon="6.83101">
        <ele>988.975</ele>
        <time>2018-08-01T15:49:29Z</time>
      </trkpt>
      <trkpt lat="47.10774" lon="6.83102">
        <ele>989.04</ele>
        <time>2018-08-01T15:49:30Z</time>
      </trkpt>
      <trkpt lat="47.10767" lon="6.83103">
        <ele>989.084</ele>
        <time>2018-08-01T15:49:31Z</time>
      </trkpt>
      <trkpt lat="47.1076" lon="6.83102">
        <ele>989.096</ele>
        <time>2018-08-01T15:49:32Z</time>
      </trkpt>
      <trkpt lat="47.10753" lon="6.83103">
        <ele>989.162</ele>
        <time>2018-08-01T15:49:33Z</time>
      </trkpt>
      <trkpt lat="47.10747" lon="6.83103">
        <ele>989.259</ele>
        <time>2018-08-01T15:49:34Z</time>
      </trkpt>
      <trkpt lat="47.1074" lon="6.83101">
        <ele>989.274</ele>
        <time>2018-08-01T15:49:35Z</time>
      </trkpt>
      <trkpt lat="47.10734" lon="6.831">
        <ele>989.283</ele>
        <time>2018-08-01T15:49:36Z</time>
      </trkpt>
      <trkpt lat="47.10727" lon="6.83099">
        <ele>989.272</ele>
        <time>2018-08-01T15:49:37Z</time>
      </trkpt>
      <trkpt lat="47.10721" lon="6.83097">
        <ele>989.213</ele>
        <time>2018-08-01T15:49:38Z</time>
      </trkpt>
      <trkpt lat="47.10714" lon="6.83095">
        <ele>989.214</ele>
        <time>2018-08-01T15:49:39Z</time>
      </trkpt>
      <trkpt lat="47.10707" lon="6.83092">
        <ele>989.108</ele>
        <time>2018-08-01T15:49:40Z</time>
      </trkpt>
      <trkpt lat="47.107" lon="6.83091">
        <ele>989.129</ele>
        <time>2018-08-01T15:49:41Z</time>
      </trkpt>
      <trkpt lat="47.10693" lon="6.83087">
        <ele>989.084</ele>
        <time>2018-08-01T15:49:42Z</time>
      </trkpt>
      <trkpt lat="47.10686" lon="6.83082">
        <ele>988.948</ele>
        <time>2018-08-01T15:49:43Z</time>
      </trkpt>
      <trkpt lat="47.1068" lon="6.83078">
        <ele>988.83</ele>
        <time>2018-08-01T15:49:44Z</time>
      </trkpt>
      <trkpt lat="47.10676" lon="6.83071">
        <ele>988.676</ele>
        <time>2018-08-01T15:49:45Z</time>
      </trkpt>
      <trkpt lat="47.1067" lon="6.83063">
        <ele>988.443</ele>
        <time>2018-08-01T15:49:46Z</time>
      </trkpt>
      <trkpt lat="47.10664" lon="6.83058">
        <ele>988.488</ele>
        <time>2018-08-01T15:49:47Z</time>
      </trkpt>
      <trkpt lat="47.10658" lon="6.83052">
        <ele>988.837</ele>
        <time>2018-08-01T15:49:48Z</time>
      </trkpt>
      <trkpt lat="47.10653" lon="6.83048">
        <ele>988.963</ele>
        <time>2018-08-01T15:49:49Z</time>
      </trkpt>
      <trkpt lat="47.10646" lon="6.83044">
        <ele>988.944</ele>
        <time>2018-08-01T15:49:50Z</time>
      </trkpt>
      <trkpt lat="47.10638" lon="6.83044">
        <ele>988.818</ele>
        <time>2018-08-01T15:49:51Z</time>
      </trkpt>
      <trkpt lat="47.10629" lon="6.83045">
        <ele>988.608</ele>
        <time>2018-08-01T15:49:52Z</time>
      </trkpt>
      <trkpt lat="47.10622" lon="6.83048">
        <ele>988.468</ele>
        <time>2018-08-01T15:49:53Z</time>
      </trkpt>
      <trkpt lat="47.10613" lon="6.83051">
        <ele>988.153</ele>
        <time>2018-08-01T15:49:54Z</time>
      </trkpt>
      <trkpt lat="47.10605" lon="6.83056">
        <ele>987.877</ele>
        <time>2018-08-01T15:49:55Z</time>
      </trkpt>
      <trkpt lat="47.10596" lon="6.83061">
        <ele>987.639</ele>
        <time>2018-08-01T15:49:56Z</time>
      </trkpt>
      <trkpt lat="47.10587" lon="6.83065">
        <ele>987.655</ele>
        <time>2018-08-01T15:49:57Z</time>
      </trkpt>
      <trkpt lat="47.10579" lon="6.8307">
        <ele>987.282</ele>
        <time>2018-08-01T15:49:58Z</time>
      </trkpt>
      <trkpt lat="47.10571" lon="6.83073">
        <ele>986.647</ele>
        <time>2018-08-01T15:49:59Z</time>
      </trkpt>
      <trkpt lat="47.10563" lon="6.83076">
        <ele>985.946</ele>
        <time>2018-08-01T15:50:00Z</time>
      </trkpt>
      <trkpt lat="47.10554" lon="6.83082">
        <ele>985.169</ele>
        <time>2018-08-01T15:50:01Z</time>
      </trkpt>
      <trkpt lat="47.10544" lon="6.83088">
        <ele>984.304</ele>
        <time>2018-08-01T15:50:02Z</time>
      </trkpt>
      <trkpt lat="47.10534" lon="6.83091">
        <ele>983.324</ele>
        <time>2018-08-01T15:50:03Z</time>
      </trkpt>
      <trkpt lat="47.10524" lon="6.83096">
        <ele>982.508</ele>
        <time>2018-08-01T15:50:04Z</time>
      </trkpt>
      <trkpt lat="47.10515" lon="6.83102">
        <ele>982.018</ele>
        <time>2018-08-01T15:50:05Z</time>
      </trkpt>
      <trkpt lat="47.10506" lon="6.83107">
        <ele>981.663</ele>
        <time>2018-08-01T15:50:06Z</time>
      </trkpt>
      <trkpt lat="47.10497" lon="6.83113">
        <ele>981.587</ele>
        <time>2018-08-01T15:50:07Z</time>
      </trkpt>
      <trkpt lat="47.10488" lon="6.8312">
        <ele>981.569</ele>
        <time>2018-08-01T15:50:08Z</time>
      </trkpt>
      <trkpt lat="47.1048" lon="6.83127">
        <ele>981.565</ele>
        <time>2018-08-01T15:50:09Z</time>
      </trkpt>
      <trkpt lat="47.10473" lon="6.83133">
        <ele>981.982</ele>
        <time>2018-08-01T15:50:10Z</time>
      </trkpt>
      <trkpt lat="47.10463" lon="6.83139">
        <ele>982.497</ele>
        <time>2018-08-01T15:50:11Z</time>
      </trkpt>
      <trkpt lat="47.10457" lon="6.83145">
        <ele>982.416</ele>
        <time>2018-08-01T15:50:12Z</time>
      </trkpt>
      <trkpt lat="47.10451" lon="6.83151">
        <ele>982.442</ele>
        <time>2018-08-01T15:50:13Z</time>
      </trkpt>
      <trkpt lat="47.10445" lon="6.83159">
        <ele>981.822</ele>
        <time>2018-08-01T15:50:14Z</time>
      </trkpt>
      <trkpt lat="47.10437" lon="6.83166">
        <ele>981.114</ele>
        <time>2018-08-01T15:50:15Z</time>
      </trkpt>
      <trkpt lat="47.10432" lon="6.83174">
        <ele>980.308</ele>
        <time>2018-08-01T15:50:16Z</time>
      </trkpt>
      <trkpt lat="47.10426" lon="6.8318">
        <ele>979.696</ele>
        <time>2018-08-01T15:50:17Z</time>
      </trkpt>
      <trkpt lat="47.10421" lon="6.83186">
        <ele>979.331</ele>
        <time>2018-08-01T15:50:18Z</time>
      </trkpt>
      <trkpt lat="47.10415" lon="6.8319">
        <ele>979.325</ele>
        <time>2018-08-01T15:50:19Z</time>
      </trkpt>
      <trkpt lat="47.1041" lon="6.83196">
        <ele>979.327</ele>
        <time>2018-08-01T15:50:20Z</time>
      </trkpt>
      <trkpt lat="47.10406" lon="6.83199">
        <ele>979.313</ele>
        <time>2018-08-01T15:50:21Z</time>
      </trkpt>
      <trkpt lat="47.10397" lon="6.83201">
        <ele>979.32</ele>
        <time>2018-08-01T15:50:22Z</time>
      </trkpt>
      <trkpt lat="47.10393" lon="6.83197">
        <ele>979.345</ele>
        <time>2018-08-01T15:50:23Z</time>
      </trkpt>
      <trkpt lat="47.10388" lon="6.83196">
        <ele>979.194</ele>
        <time>2018-08-01T15:50:24Z</time>
      </trkpt>
      <trkpt lat="47.10387" lon="6.83186">
        <ele>978.955</ele>
        <time>2018-08-01T15:50:25Z</time>
      </trkpt>
      <trkpt lat="47.10384" lon="6.83178">
        <ele>978.707</ele>
        <time>2018-08-01T15:50:26Z</time>
      </trkpt>
      <trkpt lat="47.1038" lon="6.8317">
        <ele>978.517</ele>
        <time>2018-08-01T15:50:27Z</time>
      </trkpt>
      <trkpt lat="47.10375" lon="6.83162">
        <ele>978.508</ele>
        <time>2018-08-01T15:50:28Z</time>
      </trkpt>
      <trkpt lat="47.1037" lon="6.83154">
        <ele>978.517</ele>
        <time>2018-08-01T15:50:29Z</time>
      </trkpt>
      <trkpt lat="47.10368" lon="6.83147">
        <ele>978.682</ele>
        <time>2018-08-01T15:50:30Z</time>
      </trkpt>
      <trkpt lat="47.10364" lon="6.83138">
        <ele>978.766</ele>
        <time>2018-08-01T15:50:31Z</time>
      </trkpt>
      <trkpt lat="47.1036" lon="6.83131">
        <ele>978.768</ele>
        <time>2018-08-01T15:50:32Z</time>
      </trkpt>
      <trkpt lat="47.10355" lon="6.83123">
        <ele>978.764</ele>
        <time>2018-08-01T15:50:33Z</time>
      </trkpt>
      <trkpt lat="47.10352" lon="6.83116">
        <ele>978.761</ele>
        <time>2018-08-01T15:50:34Z</time>
      </trkpt>
      <trkpt lat="47.10348" lon="6.83108">
        <ele>978.736</ele>
        <time>2018-08-01T15:50:35Z</time>
      </trkpt>
      <trkpt lat="47.10344" lon="6.83098">
        <ele>978.725</ele>
        <time>2018-08-01T15:50:36Z</time>
      </trkpt>
      <trkpt lat="47.10341" lon="6.83092">
        <ele>978.782</ele>
        <time>2018-08-01T15:50:37Z</time>
      </trkpt>
      <trkpt lat="47.10335" lon="6.83082">
        <ele>978.743</ele>
        <time>2018-08-01T15:50:38Z</time>
      </trkpt>
      <trkpt lat="47.1033" lon="6.83077">
        <ele>978.617</ele>
        <time>2018-08-01T15:50:39Z</time>
      </trkpt>
      <trkpt lat="47.10327" lon="6.83071">
        <ele>978.608</ele>
        <time>2018-08-01T15:50:40Z</time>
      </trkpt>
      <trkpt lat="47.10321" lon="6.83065">
        <ele>978.65</ele>
        <time>2018-08-01T15:50:41Z</time>
      </trkpt>
      <trkpt lat="47.1032" lon="6.83058">
        <ele>978.775</ele>
        <time>2018-08-01T15:50:42Z</time>
      </trkpt>
      <trkpt lat="47.10315" lon="6.83049">
        <ele>978.879</ele>
        <time>2018-08-01T15:50:43Z</time>
      </trkpt>
      <trkpt lat="47.10309" lon="6.83042">
        <ele>978.961</ele>
        <time>2018-08-01T15:50:44Z</time>
      </trkpt>
      <trkpt lat="47.10304" lon="6.83037">
        <ele>978.927</ele>
        <time>2018-08-01T15:50:45Z</time>
      </trkpt>
      <trkpt lat="47.10299" lon="6.83031">
        <ele>978.964</ele>
        <time>2018-08-01T15:50:46Z</time>
      </trkpt>
      <trkpt lat="47.10296" lon="6.83026">
        <ele>978.829</ele>
        <time>2018-08-01T15:50:47Z</time>
      </trkpt>
      <trkpt lat="47.10292" lon="6.83018">
        <ele>978.838</ele>
        <time>2018-08-01T15:50:48Z</time>
      </trkpt>
      <trkpt lat="47.10289" lon="6.83012">
        <ele>978.852</ele>
        <time>2018-08-01T15:50:49Z</time>
      </trkpt>
      <trkpt lat="47.10285" lon="6.83">
        <ele>979.153</ele>
        <time>2018-08-01T15:50:51Z</time>
      </trkpt>
      <trkpt lat="47.10278" lon="6.83008">
        <ele>979.108</ele>
        <time>2018-08-01T15:50:53Z</time>
      </trkpt>
      <trkpt lat="47.10275" lon="6.83017">
        <ele>979.008</ele>
        <time>2018-08-01T15:50:54Z</time>
      </trkpt>
      <trkpt lat="47.10277" lon="6.83024">
        <ele>978.967</ele>
        <time>2018-08-01T15:50:55Z</time>
      </trkpt>
      <trkpt lat="47.10277" lon="6.83033">
        <ele>978.952</ele>
        <time>2018-08-01T15:50:56Z</time>
      </trkpt>
      <trkpt lat="47.10278" lon="6.83042">
        <ele>978.986</ele>
        <time>2018-08-01T15:50:57Z</time>
      </trkpt>
      <trkpt lat="47.10279" lon="6.8305">
        <ele>979.258</ele>
        <time>2018-08-01T15:50:58Z</time>
      </trkpt>
      <trkpt lat="47.1028" lon="6.83056">
        <ele>979.524</ele>
        <time>2018-08-01T15:50:59Z</time>
      </trkpt>
      <trkpt lat="47.1028" lon="6.83065">
        <ele>979.841</ele>
        <time>2018-08-01T15:51:00Z</time>
      </trkpt>
      <trkpt lat="47.10279" lon="6.83074">
        <ele>979.856</ele>
        <time>2018-08-01T15:51:01Z</time>
      </trkpt>
      <trkpt lat="47.10281" lon="6.83081">
        <ele>980.515</ele>
        <time>2018-08-01T15:51:02Z</time>
      </trkpt>
      <trkpt lat="47.10279" lon="6.83091">
        <ele>980.688</ele>
        <time>2018-08-01T15:51:03Z</time>
      </trkpt>
      <trkpt lat="47.1028" lon="6.83099">
        <ele>980.624</ele>
        <time>2018-08-01T15:51:04Z</time>
      </trkpt>
      <trkpt lat="47.1028" lon="6.83108">
        <ele>980.826</ele>
        <time>2018-08-01T15:51:05Z</time>
      </trkpt>
      <trkpt lat="47.10281" lon="6.83117">
        <ele>980.908</ele>
        <time>2018-08-01T15:51:06Z</time>
      </trkpt>
      <trkpt lat="47.10282" lon="6.83125">
        <ele>980.94</ele>
        <time>2018-08-01T15:51:07Z</time>
      </trkpt>
      <trkpt lat="47.10283" lon="6.83135">
        <ele>981.015</ele>
        <time>2018-08-01T15:51:08Z</time>
      </trkpt>
      <trkpt lat="47.10283" lon="6.83143">
        <ele>980.959</ele>
        <time>2018-08-01T15:51:09Z</time>
      </trkpt>
      <trkpt lat="47.10286" lon="6.83151">
        <ele>980.911</ele>
        <time>2018-08-01T15:51:10Z</time>
      </trkpt>
      <trkpt lat="47.10286" lon="6.83159">
        <ele>980.977</ele>
        <time>2018-08-01T15:51:11Z</time>
      </trkpt>
      <trkpt lat="47.10286" lon="6.83166">
        <ele>980.874</ele>
        <time>2018-08-01T15:51:12Z</time>
      </trkpt>
      <trkpt lat="47.10282" lon="6.83175">
        <ele>980.949</ele>
        <time>2018-08-01T15:51:14Z</time>
      </trkpt>
      <trkpt lat="47.10275" lon="6.83179">
        <ele>981.028</ele>
        <time>2018-08-01T15:51:16Z</time>
      </trkpt>
      <trkpt lat="47.10265" lon="6.83179">
        <ele>981.258</ele>
        <time>2018-08-01T15:51:18Z</time>
      </trkpt>
      <trkpt lat="47.10261" lon="6.8318">
        <ele>981.352</ele>
        <time>2018-08-01T15:51:19Z</time>
      </trkpt>
      <trkpt lat="47.10252" lon="6.83177">
        <ele>981.717</ele>
        <time>2018-08-01T15:51:21Z</time>
      </trkpt>
      <trkpt lat="47.10248" lon="6.83175">
        <ele>982.008</ele>
        <time>2018-08-01T15:51:22Z</time>
      </trkpt>
      <trkpt lat="47.10239" lon="6.83175">
        <ele>982.647</ele>
        <time>2018-08-01T15:51:24Z</time>
      </trkpt>
      <trkpt lat="47.1023" lon="6.83173">
        <ele>983.252</ele>
        <time>2018-08-01T15:51:26Z</time>
      </trkpt>
      <trkpt lat="47.10225" lon="6.83172">
        <ele>983.536</ele>
        <time>2018-08-01T15:51:27Z</time>
      </trkpt>
      <trkpt lat="47.10221" lon="6.83168">
        <ele>983.928</ele>
        <time>2018-08-01T15:51:28Z</time>
      </trkpt>
      <trkpt lat="47.10217" lon="6.83168">
        <ele>984.394</ele>
        <time>2018-08-01T15:51:29Z</time>
      </trkpt>
      <trkpt lat="47.10209" lon="6.83165">
        <ele>984.721</ele>
        <time>2018-08-01T15:51:31Z</time>
      </trkpt>
      <trkpt lat="47.10201" lon="6.83163">
        <ele>985.446</ele>
        <time>2018-08-01T15:51:33Z</time>
      </trkpt>
      <trkpt lat="47.10193" lon="6.83159">
        <ele>986.165</ele>
        <time>2018-08-01T15:51:35Z</time>
      </trkpt>
      <trkpt lat="47.10185" lon="6.83156">
        <ele>986.778</ele>
        <time>2018-08-01T15:51:37Z</time>
      </trkpt>
      <trkpt lat="47.10181" lon="6.83155">
        <ele>987.033</ele>
        <time>2018-08-01T15:51:38Z</time>
      </trkpt>
      <trkpt lat="47.10175" lon="6.83154">
        <ele>987.326</ele>
        <time>2018-08-01T15:51:39Z</time>
      </trkpt>
      <trkpt lat="47.1017" lon="6.83153">
        <ele>987.508</ele>
        <time>2018-08-01T15:51:40Z</time>
      </trkpt>
      <trkpt lat="47.10165" lon="6.83153">
        <ele>987.619</ele>
        <time>2018-08-01T15:51:41Z</time>
      </trkpt>
      <trkpt lat="47.1016" lon="6.83153">
        <ele>987.764</ele>
        <time>2018-08-01T15:51:42Z</time>
      </trkpt>
      <trkpt lat="47.10156" lon="6.83149">
        <ele>987.858</ele>
        <time>2018-08-01T15:51:43Z</time>
      </trkpt>
      <trkpt lat="47.1015" lon="6.8315">
        <ele>987.86</ele>
        <time>2018-08-01T15:51:44Z</time>
      </trkpt>
      <trkpt lat="47.10144" lon="6.8315">
        <ele>987.876</ele>
        <time>2018-08-01T15:51:45Z</time>
      </trkpt>
      <trkpt lat="47.10135" lon="6.83156">
        <ele>988.073</ele>
        <time>2018-08-01T15:51:47Z</time>
      </trkpt>
      <trkpt lat="47.10127" lon="6.83161">
        <ele>988.268</ele>
        <time>2018-08-01T15:51:49Z</time>
      </trkpt>
      <trkpt lat="47.10123" lon="6.83164">
        <ele>988.377</ele>
        <time>2018-08-01T15:51:50Z</time>
      </trkpt>
      <trkpt lat="47.10116" lon="6.83172">
        <ele>988.528</ele>
        <time>2018-08-01T15:51:52Z</time>
      </trkpt>
      <trkpt lat="47.10112" lon="6.83176">
        <ele>988.889</ele>
        <time>2018-08-01T15:51:54Z</time>
      </trkpt>
      <trkpt lat="47.10105" lon="6.83181">
        <ele>989.217</ele>
        <time>2018-08-01T15:51:56Z</time>
      </trkpt>
      <trkpt lat="47.101" lon="6.83186">
        <ele>989.408</ele>
        <time>2018-08-01T15:51:57Z</time>
      </trkpt>
      <trkpt lat="47.10094" lon="6.83193">
        <ele>989.624</ele>
        <time>2018-08-01T15:51:59Z</time>
      </trkpt>
      <trkpt lat="47.10089" lon="6.83196">
        <ele>990.049</ele>
        <time>2018-08-01T15:52:01Z</time>
      </trkpt>
      <trkpt lat="47.10082" lon="6.83197">
        <ele>990.583</ele>
        <time>2018-08-01T15:52:04Z</time>
      </trkpt>
      <trkpt lat="47.10079" lon="6.83193">
        <ele>991.375</ele>
        <time>2018-08-01T15:52:25Z</time>
      </trkpt>
      <trkpt lat="47.10076" lon="6.83188">
        <ele>990.981</ele>
        <time>2018-08-01T15:53:05Z</time>
      </trkpt>
      <trkpt lat="47.10072" lon="6.83192">
        <ele>991.228</ele>
        <time>2018-08-01T15:53:10Z</time>
      </trkpt>
      <trkpt lat="47.10066" lon="6.83193">
        <ele>991.523</ele>
        <time>2018-08-01T15:53:12Z</time>
      </trkpt>
      <trkpt lat="47.1006" lon="6.83194">
        <ele>992.122</ele>
        <time>2018-08-01T15:53:14Z</time>
      </trkpt>
      <trkpt lat="47.10054" lon="6.83196">
        <ele>992.829</ele>
        <time>2018-08-01T15:53:16Z</time>
      </trkpt>
      <trkpt lat="47.10049" lon="6.83194">
        <ele>993.2</ele>
        <time>2018-08-01T15:53:18Z</time>
      </trkpt>
      <trkpt lat="47.10043" lon="6.83194">
        <ele>993.42</ele>
        <time>2018-08-01T15:53:20Z</time>
      </trkpt>
      <trkpt lat="47.10036" lon="6.83192">
        <ele>993.708</ele>
        <time>2018-08-01T15:53:22Z</time>
      </trkpt>
      <trkpt lat="47.10027" lon="6.83192">
        <ele>994.084</ele>
        <time>2018-08-01T15:53:24Z</time>
      </trkpt>
      <trkpt lat="47.10019" lon="6.83195">
        <ele>994.739</ele>
        <time>2018-08-01T15:53:26Z</time>
      </trkpt>
      <trkpt lat="47.10014" lon="6.83195">
        <ele>995.223</ele>
        <time>2018-08-01T15:53:27Z</time>
      </trkpt>
      <trkpt lat="47.10007" lon="6.83196">
        <ele>996.325</ele>
        <time>2018-08-01T15:53:29Z</time>
      </trkpt>
      <trkpt lat="47.09998" lon="6.83197">
        <ele>997.161</ele>
        <time>2018-08-01T15:53:31Z</time>
      </trkpt>
      <trkpt lat="47.09993" lon="6.83198">
        <ele>997.348</ele>
        <time>2018-08-01T15:53:32Z</time>
      </trkpt>
      <trkpt lat="47.09984" lon="6.83198">
        <ele>997.833</ele>
        <time>2018-08-01T15:53:34Z</time>
      </trkpt>
      <trkpt lat="47.09975" lon="6.83201">
        <ele>998.562</ele>
        <time>2018-08-01T15:53:36Z</time>
      </trkpt>
      <trkpt lat="47.0997" lon="6.832">
        <ele>998.926</ele>
        <time>2018-08-01T15:53:37Z</time>
      </trkpt>
      <trkpt lat="47.09966" lon="6.832">
        <ele>999.347</ele>
        <time>2018-08-01T15:53:38Z</time>
      </trkpt>
      <trkpt lat="47.09962" lon="6.83197">
        <ele>999.611</ele>
        <time>2018-08-01T15:53:39Z</time>
      </trkpt>
      <trkpt lat="47.09954" lon="6.8319">
        <ele>1000.308</ele>
        <time>2018-08-01T15:53:41Z</time>
      </trkpt>
      <trkpt lat="47.0995" lon="6.83186">
        <ele>1000.744</ele>
        <time>2018-08-01T15:53:42Z</time>
      </trkpt>
      <trkpt lat="47.09947" lon="6.8318">
        <ele>1001.199</ele>
        <time>2018-08-01T15:53:43Z</time>
      </trkpt>
      <trkpt lat="47.09942" lon="6.83175">
        <ele>1001.573</ele>
        <time>2018-08-01T15:53:44Z</time>
      </trkpt>
      <trkpt lat="47.09937" lon="6.83165">
        <ele>1002.375</ele>
        <time>2018-08-01T15:53:46Z</time>
      </trkpt>
      <trkpt lat="47.09931" lon="6.83156">
        <ele>1003.291</ele>
        <time>2018-08-01T15:53:48Z</time>
      </trkpt>
      <trkpt lat="47.09928" lon="6.83152">
        <ele>1003.628</ele>
        <time>2018-08-01T15:53:49Z</time>
      </trkpt>
      <trkpt lat="47.09922" lon="6.83142">
        <ele>1004.623</ele>
        <time>2018-08-01T15:53:51Z</time>
      </trkpt>
      <trkpt lat="47.09918" lon="6.83137">
        <ele>1004.632</ele>
        <time>2018-08-01T15:53:52Z</time>
      </trkpt>
      <trkpt lat="47.09915" lon="6.83131">
        <ele>1005.183</ele>
        <time>2018-08-01T15:53:53Z</time>
      </trkpt>
      <trkpt lat="47.0991" lon="6.83125">
        <ele>1005.625</ele>
        <time>2018-08-01T15:53:54Z</time>
      </trkpt>
      <trkpt lat="47.09909" lon="6.83118">
        <ele>1006.117</ele>
        <time>2018-08-01T15:53:55Z</time>
      </trkpt>
      <trkpt lat="47.09905" lon="6.83113">
        <ele>1006.608</ele>
        <time>2018-08-01T15:53:56Z</time>
      </trkpt>
      <trkpt lat="47.09901" lon="6.83108">
        <ele>1007.12</ele>
        <time>2018-08-01T15:53:57Z</time>
      </trkpt>
      <trkpt lat="47.09897" lon="6.83103">
        <ele>1007.635</ele>
        <time>2018-08-01T15:53:58Z</time>
      </trkpt>
      <trkpt lat="47.09892" lon="6.83098">
        <ele>1008.189</ele>
        <time>2018-08-01T15:53:59Z</time>
      </trkpt>
      <trkpt lat="47.09888" lon="6.83092">
        <ele>1008.561</ele>
        <time>2018-08-01T15:54:00Z</time>
      </trkpt>
      <trkpt lat="47.09884" lon="6.83087">
        <ele>1008.987</ele>
        <time>2018-08-01T15:54:01Z</time>
      </trkpt>
      <trkpt lat="47.09881" lon="6.83081">
        <ele>1009.374</ele>
        <time>2018-08-01T15:54:02Z</time>
      </trkpt>
      <trkpt lat="47.09879" lon="6.83074">
        <ele>1009.719</ele>
        <time>2018-08-01T15:54:03Z</time>
      </trkpt>
      <trkpt lat="47.09875" lon="6.83067">
        <ele>1010.198</ele>
        <time>2018-08-01T15:54:04Z</time>
      </trkpt>
      <trkpt lat="47.09872" lon="6.83062">
        <ele>1010.419</ele>
        <time>2018-08-01T15:54:05Z</time>
      </trkpt>
      <trkpt lat="47.09868" lon="6.83055">
        <ele>1010.709</ele>
        <time>2018-08-01T15:54:06Z</time>
      </trkpt>
      <trkpt lat="47.09864" lon="6.83049">
        <ele>1011.119</ele>
        <time>2018-08-01T15:54:07Z</time>
      </trkpt>
      <trkpt lat="47.09861" lon="6.83042">
        <ele>1011.408</ele>
        <time>2018-08-01T15:54:08Z</time>
      </trkpt>
      <trkpt lat="47.09859" lon="6.83035">
        <ele>1011.743</ele>
        <time>2018-08-01T15:54:09Z</time>
      </trkpt>
      <trkpt lat="47.09855" lon="6.8303">
        <ele>1012.018</ele>
        <time>2018-08-01T15:54:10Z</time>
      </trkpt>
      <trkpt lat="47.09851" lon="6.83024">
        <ele>1012.282</ele>
        <time>2018-08-01T15:54:11Z</time>
      </trkpt>
      <trkpt lat="47.09848" lon="6.83018">
        <ele>1012.384</ele>
        <time>2018-08-01T15:54:12Z</time>
      </trkpt>
      <trkpt lat="47.09844" lon="6.83012">
        <ele>1012.59</ele>
        <time>2018-08-01T15:54:13Z</time>
      </trkpt>
      <trkpt lat="47.0984" lon="6.83005">
        <ele>1012.857</ele>
        <time>2018-08-01T15:54:14Z</time>
      </trkpt>
      <trkpt lat="47.09838" lon="6.82999">
        <ele>1013.242</ele>
        <time>2018-08-01T15:54:15Z</time>
      </trkpt>
      <trkpt lat="47.09834" lon="6.82992">
        <ele>1013.471</ele>
        <time>2018-08-01T15:54:16Z</time>
      </trkpt>
      <trkpt lat="47.0983" lon="6.82987">
        <ele>1013.664</ele>
        <time>2018-08-01T15:54:17Z</time>
      </trkpt>
      <trkpt lat="47.09827" lon="6.82981">
        <ele>1013.806</ele>
        <time>2018-08-01T15:54:18Z</time>
      </trkpt>
      <trkpt lat="47.09825" lon="6.82974">
        <ele>1014.016</ele>
        <time>2018-08-01T15:54:19Z</time>
      </trkpt>
      <trkpt lat="47.09821" lon="6.82968">
        <ele>1014.008</ele>
        <time>2018-08-01T15:54:20Z</time>
      </trkpt>
      <trkpt lat="47.09817" lon="6.82962">
        <ele>1014.128</ele>
        <time>2018-08-01T15:54:21Z</time>
      </trkpt>
      <trkpt lat="47.09812" lon="6.82957">
        <ele>1014.343</ele>
        <time>2018-08-01T15:54:22Z</time>
      </trkpt>
      <trkpt lat="47.09809" lon="6.82951">
        <ele>1014.627</ele>
        <time>2018-08-01T15:54:23Z</time>
      </trkpt>
      <trkpt lat="47.09805" lon="6.82944">
        <ele>1014.899</ele>
        <time>2018-08-01T15:54:24Z</time>
      </trkpt>
      <trkpt lat="47.09801" lon="6.82938">
        <ele>1015.065</ele>
        <time>2018-08-01T15:54:25Z</time>
      </trkpt>
      <trkpt lat="47.09797" lon="6.82932">
        <ele>1015.152</ele>
        <time>2018-08-01T15:54:26Z</time>
      </trkpt>
      <trkpt lat="47.09794" lon="6.82926">
        <ele>1015.257</ele>
        <time>2018-08-01T15:54:27Z</time>
      </trkpt>
      <trkpt lat="47.0979" lon="6.82919">
        <ele>1015.436</ele>
        <time>2018-08-01T15:54:28Z</time>
      </trkpt>
      <trkpt lat="47.09786" lon="6.82913">
        <ele>1015.662</ele>
        <time>2018-08-01T15:54:29Z</time>
      </trkpt>
      <trkpt lat="47.09781" lon="6.82906">
        <ele>1015.883</ele>
        <time>2018-08-01T15:54:30Z</time>
      </trkpt>
      <trkpt lat="47.09778" lon="6.82899">
        <ele>1016.111</ele>
        <time>2018-08-01T15:54:31Z</time>
      </trkpt>
      <trkpt lat="47.09774" lon="6.82893">
        <ele>1016.408</ele>
        <time>2018-08-01T15:54:32Z</time>
      </trkpt>
      <trkpt lat="47.0977" lon="6.82887">
        <ele>1016.788</ele>
        <time>2018-08-01T15:54:33Z</time>
      </trkpt>
      <trkpt lat="47.09766" lon="6.8288">
        <ele>1017.113</ele>
        <time>2018-08-01T15:54:34Z</time>
      </trkpt>
      <trkpt lat="47.09762" lon="6.82874">
        <ele>1017.487</ele>
        <time>2018-08-01T15:54:35Z</time>
      </trkpt>
      <trkpt lat="47.09757" lon="6.8287">
        <ele>1017.549</ele>
        <time>2018-08-01T15:54:36Z</time>
      </trkpt>
      <trkpt lat="47.09753" lon="6.82865">
        <ele>1017.615</ele>
        <time>2018-08-01T15:54:37Z</time>
      </trkpt>
      <trkpt lat="47.09748" lon="6.82865">
        <ele>1017.652</ele>
        <time>2018-08-01T15:54:38Z</time>
      </trkpt>
      <trkpt lat="47.09743" lon="6.82867">
        <ele>1017.677</ele>
        <time>2018-08-01T15:54:39Z</time>
      </trkpt>
      <trkpt lat="47.09738" lon="6.8287">
        <ele>1017.686</ele>
        <time>2018-08-01T15:54:40Z</time>
      </trkpt>
      <trkpt lat="47.09733" lon="6.82873">
        <ele>1017.738</ele>
        <time>2018-08-01T15:54:41Z</time>
      </trkpt>
      <trkpt lat="47.09729" lon="6.82876">
        <ele>1017.97</ele>
        <time>2018-08-01T15:54:42Z</time>
      </trkpt>
      <trkpt lat="47.09724" lon="6.82879">
        <ele>1018.117</ele>
        <time>2018-08-01T15:54:43Z</time>
      </trkpt>
      <trkpt lat="47.09719" lon="6.82883">
        <ele>1018.308</ele>
        <time>2018-08-01T15:54:44Z</time>
      </trkpt>
      <trkpt lat="47.09713" lon="6.82886">
        <ele>1018.565</ele>
        <time>2018-08-01T15:54:45Z</time>
      </trkpt>
      <trkpt lat="47.09708" lon="6.82891">
        <ele>1018.62</ele>
        <time>2018-08-01T15:54:46Z</time>
      </trkpt>
      <trkpt lat="47.09702" lon="6.82895">
        <ele>1018.784</ele>
        <time>2018-08-01T15:54:47Z</time>
      </trkpt>
      <trkpt lat="47.09695" lon="6.82899">
        <ele>1018.776</ele>
        <time>2018-08-01T15:54:48Z</time>
      </trkpt>
      <trkpt lat="47.09689" lon="6.82903">
        <ele>1018.732</ele>
        <time>2018-08-01T15:54:49Z</time>
      </trkpt>
      <trkpt lat="47.09683" lon="6.82908">
        <ele>1018.729</ele>
        <time>2018-08-01T15:54:50Z</time>
      </trkpt>
      <trkpt lat="47.09676" lon="6.82912">
        <ele>1018.784</ele>
        <time>2018-08-01T15:54:51Z</time>
      </trkpt>
      <trkpt lat="47.09669" lon="6.82917">
        <ele>1018.653</ele>
        <time>2018-08-01T15:54:52Z</time>
      </trkpt>
      <trkpt lat="47.09661" lon="6.82921">
        <ele>1018.472</ele>
        <time>2018-08-01T15:54:53Z</time>
      </trkpt>
      <trkpt lat="47.09654" lon="6.82926">
        <ele>1018.313</ele>
        <time>2018-08-01T15:54:54Z</time>
      </trkpt>
      <trkpt lat="47.09648" lon="6.8293">
        <ele>1018.314</ele>
        <time>2018-08-01T15:54:55Z</time>
      </trkpt>
      <trkpt lat="47.09641" lon="6.82935">
        <ele>1018.308</ele>
        <time>2018-08-01T15:54:56Z</time>
      </trkpt>
      <trkpt lat="47.09634" lon="6.82939">
        <ele>1018.399</ele>
        <time>2018-08-01T15:54:57Z</time>
      </trkpt>
      <trkpt lat="47.09627" lon="6.82944">
        <ele>1018.334</ele>
        <time>2018-08-01T15:54:58Z</time>
      </trkpt>
      <trkpt lat="47.0962" lon="6.82949">
        <ele>1018.238</ele>
        <time>2018-08-01T15:54:59Z</time>
      </trkpt>
      <trkpt lat="47.09614" lon="6.82953">
        <ele>1017.88</ele>
        <time>2018-08-01T15:55:00Z</time>
      </trkpt>
      <trkpt lat="47.09607" lon="6.82957">
        <ele>1017.326</ele>
        <time>2018-08-01T15:55:01Z</time>
      </trkpt>
      <trkpt lat="47.09601" lon="6.8296">
        <ele>1017.073</ele>
        <time>2018-08-01T15:55:02Z</time>
      </trkpt>
      <trkpt lat="47.09591" lon="6.82962">
        <ele>1016.728</ele>
        <time>2018-08-01T15:55:03Z</time>
      </trkpt>
      <trkpt lat="47.09585" lon="6.82963">
        <ele>1016.657</ele>
        <time>2018-08-01T15:55:04Z</time>
      </trkpt>
      <trkpt lat="47.09578" lon="6.82964">
        <ele>1016.548</ele>
        <time>2018-08-01T15:55:05Z</time>
      </trkpt>
      <trkpt lat="47.09572" lon="6.82963">
        <ele>1016.561</ele>
        <time>2018-08-01T15:55:06Z</time>
      </trkpt>
      <trkpt lat="47.09566" lon="6.8296">
        <ele>1016.417</ele>
        <time>2018-08-01T15:55:07Z</time>
      </trkpt>
      <trkpt lat="47.09561" lon="6.82955">
        <ele>1016.408</ele>
        <time>2018-08-01T15:55:08Z</time>
      </trkpt>
      <trkpt lat="47.09555" lon="6.82951">
        <ele>1016.486</ele>
        <time>2018-08-01T15:55:09Z</time>
      </trkpt>
      <trkpt lat="47.09549" lon="6.82946">
        <ele>1016.581</ele>
        <time>2018-08-01T15:55:10Z</time>
      </trkpt>
      <trkpt lat="47.09543" lon="6.82941">
        <ele>1016.725</ele>
        <time>2018-08-01T15:55:11Z</time>
      </trkpt>
      <trkpt lat="47.09537" lon="6.82937">
        <ele>1016.877</ele>
        <time>2018-08-01T15:55:12Z</time>
      </trkpt>
      <trkpt lat="47.09531" lon="6.82933">
        <ele>1016.923</ele>
        <time>2018-08-01T15:55:13Z</time>
      </trkpt>
      <trkpt lat="47.09525" lon="6.82928">
        <ele>1016.98</ele>
        <time>2018-08-01T15:55:14Z</time>
      </trkpt>
      <trkpt lat="47.0952" lon="6.82924">
        <ele>1016.865</ele>
        <time>2018-08-01T15:55:15Z</time>
      </trkpt>
      <trkpt lat="47.09514" lon="6.82922">
        <ele>1016.774</ele>
        <time>2018-08-01T15:55:16Z</time>
      </trkpt>
      <trkpt lat="47.09509" lon="6.82917">
        <ele>1016.743</ele>
        <time>2018-08-01T15:55:17Z</time>
      </trkpt>
      <trkpt lat="47.09502" lon="6.82913">
        <ele>1016.664</ele>
        <time>2018-08-01T15:55:18Z</time>
      </trkpt>
      <trkpt lat="47.09495" lon="6.82908">
        <ele>1016.61</ele>
        <time>2018-08-01T15:55:19Z</time>
      </trkpt>
      <trkpt lat="47.09489" lon="6.82905">
        <ele>1016.608</ele>
        <time>2018-08-01T15:55:20Z</time>
      </trkpt>
      <trkpt lat="47.09482" lon="6.82899">
        <ele>1016.666</ele>
        <time>2018-08-01T15:55:21Z</time>
      </trkpt>
      <trkpt lat="47.09474" lon="6.82895">
        <ele>1016.761</ele>
        <time>2018-08-01T15:55:22Z</time>
      </trkpt>
      <trkpt lat="47.09468" lon="6.8289">
        <ele>1016.845</ele>
        <time>2018-08-01T15:55:23Z</time>
      </trkpt>
      <trkpt lat="47.09461" lon="6.82885">
        <ele>1016.977</ele>
        <time>2018-08-01T15:55:24Z</time>
      </trkpt>
      <trkpt lat="47.09455" lon="6.82881">
        <ele>1017.063</ele>
        <time>2018-08-01T15:55:25Z</time>
      </trkpt>
      <trkpt lat="47.09449" lon="6.82879">
        <ele>1017.14</ele>
        <time>2018-08-01T15:55:26Z</time>
      </trkpt>
      <trkpt lat="47.09442" lon="6.82875">
        <ele>1017.235</ele>
        <time>2018-08-01T15:55:27Z</time>
      </trkpt>
      <trkpt lat="47.09437" lon="6.82871">
        <ele>1017.254</ele>
        <time>2018-08-01T15:55:28Z</time>
      </trkpt>
      <trkpt lat="47.0943" lon="6.82867">
        <ele>1017.224</ele>
        <time>2018-08-01T15:55:29Z</time>
      </trkpt>
      <trkpt lat="47.09425" lon="6.82862">
        <ele>1017.204</ele>
        <time>2018-08-01T15:55:30Z</time>
      </trkpt>
      <trkpt lat="47.09418" lon="6.82858">
        <ele>1017.214</ele>
        <time>2018-08-01T15:55:31Z</time>
      </trkpt>
      <trkpt lat="47.09412" lon="6.82853">
        <ele>1017.308</ele>
        <time>2018-08-01T15:55:32Z</time>
      </trkpt>
      <trkpt lat="47.09407" lon="6.82849">
        <ele>1017.414</ele>
        <time>2018-08-01T15:55:33Z</time>
      </trkpt>
      <trkpt lat="47.09401" lon="6.82847">
        <ele>1017.549</ele>
        <time>2018-08-01T15:55:34Z</time>
      </trkpt>
      <trkpt lat="47.09396" lon="6.8284">
        <ele>1017.643</ele>
        <time>2018-08-01T15:55:35Z</time>
      </trkpt>
      <trkpt lat="47.0939" lon="6.82836">
        <ele>1017.675</ele>
        <time>2018-08-01T15:55:36Z</time>
      </trkpt>
      <trkpt lat="47.09383" lon="6.82833">
        <ele>1017.681</ele>
        <time>2018-08-01T15:55:37Z</time>
      </trkpt>
      <trkpt lat="47.09377" lon="6.82831">
        <ele>1017.638</ele>
        <time>2018-08-01T15:55:38Z</time>
      </trkpt>
      <trkpt lat="47.09372" lon="6.82826">
        <ele>1017.643</ele>
        <time>2018-08-01T15:55:39Z</time>
      </trkpt>
      <trkpt lat="47.09367" lon="6.82823">
        <ele>1017.672</ele>
        <time>2018-08-01T15:55:40Z</time>
      </trkpt>
      <trkpt lat="47.09362" lon="6.82818">
        <ele>1017.688</ele>
        <time>2018-08-01T15:55:41Z</time>
      </trkpt>
      <trkpt lat="47.09357" lon="6.82813">
        <ele>1017.724</ele>
        <time>2018-08-01T15:55:42Z</time>
      </trkpt>
      <trkpt lat="47.09351" lon="6.8281">
        <ele>1017.726</ele>
        <time>2018-08-01T15:55:43Z</time>
      </trkpt>
      <trkpt lat="47.09345" lon="6.82808">
        <ele>1017.708</ele>
        <time>2018-08-01T15:55:44Z</time>
      </trkpt>
      <trkpt lat="47.09338" lon="6.82806">
        <ele>1017.75</ele>
        <time>2018-08-01T15:55:45Z</time>
      </trkpt>
      <trkpt lat="47.09333" lon="6.82805">
        <ele>1017.755</ele>
        <time>2018-08-01T15:55:46Z</time>
      </trkpt>
      <trkpt lat="47.09327" lon="6.82804">
        <ele>1017.649</ele>
        <time>2018-08-01T15:55:47Z</time>
      </trkpt>
      <trkpt lat="47.09321" lon="6.828">
        <ele>1017.531</ele>
        <time>2018-08-01T15:55:48Z</time>
      </trkpt>
      <trkpt lat="47.09315" lon="6.82797">
        <ele>1017.497</ele>
        <time>2018-08-01T15:55:49Z</time>
      </trkpt>
      <trkpt lat="47.09309" lon="6.82793">
        <ele>1017.424</ele>
        <time>2018-08-01T15:55:50Z</time>
      </trkpt>
      <trkpt lat="47.09305" lon="6.82788">
        <ele>1017.529</ele>
        <time>2018-08-01T15:55:51Z</time>
      </trkpt>
      <trkpt lat="47.09301" lon="6.82783">
        <ele>1017.848</ele>
        <time>2018-08-01T15:55:52Z</time>
      </trkpt>
      <trkpt lat="47.09297" lon="6.82779">
        <ele>1018.178</ele>
        <time>2018-08-01T15:55:53Z</time>
      </trkpt>
      <trkpt lat="47.09293" lon="6.82773">
        <ele>1018.633</ele>
        <time>2018-08-01T15:55:54Z</time>
      </trkpt>
      <trkpt lat="47.09288" lon="6.82768">
        <ele>1019.226</ele>
        <time>2018-08-01T15:55:55Z</time>
      </trkpt>
      <trkpt lat="47.09283" lon="6.82765">
        <ele>1019.908</ele>
        <time>2018-08-01T15:55:56Z</time>
      </trkpt>
      <trkpt lat="47.09278" lon="6.82761">
        <ele>1020.579</ele>
        <time>2018-08-01T15:55:57Z</time>
      </trkpt>
      <trkpt lat="47.09274" lon="6.82757">
        <ele>1021.164</ele>
        <time>2018-08-01T15:55:58Z</time>
      </trkpt>
      <trkpt lat="47.0927" lon="6.82753">
        <ele>1021.748</ele>
        <time>2018-08-01T15:55:59Z</time>
      </trkpt>
      <trkpt lat="47.09265" lon="6.82749">
        <ele>1022.23</ele>
        <time>2018-08-01T15:56:00Z</time>
      </trkpt>
      <trkpt lat="47.09261" lon="6.82744">
        <ele>1022.636</ele>
        <time>2018-08-01T15:56:01Z</time>
      </trkpt>
      <trkpt lat="47.09256" lon="6.8274">
        <ele>1023.093</ele>
        <time>2018-08-01T15:56:02Z</time>
      </trkpt>
      <trkpt lat="47.09253" lon="6.82733">
        <ele>1023.448</ele>
        <time>2018-08-01T15:56:03Z</time>
      </trkpt>
      <trkpt lat="47.09248" lon="6.82731">
        <ele>1023.867</ele>
        <time>2018-08-01T15:56:04Z</time>
      </trkpt>
      <trkpt lat="47.09243" lon="6.82727">
        <ele>1024.357</ele>
        <time>2018-08-01T15:56:05Z</time>
      </trkpt>
      <trkpt lat="47.09238" lon="6.82724">
        <ele>1024.8</ele>
        <time>2018-08-01T15:56:06Z</time>
      </trkpt>
      <trkpt lat="47.09233" lon="6.8272">
        <ele>1025.32</ele>
        <time>2018-08-01T15:56:07Z</time>
      </trkpt>
      <trkpt lat="47.09229" lon="6.82717">
        <ele>1025.808</ele>
        <time>2018-08-01T15:56:08Z</time>
      </trkpt>
      <trkpt lat="47.09224" lon="6.82715">
        <ele>1026.457</ele>
        <time>2018-08-01T15:56:09Z</time>
      </trkpt>
      <trkpt lat="47.09219" lon="6.82711">
        <ele>1027.112</ele>
        <time>2018-08-01T15:56:10Z</time>
      </trkpt>
      <trkpt lat="47.09216" lon="6.82707">
        <ele>1027.796</ele>
        <time>2018-08-01T15:56:11Z</time>
      </trkpt>
      <trkpt lat="47.09211" lon="6.82703">
        <ele>1028.348</ele>
        <time>2018-08-01T15:56:12Z</time>
      </trkpt>
      <trkpt lat="47.09206" lon="6.827">
        <ele>1028.374</ele>
        <time>2018-08-01T15:56:13Z</time>
      </trkpt>
      <trkpt lat="47.09202" lon="6.82695">
        <ele>1028.951</ele>
        <time>2018-08-01T15:56:14Z</time>
      </trkpt>
      <trkpt lat="47.09197" lon="6.8269">
        <ele>1029.466</ele>
        <time>2018-08-01T15:56:15Z</time>
      </trkpt>
      <trkpt lat="47.09192" lon="6.82687">
        <ele>1029.895</ele>
        <time>2018-08-01T15:56:16Z</time>
      </trkpt>
      <trkpt lat="47.09188" lon="6.82682">
        <ele>1030.362</ele>
        <time>2018-08-01T15:56:17Z</time>
      </trkpt>
      <trkpt lat="47.09184" lon="6.82677">
        <ele>1030.883</ele>
        <time>2018-08-01T15:56:18Z</time>
      </trkpt>
      <trkpt lat="47.09179" lon="6.82672">
        <ele>1031.311</ele>
        <time>2018-08-01T15:56:19Z</time>
      </trkpt>
      <trkpt lat="47.09175" lon="6.82666">
        <ele>1031.808</ele>
        <time>2018-08-01T15:56:20Z</time>
      </trkpt>
      <trkpt lat="47.09171" lon="6.82661">
        <ele>1032.338</ele>
        <time>2018-08-01T15:56:21Z</time>
      </trkpt>
      <trkpt lat="47.09167" lon="6.82657">
        <ele>1032.883</ele>
        <time>2018-08-01T15:56:22Z</time>
      </trkpt>
      <trkpt lat="47.09159" lon="6.82653">
        <ele>1033.717</ele>
        <time>2018-08-01T15:56:24Z</time>
      </trkpt>
      <trkpt lat="47.09153" lon="6.82651">
        <ele>1034.269</ele>
        <time>2018-08-01T15:56:25Z</time>
      </trkpt>
      <trkpt lat="47.09149" lon="6.82647">
        <ele>1034.765</ele>
        <time>2018-08-01T15:56:26Z</time>
      </trkpt>
      <trkpt lat="47.09143" lon="6.82645">
        <ele>1035.352</ele>
        <time>2018-08-01T15:56:27Z</time>
      </trkpt>
      <trkpt lat="47.09138" lon="6.82644">
        <ele>1036.067</ele>
        <time>2018-08-01T15:56:28Z</time>
      </trkpt>
      <trkpt lat="47.09134" lon="6.82643">
        <ele>1036.766</ele>
        <time>2018-08-01T15:56:29Z</time>
      </trkpt>
      <trkpt lat="47.09129" lon="6.82642">
        <ele>1037.363</ele>
        <time>2018-08-01T15:56:30Z</time>
      </trkpt>
      <trkpt lat="47.09124" lon="6.82642">
        <ele>1037.944</ele>
        <time>2018-08-01T15:56:31Z</time>
      </trkpt>
      <trkpt lat="47.09119" lon="6.82641">
        <ele>1038.618</ele>
        <time>2018-08-01T15:56:32Z</time>
      </trkpt>
      <trkpt lat="47.09114" lon="6.82641">
        <ele>1039.208</ele>
        <time>2018-08-01T15:56:33Z</time>
      </trkpt>
      <trkpt lat="47.09109" lon="6.8264">
        <ele>1039.788</ele>
        <time>2018-08-01T15:56:34Z</time>
      </trkpt>
      <trkpt lat="47.09104" lon="6.8264">
        <ele>1040.363</ele>
        <time>2018-08-01T15:56:35Z</time>
      </trkpt>
      <trkpt lat="47.09095" lon="6.82639">
        <ele>1041.767</ele>
        <time>2018-08-01T15:56:37Z</time>
      </trkpt>
      <trkpt lat="47.0909" lon="6.82641">
        <ele>1042.479</ele>
        <time>2018-08-01T15:56:38Z</time>
      </trkpt>
      <trkpt lat="47.09082" lon="6.82639">
        <ele>1043.725</ele>
        <time>2018-08-01T15:56:40Z</time>
      </trkpt>
      <trkpt lat="47.09077" lon="6.82636">
        <ele>1043.752</ele>
        <time>2018-08-01T15:56:41Z</time>
      </trkpt>
      <trkpt lat="47.09073" lon="6.82632">
        <ele>1044.137</ele>
        <time>2018-08-01T15:56:42Z</time>
      </trkpt>
      <trkpt lat="47.09069" lon="6.82628">
        <ele>1044.476</ele>
        <time>2018-08-01T15:56:43Z</time>
      </trkpt>
      <trkpt lat="47.09064" lon="6.82623">
        <ele>1044.571</ele>
        <time>2018-08-01T15:56:44Z</time>
      </trkpt>
      <trkpt lat="47.09056" lon="6.82616">
        <ele>1044.641</ele>
        <time>2018-08-01T15:56:46Z</time>
      </trkpt>
      <trkpt lat="47.09051" lon="6.82607">
        <ele>1044.715</ele>
        <time>2018-08-01T15:56:48Z</time>
      </trkpt>
      <trkpt lat="47.09044" lon="6.82598">
        <ele>1044.808</ele>
        <time>2018-08-01T15:56:50Z</time>
      </trkpt>
      <trkpt lat="47.09041" lon="6.82591">
        <ele>1044.969</ele>
        <time>2018-08-01T15:56:51Z</time>
      </trkpt>
      <trkpt lat="47.09038" lon="6.82585">
        <ele>1044.924</ele>
        <time>2018-08-01T15:56:52Z</time>
      </trkpt>
      <trkpt lat="47.09035" lon="6.82579">
        <ele>1044.938</ele>
        <time>2018-08-01T15:56:53Z</time>
      </trkpt>
      <trkpt lat="47.09032" lon="6.82573">
        <ele>1044.94</ele>
        <time>2018-08-01T15:56:54Z</time>
      </trkpt>
      <trkpt lat="47.09028" lon="6.82567">
        <ele>1044.896</ele>
        <time>2018-08-01T15:56:55Z</time>
      </trkpt>
      <trkpt lat="47.09025" lon="6.82559">
        <ele>1044.693</ele>
        <time>2018-08-01T15:56:56Z</time>
      </trkpt>
      <trkpt lat="47.09021" lon="6.82552">
        <ele>1044.448</ele>
        <time>2018-08-01T15:56:57Z</time>
      </trkpt>
      <trkpt lat="47.09017" lon="6.82544">
        <ele>1044.237</ele>
        <time>2018-08-01T15:56:58Z</time>
      </trkpt>
      <trkpt lat="47.09015" lon="6.82537">
        <ele>1043.925</ele>
        <time>2018-08-01T15:56:59Z</time>
      </trkpt>
      <trkpt lat="47.09011" lon="6.82529">
        <ele>1043.726</ele>
        <time>2018-08-01T15:57:00Z</time>
      </trkpt>
      <trkpt lat="47.09008" lon="6.82519">
        <ele>1043.508</ele>
        <time>2018-08-01T15:57:01Z</time>
      </trkpt>
      <trkpt lat="47.09005" lon="6.82509">
        <ele>1043.308</ele>
        <time>2018-08-01T15:57:02Z</time>
      </trkpt>
      <trkpt lat="47.09001" lon="6.82497">
        <ele>1042.944</ele>
        <time>2018-08-01T15:57:03Z</time>
      </trkpt>
      <trkpt lat="47.08999" lon="6.82486">
        <ele>1042.759</ele>
        <time>2018-08-01T15:57:04Z</time>
      </trkpt>
      <trkpt lat="47.08998" lon="6.82475">
        <ele>1042.553</ele>
        <time>2018-08-01T15:57:05Z</time>
      </trkpt>
      <trkpt lat="47.08996" lon="6.82463">
        <ele>1042.295</ele>
        <time>2018-08-01T15:57:06Z</time>
      </trkpt>
      <trkpt lat="47.08992" lon="6.82451">
        <ele>1041.971</ele>
        <time>2018-08-01T15:57:07Z</time>
      </trkpt>
      <trkpt lat="47.08989" lon="6.82439">
        <ele>1041.518</ele>
        <time>2018-08-01T15:57:08Z</time>
      </trkpt>
      <trkpt lat="47.08987" lon="6.82427">
        <ele>1041.543</ele>
        <time>2018-08-01T15:57:09Z</time>
      </trkpt>
      <trkpt lat="47.08984" lon="6.82416">
        <ele>1041.022</ele>
        <time>2018-08-01T15:57:10Z</time>
      </trkpt>
      <trkpt lat="47.0898" lon="6.82405">
        <ele>1040.597</ele>
        <time>2018-08-01T15:57:11Z</time>
      </trkpt>
      <trkpt lat="47.08977" lon="6.82393">
        <ele>1040.123</ele>
        <time>2018-08-01T15:57:12Z</time>
      </trkpt>
      <trkpt lat="47.08974" lon="6.82379">
        <ele>1039.825</ele>
        <time>2018-08-01T15:57:13Z</time>
      </trkpt>
      <trkpt lat="47.08971" lon="6.82366">
        <ele>1039.708</ele>
        <time>2018-08-01T15:57:14Z</time>
      </trkpt>
      <trkpt lat="47.08968" lon="6.82353">
        <ele>1039.731</ele>
        <time>2018-08-01T15:57:15Z</time>
      </trkpt>
      <trkpt lat="47.08966" lon="6.82341">
        <ele>1039.716</ele>
        <time>2018-08-01T15:57:16Z</time>
      </trkpt>
      <trkpt lat="47.08963" lon="6.82327">
        <ele>1039.75</ele>
        <time>2018-08-01T15:57:17Z</time>
      </trkpt>
      <trkpt lat="47.0896" lon="6.82316">
        <ele>1039.482</ele>
        <time>2018-08-01T15:57:18Z</time>
      </trkpt>
      <trkpt lat="47.08956" lon="6.82302">
        <ele>1039.028</ele>
        <time>2018-08-01T15:57:19Z</time>
      </trkpt>
      <trkpt lat="47.08954" lon="6.8229">
        <ele>1038.695</ele>
        <time>2018-08-01T15:57:20Z</time>
      </trkpt>
      <trkpt lat="47.0895" lon="6.82277">
        <ele>1038.14</ele>
        <time>2018-08-01T15:57:21Z</time>
      </trkpt>
      <trkpt lat="47.08947" lon="6.82265">
        <ele>1037.499</ele>
        <time>2018-08-01T15:57:22Z</time>
      </trkpt>
      <trkpt lat="47.08945" lon="6.82252">
        <ele>1036.826</ele>
        <time>2018-08-01T15:57:23Z</time>
      </trkpt>
      <trkpt lat="47.08942" lon="6.82239">
        <ele>1036.247</ele>
        <time>2018-08-01T15:57:24Z</time>
      </trkpt>
      <trkpt lat="47.08939" lon="6.82228">
        <ele>1035.511</ele>
        <time>2018-08-01T15:57:25Z</time>
      </trkpt>
      <trkpt lat="47.08936" lon="6.82218">
        <ele>1034.808</ele>
        <time>2018-08-01T15:57:26Z</time>
      </trkpt>
      <trkpt lat="47.08932" lon="6.82208">
        <ele>1034.364</ele>
        <time>2018-08-01T15:57:27Z</time>
      </trkpt>
      <trkpt lat="47.08929" lon="6.822">
        <ele>1034.099</ele>
        <time>2018-08-01T15:57:28Z</time>
      </trkpt>
      <trkpt lat="47.08926" lon="6.82191">
        <ele>1033.633</ele>
        <time>2018-08-01T15:57:29Z</time>
      </trkpt>
      <trkpt lat="47.08925" lon="6.82184">
        <ele>1033.055</ele>
        <time>2018-08-01T15:57:30Z</time>
      </trkpt>
      <trkpt lat="47.08922" lon="6.82174">
        <ele>1031.941</ele>
        <time>2018-08-01T15:57:32Z</time>
      </trkpt>
      <trkpt lat="47.08922" lon="6.82167">
        <ele>1030.078</ele>
        <time>2018-08-01T15:57:39Z</time>
      </trkpt>
    </trkseg>
  </trk>
</gpx>